<?xml version="1.0" encoding="utf-8"?>
<gpx xmlns:xsi="http://www.w3.org/2001/XMLSchema-instance" xmlns:xsd="http://www.w3.org/2001/XMLSchema" version="1.1" creator="Shapelink.com" xmlns="http://www.topografix.com/GPX/1/1" xmlns:gpxtpx="http://www.garmin.com/xmlschemas/TrackPointExtension/v1">
  <metadata>
    <name>Sykling 48.92 km, 2013-05-25</name>
    <desc></desc>
    <author><name>Mikael Blom</name></author> 
    <time>2013-05-25T15:45:34Z</time>
  </metadata>
  <trk>
    <name>Sykling 48.92 km, 2013-05-25</name>
    <trkseg>
      <trkpt lat="59.9784215" lon="17.7391999">
        <ele>37.1481</ele>
        <time>2013-05-25T15:45:34Z</time>
      </trkpt>
      <trkpt lat="59.9783713" lon="17.739187">
        <ele>38.1094</ele>
        <time>2013-05-25T15:45:35Z</time>
      </trkpt>
      <trkpt lat="59.9783165" lon="17.7391764">
        <ele>38.1094</ele>
        <time>2013-05-25T15:45:36Z</time>
      </trkpt>
      <trkpt lat="59.9782588" lon="17.7391818">
        <ele>38.1094</ele>
        <time>2013-05-25T15:45:37Z</time>
      </trkpt>
      <trkpt lat="59.9781989" lon="17.7391807">
        <ele>38.1094</ele>
        <time>2013-05-25T15:45:38Z</time>
      </trkpt>
      <trkpt lat="59.9781361" lon="17.7391647">
        <ele>37.6287</ele>
        <time>2013-05-25T15:45:39Z</time>
      </trkpt>
      <trkpt lat="59.9780706" lon="17.7391345">
        <ele>36.6675</ele>
        <time>2013-05-25T15:45:40Z</time>
      </trkpt>
      <trkpt lat="59.9780073" lon="17.7390948">
        <ele>36.1868</ele>
        <time>2013-05-25T15:45:41Z</time>
      </trkpt>
      <trkpt lat="59.9779429" lon="17.7390545">
        <ele>35.2255</ele>
        <time>2013-05-25T15:45:42Z</time>
      </trkpt>
      <trkpt lat="59.9778766" lon="17.7390195">
        <ele>34.7449</ele>
        <time>2013-05-25T15:45:43Z</time>
      </trkpt>
      <trkpt lat="59.9778073" lon="17.7389922">
        <ele>34.2642</ele>
        <time>2013-05-25T15:45:44Z</time>
      </trkpt>
      <trkpt lat="59.9777358" lon="17.738974">
        <ele>33.3029</ele>
        <time>2013-05-25T15:45:45Z</time>
      </trkpt>
      <trkpt lat="59.9776611" lon="17.7389658">
        <ele>33.7834</ele>
        <time>2013-05-25T15:45:46Z</time>
      </trkpt>
      <trkpt lat="59.9775851" lon="17.7389685">
        <ele>33.7834</ele>
        <time>2013-05-25T15:45:47Z</time>
      </trkpt>
      <trkpt lat="59.9775062" lon="17.7389819">
        <ele>33.3029</ele>
        <time>2013-05-25T15:45:48Z</time>
      </trkpt>
      <trkpt lat="59.9774226" lon="17.7390112">
        <ele>32.8223</ele>
        <time>2013-05-25T15:45:49Z</time>
      </trkpt>
      <trkpt lat="59.977337" lon="17.7390533">
        <ele>32.3416</ele>
        <time>2013-05-25T15:45:50Z</time>
      </trkpt>
      <trkpt lat="59.9772518" lon="17.7390917">
        <ele>32.3416</ele>
        <time>2013-05-25T15:45:51Z</time>
      </trkpt>
      <trkpt lat="59.9771661" lon="17.7391332">
        <ele>31.8607</ele>
        <time>2013-05-25T15:45:52Z</time>
      </trkpt>
      <trkpt lat="59.9770763" lon="17.7391804">
        <ele>31.8607</ele>
        <time>2013-05-25T15:45:53Z</time>
      </trkpt>
      <trkpt lat="59.9769856" lon="17.7392243">
        <ele>31.8607</ele>
        <time>2013-05-25T15:45:54Z</time>
      </trkpt>
      <trkpt lat="59.9768951" lon="17.7392575">
        <ele>31.8607</ele>
        <time>2013-05-25T15:45:55Z</time>
      </trkpt>
      <trkpt lat="59.9768059" lon="17.7392953">
        <ele>31.8607</ele>
        <time>2013-05-25T15:45:56Z</time>
      </trkpt>
      <trkpt lat="59.9767154" lon="17.7393492">
        <ele>31.3801</ele>
        <time>2013-05-25T15:45:57Z</time>
      </trkpt>
      <trkpt lat="59.9766277" lon="17.7394116">
        <ele>30.8995</ele>
        <time>2013-05-25T15:45:58Z</time>
      </trkpt>
      <trkpt lat="59.9765396" lon="17.7394874">
        <ele>30.4188</ele>
        <time>2013-05-25T15:45:59Z</time>
      </trkpt>
      <trkpt lat="59.9764564" lon="17.7395729">
        <ele>30.4188</ele>
        <time>2013-05-25T15:46:00Z</time>
      </trkpt>
      <trkpt lat="59.9763818" lon="17.7396523">
        <ele>30.4188</ele>
        <time>2013-05-25T15:46:01Z</time>
      </trkpt>
      <trkpt lat="59.9763082" lon="17.7397019">
        <ele>30.4188</ele>
        <time>2013-05-25T15:46:02Z</time>
      </trkpt>
      <trkpt lat="59.9762339" lon="17.7397071">
        <ele>30.4188</ele>
        <time>2013-05-25T15:46:03Z</time>
      </trkpt>
      <trkpt lat="59.9761621" lon="17.7396675">
        <ele>29.9381</ele>
        <time>2013-05-25T15:46:04Z</time>
      </trkpt>
      <trkpt lat="59.9760356" lon="17.7394811">
        <ele>28.9769</ele>
        <time>2013-05-25T15:46:06Z</time>
      </trkpt>
      <trkpt lat="59.9759766" lon="17.739361">
        <ele>28.4962</ele>
        <time>2013-05-25T15:46:07Z</time>
      </trkpt>
      <trkpt lat="59.975916" lon="17.7392389">
        <ele>28.0155</ele>
        <time>2013-05-25T15:46:08Z</time>
      </trkpt>
      <trkpt lat="59.9758529" lon="17.7391182">
        <ele>27.5349</ele>
        <time>2013-05-25T15:46:09Z</time>
      </trkpt>
      <trkpt lat="59.9757881" lon="17.7389978">
        <ele>27.5349</ele>
        <time>2013-05-25T15:46:10Z</time>
      </trkpt>
      <trkpt lat="59.9757219" lon="17.7388765">
        <ele>27.0543</ele>
        <time>2013-05-25T15:46:11Z</time>
      </trkpt>
      <trkpt lat="59.9756478" lon="17.7387502">
        <ele>27.0543</ele>
        <time>2013-05-25T15:46:12Z</time>
      </trkpt>
      <trkpt lat="59.9755807" lon="17.7386213">
        <ele>27.0543</ele>
        <time>2013-05-25T15:46:13Z</time>
      </trkpt>
      <trkpt lat="59.9755147" lon="17.7384947">
        <ele>27.0543</ele>
        <time>2013-05-25T15:46:14Z</time>
      </trkpt>
      <trkpt lat="59.9754488" lon="17.7383789">
        <ele>27.0543</ele>
        <time>2013-05-25T15:46:15Z</time>
      </trkpt>
      <trkpt lat="59.9753852" lon="17.7382644">
        <ele>26.5736</ele>
        <time>2013-05-25T15:46:16Z</time>
      </trkpt>
      <trkpt lat="59.9753275" lon="17.7381521">
        <ele>26.0929</ele>
        <time>2013-05-25T15:46:17Z</time>
      </trkpt>
      <trkpt lat="59.975267" lon="17.738036">
        <ele>26.0929</ele>
        <time>2013-05-25T15:46:18Z</time>
      </trkpt>
      <trkpt lat="59.9752054" lon="17.7379261">
        <ele>25.6123</ele>
        <time>2013-05-25T15:46:19Z</time>
      </trkpt>
      <trkpt lat="59.9751448" lon="17.7378246">
        <ele>25.1317</ele>
        <time>2013-05-25T15:46:20Z</time>
      </trkpt>
      <trkpt lat="59.9750817" lon="17.7377164">
        <ele>24.651</ele>
        <time>2013-05-25T15:46:21Z</time>
      </trkpt>
      <trkpt lat="59.9750205" lon="17.7376039">
        <ele>24.651</ele>
        <time>2013-05-25T15:46:22Z</time>
      </trkpt>
      <trkpt lat="59.9749602" lon="17.7374926">
        <ele>24.1703</ele>
        <time>2013-05-25T15:46:23Z</time>
      </trkpt>
      <trkpt lat="59.9749023" lon="17.7373812">
        <ele>23.6896</ele>
        <time>2013-05-25T15:46:24Z</time>
      </trkpt>
      <trkpt lat="59.9748443" lon="17.7372547">
        <ele>23.6896</ele>
        <time>2013-05-25T15:46:25Z</time>
      </trkpt>
      <trkpt lat="59.9747894" lon="17.7371252">
        <ele>23.6896</ele>
        <time>2013-05-25T15:46:26Z</time>
      </trkpt>
      <trkpt lat="59.9747365" lon="17.7369901">
        <ele>23.209</ele>
        <time>2013-05-25T15:46:27Z</time>
      </trkpt>
      <trkpt lat="59.9746851" lon="17.7368507">
        <ele>23.209</ele>
        <time>2013-05-25T15:46:28Z</time>
      </trkpt>
      <trkpt lat="59.9746351" lon="17.7367092">
        <ele>23.209</ele>
        <time>2013-05-25T15:46:29Z</time>
      </trkpt>
      <trkpt lat="59.9745879" lon="17.7365644">
        <ele>22.7283</ele>
        <time>2013-05-25T15:46:30Z</time>
      </trkpt>
      <trkpt lat="59.9745453" lon="17.7364132">
        <ele>22.7283</ele>
        <time>2013-05-25T15:46:31Z</time>
      </trkpt>
      <trkpt lat="59.9745074" lon="17.7362566">
        <ele>22.7283</ele>
        <time>2013-05-25T15:46:32Z</time>
      </trkpt>
      <trkpt lat="59.9744725" lon="17.7360965">
        <ele>22.7283</ele>
        <time>2013-05-25T15:46:33Z</time>
      </trkpt>
      <trkpt lat="59.9744392" lon="17.7359347">
        <ele>22.2476</ele>
        <time>2013-05-25T15:46:34Z</time>
      </trkpt>
      <trkpt lat="59.9744069" lon="17.7357702">
        <ele>22.2476</ele>
        <time>2013-05-25T15:46:35Z</time>
      </trkpt>
      <trkpt lat="59.9743769" lon="17.7356024">
        <ele>22.2476</ele>
        <time>2013-05-25T15:46:36Z</time>
      </trkpt>
      <trkpt lat="59.9743506" lon="17.7354326">
        <ele>21.767</ele>
        <time>2013-05-25T15:46:37Z</time>
      </trkpt>
      <trkpt lat="59.9743289" lon="17.7352599">
        <ele>21.767</ele>
        <time>2013-05-25T15:46:38Z</time>
      </trkpt>
      <trkpt lat="59.9743109" lon="17.7350832">
        <ele>21.2864</ele>
        <time>2013-05-25T15:46:39Z</time>
      </trkpt>
      <trkpt lat="59.9742957" lon="17.7349024">
        <ele>21.2864</ele>
        <time>2013-05-25T15:46:40Z</time>
      </trkpt>
      <trkpt lat="59.9742849" lon="17.7347192">
        <ele>21.2864</ele>
        <time>2013-05-25T15:46:41Z</time>
      </trkpt>
      <trkpt lat="59.9742792" lon="17.7345354">
        <ele>20.8057</ele>
        <time>2013-05-25T15:46:42Z</time>
      </trkpt>
      <trkpt lat="59.9742769" lon="17.7343513">
        <ele>20.8057</ele>
        <time>2013-05-25T15:46:43Z</time>
      </trkpt>
      <trkpt lat="59.9742792" lon="17.734169">
        <ele>20.8057</ele>
        <time>2013-05-25T15:46:44Z</time>
      </trkpt>
      <trkpt lat="59.9742865" lon="17.7339888">
        <ele>20.8057</ele>
        <time>2013-05-25T15:46:45Z</time>
      </trkpt>
      <trkpt lat="59.9742951" lon="17.7338105">
        <ele>20.8057</ele>
        <time>2013-05-25T15:46:46Z</time>
      </trkpt>
      <trkpt lat="59.9743035" lon="17.7336334">
        <ele>20.8057</ele>
        <time>2013-05-25T15:46:47Z</time>
      </trkpt>
      <trkpt lat="59.9743123" lon="17.7334583">
        <ele>20.8057</ele>
        <time>2013-05-25T15:46:48Z</time>
      </trkpt>
      <trkpt lat="59.9743206" lon="17.7332847">
        <ele>20.8057</ele>
        <time>2013-05-25T15:46:49Z</time>
      </trkpt>
      <trkpt lat="59.9743268" lon="17.7331128">
        <ele>20.8057</ele>
        <time>2013-05-25T15:46:50Z</time>
      </trkpt>
      <trkpt lat="59.9743316" lon="17.7329423">
        <ele>20.8057</ele>
        <time>2013-05-25T15:46:51Z</time>
      </trkpt>
      <trkpt lat="59.9743349" lon="17.732772">
        <ele>20.8057</ele>
        <time>2013-05-25T15:46:52Z</time>
      </trkpt>
      <trkpt lat="59.9743347" lon="17.732604">
        <ele>20.8057</ele>
        <time>2013-05-25T15:46:53Z</time>
      </trkpt>
      <trkpt lat="59.9743321" lon="17.7324378">
        <ele>21.2864</ele>
        <time>2013-05-25T15:46:54Z</time>
      </trkpt>
      <trkpt lat="59.9743288" lon="17.7322736">
        <ele>21.2864</ele>
        <time>2013-05-25T15:46:55Z</time>
      </trkpt>
      <trkpt lat="59.9743257" lon="17.7321095">
        <ele>21.2864</ele>
        <time>2013-05-25T15:46:56Z</time>
      </trkpt>
      <trkpt lat="59.9743233" lon="17.7319456">
        <ele>21.2864</ele>
        <time>2013-05-25T15:46:57Z</time>
      </trkpt>
      <trkpt lat="59.9743211" lon="17.7317818">
        <ele>21.2864</ele>
        <time>2013-05-25T15:46:58Z</time>
      </trkpt>
      <trkpt lat="59.9743191" lon="17.7316184">
        <ele>21.2864</ele>
        <time>2013-05-25T15:46:59Z</time>
      </trkpt>
      <trkpt lat="59.9743191" lon="17.7314551">
        <ele>21.2864</ele>
        <time>2013-05-25T15:47:00Z</time>
      </trkpt>
      <trkpt lat="59.9743215" lon="17.7312931">
        <ele>21.2864</ele>
        <time>2013-05-25T15:47:01Z</time>
      </trkpt>
      <trkpt lat="59.9743269" lon="17.731133">
        <ele>21.2864</ele>
        <time>2013-05-25T15:47:02Z</time>
      </trkpt>
      <trkpt lat="59.9743349" lon="17.7309748">
        <ele>21.767</ele>
        <time>2013-05-25T15:47:03Z</time>
      </trkpt>
      <trkpt lat="59.9743434" lon="17.7308175">
        <ele>21.767</ele>
        <time>2013-05-25T15:47:04Z</time>
      </trkpt>
      <trkpt lat="59.9743527" lon="17.7306614">
        <ele>21.767</ele>
        <time>2013-05-25T15:47:05Z</time>
      </trkpt>
      <trkpt lat="59.9743636" lon="17.7305066">
        <ele>21.767</ele>
        <time>2013-05-25T15:47:06Z</time>
      </trkpt>
      <trkpt lat="59.9743755" lon="17.7303533">
        <ele>21.767</ele>
        <time>2013-05-25T15:47:07Z</time>
      </trkpt>
      <trkpt lat="59.9743889" lon="17.7302017">
        <ele>22.2476</ele>
        <time>2013-05-25T15:47:08Z</time>
      </trkpt>
      <trkpt lat="59.9744014" lon="17.7300515">
        <ele>22.2476</ele>
        <time>2013-05-25T15:47:09Z</time>
      </trkpt>
      <trkpt lat="59.9744127" lon="17.729903">
        <ele>22.2476</ele>
        <time>2013-05-25T15:47:10Z</time>
      </trkpt>
      <trkpt lat="59.9744225" lon="17.7297552">
        <ele>22.2476</ele>
        <time>2013-05-25T15:47:11Z</time>
      </trkpt>
      <trkpt lat="59.9744309" lon="17.7296099">
        <ele>22.2476</ele>
        <time>2013-05-25T15:47:12Z</time>
      </trkpt>
      <trkpt lat="59.9744375" lon="17.729465">
        <ele>22.2476</ele>
        <time>2013-05-25T15:47:13Z</time>
      </trkpt>
      <trkpt lat="59.9744413" lon="17.7293179">
        <ele>22.2476</ele>
        <time>2013-05-25T15:47:14Z</time>
      </trkpt>
      <trkpt lat="59.9744418" lon="17.7291708">
        <ele>22.2476</ele>
        <time>2013-05-25T15:47:15Z</time>
      </trkpt>
      <trkpt lat="59.9744387" lon="17.7290236">
        <ele>22.2476</ele>
        <time>2013-05-25T15:47:16Z</time>
      </trkpt>
      <trkpt lat="59.974434" lon="17.728877">
        <ele>22.2476</ele>
        <time>2013-05-25T15:47:17Z</time>
      </trkpt>
      <trkpt lat="59.9744294" lon="17.7287297">
        <ele>22.2476</ele>
        <time>2013-05-25T15:47:18Z</time>
      </trkpt>
      <trkpt lat="59.9744253" lon="17.7285814">
        <ele>22.2476</ele>
        <time>2013-05-25T15:47:19Z</time>
      </trkpt>
      <trkpt lat="59.9744204" lon="17.7284332">
        <ele>22.7283</ele>
        <time>2013-05-25T15:47:20Z</time>
      </trkpt>
      <trkpt lat="59.9744153" lon="17.728286">
        <ele>22.7283</ele>
        <time>2013-05-25T15:47:21Z</time>
      </trkpt>
      <trkpt lat="59.974411" lon="17.7281389">
        <ele>22.7283</ele>
        <time>2013-05-25T15:47:22Z</time>
      </trkpt>
      <trkpt lat="59.9744081" lon="17.7279927">
        <ele>22.7283</ele>
        <time>2013-05-25T15:47:23Z</time>
      </trkpt>
      <trkpt lat="59.9744072" lon="17.7278483">
        <ele>22.7283</ele>
        <time>2013-05-25T15:47:24Z</time>
      </trkpt>
      <trkpt lat="59.9744061" lon="17.727707">
        <ele>23.209</ele>
        <time>2013-05-25T15:47:25Z</time>
      </trkpt>
      <trkpt lat="59.974404" lon="17.7275696">
        <ele>23.209</ele>
        <time>2013-05-25T15:47:26Z</time>
      </trkpt>
      <trkpt lat="59.9744019" lon="17.727435">
        <ele>23.209</ele>
        <time>2013-05-25T15:47:27Z</time>
      </trkpt>
      <trkpt lat="59.9743983" lon="17.7273039">
        <ele>23.6896</ele>
        <time>2013-05-25T15:47:28Z</time>
      </trkpt>
      <trkpt lat="59.9743947" lon="17.7271764">
        <ele>23.6896</ele>
        <time>2013-05-25T15:47:29Z</time>
      </trkpt>
      <trkpt lat="59.9743927" lon="17.7270516">
        <ele>24.1703</ele>
        <time>2013-05-25T15:47:30Z</time>
      </trkpt>
      <trkpt lat="59.9743909" lon="17.7269292">
        <ele>24.1703</ele>
        <time>2013-05-25T15:47:31Z</time>
      </trkpt>
      <trkpt lat="59.9743873" lon="17.7268097">
        <ele>24.1703</ele>
        <time>2013-05-25T15:47:32Z</time>
      </trkpt>
      <trkpt lat="59.9743827" lon="17.7266919">
        <ele>24.651</ele>
        <time>2013-05-25T15:47:33Z</time>
      </trkpt>
      <trkpt lat="59.9743789" lon="17.726573">
        <ele>24.651</ele>
        <time>2013-05-25T15:47:34Z</time>
      </trkpt>
      <trkpt lat="59.9743764" lon="17.7264538">
        <ele>24.651</ele>
        <time>2013-05-25T15:47:35Z</time>
      </trkpt>
      <trkpt lat="59.9743727" lon="17.7263341">
        <ele>25.1317</ele>
        <time>2013-05-25T15:47:36Z</time>
      </trkpt>
      <trkpt lat="59.9743709" lon="17.7262134">
        <ele>25.1317</ele>
        <time>2013-05-25T15:47:37Z</time>
      </trkpt>
      <trkpt lat="59.9743677" lon="17.7260917">
        <ele>25.1317</ele>
        <time>2013-05-25T15:47:38Z</time>
      </trkpt>
      <trkpt lat="59.974362" lon="17.7259695">
        <ele>25.1317</ele>
        <time>2013-05-25T15:47:39Z</time>
      </trkpt>
      <trkpt lat="59.9743573" lon="17.7258466">
        <ele>25.1317</ele>
        <time>2013-05-25T15:47:40Z</time>
      </trkpt>
      <trkpt lat="59.9743494" lon="17.7257249">
        <ele>25.1317</ele>
        <time>2013-05-25T15:47:41Z</time>
      </trkpt>
      <trkpt lat="59.9743387" lon="17.7256022">
        <ele>25.1317</ele>
        <time>2013-05-25T15:47:42Z</time>
      </trkpt>
      <trkpt lat="59.9743282" lon="17.7254773">
        <ele>25.1317</ele>
        <time>2013-05-25T15:47:43Z</time>
      </trkpt>
      <trkpt lat="59.9743175" lon="17.7253508">
        <ele>25.1317</ele>
        <time>2013-05-25T15:47:44Z</time>
      </trkpt>
      <trkpt lat="59.974305" lon="17.7252233">
        <ele>25.1317</ele>
        <time>2013-05-25T15:47:45Z</time>
      </trkpt>
      <trkpt lat="59.9742904" lon="17.7250954">
        <ele>25.1317</ele>
        <time>2013-05-25T15:47:46Z</time>
      </trkpt>
      <trkpt lat="59.9742749" lon="17.7249674">
        <ele>25.1317</ele>
        <time>2013-05-25T15:47:47Z</time>
      </trkpt>
      <trkpt lat="59.9742588" lon="17.7248395">
        <ele>25.1317</ele>
        <time>2013-05-25T15:47:48Z</time>
      </trkpt>
      <trkpt lat="59.974242" lon="17.7247117">
        <ele>24.651</ele>
        <time>2013-05-25T15:47:49Z</time>
      </trkpt>
      <trkpt lat="59.974224" lon="17.7245834">
        <ele>24.651</ele>
        <time>2013-05-25T15:47:50Z</time>
      </trkpt>
      <trkpt lat="59.9742042" lon="17.7244556">
        <ele>24.651</ele>
        <time>2013-05-25T15:47:51Z</time>
      </trkpt>
      <trkpt lat="59.9741838" lon="17.7243277">
        <ele>24.651</ele>
        <time>2013-05-25T15:47:52Z</time>
      </trkpt>
      <trkpt lat="59.9741643" lon="17.7241979">
        <ele>24.651</ele>
        <time>2013-05-25T15:47:53Z</time>
      </trkpt>
      <trkpt lat="59.9741456" lon="17.7240673">
        <ele>24.651</ele>
        <time>2013-05-25T15:47:54Z</time>
      </trkpt>
      <trkpt lat="59.9741269" lon="17.7239357">
        <ele>24.651</ele>
        <time>2013-05-25T15:47:55Z</time>
      </trkpt>
      <trkpt lat="59.9741076" lon="17.7238031">
        <ele>24.651</ele>
        <time>2013-05-25T15:47:56Z</time>
      </trkpt>
      <trkpt lat="59.974088" lon="17.7236698">
        <ele>24.651</ele>
        <time>2013-05-25T15:47:57Z</time>
      </trkpt>
      <trkpt lat="59.9740686" lon="17.7235356">
        <ele>24.651</ele>
        <time>2013-05-25T15:47:58Z</time>
      </trkpt>
      <trkpt lat="59.9740486" lon="17.7234004">
        <ele>24.651</ele>
        <time>2013-05-25T15:47:59Z</time>
      </trkpt>
      <trkpt lat="59.9740282" lon="17.7232644">
        <ele>24.651</ele>
        <time>2013-05-25T15:48:00Z</time>
      </trkpt>
      <trkpt lat="59.9740056" lon="17.7231288">
        <ele>24.651</ele>
        <time>2013-05-25T15:48:01Z</time>
      </trkpt>
      <trkpt lat="59.9739792" lon="17.7229945">
        <ele>24.651</ele>
        <time>2013-05-25T15:48:02Z</time>
      </trkpt>
      <trkpt lat="59.9739502" lon="17.7228614">
        <ele>24.651</ele>
        <time>2013-05-25T15:48:03Z</time>
      </trkpt>
      <trkpt lat="59.9739203" lon="17.7227292">
        <ele>24.651</ele>
        <time>2013-05-25T15:48:04Z</time>
      </trkpt>
      <trkpt lat="59.973888" lon="17.7225973">
        <ele>25.1317</ele>
        <time>2013-05-25T15:48:05Z</time>
      </trkpt>
      <trkpt lat="59.9738533" lon="17.7224656">
        <ele>25.1317</ele>
        <time>2013-05-25T15:48:06Z</time>
      </trkpt>
      <trkpt lat="59.9738171" lon="17.722333">
        <ele>25.1317</ele>
        <time>2013-05-25T15:48:07Z</time>
      </trkpt>
      <trkpt lat="59.9737797" lon="17.7222029">
        <ele>25.1317</ele>
        <time>2013-05-25T15:48:08Z</time>
      </trkpt>
      <trkpt lat="59.9737413" lon="17.7220756">
        <ele>25.1317</ele>
        <time>2013-05-25T15:48:09Z</time>
      </trkpt>
      <trkpt lat="59.9737014" lon="17.721951">
        <ele>25.1317</ele>
        <time>2013-05-25T15:48:10Z</time>
      </trkpt>
      <trkpt lat="59.9736577" lon="17.7218309">
        <ele>25.1317</ele>
        <time>2013-05-25T15:48:11Z</time>
      </trkpt>
      <trkpt lat="59.973612" lon="17.7217149">
        <ele>25.1317</ele>
        <time>2013-05-25T15:48:12Z</time>
      </trkpt>
      <trkpt lat="59.9735659" lon="17.7216007">
        <ele>25.1317</ele>
        <time>2013-05-25T15:48:13Z</time>
      </trkpt>
      <trkpt lat="59.973519" lon="17.7214892">
        <ele>25.1317</ele>
        <time>2013-05-25T15:48:14Z</time>
      </trkpt>
      <trkpt lat="59.9734705" lon="17.7213817">
        <ele>25.1317</ele>
        <time>2013-05-25T15:48:15Z</time>
      </trkpt>
      <trkpt lat="59.9734203" lon="17.7212784">
        <ele>25.1317</ele>
        <time>2013-05-25T15:48:16Z</time>
      </trkpt>
      <trkpt lat="59.9733686" lon="17.7211784">
        <ele>25.6123</ele>
        <time>2013-05-25T15:48:17Z</time>
      </trkpt>
      <trkpt lat="59.9733157" lon="17.7210784">
        <ele>25.6123</ele>
        <time>2013-05-25T15:48:18Z</time>
      </trkpt>
      <trkpt lat="59.9732619" lon="17.7209791">
        <ele>25.6123</ele>
        <time>2013-05-25T15:48:19Z</time>
      </trkpt>
      <trkpt lat="59.9732064" lon="17.7208845">
        <ele>25.6123</ele>
        <time>2013-05-25T15:48:20Z</time>
      </trkpt>
      <trkpt lat="59.9731489" lon="17.7207941">
        <ele>25.6123</ele>
        <time>2013-05-25T15:48:21Z</time>
      </trkpt>
      <trkpt lat="59.9730899" lon="17.7207073">
        <ele>25.6123</ele>
        <time>2013-05-25T15:48:22Z</time>
      </trkpt>
      <trkpt lat="59.9730301" lon="17.7206219">
        <ele>25.6123</ele>
        <time>2013-05-25T15:48:23Z</time>
      </trkpt>
      <trkpt lat="59.9729691" lon="17.720538">
        <ele>26.0929</ele>
        <time>2013-05-25T15:48:24Z</time>
      </trkpt>
      <trkpt lat="59.9729062" lon="17.7204573">
        <ele>26.0929</ele>
        <time>2013-05-25T15:48:25Z</time>
      </trkpt>
      <trkpt lat="59.9728413" lon="17.7203802">
        <ele>26.0929</ele>
        <time>2013-05-25T15:48:26Z</time>
      </trkpt>
      <trkpt lat="59.9727749" lon="17.7203072">
        <ele>26.0929</ele>
        <time>2013-05-25T15:48:27Z</time>
      </trkpt>
      <trkpt lat="59.9727066" lon="17.7202387">
        <ele>26.0929</ele>
        <time>2013-05-25T15:48:28Z</time>
      </trkpt>
      <trkpt lat="59.9726371" lon="17.7201719">
        <ele>26.0929</ele>
        <time>2013-05-25T15:48:29Z</time>
      </trkpt>
      <trkpt lat="59.9725676" lon="17.7201075">
        <ele>26.0929</ele>
        <time>2013-05-25T15:48:30Z</time>
      </trkpt>
      <trkpt lat="59.9724975" lon="17.7200448">
        <ele>26.5736</ele>
        <time>2013-05-25T15:48:31Z</time>
      </trkpt>
      <trkpt lat="59.9724273" lon="17.7199808">
        <ele>26.5736</ele>
        <time>2013-05-25T15:48:32Z</time>
      </trkpt>
      <trkpt lat="59.9723577" lon="17.7199181">
        <ele>26.5736</ele>
        <time>2013-05-25T15:48:33Z</time>
      </trkpt>
      <trkpt lat="59.9722888" lon="17.7198595">
        <ele>26.5736</ele>
        <time>2013-05-25T15:48:34Z</time>
      </trkpt>
      <trkpt lat="59.9722201" lon="17.7198">
        <ele>26.5736</ele>
        <time>2013-05-25T15:48:35Z</time>
      </trkpt>
      <trkpt lat="59.9721538" lon="17.7197402">
        <ele>26.5736</ele>
        <time>2013-05-25T15:48:36Z</time>
      </trkpt>
      <trkpt lat="59.9720886" lon="17.7196786">
        <ele>26.5736</ele>
        <time>2013-05-25T15:48:37Z</time>
      </trkpt>
      <trkpt lat="59.9720253" lon="17.7196181">
        <ele>26.5736</ele>
        <time>2013-05-25T15:48:38Z</time>
      </trkpt>
      <trkpt lat="59.9719621" lon="17.7195615">
        <ele>26.5736</ele>
        <time>2013-05-25T15:48:39Z</time>
      </trkpt>
      <trkpt lat="59.9718984" lon="17.7195078">
        <ele>26.5736</ele>
        <time>2013-05-25T15:48:40Z</time>
      </trkpt>
      <trkpt lat="59.9718342" lon="17.7194565">
        <ele>27.0543</ele>
        <time>2013-05-25T15:48:41Z</time>
      </trkpt>
      <trkpt lat="59.9717699" lon="17.7194017">
        <ele>27.0543</ele>
        <time>2013-05-25T15:48:42Z</time>
      </trkpt>
      <trkpt lat="59.9717065" lon="17.7193425">
        <ele>27.0543</ele>
        <time>2013-05-25T15:48:43Z</time>
      </trkpt>
      <trkpt lat="59.9716423" lon="17.7192834">
        <ele>27.0543</ele>
        <time>2013-05-25T15:48:44Z</time>
      </trkpt>
      <trkpt lat="59.9715765" lon="17.719227">
        <ele>27.0543</ele>
        <time>2013-05-25T15:48:45Z</time>
      </trkpt>
      <trkpt lat="59.9715104" lon="17.719171">
        <ele>27.5349</ele>
        <time>2013-05-25T15:48:46Z</time>
      </trkpt>
      <trkpt lat="59.9714454" lon="17.7191118">
        <ele>27.5349</ele>
        <time>2013-05-25T15:48:47Z</time>
      </trkpt>
      <trkpt lat="59.9713803" lon="17.7190523">
        <ele>27.5349</ele>
        <time>2013-05-25T15:48:48Z</time>
      </trkpt>
      <trkpt lat="59.9713151" lon="17.718995">
        <ele>27.5349</ele>
        <time>2013-05-25T15:48:49Z</time>
      </trkpt>
      <trkpt lat="59.9712491" lon="17.7189384">
        <ele>28.0155</ele>
        <time>2013-05-25T15:48:50Z</time>
      </trkpt>
      <trkpt lat="59.9711836" lon="17.7188813">
        <ele>28.0155</ele>
        <time>2013-05-25T15:48:51Z</time>
      </trkpt>
      <trkpt lat="59.9711179" lon="17.7188246">
        <ele>28.0155</ele>
        <time>2013-05-25T15:48:52Z</time>
      </trkpt>
      <trkpt lat="59.9710533" lon="17.7187674">
        <ele>28.0155</ele>
        <time>2013-05-25T15:48:53Z</time>
      </trkpt>
      <trkpt lat="59.970986" lon="17.718709">
        <ele>28.4962</ele>
        <time>2013-05-25T15:48:54Z</time>
      </trkpt>
      <trkpt lat="59.9709178" lon="17.7186503">
        <ele>28.4962</ele>
        <time>2013-05-25T15:48:55Z</time>
      </trkpt>
      <trkpt lat="59.9708484" lon="17.7185919">
        <ele>28.4962</ele>
        <time>2013-05-25T15:48:56Z</time>
      </trkpt>
      <trkpt lat="59.970779" lon="17.7185324">
        <ele>28.9769</ele>
        <time>2013-05-25T15:48:57Z</time>
      </trkpt>
      <trkpt lat="59.9707097" lon="17.7184723">
        <ele>28.9769</ele>
        <time>2013-05-25T15:48:58Z</time>
      </trkpt>
      <trkpt lat="59.9706413" lon="17.7184115">
        <ele>28.9769</ele>
        <time>2013-05-25T15:48:59Z</time>
      </trkpt>
      <trkpt lat="59.9705728" lon="17.7183481">
        <ele>28.9769</ele>
        <time>2013-05-25T15:49:00Z</time>
      </trkpt>
      <trkpt lat="59.9705037" lon="17.7182847">
        <ele>28.9769</ele>
        <time>2013-05-25T15:49:01Z</time>
      </trkpt>
      <trkpt lat="59.9704335" lon="17.7182226">
        <ele>28.9769</ele>
        <time>2013-05-25T15:49:02Z</time>
      </trkpt>
      <trkpt lat="59.9703626" lon="17.7181602">
        <ele>28.9769</ele>
        <time>2013-05-25T15:49:03Z</time>
      </trkpt>
      <trkpt lat="59.9702919" lon="17.7180963">
        <ele>28.9769</ele>
        <time>2013-05-25T15:49:04Z</time>
      </trkpt>
      <trkpt lat="59.9702215" lon="17.718033">
        <ele>28.9769</ele>
        <time>2013-05-25T15:49:05Z</time>
      </trkpt>
      <trkpt lat="59.9701513" lon="17.7179703">
        <ele>28.9769</ele>
        <time>2013-05-25T15:49:06Z</time>
      </trkpt>
      <trkpt lat="59.9700818" lon="17.7179077">
        <ele>28.9769</ele>
        <time>2013-05-25T15:49:07Z</time>
      </trkpt>
      <trkpt lat="59.9700128" lon="17.7178455">
        <ele>28.9769</ele>
        <time>2013-05-25T15:49:08Z</time>
      </trkpt>
      <trkpt lat="59.9699444" lon="17.7177852">
        <ele>28.9769</ele>
        <time>2013-05-25T15:49:09Z</time>
      </trkpt>
      <trkpt lat="59.9698762" lon="17.717728">
        <ele>29.4575</ele>
        <time>2013-05-25T15:49:10Z</time>
      </trkpt>
      <trkpt lat="59.9698087" lon="17.7176719">
        <ele>29.4575</ele>
        <time>2013-05-25T15:49:11Z</time>
      </trkpt>
      <trkpt lat="59.9697412" lon="17.7176165">
        <ele>29.4575</ele>
        <time>2013-05-25T15:49:12Z</time>
      </trkpt>
      <trkpt lat="59.9696738" lon="17.7175643">
        <ele>29.4575</ele>
        <time>2013-05-25T15:49:13Z</time>
      </trkpt>
      <trkpt lat="59.9696066" lon="17.7175158">
        <ele>29.4575</ele>
        <time>2013-05-25T15:49:14Z</time>
      </trkpt>
      <trkpt lat="59.96954" lon="17.7174698">
        <ele>29.4575</ele>
        <time>2013-05-25T15:49:15Z</time>
      </trkpt>
      <trkpt lat="59.9694725" lon="17.7174275">
        <ele>29.9381</ele>
        <time>2013-05-25T15:49:16Z</time>
      </trkpt>
      <trkpt lat="59.9694047" lon="17.7173907">
        <ele>29.9381</ele>
        <time>2013-05-25T15:49:17Z</time>
      </trkpt>
      <trkpt lat="59.9693371" lon="17.7173566">
        <ele>29.9381</ele>
        <time>2013-05-25T15:49:18Z</time>
      </trkpt>
      <trkpt lat="59.9692699" lon="17.7173239">
        <ele>30.4188</ele>
        <time>2013-05-25T15:49:19Z</time>
      </trkpt>
      <trkpt lat="59.969205" lon="17.7172964">
        <ele>30.4188</ele>
        <time>2013-05-25T15:49:20Z</time>
      </trkpt>
      <trkpt lat="59.9691431" lon="17.7172753">
        <ele>30.4188</ele>
        <time>2013-05-25T15:49:21Z</time>
      </trkpt>
      <trkpt lat="59.9690804" lon="17.7172528">
        <ele>30.4188</ele>
        <time>2013-05-25T15:49:22Z</time>
      </trkpt>
      <trkpt lat="59.9690167" lon="17.7172327">
        <ele>29.9381</ele>
        <time>2013-05-25T15:49:23Z</time>
      </trkpt>
      <trkpt lat="59.9689529" lon="17.7172119">
        <ele>29.9381</ele>
        <time>2013-05-25T15:49:24Z</time>
      </trkpt>
      <trkpt lat="59.9688871" lon="17.7171856">
        <ele>29.4575</ele>
        <time>2013-05-25T15:49:25Z</time>
      </trkpt>
      <trkpt lat="59.9688188" lon="17.7171581">
        <ele>29.4575</ele>
        <time>2013-05-25T15:49:26Z</time>
      </trkpt>
      <trkpt lat="59.9687479" lon="17.7171338">
        <ele>29.4575</ele>
        <time>2013-05-25T15:49:27Z</time>
      </trkpt>
      <trkpt lat="59.9686736" lon="17.7171068">
        <ele>28.9769</ele>
        <time>2013-05-25T15:49:28Z</time>
      </trkpt>
      <trkpt lat="59.968597" lon="17.7170745">
        <ele>28.4962</ele>
        <time>2013-05-25T15:49:29Z</time>
      </trkpt>
      <trkpt lat="59.968519" lon="17.7170359">
        <ele>28.4962</ele>
        <time>2013-05-25T15:49:30Z</time>
      </trkpt>
      <trkpt lat="59.9684406" lon="17.7169934">
        <ele>28.0155</ele>
        <time>2013-05-25T15:49:31Z</time>
      </trkpt>
      <trkpt lat="59.9683614" lon="17.7169436">
        <ele>27.5349</ele>
        <time>2013-05-25T15:49:32Z</time>
      </trkpt>
      <trkpt lat="59.9682821" lon="17.7168829">
        <ele>27.0543</ele>
        <time>2013-05-25T15:49:33Z</time>
      </trkpt>
      <trkpt lat="59.9682027" lon="17.716811">
        <ele>26.5736</ele>
        <time>2013-05-25T15:49:34Z</time>
      </trkpt>
      <trkpt lat="59.9681242" lon="17.7167257">
        <ele>26.0929</ele>
        <time>2013-05-25T15:49:35Z</time>
      </trkpt>
      <trkpt lat="59.9680464" lon="17.716624">
        <ele>25.6123</ele>
        <time>2013-05-25T15:49:36Z</time>
      </trkpt>
      <trkpt lat="59.9679699" lon="17.7165093">
        <ele>25.1317</ele>
        <time>2013-05-25T15:49:37Z</time>
      </trkpt>
      <trkpt lat="59.9678951" lon="17.7163764">
        <ele>24.651</ele>
        <time>2013-05-25T15:49:38Z</time>
      </trkpt>
      <trkpt lat="59.9678233" lon="17.7162358">
        <ele>23.6896</ele>
        <time>2013-05-25T15:49:39Z</time>
      </trkpt>
      <trkpt lat="59.9677548" lon="17.7160768">
        <ele>23.209</ele>
        <time>2013-05-25T15:49:40Z</time>
      </trkpt>
      <trkpt lat="59.9676905" lon="17.7159041">
        <ele>22.2476</ele>
        <time>2013-05-25T15:49:41Z</time>
      </trkpt>
      <trkpt lat="59.9676315" lon="17.7157183">
        <ele>21.2864</ele>
        <time>2013-05-25T15:49:42Z</time>
      </trkpt>
      <trkpt lat="59.9675721" lon="17.7155289">
        <ele>20.325</ele>
        <time>2013-05-25T15:49:43Z</time>
      </trkpt>
      <trkpt lat="59.9675124" lon="17.7153419">
        <ele>19.3638</ele>
        <time>2013-05-25T15:49:44Z</time>
      </trkpt>
      <trkpt lat="59.9674679" lon="17.7151369">
        <ele>17.9218</ele>
        <time>2013-05-25T15:49:45Z</time>
      </trkpt>
      <trkpt lat="59.9674399" lon="17.7149276">
        <ele>16.9604</ele>
        <time>2013-05-25T15:49:46Z</time>
      </trkpt>
      <trkpt lat="59.967417" lon="17.7147198">
        <ele>16.4797</ele>
        <time>2013-05-25T15:49:47Z</time>
      </trkpt>
      <trkpt lat="59.9673962" lon="17.7145136">
        <ele>15.999</ele>
        <time>2013-05-25T15:49:48Z</time>
      </trkpt>
      <trkpt lat="59.967371" lon="17.7143178">
        <ele>15.0377</ele>
        <time>2013-05-25T15:49:49Z</time>
      </trkpt>
      <trkpt lat="59.9673455" lon="17.7141309">
        <ele>14.557</ele>
        <time>2013-05-25T15:49:50Z</time>
      </trkpt>
      <trkpt lat="59.9673216" lon="17.7139483">
        <ele>14.557</ele>
        <time>2013-05-25T15:49:51Z</time>
      </trkpt>
      <trkpt lat="59.9673003" lon="17.7137755">
        <ele>14.557</ele>
        <time>2013-05-25T15:49:52Z</time>
      </trkpt>
      <trkpt lat="59.9672793" lon="17.713604">
        <ele>14.557</ele>
        <time>2013-05-25T15:49:53Z</time>
      </trkpt>
      <trkpt lat="59.9672582" lon="17.7134475">
        <ele>15.0377</ele>
        <time>2013-05-25T15:49:54Z</time>
      </trkpt>
      <trkpt lat="59.9672307" lon="17.7132964">
        <ele>15.0377</ele>
        <time>2013-05-25T15:49:55Z</time>
      </trkpt>
      <trkpt lat="59.9671995" lon="17.7131507">
        <ele>15.0377</ele>
        <time>2013-05-25T15:49:56Z</time>
      </trkpt>
      <trkpt lat="59.9671672" lon="17.7130062">
        <ele>15.5184</ele>
        <time>2013-05-25T15:49:57Z</time>
      </trkpt>
      <trkpt lat="59.9671335" lon="17.7128663">
        <ele>15.999</ele>
        <time>2013-05-25T15:49:58Z</time>
      </trkpt>
      <trkpt lat="59.967099" lon="17.7127301">
        <ele>15.999</ele>
        <time>2013-05-25T15:49:59Z</time>
      </trkpt>
      <trkpt lat="59.9670626" lon="17.7125975">
        <ele>16.4797</ele>
        <time>2013-05-25T15:50:00Z</time>
      </trkpt>
      <trkpt lat="59.9670234" lon="17.7124692">
        <ele>16.4797</ele>
        <time>2013-05-25T15:50:01Z</time>
      </trkpt>
      <trkpt lat="59.9669817" lon="17.7123463">
        <ele>16.4797</ele>
        <time>2013-05-25T15:50:02Z</time>
      </trkpt>
      <trkpt lat="59.9669378" lon="17.7122257">
        <ele>16.9604</ele>
        <time>2013-05-25T15:50:03Z</time>
      </trkpt>
      <trkpt lat="59.9668927" lon="17.7121055">
        <ele>16.9604</ele>
        <time>2013-05-25T15:50:04Z</time>
      </trkpt>
      <trkpt lat="59.9668468" lon="17.7119837">
        <ele>16.9604</ele>
        <time>2013-05-25T15:50:05Z</time>
      </trkpt>
      <trkpt lat="59.9668018" lon="17.7118605">
        <ele>17.4412</ele>
        <time>2013-05-25T15:50:06Z</time>
      </trkpt>
      <trkpt lat="59.9667577" lon="17.7117343">
        <ele>17.4412</ele>
        <time>2013-05-25T15:50:07Z</time>
      </trkpt>
      <trkpt lat="59.9667121" lon="17.7116056">
        <ele>17.4412</ele>
        <time>2013-05-25T15:50:08Z</time>
      </trkpt>
      <trkpt lat="59.9666689" lon="17.7114761">
        <ele>17.4412</ele>
        <time>2013-05-25T15:50:09Z</time>
      </trkpt>
      <trkpt lat="59.9666285" lon="17.7113445">
        <ele>17.4412</ele>
        <time>2013-05-25T15:50:10Z</time>
      </trkpt>
      <trkpt lat="59.9665867" lon="17.7112118">
        <ele>17.9218</ele>
        <time>2013-05-25T15:50:11Z</time>
      </trkpt>
      <trkpt lat="59.9665453" lon="17.7110756">
        <ele>17.9218</ele>
        <time>2013-05-25T15:50:12Z</time>
      </trkpt>
      <trkpt lat="59.9665044" lon="17.7109369">
        <ele>17.9218</ele>
        <time>2013-05-25T15:50:13Z</time>
      </trkpt>
      <trkpt lat="59.9664634" lon="17.7107985">
        <ele>17.9218</ele>
        <time>2013-05-25T15:50:14Z</time>
      </trkpt>
      <trkpt lat="59.9664244" lon="17.7106598">
        <ele>17.9218</ele>
        <time>2013-05-25T15:50:15Z</time>
      </trkpt>
      <trkpt lat="59.9663843" lon="17.7105196">
        <ele>17.9218</ele>
        <time>2013-05-25T15:50:16Z</time>
      </trkpt>
      <trkpt lat="59.9663446" lon="17.7103794">
        <ele>17.9218</ele>
        <time>2013-05-25T15:50:17Z</time>
      </trkpt>
      <trkpt lat="59.9663057" lon="17.7102392">
        <ele>17.9218</ele>
        <time>2013-05-25T15:50:18Z</time>
      </trkpt>
      <trkpt lat="59.9662669" lon="17.710098">
        <ele>17.9218</ele>
        <time>2013-05-25T15:50:19Z</time>
      </trkpt>
      <trkpt lat="59.9662292" lon="17.7099572">
        <ele>17.9218</ele>
        <time>2013-05-25T15:50:20Z</time>
      </trkpt>
      <trkpt lat="59.9661924" lon="17.7098175">
        <ele>17.9218</ele>
        <time>2013-05-25T15:50:21Z</time>
      </trkpt>
      <trkpt lat="59.966156" lon="17.7096779">
        <ele>17.9218</ele>
        <time>2013-05-25T15:50:22Z</time>
      </trkpt>
      <trkpt lat="59.9661195" lon="17.7095377">
        <ele>17.9218</ele>
        <time>2013-05-25T15:50:23Z</time>
      </trkpt>
      <trkpt lat="59.9660801" lon="17.7093984">
        <ele>17.9218</ele>
        <time>2013-05-25T15:50:24Z</time>
      </trkpt>
      <trkpt lat="59.9660381" lon="17.7092591">
        <ele>17.9218</ele>
        <time>2013-05-25T15:50:25Z</time>
      </trkpt>
      <trkpt lat="59.9659956" lon="17.7091185">
        <ele>17.9218</ele>
        <time>2013-05-25T15:50:26Z</time>
      </trkpt>
      <trkpt lat="59.965952" lon="17.7089781">
        <ele>17.9218</ele>
        <time>2013-05-25T15:50:27Z</time>
      </trkpt>
      <trkpt lat="59.9659066" lon="17.7088384">
        <ele>17.9218</ele>
        <time>2013-05-25T15:50:28Z</time>
      </trkpt>
      <trkpt lat="59.9658589" lon="17.7087016">
        <ele>18.4023</ele>
        <time>2013-05-25T15:50:29Z</time>
      </trkpt>
      <trkpt lat="59.9658081" lon="17.7085699">
        <ele>18.4023</ele>
        <time>2013-05-25T15:50:30Z</time>
      </trkpt>
      <trkpt lat="59.9657547" lon="17.7084421">
        <ele>18.4023</ele>
        <time>2013-05-25T15:50:31Z</time>
      </trkpt>
      <trkpt lat="59.9656979" lon="17.7083197">
        <ele>18.4023</ele>
        <time>2013-05-25T15:50:32Z</time>
      </trkpt>
      <trkpt lat="59.9656363" lon="17.7082086">
        <ele>18.4023</ele>
        <time>2013-05-25T15:50:33Z</time>
      </trkpt>
      <trkpt lat="59.9655695" lon="17.7081132">
        <ele>18.8831</ele>
        <time>2013-05-25T15:50:34Z</time>
      </trkpt>
      <trkpt lat="59.9654992" lon="17.7080304">
        <ele>18.8831</ele>
        <time>2013-05-25T15:50:35Z</time>
      </trkpt>
      <trkpt lat="59.9654267" lon="17.7079552">
        <ele>18.8831</ele>
        <time>2013-05-25T15:50:36Z</time>
      </trkpt>
      <trkpt lat="59.9653528" lon="17.7078837">
        <ele>18.8831</ele>
        <time>2013-05-25T15:50:37Z</time>
      </trkpt>
      <trkpt lat="59.9652782" lon="17.7078141">
        <ele>18.8831</ele>
        <time>2013-05-25T15:50:38Z</time>
      </trkpt>
      <trkpt lat="59.9652032" lon="17.7077478">
        <ele>19.3638</ele>
        <time>2013-05-25T15:50:39Z</time>
      </trkpt>
      <trkpt lat="59.965128" lon="17.7076869">
        <ele>19.3638</ele>
        <time>2013-05-25T15:50:40Z</time>
      </trkpt>
      <trkpt lat="59.9650528" lon="17.7076309">
        <ele>19.3638</ele>
        <time>2013-05-25T15:50:41Z</time>
      </trkpt>
      <trkpt lat="59.9649781" lon="17.7075761">
        <ele>19.8444</ele>
        <time>2013-05-25T15:50:42Z</time>
      </trkpt>
      <trkpt lat="59.9649038" lon="17.7075205">
        <ele>19.8444</ele>
        <time>2013-05-25T15:50:43Z</time>
      </trkpt>
      <trkpt lat="59.9648301" lon="17.7074649">
        <ele>20.325</ele>
        <time>2013-05-25T15:50:44Z</time>
      </trkpt>
      <trkpt lat="59.9647575" lon="17.707411">
        <ele>20.325</ele>
        <time>2013-05-25T15:50:45Z</time>
      </trkpt>
      <trkpt lat="59.9646855" lon="17.7073585">
        <ele>20.325</ele>
        <time>2013-05-25T15:50:46Z</time>
      </trkpt>
      <trkpt lat="59.9646141" lon="17.7073107">
        <ele>20.8057</ele>
        <time>2013-05-25T15:50:47Z</time>
      </trkpt>
      <trkpt lat="59.9645424" lon="17.7072671">
        <ele>20.8057</ele>
        <time>2013-05-25T15:50:48Z</time>
      </trkpt>
      <trkpt lat="59.9644701" lon="17.7072302">
        <ele>20.8057</ele>
        <time>2013-05-25T15:50:49Z</time>
      </trkpt>
      <trkpt lat="59.9643966" lon="17.707201">
        <ele>20.8057</ele>
        <time>2013-05-25T15:50:50Z</time>
      </trkpt>
      <trkpt lat="59.9643223" lon="17.7071758">
        <ele>20.8057</ele>
        <time>2013-05-25T15:50:51Z</time>
      </trkpt>
      <trkpt lat="59.9642474" lon="17.7071517">
        <ele>20.8057</ele>
        <time>2013-05-25T15:50:52Z</time>
      </trkpt>
      <trkpt lat="59.9641717" lon="17.7071306">
        <ele>20.8057</ele>
        <time>2013-05-25T15:50:53Z</time>
      </trkpt>
      <trkpt lat="59.9640938" lon="17.7071106">
        <ele>20.8057</ele>
        <time>2013-05-25T15:50:54Z</time>
      </trkpt>
      <trkpt lat="59.9640154" lon="17.7070954">
        <ele>21.2864</ele>
        <time>2013-05-25T15:50:55Z</time>
      </trkpt>
      <trkpt lat="59.9639317" lon="17.7071134">
        <ele>21.2864</ele>
        <time>2013-05-25T15:50:56Z</time>
      </trkpt>
      <trkpt lat="59.9638562" lon="17.707102">
        <ele>21.767</ele>
        <time>2013-05-25T15:50:57Z</time>
      </trkpt>
      <trkpt lat="59.96378" lon="17.7070901">
        <ele>21.767</ele>
        <time>2013-05-25T15:50:58Z</time>
      </trkpt>
      <trkpt lat="59.9637033" lon="17.7070798">
        <ele>21.767</ele>
        <time>2013-05-25T15:50:59Z</time>
      </trkpt>
      <trkpt lat="59.9636263" lon="17.7070712">
        <ele>21.767</ele>
        <time>2013-05-25T15:51:00Z</time>
      </trkpt>
      <trkpt lat="59.9635492" lon="17.7070657">
        <ele>21.2864</ele>
        <time>2013-05-25T15:51:01Z</time>
      </trkpt>
      <trkpt lat="59.963472" lon="17.7070629">
        <ele>21.2864</ele>
        <time>2013-05-25T15:51:02Z</time>
      </trkpt>
      <trkpt lat="59.9633942" lon="17.7070593">
        <ele>21.767</ele>
        <time>2013-05-25T15:51:03Z</time>
      </trkpt>
      <trkpt lat="59.963315" lon="17.7070579">
        <ele>21.767</ele>
        <time>2013-05-25T15:51:04Z</time>
      </trkpt>
      <trkpt lat="59.9632367" lon="17.7070577">
        <ele>21.767</ele>
        <time>2013-05-25T15:51:05Z</time>
      </trkpt>
      <trkpt lat="59.9631594" lon="17.7070573">
        <ele>21.767</ele>
        <time>2013-05-25T15:51:06Z</time>
      </trkpt>
      <trkpt lat="59.9630824" lon="17.707059">
        <ele>21.767</ele>
        <time>2013-05-25T15:51:07Z</time>
      </trkpt>
      <trkpt lat="59.9630063" lon="17.7070632">
        <ele>21.767</ele>
        <time>2013-05-25T15:51:08Z</time>
      </trkpt>
      <trkpt lat="59.9629311" lon="17.7070666">
        <ele>22.2476</ele>
        <time>2013-05-25T15:51:09Z</time>
      </trkpt>
      <trkpt lat="59.9628558" lon="17.7070681">
        <ele>22.2476</ele>
        <time>2013-05-25T15:51:10Z</time>
      </trkpt>
      <trkpt lat="59.9627788" lon="17.7070676">
        <ele>22.2476</ele>
        <time>2013-05-25T15:51:11Z</time>
      </trkpt>
      <trkpt lat="59.9626973" lon="17.7070688">
        <ele>22.7283</ele>
        <time>2013-05-25T15:51:12Z</time>
      </trkpt>
      <trkpt lat="59.9626199" lon="17.7070572">
        <ele>22.7283</ele>
        <time>2013-05-25T15:51:13Z</time>
      </trkpt>
      <trkpt lat="59.962543" lon="17.7070319">
        <ele>22.7283</ele>
        <time>2013-05-25T15:51:14Z</time>
      </trkpt>
      <trkpt lat="59.9624659" lon="17.7070041">
        <ele>22.7283</ele>
        <time>2013-05-25T15:51:15Z</time>
      </trkpt>
      <trkpt lat="59.9623883" lon="17.7069739">
        <ele>22.7283</ele>
        <time>2013-05-25T15:51:16Z</time>
      </trkpt>
      <trkpt lat="59.9623106" lon="17.706937">
        <ele>22.7283</ele>
        <time>2013-05-25T15:51:17Z</time>
      </trkpt>
      <trkpt lat="59.9622332" lon="17.7068983">
        <ele>22.7283</ele>
        <time>2013-05-25T15:51:18Z</time>
      </trkpt>
      <trkpt lat="59.9621567" lon="17.7068593">
        <ele>22.7283</ele>
        <time>2013-05-25T15:51:19Z</time>
      </trkpt>
      <trkpt lat="59.9620798" lon="17.7068135">
        <ele>22.7283</ele>
        <time>2013-05-25T15:51:20Z</time>
      </trkpt>
      <trkpt lat="59.9620026" lon="17.706764">
        <ele>22.7283</ele>
        <time>2013-05-25T15:51:21Z</time>
      </trkpt>
      <trkpt lat="59.9619263" lon="17.7067118">
        <ele>22.7283</ele>
        <time>2013-05-25T15:51:22Z</time>
      </trkpt>
      <trkpt lat="59.9618506" lon="17.7066558">
        <ele>22.7283</ele>
        <time>2013-05-25T15:51:23Z</time>
      </trkpt>
      <trkpt lat="59.961776" lon="17.7065943">
        <ele>23.209</ele>
        <time>2013-05-25T15:51:24Z</time>
      </trkpt>
      <trkpt lat="59.9617009" lon="17.7065327">
        <ele>23.209</ele>
        <time>2013-05-25T15:51:25Z</time>
      </trkpt>
      <trkpt lat="59.9616294" lon="17.7064629">
        <ele>23.209</ele>
        <time>2013-05-25T15:51:26Z</time>
      </trkpt>
      <trkpt lat="59.9615615" lon="17.7063834">
        <ele>23.209</ele>
        <time>2013-05-25T15:51:27Z</time>
      </trkpt>
      <trkpt lat="59.9614983" lon="17.7062933">
        <ele>23.209</ele>
        <time>2013-05-25T15:51:28Z</time>
      </trkpt>
      <trkpt lat="59.9614365" lon="17.7061944">
        <ele>23.209</ele>
        <time>2013-05-25T15:51:29Z</time>
      </trkpt>
      <trkpt lat="59.9613755" lon="17.7060894">
        <ele>22.7283</ele>
        <time>2013-05-25T15:51:30Z</time>
      </trkpt>
      <trkpt lat="59.9613145" lon="17.7059637">
        <ele>22.7283</ele>
        <time>2013-05-25T15:51:31Z</time>
      </trkpt>
      <trkpt lat="59.9612539" lon="17.7058427">
        <ele>23.209</ele>
        <time>2013-05-25T15:51:32Z</time>
      </trkpt>
      <trkpt lat="59.9611953" lon="17.7057249">
        <ele>23.209</ele>
        <time>2013-05-25T15:51:33Z</time>
      </trkpt>
      <trkpt lat="59.9611399" lon="17.7056081">
        <ele>23.209</ele>
        <time>2013-05-25T15:51:34Z</time>
      </trkpt>
      <trkpt lat="59.9610817" lon="17.7055013">
        <ele>23.209</ele>
        <time>2013-05-25T15:51:35Z</time>
      </trkpt>
      <trkpt lat="59.9610217" lon="17.7053945">
        <ele>23.209</ele>
        <time>2013-05-25T15:51:36Z</time>
      </trkpt>
      <trkpt lat="59.960958" lon="17.7052944">
        <ele>23.6896</ele>
        <time>2013-05-25T15:51:37Z</time>
      </trkpt>
      <trkpt lat="59.9608925" lon="17.7051947">
        <ele>23.6896</ele>
        <time>2013-05-25T15:51:38Z</time>
      </trkpt>
      <trkpt lat="59.9608226" lon="17.7051049">
        <ele>23.6896</ele>
        <time>2013-05-25T15:51:39Z</time>
      </trkpt>
      <trkpt lat="59.9607775" lon="17.7050657">
        <ele>23.6896</ele>
        <time>2013-05-25T15:51:40Z</time>
      </trkpt>
      <trkpt lat="59.9607072" lon="17.7049802">
        <ele>23.6896</ele>
        <time>2013-05-25T15:51:41Z</time>
      </trkpt>
      <trkpt lat="59.9606312" lon="17.7048933">
        <ele>23.6896</ele>
        <time>2013-05-25T15:51:42Z</time>
      </trkpt>
      <trkpt lat="59.9605638" lon="17.7048088">
        <ele>23.6896</ele>
        <time>2013-05-25T15:51:43Z</time>
      </trkpt>
      <trkpt lat="59.9604949" lon="17.7047298">
        <ele>23.6896</ele>
        <time>2013-05-25T15:51:44Z</time>
      </trkpt>
      <trkpt lat="59.9604259" lon="17.7046451">
        <ele>24.1703</ele>
        <time>2013-05-25T15:51:45Z</time>
      </trkpt>
      <trkpt lat="59.9603567" lon="17.704573">
        <ele>24.1703</ele>
        <time>2013-05-25T15:51:46Z</time>
      </trkpt>
      <trkpt lat="59.9602889" lon="17.7044998">
        <ele>24.1703</ele>
        <time>2013-05-25T15:51:47Z</time>
      </trkpt>
      <trkpt lat="59.9602235" lon="17.7044211">
        <ele>24.1703</ele>
        <time>2013-05-25T15:51:48Z</time>
      </trkpt>
      <trkpt lat="59.9601583" lon="17.7043347">
        <ele>24.1703</ele>
        <time>2013-05-25T15:51:49Z</time>
      </trkpt>
      <trkpt lat="59.9600989" lon="17.7042367">
        <ele>24.651</ele>
        <time>2013-05-25T15:51:50Z</time>
      </trkpt>
      <trkpt lat="59.9600385" lon="17.7041289">
        <ele>24.651</ele>
        <time>2013-05-25T15:51:51Z</time>
      </trkpt>
      <trkpt lat="59.9599857" lon="17.7040037">
        <ele>24.651</ele>
        <time>2013-05-25T15:51:52Z</time>
      </trkpt>
      <trkpt lat="59.9599375" lon="17.703867">
        <ele>24.651</ele>
        <time>2013-05-25T15:51:53Z</time>
      </trkpt>
      <trkpt lat="59.9598946" lon="17.7037255">
        <ele>25.1317</ele>
        <time>2013-05-25T15:51:54Z</time>
      </trkpt>
      <trkpt lat="59.9598539" lon="17.7035837">
        <ele>25.6123</ele>
        <time>2013-05-25T15:51:55Z</time>
      </trkpt>
      <trkpt lat="59.9598131" lon="17.7034415">
        <ele>26.0929</ele>
        <time>2013-05-25T15:51:56Z</time>
      </trkpt>
      <trkpt lat="59.9597752" lon="17.7033055">
        <ele>26.5736</ele>
        <time>2013-05-25T15:51:57Z</time>
      </trkpt>
      <trkpt lat="59.9597363" lon="17.7031672">
        <ele>26.0929</ele>
        <time>2013-05-25T15:51:58Z</time>
      </trkpt>
      <trkpt lat="59.9597012" lon="17.7030362">
        <ele>26.5736</ele>
        <time>2013-05-25T15:51:59Z</time>
      </trkpt>
      <trkpt lat="59.9596638" lon="17.7029031">
        <ele>26.5736</ele>
        <time>2013-05-25T15:52:00Z</time>
      </trkpt>
      <trkpt lat="59.9596366" lon="17.7027491">
        <ele>26.5736</ele>
        <time>2013-05-25T15:52:01Z</time>
      </trkpt>
      <trkpt lat="59.9595984" lon="17.7026115">
        <ele>26.5736</ele>
        <time>2013-05-25T15:52:02Z</time>
      </trkpt>
      <trkpt lat="59.9595537" lon="17.702484">
        <ele>26.5736</ele>
        <time>2013-05-25T15:52:03Z</time>
      </trkpt>
      <trkpt lat="59.9595139" lon="17.7023444">
        <ele>26.0929</ele>
        <time>2013-05-25T15:52:04Z</time>
      </trkpt>
      <trkpt lat="59.9594714" lon="17.7021871">
        <ele>26.0929</ele>
        <time>2013-05-25T15:52:05Z</time>
      </trkpt>
      <trkpt lat="59.959433" lon="17.7020387">
        <ele>26.5736</ele>
        <time>2013-05-25T15:52:06Z</time>
      </trkpt>
      <trkpt lat="59.9593973" lon="17.7018898">
        <ele>26.5736</ele>
        <time>2013-05-25T15:52:07Z</time>
      </trkpt>
      <trkpt lat="59.9593616" lon="17.7017474">
        <ele>26.5736</ele>
        <time>2013-05-25T15:52:08Z</time>
      </trkpt>
      <trkpt lat="59.9593243" lon="17.7016052">
        <ele>26.5736</ele>
        <time>2013-05-25T15:52:09Z</time>
      </trkpt>
      <trkpt lat="59.959292" lon="17.7014603">
        <ele>27.0543</ele>
        <time>2013-05-25T15:52:10Z</time>
      </trkpt>
      <trkpt lat="59.9592631" lon="17.7013153">
        <ele>27.0543</ele>
        <time>2013-05-25T15:52:11Z</time>
      </trkpt>
      <trkpt lat="59.9592394" lon="17.7011631">
        <ele>27.0543</ele>
        <time>2013-05-25T15:52:12Z</time>
      </trkpt>
      <trkpt lat="59.959216" lon="17.7010075">
        <ele>26.5736</ele>
        <time>2013-05-25T15:52:13Z</time>
      </trkpt>
      <trkpt lat="59.9591952" lon="17.7008481">
        <ele>26.5736</ele>
        <time>2013-05-25T15:52:14Z</time>
      </trkpt>
      <trkpt lat="59.9591761" lon="17.7006859">
        <ele>26.5736</ele>
        <time>2013-05-25T15:52:15Z</time>
      </trkpt>
      <trkpt lat="59.959157" lon="17.700523">
        <ele>26.5736</ele>
        <time>2013-05-25T15:52:16Z</time>
      </trkpt>
      <trkpt lat="59.959138" lon="17.7003585">
        <ele>26.5736</ele>
        <time>2013-05-25T15:52:17Z</time>
      </trkpt>
      <trkpt lat="59.9591204" lon="17.7001933">
        <ele>26.5736</ele>
        <time>2013-05-25T15:52:18Z</time>
      </trkpt>
      <trkpt lat="59.9591059" lon="17.7000291">
        <ele>26.5736</ele>
        <time>2013-05-25T15:52:19Z</time>
      </trkpt>
      <trkpt lat="59.9590925" lon="17.6998674">
        <ele>27.0543</ele>
        <time>2013-05-25T15:52:20Z</time>
      </trkpt>
      <trkpt lat="59.9590793" lon="17.6997084">
        <ele>27.0543</ele>
        <time>2013-05-25T15:52:21Z</time>
      </trkpt>
      <trkpt lat="59.9590695" lon="17.699551">
        <ele>27.0543</ele>
        <time>2013-05-25T15:52:22Z</time>
      </trkpt>
      <trkpt lat="59.9590616" lon="17.6993946">
        <ele>27.0543</ele>
        <time>2013-05-25T15:52:23Z</time>
      </trkpt>
      <trkpt lat="59.9590526" lon="17.6992412">
        <ele>27.5349</ele>
        <time>2013-05-25T15:52:24Z</time>
      </trkpt>
      <trkpt lat="59.959045" lon="17.6990908">
        <ele>27.5349</ele>
        <time>2013-05-25T15:52:25Z</time>
      </trkpt>
      <trkpt lat="59.9590398" lon="17.6989428">
        <ele>28.0155</ele>
        <time>2013-05-25T15:52:26Z</time>
      </trkpt>
      <trkpt lat="59.9590361" lon="17.6987941">
        <ele>28.0155</ele>
        <time>2013-05-25T15:52:27Z</time>
      </trkpt>
      <trkpt lat="59.9590334" lon="17.6986475">
        <ele>28.4962</ele>
        <time>2013-05-25T15:52:28Z</time>
      </trkpt>
      <trkpt lat="59.9590319" lon="17.698503">
        <ele>28.4962</ele>
        <time>2013-05-25T15:52:29Z</time>
      </trkpt>
      <trkpt lat="59.9590295" lon="17.6983569">
        <ele>28.4962</ele>
        <time>2013-05-25T15:52:30Z</time>
      </trkpt>
      <trkpt lat="59.9590253" lon="17.6982086">
        <ele>28.4962</ele>
        <time>2013-05-25T15:52:31Z</time>
      </trkpt>
      <trkpt lat="59.9590181" lon="17.6980586">
        <ele>28.4962</ele>
        <time>2013-05-25T15:52:32Z</time>
      </trkpt>
      <trkpt lat="59.9590071" lon="17.6979087">
        <ele>28.4962</ele>
        <time>2013-05-25T15:52:33Z</time>
      </trkpt>
      <trkpt lat="59.9589922" lon="17.6977576">
        <ele>28.0155</ele>
        <time>2013-05-25T15:52:34Z</time>
      </trkpt>
      <trkpt lat="59.9589746" lon="17.6976043">
        <ele>28.0155</ele>
        <time>2013-05-25T15:52:35Z</time>
      </trkpt>
      <trkpt lat="59.9589544" lon="17.6974499">
        <ele>27.5349</ele>
        <time>2013-05-25T15:52:36Z</time>
      </trkpt>
      <trkpt lat="59.9589317" lon="17.6972981">
        <ele>27.5349</ele>
        <time>2013-05-25T15:52:37Z</time>
      </trkpt>
      <trkpt lat="59.9589053" lon="17.697149">
        <ele>27.0543</ele>
        <time>2013-05-25T15:52:38Z</time>
      </trkpt>
      <trkpt lat="59.9588754" lon="17.6969964">
        <ele>27.0543</ele>
        <time>2013-05-25T15:52:39Z</time>
      </trkpt>
      <trkpt lat="59.9588414" lon="17.6968403">
        <ele>27.0543</ele>
        <time>2013-05-25T15:52:40Z</time>
      </trkpt>
      <trkpt lat="59.9588041" lon="17.6966851">
        <ele>27.0543</ele>
        <time>2013-05-25T15:52:41Z</time>
      </trkpt>
      <trkpt lat="59.9587628" lon="17.6965347">
        <ele>26.5736</ele>
        <time>2013-05-25T15:52:42Z</time>
      </trkpt>
      <trkpt lat="59.9587176" lon="17.6963889">
        <ele>26.5736</ele>
        <time>2013-05-25T15:52:43Z</time>
      </trkpt>
      <trkpt lat="59.9586692" lon="17.6962455">
        <ele>26.5736</ele>
        <time>2013-05-25T15:52:44Z</time>
      </trkpt>
      <trkpt lat="59.9586176" lon="17.6961073">
        <ele>26.5736</ele>
        <time>2013-05-25T15:52:45Z</time>
      </trkpt>
      <trkpt lat="59.9585632" lon="17.6959729">
        <ele>26.5736</ele>
        <time>2013-05-25T15:52:46Z</time>
      </trkpt>
      <trkpt lat="59.9585081" lon="17.6958389">
        <ele>26.5736</ele>
        <time>2013-05-25T15:52:47Z</time>
      </trkpt>
      <trkpt lat="59.9584527" lon="17.6957021">
        <ele>26.0929</ele>
        <time>2013-05-25T15:52:48Z</time>
      </trkpt>
      <trkpt lat="59.9583976" lon="17.6955628">
        <ele>26.0929</ele>
        <time>2013-05-25T15:52:49Z</time>
      </trkpt>
      <trkpt lat="59.9583425" lon="17.6954232">
        <ele>26.0929</ele>
        <time>2013-05-25T15:52:50Z</time>
      </trkpt>
      <trkpt lat="59.9582888" lon="17.6952811">
        <ele>26.0929</ele>
        <time>2013-05-25T15:52:51Z</time>
      </trkpt>
      <trkpt lat="59.9582369" lon="17.6951344">
        <ele>26.0929</ele>
        <time>2013-05-25T15:52:52Z</time>
      </trkpt>
      <trkpt lat="59.9581861" lon="17.6949878">
        <ele>26.0929</ele>
        <time>2013-05-25T15:52:53Z</time>
      </trkpt>
      <trkpt lat="59.9581343" lon="17.6948443">
        <ele>26.0929</ele>
        <time>2013-05-25T15:52:54Z</time>
      </trkpt>
      <trkpt lat="59.9580841" lon="17.694702">
        <ele>26.0929</ele>
        <time>2013-05-25T15:52:55Z</time>
      </trkpt>
      <trkpt lat="59.9580332" lon="17.69456">
        <ele>26.0929</ele>
        <time>2013-05-25T15:52:56Z</time>
      </trkpt>
      <trkpt lat="59.9579814" lon="17.6944183">
        <ele>26.0929</ele>
        <time>2013-05-25T15:52:57Z</time>
      </trkpt>
      <trkpt lat="59.9579295" lon="17.6942749">
        <ele>26.0929</ele>
        <time>2013-05-25T15:52:58Z</time>
      </trkpt>
      <trkpt lat="59.9578821" lon="17.6941326">
        <ele>26.0929</ele>
        <time>2013-05-25T15:52:59Z</time>
      </trkpt>
      <trkpt lat="59.9578355" lon="17.6939926">
        <ele>26.0929</ele>
        <time>2013-05-25T15:53:00Z</time>
      </trkpt>
      <trkpt lat="59.9577873" lon="17.693854">
        <ele>26.0929</ele>
        <time>2013-05-25T15:53:01Z</time>
      </trkpt>
      <trkpt lat="59.9577397" lon="17.6937159">
        <ele>26.0929</ele>
        <time>2013-05-25T15:53:02Z</time>
      </trkpt>
      <trkpt lat="59.9576939" lon="17.6935773">
        <ele>26.0929</ele>
        <time>2013-05-25T15:53:03Z</time>
      </trkpt>
      <trkpt lat="59.9576489" lon="17.6934399">
        <ele>26.5736</ele>
        <time>2013-05-25T15:53:04Z</time>
      </trkpt>
      <trkpt lat="59.957603" lon="17.6933053">
        <ele>26.5736</ele>
        <time>2013-05-25T15:53:05Z</time>
      </trkpt>
      <trkpt lat="59.9575526" lon="17.6931715">
        <ele>26.5736</ele>
        <time>2013-05-25T15:53:06Z</time>
      </trkpt>
      <trkpt lat="59.9575043" lon="17.6930365">
        <ele>26.5736</ele>
        <time>2013-05-25T15:53:07Z</time>
      </trkpt>
      <trkpt lat="59.9574583" lon="17.6929006">
        <ele>26.5736</ele>
        <time>2013-05-25T15:53:08Z</time>
      </trkpt>
      <trkpt lat="59.9574154" lon="17.6927643">
        <ele>26.5736</ele>
        <time>2013-05-25T15:53:09Z</time>
      </trkpt>
      <trkpt lat="59.9573734" lon="17.6926283">
        <ele>26.5736</ele>
        <time>2013-05-25T15:53:10Z</time>
      </trkpt>
      <trkpt lat="59.9573292" lon="17.6924929">
        <ele>26.5736</ele>
        <time>2013-05-25T15:53:11Z</time>
      </trkpt>
      <trkpt lat="59.9572836" lon="17.6923567">
        <ele>27.0543</ele>
        <time>2013-05-25T15:53:12Z</time>
      </trkpt>
      <trkpt lat="59.9572395" lon="17.6922201">
        <ele>27.0543</ele>
        <time>2013-05-25T15:53:13Z</time>
      </trkpt>
      <trkpt lat="59.9571984" lon="17.6920827">
        <ele>27.0543</ele>
        <time>2013-05-25T15:53:14Z</time>
      </trkpt>
      <trkpt lat="59.9571536" lon="17.6919461">
        <ele>27.0543</ele>
        <time>2013-05-25T15:53:15Z</time>
      </trkpt>
      <trkpt lat="59.9571082" lon="17.6918099">
        <ele>27.5349</ele>
        <time>2013-05-25T15:53:16Z</time>
      </trkpt>
      <trkpt lat="59.9570585" lon="17.6916742">
        <ele>27.5349</ele>
        <time>2013-05-25T15:53:17Z</time>
      </trkpt>
      <trkpt lat="59.9570107" lon="17.6915373">
        <ele>27.5349</ele>
        <time>2013-05-25T15:53:18Z</time>
      </trkpt>
      <trkpt lat="59.9569655" lon="17.6914">
        <ele>28.0155</ele>
        <time>2013-05-25T15:53:19Z</time>
      </trkpt>
      <trkpt lat="59.9569236" lon="17.6912689">
        <ele>28.4962</ele>
        <time>2013-05-25T15:53:20Z</time>
      </trkpt>
      <trkpt lat="59.9568743" lon="17.691132">
        <ele>28.9769</ele>
        <time>2013-05-25T15:53:21Z</time>
      </trkpt>
      <trkpt lat="59.9568172" lon="17.6910049">
        <ele>29.4575</ele>
        <time>2013-05-25T15:53:22Z</time>
      </trkpt>
      <trkpt lat="59.9567735" lon="17.690881">
        <ele>29.4575</ele>
        <time>2013-05-25T15:53:23Z</time>
      </trkpt>
      <trkpt lat="59.9567281" lon="17.6907643">
        <ele>29.9381</ele>
        <time>2013-05-25T15:53:24Z</time>
      </trkpt>
      <trkpt lat="59.9566921" lon="17.6906469">
        <ele>29.9381</ele>
        <time>2013-05-25T15:53:25Z</time>
      </trkpt>
      <trkpt lat="59.9566597" lon="17.6905344">
        <ele>30.4188</ele>
        <time>2013-05-25T15:53:26Z</time>
      </trkpt>
      <trkpt lat="59.9566273" lon="17.6904246">
        <ele>30.4188</ele>
        <time>2013-05-25T15:53:27Z</time>
      </trkpt>
      <trkpt lat="59.956592" lon="17.6903229">
        <ele>30.8995</ele>
        <time>2013-05-25T15:53:28Z</time>
      </trkpt>
      <trkpt lat="59.9565596" lon="17.6902206">
        <ele>30.8995</ele>
        <time>2013-05-25T15:53:29Z</time>
      </trkpt>
      <trkpt lat="59.9565273" lon="17.690118">
        <ele>30.4188</ele>
        <time>2013-05-25T15:53:30Z</time>
      </trkpt>
      <trkpt lat="59.9564931" lon="17.6900206">
        <ele>30.4188</ele>
        <time>2013-05-25T15:53:31Z</time>
      </trkpt>
      <trkpt lat="59.9564606" lon="17.6899242">
        <ele>30.4188</ele>
        <time>2013-05-25T15:53:32Z</time>
      </trkpt>
      <trkpt lat="59.9564375" lon="17.6898283">
        <ele>29.9381</ele>
        <time>2013-05-25T15:53:33Z</time>
      </trkpt>
      <trkpt lat="59.9564192" lon="17.6897348">
        <ele>29.9381</ele>
        <time>2013-05-25T15:53:34Z</time>
      </trkpt>
      <trkpt lat="59.9564011" lon="17.6896456">
        <ele>29.4575</ele>
        <time>2013-05-25T15:53:35Z</time>
      </trkpt>
      <trkpt lat="59.9563798" lon="17.6895539">
        <ele>29.4575</ele>
        <time>2013-05-25T15:53:36Z</time>
      </trkpt>
      <trkpt lat="59.9563654" lon="17.6894742">
        <ele>29.4575</ele>
        <time>2013-05-25T15:53:37Z</time>
      </trkpt>
      <trkpt lat="59.9563524" lon="17.6893906">
        <ele>29.4575</ele>
        <time>2013-05-25T15:53:38Z</time>
      </trkpt>
      <trkpt lat="59.9563359" lon="17.6893029">
        <ele>29.4575</ele>
        <time>2013-05-25T15:53:39Z</time>
      </trkpt>
      <trkpt lat="59.9563182" lon="17.6892125">
        <ele>28.9769</ele>
        <time>2013-05-25T15:53:40Z</time>
      </trkpt>
      <trkpt lat="59.9562911" lon="17.6891136">
        <ele>28.9769</ele>
        <time>2013-05-25T15:53:41Z</time>
      </trkpt>
      <trkpt lat="59.956268" lon="17.6890272">
        <ele>28.4962</ele>
        <time>2013-05-25T15:53:42Z</time>
      </trkpt>
      <trkpt lat="59.9562467" lon="17.6889451">
        <ele>28.0155</ele>
        <time>2013-05-25T15:53:43Z</time>
      </trkpt>
      <trkpt lat="59.9562305" lon="17.6888659">
        <ele>28.0155</ele>
        <time>2013-05-25T15:53:44Z</time>
      </trkpt>
      <trkpt lat="59.9562166" lon="17.6887844">
        <ele>27.5349</ele>
        <time>2013-05-25T15:53:45Z</time>
      </trkpt>
      <trkpt lat="59.9562014" lon="17.6887074">
        <ele>27.5349</ele>
        <time>2013-05-25T15:53:46Z</time>
      </trkpt>
      <trkpt lat="59.9561755" lon="17.6886535">
        <ele>27.5349</ele>
        <time>2013-05-25T15:53:47Z</time>
      </trkpt>
      <trkpt lat="59.9561362" lon="17.6886234">
        <ele>27.5349</ele>
        <time>2013-05-25T15:53:48Z</time>
      </trkpt>
      <trkpt lat="59.9560906" lon="17.6885826">
        <ele>27.0543</ele>
        <time>2013-05-25T15:53:49Z</time>
      </trkpt>
      <trkpt lat="59.9560409" lon="17.6885148">
        <ele>27.0543</ele>
        <time>2013-05-25T15:53:50Z</time>
      </trkpt>
      <trkpt lat="59.9560161" lon="17.6884097">
        <ele>27.0543</ele>
        <time>2013-05-25T15:53:51Z</time>
      </trkpt>
      <trkpt lat="59.9560008" lon="17.6882826">
        <ele>27.0543</ele>
        <time>2013-05-25T15:53:52Z</time>
      </trkpt>
      <trkpt lat="59.9559832" lon="17.6881557">
        <ele>26.5736</ele>
        <time>2013-05-25T15:53:53Z</time>
      </trkpt>
      <trkpt lat="59.9559633" lon="17.6880263">
        <ele>26.5736</ele>
        <time>2013-05-25T15:53:54Z</time>
      </trkpt>
      <trkpt lat="59.9559432" lon="17.6878951">
        <ele>26.0929</ele>
        <time>2013-05-25T15:53:55Z</time>
      </trkpt>
      <trkpt lat="59.955923" lon="17.6877617">
        <ele>26.0929</ele>
        <time>2013-05-25T15:53:56Z</time>
      </trkpt>
      <trkpt lat="59.9559017" lon="17.6876263">
        <ele>26.0929</ele>
        <time>2013-05-25T15:53:57Z</time>
      </trkpt>
      <trkpt lat="59.9558803" lon="17.6874906">
        <ele>25.6123</ele>
        <time>2013-05-25T15:53:58Z</time>
      </trkpt>
      <trkpt lat="59.9558571" lon="17.6873553">
        <ele>25.6123</ele>
        <time>2013-05-25T15:53:59Z</time>
      </trkpt>
      <trkpt lat="59.9558354" lon="17.6872166">
        <ele>25.6123</ele>
        <time>2013-05-25T15:54:00Z</time>
      </trkpt>
      <trkpt lat="59.9558137" lon="17.6870763">
        <ele>25.6123</ele>
        <time>2013-05-25T15:54:01Z</time>
      </trkpt>
      <trkpt lat="59.9557914" lon="17.6869346">
        <ele>25.6123</ele>
        <time>2013-05-25T15:54:02Z</time>
      </trkpt>
      <trkpt lat="59.9557694" lon="17.6867909">
        <ele>25.1317</ele>
        <time>2013-05-25T15:54:03Z</time>
      </trkpt>
      <trkpt lat="59.9557478" lon="17.6866447">
        <ele>25.1317</ele>
        <time>2013-05-25T15:54:04Z</time>
      </trkpt>
      <trkpt lat="59.9557262" lon="17.6864979">
        <ele>25.1317</ele>
        <time>2013-05-25T15:54:05Z</time>
      </trkpt>
      <trkpt lat="59.9557048" lon="17.6863489">
        <ele>25.1317</ele>
        <time>2013-05-25T15:54:06Z</time>
      </trkpt>
      <trkpt lat="59.955684" lon="17.686197">
        <ele>24.651</ele>
        <time>2013-05-25T15:54:07Z</time>
      </trkpt>
      <trkpt lat="59.955662" lon="17.6860455">
        <ele>24.651</ele>
        <time>2013-05-25T15:54:08Z</time>
      </trkpt>
      <trkpt lat="59.9556396" lon="17.6858929">
        <ele>24.651</ele>
        <time>2013-05-25T15:54:09Z</time>
      </trkpt>
      <trkpt lat="59.9556179" lon="17.6857402">
        <ele>24.651</ele>
        <time>2013-05-25T15:54:10Z</time>
      </trkpt>
      <trkpt lat="59.9555971" lon="17.6855885">
        <ele>24.651</ele>
        <time>2013-05-25T15:54:11Z</time>
      </trkpt>
      <trkpt lat="59.9555774" lon="17.6854372">
        <ele>24.651</ele>
        <time>2013-05-25T15:54:12Z</time>
      </trkpt>
      <trkpt lat="59.9555583" lon="17.6852853">
        <ele>24.651</ele>
        <time>2013-05-25T15:54:13Z</time>
      </trkpt>
      <trkpt lat="59.955538" lon="17.6851332">
        <ele>24.651</ele>
        <time>2013-05-25T15:54:14Z</time>
      </trkpt>
      <trkpt lat="59.9555161" lon="17.6849819">
        <ele>24.651</ele>
        <time>2013-05-25T15:54:15Z</time>
      </trkpt>
      <trkpt lat="59.955494" lon="17.6848296">
        <ele>24.651</ele>
        <time>2013-05-25T15:54:16Z</time>
      </trkpt>
      <trkpt lat="59.9554712" lon="17.6846767">
        <ele>24.651</ele>
        <time>2013-05-25T15:54:17Z</time>
      </trkpt>
      <trkpt lat="59.9554474" lon="17.6845231">
        <ele>24.651</ele>
        <time>2013-05-25T15:54:18Z</time>
      </trkpt>
      <trkpt lat="59.9554219" lon="17.6843691">
        <ele>24.651</ele>
        <time>2013-05-25T15:54:19Z</time>
      </trkpt>
      <trkpt lat="59.9553936" lon="17.6842168">
        <ele>24.651</ele>
        <time>2013-05-25T15:54:20Z</time>
      </trkpt>
      <trkpt lat="59.9553651" lon="17.6840651">
        <ele>24.651</ele>
        <time>2013-05-25T15:54:21Z</time>
      </trkpt>
      <trkpt lat="59.9553369" lon="17.683913">
        <ele>24.651</ele>
        <time>2013-05-25T15:54:22Z</time>
      </trkpt>
      <trkpt lat="59.9553075" lon="17.6837604">
        <ele>24.651</ele>
        <time>2013-05-25T15:54:23Z</time>
      </trkpt>
      <trkpt lat="59.955277" lon="17.6836074">
        <ele>24.651</ele>
        <time>2013-05-25T15:54:24Z</time>
      </trkpt>
      <trkpt lat="59.9552447" lon="17.6834548">
        <ele>24.651</ele>
        <time>2013-05-25T15:54:25Z</time>
      </trkpt>
      <trkpt lat="59.9552111" lon="17.6833026">
        <ele>24.651</ele>
        <time>2013-05-25T15:54:26Z</time>
      </trkpt>
      <trkpt lat="59.9551743" lon="17.6831542">
        <ele>24.651</ele>
        <time>2013-05-25T15:54:27Z</time>
      </trkpt>
      <trkpt lat="59.9551369" lon="17.6830123">
        <ele>24.651</ele>
        <time>2013-05-25T15:54:28Z</time>
      </trkpt>
      <trkpt lat="59.9550997" lon="17.682873">
        <ele>24.1703</ele>
        <time>2013-05-25T15:54:29Z</time>
      </trkpt>
      <trkpt lat="59.9550631" lon="17.6827441">
        <ele>24.1703</ele>
        <time>2013-05-25T15:54:30Z</time>
      </trkpt>
      <trkpt lat="59.9550252" lon="17.6826131">
        <ele>23.6896</ele>
        <time>2013-05-25T15:54:31Z</time>
      </trkpt>
      <trkpt lat="59.9549833" lon="17.6824742">
        <ele>23.6896</ele>
        <time>2013-05-25T15:54:32Z</time>
      </trkpt>
      <trkpt lat="59.954942" lon="17.6823395">
        <ele>23.209</ele>
        <time>2013-05-25T15:54:33Z</time>
      </trkpt>
      <trkpt lat="59.9548987" lon="17.682199">
        <ele>22.7283</ele>
        <time>2013-05-25T15:54:34Z</time>
      </trkpt>
      <trkpt lat="59.9548522" lon="17.6820633">
        <ele>22.2476</ele>
        <time>2013-05-25T15:54:35Z</time>
      </trkpt>
      <trkpt lat="59.9548056" lon="17.6819218">
        <ele>22.2476</ele>
        <time>2013-05-25T15:54:36Z</time>
      </trkpt>
      <trkpt lat="59.9547579" lon="17.6817734">
        <ele>22.2476</ele>
        <time>2013-05-25T15:54:37Z</time>
      </trkpt>
      <trkpt lat="59.9547082" lon="17.6816237">
        <ele>21.767</ele>
        <time>2013-05-25T15:54:38Z</time>
      </trkpt>
      <trkpt lat="59.9546611" lon="17.6814699">
        <ele>21.767</ele>
        <time>2013-05-25T15:54:39Z</time>
      </trkpt>
      <trkpt lat="59.9546161" lon="17.6813169">
        <ele>21.767</ele>
        <time>2013-05-25T15:54:40Z</time>
      </trkpt>
      <trkpt lat="59.954564" lon="17.6811802">
        <ele>21.767</ele>
        <time>2013-05-25T15:54:41Z</time>
      </trkpt>
      <trkpt lat="59.9545025" lon="17.6810705">
        <ele>21.2864</ele>
        <time>2013-05-25T15:54:42Z</time>
      </trkpt>
      <trkpt lat="59.9544333" lon="17.6809849">
        <ele>21.2864</ele>
        <time>2013-05-25T15:54:43Z</time>
      </trkpt>
      <trkpt lat="59.9543708" lon="17.6808943">
        <ele>21.2864</ele>
        <time>2013-05-25T15:54:44Z</time>
      </trkpt>
      <trkpt lat="59.9543188" lon="17.6807793">
        <ele>21.2864</ele>
        <time>2013-05-25T15:54:45Z</time>
      </trkpt>
      <trkpt lat="59.9542757" lon="17.6806502">
        <ele>21.2864</ele>
        <time>2013-05-25T15:54:46Z</time>
      </trkpt>
      <trkpt lat="59.9542347" lon="17.6805156">
        <ele>21.2864</ele>
        <time>2013-05-25T15:54:47Z</time>
      </trkpt>
      <trkpt lat="59.954191" lon="17.6803814">
        <ele>21.2864</ele>
        <time>2013-05-25T15:54:48Z</time>
      </trkpt>
      <trkpt lat="59.9541447" lon="17.6802488">
        <ele>21.2864</ele>
        <time>2013-05-25T15:54:49Z</time>
      </trkpt>
      <trkpt lat="59.9540978" lon="17.6801147">
        <ele>21.767</ele>
        <time>2013-05-25T15:54:50Z</time>
      </trkpt>
      <trkpt lat="59.9540503" lon="17.679979">
        <ele>21.767</ele>
        <time>2013-05-25T15:54:51Z</time>
      </trkpt>
      <trkpt lat="59.9540022" lon="17.6798421">
        <ele>21.767</ele>
        <time>2013-05-25T15:54:52Z</time>
      </trkpt>
      <trkpt lat="59.9539556" lon="17.6797044">
        <ele>21.767</ele>
        <time>2013-05-25T15:54:53Z</time>
      </trkpt>
      <trkpt lat="59.95391" lon="17.679566">
        <ele>21.767</ele>
        <time>2013-05-25T15:54:54Z</time>
      </trkpt>
      <trkpt lat="59.9538654" lon="17.6794266">
        <ele>22.2476</ele>
        <time>2013-05-25T15:54:55Z</time>
      </trkpt>
      <trkpt lat="59.953821" lon="17.6792875">
        <ele>22.2476</ele>
        <time>2013-05-25T15:54:56Z</time>
      </trkpt>
      <trkpt lat="59.9537762" lon="17.6791497">
        <ele>22.2476</ele>
        <time>2013-05-25T15:54:57Z</time>
      </trkpt>
      <trkpt lat="59.9537302" lon="17.6790139">
        <ele>22.2476</ele>
        <time>2013-05-25T15:54:58Z</time>
      </trkpt>
      <trkpt lat="59.9536837" lon="17.6788803">
        <ele>22.7283</ele>
        <time>2013-05-25T15:54:59Z</time>
      </trkpt>
      <trkpt lat="59.9536388" lon="17.6787477">
        <ele>22.7283</ele>
        <time>2013-05-25T15:55:00Z</time>
      </trkpt>
      <trkpt lat="59.953593" lon="17.678613">
        <ele>22.7283</ele>
        <time>2013-05-25T15:55:01Z</time>
      </trkpt>
      <trkpt lat="59.9535501" lon="17.6784783">
        <ele>23.209</ele>
        <time>2013-05-25T15:55:02Z</time>
      </trkpt>
      <trkpt lat="59.9535088" lon="17.6783468">
        <ele>23.209</ele>
        <time>2013-05-25T15:55:03Z</time>
      </trkpt>
      <trkpt lat="59.9534679" lon="17.6782194">
        <ele>23.209</ele>
        <time>2013-05-25T15:55:04Z</time>
      </trkpt>
      <trkpt lat="59.9534287" lon="17.6780922">
        <ele>23.6896</ele>
        <time>2013-05-25T15:55:05Z</time>
      </trkpt>
      <trkpt lat="59.9533862" lon="17.6779654">
        <ele>23.6896</ele>
        <time>2013-05-25T15:55:06Z</time>
      </trkpt>
      <trkpt lat="59.9533439" lon="17.6778422">
        <ele>23.6896</ele>
        <time>2013-05-25T15:55:07Z</time>
      </trkpt>
      <trkpt lat="59.9533013" lon="17.6777206">
        <ele>23.6896</ele>
        <time>2013-05-25T15:55:08Z</time>
      </trkpt>
      <trkpt lat="59.9532581" lon="17.6775985">
        <ele>23.6896</ele>
        <time>2013-05-25T15:55:09Z</time>
      </trkpt>
      <trkpt lat="59.9532141" lon="17.6774739">
        <ele>23.6896</ele>
        <time>2013-05-25T15:55:10Z</time>
      </trkpt>
      <trkpt lat="59.9531687" lon="17.677349">
        <ele>23.6896</ele>
        <time>2013-05-25T15:55:11Z</time>
      </trkpt>
      <trkpt lat="59.953123" lon="17.6772272">
        <ele>23.6896</ele>
        <time>2013-05-25T15:55:12Z</time>
      </trkpt>
      <trkpt lat="59.9530787" lon="17.6770979">
        <ele>24.1703</ele>
        <time>2013-05-25T15:55:13Z</time>
      </trkpt>
      <trkpt lat="59.9530302" lon="17.6769756">
        <ele>24.1703</ele>
        <time>2013-05-25T15:55:14Z</time>
      </trkpt>
      <trkpt lat="59.9529833" lon="17.6768596">
        <ele>24.1703</ele>
        <time>2013-05-25T15:55:15Z</time>
      </trkpt>
      <trkpt lat="59.9529378" lon="17.6767374">
        <ele>24.651</ele>
        <time>2013-05-25T15:55:16Z</time>
      </trkpt>
      <trkpt lat="59.9528921" lon="17.6766127">
        <ele>25.1317</ele>
        <time>2013-05-25T15:55:17Z</time>
      </trkpt>
      <trkpt lat="59.9528429" lon="17.6764946">
        <ele>25.1317</ele>
        <time>2013-05-25T15:55:18Z</time>
      </trkpt>
      <trkpt lat="59.9527943" lon="17.6763751">
        <ele>24.651</ele>
        <time>2013-05-25T15:55:19Z</time>
      </trkpt>
      <trkpt lat="59.9527494" lon="17.6762478">
        <ele>24.651</ele>
        <time>2013-05-25T15:55:20Z</time>
      </trkpt>
      <trkpt lat="59.9527057" lon="17.6761092">
        <ele>24.1703</ele>
        <time>2013-05-25T15:55:21Z</time>
      </trkpt>
      <trkpt lat="59.9526594" lon="17.6759726">
        <ele>24.1703</ele>
        <time>2013-05-25T15:55:22Z</time>
      </trkpt>
      <trkpt lat="59.9526093" lon="17.6758446">
        <ele>24.1703</ele>
        <time>2013-05-25T15:55:23Z</time>
      </trkpt>
      <trkpt lat="59.9525588" lon="17.6757209">
        <ele>24.1703</ele>
        <time>2013-05-25T15:55:24Z</time>
      </trkpt>
      <trkpt lat="59.9525113" lon="17.6755997">
        <ele>25.1317</ele>
        <time>2013-05-25T15:55:25Z</time>
      </trkpt>
      <trkpt lat="59.9524652" lon="17.6754877">
        <ele>25.1317</ele>
        <time>2013-05-25T15:55:26Z</time>
      </trkpt>
      <trkpt lat="59.952422" lon="17.6753728">
        <ele>25.6123</ele>
        <time>2013-05-25T15:55:27Z</time>
      </trkpt>
      <trkpt lat="59.952383" lon="17.6752666">
        <ele>25.6123</ele>
        <time>2013-05-25T15:55:28Z</time>
      </trkpt>
      <trkpt lat="59.9523512" lon="17.6751563">
        <ele>26.0929</ele>
        <time>2013-05-25T15:55:29Z</time>
      </trkpt>
      <trkpt lat="59.9523218" lon="17.6750438">
        <ele>25.6123</ele>
        <time>2013-05-25T15:55:30Z</time>
      </trkpt>
      <trkpt lat="59.9522957" lon="17.6749262">
        <ele>25.6123</ele>
        <time>2013-05-25T15:55:31Z</time>
      </trkpt>
      <trkpt lat="59.9522737" lon="17.6748004">
        <ele>25.6123</ele>
        <time>2013-05-25T15:55:32Z</time>
      </trkpt>
      <trkpt lat="59.9522576" lon="17.6746616">
        <ele>25.1317</ele>
        <time>2013-05-25T15:55:33Z</time>
      </trkpt>
      <trkpt lat="59.9522384" lon="17.6745102">
        <ele>25.1317</ele>
        <time>2013-05-25T15:55:34Z</time>
      </trkpt>
      <trkpt lat="59.9522093" lon="17.6743516">
        <ele>25.1317</ele>
        <time>2013-05-25T15:55:35Z</time>
      </trkpt>
      <trkpt lat="59.9521732" lon="17.6741912">
        <ele>24.1703</ele>
        <time>2013-05-25T15:55:36Z</time>
      </trkpt>
      <trkpt lat="59.9521358" lon="17.674031">
        <ele>23.209</ele>
        <time>2013-05-25T15:55:37Z</time>
      </trkpt>
      <trkpt lat="59.9521" lon="17.6738659">
        <ele>22.2476</ele>
        <time>2013-05-25T15:55:38Z</time>
      </trkpt>
      <trkpt lat="59.9520658" lon="17.6736945">
        <ele>21.2864</ele>
        <time>2013-05-25T15:55:39Z</time>
      </trkpt>
      <trkpt lat="59.952033" lon="17.6735185">
        <ele>20.325</ele>
        <time>2013-05-25T15:55:40Z</time>
      </trkpt>
      <trkpt lat="59.9520006" lon="17.6733395">
        <ele>19.8444</ele>
        <time>2013-05-25T15:55:41Z</time>
      </trkpt>
      <trkpt lat="59.9519698" lon="17.6731567">
        <ele>19.3638</ele>
        <time>2013-05-25T15:55:42Z</time>
      </trkpt>
      <trkpt lat="59.95194" lon="17.6729712">
        <ele>18.8831</ele>
        <time>2013-05-25T15:55:43Z</time>
      </trkpt>
      <trkpt lat="59.9519124" lon="17.6727834">
        <ele>18.4023</ele>
        <time>2013-05-25T15:55:44Z</time>
      </trkpt>
      <trkpt lat="59.9518861" lon="17.6725937">
        <ele>17.9218</ele>
        <time>2013-05-25T15:55:45Z</time>
      </trkpt>
      <trkpt lat="59.9518624" lon="17.6724006">
        <ele>16.9604</ele>
        <time>2013-05-25T15:55:46Z</time>
      </trkpt>
      <trkpt lat="59.9518416" lon="17.6722037">
        <ele>16.4797</ele>
        <time>2013-05-25T15:55:47Z</time>
      </trkpt>
      <trkpt lat="59.9518271" lon="17.6720063">
        <ele>16.4797</ele>
        <time>2013-05-25T15:55:48Z</time>
      </trkpt>
      <trkpt lat="59.9518193" lon="17.6718053">
        <ele>16.4797</ele>
        <time>2013-05-25T15:55:49Z</time>
      </trkpt>
      <trkpt lat="59.9518144" lon="17.6716079">
        <ele>16.4797</ele>
        <time>2013-05-25T15:55:50Z</time>
      </trkpt>
      <trkpt lat="59.9518027" lon="17.6714131">
        <ele>16.4797</ele>
        <time>2013-05-25T15:55:51Z</time>
      </trkpt>
      <trkpt lat="59.9517782" lon="17.671221">
        <ele>16.4797</ele>
        <time>2013-05-25T15:55:52Z</time>
      </trkpt>
      <trkpt lat="59.9517474" lon="17.6710211">
        <ele>16.4797</ele>
        <time>2013-05-25T15:55:53Z</time>
      </trkpt>
      <trkpt lat="59.9517276" lon="17.6708133">
        <ele>16.4797</ele>
        <time>2013-05-25T15:55:54Z</time>
      </trkpt>
      <trkpt lat="59.9517276" lon="17.6705968">
        <ele>16.4797</ele>
        <time>2013-05-25T15:55:55Z</time>
      </trkpt>
      <trkpt lat="59.9517385" lon="17.6703812">
        <ele>16.9604</ele>
        <time>2013-05-25T15:55:56Z</time>
      </trkpt>
      <trkpt lat="59.951754" lon="17.670172">
        <ele>16.9604</ele>
        <time>2013-05-25T15:55:57Z</time>
      </trkpt>
      <trkpt lat="59.9517683" lon="17.6699672">
        <ele>16.9604</ele>
        <time>2013-05-25T15:55:58Z</time>
      </trkpt>
      <trkpt lat="59.951779" lon="17.6697628">
        <ele>17.4412</ele>
        <time>2013-05-25T15:55:59Z</time>
      </trkpt>
      <trkpt lat="59.9517873" lon="17.6695627">
        <ele>17.4412</ele>
        <time>2013-05-25T15:56:00Z</time>
      </trkpt>
      <trkpt lat="59.9517948" lon="17.6693675">
        <ele>18.4023</ele>
        <time>2013-05-25T15:56:01Z</time>
      </trkpt>
      <trkpt lat="59.9517989" lon="17.6691786">
        <ele>18.8831</ele>
        <time>2013-05-25T15:56:02Z</time>
      </trkpt>
      <trkpt lat="59.9518007" lon="17.6689928">
        <ele>19.3638</ele>
        <time>2013-05-25T15:56:03Z</time>
      </trkpt>
      <trkpt lat="59.951796" lon="17.6688082">
        <ele>19.8444</ele>
        <time>2013-05-25T15:56:04Z</time>
      </trkpt>
      <trkpt lat="59.9517761" lon="17.668624">
        <ele>19.8444</ele>
        <time>2013-05-25T15:56:05Z</time>
      </trkpt>
      <trkpt lat="59.9517436" lon="17.6684442">
        <ele>19.8444</ele>
        <time>2013-05-25T15:56:06Z</time>
      </trkpt>
      <trkpt lat="59.9516995" lon="17.6682774">
        <ele>20.325</ele>
        <time>2013-05-25T15:56:07Z</time>
      </trkpt>
      <trkpt lat="59.9516388" lon="17.6681362">
        <ele>20.8057</ele>
        <time>2013-05-25T15:56:08Z</time>
      </trkpt>
      <trkpt lat="59.9515457" lon="17.6680594">
        <ele>21.2864</ele>
        <time>2013-05-25T15:56:09Z</time>
      </trkpt>
      <trkpt lat="59.9514471" lon="17.6680685">
        <ele>21.767</ele>
        <time>2013-05-25T15:56:10Z</time>
      </trkpt>
      <trkpt lat="59.9513521" lon="17.6680803">
        <ele>22.2476</ele>
        <time>2013-05-25T15:56:11Z</time>
      </trkpt>
      <trkpt lat="59.9512583" lon="17.6681073">
        <ele>22.7283</ele>
        <time>2013-05-25T15:56:12Z</time>
      </trkpt>
      <trkpt lat="59.9511661" lon="17.6681399">
        <ele>23.209</ele>
        <time>2013-05-25T15:56:13Z</time>
      </trkpt>
      <trkpt lat="59.9510745" lon="17.6681751">
        <ele>23.6896</ele>
        <time>2013-05-25T15:56:14Z</time>
      </trkpt>
      <trkpt lat="59.9509818" lon="17.6682082">
        <ele>23.6896</ele>
        <time>2013-05-25T15:56:15Z</time>
      </trkpt>
      <trkpt lat="59.9508895" lon="17.668235">
        <ele>24.1703</ele>
        <time>2013-05-25T15:56:16Z</time>
      </trkpt>
      <trkpt lat="59.9507976" lon="17.6682576">
        <ele>24.1703</ele>
        <time>2013-05-25T15:56:17Z</time>
      </trkpt>
      <trkpt lat="59.9507056" lon="17.6682766">
        <ele>24.651</ele>
        <time>2013-05-25T15:56:18Z</time>
      </trkpt>
      <trkpt lat="59.9506137" lon="17.668292">
        <ele>24.651</ele>
        <time>2013-05-25T15:56:19Z</time>
      </trkpt>
      <trkpt lat="59.950522" lon="17.6683035">
        <ele>25.1317</ele>
        <time>2013-05-25T15:56:20Z</time>
      </trkpt>
      <trkpt lat="59.9504308" lon="17.6683088">
        <ele>25.1317</ele>
        <time>2013-05-25T15:56:21Z</time>
      </trkpt>
      <trkpt lat="59.9503394" lon="17.6683061">
        <ele>25.1317</ele>
        <time>2013-05-25T15:56:22Z</time>
      </trkpt>
      <trkpt lat="59.9502485" lon="17.6682971">
        <ele>25.1317</ele>
        <time>2013-05-25T15:56:23Z</time>
      </trkpt>
      <trkpt lat="59.9501583" lon="17.6682824">
        <ele>25.6123</ele>
        <time>2013-05-25T15:56:24Z</time>
      </trkpt>
      <trkpt lat="59.9500687" lon="17.6682614">
        <ele>25.6123</ele>
        <time>2013-05-25T15:56:25Z</time>
      </trkpt>
      <trkpt lat="59.9499791" lon="17.6682347">
        <ele>25.6123</ele>
        <time>2013-05-25T15:56:26Z</time>
      </trkpt>
      <trkpt lat="59.949889" lon="17.6682032">
        <ele>25.6123</ele>
        <time>2013-05-25T15:56:27Z</time>
      </trkpt>
      <trkpt lat="59.9497985" lon="17.6681663">
        <ele>26.0929</ele>
        <time>2013-05-25T15:56:28Z</time>
      </trkpt>
      <trkpt lat="59.949707" lon="17.6681229">
        <ele>26.0929</ele>
        <time>2013-05-25T15:56:29Z</time>
      </trkpt>
      <trkpt lat="59.9496162" lon="17.6680775">
        <ele>26.0929</ele>
        <time>2013-05-25T15:56:30Z</time>
      </trkpt>
      <trkpt lat="59.9495248" lon="17.6680312">
        <ele>26.0929</ele>
        <time>2013-05-25T15:56:31Z</time>
      </trkpt>
      <trkpt lat="59.9494336" lon="17.6679837">
        <ele>26.0929</ele>
        <time>2013-05-25T15:56:32Z</time>
      </trkpt>
      <trkpt lat="59.9493423" lon="17.6679343">
        <ele>26.0929</ele>
        <time>2013-05-25T15:56:33Z</time>
      </trkpt>
      <trkpt lat="59.9492525" lon="17.6678861">
        <ele>26.0929</ele>
        <time>2013-05-25T15:56:34Z</time>
      </trkpt>
      <trkpt lat="59.9491622" lon="17.6678337">
        <ele>26.0929</ele>
        <time>2013-05-25T15:56:35Z</time>
      </trkpt>
      <trkpt lat="59.9490717" lon="17.6677792">
        <ele>26.0929</ele>
        <time>2013-05-25T15:56:36Z</time>
      </trkpt>
      <trkpt lat="59.9489806" lon="17.6677234">
        <ele>26.0929</ele>
        <time>2013-05-25T15:56:37Z</time>
      </trkpt>
      <trkpt lat="59.9488894" lon="17.6676677">
        <ele>26.5736</ele>
        <time>2013-05-25T15:56:38Z</time>
      </trkpt>
      <trkpt lat="59.9487982" lon="17.6676129">
        <ele>26.5736</ele>
        <time>2013-05-25T15:56:39Z</time>
      </trkpt>
      <trkpt lat="59.948707" lon="17.667559">
        <ele>26.5736</ele>
        <time>2013-05-25T15:56:40Z</time>
      </trkpt>
      <trkpt lat="59.948616" lon="17.667507">
        <ele>27.0543</ele>
        <time>2013-05-25T15:56:41Z</time>
      </trkpt>
      <trkpt lat="59.9485248" lon="17.6674567">
        <ele>27.0543</ele>
        <time>2013-05-25T15:56:42Z</time>
      </trkpt>
      <trkpt lat="59.9484342" lon="17.6674053">
        <ele>27.0543</ele>
        <time>2013-05-25T15:56:43Z</time>
      </trkpt>
      <trkpt lat="59.9483443" lon="17.667353">
        <ele>27.0543</ele>
        <time>2013-05-25T15:56:44Z</time>
      </trkpt>
      <trkpt lat="59.9482548" lon="17.6673008">
        <ele>27.5349</ele>
        <time>2013-05-25T15:56:45Z</time>
      </trkpt>
      <trkpt lat="59.9481661" lon="17.6672482">
        <ele>27.5349</ele>
        <time>2013-05-25T15:56:46Z</time>
      </trkpt>
      <trkpt lat="59.9480777" lon="17.667198">
        <ele>28.0155</ele>
        <time>2013-05-25T15:56:47Z</time>
      </trkpt>
      <trkpt lat="59.9479906" lon="17.6671489">
        <ele>28.0155</ele>
        <time>2013-05-25T15:56:48Z</time>
      </trkpt>
      <trkpt lat="59.9479046" lon="17.6670988">
        <ele>28.0155</ele>
        <time>2013-05-25T15:56:49Z</time>
      </trkpt>
      <trkpt lat="59.9478182" lon="17.6670503">
        <ele>28.4962</ele>
        <time>2013-05-25T15:56:50Z</time>
      </trkpt>
      <trkpt lat="59.9477318" lon="17.6670033">
        <ele>28.4962</ele>
        <time>2013-05-25T15:56:51Z</time>
      </trkpt>
      <trkpt lat="59.947644" lon="17.6669598">
        <ele>28.9769</ele>
        <time>2013-05-25T15:56:52Z</time>
      </trkpt>
      <trkpt lat="59.9475561" lon="17.6669188">
        <ele>28.9769</ele>
        <time>2013-05-25T15:56:53Z</time>
      </trkpt>
      <trkpt lat="59.9474683" lon="17.6668775">
        <ele>29.4575</ele>
        <time>2013-05-25T15:56:54Z</time>
      </trkpt>
      <trkpt lat="59.9473806" lon="17.6668374">
        <ele>29.4575</ele>
        <time>2013-05-25T15:56:55Z</time>
      </trkpt>
      <trkpt lat="59.9472943" lon="17.6667982">
        <ele>29.9381</ele>
        <time>2013-05-25T15:56:56Z</time>
      </trkpt>
      <trkpt lat="59.9472086" lon="17.6667602">
        <ele>29.9381</ele>
        <time>2013-05-25T15:56:57Z</time>
      </trkpt>
      <trkpt lat="59.9471225" lon="17.6667217">
        <ele>29.9381</ele>
        <time>2013-05-25T15:56:58Z</time>
      </trkpt>
      <trkpt lat="59.9470359" lon="17.6666817">
        <ele>30.4188</ele>
        <time>2013-05-25T15:56:59Z</time>
      </trkpt>
      <trkpt lat="59.9469499" lon="17.6666433">
        <ele>30.4188</ele>
        <time>2013-05-25T15:57:00Z</time>
      </trkpt>
      <trkpt lat="59.9468646" lon="17.6666095">
        <ele>30.4188</ele>
        <time>2013-05-25T15:57:01Z</time>
      </trkpt>
      <trkpt lat="59.9467795" lon="17.6665801">
        <ele>30.8995</ele>
        <time>2013-05-25T15:57:02Z</time>
      </trkpt>
      <trkpt lat="59.946695" lon="17.6665538">
        <ele>30.8995</ele>
        <time>2013-05-25T15:57:03Z</time>
      </trkpt>
      <trkpt lat="59.94661" lon="17.6665364">
        <ele>30.8995</ele>
        <time>2013-05-25T15:57:04Z</time>
      </trkpt>
      <trkpt lat="59.9465237" lon="17.6665264">
        <ele>30.8995</ele>
        <time>2013-05-25T15:57:05Z</time>
      </trkpt>
      <trkpt lat="59.9464371" lon="17.6665102">
        <ele>30.8995</ele>
        <time>2013-05-25T15:57:06Z</time>
      </trkpt>
      <trkpt lat="59.9463512" lon="17.6664758">
        <ele>31.3801</ele>
        <time>2013-05-25T15:57:07Z</time>
      </trkpt>
      <trkpt lat="59.9462682" lon="17.6664245">
        <ele>31.3801</ele>
        <time>2013-05-25T15:57:08Z</time>
      </trkpt>
      <trkpt lat="59.946186" lon="17.6663624">
        <ele>31.3801</ele>
        <time>2013-05-25T15:57:09Z</time>
      </trkpt>
      <trkpt lat="59.9461019" lon="17.6663121">
        <ele>31.8607</ele>
        <time>2013-05-25T15:57:10Z</time>
      </trkpt>
      <trkpt lat="59.9460163" lon="17.666279">
        <ele>31.8607</ele>
        <time>2013-05-25T15:57:11Z</time>
      </trkpt>
      <trkpt lat="59.9459289" lon="17.6662487">
        <ele>31.8607</ele>
        <time>2013-05-25T15:57:12Z</time>
      </trkpt>
      <trkpt lat="59.945844" lon="17.666217">
        <ele>32.3416</ele>
        <time>2013-05-25T15:57:13Z</time>
      </trkpt>
      <trkpt lat="59.9457599" lon="17.6661818">
        <ele>32.3416</ele>
        <time>2013-05-25T15:57:14Z</time>
      </trkpt>
      <trkpt lat="59.9456767" lon="17.6661454">
        <ele>32.3416</ele>
        <time>2013-05-25T15:57:15Z</time>
      </trkpt>
      <trkpt lat="59.9455916" lon="17.6661111">
        <ele>32.3416</ele>
        <time>2013-05-25T15:57:16Z</time>
      </trkpt>
      <trkpt lat="59.9455056" lon="17.6660775">
        <ele>32.8223</ele>
        <time>2013-05-25T15:57:17Z</time>
      </trkpt>
      <trkpt lat="59.9454196" lon="17.6660445">
        <ele>32.8223</ele>
        <time>2013-05-25T15:57:18Z</time>
      </trkpt>
      <trkpt lat="59.9453328" lon="17.6660103">
        <ele>32.8223</ele>
        <time>2013-05-25T15:57:19Z</time>
      </trkpt>
      <trkpt lat="59.9452463" lon="17.6659765">
        <ele>33.3029</ele>
        <time>2013-05-25T15:57:20Z</time>
      </trkpt>
      <trkpt lat="59.9451612" lon="17.665943">
        <ele>33.3029</ele>
        <time>2013-05-25T15:57:21Z</time>
      </trkpt>
      <trkpt lat="59.9450759" lon="17.6659087">
        <ele>33.7834</ele>
        <time>2013-05-25T15:57:22Z</time>
      </trkpt>
      <trkpt lat="59.9449918" lon="17.6658728">
        <ele>33.7834</ele>
        <time>2013-05-25T15:57:23Z</time>
      </trkpt>
      <trkpt lat="59.9449084" lon="17.6658382">
        <ele>34.2642</ele>
        <time>2013-05-25T15:57:24Z</time>
      </trkpt>
      <trkpt lat="59.9448241" lon="17.6658055">
        <ele>34.2642</ele>
        <time>2013-05-25T15:57:25Z</time>
      </trkpt>
      <trkpt lat="59.9447381" lon="17.6657724">
        <ele>34.2642</ele>
        <time>2013-05-25T15:57:26Z</time>
      </trkpt>
      <trkpt lat="59.9446519" lon="17.665738">
        <ele>34.7449</ele>
        <time>2013-05-25T15:57:27Z</time>
      </trkpt>
      <trkpt lat="59.9445634" lon="17.665704">
        <ele>34.7449</ele>
        <time>2013-05-25T15:57:28Z</time>
      </trkpt>
      <trkpt lat="59.9444764" lon="17.6656724">
        <ele>35.2255</ele>
        <time>2013-05-25T15:57:29Z</time>
      </trkpt>
      <trkpt lat="59.9443915" lon="17.6656395">
        <ele>35.2255</ele>
        <time>2013-05-25T15:57:30Z</time>
      </trkpt>
      <trkpt lat="59.9443074" lon="17.6656043">
        <ele>35.2255</ele>
        <time>2013-05-25T15:57:31Z</time>
      </trkpt>
      <trkpt lat="59.9442235" lon="17.6655675">
        <ele>35.7061</ele>
        <time>2013-05-25T15:57:32Z</time>
      </trkpt>
      <trkpt lat="59.9441382" lon="17.6655296">
        <ele>35.7061</ele>
        <time>2013-05-25T15:57:33Z</time>
      </trkpt>
      <trkpt lat="59.9440523" lon="17.6654906">
        <ele>35.7061</ele>
        <time>2013-05-25T15:57:34Z</time>
      </trkpt>
      <trkpt lat="59.9439682" lon="17.6654524">
        <ele>36.1868</ele>
        <time>2013-05-25T15:57:35Z</time>
      </trkpt>
      <trkpt lat="59.9438863" lon="17.6654135">
        <ele>36.1868</ele>
        <time>2013-05-25T15:57:36Z</time>
      </trkpt>
      <trkpt lat="59.9438039" lon="17.6653676">
        <ele>36.1868</ele>
        <time>2013-05-25T15:57:37Z</time>
      </trkpt>
      <trkpt lat="59.9437222" lon="17.6653178">
        <ele>36.1868</ele>
        <time>2013-05-25T15:57:38Z</time>
      </trkpt>
      <trkpt lat="59.9436423" lon="17.665267">
        <ele>36.1868</ele>
        <time>2013-05-25T15:57:39Z</time>
      </trkpt>
      <trkpt lat="59.9435622" lon="17.665215">
        <ele>36.1868</ele>
        <time>2013-05-25T15:57:40Z</time>
      </trkpt>
      <trkpt lat="59.9434819" lon="17.6651597">
        <ele>36.1868</ele>
        <time>2013-05-25T15:57:41Z</time>
      </trkpt>
      <trkpt lat="59.9434021" lon="17.6651012">
        <ele>36.1868</ele>
        <time>2013-05-25T15:57:42Z</time>
      </trkpt>
      <trkpt lat="59.9433245" lon="17.6650456">
        <ele>36.1868</ele>
        <time>2013-05-25T15:57:43Z</time>
      </trkpt>
      <trkpt lat="59.9432467" lon="17.6649863">
        <ele>36.1868</ele>
        <time>2013-05-25T15:57:44Z</time>
      </trkpt>
      <trkpt lat="59.9431696" lon="17.664926">
        <ele>36.1868</ele>
        <time>2013-05-25T15:57:45Z</time>
      </trkpt>
      <trkpt lat="59.9430939" lon="17.6648641">
        <ele>36.6675</ele>
        <time>2013-05-25T15:57:46Z</time>
      </trkpt>
      <trkpt lat="59.9430196" lon="17.6647987">
        <ele>36.6675</ele>
        <time>2013-05-25T15:57:47Z</time>
      </trkpt>
      <trkpt lat="59.9429435" lon="17.664726">
        <ele>36.6675</ele>
        <time>2013-05-25T15:57:48Z</time>
      </trkpt>
      <trkpt lat="59.942869" lon="17.6646505">
        <ele>36.6675</ele>
        <time>2013-05-25T15:57:49Z</time>
      </trkpt>
      <trkpt lat="59.9427955" lon="17.6645735">
        <ele>36.6675</ele>
        <time>2013-05-25T15:57:50Z</time>
      </trkpt>
      <trkpt lat="59.9427221" lon="17.6644951">
        <ele>36.6675</ele>
        <time>2013-05-25T15:57:51Z</time>
      </trkpt>
      <trkpt lat="59.9426495" lon="17.6644155">
        <ele>36.6675</ele>
        <time>2013-05-25T15:57:52Z</time>
      </trkpt>
      <trkpt lat="59.9425799" lon="17.6643382">
        <ele>36.6675</ele>
        <time>2013-05-25T15:57:53Z</time>
      </trkpt>
      <trkpt lat="59.9425116" lon="17.6642587">
        <ele>36.6675</ele>
        <time>2013-05-25T15:57:54Z</time>
      </trkpt>
      <trkpt lat="59.9424442" lon="17.6641766">
        <ele>36.6675</ele>
        <time>2013-05-25T15:57:55Z</time>
      </trkpt>
      <trkpt lat="59.9423791" lon="17.6640919">
        <ele>36.6675</ele>
        <time>2013-05-25T15:57:56Z</time>
      </trkpt>
      <trkpt lat="59.9423155" lon="17.6640044">
        <ele>36.6675</ele>
        <time>2013-05-25T15:57:57Z</time>
      </trkpt>
      <trkpt lat="59.9422532" lon="17.663916">
        <ele>36.1868</ele>
        <time>2013-05-25T15:57:58Z</time>
      </trkpt>
      <trkpt lat="59.9421919" lon="17.6638277">
        <ele>36.1868</ele>
        <time>2013-05-25T15:57:59Z</time>
      </trkpt>
      <trkpt lat="59.9421299" lon="17.6637386">
        <ele>36.1868</ele>
        <time>2013-05-25T15:58:00Z</time>
      </trkpt>
      <trkpt lat="59.9420662" lon="17.663645">
        <ele>36.1868</ele>
        <time>2013-05-25T15:58:01Z</time>
      </trkpt>
      <trkpt lat="59.9420091" lon="17.6635508">
        <ele>35.7061</ele>
        <time>2013-05-25T15:58:02Z</time>
      </trkpt>
      <trkpt lat="59.9419517" lon="17.6634553">
        <ele>35.7061</ele>
        <time>2013-05-25T15:58:03Z</time>
      </trkpt>
      <trkpt lat="59.9418932" lon="17.6633586">
        <ele>35.7061</ele>
        <time>2013-05-25T15:58:04Z</time>
      </trkpt>
      <trkpt lat="59.9418375" lon="17.6632585">
        <ele>35.2255</ele>
        <time>2013-05-25T15:58:05Z</time>
      </trkpt>
      <trkpt lat="59.9417854" lon="17.6631566">
        <ele>35.2255</ele>
        <time>2013-05-25T15:58:06Z</time>
      </trkpt>
      <trkpt lat="59.9417275" lon="17.6630528">
        <ele>35.2255</ele>
        <time>2013-05-25T15:58:07Z</time>
      </trkpt>
      <trkpt lat="59.9416725" lon="17.6629495">
        <ele>35.2255</ele>
        <time>2013-05-25T15:58:08Z</time>
      </trkpt>
      <trkpt lat="59.9416171" lon="17.6628446">
        <ele>34.7449</ele>
        <time>2013-05-25T15:58:09Z</time>
      </trkpt>
      <trkpt lat="59.9415583" lon="17.6627401">
        <ele>34.2642</ele>
        <time>2013-05-25T15:58:10Z</time>
      </trkpt>
      <trkpt lat="59.9414939" lon="17.6626407">
        <ele>34.2642</ele>
        <time>2013-05-25T15:58:11Z</time>
      </trkpt>
      <trkpt lat="59.9414286" lon="17.6625458">
        <ele>33.7834</ele>
        <time>2013-05-25T15:58:12Z</time>
      </trkpt>
      <trkpt lat="59.941357" lon="17.6624594">
        <ele>33.3029</ele>
        <time>2013-05-25T15:58:13Z</time>
      </trkpt>
      <trkpt lat="59.94128" lon="17.6623785">
        <ele>33.3029</ele>
        <time>2013-05-25T15:58:14Z</time>
      </trkpt>
      <trkpt lat="59.941201" lon="17.6623082">
        <ele>33.3029</ele>
        <time>2013-05-25T15:58:15Z</time>
      </trkpt>
      <trkpt lat="59.9411177" lon="17.6622502">
        <ele>33.3029</ele>
        <time>2013-05-25T15:58:16Z</time>
      </trkpt>
      <trkpt lat="59.9410302" lon="17.6622058">
        <ele>33.3029</ele>
        <time>2013-05-25T15:58:17Z</time>
      </trkpt>
      <trkpt lat="59.940939" lon="17.662173">
        <ele>33.3029</ele>
        <time>2013-05-25T15:58:18Z</time>
      </trkpt>
      <trkpt lat="59.9408471" lon="17.6621495">
        <ele>33.3029</ele>
        <time>2013-05-25T15:58:19Z</time>
      </trkpt>
      <trkpt lat="59.9407552" lon="17.6621268">
        <ele>32.8223</ele>
        <time>2013-05-25T15:58:20Z</time>
      </trkpt>
      <trkpt lat="59.9406649" lon="17.6620894">
        <ele>32.3416</ele>
        <time>2013-05-25T15:58:21Z</time>
      </trkpt>
      <trkpt lat="59.9405789" lon="17.6620207">
        <ele>32.3416</ele>
        <time>2013-05-25T15:58:22Z</time>
      </trkpt>
      <trkpt lat="59.940508" lon="17.6618963">
        <ele>31.8607</ele>
        <time>2013-05-25T15:58:23Z</time>
      </trkpt>
      <trkpt lat="59.9404504" lon="17.6617637">
        <ele>30.8995</ele>
        <time>2013-05-25T15:58:24Z</time>
      </trkpt>
      <trkpt lat="59.9404152" lon="17.6615653">
        <ele>30.4188</ele>
        <time>2013-05-25T15:58:25Z</time>
      </trkpt>
      <trkpt lat="59.9403982" lon="17.6613791">
        <ele>29.9381</ele>
        <time>2013-05-25T15:58:26Z</time>
      </trkpt>
      <trkpt lat="59.9403914" lon="17.6611848">
        <ele>29.4575</ele>
        <time>2013-05-25T15:58:27Z</time>
      </trkpt>
      <trkpt lat="59.940399" lon="17.6609794">
        <ele>28.9769</ele>
        <time>2013-05-25T15:58:28Z</time>
      </trkpt>
      <trkpt lat="59.940432" lon="17.660791">
        <ele>29.4575</ele>
        <time>2013-05-25T15:58:29Z</time>
      </trkpt>
      <trkpt lat="59.9404773" lon="17.6606147">
        <ele>29.4575</ele>
        <time>2013-05-25T15:58:30Z</time>
      </trkpt>
      <trkpt lat="59.9405114" lon="17.6604505">
        <ele>29.4575</ele>
        <time>2013-05-25T15:58:31Z</time>
      </trkpt>
      <trkpt lat="59.9405251" lon="17.6602897">
        <ele>29.4575</ele>
        <time>2013-05-25T15:58:32Z</time>
      </trkpt>
      <trkpt lat="59.9405188" lon="17.6601261">
        <ele>28.9769</ele>
        <time>2013-05-25T15:58:33Z</time>
      </trkpt>
      <trkpt lat="59.9405017" lon="17.6600092">
        <ele>28.9769</ele>
        <time>2013-05-25T15:58:34Z</time>
      </trkpt>
      <trkpt lat="59.9404675" lon="17.6598931">
        <ele>28.9769</ele>
        <time>2013-05-25T15:58:35Z</time>
      </trkpt>
      <trkpt lat="59.9403967" lon="17.6597684">
        <ele>28.0155</ele>
        <time>2013-05-25T15:58:36Z</time>
      </trkpt>
      <trkpt lat="59.9403527" lon="17.6596213">
        <ele>27.5349</ele>
        <time>2013-05-25T15:58:37Z</time>
      </trkpt>
      <trkpt lat="59.9403288" lon="17.659458">
        <ele>26.5736</ele>
        <time>2013-05-25T15:58:38Z</time>
      </trkpt>
      <trkpt lat="59.9403039" lon="17.6592839">
        <ele>25.6123</ele>
        <time>2013-05-25T15:58:39Z</time>
      </trkpt>
      <trkpt lat="59.940279" lon="17.6591032">
        <ele>25.1317</ele>
        <time>2013-05-25T15:58:40Z</time>
      </trkpt>
      <trkpt lat="59.940249" lon="17.6589243">
        <ele>24.651</ele>
        <time>2013-05-25T15:58:41Z</time>
      </trkpt>
      <trkpt lat="59.9402141" lon="17.658752">
        <ele>24.651</ele>
        <time>2013-05-25T15:58:42Z</time>
      </trkpt>
      <trkpt lat="59.9401775" lon="17.6585795">
        <ele>24.651</ele>
        <time>2013-05-25T15:58:43Z</time>
      </trkpt>
      <trkpt lat="59.9401408" lon="17.6584127">
        <ele>24.1703</ele>
        <time>2013-05-25T15:58:44Z</time>
      </trkpt>
      <trkpt lat="59.940105" lon="17.658251">
        <ele>24.1703</ele>
        <time>2013-05-25T15:58:45Z</time>
      </trkpt>
      <trkpt lat="59.9400703" lon="17.6580926">
        <ele>24.1703</ele>
        <time>2013-05-25T15:58:46Z</time>
      </trkpt>
      <trkpt lat="59.9400367" lon="17.6579366">
        <ele>24.1703</ele>
        <time>2013-05-25T15:58:47Z</time>
      </trkpt>
      <trkpt lat="59.9400043" lon="17.6577843">
        <ele>24.651</ele>
        <time>2013-05-25T15:58:48Z</time>
      </trkpt>
      <trkpt lat="59.9399709" lon="17.6576354">
        <ele>24.651</ele>
        <time>2013-05-25T15:58:49Z</time>
      </trkpt>
      <trkpt lat="59.9399382" lon="17.657488">
        <ele>24.651</ele>
        <time>2013-05-25T15:58:50Z</time>
      </trkpt>
      <trkpt lat="59.9399071" lon="17.6573409">
        <ele>24.651</ele>
        <time>2013-05-25T15:58:51Z</time>
      </trkpt>
      <trkpt lat="59.9398771" lon="17.6571939">
        <ele>25.1317</ele>
        <time>2013-05-25T15:58:52Z</time>
      </trkpt>
      <trkpt lat="59.9398473" lon="17.6570482">
        <ele>25.1317</ele>
        <time>2013-05-25T15:58:53Z</time>
      </trkpt>
      <trkpt lat="59.9398175" lon="17.6569037">
        <ele>25.1317</ele>
        <time>2013-05-25T15:58:54Z</time>
      </trkpt>
      <trkpt lat="59.9397883" lon="17.6567597">
        <ele>25.6123</ele>
        <time>2013-05-25T15:58:55Z</time>
      </trkpt>
      <trkpt lat="59.939759" lon="17.6566157">
        <ele>25.6123</ele>
        <time>2013-05-25T15:58:56Z</time>
      </trkpt>
      <trkpt lat="59.939729" lon="17.6564706">
        <ele>25.6123</ele>
        <time>2013-05-25T15:58:57Z</time>
      </trkpt>
      <trkpt lat="59.9396983" lon="17.6563235">
        <ele>25.6123</ele>
        <time>2013-05-25T15:58:58Z</time>
      </trkpt>
      <trkpt lat="59.9396681" lon="17.6561743">
        <ele>26.0929</ele>
        <time>2013-05-25T15:58:59Z</time>
      </trkpt>
      <trkpt lat="59.9396394" lon="17.656023">
        <ele>26.0929</ele>
        <time>2013-05-25T15:59:00Z</time>
      </trkpt>
      <trkpt lat="59.9396119" lon="17.6558698">
        <ele>26.0929</ele>
        <time>2013-05-25T15:59:01Z</time>
      </trkpt>
      <trkpt lat="59.9395839" lon="17.6557149">
        <ele>26.0929</ele>
        <time>2013-05-25T15:59:02Z</time>
      </trkpt>
      <trkpt lat="59.9395544" lon="17.6555599">
        <ele>26.5736</ele>
        <time>2013-05-25T15:59:03Z</time>
      </trkpt>
      <trkpt lat="59.9395243" lon="17.6554061">
        <ele>26.5736</ele>
        <time>2013-05-25T15:59:04Z</time>
      </trkpt>
      <trkpt lat="59.9394944" lon="17.6552532">
        <ele>26.5736</ele>
        <time>2013-05-25T15:59:05Z</time>
      </trkpt>
      <trkpt lat="59.9394647" lon="17.6551005">
        <ele>26.5736</ele>
        <time>2013-05-25T15:59:06Z</time>
      </trkpt>
      <trkpt lat="59.9394347" lon="17.6549482">
        <ele>26.5736</ele>
        <time>2013-05-25T15:59:07Z</time>
      </trkpt>
      <trkpt lat="59.9394047" lon="17.6547964">
        <ele>27.0543</ele>
        <time>2013-05-25T15:59:08Z</time>
      </trkpt>
      <trkpt lat="59.939374" lon="17.654645">
        <ele>27.0543</ele>
        <time>2013-05-25T15:59:09Z</time>
      </trkpt>
      <trkpt lat="59.9393425" lon="17.6544943">
        <ele>27.0543</ele>
        <time>2013-05-25T15:59:10Z</time>
      </trkpt>
      <trkpt lat="59.9393114" lon="17.6543445">
        <ele>27.0543</ele>
        <time>2013-05-25T15:59:11Z</time>
      </trkpt>
      <trkpt lat="59.9392813" lon="17.6541959">
        <ele>27.0543</ele>
        <time>2013-05-25T15:59:12Z</time>
      </trkpt>
      <trkpt lat="59.9392498" lon="17.6540484">
        <ele>27.0543</ele>
        <time>2013-05-25T15:59:13Z</time>
      </trkpt>
      <trkpt lat="59.9392171" lon="17.6539018">
        <ele>27.0543</ele>
        <time>2013-05-25T15:59:14Z</time>
      </trkpt>
      <trkpt lat="59.939184" lon="17.6537547">
        <ele>27.0543</ele>
        <time>2013-05-25T15:59:15Z</time>
      </trkpt>
      <trkpt lat="59.9391509" lon="17.653607">
        <ele>27.0543</ele>
        <time>2013-05-25T15:59:16Z</time>
      </trkpt>
      <trkpt lat="59.9391182" lon="17.6534587">
        <ele>27.0543</ele>
        <time>2013-05-25T15:59:17Z</time>
      </trkpt>
      <trkpt lat="59.9390844" lon="17.6533087">
        <ele>27.0543</ele>
        <time>2013-05-25T15:59:18Z</time>
      </trkpt>
      <trkpt lat="59.9390496" lon="17.6531576">
        <ele>27.0543</ele>
        <time>2013-05-25T15:59:19Z</time>
      </trkpt>
      <trkpt lat="59.9390147" lon="17.6530062">
        <ele>27.0543</ele>
        <time>2013-05-25T15:59:20Z</time>
      </trkpt>
      <trkpt lat="59.9389784" lon="17.6528558">
        <ele>27.0543</ele>
        <time>2013-05-25T15:59:21Z</time>
      </trkpt>
      <trkpt lat="59.938943" lon="17.6527114">
        <ele>27.0543</ele>
        <time>2013-05-25T15:59:22Z</time>
      </trkpt>
      <trkpt lat="59.9389057" lon="17.652566">
        <ele>27.5349</ele>
        <time>2013-05-25T15:59:23Z</time>
      </trkpt>
      <trkpt lat="59.9388699" lon="17.6524198">
        <ele>27.5349</ele>
        <time>2013-05-25T15:59:24Z</time>
      </trkpt>
      <trkpt lat="59.9388323" lon="17.6522721">
        <ele>28.0155</ele>
        <time>2013-05-25T15:59:25Z</time>
      </trkpt>
      <trkpt lat="59.9387948" lon="17.6521334">
        <ele>28.0155</ele>
        <time>2013-05-25T15:59:26Z</time>
      </trkpt>
      <trkpt lat="59.9387505" lon="17.6519889">
        <ele>28.4962</ele>
        <time>2013-05-25T15:59:27Z</time>
      </trkpt>
      <trkpt lat="59.9387057" lon="17.6518459">
        <ele>28.9769</ele>
        <time>2013-05-25T15:59:28Z</time>
      </trkpt>
      <trkpt lat="59.9386616" lon="17.6517019">
        <ele>29.4575</ele>
        <time>2013-05-25T15:59:29Z</time>
      </trkpt>
      <trkpt lat="59.9386161" lon="17.6515552">
        <ele>29.9381</ele>
        <time>2013-05-25T15:59:30Z</time>
      </trkpt>
      <trkpt lat="59.9385694" lon="17.6514049">
        <ele>30.4188</ele>
        <time>2013-05-25T15:59:31Z</time>
      </trkpt>
      <trkpt lat="59.9385239" lon="17.6512564">
        <ele>29.9381</ele>
        <time>2013-05-25T15:59:32Z</time>
      </trkpt>
      <trkpt lat="59.9384768" lon="17.6511138">
        <ele>30.4188</ele>
        <time>2013-05-25T15:59:33Z</time>
      </trkpt>
      <trkpt lat="59.938427" lon="17.6509767">
        <ele>30.4188</ele>
        <time>2013-05-25T15:59:34Z</time>
      </trkpt>
      <trkpt lat="59.9383744" lon="17.6508434">
        <ele>30.4188</ele>
        <time>2013-05-25T15:59:35Z</time>
      </trkpt>
      <trkpt lat="59.9383203" lon="17.6507138">
        <ele>30.4188</ele>
        <time>2013-05-25T15:59:36Z</time>
      </trkpt>
      <trkpt lat="59.9382656" lon="17.6505834">
        <ele>30.4188</ele>
        <time>2013-05-25T15:59:37Z</time>
      </trkpt>
      <trkpt lat="59.938213" lon="17.6504435">
        <ele>30.4188</ele>
        <time>2013-05-25T15:59:38Z</time>
      </trkpt>
      <trkpt lat="59.9381625" lon="17.6503037">
        <ele>29.9381</ele>
        <time>2013-05-25T15:59:39Z</time>
      </trkpt>
      <trkpt lat="59.9381137" lon="17.6501706">
        <ele>29.9381</ele>
        <time>2013-05-25T15:59:40Z</time>
      </trkpt>
      <trkpt lat="59.9380635" lon="17.6500349">
        <ele>30.4188</ele>
        <time>2013-05-25T15:59:41Z</time>
      </trkpt>
      <trkpt lat="59.9380157" lon="17.6499116">
        <ele>30.4188</ele>
        <time>2013-05-25T15:59:42Z</time>
      </trkpt>
      <trkpt lat="59.9379677" lon="17.6497948">
        <ele>30.4188</ele>
        <time>2013-05-25T15:59:43Z</time>
      </trkpt>
      <trkpt lat="59.9379183" lon="17.6496821">
        <ele>30.4188</ele>
        <time>2013-05-25T15:59:44Z</time>
      </trkpt>
      <trkpt lat="59.9378733" lon="17.6495696">
        <ele>30.4188</ele>
        <time>2013-05-25T15:59:45Z</time>
      </trkpt>
      <trkpt lat="59.9378338" lon="17.6494485">
        <ele>30.4188</ele>
        <time>2013-05-25T15:59:46Z</time>
      </trkpt>
      <trkpt lat="59.9377942" lon="17.64932">
        <ele>30.4188</ele>
        <time>2013-05-25T15:59:47Z</time>
      </trkpt>
      <trkpt lat="59.937753" lon="17.6491936">
        <ele>29.9381</ele>
        <time>2013-05-25T15:59:48Z</time>
      </trkpt>
      <trkpt lat="59.9377077" lon="17.6490714">
        <ele>29.9381</ele>
        <time>2013-05-25T15:59:49Z</time>
      </trkpt>
      <trkpt lat="59.9376616" lon="17.6489506">
        <ele>30.4188</ele>
        <time>2013-05-25T15:59:50Z</time>
      </trkpt>
      <trkpt lat="59.9376144" lon="17.6488316">
        <ele>29.9381</ele>
        <time>2013-05-25T15:59:51Z</time>
      </trkpt>
      <trkpt lat="59.9375647" lon="17.6487151">
        <ele>29.9381</ele>
        <time>2013-05-25T15:59:52Z</time>
      </trkpt>
      <trkpt lat="59.9375094" lon="17.6486001">
        <ele>29.9381</ele>
        <time>2013-05-25T15:59:53Z</time>
      </trkpt>
      <trkpt lat="59.9374524" lon="17.6484889">
        <ele>30.4188</ele>
        <time>2013-05-25T15:59:54Z</time>
      </trkpt>
      <trkpt lat="59.9373927" lon="17.6483879">
        <ele>29.9381</ele>
        <time>2013-05-25T15:59:55Z</time>
      </trkpt>
      <trkpt lat="59.937329" lon="17.6482985">
        <ele>29.9381</ele>
        <time>2013-05-25T15:59:56Z</time>
      </trkpt>
      <trkpt lat="59.9372637" lon="17.6482132">
        <ele>29.9381</ele>
        <time>2013-05-25T15:59:57Z</time>
      </trkpt>
      <trkpt lat="59.9371991" lon="17.6481279">
        <ele>29.9381</ele>
        <time>2013-05-25T15:59:58Z</time>
      </trkpt>
      <trkpt lat="59.9371341" lon="17.6480431">
        <ele>29.4575</ele>
        <time>2013-05-25T15:59:59Z</time>
      </trkpt>
      <trkpt lat="59.9370679" lon="17.6479591">
        <ele>29.4575</ele>
        <time>2013-05-25T16:00:00Z</time>
      </trkpt>
      <trkpt lat="59.9370015" lon="17.6478768">
        <ele>29.4575</ele>
        <time>2013-05-25T16:00:01Z</time>
      </trkpt>
      <trkpt lat="59.9369342" lon="17.6477959">
        <ele>29.4575</ele>
        <time>2013-05-25T16:00:02Z</time>
      </trkpt>
      <trkpt lat="59.9368663" lon="17.6477168">
        <ele>29.9381</ele>
        <time>2013-05-25T16:00:03Z</time>
      </trkpt>
      <trkpt lat="59.936798" lon="17.6476399">
        <ele>29.9381</ele>
        <time>2013-05-25T16:00:04Z</time>
      </trkpt>
      <trkpt lat="59.9367312" lon="17.6475598">
        <ele>29.9381</ele>
        <time>2013-05-25T16:00:05Z</time>
      </trkpt>
      <trkpt lat="59.9366619" lon="17.6474825">
        <ele>29.9381</ele>
        <time>2013-05-25T16:00:06Z</time>
      </trkpt>
      <trkpt lat="59.9365959" lon="17.6473998">
        <ele>29.9381</ele>
        <time>2013-05-25T16:00:07Z</time>
      </trkpt>
      <trkpt lat="59.93653" lon="17.6473179">
        <ele>29.4575</ele>
        <time>2013-05-25T16:00:08Z</time>
      </trkpt>
      <trkpt lat="59.9364642" lon="17.6472392">
        <ele>29.9381</ele>
        <time>2013-05-25T16:00:09Z</time>
      </trkpt>
      <trkpt lat="59.9364001" lon="17.6471646">
        <ele>29.9381</ele>
        <time>2013-05-25T16:00:10Z</time>
      </trkpt>
      <trkpt lat="59.9363454" lon="17.6470843">
        <ele>29.9381</ele>
        <time>2013-05-25T16:00:11Z</time>
      </trkpt>
      <trkpt lat="59.9363074" lon="17.6469839">
        <ele>29.9381</ele>
        <time>2013-05-25T16:00:12Z</time>
      </trkpt>
      <trkpt lat="59.9362767" lon="17.6468781">
        <ele>29.4575</ele>
        <time>2013-05-25T16:00:13Z</time>
      </trkpt>
      <trkpt lat="59.9362385" lon="17.6467885">
        <ele>29.4575</ele>
        <time>2013-05-25T16:00:14Z</time>
      </trkpt>
      <trkpt lat="59.9361856" lon="17.6467092">
        <ele>29.4575</ele>
        <time>2013-05-25T16:00:15Z</time>
      </trkpt>
      <trkpt lat="59.9361281" lon="17.6466465">
        <ele>29.4575</ele>
        <time>2013-05-25T16:00:16Z</time>
      </trkpt>
      <trkpt lat="59.9360731" lon="17.6465808">
        <ele>29.9381</ele>
        <time>2013-05-25T16:00:17Z</time>
      </trkpt>
      <trkpt lat="59.9360065" lon="17.6464995">
        <ele>29.9381</ele>
        <time>2013-05-25T16:00:18Z</time>
      </trkpt>
      <trkpt lat="59.9359364" lon="17.6464336">
        <ele>29.9381</ele>
        <time>2013-05-25T16:00:19Z</time>
      </trkpt>
      <trkpt lat="59.9358657" lon="17.646369">
        <ele>30.8995</ele>
        <time>2013-05-25T16:00:20Z</time>
      </trkpt>
      <trkpt lat="59.9358065" lon="17.6462836">
        <ele>31.3801</ele>
        <time>2013-05-25T16:00:21Z</time>
      </trkpt>
      <trkpt lat="59.9357469" lon="17.6461932">
        <ele>30.8995</ele>
        <time>2013-05-25T16:00:22Z</time>
      </trkpt>
      <trkpt lat="59.9356868" lon="17.6461104">
        <ele>30.4188</ele>
        <time>2013-05-25T16:00:23Z</time>
      </trkpt>
      <trkpt lat="59.9356222" lon="17.6460332">
        <ele>30.4188</ele>
        <time>2013-05-25T16:00:24Z</time>
      </trkpt>
      <trkpt lat="59.9355569" lon="17.645956">
        <ele>30.4188</ele>
        <time>2013-05-25T16:00:25Z</time>
      </trkpt>
      <trkpt lat="59.9354896" lon="17.6458804">
        <ele>29.9381</ele>
        <time>2013-05-25T16:00:26Z</time>
      </trkpt>
      <trkpt lat="59.9354213" lon="17.645806">
        <ele>29.9381</ele>
        <time>2013-05-25T16:00:27Z</time>
      </trkpt>
      <trkpt lat="59.9353524" lon="17.6457334">
        <ele>29.9381</ele>
        <time>2013-05-25T16:00:28Z</time>
      </trkpt>
      <trkpt lat="59.9352845" lon="17.6456592">
        <ele>29.4575</ele>
        <time>2013-05-25T16:00:29Z</time>
      </trkpt>
      <trkpt lat="59.935219" lon="17.645577">
        <ele>29.4575</ele>
        <time>2013-05-25T16:00:30Z</time>
      </trkpt>
      <trkpt lat="59.9351533" lon="17.6454935">
        <ele>29.4575</ele>
        <time>2013-05-25T16:00:31Z</time>
      </trkpt>
      <trkpt lat="59.9350869" lon="17.6454154">
        <ele>29.4575</ele>
        <time>2013-05-25T16:00:32Z</time>
      </trkpt>
      <trkpt lat="59.9350186" lon="17.6453376">
        <ele>29.4575</ele>
        <time>2013-05-25T16:00:33Z</time>
      </trkpt>
      <trkpt lat="59.9349543" lon="17.6452654">
        <ele>29.9381</ele>
        <time>2013-05-25T16:00:34Z</time>
      </trkpt>
      <trkpt lat="59.9348897" lon="17.6451937">
        <ele>30.4188</ele>
        <time>2013-05-25T16:00:35Z</time>
      </trkpt>
      <trkpt lat="59.9348229" lon="17.6451137">
        <ele>30.8995</ele>
        <time>2013-05-25T16:00:36Z</time>
      </trkpt>
      <trkpt lat="59.9347522" lon="17.6450352">
        <ele>31.3801</ele>
        <time>2013-05-25T16:00:37Z</time>
      </trkpt>
      <trkpt lat="59.9346887" lon="17.6449485">
        <ele>32.3416</ele>
        <time>2013-05-25T16:00:38Z</time>
      </trkpt>
      <trkpt lat="59.9346224" lon="17.6448609">
        <ele>33.3029</ele>
        <time>2013-05-25T16:00:39Z</time>
      </trkpt>
      <trkpt lat="59.9345576" lon="17.6447744">
        <ele>34.2642</ele>
        <time>2013-05-25T16:00:40Z</time>
      </trkpt>
      <trkpt lat="59.934487" lon="17.6446859">
        <ele>34.7449</ele>
        <time>2013-05-25T16:00:41Z</time>
      </trkpt>
      <trkpt lat="59.9344145" lon="17.6445808">
        <ele>34.2642</ele>
        <time>2013-05-25T16:00:42Z</time>
      </trkpt>
      <trkpt lat="59.9343368" lon="17.6444692">
        <ele>33.7834</ele>
        <time>2013-05-25T16:00:43Z</time>
      </trkpt>
      <trkpt lat="59.9342628" lon="17.6443612">
        <ele>33.7834</ele>
        <time>2013-05-25T16:00:44Z</time>
      </trkpt>
      <trkpt lat="59.9341841" lon="17.6442553">
        <ele>33.3029</ele>
        <time>2013-05-25T16:00:45Z</time>
      </trkpt>
      <trkpt lat="59.9341066" lon="17.6441487">
        <ele>32.8223</ele>
        <time>2013-05-25T16:00:46Z</time>
      </trkpt>
      <trkpt lat="59.9340299" lon="17.6440426">
        <ele>32.3416</ele>
        <time>2013-05-25T16:00:47Z</time>
      </trkpt>
      <trkpt lat="59.9339516" lon="17.6439421">
        <ele>31.8607</ele>
        <time>2013-05-25T16:00:48Z</time>
      </trkpt>
      <trkpt lat="59.9338698" lon="17.6438473">
        <ele>31.3801</ele>
        <time>2013-05-25T16:00:49Z</time>
      </trkpt>
      <trkpt lat="59.9337835" lon="17.6437654">
        <ele>30.8995</ele>
        <time>2013-05-25T16:00:50Z</time>
      </trkpt>
      <trkpt lat="59.9336977" lon="17.6436841">
        <ele>30.4188</ele>
        <time>2013-05-25T16:00:51Z</time>
      </trkpt>
      <trkpt lat="59.933609" lon="17.643595">
        <ele>30.4188</ele>
        <time>2013-05-25T16:00:52Z</time>
      </trkpt>
      <trkpt lat="59.9335211" lon="17.6434971">
        <ele>30.4188</ele>
        <time>2013-05-25T16:00:53Z</time>
      </trkpt>
      <trkpt lat="59.9334306" lon="17.6433847">
        <ele>29.4575</ele>
        <time>2013-05-25T16:00:54Z</time>
      </trkpt>
      <trkpt lat="59.9333424" lon="17.6432599">
        <ele>28.9769</ele>
        <time>2013-05-25T16:00:55Z</time>
      </trkpt>
      <trkpt lat="59.933246" lon="17.6430801">
        <ele>28.4962</ele>
        <time>2013-05-25T16:00:56Z</time>
      </trkpt>
      <trkpt lat="59.9331472" lon="17.6429288">
        <ele>27.5349</ele>
        <time>2013-05-25T16:00:57Z</time>
      </trkpt>
      <trkpt lat="59.9330507" lon="17.6427864">
        <ele>27.0543</ele>
        <time>2013-05-25T16:00:58Z</time>
      </trkpt>
      <trkpt lat="59.9329495" lon="17.6426564">
        <ele>26.0929</ele>
        <time>2013-05-25T16:00:59Z</time>
      </trkpt>
      <trkpt lat="59.9328508" lon="17.6425227">
        <ele>26.0929</ele>
        <time>2013-05-25T16:01:00Z</time>
      </trkpt>
      <trkpt lat="59.9327612" lon="17.6423765">
        <ele>26.0929</ele>
        <time>2013-05-25T16:01:01Z</time>
      </trkpt>
      <trkpt lat="59.9326643" lon="17.642229">
        <ele>25.6123</ele>
        <time>2013-05-25T16:01:02Z</time>
      </trkpt>
      <trkpt lat="59.9325686" lon="17.6420921">
        <ele>25.1317</ele>
        <time>2013-05-25T16:01:03Z</time>
      </trkpt>
      <trkpt lat="59.9324678" lon="17.6419776">
        <ele>24.651</ele>
        <time>2013-05-25T16:01:04Z</time>
      </trkpt>
      <trkpt lat="59.9323647" lon="17.6418735">
        <ele>24.651</ele>
        <time>2013-05-25T16:01:05Z</time>
      </trkpt>
      <trkpt lat="59.9322614" lon="17.6417745">
        <ele>24.651</ele>
        <time>2013-05-25T16:01:06Z</time>
      </trkpt>
      <trkpt lat="59.932159" lon="17.6416802">
        <ele>24.651</ele>
        <time>2013-05-25T16:01:07Z</time>
      </trkpt>
      <trkpt lat="59.9320581" lon="17.641588">
        <ele>25.1317</ele>
        <time>2013-05-25T16:01:08Z</time>
      </trkpt>
      <trkpt lat="59.9319604" lon="17.6415046">
        <ele>25.1317</ele>
        <time>2013-05-25T16:01:09Z</time>
      </trkpt>
      <trkpt lat="59.9318659" lon="17.6414373">
        <ele>24.651</ele>
        <time>2013-05-25T16:01:10Z</time>
      </trkpt>
      <trkpt lat="59.9317649" lon="17.6413743">
        <ele>24.651</ele>
        <time>2013-05-25T16:01:11Z</time>
      </trkpt>
      <trkpt lat="59.9316665" lon="17.6413208">
        <ele>24.1703</ele>
        <time>2013-05-25T16:01:12Z</time>
      </trkpt>
      <trkpt lat="59.9315625" lon="17.6412597">
        <ele>23.6896</ele>
        <time>2013-05-25T16:01:13Z</time>
      </trkpt>
      <trkpt lat="59.9314592" lon="17.6411946">
        <ele>23.6896</ele>
        <time>2013-05-25T16:01:14Z</time>
      </trkpt>
      <trkpt lat="59.931359" lon="17.6411265">
        <ele>23.209</ele>
        <time>2013-05-25T16:01:15Z</time>
      </trkpt>
      <trkpt lat="59.9312556" lon="17.6410769">
        <ele>22.7283</ele>
        <time>2013-05-25T16:01:16Z</time>
      </trkpt>
      <trkpt lat="59.9311543" lon="17.640998">
        <ele>21.767</ele>
        <time>2013-05-25T16:01:17Z</time>
      </trkpt>
      <trkpt lat="59.9310482" lon="17.6409169">
        <ele>21.2864</ele>
        <time>2013-05-25T16:01:18Z</time>
      </trkpt>
      <trkpt lat="59.9309379" lon="17.6408449">
        <ele>20.8057</ele>
        <time>2013-05-25T16:01:19Z</time>
      </trkpt>
      <trkpt lat="59.930826" lon="17.6407975">
        <ele>20.8057</ele>
        <time>2013-05-25T16:01:20Z</time>
      </trkpt>
      <trkpt lat="59.9307061" lon="17.6407796">
        <ele>20.8057</ele>
        <time>2013-05-25T16:01:21Z</time>
      </trkpt>
      <trkpt lat="59.9305967" lon="17.6407877">
        <ele>20.325</ele>
        <time>2013-05-25T16:01:22Z</time>
      </trkpt>
      <trkpt lat="59.9304907" lon="17.6408041">
        <ele>19.8444</ele>
        <time>2013-05-25T16:01:23Z</time>
      </trkpt>
      <trkpt lat="59.9303835" lon="17.6408147">
        <ele>19.3638</ele>
        <time>2013-05-25T16:01:24Z</time>
      </trkpt>
      <trkpt lat="59.930274" lon="17.6408174">
        <ele>19.3638</ele>
        <time>2013-05-25T16:01:25Z</time>
      </trkpt>
      <trkpt lat="59.930165" lon="17.6408139">
        <ele>18.8831</ele>
        <time>2013-05-25T16:01:26Z</time>
      </trkpt>
      <trkpt lat="59.9300571" lon="17.6408089">
        <ele>18.4023</ele>
        <time>2013-05-25T16:01:27Z</time>
      </trkpt>
      <trkpt lat="59.9299497" lon="17.6408058">
        <ele>18.4023</ele>
        <time>2013-05-25T16:01:28Z</time>
      </trkpt>
      <trkpt lat="59.9298427" lon="17.6408065">
        <ele>18.4023</ele>
        <time>2013-05-25T16:01:29Z</time>
      </trkpt>
      <trkpt lat="59.9297381" lon="17.6408151">
        <ele>18.4023</ele>
        <time>2013-05-25T16:01:30Z</time>
      </trkpt>
      <trkpt lat="59.9296351" lon="17.6408341">
        <ele>17.9218</ele>
        <time>2013-05-25T16:01:31Z</time>
      </trkpt>
      <trkpt lat="59.9295313" lon="17.6408583">
        <ele>17.9218</ele>
        <time>2013-05-25T16:01:32Z</time>
      </trkpt>
      <trkpt lat="59.9294262" lon="17.6408795">
        <ele>17.4412</ele>
        <time>2013-05-25T16:01:33Z</time>
      </trkpt>
      <trkpt lat="59.9293206" lon="17.6408962">
        <ele>17.4412</ele>
        <time>2013-05-25T16:01:34Z</time>
      </trkpt>
      <trkpt lat="59.9292149" lon="17.6409086">
        <ele>17.4412</ele>
        <time>2013-05-25T16:01:35Z</time>
      </trkpt>
      <trkpt lat="59.9291082" lon="17.6409126">
        <ele>17.4412</ele>
        <time>2013-05-25T16:01:36Z</time>
      </trkpt>
      <trkpt lat="59.9290016" lon="17.6409136">
        <ele>17.4412</ele>
        <time>2013-05-25T16:01:37Z</time>
      </trkpt>
      <trkpt lat="59.9288963" lon="17.6409246">
        <ele>17.4412</ele>
        <time>2013-05-25T16:01:38Z</time>
      </trkpt>
      <trkpt lat="59.9287902" lon="17.6409447">
        <ele>17.4412</ele>
        <time>2013-05-25T16:01:39Z</time>
      </trkpt>
      <trkpt lat="59.9286838" lon="17.6409682">
        <ele>17.4412</ele>
        <time>2013-05-25T16:01:40Z</time>
      </trkpt>
      <trkpt lat="59.9285783" lon="17.6409904">
        <ele>17.4412</ele>
        <time>2013-05-25T16:01:41Z</time>
      </trkpt>
      <trkpt lat="59.9284736" lon="17.6410084">
        <ele>17.4412</ele>
        <time>2013-05-25T16:01:42Z</time>
      </trkpt>
      <trkpt lat="59.9283677" lon="17.6410244">
        <ele>16.9604</ele>
        <time>2013-05-25T16:01:43Z</time>
      </trkpt>
      <trkpt lat="59.9282607" lon="17.6410402">
        <ele>16.9604</ele>
        <time>2013-05-25T16:01:44Z</time>
      </trkpt>
      <trkpt lat="59.9281539" lon="17.6410541">
        <ele>16.9604</ele>
        <time>2013-05-25T16:01:45Z</time>
      </trkpt>
      <trkpt lat="59.9280468" lon="17.6410666">
        <ele>16.9604</ele>
        <time>2013-05-25T16:01:46Z</time>
      </trkpt>
      <trkpt lat="59.9279391" lon="17.6410795">
        <ele>16.9604</ele>
        <time>2013-05-25T16:01:47Z</time>
      </trkpt>
      <trkpt lat="59.9278307" lon="17.6410909">
        <ele>16.4797</ele>
        <time>2013-05-25T16:01:48Z</time>
      </trkpt>
      <trkpt lat="59.927722" lon="17.6411">
        <ele>16.4797</ele>
        <time>2013-05-25T16:01:49Z</time>
      </trkpt>
      <trkpt lat="59.9276137" lon="17.6411101">
        <ele>16.4797</ele>
        <time>2013-05-25T16:01:50Z</time>
      </trkpt>
      <trkpt lat="59.9275052" lon="17.6411215">
        <ele>16.4797</ele>
        <time>2013-05-25T16:01:51Z</time>
      </trkpt>
      <trkpt lat="59.9273967" lon="17.6411327">
        <ele>16.4797</ele>
        <time>2013-05-25T16:01:52Z</time>
      </trkpt>
      <trkpt lat="59.9272882" lon="17.6411426">
        <ele>16.4797</ele>
        <time>2013-05-25T16:01:53Z</time>
      </trkpt>
      <trkpt lat="59.92718" lon="17.6411513">
        <ele>16.4797</ele>
        <time>2013-05-25T16:01:54Z</time>
      </trkpt>
      <trkpt lat="59.9270718" lon="17.641161">
        <ele>16.4797</ele>
        <time>2013-05-25T16:01:55Z</time>
      </trkpt>
      <trkpt lat="59.9269639" lon="17.6411711">
        <ele>16.4797</ele>
        <time>2013-05-25T16:01:56Z</time>
      </trkpt>
      <trkpt lat="59.9268564" lon="17.6411803">
        <ele>16.4797</ele>
        <time>2013-05-25T16:01:57Z</time>
      </trkpt>
      <trkpt lat="59.9267497" lon="17.6411903">
        <ele>16.4797</ele>
        <time>2013-05-25T16:01:58Z</time>
      </trkpt>
      <trkpt lat="59.9266424" lon="17.6412018">
        <ele>16.4797</ele>
        <time>2013-05-25T16:01:59Z</time>
      </trkpt>
      <trkpt lat="59.9265343" lon="17.6412141">
        <ele>15.999</ele>
        <time>2013-05-25T16:02:00Z</time>
      </trkpt>
      <trkpt lat="59.9264249" lon="17.6412261">
        <ele>15.999</ele>
        <time>2013-05-25T16:02:01Z</time>
      </trkpt>
      <trkpt lat="59.9263143" lon="17.6412394">
        <ele>15.999</ele>
        <time>2013-05-25T16:02:02Z</time>
      </trkpt>
      <trkpt lat="59.926203" lon="17.6412541">
        <ele>15.999</ele>
        <time>2013-05-25T16:02:03Z</time>
      </trkpt>
      <trkpt lat="59.9260913" lon="17.6412686">
        <ele>15.999</ele>
        <time>2013-05-25T16:02:04Z</time>
      </trkpt>
      <trkpt lat="59.9259799" lon="17.6412831">
        <ele>16.4797</ele>
        <time>2013-05-25T16:02:05Z</time>
      </trkpt>
      <trkpt lat="59.925869" lon="17.6412977">
        <ele>16.4797</ele>
        <time>2013-05-25T16:02:06Z</time>
      </trkpt>
      <trkpt lat="59.9257586" lon="17.641311">
        <ele>16.4797</ele>
        <time>2013-05-25T16:02:07Z</time>
      </trkpt>
      <trkpt lat="59.9256489" lon="17.6413243">
        <ele>16.4797</ele>
        <time>2013-05-25T16:02:08Z</time>
      </trkpt>
      <trkpt lat="59.9255402" lon="17.641338">
        <ele>16.9604</ele>
        <time>2013-05-25T16:02:09Z</time>
      </trkpt>
      <trkpt lat="59.9254329" lon="17.6413495">
        <ele>16.9604</ele>
        <time>2013-05-25T16:02:10Z</time>
      </trkpt>
      <trkpt lat="59.9253272" lon="17.6413572">
        <ele>16.9604</ele>
        <time>2013-05-25T16:02:11Z</time>
      </trkpt>
      <trkpt lat="59.9252221" lon="17.6413622">
        <ele>16.9604</ele>
        <time>2013-05-25T16:02:12Z</time>
      </trkpt>
      <trkpt lat="59.9251174" lon="17.6413663">
        <ele>17.4412</ele>
        <time>2013-05-25T16:02:13Z</time>
      </trkpt>
      <trkpt lat="59.9250136" lon="17.6413697">
        <ele>17.4412</ele>
        <time>2013-05-25T16:02:14Z</time>
      </trkpt>
      <trkpt lat="59.9249108" lon="17.6413758">
        <ele>17.4412</ele>
        <time>2013-05-25T16:02:15Z</time>
      </trkpt>
      <trkpt lat="59.9248095" lon="17.6413872">
        <ele>17.4412</ele>
        <time>2013-05-25T16:02:16Z</time>
      </trkpt>
      <trkpt lat="59.9247093" lon="17.6414036">
        <ele>17.4412</ele>
        <time>2013-05-25T16:02:17Z</time>
      </trkpt>
      <trkpt lat="59.9246101" lon="17.6414245">
        <ele>17.4412</ele>
        <time>2013-05-25T16:02:18Z</time>
      </trkpt>
      <trkpt lat="59.9245119" lon="17.6414463">
        <ele>17.4412</ele>
        <time>2013-05-25T16:02:19Z</time>
      </trkpt>
      <trkpt lat="59.9244136" lon="17.6414634">
        <ele>17.4412</ele>
        <time>2013-05-25T16:02:20Z</time>
      </trkpt>
      <trkpt lat="59.9243155" lon="17.6414743">
        <ele>17.9218</ele>
        <time>2013-05-25T16:02:21Z</time>
      </trkpt>
      <trkpt lat="59.924218" lon="17.6414813">
        <ele>17.9218</ele>
        <time>2013-05-25T16:02:22Z</time>
      </trkpt>
      <trkpt lat="59.9241207" lon="17.6414856">
        <ele>17.4412</ele>
        <time>2013-05-25T16:02:23Z</time>
      </trkpt>
      <trkpt lat="59.9240239" lon="17.6414922">
        <ele>17.4412</ele>
        <time>2013-05-25T16:02:24Z</time>
      </trkpt>
      <trkpt lat="59.9239265" lon="17.6415038">
        <ele>17.9218</ele>
        <time>2013-05-25T16:02:25Z</time>
      </trkpt>
      <trkpt lat="59.9238298" lon="17.641517">
        <ele>17.9218</ele>
        <time>2013-05-25T16:02:26Z</time>
      </trkpt>
      <trkpt lat="59.9237338" lon="17.6415288">
        <ele>17.9218</ele>
        <time>2013-05-25T16:02:27Z</time>
      </trkpt>
      <trkpt lat="59.923639" lon="17.6415398">
        <ele>18.4023</ele>
        <time>2013-05-25T16:02:28Z</time>
      </trkpt>
      <trkpt lat="59.9235459" lon="17.6415525">
        <ele>18.4023</ele>
        <time>2013-05-25T16:02:29Z</time>
      </trkpt>
      <trkpt lat="59.9234554" lon="17.6415653">
        <ele>18.8831</ele>
        <time>2013-05-25T16:02:30Z</time>
      </trkpt>
      <trkpt lat="59.9233667" lon="17.6415779">
        <ele>18.8831</ele>
        <time>2013-05-25T16:02:31Z</time>
      </trkpt>
      <trkpt lat="59.9232805" lon="17.6415917">
        <ele>19.3638</ele>
        <time>2013-05-25T16:02:32Z</time>
      </trkpt>
      <trkpt lat="59.9231965" lon="17.6416049">
        <ele>19.3638</ele>
        <time>2013-05-25T16:02:33Z</time>
      </trkpt>
      <trkpt lat="59.9231126" lon="17.6416162">
        <ele>19.3638</ele>
        <time>2013-05-25T16:02:34Z</time>
      </trkpt>
      <trkpt lat="59.9230284" lon="17.6416249">
        <ele>19.8444</ele>
        <time>2013-05-25T16:02:35Z</time>
      </trkpt>
      <trkpt lat="59.9229444" lon="17.6416332">
        <ele>19.8444</ele>
        <time>2013-05-25T16:02:36Z</time>
      </trkpt>
      <trkpt lat="59.9228621" lon="17.6416405">
        <ele>20.325</ele>
        <time>2013-05-25T16:02:37Z</time>
      </trkpt>
      <trkpt lat="59.9227802" lon="17.6416502">
        <ele>20.325</ele>
        <time>2013-05-25T16:02:38Z</time>
      </trkpt>
      <trkpt lat="59.9226988" lon="17.6416627">
        <ele>20.8057</ele>
        <time>2013-05-25T16:02:39Z</time>
      </trkpt>
      <trkpt lat="59.9226168" lon="17.6416773">
        <ele>20.8057</ele>
        <time>2013-05-25T16:02:40Z</time>
      </trkpt>
      <trkpt lat="59.9225346" lon="17.6416918">
        <ele>21.2864</ele>
        <time>2013-05-25T16:02:41Z</time>
      </trkpt>
      <trkpt lat="59.9224543" lon="17.6417027">
        <ele>20.8057</ele>
        <time>2013-05-25T16:02:42Z</time>
      </trkpt>
      <trkpt lat="59.9223735" lon="17.641711">
        <ele>20.8057</ele>
        <time>2013-05-25T16:02:43Z</time>
      </trkpt>
      <trkpt lat="59.9222928" lon="17.6417193">
        <ele>20.325</ele>
        <time>2013-05-25T16:02:44Z</time>
      </trkpt>
      <trkpt lat="59.9222123" lon="17.6417281">
        <ele>20.325</ele>
        <time>2013-05-25T16:02:45Z</time>
      </trkpt>
      <trkpt lat="59.922131" lon="17.6417367">
        <ele>20.325</ele>
        <time>2013-05-25T16:02:46Z</time>
      </trkpt>
      <trkpt lat="59.9220498" lon="17.6417472">
        <ele>20.325</ele>
        <time>2013-05-25T16:02:47Z</time>
      </trkpt>
      <trkpt lat="59.9219684" lon="17.6417586">
        <ele>20.325</ele>
        <time>2013-05-25T16:02:48Z</time>
      </trkpt>
      <trkpt lat="59.9218866" lon="17.6417691">
        <ele>20.325</ele>
        <time>2013-05-25T16:02:49Z</time>
      </trkpt>
      <trkpt lat="59.9218068" lon="17.6417767">
        <ele>20.8057</ele>
        <time>2013-05-25T16:02:50Z</time>
      </trkpt>
      <trkpt lat="59.9217274" lon="17.6417856">
        <ele>20.8057</ele>
        <time>2013-05-25T16:02:51Z</time>
      </trkpt>
      <trkpt lat="59.9216483" lon="17.6417975">
        <ele>20.8057</ele>
        <time>2013-05-25T16:02:52Z</time>
      </trkpt>
      <trkpt lat="59.9215692" lon="17.641813">
        <ele>21.2864</ele>
        <time>2013-05-25T16:02:53Z</time>
      </trkpt>
      <trkpt lat="59.9214913" lon="17.6418253">
        <ele>21.2864</ele>
        <time>2013-05-25T16:02:54Z</time>
      </trkpt>
      <trkpt lat="59.9214069" lon="17.6418458">
        <ele>21.2864</ele>
        <time>2013-05-25T16:02:55Z</time>
      </trkpt>
      <trkpt lat="59.9213273" lon="17.6418584">
        <ele>21.2864</ele>
        <time>2013-05-25T16:02:56Z</time>
      </trkpt>
      <trkpt lat="59.9212461" lon="17.641868">
        <ele>21.2864</ele>
        <time>2013-05-25T16:02:57Z</time>
      </trkpt>
      <trkpt lat="59.9211627" lon="17.6418756">
        <ele>20.8057</ele>
        <time>2013-05-25T16:02:58Z</time>
      </trkpt>
      <trkpt lat="59.9210775" lon="17.6418825">
        <ele>20.8057</ele>
        <time>2013-05-25T16:02:59Z</time>
      </trkpt>
      <trkpt lat="59.9209934" lon="17.6418851">
        <ele>19.8444</ele>
        <time>2013-05-25T16:03:00Z</time>
      </trkpt>
      <trkpt lat="59.9209085" lon="17.6418869">
        <ele>19.3638</ele>
        <time>2013-05-25T16:03:01Z</time>
      </trkpt>
      <trkpt lat="59.9208232" lon="17.6418851">
        <ele>19.3638</ele>
        <time>2013-05-25T16:03:02Z</time>
      </trkpt>
      <trkpt lat="59.9207361" lon="17.6418833">
        <ele>19.3638</ele>
        <time>2013-05-25T16:03:03Z</time>
      </trkpt>
      <trkpt lat="59.9206476" lon="17.6418778">
        <ele>18.4023</ele>
        <time>2013-05-25T16:03:04Z</time>
      </trkpt>
      <trkpt lat="59.9205589" lon="17.6418705">
        <ele>17.9218</ele>
        <time>2013-05-25T16:03:05Z</time>
      </trkpt>
      <trkpt lat="59.9204702" lon="17.6418659">
        <ele>17.9218</ele>
        <time>2013-05-25T16:03:06Z</time>
      </trkpt>
      <trkpt lat="59.9203823" lon="17.6418663">
        <ele>17.4412</ele>
        <time>2013-05-25T16:03:07Z</time>
      </trkpt>
      <trkpt lat="59.9202947" lon="17.6418708">
        <ele>17.4412</ele>
        <time>2013-05-25T16:03:08Z</time>
      </trkpt>
      <trkpt lat="59.9202075" lon="17.6418757">
        <ele>17.4412</ele>
        <time>2013-05-25T16:03:09Z</time>
      </trkpt>
      <trkpt lat="59.9201217" lon="17.6418803">
        <ele>17.4412</ele>
        <time>2013-05-25T16:03:10Z</time>
      </trkpt>
      <trkpt lat="59.9200356" lon="17.6418866">
        <ele>17.4412</ele>
        <time>2013-05-25T16:03:11Z</time>
      </trkpt>
      <trkpt lat="59.9199482" lon="17.6418964">
        <ele>17.4412</ele>
        <time>2013-05-25T16:03:12Z</time>
      </trkpt>
      <trkpt lat="59.9198608" lon="17.6419141">
        <ele>17.4412</ele>
        <time>2013-05-25T16:03:13Z</time>
      </trkpt>
      <trkpt lat="59.9197745" lon="17.6419368">
        <ele>17.9218</ele>
        <time>2013-05-25T16:03:14Z</time>
      </trkpt>
      <trkpt lat="59.9196885" lon="17.6419589">
        <ele>17.9218</ele>
        <time>2013-05-25T16:03:15Z</time>
      </trkpt>
      <trkpt lat="59.9196022" lon="17.6419767">
        <ele>17.9218</ele>
        <time>2013-05-25T16:03:16Z</time>
      </trkpt>
      <trkpt lat="59.9195156" lon="17.6419884">
        <ele>17.9218</ele>
        <time>2013-05-25T16:03:17Z</time>
      </trkpt>
      <trkpt lat="59.9194285" lon="17.6419983">
        <ele>17.9218</ele>
        <time>2013-05-25T16:03:18Z</time>
      </trkpt>
      <trkpt lat="59.9193411" lon="17.6420088">
        <ele>18.4023</ele>
        <time>2013-05-25T16:03:19Z</time>
      </trkpt>
      <trkpt lat="59.9192544" lon="17.6420187">
        <ele>18.4023</ele>
        <time>2013-05-25T16:03:20Z</time>
      </trkpt>
      <trkpt lat="59.919168" lon="17.6420316">
        <ele>18.8831</ele>
        <time>2013-05-25T16:03:21Z</time>
      </trkpt>
      <trkpt lat="59.9190816" lon="17.6420446">
        <ele>18.8831</ele>
        <time>2013-05-25T16:03:22Z</time>
      </trkpt>
      <trkpt lat="59.9189957" lon="17.6420527">
        <ele>18.8831</ele>
        <time>2013-05-25T16:03:23Z</time>
      </trkpt>
      <trkpt lat="59.9189097" lon="17.6420599">
        <ele>19.3638</ele>
        <time>2013-05-25T16:03:24Z</time>
      </trkpt>
      <trkpt lat="59.9188227" lon="17.6420698">
        <ele>19.3638</ele>
        <time>2013-05-25T16:03:25Z</time>
      </trkpt>
      <trkpt lat="59.9187353" lon="17.6420798">
        <ele>19.3638</ele>
        <time>2013-05-25T16:03:26Z</time>
      </trkpt>
      <trkpt lat="59.9186475" lon="17.6420905">
        <ele>19.3638</ele>
        <time>2013-05-25T16:03:27Z</time>
      </trkpt>
      <trkpt lat="59.9185595" lon="17.6421036">
        <ele>19.3638</ele>
        <time>2013-05-25T16:03:28Z</time>
      </trkpt>
      <trkpt lat="59.9184713" lon="17.6421174">
        <ele>19.8444</ele>
        <time>2013-05-25T16:03:29Z</time>
      </trkpt>
      <trkpt lat="59.9183824" lon="17.6421285">
        <ele>19.8444</ele>
        <time>2013-05-25T16:03:30Z</time>
      </trkpt>
      <trkpt lat="59.9182906" lon="17.642139">
        <ele>19.8444</ele>
        <time>2013-05-25T16:03:31Z</time>
      </trkpt>
      <trkpt lat="59.9181958" lon="17.6421487">
        <ele>19.3638</ele>
        <time>2013-05-25T16:03:32Z</time>
      </trkpt>
      <trkpt lat="59.9180984" lon="17.6421591">
        <ele>19.3638</ele>
        <time>2013-05-25T16:03:33Z</time>
      </trkpt>
      <trkpt lat="59.9179983" lon="17.6421705">
        <ele>18.8831</ele>
        <time>2013-05-25T16:03:34Z</time>
      </trkpt>
      <trkpt lat="59.9178958" lon="17.6421808">
        <ele>18.8831</ele>
        <time>2013-05-25T16:03:35Z</time>
      </trkpt>
      <trkpt lat="59.9177924" lon="17.6421887">
        <ele>18.8831</ele>
        <time>2013-05-25T16:03:36Z</time>
      </trkpt>
      <trkpt lat="59.9176891" lon="17.6421936">
        <ele>18.8831</ele>
        <time>2013-05-25T16:03:37Z</time>
      </trkpt>
      <trkpt lat="59.9175851" lon="17.6421957">
        <ele>18.8831</ele>
        <time>2013-05-25T16:03:38Z</time>
      </trkpt>
      <trkpt lat="59.9174809" lon="17.6421984">
        <ele>18.4023</ele>
        <time>2013-05-25T16:03:39Z</time>
      </trkpt>
      <trkpt lat="59.9173768" lon="17.6422011">
        <ele>18.4023</ele>
        <time>2013-05-25T16:03:40Z</time>
      </trkpt>
      <trkpt lat="59.9172727" lon="17.6422008">
        <ele>18.4023</ele>
        <time>2013-05-25T16:03:41Z</time>
      </trkpt>
      <trkpt lat="59.9171694" lon="17.6422016">
        <ele>18.4023</ele>
        <time>2013-05-25T16:03:42Z</time>
      </trkpt>
      <trkpt lat="59.9170674" lon="17.6422196">
        <ele>18.4023</ele>
        <time>2013-05-25T16:03:43Z</time>
      </trkpt>
      <trkpt lat="59.9169675" lon="17.6422509">
        <ele>18.8831</ele>
        <time>2013-05-25T16:03:44Z</time>
      </trkpt>
      <trkpt lat="59.916869" lon="17.6422771">
        <ele>18.8831</ele>
        <time>2013-05-25T16:03:45Z</time>
      </trkpt>
      <trkpt lat="59.9167716" lon="17.6422941">
        <ele>19.3638</ele>
        <time>2013-05-25T16:03:46Z</time>
      </trkpt>
      <trkpt lat="59.9166759" lon="17.642307">
        <ele>19.3638</ele>
        <time>2013-05-25T16:03:47Z</time>
      </trkpt>
      <trkpt lat="59.9165821" lon="17.6423196">
        <ele>19.8444</ele>
        <time>2013-05-25T16:03:48Z</time>
      </trkpt>
      <trkpt lat="59.91649" lon="17.6423342">
        <ele>19.8444</ele>
        <time>2013-05-25T16:03:49Z</time>
      </trkpt>
      <trkpt lat="59.9163983" lon="17.6423497">
        <ele>20.325</ele>
        <time>2013-05-25T16:03:50Z</time>
      </trkpt>
      <trkpt lat="59.9163071" lon="17.6423637">
        <ele>20.325</ele>
        <time>2013-05-25T16:03:51Z</time>
      </trkpt>
      <trkpt lat="59.9162163" lon="17.6423745">
        <ele>20.325</ele>
        <time>2013-05-25T16:03:52Z</time>
      </trkpt>
      <trkpt lat="59.9161246" lon="17.6423801">
        <ele>20.325</ele>
        <time>2013-05-25T16:03:53Z</time>
      </trkpt>
      <trkpt lat="59.9160319" lon="17.6423808">
        <ele>20.325</ele>
        <time>2013-05-25T16:03:54Z</time>
      </trkpt>
      <trkpt lat="59.9159377" lon="17.6423818">
        <ele>20.325</ele>
        <time>2013-05-25T16:03:55Z</time>
      </trkpt>
      <trkpt lat="59.915842" lon="17.6423833">
        <ele>20.325</ele>
        <time>2013-05-25T16:03:56Z</time>
      </trkpt>
      <trkpt lat="59.9157446" lon="17.6423853">
        <ele>20.325</ele>
        <time>2013-05-25T16:03:57Z</time>
      </trkpt>
      <trkpt lat="59.9156471" lon="17.6423931">
        <ele>19.8444</ele>
        <time>2013-05-25T16:03:58Z</time>
      </trkpt>
      <trkpt lat="59.9155483" lon="17.642408">
        <ele>19.8444</ele>
        <time>2013-05-25T16:03:59Z</time>
      </trkpt>
      <trkpt lat="59.9154502" lon="17.6424268">
        <ele>19.8444</ele>
        <time>2013-05-25T16:04:00Z</time>
      </trkpt>
      <trkpt lat="59.9153525" lon="17.6424553">
        <ele>19.8444</ele>
        <time>2013-05-25T16:04:01Z</time>
      </trkpt>
      <trkpt lat="59.9152577" lon="17.6424985">
        <ele>19.8444</ele>
        <time>2013-05-25T16:04:02Z</time>
      </trkpt>
      <trkpt lat="59.9151666" lon="17.6425553">
        <ele>20.325</ele>
        <time>2013-05-25T16:04:03Z</time>
      </trkpt>
      <trkpt lat="59.9150814" lon="17.6426179">
        <ele>20.325</ele>
        <time>2013-05-25T16:04:04Z</time>
      </trkpt>
      <trkpt lat="59.9149976" lon="17.6426635">
        <ele>20.325</ele>
        <time>2013-05-25T16:04:05Z</time>
      </trkpt>
      <trkpt lat="59.9149105" lon="17.642686">
        <ele>19.8444</ele>
        <time>2013-05-25T16:04:06Z</time>
      </trkpt>
      <trkpt lat="59.9148215" lon="17.6427002">
        <ele>19.8444</ele>
        <time>2013-05-25T16:04:07Z</time>
      </trkpt>
      <trkpt lat="59.9147312" lon="17.6427096">
        <ele>18.8831</ele>
        <time>2013-05-25T16:04:08Z</time>
      </trkpt>
      <trkpt lat="59.9146406" lon="17.642717">
        <ele>18.4023</ele>
        <time>2013-05-25T16:04:09Z</time>
      </trkpt>
      <trkpt lat="59.9145504" lon="17.6427315">
        <ele>18.4023</ele>
        <time>2013-05-25T16:04:10Z</time>
      </trkpt>
      <trkpt lat="59.9144593" lon="17.642745">
        <ele>18.4023</ele>
        <time>2013-05-25T16:04:11Z</time>
      </trkpt>
      <trkpt lat="59.9143673" lon="17.642759">
        <ele>18.8831</ele>
        <time>2013-05-25T16:04:12Z</time>
      </trkpt>
      <trkpt lat="59.9142786" lon="17.6427714">
        <ele>19.3638</ele>
        <time>2013-05-25T16:04:13Z</time>
      </trkpt>
      <trkpt lat="59.914192" lon="17.6427859">
        <ele>19.3638</ele>
        <time>2013-05-25T16:04:14Z</time>
      </trkpt>
      <trkpt lat="59.9141077" lon="17.6428045">
        <ele>19.3638</ele>
        <time>2013-05-25T16:04:15Z</time>
      </trkpt>
      <trkpt lat="59.9140263" lon="17.6428226">
        <ele>19.8444</ele>
        <time>2013-05-25T16:04:16Z</time>
      </trkpt>
      <trkpt lat="59.9139455" lon="17.6428367">
        <ele>19.8444</ele>
        <time>2013-05-25T16:04:17Z</time>
      </trkpt>
      <trkpt lat="59.913865" lon="17.6428496">
        <ele>19.8444</ele>
        <time>2013-05-25T16:04:18Z</time>
      </trkpt>
      <trkpt lat="59.9137854" lon="17.6428639">
        <ele>20.325</ele>
        <time>2013-05-25T16:04:19Z</time>
      </trkpt>
      <trkpt lat="59.9137084" lon="17.6428738">
        <ele>20.325</ele>
        <time>2013-05-25T16:04:20Z</time>
      </trkpt>
      <trkpt lat="59.9136331" lon="17.6428851">
        <ele>20.8057</ele>
        <time>2013-05-25T16:04:21Z</time>
      </trkpt>
      <trkpt lat="59.9135574" lon="17.6428983">
        <ele>20.325</ele>
        <time>2013-05-25T16:04:22Z</time>
      </trkpt>
      <trkpt lat="59.9134817" lon="17.6429136">
        <ele>20.325</ele>
        <time>2013-05-25T16:04:23Z</time>
      </trkpt>
      <trkpt lat="59.9134056" lon="17.6429257">
        <ele>20.325</ele>
        <time>2013-05-25T16:04:24Z</time>
      </trkpt>
      <trkpt lat="59.913327" lon="17.6429594">
        <ele>20.8057</ele>
        <time>2013-05-25T16:04:25Z</time>
      </trkpt>
      <trkpt lat="59.9132489" lon="17.6429913">
        <ele>21.767</ele>
        <time>2013-05-25T16:04:26Z</time>
      </trkpt>
      <trkpt lat="59.9131738" lon="17.6430029">
        <ele>22.7283</ele>
        <time>2013-05-25T16:04:27Z</time>
      </trkpt>
      <trkpt lat="59.913099" lon="17.6430174">
        <ele>23.209</ele>
        <time>2013-05-25T16:04:28Z</time>
      </trkpt>
      <trkpt lat="59.913025" lon="17.6430136">
        <ele>23.6896</ele>
        <time>2013-05-25T16:04:29Z</time>
      </trkpt>
      <trkpt lat="59.9129467" lon="17.6430353">
        <ele>24.1703</ele>
        <time>2013-05-25T16:04:30Z</time>
      </trkpt>
      <trkpt lat="59.9128639" lon="17.6430379">
        <ele>25.1317</ele>
        <time>2013-05-25T16:04:31Z</time>
      </trkpt>
      <trkpt lat="59.9127846" lon="17.6430417">
        <ele>25.1317</ele>
        <time>2013-05-25T16:04:32Z</time>
      </trkpt>
      <trkpt lat="59.9127067" lon="17.6430338">
        <ele>25.1317</ele>
        <time>2013-05-25T16:04:33Z</time>
      </trkpt>
      <trkpt lat="59.9126226" lon="17.6430102">
        <ele>24.1703</ele>
        <time>2013-05-25T16:04:34Z</time>
      </trkpt>
      <trkpt lat="59.9125342" lon="17.6429831">
        <ele>24.1703</ele>
        <time>2013-05-25T16:04:35Z</time>
      </trkpt>
      <trkpt lat="59.9124398" lon="17.6429801">
        <ele>23.6896</ele>
        <time>2013-05-25T16:04:36Z</time>
      </trkpt>
      <trkpt lat="59.912348" lon="17.6429893">
        <ele>23.209</ele>
        <time>2013-05-25T16:04:37Z</time>
      </trkpt>
      <trkpt lat="59.9122585" lon="17.643012">
        <ele>23.209</ele>
        <time>2013-05-25T16:04:38Z</time>
      </trkpt>
      <trkpt lat="59.9121711" lon="17.6430416">
        <ele>22.7283</ele>
        <time>2013-05-25T16:04:39Z</time>
      </trkpt>
      <trkpt lat="59.9120865" lon="17.6430685">
        <ele>22.7283</ele>
        <time>2013-05-25T16:04:40Z</time>
      </trkpt>
      <trkpt lat="59.9120057" lon="17.643092">
        <ele>22.7283</ele>
        <time>2013-05-25T16:04:41Z</time>
      </trkpt>
      <trkpt lat="59.9119289" lon="17.6431138">
        <ele>21.767</ele>
        <time>2013-05-25T16:04:42Z</time>
      </trkpt>
      <trkpt lat="59.9118507" lon="17.6431449">
        <ele>20.8057</ele>
        <time>2013-05-25T16:04:43Z</time>
      </trkpt>
      <trkpt lat="59.9117724" lon="17.6431744">
        <ele>20.8057</ele>
        <time>2013-05-25T16:04:44Z</time>
      </trkpt>
      <trkpt lat="59.9116912" lon="17.6431978">
        <ele>21.2864</ele>
        <time>2013-05-25T16:04:45Z</time>
      </trkpt>
      <trkpt lat="59.9116123" lon="17.6432122">
        <ele>21.2864</ele>
        <time>2013-05-25T16:04:46Z</time>
      </trkpt>
      <trkpt lat="59.9115337" lon="17.6432252">
        <ele>21.2864</ele>
        <time>2013-05-25T16:04:47Z</time>
      </trkpt>
      <trkpt lat="59.9114559" lon="17.6432304">
        <ele>21.2864</ele>
        <time>2013-05-25T16:04:48Z</time>
      </trkpt>
      <trkpt lat="59.9113783" lon="17.6432335">
        <ele>20.8057</ele>
        <time>2013-05-25T16:04:49Z</time>
      </trkpt>
      <trkpt lat="59.9113007" lon="17.6432467">
        <ele>20.8057</ele>
        <time>2013-05-25T16:04:50Z</time>
      </trkpt>
      <trkpt lat="59.9112218" lon="17.6432682">
        <ele>20.325</ele>
        <time>2013-05-25T16:04:51Z</time>
      </trkpt>
      <trkpt lat="59.9111419" lon="17.6432866">
        <ele>19.3638</ele>
        <time>2013-05-25T16:04:52Z</time>
      </trkpt>
      <trkpt lat="59.9110596" lon="17.6432982">
        <ele>19.3638</ele>
        <time>2013-05-25T16:04:53Z</time>
      </trkpt>
      <trkpt lat="59.9109761" lon="17.6433173">
        <ele>19.3638</ele>
        <time>2013-05-25T16:04:54Z</time>
      </trkpt>
      <trkpt lat="59.9108903" lon="17.643334">
        <ele>19.3638</ele>
        <time>2013-05-25T16:04:55Z</time>
      </trkpt>
      <trkpt lat="59.9108016" lon="17.6433557">
        <ele>19.8444</ele>
        <time>2013-05-25T16:04:56Z</time>
      </trkpt>
      <trkpt lat="59.9107105" lon="17.6433814">
        <ele>20.325</ele>
        <time>2013-05-25T16:04:57Z</time>
      </trkpt>
      <trkpt lat="59.9106218" lon="17.6434033">
        <ele>20.325</ele>
        <time>2013-05-25T16:04:58Z</time>
      </trkpt>
      <trkpt lat="59.910536" lon="17.6434323">
        <ele>20.8057</ele>
        <time>2013-05-25T16:04:59Z</time>
      </trkpt>
      <trkpt lat="59.9104562" lon="17.6434679">
        <ele>20.8057</ele>
        <time>2013-05-25T16:05:00Z</time>
      </trkpt>
      <trkpt lat="59.91038" lon="17.6435028">
        <ele>20.8057</ele>
        <time>2013-05-25T16:05:01Z</time>
      </trkpt>
      <trkpt lat="59.9103028" lon="17.6435308">
        <ele>20.8057</ele>
        <time>2013-05-25T16:05:02Z</time>
      </trkpt>
      <trkpt lat="59.9102201" lon="17.643579">
        <ele>21.2864</ele>
        <time>2013-05-25T16:05:03Z</time>
      </trkpt>
      <trkpt lat="59.910131" lon="17.6436058">
        <ele>21.767</ele>
        <time>2013-05-25T16:05:04Z</time>
      </trkpt>
      <trkpt lat="59.9100484" lon="17.6435841">
        <ele>21.2864</ele>
        <time>2013-05-25T16:05:05Z</time>
      </trkpt>
      <trkpt lat="59.9099522" lon="17.6435658">
        <ele>21.2864</ele>
        <time>2013-05-25T16:05:06Z</time>
      </trkpt>
      <trkpt lat="59.9098569" lon="17.6435262">
        <ele>20.8057</ele>
        <time>2013-05-25T16:05:07Z</time>
      </trkpt>
      <trkpt lat="59.9097595" lon="17.6435028">
        <ele>20.8057</ele>
        <time>2013-05-25T16:05:08Z</time>
      </trkpt>
      <trkpt lat="59.9096609" lon="17.6435103">
        <ele>21.2864</ele>
        <time>2013-05-25T16:05:09Z</time>
      </trkpt>
      <trkpt lat="59.9095635" lon="17.6435316">
        <ele>21.2864</ele>
        <time>2013-05-25T16:05:10Z</time>
      </trkpt>
      <trkpt lat="59.9094658" lon="17.643557">
        <ele>21.2864</ele>
        <time>2013-05-25T16:05:11Z</time>
      </trkpt>
      <trkpt lat="59.9093685" lon="17.6435819">
        <ele>21.2864</ele>
        <time>2013-05-25T16:05:12Z</time>
      </trkpt>
      <trkpt lat="59.909272" lon="17.6436017">
        <ele>21.2864</ele>
        <time>2013-05-25T16:05:13Z</time>
      </trkpt>
      <trkpt lat="59.9091757" lon="17.6436178">
        <ele>21.2864</ele>
        <time>2013-05-25T16:05:14Z</time>
      </trkpt>
      <trkpt lat="59.9090804" lon="17.6436317">
        <ele>21.2864</ele>
        <time>2013-05-25T16:05:15Z</time>
      </trkpt>
      <trkpt lat="59.9089833" lon="17.6436472">
        <ele>21.2864</ele>
        <time>2013-05-25T16:05:16Z</time>
      </trkpt>
      <trkpt lat="59.9088882" lon="17.6436577">
        <ele>21.2864</ele>
        <time>2013-05-25T16:05:17Z</time>
      </trkpt>
      <trkpt lat="59.9087922" lon="17.6436676">
        <ele>21.2864</ele>
        <time>2013-05-25T16:05:18Z</time>
      </trkpt>
      <trkpt lat="59.908697" lon="17.6436756">
        <ele>21.2864</ele>
        <time>2013-05-25T16:05:19Z</time>
      </trkpt>
      <trkpt lat="59.908602" lon="17.6436798">
        <ele>21.767</ele>
        <time>2013-05-25T16:05:20Z</time>
      </trkpt>
      <trkpt lat="59.9085075" lon="17.6436818">
        <ele>21.767</ele>
        <time>2013-05-25T16:05:21Z</time>
      </trkpt>
      <trkpt lat="59.9084142" lon="17.6436824">
        <ele>21.767</ele>
        <time>2013-05-25T16:05:22Z</time>
      </trkpt>
      <trkpt lat="59.908322" lon="17.6436789">
        <ele>21.767</ele>
        <time>2013-05-25T16:05:23Z</time>
      </trkpt>
      <trkpt lat="59.9082289" lon="17.6436712">
        <ele>21.767</ele>
        <time>2013-05-25T16:05:24Z</time>
      </trkpt>
      <trkpt lat="59.908135" lon="17.6436587">
        <ele>21.767</ele>
        <time>2013-05-25T16:05:25Z</time>
      </trkpt>
      <trkpt lat="59.9080405" lon="17.6436447">
        <ele>21.767</ele>
        <time>2013-05-25T16:05:26Z</time>
      </trkpt>
      <trkpt lat="59.9079455" lon="17.6436307">
        <ele>21.767</ele>
        <time>2013-05-25T16:05:27Z</time>
      </trkpt>
      <trkpt lat="59.9078496" lon="17.6436168">
        <ele>21.767</ele>
        <time>2013-05-25T16:05:28Z</time>
      </trkpt>
      <trkpt lat="59.9077536" lon="17.6436005">
        <ele>21.2864</ele>
        <time>2013-05-25T16:05:29Z</time>
      </trkpt>
      <trkpt lat="59.9076569" lon="17.64358">
        <ele>21.2864</ele>
        <time>2013-05-25T16:05:30Z</time>
      </trkpt>
      <trkpt lat="59.9075594" lon="17.6435592">
        <ele>21.2864</ele>
        <time>2013-05-25T16:05:31Z</time>
      </trkpt>
      <trkpt lat="59.9074612" lon="17.6435406">
        <ele>20.8057</ele>
        <time>2013-05-25T16:05:32Z</time>
      </trkpt>
      <trkpt lat="59.9073627" lon="17.643523">
        <ele>20.8057</ele>
        <time>2013-05-25T16:05:33Z</time>
      </trkpt>
      <trkpt lat="59.907264" lon="17.6435038">
        <ele>20.8057</ele>
        <time>2013-05-25T16:05:34Z</time>
      </trkpt>
      <trkpt lat="59.9071651" lon="17.6434825">
        <ele>20.325</ele>
        <time>2013-05-25T16:05:35Z</time>
      </trkpt>
      <trkpt lat="59.9070656" lon="17.6434606">
        <ele>20.325</ele>
        <time>2013-05-25T16:05:36Z</time>
      </trkpt>
      <trkpt lat="59.9069658" lon="17.6434391">
        <ele>20.325</ele>
        <time>2013-05-25T16:05:37Z</time>
      </trkpt>
      <trkpt lat="59.9068662" lon="17.6434152">
        <ele>20.325</ele>
        <time>2013-05-25T16:05:38Z</time>
      </trkpt>
      <trkpt lat="59.9067664" lon="17.6433945">
        <ele>20.325</ele>
        <time>2013-05-25T16:05:39Z</time>
      </trkpt>
      <trkpt lat="59.9066623" lon="17.6433726">
        <ele>20.325</ele>
        <time>2013-05-25T16:05:40Z</time>
      </trkpt>
      <trkpt lat="59.9065618" lon="17.6433442">
        <ele>20.325</ele>
        <time>2013-05-25T16:05:41Z</time>
      </trkpt>
      <trkpt lat="59.9064644" lon="17.6433085">
        <ele>19.8444</ele>
        <time>2013-05-25T16:05:42Z</time>
      </trkpt>
      <trkpt lat="59.9063663" lon="17.6432689">
        <ele>19.3638</ele>
        <time>2013-05-25T16:05:43Z</time>
      </trkpt>
      <trkpt lat="59.9062665" lon="17.643227">
        <ele>19.3638</ele>
        <time>2013-05-25T16:05:44Z</time>
      </trkpt>
      <trkpt lat="59.9061654" lon="17.6431826">
        <ele>18.8831</ele>
        <time>2013-05-25T16:05:45Z</time>
      </trkpt>
      <trkpt lat="59.9060656" lon="17.6431328">
        <ele>18.4023</ele>
        <time>2013-05-25T16:05:46Z</time>
      </trkpt>
      <trkpt lat="59.905965" lon="17.6430811">
        <ele>17.4412</ele>
        <time>2013-05-25T16:05:47Z</time>
      </trkpt>
      <trkpt lat="59.9058651" lon="17.6430262">
        <ele>16.9604</ele>
        <time>2013-05-25T16:05:48Z</time>
      </trkpt>
      <trkpt lat="59.9057646" lon="17.6429719">
        <ele>16.9604</ele>
        <time>2013-05-25T16:05:49Z</time>
      </trkpt>
      <trkpt lat="59.9056609" lon="17.6429277">
        <ele>15.999</ele>
        <time>2013-05-25T16:05:50Z</time>
      </trkpt>
      <trkpt lat="59.9055579" lon="17.6428936">
        <ele>15.999</ele>
        <time>2013-05-25T16:05:51Z</time>
      </trkpt>
      <trkpt lat="59.9054595" lon="17.6428739">
        <ele>15.999</ele>
        <time>2013-05-25T16:05:52Z</time>
      </trkpt>
      <trkpt lat="59.9053657" lon="17.6428625">
        <ele>15.999</ele>
        <time>2013-05-25T16:05:53Z</time>
      </trkpt>
      <trkpt lat="59.9052734" lon="17.6428418">
        <ele>15.999</ele>
        <time>2013-05-25T16:05:54Z</time>
      </trkpt>
      <trkpt lat="59.9051806" lon="17.6428053">
        <ele>15.999</ele>
        <time>2013-05-25T16:05:55Z</time>
      </trkpt>
      <trkpt lat="59.9050871" lon="17.642762">
        <ele>15.999</ele>
        <time>2013-05-25T16:05:56Z</time>
      </trkpt>
      <trkpt lat="59.9049931" lon="17.6427155">
        <ele>15.999</ele>
        <time>2013-05-25T16:05:57Z</time>
      </trkpt>
      <trkpt lat="59.904899" lon="17.6426655">
        <ele>15.999</ele>
        <time>2013-05-25T16:05:58Z</time>
      </trkpt>
      <trkpt lat="59.9048042" lon="17.6426069">
        <ele>15.999</ele>
        <time>2013-05-25T16:05:59Z</time>
      </trkpt>
      <trkpt lat="59.904709" lon="17.6425386">
        <ele>15.5184</ele>
        <time>2013-05-25T16:06:00Z</time>
      </trkpt>
      <trkpt lat="59.9046113" lon="17.6424712">
        <ele>15.5184</ele>
        <time>2013-05-25T16:06:01Z</time>
      </trkpt>
      <trkpt lat="59.9045131" lon="17.6424107">
        <ele>15.999</ele>
        <time>2013-05-25T16:06:02Z</time>
      </trkpt>
      <trkpt lat="59.9044166" lon="17.6423569">
        <ele>16.4797</ele>
        <time>2013-05-25T16:06:03Z</time>
      </trkpt>
      <trkpt lat="59.904322" lon="17.6423052">
        <ele>16.4797</ele>
        <time>2013-05-25T16:06:04Z</time>
      </trkpt>
      <trkpt lat="59.9042298" lon="17.6422511">
        <ele>16.9604</ele>
        <time>2013-05-25T16:06:05Z</time>
      </trkpt>
      <trkpt lat="59.9041411" lon="17.6421979">
        <ele>16.9604</ele>
        <time>2013-05-25T16:06:06Z</time>
      </trkpt>
      <trkpt lat="59.9040556" lon="17.6421486">
        <ele>17.4412</ele>
        <time>2013-05-25T16:06:07Z</time>
      </trkpt>
      <trkpt lat="59.9039729" lon="17.6421031">
        <ele>17.9218</ele>
        <time>2013-05-25T16:06:08Z</time>
      </trkpt>
      <trkpt lat="59.903892" lon="17.6420632">
        <ele>17.9218</ele>
        <time>2013-05-25T16:06:09Z</time>
      </trkpt>
      <trkpt lat="59.9038128" lon="17.6420304">
        <ele>18.4023</ele>
        <time>2013-05-25T16:06:10Z</time>
      </trkpt>
      <trkpt lat="59.9037369" lon="17.641999">
        <ele>18.4023</ele>
        <time>2013-05-25T16:06:11Z</time>
      </trkpt>
      <trkpt lat="59.9036631" lon="17.6419685">
        <ele>18.8831</ele>
        <time>2013-05-25T16:06:12Z</time>
      </trkpt>
      <trkpt lat="59.9035962" lon="17.6419486">
        <ele>18.8831</ele>
        <time>2013-05-25T16:06:13Z</time>
      </trkpt>
      <trkpt lat="59.9035331" lon="17.6419493">
        <ele>19.3638</ele>
        <time>2013-05-25T16:06:14Z</time>
      </trkpt>
      <trkpt lat="59.9034733" lon="17.6419446">
        <ele>18.8831</ele>
        <time>2013-05-25T16:06:15Z</time>
      </trkpt>
      <trkpt lat="59.9034147" lon="17.6419104">
        <ele>18.4023</ele>
        <time>2013-05-25T16:06:16Z</time>
      </trkpt>
      <trkpt lat="59.9033537" lon="17.6418683">
        <ele>18.4023</ele>
        <time>2013-05-25T16:06:17Z</time>
      </trkpt>
      <trkpt lat="59.9032911" lon="17.64183">
        <ele>18.4023</ele>
        <time>2013-05-25T16:06:18Z</time>
      </trkpt>
      <trkpt lat="59.9032289" lon="17.6417985">
        <ele>18.4023</ele>
        <time>2013-05-25T16:06:19Z</time>
      </trkpt>
      <trkpt lat="59.9031693" lon="17.6417768">
        <ele>18.8831</ele>
        <time>2013-05-25T16:06:20Z</time>
      </trkpt>
      <trkpt lat="59.9031243" lon="17.6417561">
        <ele>19.3638</ele>
        <time>2013-05-25T16:06:21Z</time>
      </trkpt>
      <trkpt lat="59.9030921" lon="17.6417427">
        <ele>18.8831</ele>
        <time>2013-05-25T16:06:22Z</time>
      </trkpt>
      <trkpt lat="59.903058" lon="17.64174">
        <ele>19.3638</ele>
        <time>2013-05-25T16:06:23Z</time>
      </trkpt>
      <trkpt lat="59.9030303" lon="17.6417237">
        <ele>19.3638</ele>
        <time>2013-05-25T16:06:24Z</time>
      </trkpt>
      <trkpt lat="59.9030001" lon="17.6417048">
        <ele>19.3638</ele>
        <time>2013-05-25T16:06:25Z</time>
      </trkpt>
      <trkpt lat="59.9029744" lon="17.6416823">
        <ele>18.8831</ele>
        <time>2013-05-25T16:06:26Z</time>
      </trkpt>
      <trkpt lat="59.9026558" lon="17.6414644">
        <ele>15.999</ele>
        <time>2013-05-25T16:06:38Z</time>
      </trkpt>
      <trkpt lat="59.902613" lon="17.6414358">
        <ele>15.999</ele>
        <time>2013-05-25T16:06:39Z</time>
      </trkpt>
      <trkpt lat="59.9025663" lon="17.6414033">
        <ele>15.999</ele>
        <time>2013-05-25T16:06:40Z</time>
      </trkpt>
      <trkpt lat="59.9025159" lon="17.6413701">
        <ele>15.999</ele>
        <time>2013-05-25T16:06:41Z</time>
      </trkpt>
      <trkpt lat="59.9024616" lon="17.6413383">
        <ele>15.999</ele>
        <time>2013-05-25T16:06:42Z</time>
      </trkpt>
      <trkpt lat="59.9024051" lon="17.6413048">
        <ele>15.999</ele>
        <time>2013-05-25T16:06:43Z</time>
      </trkpt>
      <trkpt lat="59.9023472" lon="17.6412681">
        <ele>15.999</ele>
        <time>2013-05-25T16:06:44Z</time>
      </trkpt>
      <trkpt lat="59.9022878" lon="17.6412252">
        <ele>15.999</ele>
        <time>2013-05-25T16:06:45Z</time>
      </trkpt>
      <trkpt lat="59.902228" lon="17.6411765">
        <ele>15.999</ele>
        <time>2013-05-25T16:06:46Z</time>
      </trkpt>
      <trkpt lat="59.9021669" lon="17.641123">
        <ele>15.999</ele>
        <time>2013-05-25T16:06:47Z</time>
      </trkpt>
      <trkpt lat="59.9021034" lon="17.6410671">
        <ele>15.999</ele>
        <time>2013-05-25T16:06:48Z</time>
      </trkpt>
      <trkpt lat="59.9020378" lon="17.6410122">
        <ele>15.999</ele>
        <time>2013-05-25T16:06:49Z</time>
      </trkpt>
      <trkpt lat="59.9019707" lon="17.6409583">
        <ele>15.999</ele>
        <time>2013-05-25T16:06:50Z</time>
      </trkpt>
      <trkpt lat="59.9019036" lon="17.6409023">
        <ele>15.999</ele>
        <time>2013-05-25T16:06:51Z</time>
      </trkpt>
      <trkpt lat="59.901836" lon="17.6408441">
        <ele>15.999</ele>
        <time>2013-05-25T16:06:52Z</time>
      </trkpt>
      <trkpt lat="59.9017682" lon="17.6407853">
        <ele>15.999</ele>
        <time>2013-05-25T16:06:53Z</time>
      </trkpt>
      <trkpt lat="59.9016996" lon="17.6407262">
        <ele>15.999</ele>
        <time>2013-05-25T16:06:54Z</time>
      </trkpt>
      <trkpt lat="59.9016303" lon="17.6406646">
        <ele>15.999</ele>
        <time>2013-05-25T16:06:55Z</time>
      </trkpt>
      <trkpt lat="59.9015602" lon="17.6406015">
        <ele>16.4797</ele>
        <time>2013-05-25T16:06:56Z</time>
      </trkpt>
      <trkpt lat="59.9014904" lon="17.6405367">
        <ele>16.4797</ele>
        <time>2013-05-25T16:06:57Z</time>
      </trkpt>
      <trkpt lat="59.9014201" lon="17.6404697">
        <ele>16.9604</ele>
        <time>2013-05-25T16:06:58Z</time>
      </trkpt>
      <trkpt lat="59.9013496" lon="17.6404026">
        <ele>16.9604</ele>
        <time>2013-05-25T16:06:59Z</time>
      </trkpt>
      <trkpt lat="59.9012786" lon="17.6403353">
        <ele>16.4797</ele>
        <time>2013-05-25T16:07:00Z</time>
      </trkpt>
      <trkpt lat="59.9012066" lon="17.6402678">
        <ele>16.9604</ele>
        <time>2013-05-25T16:07:01Z</time>
      </trkpt>
      <trkpt lat="59.9011341" lon="17.6402006">
        <ele>16.9604</ele>
        <time>2013-05-25T16:07:02Z</time>
      </trkpt>
      <trkpt lat="59.9010635" lon="17.6401315">
        <ele>16.9604</ele>
        <time>2013-05-25T16:07:03Z</time>
      </trkpt>
      <trkpt lat="59.9009963" lon="17.640057">
        <ele>16.4797</ele>
        <time>2013-05-25T16:07:04Z</time>
      </trkpt>
      <trkpt lat="59.9009291" lon="17.6399796">
        <ele>15.999</ele>
        <time>2013-05-25T16:07:05Z</time>
      </trkpt>
      <trkpt lat="59.9008595" lon="17.6399056">
        <ele>15.999</ele>
        <time>2013-05-25T16:07:06Z</time>
      </trkpt>
      <trkpt lat="59.9007891" lon="17.6398332">
        <ele>15.5184</ele>
        <time>2013-05-25T16:07:07Z</time>
      </trkpt>
      <trkpt lat="59.9007187" lon="17.6397575">
        <ele>15.0377</ele>
        <time>2013-05-25T16:07:08Z</time>
      </trkpt>
      <trkpt lat="59.9006477" lon="17.6396814">
        <ele>14.557</ele>
        <time>2013-05-25T16:07:09Z</time>
      </trkpt>
      <trkpt lat="59.9005766" lon="17.6396053">
        <ele>14.0764</ele>
        <time>2013-05-25T16:07:10Z</time>
      </trkpt>
      <trkpt lat="59.9005058" lon="17.6395281">
        <ele>14.0764</ele>
        <time>2013-05-25T16:07:11Z</time>
      </trkpt>
      <trkpt lat="59.9004366" lon="17.6394499">
        <ele>13.5958</ele>
        <time>2013-05-25T16:07:12Z</time>
      </trkpt>
      <trkpt lat="59.9003647" lon="17.6393748">
        <ele>13.5958</ele>
        <time>2013-05-25T16:07:13Z</time>
      </trkpt>
      <trkpt lat="59.9002911" lon="17.6393038">
        <ele>13.5958</ele>
        <time>2013-05-25T16:07:14Z</time>
      </trkpt>
      <trkpt lat="59.9002201" lon="17.6392337">
        <ele>13.5958</ele>
        <time>2013-05-25T16:07:15Z</time>
      </trkpt>
      <trkpt lat="59.9001509" lon="17.6391629">
        <ele>13.5958</ele>
        <time>2013-05-25T16:07:16Z</time>
      </trkpt>
      <trkpt lat="59.900084" lon="17.6390902">
        <ele>13.1151</ele>
        <time>2013-05-25T16:07:17Z</time>
      </trkpt>
      <trkpt lat="59.9000167" lon="17.639018">
        <ele>13.5958</ele>
        <time>2013-05-25T16:07:18Z</time>
      </trkpt>
      <trkpt lat="59.8999511" lon="17.6389478">
        <ele>13.5958</ele>
        <time>2013-05-25T16:07:19Z</time>
      </trkpt>
      <trkpt lat="59.8998846" lon="17.6388779">
        <ele>14.0764</ele>
        <time>2013-05-25T16:07:20Z</time>
      </trkpt>
      <trkpt lat="59.8998166" lon="17.6388115">
        <ele>14.557</ele>
        <time>2013-05-25T16:07:21Z</time>
      </trkpt>
      <trkpt lat="59.899747" lon="17.6387476">
        <ele>15.0377</ele>
        <time>2013-05-25T16:07:22Z</time>
      </trkpt>
      <trkpt lat="59.8996815" lon="17.6386804">
        <ele>14.557</ele>
        <time>2013-05-25T16:07:23Z</time>
      </trkpt>
      <trkpt lat="59.8996182" lon="17.6386117">
        <ele>14.0764</ele>
        <time>2013-05-25T16:07:24Z</time>
      </trkpt>
      <trkpt lat="59.8995537" lon="17.6385459">
        <ele>14.557</ele>
        <time>2013-05-25T16:07:25Z</time>
      </trkpt>
      <trkpt lat="59.8994921" lon="17.6384795">
        <ele>15.5184</ele>
        <time>2013-05-25T16:07:26Z</time>
      </trkpt>
      <trkpt lat="59.8994309" lon="17.6384173">
        <ele>15.999</ele>
        <time>2013-05-25T16:07:27Z</time>
      </trkpt>
      <trkpt lat="59.8993739" lon="17.63836">
        <ele>16.9604</ele>
        <time>2013-05-25T16:07:28Z</time>
      </trkpt>
      <trkpt lat="59.8993196" lon="17.6383088">
        <ele>16.4797</ele>
        <time>2013-05-25T16:07:29Z</time>
      </trkpt>
      <trkpt lat="59.8992654" lon="17.6382614">
        <ele>16.9604</ele>
        <time>2013-05-25T16:07:30Z</time>
      </trkpt>
      <trkpt lat="59.8992127" lon="17.6382124">
        <ele>17.4412</ele>
        <time>2013-05-25T16:07:31Z</time>
      </trkpt>
      <trkpt lat="59.899162" lon="17.6381638">
        <ele>17.4412</ele>
        <time>2013-05-25T16:07:32Z</time>
      </trkpt>
      <trkpt lat="59.8991143" lon="17.6381166">
        <ele>17.9218</ele>
        <time>2013-05-25T16:07:33Z</time>
      </trkpt>
      <trkpt lat="59.8990686" lon="17.638072">
        <ele>18.8831</ele>
        <time>2013-05-25T16:07:34Z</time>
      </trkpt>
      <trkpt lat="59.8990227" lon="17.6380321">
        <ele>19.3638</ele>
        <time>2013-05-25T16:07:35Z</time>
      </trkpt>
      <trkpt lat="59.8989797" lon="17.6379936">
        <ele>19.3638</ele>
        <time>2013-05-25T16:07:36Z</time>
      </trkpt>
      <trkpt lat="59.898945" lon="17.6379559">
        <ele>19.3638</ele>
        <time>2013-05-25T16:07:37Z</time>
      </trkpt>
      <trkpt lat="59.8989123" lon="17.6379223">
        <ele>19.8444</ele>
        <time>2013-05-25T16:07:38Z</time>
      </trkpt>
      <trkpt lat="59.8988788" lon="17.6378983">
        <ele>20.325</ele>
        <time>2013-05-25T16:07:39Z</time>
      </trkpt>
      <trkpt lat="59.8988422" lon="17.6378926">
        <ele>19.8444</ele>
        <time>2013-05-25T16:07:40Z</time>
      </trkpt>
      <trkpt lat="59.8988088" lon="17.6379034">
        <ele>21.2864</ele>
        <time>2013-05-25T16:07:41Z</time>
      </trkpt>
      <trkpt lat="59.8987802" lon="17.6379257">
        <ele>21.767</ele>
        <time>2013-05-25T16:07:42Z</time>
      </trkpt>
      <trkpt lat="59.898757" lon="17.637956">
        <ele>22.2476</ele>
        <time>2013-05-25T16:07:43Z</time>
      </trkpt>
      <trkpt lat="59.8987371" lon="17.6379891">
        <ele>22.2476</ele>
        <time>2013-05-25T16:07:44Z</time>
      </trkpt>
      <trkpt lat="59.898718" lon="17.6380191">
        <ele>22.2476</ele>
        <time>2013-05-25T16:07:45Z</time>
      </trkpt>
      <trkpt lat="59.8986936" lon="17.6380466">
        <ele>22.2476</ele>
        <time>2013-05-25T16:07:46Z</time>
      </trkpt>
      <trkpt lat="59.8986689" lon="17.6380889">
        <ele>21.767</ele>
        <time>2013-05-25T16:07:47Z</time>
      </trkpt>
      <trkpt lat="59.8986568" lon="17.6381372">
        <ele>21.767</ele>
        <time>2013-05-25T16:07:48Z</time>
      </trkpt>
      <trkpt lat="59.8986558" lon="17.6381854">
        <ele>21.2864</ele>
        <time>2013-05-25T16:07:49Z</time>
      </trkpt>
      <trkpt lat="59.8986693" lon="17.6382266">
        <ele>20.8057</ele>
        <time>2013-05-25T16:07:50Z</time>
      </trkpt>
      <trkpt lat="59.8986865" lon="17.6382656">
        <ele>20.325</ele>
        <time>2013-05-25T16:07:51Z</time>
      </trkpt>
      <trkpt lat="59.8987236" lon="17.6382707">
        <ele>19.8444</ele>
        <time>2013-05-25T16:07:52Z</time>
      </trkpt>
      <trkpt lat="59.8987684" lon="17.6382691">
        <ele>19.8444</ele>
        <time>2013-05-25T16:07:53Z</time>
      </trkpt>
      <trkpt lat="59.8988178" lon="17.6382849">
        <ele>19.8444</ele>
        <time>2013-05-25T16:07:54Z</time>
      </trkpt>
      <trkpt lat="59.8988679" lon="17.6383232">
        <ele>19.3638</ele>
        <time>2013-05-25T16:07:55Z</time>
      </trkpt>
      <trkpt lat="59.89892" lon="17.6383744">
        <ele>18.8831</ele>
        <time>2013-05-25T16:07:56Z</time>
      </trkpt>
      <trkpt lat="59.8989754" lon="17.6384361">
        <ele>18.8831</ele>
        <time>2013-05-25T16:07:57Z</time>
      </trkpt>
      <trkpt lat="59.8990288" lon="17.6384984">
        <ele>19.3638</ele>
        <time>2013-05-25T16:07:58Z</time>
      </trkpt>
      <trkpt lat="59.8990822" lon="17.6385604">
        <ele>19.3638</ele>
        <time>2013-05-25T16:07:59Z</time>
      </trkpt>
      <trkpt lat="59.8991378" lon="17.6386252">
        <ele>19.3638</ele>
        <time>2013-05-25T16:08:00Z</time>
      </trkpt>
      <trkpt lat="59.8991919" lon="17.6386931">
        <ele>19.8444</ele>
        <time>2013-05-25T16:08:01Z</time>
      </trkpt>
      <trkpt lat="59.8992429" lon="17.638763">
        <ele>19.8444</ele>
        <time>2013-05-25T16:08:02Z</time>
      </trkpt>
      <trkpt lat="59.8992982" lon="17.6388327">
        <ele>19.3638</ele>
        <time>2013-05-25T16:08:03Z</time>
      </trkpt>
      <trkpt lat="59.8993603" lon="17.6388999">
        <ele>19.3638</ele>
        <time>2013-05-25T16:08:04Z</time>
      </trkpt>
      <trkpt lat="59.8994226" lon="17.6389617">
        <ele>19.8444</ele>
        <time>2013-05-25T16:08:05Z</time>
      </trkpt>
      <trkpt lat="59.899488" lon="17.6390249">
        <ele>20.325</ele>
        <time>2013-05-25T16:08:06Z</time>
      </trkpt>
      <trkpt lat="59.8995522" lon="17.6390924">
        <ele>20.8057</ele>
        <time>2013-05-25T16:08:07Z</time>
      </trkpt>
      <trkpt lat="59.8996158" lon="17.6391613">
        <ele>21.2864</ele>
        <time>2013-05-25T16:08:08Z</time>
      </trkpt>
      <trkpt lat="59.8996784" lon="17.6392286">
        <ele>22.2476</ele>
        <time>2013-05-25T16:08:09Z</time>
      </trkpt>
      <trkpt lat="59.8997417" lon="17.6392922">
        <ele>22.7283</ele>
        <time>2013-05-25T16:08:10Z</time>
      </trkpt>
      <trkpt lat="59.899805" lon="17.6393538">
        <ele>22.7283</ele>
        <time>2013-05-25T16:08:11Z</time>
      </trkpt>
      <trkpt lat="59.8998732" lon="17.6394079">
        <ele>23.209</ele>
        <time>2013-05-25T16:08:12Z</time>
      </trkpt>
      <trkpt lat="59.8999393" lon="17.639468">
        <ele>23.209</ele>
        <time>2013-05-25T16:08:13Z</time>
      </trkpt>
      <trkpt lat="59.9000021" lon="17.6395306">
        <ele>23.209</ele>
        <time>2013-05-25T16:08:14Z</time>
      </trkpt>
      <trkpt lat="59.9000628" lon="17.6395932">
        <ele>23.6896</ele>
        <time>2013-05-25T16:08:15Z</time>
      </trkpt>
      <trkpt lat="59.9001188" lon="17.6396579">
        <ele>24.1703</ele>
        <time>2013-05-25T16:08:16Z</time>
      </trkpt>
      <trkpt lat="59.9001785" lon="17.6397195">
        <ele>23.6896</ele>
        <time>2013-05-25T16:08:17Z</time>
      </trkpt>
      <trkpt lat="59.9002441" lon="17.6397767">
        <ele>24.1703</ele>
        <time>2013-05-25T16:08:18Z</time>
      </trkpt>
      <trkpt lat="59.9003087" lon="17.6398382">
        <ele>24.651</ele>
        <time>2013-05-25T16:08:19Z</time>
      </trkpt>
      <trkpt lat="59.900375" lon="17.6398974">
        <ele>25.6123</ele>
        <time>2013-05-25T16:08:20Z</time>
      </trkpt>
      <trkpt lat="59.900441" lon="17.6399554">
        <ele>26.0929</ele>
        <time>2013-05-25T16:08:21Z</time>
      </trkpt>
      <trkpt lat="59.9005094" lon="17.6400135">
        <ele>27.0543</ele>
        <time>2013-05-25T16:08:22Z</time>
      </trkpt>
      <trkpt lat="59.9005757" lon="17.6400782">
        <ele>28.0155</ele>
        <time>2013-05-25T16:08:23Z</time>
      </trkpt>
      <trkpt lat="59.9006434" lon="17.6401486">
        <ele>28.9769</ele>
        <time>2013-05-25T16:08:24Z</time>
      </trkpt>
      <trkpt lat="59.9007108" lon="17.6402212">
        <ele>29.9381</ele>
        <time>2013-05-25T16:08:25Z</time>
      </trkpt>
      <trkpt lat="59.9007752" lon="17.6402938">
        <ele>30.4188</ele>
        <time>2013-05-25T16:08:26Z</time>
      </trkpt>
      <trkpt lat="59.9008414" lon="17.6403608">
        <ele>31.3801</ele>
        <time>2013-05-25T16:08:27Z</time>
      </trkpt>
      <trkpt lat="59.9009119" lon="17.6404216">
        <ele>32.3416</ele>
        <time>2013-05-25T16:08:28Z</time>
      </trkpt>
      <trkpt lat="59.9009761" lon="17.6404904">
        <ele>32.8223</ele>
        <time>2013-05-25T16:08:29Z</time>
      </trkpt>
      <trkpt lat="59.9010407" lon="17.640557">
        <ele>33.3029</ele>
        <time>2013-05-25T16:08:30Z</time>
      </trkpt>
      <trkpt lat="59.9011066" lon="17.6406195">
        <ele>34.2642</ele>
        <time>2013-05-25T16:08:31Z</time>
      </trkpt>
      <trkpt lat="59.9011709" lon="17.6406825">
        <ele>34.2642</ele>
        <time>2013-05-25T16:08:32Z</time>
      </trkpt>
      <trkpt lat="59.901235" lon="17.6407459">
        <ele>34.7449</ele>
        <time>2013-05-25T16:08:33Z</time>
      </trkpt>
      <trkpt lat="59.9012983" lon="17.6408081">
        <ele>34.7449</ele>
        <time>2013-05-25T16:08:34Z</time>
      </trkpt>
      <trkpt lat="59.9013615" lon="17.640868">
        <ele>34.7449</ele>
        <time>2013-05-25T16:08:35Z</time>
      </trkpt>
      <trkpt lat="59.9014241" lon="17.6409267">
        <ele>34.7449</ele>
        <time>2013-05-25T16:08:36Z</time>
      </trkpt>
      <trkpt lat="59.9014858" lon="17.6409842">
        <ele>34.7449</ele>
        <time>2013-05-25T16:08:37Z</time>
      </trkpt>
      <trkpt lat="59.901548" lon="17.6410395">
        <ele>34.7449</ele>
        <time>2013-05-25T16:08:38Z</time>
      </trkpt>
      <trkpt lat="59.9016099" lon="17.6410943">
        <ele>34.7449</ele>
        <time>2013-05-25T16:08:39Z</time>
      </trkpt>
      <trkpt lat="59.9016718" lon="17.6411477">
        <ele>34.7449</ele>
        <time>2013-05-25T16:08:40Z</time>
      </trkpt>
      <trkpt lat="59.9017342" lon="17.6411995">
        <ele>34.2642</ele>
        <time>2013-05-25T16:08:41Z</time>
      </trkpt>
      <trkpt lat="59.901797" lon="17.641251">
        <ele>34.2642</ele>
        <time>2013-05-25T16:08:42Z</time>
      </trkpt>
      <trkpt lat="59.9018598" lon="17.6413023">
        <ele>34.2642</ele>
        <time>2013-05-25T16:08:43Z</time>
      </trkpt>
      <trkpt lat="59.9019221" lon="17.6413524">
        <ele>33.7834</ele>
        <time>2013-05-25T16:08:44Z</time>
      </trkpt>
      <trkpt lat="59.9019836" lon="17.6414006">
        <ele>33.7834</ele>
        <time>2013-05-25T16:08:45Z</time>
      </trkpt>
      <trkpt lat="59.9020438" lon="17.6414477">
        <ele>33.7834</ele>
        <time>2013-05-25T16:08:46Z</time>
      </trkpt>
      <trkpt lat="59.9021029" lon="17.6414929">
        <ele>33.3029</ele>
        <time>2013-05-25T16:08:47Z</time>
      </trkpt>
      <trkpt lat="59.9021617" lon="17.6415352">
        <ele>33.3029</ele>
        <time>2013-05-25T16:08:48Z</time>
      </trkpt>
      <trkpt lat="59.9022202" lon="17.6415772">
        <ele>32.8223</ele>
        <time>2013-05-25T16:08:49Z</time>
      </trkpt>
      <trkpt lat="59.9022787" lon="17.6416192">
        <ele>32.8223</ele>
        <time>2013-05-25T16:08:50Z</time>
      </trkpt>
      <trkpt lat="59.9023374" lon="17.6416612">
        <ele>32.8223</ele>
        <time>2013-05-25T16:08:51Z</time>
      </trkpt>
      <trkpt lat="59.9023971" lon="17.6417031">
        <ele>32.3416</ele>
        <time>2013-05-25T16:08:52Z</time>
      </trkpt>
      <trkpt lat="59.9024575" lon="17.6417429">
        <ele>32.3416</ele>
        <time>2013-05-25T16:08:53Z</time>
      </trkpt>
      <trkpt lat="59.9025182" lon="17.6417815">
        <ele>32.3416</ele>
        <time>2013-05-25T16:08:54Z</time>
      </trkpt>
      <trkpt lat="59.9025791" lon="17.6418202">
        <ele>31.8607</ele>
        <time>2013-05-25T16:08:55Z</time>
      </trkpt>
      <trkpt lat="59.9026397" lon="17.641858">
        <ele>31.8607</ele>
        <time>2013-05-25T16:08:56Z</time>
      </trkpt>
      <trkpt lat="59.9026998" lon="17.6418938">
        <ele>31.8607</ele>
        <time>2013-05-25T16:08:57Z</time>
      </trkpt>
      <trkpt lat="59.90276" lon="17.641928">
        <ele>31.8607</ele>
        <time>2013-05-25T16:08:58Z</time>
      </trkpt>
      <trkpt lat="59.9028207" lon="17.6419625">
        <ele>31.3801</ele>
        <time>2013-05-25T16:08:59Z</time>
      </trkpt>
      <trkpt lat="59.9028816" lon="17.6419959">
        <ele>31.3801</ele>
        <time>2013-05-25T16:09:00Z</time>
      </trkpt>
      <trkpt lat="59.9029429" lon="17.6420268">
        <ele>31.3801</ele>
        <time>2013-05-25T16:09:01Z</time>
      </trkpt>
      <trkpt lat="59.9030046" lon="17.642059">
        <ele>31.3801</ele>
        <time>2013-05-25T16:09:02Z</time>
      </trkpt>
      <trkpt lat="59.903066" lon="17.6420922">
        <ele>30.8995</ele>
        <time>2013-05-25T16:09:03Z</time>
      </trkpt>
      <trkpt lat="59.9031274" lon="17.6421244">
        <ele>30.8995</ele>
        <time>2013-05-25T16:09:04Z</time>
      </trkpt>
      <trkpt lat="59.9031895" lon="17.6421549">
        <ele>30.8995</ele>
        <time>2013-05-25T16:09:05Z</time>
      </trkpt>
      <trkpt lat="59.9032527" lon="17.6421844">
        <ele>30.8995</ele>
        <time>2013-05-25T16:09:06Z</time>
      </trkpt>
      <trkpt lat="59.9033168" lon="17.6422139">
        <ele>30.8995</ele>
        <time>2013-05-25T16:09:07Z</time>
      </trkpt>
      <trkpt lat="59.9033807" lon="17.6422429">
        <ele>30.8995</ele>
        <time>2013-05-25T16:09:08Z</time>
      </trkpt>
      <trkpt lat="59.9034447" lon="17.6422703">
        <ele>30.8995</ele>
        <time>2013-05-25T16:09:09Z</time>
      </trkpt>
      <trkpt lat="59.9035092" lon="17.6422978">
        <ele>30.8995</ele>
        <time>2013-05-25T16:09:10Z</time>
      </trkpt>
      <trkpt lat="59.9035717" lon="17.642328">
        <ele>30.8995</ele>
        <time>2013-05-25T16:09:11Z</time>
      </trkpt>
      <trkpt lat="59.9036344" lon="17.6423595">
        <ele>30.8995</ele>
        <time>2013-05-25T16:09:12Z</time>
      </trkpt>
      <trkpt lat="59.9036961" lon="17.6423921">
        <ele>30.8995</ele>
        <time>2013-05-25T16:09:13Z</time>
      </trkpt>
      <trkpt lat="59.90376" lon="17.6424206">
        <ele>30.8995</ele>
        <time>2013-05-25T16:09:14Z</time>
      </trkpt>
      <trkpt lat="59.9038226" lon="17.6424491">
        <ele>30.8995</ele>
        <time>2013-05-25T16:09:15Z</time>
      </trkpt>
      <trkpt lat="59.9038843" lon="17.6424752">
        <ele>30.4188</ele>
        <time>2013-05-25T16:09:16Z</time>
      </trkpt>
      <trkpt lat="59.9039453" lon="17.6425011">
        <ele>30.4188</ele>
        <time>2013-05-25T16:09:17Z</time>
      </trkpt>
      <trkpt lat="59.9040068" lon="17.6425284">
        <ele>30.4188</ele>
        <time>2013-05-25T16:09:18Z</time>
      </trkpt>
      <trkpt lat="59.9040691" lon="17.6425579">
        <ele>30.4188</ele>
        <time>2013-05-25T16:09:19Z</time>
      </trkpt>
      <trkpt lat="59.9041323" lon="17.6425872">
        <ele>29.9381</ele>
        <time>2013-05-25T16:09:20Z</time>
      </trkpt>
      <trkpt lat="59.9041963" lon="17.6426153">
        <ele>29.9381</ele>
        <time>2013-05-25T16:09:21Z</time>
      </trkpt>
      <trkpt lat="59.9042598" lon="17.6426438">
        <ele>29.4575</ele>
        <time>2013-05-25T16:09:22Z</time>
      </trkpt>
      <trkpt lat="59.904323" lon="17.6426728">
        <ele>29.4575</ele>
        <time>2013-05-25T16:09:23Z</time>
      </trkpt>
      <trkpt lat="59.904386" lon="17.6427018">
        <ele>29.4575</ele>
        <time>2013-05-25T16:09:24Z</time>
      </trkpt>
      <trkpt lat="59.9044495" lon="17.6427303">
        <ele>29.4575</ele>
        <time>2013-05-25T16:09:25Z</time>
      </trkpt>
      <trkpt lat="59.9045137" lon="17.642759">
        <ele>28.9769</ele>
        <time>2013-05-25T16:09:26Z</time>
      </trkpt>
      <trkpt lat="59.9045779" lon="17.6427889">
        <ele>28.9769</ele>
        <time>2013-05-25T16:09:27Z</time>
      </trkpt>
      <trkpt lat="59.9046422" lon="17.6428191">
        <ele>28.9769</ele>
        <time>2013-05-25T16:09:28Z</time>
      </trkpt>
      <trkpt lat="59.9047063" lon="17.6428506">
        <ele>28.9769</ele>
        <time>2013-05-25T16:09:29Z</time>
      </trkpt>
      <trkpt lat="59.9047696" lon="17.6428813">
        <ele>28.9769</ele>
        <time>2013-05-25T16:09:30Z</time>
      </trkpt>
      <trkpt lat="59.9048333" lon="17.6429107">
        <ele>28.4962</ele>
        <time>2013-05-25T16:09:31Z</time>
      </trkpt>
      <trkpt lat="59.9048933" lon="17.6429454">
        <ele>28.9769</ele>
        <time>2013-05-25T16:09:32Z</time>
      </trkpt>
      <trkpt lat="59.9049492" lon="17.6429783">
        <ele>28.9769</ele>
        <time>2013-05-25T16:09:33Z</time>
      </trkpt>
      <trkpt lat="59.9050084" lon="17.6430066">
        <ele>28.9769</ele>
        <time>2013-05-25T16:09:34Z</time>
      </trkpt>
      <trkpt lat="59.9050669" lon="17.6430328">
        <ele>28.9769</ele>
        <time>2013-05-25T16:09:35Z</time>
      </trkpt>
      <trkpt lat="59.9051226" lon="17.6430599">
        <ele>28.4962</ele>
        <time>2013-05-25T16:09:36Z</time>
      </trkpt>
      <trkpt lat="59.9051739" lon="17.6430921">
        <ele>28.0155</ele>
        <time>2013-05-25T16:09:37Z</time>
      </trkpt>
      <trkpt lat="59.9052227" lon="17.6431154">
        <ele>27.5349</ele>
        <time>2013-05-25T16:09:38Z</time>
      </trkpt>
      <trkpt lat="59.9052707" lon="17.6431424">
        <ele>27.5349</ele>
        <time>2013-05-25T16:09:39Z</time>
      </trkpt>
      <trkpt lat="59.9053191" lon="17.6431702">
        <ele>27.0543</ele>
        <time>2013-05-25T16:09:40Z</time>
      </trkpt>
      <trkpt lat="59.9053722" lon="17.6431966">
        <ele>27.0543</ele>
        <time>2013-05-25T16:09:41Z</time>
      </trkpt>
      <trkpt lat="59.9054251" lon="17.6432223">
        <ele>26.5736</ele>
        <time>2013-05-25T16:09:42Z</time>
      </trkpt>
      <trkpt lat="59.9054786" lon="17.6432475">
        <ele>26.5736</ele>
        <time>2013-05-25T16:09:43Z</time>
      </trkpt>
      <trkpt lat="59.905532" lon="17.6432707">
        <ele>26.5736</ele>
        <time>2013-05-25T16:09:44Z</time>
      </trkpt>
      <trkpt lat="59.9055847" lon="17.6432936">
        <ele>26.5736</ele>
        <time>2013-05-25T16:09:45Z</time>
      </trkpt>
      <trkpt lat="59.9056328" lon="17.643323">
        <ele>26.5736</ele>
        <time>2013-05-25T16:09:46Z</time>
      </trkpt>
      <trkpt lat="59.9056859" lon="17.6433501">
        <ele>26.5736</ele>
        <time>2013-05-25T16:09:47Z</time>
      </trkpt>
      <trkpt lat="59.9057362" lon="17.6433986">
        <ele>26.5736</ele>
        <time>2013-05-25T16:09:48Z</time>
      </trkpt>
      <trkpt lat="59.9057744" lon="17.6434784">
        <ele>26.0929</ele>
        <time>2013-05-25T16:09:49Z</time>
      </trkpt>
      <trkpt lat="59.9057993" lon="17.6435826">
        <ele>25.6123</ele>
        <time>2013-05-25T16:09:50Z</time>
      </trkpt>
      <trkpt lat="59.9058183" lon="17.6436984">
        <ele>25.1317</ele>
        <time>2013-05-25T16:09:51Z</time>
      </trkpt>
      <trkpt lat="59.9058454" lon="17.6438035">
        <ele>24.1703</ele>
        <time>2013-05-25T16:09:52Z</time>
      </trkpt>
      <trkpt lat="59.9058718" lon="17.643908">
        <ele>24.651</ele>
        <time>2013-05-25T16:09:53Z</time>
      </trkpt>
      <trkpt lat="59.9059025" lon="17.6440164">
        <ele>23.6896</ele>
        <time>2013-05-25T16:09:54Z</time>
      </trkpt>
      <trkpt lat="59.9059372" lon="17.6441151">
        <ele>22.2476</ele>
        <time>2013-05-25T16:09:55Z</time>
      </trkpt>
      <trkpt lat="59.905971" lon="17.6442167">
        <ele>21.2864</ele>
        <time>2013-05-25T16:09:56Z</time>
      </trkpt>
      <trkpt lat="59.9060029" lon="17.6443192">
        <ele>20.325</ele>
        <time>2013-05-25T16:09:57Z</time>
      </trkpt>
      <trkpt lat="59.906033" lon="17.644419">
        <ele>19.3638</ele>
        <time>2013-05-25T16:09:58Z</time>
      </trkpt>
      <trkpt lat="59.9060618" lon="17.6445194">
        <ele>18.8831</ele>
        <time>2013-05-25T16:09:59Z</time>
      </trkpt>
      <trkpt lat="59.9060856" lon="17.6446258">
        <ele>18.4023</ele>
        <time>2013-05-25T16:10:00Z</time>
      </trkpt>
      <trkpt lat="59.9061028" lon="17.6447376">
        <ele>18.8831</ele>
        <time>2013-05-25T16:10:01Z</time>
      </trkpt>
      <trkpt lat="59.9061163" lon="17.644847">
        <ele>19.3638</ele>
        <time>2013-05-25T16:10:02Z</time>
      </trkpt>
      <trkpt lat="59.9061246" lon="17.6449588">
        <ele>19.8444</ele>
        <time>2013-05-25T16:10:03Z</time>
      </trkpt>
      <trkpt lat="59.9061293" lon="17.6450697">
        <ele>20.325</ele>
        <time>2013-05-25T16:10:04Z</time>
      </trkpt>
      <trkpt lat="59.9061277" lon="17.6451737">
        <ele>20.8057</ele>
        <time>2013-05-25T16:10:05Z</time>
      </trkpt>
      <trkpt lat="59.9061236" lon="17.6452816">
        <ele>20.325</ele>
        <time>2013-05-25T16:10:06Z</time>
      </trkpt>
      <trkpt lat="59.9061166" lon="17.6453857">
        <ele>19.8444</ele>
        <time>2013-05-25T16:10:07Z</time>
      </trkpt>
      <trkpt lat="59.9061071" lon="17.6454878">
        <ele>19.8444</ele>
        <time>2013-05-25T16:10:08Z</time>
      </trkpt>
      <trkpt lat="59.9060971" lon="17.6455847">
        <ele>19.8444</ele>
        <time>2013-05-25T16:10:09Z</time>
      </trkpt>
      <trkpt lat="59.9060855" lon="17.6456814">
        <ele>20.325</ele>
        <time>2013-05-25T16:10:10Z</time>
      </trkpt>
      <trkpt lat="59.9060701" lon="17.6457748">
        <ele>19.8444</ele>
        <time>2013-05-25T16:10:11Z</time>
      </trkpt>
      <trkpt lat="59.9060555" lon="17.6458736">
        <ele>19.8444</ele>
        <time>2013-05-25T16:10:12Z</time>
      </trkpt>
      <trkpt lat="59.9060382" lon="17.6459746">
        <ele>20.325</ele>
        <time>2013-05-25T16:10:13Z</time>
      </trkpt>
      <trkpt lat="59.9060229" lon="17.6460743">
        <ele>20.325</ele>
        <time>2013-05-25T16:10:14Z</time>
      </trkpt>
      <trkpt lat="59.906008" lon="17.6461721">
        <ele>20.8057</ele>
        <time>2013-05-25T16:10:15Z</time>
      </trkpt>
      <trkpt lat="59.9059946" lon="17.6462782">
        <ele>20.8057</ele>
        <time>2013-05-25T16:10:16Z</time>
      </trkpt>
      <trkpt lat="59.9059799" lon="17.646384">
        <ele>21.2864</ele>
        <time>2013-05-25T16:10:17Z</time>
      </trkpt>
      <trkpt lat="59.9059666" lon="17.646491">
        <ele>21.767</ele>
        <time>2013-05-25T16:10:18Z</time>
      </trkpt>
      <trkpt lat="59.9059558" lon="17.646598">
        <ele>22.2476</ele>
        <time>2013-05-25T16:10:19Z</time>
      </trkpt>
      <trkpt lat="59.9059447" lon="17.6467025">
        <ele>22.2476</ele>
        <time>2013-05-25T16:10:20Z</time>
      </trkpt>
      <trkpt lat="59.9059332" lon="17.6468073">
        <ele>22.7283</ele>
        <time>2013-05-25T16:10:21Z</time>
      </trkpt>
      <trkpt lat="59.9059224" lon="17.6469139">
        <ele>22.7283</ele>
        <time>2013-05-25T16:10:22Z</time>
      </trkpt>
      <trkpt lat="59.9059123" lon="17.6470201">
        <ele>23.209</ele>
        <time>2013-05-25T16:10:23Z</time>
      </trkpt>
      <trkpt lat="59.9059047" lon="17.6471346">
        <ele>23.6896</ele>
        <time>2013-05-25T16:10:24Z</time>
      </trkpt>
      <trkpt lat="59.9059011" lon="17.647249">
        <ele>24.1703</ele>
        <time>2013-05-25T16:10:25Z</time>
      </trkpt>
      <trkpt lat="59.9058994" lon="17.6473633">
        <ele>24.651</ele>
        <time>2013-05-25T16:10:26Z</time>
      </trkpt>
      <trkpt lat="59.9058997" lon="17.6474759">
        <ele>25.1317</ele>
        <time>2013-05-25T16:10:27Z</time>
      </trkpt>
      <trkpt lat="59.9059049" lon="17.64759">
        <ele>25.6123</ele>
        <time>2013-05-25T16:10:28Z</time>
      </trkpt>
      <trkpt lat="59.9059156" lon="17.6477053">
        <ele>25.6123</ele>
        <time>2013-05-25T16:10:29Z</time>
      </trkpt>
      <trkpt lat="59.9059299" lon="17.6478193">
        <ele>26.0929</ele>
        <time>2013-05-25T16:10:30Z</time>
      </trkpt>
      <trkpt lat="59.9059479" lon="17.6479307">
        <ele>26.0929</ele>
        <time>2013-05-25T16:10:31Z</time>
      </trkpt>
      <trkpt lat="59.9059676" lon="17.6480394">
        <ele>26.5736</ele>
        <time>2013-05-25T16:10:32Z</time>
      </trkpt>
      <trkpt lat="59.9059885" lon="17.6481458">
        <ele>26.5736</ele>
        <time>2013-05-25T16:10:33Z</time>
      </trkpt>
      <trkpt lat="59.906012" lon="17.6482488">
        <ele>27.0543</ele>
        <time>2013-05-25T16:10:34Z</time>
      </trkpt>
      <trkpt lat="59.9060396" lon="17.6483465">
        <ele>27.0543</ele>
        <time>2013-05-25T16:10:35Z</time>
      </trkpt>
      <trkpt lat="59.90607" lon="17.6484415">
        <ele>27.0543</ele>
        <time>2013-05-25T16:10:36Z</time>
      </trkpt>
      <trkpt lat="59.9061013" lon="17.6485341">
        <ele>27.5349</ele>
        <time>2013-05-25T16:10:37Z</time>
      </trkpt>
      <trkpt lat="59.9061351" lon="17.6486226">
        <ele>27.5349</ele>
        <time>2013-05-25T16:10:38Z</time>
      </trkpt>
      <trkpt lat="59.9061692" lon="17.6487084">
        <ele>28.0155</ele>
        <time>2013-05-25T16:10:39Z</time>
      </trkpt>
      <trkpt lat="59.9062062" lon="17.6487921">
        <ele>26.5736</ele>
        <time>2013-05-25T16:10:40Z</time>
      </trkpt>
      <trkpt lat="59.9062428" lon="17.648875">
        <ele>25.6123</ele>
        <time>2013-05-25T16:10:41Z</time>
      </trkpt>
      <trkpt lat="59.9062794" lon="17.6489557">
        <ele>24.651</ele>
        <time>2013-05-25T16:10:42Z</time>
      </trkpt>
      <trkpt lat="59.9063147" lon="17.6490362">
        <ele>23.6896</ele>
        <time>2013-05-25T16:10:43Z</time>
      </trkpt>
      <trkpt lat="59.9063483" lon="17.6491176">
        <ele>23.209</ele>
        <time>2013-05-25T16:10:44Z</time>
      </trkpt>
      <trkpt lat="59.9063805" lon="17.6491996">
        <ele>22.2476</ele>
        <time>2013-05-25T16:10:45Z</time>
      </trkpt>
      <trkpt lat="59.906411" lon="17.6492836">
        <ele>21.767</ele>
        <time>2013-05-25T16:10:46Z</time>
      </trkpt>
      <trkpt lat="59.9064385" lon="17.6493694">
        <ele>21.767</ele>
        <time>2013-05-25T16:10:47Z</time>
      </trkpt>
      <trkpt lat="59.9064685" lon="17.6494552">
        <ele>20.325</ele>
        <time>2013-05-25T16:10:48Z</time>
      </trkpt>
      <trkpt lat="59.9064949" lon="17.6495417">
        <ele>19.8444</ele>
        <time>2013-05-25T16:10:49Z</time>
      </trkpt>
      <trkpt lat="59.9065198" lon="17.6496271">
        <ele>19.3638</ele>
        <time>2013-05-25T16:10:50Z</time>
      </trkpt>
      <trkpt lat="59.9065442" lon="17.6497116">
        <ele>18.8831</ele>
        <time>2013-05-25T16:10:51Z</time>
      </trkpt>
      <trkpt lat="59.9065664" lon="17.6497965">
        <ele>18.8831</ele>
        <time>2013-05-25T16:10:52Z</time>
      </trkpt>
      <trkpt lat="59.9065898" lon="17.64988">
        <ele>18.4023</ele>
        <time>2013-05-25T16:10:53Z</time>
      </trkpt>
      <trkpt lat="59.9066131" lon="17.6499629">
        <ele>17.9218</ele>
        <time>2013-05-25T16:10:54Z</time>
      </trkpt>
      <trkpt lat="59.9066342" lon="17.6500447">
        <ele>17.9218</ele>
        <time>2013-05-25T16:10:55Z</time>
      </trkpt>
      <trkpt lat="59.906654" lon="17.6501233">
        <ele>17.4412</ele>
        <time>2013-05-25T16:10:56Z</time>
      </trkpt>
      <trkpt lat="59.9066726" lon="17.6501996">
        <ele>16.9604</ele>
        <time>2013-05-25T16:10:57Z</time>
      </trkpt>
      <trkpt lat="59.9066906" lon="17.6502732">
        <ele>16.4797</ele>
        <time>2013-05-25T16:10:58Z</time>
      </trkpt>
      <trkpt lat="59.9067078" lon="17.6503461">
        <ele>16.4797</ele>
        <time>2013-05-25T16:10:59Z</time>
      </trkpt>
      <trkpt lat="59.9067224" lon="17.6504208">
        <ele>17.4412</ele>
        <time>2013-05-25T16:11:00Z</time>
      </trkpt>
      <trkpt lat="59.9067393" lon="17.650495">
        <ele>17.9218</ele>
        <time>2013-05-25T16:11:01Z</time>
      </trkpt>
      <trkpt lat="59.9067566" lon="17.6505709">
        <ele>18.4023</ele>
        <time>2013-05-25T16:11:02Z</time>
      </trkpt>
      <trkpt lat="59.9067748" lon="17.6506507">
        <ele>18.4023</ele>
        <time>2013-05-25T16:11:03Z</time>
      </trkpt>
      <trkpt lat="59.9067936" lon="17.6507275">
        <ele>18.4023</ele>
        <time>2013-05-25T16:11:04Z</time>
      </trkpt>
      <trkpt lat="59.9068104" lon="17.6508056">
        <ele>18.8831</ele>
        <time>2013-05-25T16:11:05Z</time>
      </trkpt>
      <trkpt lat="59.90683" lon="17.6508834">
        <ele>18.8831</ele>
        <time>2013-05-25T16:11:06Z</time>
      </trkpt>
      <trkpt lat="59.9068487" lon="17.6509638">
        <ele>19.3638</ele>
        <time>2013-05-25T16:11:07Z</time>
      </trkpt>
      <trkpt lat="59.9068664" lon="17.6510456">
        <ele>19.8444</ele>
        <time>2013-05-25T16:11:08Z</time>
      </trkpt>
      <trkpt lat="59.9068855" lon="17.6511272">
        <ele>20.325</ele>
        <time>2013-05-25T16:11:09Z</time>
      </trkpt>
      <trkpt lat="59.9069042" lon="17.6512071">
        <ele>20.325</ele>
        <time>2013-05-25T16:11:10Z</time>
      </trkpt>
      <trkpt lat="59.9069223" lon="17.6512883">
        <ele>20.325</ele>
        <time>2013-05-25T16:11:11Z</time>
      </trkpt>
      <trkpt lat="59.9069403" lon="17.6513702">
        <ele>20.325</ele>
        <time>2013-05-25T16:11:12Z</time>
      </trkpt>
      <trkpt lat="59.906957" lon="17.6514522">
        <ele>20.325</ele>
        <time>2013-05-25T16:11:13Z</time>
      </trkpt>
      <trkpt lat="59.906973" lon="17.6515341">
        <ele>20.8057</ele>
        <time>2013-05-25T16:11:14Z</time>
      </trkpt>
      <trkpt lat="59.9069923" lon="17.6516148">
        <ele>19.8444</ele>
        <time>2013-05-25T16:11:15Z</time>
      </trkpt>
      <trkpt lat="59.9070091" lon="17.6516966">
        <ele>19.3638</ele>
        <time>2013-05-25T16:11:16Z</time>
      </trkpt>
      <trkpt lat="59.907019" lon="17.6517789">
        <ele>20.8057</ele>
        <time>2013-05-25T16:11:17Z</time>
      </trkpt>
      <trkpt lat="59.9070346" lon="17.6518593">
        <ele>20.325</ele>
        <time>2013-05-25T16:11:18Z</time>
      </trkpt>
      <trkpt lat="59.9070468" lon="17.6519401">
        <ele>20.325</ele>
        <time>2013-05-25T16:11:19Z</time>
      </trkpt>
      <trkpt lat="59.9070568" lon="17.6520224">
        <ele>20.8057</ele>
        <time>2013-05-25T16:11:20Z</time>
      </trkpt>
      <trkpt lat="59.9070658" lon="17.6521074">
        <ele>20.8057</ele>
        <time>2013-05-25T16:11:21Z</time>
      </trkpt>
      <trkpt lat="59.9070746" lon="17.6521949">
        <ele>21.2864</ele>
        <time>2013-05-25T16:11:22Z</time>
      </trkpt>
      <trkpt lat="59.9070824" lon="17.6522863">
        <ele>21.767</ele>
        <time>2013-05-25T16:11:23Z</time>
      </trkpt>
      <trkpt lat="59.9070892" lon="17.6523855">
        <ele>21.767</ele>
        <time>2013-05-25T16:11:24Z</time>
      </trkpt>
      <trkpt lat="59.9070895" lon="17.6524759">
        <ele>23.209</ele>
        <time>2013-05-25T16:11:25Z</time>
      </trkpt>
      <trkpt lat="59.9070905" lon="17.6525659">
        <ele>24.1703</ele>
        <time>2013-05-25T16:11:26Z</time>
      </trkpt>
      <trkpt lat="59.9070907" lon="17.6526579">
        <ele>24.651</ele>
        <time>2013-05-25T16:11:27Z</time>
      </trkpt>
      <trkpt lat="59.9070917" lon="17.6527569">
        <ele>26.0929</ele>
        <time>2013-05-25T16:11:28Z</time>
      </trkpt>
      <trkpt lat="59.9070891" lon="17.6528513">
        <ele>27.0543</ele>
        <time>2013-05-25T16:11:29Z</time>
      </trkpt>
      <trkpt lat="59.9070855" lon="17.6529471">
        <ele>27.5349</ele>
        <time>2013-05-25T16:11:30Z</time>
      </trkpt>
      <trkpt lat="59.9070814" lon="17.6530424">
        <ele>28.0155</ele>
        <time>2013-05-25T16:11:31Z</time>
      </trkpt>
      <trkpt lat="59.9070793" lon="17.6531382">
        <ele>28.0155</ele>
        <time>2013-05-25T16:11:32Z</time>
      </trkpt>
      <trkpt lat="59.9070775" lon="17.6532367">
        <ele>28.0155</ele>
        <time>2013-05-25T16:11:33Z</time>
      </trkpt>
      <trkpt lat="59.9070741" lon="17.6533351">
        <ele>28.0155</ele>
        <time>2013-05-25T16:11:34Z</time>
      </trkpt>
      <trkpt lat="59.9070685" lon="17.6534352">
        <ele>28.4962</ele>
        <time>2013-05-25T16:11:35Z</time>
      </trkpt>
      <trkpt lat="59.9070632" lon="17.6535354">
        <ele>29.4575</ele>
        <time>2013-05-25T16:11:36Z</time>
      </trkpt>
      <trkpt lat="59.9070591" lon="17.6536319">
        <ele>29.4575</ele>
        <time>2013-05-25T16:11:37Z</time>
      </trkpt>
      <trkpt lat="59.9070549" lon="17.6537293">
        <ele>29.9381</ele>
        <time>2013-05-25T16:11:38Z</time>
      </trkpt>
      <trkpt lat="59.9070516" lon="17.6538273">
        <ele>29.9381</ele>
        <time>2013-05-25T16:11:39Z</time>
      </trkpt>
      <trkpt lat="59.9070471" lon="17.6539273">
        <ele>29.9381</ele>
        <time>2013-05-25T16:11:40Z</time>
      </trkpt>
      <trkpt lat="59.9070426" lon="17.6540291">
        <ele>30.4188</ele>
        <time>2013-05-25T16:11:41Z</time>
      </trkpt>
      <trkpt lat="59.9070397" lon="17.6541334">
        <ele>30.8995</ele>
        <time>2013-05-25T16:11:42Z</time>
      </trkpt>
      <trkpt lat="59.9070368" lon="17.6542399">
        <ele>30.8995</ele>
        <time>2013-05-25T16:11:43Z</time>
      </trkpt>
      <trkpt lat="59.9070341" lon="17.6543478">
        <ele>30.8995</ele>
        <time>2013-05-25T16:11:44Z</time>
      </trkpt>
      <trkpt lat="59.9070302" lon="17.6544565">
        <ele>30.8995</ele>
        <time>2013-05-25T16:11:45Z</time>
      </trkpt>
      <trkpt lat="59.907027" lon="17.6545669">
        <ele>30.8995</ele>
        <time>2013-05-25T16:11:46Z</time>
      </trkpt>
      <trkpt lat="59.9070249" lon="17.6546788">
        <ele>31.3801</ele>
        <time>2013-05-25T16:11:47Z</time>
      </trkpt>
      <trkpt lat="59.9070228" lon="17.6547913">
        <ele>31.3801</ele>
        <time>2013-05-25T16:11:48Z</time>
      </trkpt>
      <trkpt lat="59.9070202" lon="17.6549038">
        <ele>31.3801</ele>
        <time>2013-05-25T16:11:49Z</time>
      </trkpt>
      <trkpt lat="59.9070175" lon="17.6550169">
        <ele>31.8607</ele>
        <time>2013-05-25T16:11:50Z</time>
      </trkpt>
      <trkpt lat="59.9070155" lon="17.6551306">
        <ele>31.8607</ele>
        <time>2013-05-25T16:11:51Z</time>
      </trkpt>
      <trkpt lat="59.9070154" lon="17.6552455">
        <ele>31.8607</ele>
        <time>2013-05-25T16:11:52Z</time>
      </trkpt>
      <trkpt lat="59.9070169" lon="17.65536">
        <ele>32.3416</ele>
        <time>2013-05-25T16:11:53Z</time>
      </trkpt>
      <trkpt lat="59.9070182" lon="17.6554727">
        <ele>32.8223</ele>
        <time>2013-05-25T16:11:54Z</time>
      </trkpt>
      <trkpt lat="59.9070188" lon="17.6555826">
        <ele>32.8223</ele>
        <time>2013-05-25T16:11:55Z</time>
      </trkpt>
      <trkpt lat="59.9070195" lon="17.6556898">
        <ele>33.3029</ele>
        <time>2013-05-25T16:11:56Z</time>
      </trkpt>
      <trkpt lat="59.9070202" lon="17.6557939">
        <ele>33.3029</ele>
        <time>2013-05-25T16:11:57Z</time>
      </trkpt>
      <trkpt lat="59.9070223" lon="17.6558946">
        <ele>33.7834</ele>
        <time>2013-05-25T16:11:58Z</time>
      </trkpt>
      <trkpt lat="59.9070248" lon="17.6559921">
        <ele>34.2642</ele>
        <time>2013-05-25T16:11:59Z</time>
      </trkpt>
      <trkpt lat="59.9070275" lon="17.6560879">
        <ele>34.2642</ele>
        <time>2013-05-25T16:12:00Z</time>
      </trkpt>
      <trkpt lat="59.907031" lon="17.6561795">
        <ele>34.7449</ele>
        <time>2013-05-25T16:12:01Z</time>
      </trkpt>
      <trkpt lat="59.9070335" lon="17.6562694">
        <ele>35.2255</ele>
        <time>2013-05-25T16:12:02Z</time>
      </trkpt>
      <trkpt lat="59.9070353" lon="17.6563567">
        <ele>35.7061</ele>
        <time>2013-05-25T16:12:03Z</time>
      </trkpt>
      <trkpt lat="59.9070383" lon="17.6564432">
        <ele>35.7061</ele>
        <time>2013-05-25T16:12:04Z</time>
      </trkpt>
      <trkpt lat="59.9070419" lon="17.6565297">
        <ele>36.1868</ele>
        <time>2013-05-25T16:12:05Z</time>
      </trkpt>
      <trkpt lat="59.9070454" lon="17.6566165">
        <ele>36.6675</ele>
        <time>2013-05-25T16:12:06Z</time>
      </trkpt>
      <trkpt lat="59.9070498" lon="17.6567039">
        <ele>36.6675</ele>
        <time>2013-05-25T16:12:07Z</time>
      </trkpt>
      <trkpt lat="59.9070565" lon="17.6567912">
        <ele>36.6675</ele>
        <time>2013-05-25T16:12:08Z</time>
      </trkpt>
      <trkpt lat="59.9070653" lon="17.6568812">
        <ele>37.1481</ele>
        <time>2013-05-25T16:12:09Z</time>
      </trkpt>
      <trkpt lat="59.907075" lon="17.6569747">
        <ele>37.1481</ele>
        <time>2013-05-25T16:12:10Z</time>
      </trkpt>
      <trkpt lat="59.9070853" lon="17.657071">
        <ele>37.6287</ele>
        <time>2013-05-25T16:12:11Z</time>
      </trkpt>
      <trkpt lat="59.9070982" lon="17.6571703">
        <ele>37.6287</ele>
        <time>2013-05-25T16:12:12Z</time>
      </trkpt>
      <trkpt lat="59.907113" lon="17.6572711">
        <ele>38.1094</ele>
        <time>2013-05-25T16:12:13Z</time>
      </trkpt>
      <trkpt lat="59.9071299" lon="17.6573735">
        <ele>38.5901</ele>
        <time>2013-05-25T16:12:14Z</time>
      </trkpt>
      <trkpt lat="59.9071477" lon="17.6574802">
        <ele>39.0707</ele>
        <time>2013-05-25T16:12:15Z</time>
      </trkpt>
      <trkpt lat="59.9071663" lon="17.6575911">
        <ele>39.0707</ele>
        <time>2013-05-25T16:12:16Z</time>
      </trkpt>
      <trkpt lat="59.9071861" lon="17.6577033">
        <ele>39.0707</ele>
        <time>2013-05-25T16:12:17Z</time>
      </trkpt>
      <trkpt lat="59.9072055" lon="17.6578164">
        <ele>39.0707</ele>
        <time>2013-05-25T16:12:18Z</time>
      </trkpt>
      <trkpt lat="59.9072242" lon="17.6579292">
        <ele>39.5513</ele>
        <time>2013-05-25T16:12:19Z</time>
      </trkpt>
      <trkpt lat="59.9072404" lon="17.6580393">
        <ele>40.0321</ele>
        <time>2013-05-25T16:12:20Z</time>
      </trkpt>
      <trkpt lat="59.9072576" lon="17.6581511">
        <ele>40.5128</ele>
        <time>2013-05-25T16:12:21Z</time>
      </trkpt>
      <trkpt lat="59.9072757" lon="17.6582646">
        <ele>40.5128</ele>
        <time>2013-05-25T16:12:22Z</time>
      </trkpt>
      <trkpt lat="59.9072911" lon="17.6583783">
        <ele>40.0321</ele>
        <time>2013-05-25T16:12:23Z</time>
      </trkpt>
      <trkpt lat="59.9073057" lon="17.6584917">
        <ele>39.5513</ele>
        <time>2013-05-25T16:12:24Z</time>
      </trkpt>
      <trkpt lat="59.9073194" lon="17.6586021">
        <ele>39.5513</ele>
        <time>2013-05-25T16:12:25Z</time>
      </trkpt>
      <trkpt lat="59.9073317" lon="17.6587098">
        <ele>40.0321</ele>
        <time>2013-05-25T16:12:26Z</time>
      </trkpt>
      <trkpt lat="59.9073422" lon="17.6588152">
        <ele>40.5128</ele>
        <time>2013-05-25T16:12:27Z</time>
      </trkpt>
      <trkpt lat="59.9073563" lon="17.6589212">
        <ele>40.0321</ele>
        <time>2013-05-25T16:12:28Z</time>
      </trkpt>
      <trkpt lat="59.9073658" lon="17.6590232">
        <ele>40.9934</ele>
        <time>2013-05-25T16:12:29Z</time>
      </trkpt>
      <trkpt lat="59.9073774" lon="17.6591296">
        <ele>40.9934</ele>
        <time>2013-05-25T16:12:30Z</time>
      </trkpt>
      <trkpt lat="59.9073855" lon="17.6592441">
        <ele>41.9547</ele>
        <time>2013-05-25T16:12:31Z</time>
      </trkpt>
      <trkpt lat="59.9073927" lon="17.6593601">
        <ele>42.916</ele>
        <time>2013-05-25T16:12:32Z</time>
      </trkpt>
      <trkpt lat="59.9073993" lon="17.6594772">
        <ele>43.3966</ele>
        <time>2013-05-25T16:12:33Z</time>
      </trkpt>
      <trkpt lat="59.9074067" lon="17.6595906">
        <ele>44.358</ele>
        <time>2013-05-25T16:12:34Z</time>
      </trkpt>
      <trkpt lat="59.9073942" lon="17.6597123">
        <ele>45.3192</ele>
        <time>2013-05-25T16:12:35Z</time>
      </trkpt>
      <trkpt lat="59.9074054" lon="17.6598261">
        <ele>45.7999</ele>
        <time>2013-05-25T16:12:36Z</time>
      </trkpt>
      <trkpt lat="59.9074358" lon="17.659946">
        <ele>45.3192</ele>
        <time>2013-05-25T16:12:37Z</time>
      </trkpt>
      <trkpt lat="59.9074569" lon="17.6600716">
        <ele>44.8386</ele>
        <time>2013-05-25T16:12:38Z</time>
      </trkpt>
      <trkpt lat="59.9074739" lon="17.6601949">
        <ele>45.3192</ele>
        <time>2013-05-25T16:12:39Z</time>
      </trkpt>
      <trkpt lat="59.9075004" lon="17.6603144">
        <ele>43.8773</ele>
        <time>2013-05-25T16:12:40Z</time>
      </trkpt>
      <trkpt lat="59.907521" lon="17.6604288">
        <ele>42.916</ele>
        <time>2013-05-25T16:12:41Z</time>
      </trkpt>
      <trkpt lat="59.907538" lon="17.6605369">
        <ele>42.4354</ele>
        <time>2013-05-25T16:12:42Z</time>
      </trkpt>
      <trkpt lat="59.9075604" lon="17.6606472">
        <ele>40.5128</ele>
        <time>2013-05-25T16:12:43Z</time>
      </trkpt>
      <trkpt lat="59.9075864" lon="17.6607546">
        <ele>38.5901</ele>
        <time>2013-05-25T16:12:44Z</time>
      </trkpt>
      <trkpt lat="59.9076081" lon="17.6608571">
        <ele>36.6675</ele>
        <time>2013-05-25T16:12:45Z</time>
      </trkpt>
      <trkpt lat="59.907632" lon="17.6609494">
        <ele>35.2255</ele>
        <time>2013-05-25T16:12:46Z</time>
      </trkpt>
      <trkpt lat="59.9076522" lon="17.6610436">
        <ele>33.3029</ele>
        <time>2013-05-25T16:12:47Z</time>
      </trkpt>
      <trkpt lat="59.9076687" lon="17.66114">
        <ele>32.3416</ele>
        <time>2013-05-25T16:12:48Z</time>
      </trkpt>
      <trkpt lat="59.9076821" lon="17.6612375">
        <ele>30.4188</ele>
        <time>2013-05-25T16:12:49Z</time>
      </trkpt>
      <trkpt lat="59.9076893" lon="17.661342">
        <ele>29.4575</ele>
        <time>2013-05-25T16:12:50Z</time>
      </trkpt>
      <trkpt lat="59.9076911" lon="17.6614694">
        <ele>31.3801</ele>
        <time>2013-05-25T16:12:51Z</time>
      </trkpt>
      <trkpt lat="59.9076937" lon="17.6615827">
        <ele>32.3416</ele>
        <time>2013-05-25T16:12:52Z</time>
      </trkpt>
      <trkpt lat="59.9076992" lon="17.6616985">
        <ele>32.3416</ele>
        <time>2013-05-25T16:12:53Z</time>
      </trkpt>
      <trkpt lat="59.9076708" lon="17.661857">
        <ele>34.2642</ele>
        <time>2013-05-25T16:12:54Z</time>
      </trkpt>
      <trkpt lat="59.9076575" lon="17.6619986">
        <ele>36.1868</ele>
        <time>2013-05-25T16:12:55Z</time>
      </trkpt>
      <trkpt lat="59.9076547" lon="17.6621336">
        <ele>38.1094</ele>
        <time>2013-05-25T16:12:56Z</time>
      </trkpt>
      <trkpt lat="59.9076522" lon="17.6622688">
        <ele>40.0321</ele>
        <time>2013-05-25T16:12:57Z</time>
      </trkpt>
      <trkpt lat="59.9076699" lon="17.6624014">
        <ele>40.5128</ele>
        <time>2013-05-25T16:12:58Z</time>
      </trkpt>
      <trkpt lat="59.9076864" lon="17.6625293">
        <ele>40.9934</ele>
        <time>2013-05-25T16:12:59Z</time>
      </trkpt>
      <trkpt lat="59.907714" lon="17.6626557">
        <ele>40.9934</ele>
        <time>2013-05-25T16:13:00Z</time>
      </trkpt>
      <trkpt lat="59.9077388" lon="17.662781">
        <ele>42.4354</ele>
        <time>2013-05-25T16:13:01Z</time>
      </trkpt>
      <trkpt lat="59.9077556" lon="17.6629142">
        <ele>42.916</ele>
        <time>2013-05-25T16:13:02Z</time>
      </trkpt>
      <trkpt lat="59.9077791" lon="17.6630405">
        <ele>43.3966</ele>
        <time>2013-05-25T16:13:03Z</time>
      </trkpt>
      <trkpt lat="59.9078095" lon="17.6631663">
        <ele>43.3966</ele>
        <time>2013-05-25T16:13:04Z</time>
      </trkpt>
      <trkpt lat="59.9078385" lon="17.6632882">
        <ele>42.916</ele>
        <time>2013-05-25T16:13:05Z</time>
      </trkpt>
      <trkpt lat="59.9078557" lon="17.6634133">
        <ele>42.916</ele>
        <time>2013-05-25T16:13:06Z</time>
      </trkpt>
      <trkpt lat="59.9078606" lon="17.6635289">
        <ele>44.358</ele>
        <time>2013-05-25T16:13:07Z</time>
      </trkpt>
      <trkpt lat="59.9078718" lon="17.6636381">
        <ele>44.8386</ele>
        <time>2013-05-25T16:13:08Z</time>
      </trkpt>
      <trkpt lat="59.9078918" lon="17.6637467">
        <ele>44.358</ele>
        <time>2013-05-25T16:13:09Z</time>
      </trkpt>
      <trkpt lat="59.9079064" lon="17.6638578">
        <ele>44.358</ele>
        <time>2013-05-25T16:13:10Z</time>
      </trkpt>
      <trkpt lat="59.9079168" lon="17.6639809">
        <ele>44.358</ele>
        <time>2013-05-25T16:13:11Z</time>
      </trkpt>
      <trkpt lat="59.9079239" lon="17.6640909">
        <ele>44.358</ele>
        <time>2013-05-25T16:13:12Z</time>
      </trkpt>
      <trkpt lat="59.9079273" lon="17.6642045">
        <ele>45.3192</ele>
        <time>2013-05-25T16:13:13Z</time>
      </trkpt>
      <trkpt lat="59.9079349" lon="17.6643207">
        <ele>46.2806</ele>
        <time>2013-05-25T16:13:14Z</time>
      </trkpt>
      <trkpt lat="59.9079428" lon="17.6644377">
        <ele>47.2418</ele>
        <time>2013-05-25T16:13:15Z</time>
      </trkpt>
      <trkpt lat="59.9079495" lon="17.6645489">
        <ele>47.7225</ele>
        <time>2013-05-25T16:13:16Z</time>
      </trkpt>
      <trkpt lat="59.9079526" lon="17.6646478">
        <ele>49.1646</ele>
        <time>2013-05-25T16:13:17Z</time>
      </trkpt>
      <trkpt lat="59.9079498" lon="17.6647427">
        <ele>49.1646</ele>
        <time>2013-05-25T16:13:18Z</time>
      </trkpt>
      <trkpt lat="59.9079413" lon="17.6648334">
        <ele>48.684</ele>
        <time>2013-05-25T16:13:19Z</time>
      </trkpt>
      <trkpt lat="59.9079335" lon="17.6649205">
        <ele>47.2418</ele>
        <time>2013-05-25T16:13:20Z</time>
      </trkpt>
      <trkpt lat="59.907921" lon="17.6650231">
        <ele>45.3192</ele>
        <time>2013-05-25T16:13:21Z</time>
      </trkpt>
      <trkpt lat="59.9078967" lon="17.6651406">
        <ele>43.8773</ele>
        <time>2013-05-25T16:13:22Z</time>
      </trkpt>
      <trkpt lat="59.9078806" lon="17.6652804">
        <ele>41.9547</ele>
        <time>2013-05-25T16:13:23Z</time>
      </trkpt>
      <trkpt lat="59.9078652" lon="17.6654053">
        <ele>40.5128</ele>
        <time>2013-05-25T16:13:24Z</time>
      </trkpt>
      <trkpt lat="59.9078516" lon="17.6655155">
        <ele>39.5513</ele>
        <time>2013-05-25T16:13:25Z</time>
      </trkpt>
      <trkpt lat="59.9078346" lon="17.6656312">
        <ele>38.1094</ele>
        <time>2013-05-25T16:13:26Z</time>
      </trkpt>
      <trkpt lat="59.907817" lon="17.6657482">
        <ele>36.6675</ele>
        <time>2013-05-25T16:13:27Z</time>
      </trkpt>
      <trkpt lat="59.9077872" lon="17.6658565">
        <ele>34.2642</ele>
        <time>2013-05-25T16:13:28Z</time>
      </trkpt>
      <trkpt lat="59.9077589" lon="17.6659746">
        <ele>31.8607</ele>
        <time>2013-05-25T16:13:29Z</time>
      </trkpt>
      <trkpt lat="59.9077309" lon="17.6660968">
        <ele>29.9381</ele>
        <time>2013-05-25T16:13:30Z</time>
      </trkpt>
      <trkpt lat="59.9077098" lon="17.6662435">
        <ele>28.0155</ele>
        <time>2013-05-25T16:13:31Z</time>
      </trkpt>
      <trkpt lat="59.9076851" lon="17.6663807">
        <ele>26.5736</ele>
        <time>2013-05-25T16:13:32Z</time>
      </trkpt>
      <trkpt lat="59.9076622" lon="17.6665069">
        <ele>24.1703</ele>
        <time>2013-05-25T16:13:33Z</time>
      </trkpt>
      <trkpt lat="59.9076501" lon="17.6666313">
        <ele>24.1703</ele>
        <time>2013-05-25T16:13:34Z</time>
      </trkpt>
      <trkpt lat="59.9076427" lon="17.6667708">
        <ele>25.1317</ele>
        <time>2013-05-25T16:13:35Z</time>
      </trkpt>
      <trkpt lat="59.9076372" lon="17.6669204">
        <ele>24.651</ele>
        <time>2013-05-25T16:13:36Z</time>
      </trkpt>
      <trkpt lat="59.9076269" lon="17.6670603">
        <ele>23.209</ele>
        <time>2013-05-25T16:13:37Z</time>
      </trkpt>
      <trkpt lat="59.9076455" lon="17.667239">
        <ele>22.7283</ele>
        <time>2013-05-25T16:13:38Z</time>
      </trkpt>
      <trkpt lat="59.907638" lon="17.6673897">
        <ele>22.2476</ele>
        <time>2013-05-25T16:13:39Z</time>
      </trkpt>
      <trkpt lat="59.9076245" lon="17.6675281">
        <ele>21.767</ele>
        <time>2013-05-25T16:13:40Z</time>
      </trkpt>
      <trkpt lat="59.9076047" lon="17.6676629">
        <ele>20.8057</ele>
        <time>2013-05-25T16:13:41Z</time>
      </trkpt>
      <trkpt lat="59.9075915" lon="17.6678172">
        <ele>21.2864</ele>
        <time>2013-05-25T16:13:42Z</time>
      </trkpt>
      <trkpt lat="59.9075697" lon="17.6679549">
        <ele>20.8057</ele>
        <time>2013-05-25T16:13:43Z</time>
      </trkpt>
      <trkpt lat="59.9075355" lon="17.6680724">
        <ele>21.2864</ele>
        <time>2013-05-25T16:13:44Z</time>
      </trkpt>
      <trkpt lat="59.9074904" lon="17.6681595">
        <ele>21.767</ele>
        <time>2013-05-25T16:13:45Z</time>
      </trkpt>
      <trkpt lat="59.9074253" lon="17.6682187">
        <ele>22.7283</ele>
        <time>2013-05-25T16:13:46Z</time>
      </trkpt>
      <trkpt lat="59.9073554" lon="17.6682547">
        <ele>22.7283</ele>
        <time>2013-05-25T16:13:47Z</time>
      </trkpt>
      <trkpt lat="59.907287" lon="17.6682819">
        <ele>22.7283</ele>
        <time>2013-05-25T16:13:48Z</time>
      </trkpt>
      <trkpt lat="59.9072171" lon="17.668303">
        <ele>23.209</ele>
        <time>2013-05-25T16:13:49Z</time>
      </trkpt>
      <trkpt lat="59.9071449" lon="17.6683222">
        <ele>23.209</ele>
        <time>2013-05-25T16:13:50Z</time>
      </trkpt>
      <trkpt lat="59.9070736" lon="17.6683446">
        <ele>23.6896</ele>
        <time>2013-05-25T16:13:51Z</time>
      </trkpt>
      <trkpt lat="59.9070032" lon="17.6683636">
        <ele>23.209</ele>
        <time>2013-05-25T16:13:52Z</time>
      </trkpt>
      <trkpt lat="59.9069364" lon="17.6683786">
        <ele>23.6896</ele>
        <time>2013-05-25T16:13:53Z</time>
      </trkpt>
      <trkpt lat="59.9068788" lon="17.6683924">
        <ele>24.1703</ele>
        <time>2013-05-25T16:13:54Z</time>
      </trkpt>
      <trkpt lat="59.9068214" lon="17.6684">
        <ele>23.209</ele>
        <time>2013-05-25T16:13:55Z</time>
      </trkpt>
      <trkpt lat="59.9067646" lon="17.6684249">
        <ele>23.209</ele>
        <time>2013-05-25T16:13:56Z</time>
      </trkpt>
      <trkpt lat="59.9067042" lon="17.6684503">
        <ele>23.6896</ele>
        <time>2013-05-25T16:13:57Z</time>
      </trkpt>
      <trkpt lat="59.9066426" lon="17.6684652">
        <ele>23.209</ele>
        <time>2013-05-25T16:13:58Z</time>
      </trkpt>
      <trkpt lat="59.90658" lon="17.6684769">
        <ele>23.6896</ele>
        <time>2013-05-25T16:13:59Z</time>
      </trkpt>
      <trkpt lat="59.9065182" lon="17.6684843">
        <ele>23.209</ele>
        <time>2013-05-25T16:14:00Z</time>
      </trkpt>
      <trkpt lat="59.9064551" lon="17.6684899">
        <ele>23.209</ele>
        <time>2013-05-25T16:14:01Z</time>
      </trkpt>
      <trkpt lat="59.9063914" lon="17.668492">
        <ele>23.209</ele>
        <time>2013-05-25T16:14:02Z</time>
      </trkpt>
      <trkpt lat="59.9063266" lon="17.6684901">
        <ele>23.6896</ele>
        <time>2013-05-25T16:14:03Z</time>
      </trkpt>
      <trkpt lat="59.9062612" lon="17.6684782">
        <ele>23.6896</ele>
        <time>2013-05-25T16:14:04Z</time>
      </trkpt>
      <trkpt lat="59.9061955" lon="17.668457">
        <ele>23.6896</ele>
        <time>2013-05-25T16:14:05Z</time>
      </trkpt>
      <trkpt lat="59.9061293" lon="17.6684335">
        <ele>23.6896</ele>
        <time>2013-05-25T16:14:06Z</time>
      </trkpt>
      <trkpt lat="59.9060618" lon="17.6684109">
        <ele>23.6896</ele>
        <time>2013-05-25T16:14:07Z</time>
      </trkpt>
      <trkpt lat="59.9059929" lon="17.6683864">
        <ele>23.6896</ele>
        <time>2013-05-25T16:14:08Z</time>
      </trkpt>
      <trkpt lat="59.9059216" lon="17.6683584">
        <ele>23.6896</ele>
        <time>2013-05-25T16:14:09Z</time>
      </trkpt>
      <trkpt lat="59.9058499" lon="17.6683309">
        <ele>23.6896</ele>
        <time>2013-05-25T16:14:10Z</time>
      </trkpt>
      <trkpt lat="59.9057776" lon="17.6683025">
        <ele>23.6896</ele>
        <time>2013-05-25T16:14:11Z</time>
      </trkpt>
      <trkpt lat="59.9057045" lon="17.6682725">
        <ele>23.6896</ele>
        <time>2013-05-25T16:14:12Z</time>
      </trkpt>
      <trkpt lat="59.9056302" lon="17.6682389">
        <ele>24.1703</ele>
        <time>2013-05-25T16:14:13Z</time>
      </trkpt>
      <trkpt lat="59.9055553" lon="17.668206">
        <ele>24.1703</ele>
        <time>2013-05-25T16:14:14Z</time>
      </trkpt>
      <trkpt lat="59.9054802" lon="17.6681726">
        <ele>24.651</ele>
        <time>2013-05-25T16:14:15Z</time>
      </trkpt>
      <trkpt lat="59.9054059" lon="17.6681368">
        <ele>25.1317</ele>
        <time>2013-05-25T16:14:16Z</time>
      </trkpt>
      <trkpt lat="59.905336" lon="17.6681005">
        <ele>26.5736</ele>
        <time>2013-05-25T16:14:17Z</time>
      </trkpt>
      <trkpt lat="59.9052676" lon="17.6680663">
        <ele>27.5349</ele>
        <time>2013-05-25T16:14:18Z</time>
      </trkpt>
      <trkpt lat="59.9052024" lon="17.6680315">
        <ele>28.4962</ele>
        <time>2013-05-25T16:14:19Z</time>
      </trkpt>
      <trkpt lat="59.9051393" lon="17.6680005">
        <ele>29.4575</ele>
        <time>2013-05-25T16:14:20Z</time>
      </trkpt>
      <trkpt lat="59.9050762" lon="17.6679668">
        <ele>29.9381</ele>
        <time>2013-05-25T16:14:21Z</time>
      </trkpt>
      <trkpt lat="59.9050138" lon="17.6679304">
        <ele>30.4188</ele>
        <time>2013-05-25T16:14:22Z</time>
      </trkpt>
      <trkpt lat="59.904947" lon="17.6678969">
        <ele>31.3801</ele>
        <time>2013-05-25T16:14:23Z</time>
      </trkpt>
      <trkpt lat="59.9048804" lon="17.6678599">
        <ele>31.8607</ele>
        <time>2013-05-25T16:14:24Z</time>
      </trkpt>
      <trkpt lat="59.9048156" lon="17.6678319">
        <ele>32.8223</ele>
        <time>2013-05-25T16:14:25Z</time>
      </trkpt>
      <trkpt lat="59.904754" lon="17.667824">
        <ele>33.3029</ele>
        <time>2013-05-25T16:14:26Z</time>
      </trkpt>
      <trkpt lat="59.9047009" lon="17.6678296">
        <ele>34.2642</ele>
        <time>2013-05-25T16:14:27Z</time>
      </trkpt>
      <trkpt lat="59.9046446" lon="17.6678399">
        <ele>34.7449</ele>
        <time>2013-05-25T16:14:28Z</time>
      </trkpt>
      <trkpt lat="59.9045871" lon="17.6678472">
        <ele>35.2255</ele>
        <time>2013-05-25T16:14:29Z</time>
      </trkpt>
      <trkpt lat="59.9045312" lon="17.667857">
        <ele>35.2255</ele>
        <time>2013-05-25T16:14:30Z</time>
      </trkpt>
      <trkpt lat="59.9044722" lon="17.6678701">
        <ele>35.7061</ele>
        <time>2013-05-25T16:14:31Z</time>
      </trkpt>
      <trkpt lat="59.9044162" lon="17.6678828">
        <ele>36.1868</ele>
        <time>2013-05-25T16:14:32Z</time>
      </trkpt>
      <trkpt lat="59.9043606" lon="17.6678948">
        <ele>37.1481</ele>
        <time>2013-05-25T16:14:33Z</time>
      </trkpt>
      <trkpt lat="59.9043016" lon="17.6679094">
        <ele>37.6287</ele>
        <time>2013-05-25T16:14:34Z</time>
      </trkpt>
      <trkpt lat="59.904243" lon="17.6679301">
        <ele>38.5901</ele>
        <time>2013-05-25T16:14:35Z</time>
      </trkpt>
      <trkpt lat="59.9041944" lon="17.6679482">
        <ele>38.5901</ele>
        <time>2013-05-25T16:14:36Z</time>
      </trkpt>
      <trkpt lat="59.9041514" lon="17.6679754">
        <ele>39.0707</ele>
        <time>2013-05-25T16:14:37Z</time>
      </trkpt>
      <trkpt lat="59.9041036" lon="17.6680227">
        <ele>40.5128</ele>
        <time>2013-05-25T16:14:38Z</time>
      </trkpt>
      <trkpt lat="59.9040488" lon="17.6680882">
        <ele>41.474</ele>
        <time>2013-05-25T16:14:39Z</time>
      </trkpt>
      <trkpt lat="59.9039975" lon="17.6681543">
        <ele>40.9934</ele>
        <time>2013-05-25T16:14:40Z</time>
      </trkpt>
      <trkpt lat="59.903935" lon="17.6682814">
        <ele>40.9934</ele>
        <time>2013-05-25T16:14:41Z</time>
      </trkpt>
      <trkpt lat="59.9038666" lon="17.668401">
        <ele>40.5128</ele>
        <time>2013-05-25T16:14:42Z</time>
      </trkpt>
      <trkpt lat="59.9038122" lon="17.6685064">
        <ele>40.0321</ele>
        <time>2013-05-25T16:14:43Z</time>
      </trkpt>
      <trkpt lat="59.9037579" lon="17.6686132">
        <ele>39.0707</ele>
        <time>2013-05-25T16:14:44Z</time>
      </trkpt>
      <trkpt lat="59.9037012" lon="17.6687264">
        <ele>38.5901</ele>
        <time>2013-05-25T16:14:45Z</time>
      </trkpt>
      <trkpt lat="59.903659" lon="17.6688526">
        <ele>39.0707</ele>
        <time>2013-05-25T16:14:46Z</time>
      </trkpt>
      <trkpt lat="59.903608" lon="17.6689885">
        <ele>39.0707</ele>
        <time>2013-05-25T16:14:47Z</time>
      </trkpt>
      <trkpt lat="59.9035698" lon="17.6691152">
        <ele>38.5901</ele>
        <time>2013-05-25T16:14:48Z</time>
      </trkpt>
      <trkpt lat="59.9035314" lon="17.6692342">
        <ele>38.1094</ele>
        <time>2013-05-25T16:14:49Z</time>
      </trkpt>
      <trkpt lat="59.9034899" lon="17.6693411">
        <ele>37.6287</ele>
        <time>2013-05-25T16:14:50Z</time>
      </trkpt>
      <trkpt lat="59.9034538" lon="17.6694458">
        <ele>37.1481</ele>
        <time>2013-05-25T16:14:51Z</time>
      </trkpt>
      <trkpt lat="59.903422" lon="17.6695526">
        <ele>37.1481</ele>
        <time>2013-05-25T16:14:52Z</time>
      </trkpt>
      <trkpt lat="59.9033801" lon="17.66967">
        <ele>35.7061</ele>
        <time>2013-05-25T16:14:53Z</time>
      </trkpt>
      <trkpt lat="59.9033351" lon="17.6697791">
        <ele>34.2642</ele>
        <time>2013-05-25T16:14:54Z</time>
      </trkpt>
      <trkpt lat="59.9032868" lon="17.6698756">
        <ele>33.7834</ele>
        <time>2013-05-25T16:14:55Z</time>
      </trkpt>
      <trkpt lat="59.9032274" lon="17.6699508">
        <ele>34.2642</ele>
        <time>2013-05-25T16:14:56Z</time>
      </trkpt>
      <trkpt lat="59.9031515" lon="17.6699535">
        <ele>34.7449</ele>
        <time>2013-05-25T16:14:57Z</time>
      </trkpt>
      <trkpt lat="59.9030843" lon="17.6699192">
        <ele>34.7449</ele>
        <time>2013-05-25T16:14:58Z</time>
      </trkpt>
      <trkpt lat="59.9030295" lon="17.6698799">
        <ele>35.2255</ele>
        <time>2013-05-25T16:14:59Z</time>
      </trkpt>
      <trkpt lat="59.9029728" lon="17.6698475">
        <ele>35.2255</ele>
        <time>2013-05-25T16:15:00Z</time>
      </trkpt>
      <trkpt lat="59.9029195" lon="17.6698177">
        <ele>35.7061</ele>
        <time>2013-05-25T16:15:01Z</time>
      </trkpt>
      <trkpt lat="59.9028651" lon="17.6698178">
        <ele>35.7061</ele>
        <time>2013-05-25T16:15:02Z</time>
      </trkpt>
      <trkpt lat="59.9028098" lon="17.6698069">
        <ele>35.2255</ele>
        <time>2013-05-25T16:15:03Z</time>
      </trkpt>
      <trkpt lat="59.9027464" lon="17.6698156">
        <ele>36.1868</ele>
        <time>2013-05-25T16:15:04Z</time>
      </trkpt>
      <trkpt lat="59.9026893" lon="17.6698273">
        <ele>36.6675</ele>
        <time>2013-05-25T16:15:05Z</time>
      </trkpt>
      <trkpt lat="59.9026245" lon="17.6698807">
        <ele>36.6675</ele>
        <time>2013-05-25T16:15:06Z</time>
      </trkpt>
      <trkpt lat="59.9025534" lon="17.6699072">
        <ele>36.1868</ele>
        <time>2013-05-25T16:15:07Z</time>
      </trkpt>
      <trkpt lat="59.9024854" lon="17.6699374">
        <ele>36.1868</ele>
        <time>2013-05-25T16:15:08Z</time>
      </trkpt>
      <trkpt lat="59.9024094" lon="17.6699594">
        <ele>36.1868</ele>
        <time>2013-05-25T16:15:09Z</time>
      </trkpt>
      <trkpt lat="59.9023378" lon="17.6699579">
        <ele>36.6675</ele>
        <time>2013-05-25T16:15:10Z</time>
      </trkpt>
      <trkpt lat="59.9022644" lon="17.6699384">
        <ele>37.1481</ele>
        <time>2013-05-25T16:15:11Z</time>
      </trkpt>
      <trkpt lat="59.9021934" lon="17.6699047">
        <ele>37.1481</ele>
        <time>2013-05-25T16:15:12Z</time>
      </trkpt>
      <trkpt lat="59.9021219" lon="17.6698674">
        <ele>37.1481</ele>
        <time>2013-05-25T16:15:13Z</time>
      </trkpt>
      <trkpt lat="59.9020552" lon="17.6698193">
        <ele>37.1481</ele>
        <time>2013-05-25T16:15:14Z</time>
      </trkpt>
      <trkpt lat="59.9019915" lon="17.6697663">
        <ele>37.1481</ele>
        <time>2013-05-25T16:15:15Z</time>
      </trkpt>
      <trkpt lat="59.9019267" lon="17.6697191">
        <ele>37.1481</ele>
        <time>2013-05-25T16:15:16Z</time>
      </trkpt>
      <trkpt lat="59.9018592" lon="17.669668">
        <ele>37.1481</ele>
        <time>2013-05-25T16:15:17Z</time>
      </trkpt>
      <trkpt lat="59.9017923" lon="17.6696375">
        <ele>37.6287</ele>
        <time>2013-05-25T16:15:18Z</time>
      </trkpt>
      <trkpt lat="59.9017288" lon="17.6696056">
        <ele>37.6287</ele>
        <time>2013-05-25T16:15:19Z</time>
      </trkpt>
      <trkpt lat="59.9016662" lon="17.6695752">
        <ele>37.6287</ele>
        <time>2013-05-25T16:15:20Z</time>
      </trkpt>
      <trkpt lat="59.9016023" lon="17.6695601">
        <ele>38.1094</ele>
        <time>2013-05-25T16:15:21Z</time>
      </trkpt>
      <trkpt lat="59.9015256" lon="17.6695561">
        <ele>38.5901</ele>
        <time>2013-05-25T16:15:22Z</time>
      </trkpt>
      <trkpt lat="59.9014516" lon="17.6695551">
        <ele>38.5901</ele>
        <time>2013-05-25T16:15:23Z</time>
      </trkpt>
      <trkpt lat="59.9013747" lon="17.6695649">
        <ele>38.5901</ele>
        <time>2013-05-25T16:15:24Z</time>
      </trkpt>
      <trkpt lat="59.9012971" lon="17.6695829">
        <ele>39.0707</ele>
        <time>2013-05-25T16:15:25Z</time>
      </trkpt>
      <trkpt lat="59.9012232" lon="17.6695973">
        <ele>38.5901</ele>
        <time>2013-05-25T16:15:26Z</time>
      </trkpt>
      <trkpt lat="59.9011499" lon="17.6696217">
        <ele>40.0321</ele>
        <time>2013-05-25T16:15:27Z</time>
      </trkpt>
      <trkpt lat="59.9010811" lon="17.6696302">
        <ele>40.0321</ele>
        <time>2013-05-25T16:15:28Z</time>
      </trkpt>
      <trkpt lat="59.9010175" lon="17.6696349">
        <ele>40.9934</ele>
        <time>2013-05-25T16:15:29Z</time>
      </trkpt>
      <trkpt lat="59.9009589" lon="17.6696342">
        <ele>41.474</ele>
        <time>2013-05-25T16:15:30Z</time>
      </trkpt>
      <trkpt lat="59.9009009" lon="17.6696577">
        <ele>42.4354</ele>
        <time>2013-05-25T16:15:31Z</time>
      </trkpt>
      <trkpt lat="59.9008369" lon="17.6696897">
        <ele>44.358</ele>
        <time>2013-05-25T16:15:32Z</time>
      </trkpt>
      <trkpt lat="59.9007711" lon="17.6697121">
        <ele>45.3192</ele>
        <time>2013-05-25T16:15:33Z</time>
      </trkpt>
      <trkpt lat="59.9006972" lon="17.6696701">
        <ele>42.4354</ele>
        <time>2013-05-25T16:15:34Z</time>
      </trkpt>
      <trkpt lat="59.9006145" lon="17.6696769">
        <ele>40.9934</ele>
        <time>2013-05-25T16:15:35Z</time>
      </trkpt>
      <trkpt lat="59.9005289" lon="17.6697275">
        <ele>40.5128</ele>
        <time>2013-05-25T16:15:36Z</time>
      </trkpt>
      <trkpt lat="59.9004379" lon="17.6697668">
        <ele>40.5128</ele>
        <time>2013-05-25T16:15:37Z</time>
      </trkpt>
      <trkpt lat="59.9003558" lon="17.6697927">
        <ele>39.5513</ele>
        <time>2013-05-25T16:15:38Z</time>
      </trkpt>
      <trkpt lat="59.9002783" lon="17.6698186">
        <ele>39.5513</ele>
        <time>2013-05-25T16:15:39Z</time>
      </trkpt>
      <trkpt lat="59.9001934" lon="17.6698866">
        <ele>40.0321</ele>
        <time>2013-05-25T16:15:40Z</time>
      </trkpt>
      <trkpt lat="59.9001149" lon="17.6699372">
        <ele>40.5128</ele>
        <time>2013-05-25T16:15:41Z</time>
      </trkpt>
      <trkpt lat="59.9000355" lon="17.6699555">
        <ele>41.9547</ele>
        <time>2013-05-25T16:15:42Z</time>
      </trkpt>
      <trkpt lat="59.89998" lon="17.6699739">
        <ele>40.9934</ele>
        <time>2013-05-25T16:15:43Z</time>
      </trkpt>
      <trkpt lat="59.8999197" lon="17.6700091">
        <ele>41.474</ele>
        <time>2013-05-25T16:15:44Z</time>
      </trkpt>
      <trkpt lat="59.8998493" lon="17.6700529">
        <ele>41.474</ele>
        <time>2013-05-25T16:15:45Z</time>
      </trkpt>
      <trkpt lat="59.8997831" lon="17.6700863">
        <ele>41.474</ele>
        <time>2013-05-25T16:15:46Z</time>
      </trkpt>
      <trkpt lat="59.8997126" lon="17.6701226">
        <ele>41.474</ele>
        <time>2013-05-25T16:15:47Z</time>
      </trkpt>
      <trkpt lat="59.8996439" lon="17.6701534">
        <ele>41.474</ele>
        <time>2013-05-25T16:15:48Z</time>
      </trkpt>
      <trkpt lat="59.8995785" lon="17.6701849">
        <ele>40.9934</ele>
        <time>2013-05-25T16:15:49Z</time>
      </trkpt>
      <trkpt lat="59.8995179" lon="17.6702305">
        <ele>40.9934</ele>
        <time>2013-05-25T16:15:50Z</time>
      </trkpt>
      <trkpt lat="59.8994572" lon="17.6702879">
        <ele>40.9934</ele>
        <time>2013-05-25T16:15:51Z</time>
      </trkpt>
      <trkpt lat="59.8994014" lon="17.6703663">
        <ele>41.9547</ele>
        <time>2013-05-25T16:15:52Z</time>
      </trkpt>
      <trkpt lat="59.8993458" lon="17.6704619">
        <ele>41.474</ele>
        <time>2013-05-25T16:15:53Z</time>
      </trkpt>
      <trkpt lat="59.8992961" lon="17.6705788">
        <ele>40.5128</ele>
        <time>2013-05-25T16:15:54Z</time>
      </trkpt>
      <trkpt lat="59.899244" lon="17.6706998">
        <ele>39.5513</ele>
        <time>2013-05-25T16:15:55Z</time>
      </trkpt>
      <trkpt lat="59.8992049" lon="17.6708309">
        <ele>39.0707</ele>
        <time>2013-05-25T16:15:56Z</time>
      </trkpt>
      <trkpt lat="59.8991817" lon="17.6709695">
        <ele>38.5901</ele>
        <time>2013-05-25T16:15:57Z</time>
      </trkpt>
      <trkpt lat="59.8991682" lon="17.6711125">
        <ele>37.6287</ele>
        <time>2013-05-25T16:15:58Z</time>
      </trkpt>
      <trkpt lat="59.8991803" lon="17.6712759">
        <ele>38.5901</ele>
        <time>2013-05-25T16:15:59Z</time>
      </trkpt>
      <trkpt lat="59.8991901" lon="17.6714293">
        <ele>37.1481</ele>
        <time>2013-05-25T16:16:00Z</time>
      </trkpt>
      <trkpt lat="59.8991884" lon="17.6715665">
        <ele>35.7061</ele>
        <time>2013-05-25T16:16:01Z</time>
      </trkpt>
      <trkpt lat="59.8991831" lon="17.6717126">
        <ele>35.2255</ele>
        <time>2013-05-25T16:16:02Z</time>
      </trkpt>
      <trkpt lat="59.8991882" lon="17.6718729">
        <ele>34.7449</ele>
        <time>2013-05-25T16:16:03Z</time>
      </trkpt>
      <trkpt lat="59.899194" lon="17.6720275">
        <ele>34.7449</ele>
        <time>2013-05-25T16:16:04Z</time>
      </trkpt>
      <trkpt lat="59.8991966" lon="17.6721775">
        <ele>35.2255</ele>
        <time>2013-05-25T16:16:05Z</time>
      </trkpt>
      <trkpt lat="59.8992167" lon="17.6723335">
        <ele>37.6287</ele>
        <time>2013-05-25T16:16:06Z</time>
      </trkpt>
      <trkpt lat="59.8992045" lon="17.6724526">
        <ele>36.1868</ele>
        <time>2013-05-25T16:16:07Z</time>
      </trkpt>
      <trkpt lat="59.8991849" lon="17.6725603">
        <ele>35.7061</ele>
        <time>2013-05-25T16:16:08Z</time>
      </trkpt>
      <trkpt lat="59.899158" lon="17.6726786">
        <ele>36.6675</ele>
        <time>2013-05-25T16:16:09Z</time>
      </trkpt>
      <trkpt lat="59.8991217" lon="17.6728634">
        <ele>37.1481</ele>
        <time>2013-05-25T16:16:10Z</time>
      </trkpt>
      <trkpt lat="59.8990921" lon="17.6729998">
        <ele>36.6675</ele>
        <time>2013-05-25T16:16:11Z</time>
      </trkpt>
      <trkpt lat="59.8990714" lon="17.6731374">
        <ele>36.6675</ele>
        <time>2013-05-25T16:16:12Z</time>
      </trkpt>
      <trkpt lat="59.899046" lon="17.6732398">
        <ele>37.6287</ele>
        <time>2013-05-25T16:16:13Z</time>
      </trkpt>
      <trkpt lat="59.8990399" lon="17.6733907">
        <ele>37.6287</ele>
        <time>2013-05-25T16:16:14Z</time>
      </trkpt>
      <trkpt lat="59.8990351" lon="17.6735748">
        <ele>37.1481</ele>
        <time>2013-05-25T16:16:15Z</time>
      </trkpt>
      <trkpt lat="59.899021" lon="17.673711">
        <ele>36.1868</ele>
        <time>2013-05-25T16:16:16Z</time>
      </trkpt>
      <trkpt lat="59.8990054" lon="17.6738745">
        <ele>35.2255</ele>
        <time>2013-05-25T16:16:17Z</time>
      </trkpt>
      <trkpt lat="59.8989941" lon="17.6740132">
        <ele>34.2642</ele>
        <time>2013-05-25T16:16:18Z</time>
      </trkpt>
      <trkpt lat="59.898987" lon="17.6741819">
        <ele>33.3029</ele>
        <time>2013-05-25T16:16:19Z</time>
      </trkpt>
      <trkpt lat="59.8989678" lon="17.674327">
        <ele>33.7834</ele>
        <time>2013-05-25T16:16:20Z</time>
      </trkpt>
      <trkpt lat="59.898935" lon="17.6744398">
        <ele>32.8223</ele>
        <time>2013-05-25T16:16:21Z</time>
      </trkpt>
      <trkpt lat="59.8989025" lon="17.67454">
        <ele>33.3029</ele>
        <time>2013-05-25T16:16:22Z</time>
      </trkpt>
      <trkpt lat="59.8988641" lon="17.6746378">
        <ele>34.2642</ele>
        <time>2013-05-25T16:16:23Z</time>
      </trkpt>
      <trkpt lat="59.8988217" lon="17.674716">
        <ele>35.2255</ele>
        <time>2013-05-25T16:16:24Z</time>
      </trkpt>
      <trkpt lat="59.8987766" lon="17.6747709">
        <ele>36.1868</ele>
        <time>2013-05-25T16:16:25Z</time>
      </trkpt>
      <trkpt lat="59.8987299" lon="17.6748336">
        <ele>36.6675</ele>
        <time>2013-05-25T16:16:26Z</time>
      </trkpt>
      <trkpt lat="59.8986726" lon="17.6748512">
        <ele>35.7061</ele>
        <time>2013-05-25T16:16:27Z</time>
      </trkpt>
      <trkpt lat="59.8986212" lon="17.6748967">
        <ele>35.2255</ele>
        <time>2013-05-25T16:16:28Z</time>
      </trkpt>
      <trkpt lat="59.8985715" lon="17.6749743">
        <ele>34.7449</ele>
        <time>2013-05-25T16:16:29Z</time>
      </trkpt>
      <trkpt lat="59.8985176" lon="17.6750713">
        <ele>34.2642</ele>
        <time>2013-05-25T16:16:30Z</time>
      </trkpt>
      <trkpt lat="59.8984644" lon="17.6751963">
        <ele>34.2642</ele>
        <time>2013-05-25T16:16:31Z</time>
      </trkpt>
      <trkpt lat="59.8984159" lon="17.6753215">
        <ele>33.7834</ele>
        <time>2013-05-25T16:16:32Z</time>
      </trkpt>
      <trkpt lat="59.8983855" lon="17.6754599">
        <ele>33.3029</ele>
        <time>2013-05-25T16:16:33Z</time>
      </trkpt>
      <trkpt lat="59.8983648" lon="17.6756086">
        <ele>33.7834</ele>
        <time>2013-05-25T16:16:34Z</time>
      </trkpt>
      <trkpt lat="59.8983485" lon="17.675757">
        <ele>34.2642</ele>
        <time>2013-05-25T16:16:35Z</time>
      </trkpt>
      <trkpt lat="59.8983318" lon="17.675901">
        <ele>33.7834</ele>
        <time>2013-05-25T16:16:36Z</time>
      </trkpt>
      <trkpt lat="59.8983239" lon="17.6760564">
        <ele>33.7834</ele>
        <time>2013-05-25T16:16:37Z</time>
      </trkpt>
      <trkpt lat="59.8983114" lon="17.6762022">
        <ele>32.8223</ele>
        <time>2013-05-25T16:16:38Z</time>
      </trkpt>
      <trkpt lat="59.8982983" lon="17.6763493">
        <ele>32.3416</ele>
        <time>2013-05-25T16:16:39Z</time>
      </trkpt>
      <trkpt lat="59.8982833" lon="17.6764974">
        <ele>31.3801</ele>
        <time>2013-05-25T16:16:40Z</time>
      </trkpt>
      <trkpt lat="59.8982669" lon="17.6766476">
        <ele>30.4188</ele>
        <time>2013-05-25T16:16:41Z</time>
      </trkpt>
      <trkpt lat="59.8982523" lon="17.6768032">
        <ele>29.9381</ele>
        <time>2013-05-25T16:16:42Z</time>
      </trkpt>
      <trkpt lat="59.8982378" lon="17.6769621">
        <ele>29.4575</ele>
        <time>2013-05-25T16:16:43Z</time>
      </trkpt>
      <trkpt lat="59.8982204" lon="17.6771216">
        <ele>29.4575</ele>
        <time>2013-05-25T16:16:44Z</time>
      </trkpt>
      <trkpt lat="59.8981973" lon="17.6772781">
        <ele>28.9769</ele>
        <time>2013-05-25T16:16:45Z</time>
      </trkpt>
      <trkpt lat="59.8981726" lon="17.6774376">
        <ele>29.4575</ele>
        <time>2013-05-25T16:16:46Z</time>
      </trkpt>
      <trkpt lat="59.8981455" lon="17.6775961">
        <ele>29.4575</ele>
        <time>2013-05-25T16:16:47Z</time>
      </trkpt>
      <trkpt lat="59.8981165" lon="17.6777525">
        <ele>29.9381</ele>
        <time>2013-05-25T16:16:48Z</time>
      </trkpt>
      <trkpt lat="59.8980861" lon="17.677908">
        <ele>29.9381</ele>
        <time>2013-05-25T16:16:49Z</time>
      </trkpt>
      <trkpt lat="59.8980536" lon="17.6780619">
        <ele>30.4188</ele>
        <time>2013-05-25T16:16:50Z</time>
      </trkpt>
      <trkpt lat="59.8980176" lon="17.678212">
        <ele>30.8995</ele>
        <time>2013-05-25T16:16:51Z</time>
      </trkpt>
      <trkpt lat="59.8979778" lon="17.6783546">
        <ele>31.3801</ele>
        <time>2013-05-25T16:16:52Z</time>
      </trkpt>
      <trkpt lat="59.8979322" lon="17.6784864">
        <ele>31.3801</ele>
        <time>2013-05-25T16:16:53Z</time>
      </trkpt>
      <trkpt lat="59.8978882" lon="17.6786182">
        <ele>31.3801</ele>
        <time>2013-05-25T16:16:54Z</time>
      </trkpt>
      <trkpt lat="59.8978416" lon="17.6787441">
        <ele>31.3801</ele>
        <time>2013-05-25T16:16:55Z</time>
      </trkpt>
      <trkpt lat="59.8977945" lon="17.6788709">
        <ele>31.3801</ele>
        <time>2013-05-25T16:16:56Z</time>
      </trkpt>
      <trkpt lat="59.8977499" lon="17.6790019">
        <ele>31.8607</ele>
        <time>2013-05-25T16:16:57Z</time>
      </trkpt>
      <trkpt lat="59.8977041" lon="17.6791275">
        <ele>31.8607</ele>
        <time>2013-05-25T16:16:58Z</time>
      </trkpt>
      <trkpt lat="59.8976577" lon="17.6792476">
        <ele>31.8607</ele>
        <time>2013-05-25T16:16:59Z</time>
      </trkpt>
      <trkpt lat="59.8976107" lon="17.6793636">
        <ele>31.8607</ele>
        <time>2013-05-25T16:17:00Z</time>
      </trkpt>
      <trkpt lat="59.89757" lon="17.6794851">
        <ele>31.8607</ele>
        <time>2013-05-25T16:17:01Z</time>
      </trkpt>
      <trkpt lat="59.8975301" lon="17.6796032">
        <ele>31.8607</ele>
        <time>2013-05-25T16:17:02Z</time>
      </trkpt>
      <trkpt lat="59.8974893" lon="17.6797169">
        <ele>32.3416</ele>
        <time>2013-05-25T16:17:03Z</time>
      </trkpt>
      <trkpt lat="59.8974484" lon="17.6798293">
        <ele>32.3416</ele>
        <time>2013-05-25T16:17:04Z</time>
      </trkpt>
      <trkpt lat="59.8974086" lon="17.6799432">
        <ele>32.3416</ele>
        <time>2013-05-25T16:17:05Z</time>
      </trkpt>
      <trkpt lat="59.897367" lon="17.6800556">
        <ele>32.3416</ele>
        <time>2013-05-25T16:17:06Z</time>
      </trkpt>
      <trkpt lat="59.8973255" lon="17.6801704">
        <ele>32.3416</ele>
        <time>2013-05-25T16:17:07Z</time>
      </trkpt>
      <trkpt lat="59.8972842" lon="17.6802903">
        <ele>32.8223</ele>
        <time>2013-05-25T16:17:08Z</time>
      </trkpt>
      <trkpt lat="59.8972428" lon="17.6804126">
        <ele>32.8223</ele>
        <time>2013-05-25T16:17:09Z</time>
      </trkpt>
      <trkpt lat="59.8972004" lon="17.6805352">
        <ele>32.8223</ele>
        <time>2013-05-25T16:17:10Z</time>
      </trkpt>
      <trkpt lat="59.8971563" lon="17.6806556">
        <ele>33.3029</ele>
        <time>2013-05-25T16:17:11Z</time>
      </trkpt>
      <trkpt lat="59.8971108" lon="17.6807734">
        <ele>33.3029</ele>
        <time>2013-05-25T16:17:12Z</time>
      </trkpt>
      <trkpt lat="59.8970645" lon="17.6808907">
        <ele>33.3029</ele>
        <time>2013-05-25T16:17:13Z</time>
      </trkpt>
      <trkpt lat="59.8970172" lon="17.6810076">
        <ele>33.3029</ele>
        <time>2013-05-25T16:17:14Z</time>
      </trkpt>
      <trkpt lat="59.8969692" lon="17.6811205">
        <ele>33.3029</ele>
        <time>2013-05-25T16:17:15Z</time>
      </trkpt>
      <trkpt lat="59.8969199" lon="17.6812274">
        <ele>32.8223</ele>
        <time>2013-05-25T16:17:16Z</time>
      </trkpt>
      <trkpt lat="59.8968697" lon="17.6813264">
        <ele>32.3416</ele>
        <time>2013-05-25T16:17:17Z</time>
      </trkpt>
      <trkpt lat="59.8968192" lon="17.6814171">
        <ele>32.3416</ele>
        <time>2013-05-25T16:17:18Z</time>
      </trkpt>
      <trkpt lat="59.8967681" lon="17.6814989">
        <ele>32.3416</ele>
        <time>2013-05-25T16:17:19Z</time>
      </trkpt>
      <trkpt lat="59.8967189" lon="17.6815785">
        <ele>32.3416</ele>
        <time>2013-05-25T16:17:20Z</time>
      </trkpt>
      <trkpt lat="59.8966717" lon="17.6816521">
        <ele>31.8607</ele>
        <time>2013-05-25T16:17:21Z</time>
      </trkpt>
      <trkpt lat="59.8966274" lon="17.6817144">
        <ele>31.3801</ele>
        <time>2013-05-25T16:17:22Z</time>
      </trkpt>
      <trkpt lat="59.8965842" lon="17.6817728">
        <ele>30.4188</ele>
        <time>2013-05-25T16:17:23Z</time>
      </trkpt>
      <trkpt lat="59.8965347" lon="17.6818354">
        <ele>30.4188</ele>
        <time>2013-05-25T16:17:24Z</time>
      </trkpt>
      <trkpt lat="59.8964839" lon="17.6819035">
        <ele>29.9381</ele>
        <time>2013-05-25T16:17:25Z</time>
      </trkpt>
      <trkpt lat="59.8964291" lon="17.6819688">
        <ele>29.9381</ele>
        <time>2013-05-25T16:17:26Z</time>
      </trkpt>
      <trkpt lat="59.8963749" lon="17.6820387">
        <ele>30.4188</ele>
        <time>2013-05-25T16:17:27Z</time>
      </trkpt>
      <trkpt lat="59.8963228" lon="17.6820975">
        <ele>30.8995</ele>
        <time>2013-05-25T16:17:28Z</time>
      </trkpt>
      <trkpt lat="59.89627" lon="17.6821594">
        <ele>31.3801</ele>
        <time>2013-05-25T16:17:29Z</time>
      </trkpt>
      <trkpt lat="59.8962166" lon="17.6822208">
        <ele>31.3801</ele>
        <time>2013-05-25T16:17:30Z</time>
      </trkpt>
      <trkpt lat="59.8961679" lon="17.68228">
        <ele>31.8607</ele>
        <time>2013-05-25T16:17:31Z</time>
      </trkpt>
      <trkpt lat="59.8961192" lon="17.6823349">
        <ele>31.3801</ele>
        <time>2013-05-25T16:17:32Z</time>
      </trkpt>
      <trkpt lat="59.8960647" lon="17.6823948">
        <ele>31.8607</ele>
        <time>2013-05-25T16:17:33Z</time>
      </trkpt>
      <trkpt lat="59.896009" lon="17.6824488">
        <ele>31.8607</ele>
        <time>2013-05-25T16:17:34Z</time>
      </trkpt>
      <trkpt lat="59.8959455" lon="17.6824846">
        <ele>32.3416</ele>
        <time>2013-05-25T16:17:35Z</time>
      </trkpt>
      <trkpt lat="59.8958886" lon="17.6825177">
        <ele>31.3801</ele>
        <time>2013-05-25T16:17:36Z</time>
      </trkpt>
      <trkpt lat="59.8958225" lon="17.6825415">
        <ele>29.9381</ele>
        <time>2013-05-25T16:17:37Z</time>
      </trkpt>
      <trkpt lat="59.8957561" lon="17.6825882">
        <ele>29.9381</ele>
        <time>2013-05-25T16:17:38Z</time>
      </trkpt>
      <trkpt lat="59.895695" lon="17.6826431">
        <ele>28.9769</ele>
        <time>2013-05-25T16:17:39Z</time>
      </trkpt>
      <trkpt lat="59.8956255" lon="17.6827095">
        <ele>29.4575</ele>
        <time>2013-05-25T16:17:40Z</time>
      </trkpt>
      <trkpt lat="59.8955613" lon="17.6827818">
        <ele>29.4575</ele>
        <time>2013-05-25T16:17:41Z</time>
      </trkpt>
      <trkpt lat="59.8954951" lon="17.6828499">
        <ele>29.9381</ele>
        <time>2013-05-25T16:17:42Z</time>
      </trkpt>
      <trkpt lat="59.8954287" lon="17.6829257">
        <ele>30.4188</ele>
        <time>2013-05-25T16:17:43Z</time>
      </trkpt>
      <trkpt lat="59.8953658" lon="17.6830024">
        <ele>30.4188</ele>
        <time>2013-05-25T16:17:44Z</time>
      </trkpt>
      <trkpt lat="59.8952988" lon="17.6830899">
        <ele>30.8995</ele>
        <time>2013-05-25T16:17:45Z</time>
      </trkpt>
      <trkpt lat="59.895235" lon="17.6831813">
        <ele>30.4188</ele>
        <time>2013-05-25T16:17:46Z</time>
      </trkpt>
      <trkpt lat="59.8951687" lon="17.6832761">
        <ele>29.9381</ele>
        <time>2013-05-25T16:17:47Z</time>
      </trkpt>
      <trkpt lat="59.8951082" lon="17.6833754">
        <ele>30.4188</ele>
        <time>2013-05-25T16:17:48Z</time>
      </trkpt>
      <trkpt lat="59.8950473" lon="17.6834741">
        <ele>30.4188</ele>
        <time>2013-05-25T16:17:49Z</time>
      </trkpt>
      <trkpt lat="59.894992" lon="17.6835853">
        <ele>30.8995</ele>
        <time>2013-05-25T16:17:50Z</time>
      </trkpt>
      <trkpt lat="59.8949447" lon="17.6836999">
        <ele>31.3801</ele>
        <time>2013-05-25T16:17:51Z</time>
      </trkpt>
      <trkpt lat="59.8949069" lon="17.6838149">
        <ele>31.3801</ele>
        <time>2013-05-25T16:17:52Z</time>
      </trkpt>
      <trkpt lat="59.8948748" lon="17.6839325">
        <ele>31.8607</ele>
        <time>2013-05-25T16:17:53Z</time>
      </trkpt>
      <trkpt lat="59.8948452" lon="17.684061">
        <ele>32.8223</ele>
        <time>2013-05-25T16:17:54Z</time>
      </trkpt>
      <trkpt lat="59.8948175" lon="17.6841992">
        <ele>33.7834</ele>
        <time>2013-05-25T16:17:55Z</time>
      </trkpt>
      <trkpt lat="59.894796" lon="17.6843282">
        <ele>33.7834</ele>
        <time>2013-05-25T16:17:56Z</time>
      </trkpt>
      <trkpt lat="59.8947811" lon="17.6844652">
        <ele>34.2642</ele>
        <time>2013-05-25T16:17:57Z</time>
      </trkpt>
      <trkpt lat="59.8947668" lon="17.6846001">
        <ele>34.7449</ele>
        <time>2013-05-25T16:17:58Z</time>
      </trkpt>
      <trkpt lat="59.8947615" lon="17.6847364">
        <ele>35.7061</ele>
        <time>2013-05-25T16:17:59Z</time>
      </trkpt>
      <trkpt lat="59.8947584" lon="17.6848731">
        <ele>36.1868</ele>
        <time>2013-05-25T16:18:00Z</time>
      </trkpt>
      <trkpt lat="59.8947557" lon="17.6850115">
        <ele>36.6675</ele>
        <time>2013-05-25T16:18:01Z</time>
      </trkpt>
      <trkpt lat="59.894752" lon="17.6851419">
        <ele>36.6675</ele>
        <time>2013-05-25T16:18:02Z</time>
      </trkpt>
      <trkpt lat="59.8947455" lon="17.6852677">
        <ele>36.6675</ele>
        <time>2013-05-25T16:18:03Z</time>
      </trkpt>
      <trkpt lat="59.8947328" lon="17.6853819">
        <ele>36.6675</ele>
        <time>2013-05-25T16:18:04Z</time>
      </trkpt>
      <trkpt lat="59.8947249" lon="17.685479">
        <ele>36.1868</ele>
        <time>2013-05-25T16:18:05Z</time>
      </trkpt>
      <trkpt lat="59.8947158" lon="17.6855669">
        <ele>35.2255</ele>
        <time>2013-05-25T16:18:06Z</time>
      </trkpt>
      <trkpt lat="59.8947106" lon="17.6856584">
        <ele>34.7449</ele>
        <time>2013-05-25T16:18:07Z</time>
      </trkpt>
      <trkpt lat="59.8947029" lon="17.6857356">
        <ele>34.2642</ele>
        <time>2013-05-25T16:18:08Z</time>
      </trkpt>
      <trkpt lat="59.8946898" lon="17.6857983">
        <ele>33.3029</ele>
        <time>2013-05-25T16:18:09Z</time>
      </trkpt>
      <trkpt lat="59.8946787" lon="17.6858593">
        <ele>32.3416</ele>
        <time>2013-05-25T16:18:10Z</time>
      </trkpt>
      <trkpt lat="59.8946781" lon="17.6859328">
        <ele>32.8223</ele>
        <time>2013-05-25T16:18:11Z</time>
      </trkpt>
      <trkpt lat="59.8946745" lon="17.6859937">
        <ele>32.8223</ele>
        <time>2013-05-25T16:18:12Z</time>
      </trkpt>
      <trkpt lat="59.8946704" lon="17.6860557">
        <ele>32.8223</ele>
        <time>2013-05-25T16:18:13Z</time>
      </trkpt>
      <trkpt lat="59.8946595" lon="17.6861122">
        <ele>32.3416</ele>
        <time>2013-05-25T16:18:14Z</time>
      </trkpt>
      <trkpt lat="59.8946505" lon="17.6861784">
        <ele>31.8607</ele>
        <time>2013-05-25T16:18:15Z</time>
      </trkpt>
      <trkpt lat="59.8946474" lon="17.6862578">
        <ele>31.8607</ele>
        <time>2013-05-25T16:18:16Z</time>
      </trkpt>
      <trkpt lat="59.8946414" lon="17.6863381">
        <ele>31.3801</ele>
        <time>2013-05-25T16:18:17Z</time>
      </trkpt>
      <trkpt lat="59.8946419" lon="17.6864387">
        <ele>31.3801</ele>
        <time>2013-05-25T16:18:18Z</time>
      </trkpt>
      <trkpt lat="59.8946375" lon="17.6865462">
        <ele>31.8607</ele>
        <time>2013-05-25T16:18:19Z</time>
      </trkpt>
      <trkpt lat="59.8946196" lon="17.6866489">
        <ele>31.3801</ele>
        <time>2013-05-25T16:18:20Z</time>
      </trkpt>
      <trkpt lat="59.8945961" lon="17.6867515">
        <ele>30.8995</ele>
        <time>2013-05-25T16:18:21Z</time>
      </trkpt>
      <trkpt lat="59.8945722" lon="17.6868592">
        <ele>30.8995</ele>
        <time>2013-05-25T16:18:22Z</time>
      </trkpt>
      <trkpt lat="59.894549" lon="17.6869731">
        <ele>30.4188</ele>
        <time>2013-05-25T16:18:23Z</time>
      </trkpt>
      <trkpt lat="59.8945253" lon="17.6870928">
        <ele>30.4188</ele>
        <time>2013-05-25T16:18:24Z</time>
      </trkpt>
      <trkpt lat="59.8945003" lon="17.6872166">
        <ele>29.9381</ele>
        <time>2013-05-25T16:18:25Z</time>
      </trkpt>
      <trkpt lat="59.8944745" lon="17.6873449">
        <ele>29.9381</ele>
        <time>2013-05-25T16:18:26Z</time>
      </trkpt>
      <trkpt lat="59.8944472" lon="17.6874754">
        <ele>29.9381</ele>
        <time>2013-05-25T16:18:27Z</time>
      </trkpt>
      <trkpt lat="59.8944186" lon="17.6876072">
        <ele>29.9381</ele>
        <time>2013-05-25T16:18:28Z</time>
      </trkpt>
      <trkpt lat="59.8943874" lon="17.6877389">
        <ele>29.4575</ele>
        <time>2013-05-25T16:18:29Z</time>
      </trkpt>
      <trkpt lat="59.8943549" lon="17.6878736">
        <ele>29.4575</ele>
        <time>2013-05-25T16:18:30Z</time>
      </trkpt>
      <trkpt lat="59.894321" lon="17.6880106">
        <ele>29.4575</ele>
        <time>2013-05-25T16:18:31Z</time>
      </trkpt>
      <trkpt lat="59.8942863" lon="17.6881494">
        <ele>28.9769</ele>
        <time>2013-05-25T16:18:32Z</time>
      </trkpt>
      <trkpt lat="59.8942559" lon="17.688291">
        <ele>29.4575</ele>
        <time>2013-05-25T16:18:33Z</time>
      </trkpt>
      <trkpt lat="59.8942218" lon="17.6884267">
        <ele>29.4575</ele>
        <time>2013-05-25T16:18:34Z</time>
      </trkpt>
      <trkpt lat="59.8941923" lon="17.6885641">
        <ele>29.4575</ele>
        <time>2013-05-25T16:18:35Z</time>
      </trkpt>
      <trkpt lat="59.8941747" lon="17.6887104">
        <ele>29.9381</ele>
        <time>2013-05-25T16:18:36Z</time>
      </trkpt>
      <trkpt lat="59.8941569" lon="17.6888464">
        <ele>30.4188</ele>
        <time>2013-05-25T16:18:37Z</time>
      </trkpt>
      <trkpt lat="59.8941383" lon="17.6889759">
        <ele>29.9381</ele>
        <time>2013-05-25T16:18:38Z</time>
      </trkpt>
      <trkpt lat="59.8941216" lon="17.6891085">
        <ele>29.9381</ele>
        <time>2013-05-25T16:18:39Z</time>
      </trkpt>
      <trkpt lat="59.8941062" lon="17.6892401">
        <ele>29.9381</ele>
        <time>2013-05-25T16:18:40Z</time>
      </trkpt>
      <trkpt lat="59.8940962" lon="17.6893776">
        <ele>30.8995</ele>
        <time>2013-05-25T16:18:41Z</time>
      </trkpt>
      <trkpt lat="59.8940804" lon="17.6895019">
        <ele>30.4188</ele>
        <time>2013-05-25T16:18:42Z</time>
      </trkpt>
      <trkpt lat="59.8940683" lon="17.68963">
        <ele>30.8995</ele>
        <time>2013-05-25T16:18:43Z</time>
      </trkpt>
      <trkpt lat="59.8940563" lon="17.6897562">
        <ele>31.3801</ele>
        <time>2013-05-25T16:18:44Z</time>
      </trkpt>
      <trkpt lat="59.8940446" lon="17.6898813">
        <ele>31.8607</ele>
        <time>2013-05-25T16:18:45Z</time>
      </trkpt>
      <trkpt lat="59.8940327" lon="17.6900046">
        <ele>32.3416</ele>
        <time>2013-05-25T16:18:46Z</time>
      </trkpt>
      <trkpt lat="59.8940192" lon="17.6901252">
        <ele>32.3416</ele>
        <time>2013-05-25T16:18:47Z</time>
      </trkpt>
      <trkpt lat="59.8940016" lon="17.6902433">
        <ele>32.3416</ele>
        <time>2013-05-25T16:18:48Z</time>
      </trkpt>
      <trkpt lat="59.893984" lon="17.6903657">
        <ele>32.3416</ele>
        <time>2013-05-25T16:18:49Z</time>
      </trkpt>
      <trkpt lat="59.8939704" lon="17.6904966">
        <ele>32.8223</ele>
        <time>2013-05-25T16:18:50Z</time>
      </trkpt>
      <trkpt lat="59.8939515" lon="17.6906311">
        <ele>33.3029</ele>
        <time>2013-05-25T16:18:51Z</time>
      </trkpt>
      <trkpt lat="59.8939315" lon="17.6907629">
        <ele>33.7834</ele>
        <time>2013-05-25T16:18:52Z</time>
      </trkpt>
      <trkpt lat="59.8939123" lon="17.690894">
        <ele>34.2642</ele>
        <time>2013-05-25T16:18:53Z</time>
      </trkpt>
      <trkpt lat="59.8938996" lon="17.6910348">
        <ele>35.2255</ele>
        <time>2013-05-25T16:18:54Z</time>
      </trkpt>
      <trkpt lat="59.8938892" lon="17.6911758">
        <ele>36.1868</ele>
        <time>2013-05-25T16:18:55Z</time>
      </trkpt>
      <trkpt lat="59.8938755" lon="17.6913113">
        <ele>36.1868</ele>
        <time>2013-05-25T16:18:56Z</time>
      </trkpt>
      <trkpt lat="59.893872" lon="17.6914546">
        <ele>36.1868</ele>
        <time>2013-05-25T16:18:57Z</time>
      </trkpt>
      <trkpt lat="59.893866" lon="17.6916025">
        <ele>36.1868</ele>
        <time>2013-05-25T16:18:58Z</time>
      </trkpt>
      <trkpt lat="59.8938662" lon="17.6917523">
        <ele>36.6675</ele>
        <time>2013-05-25T16:18:59Z</time>
      </trkpt>
      <trkpt lat="59.8938675" lon="17.6919015">
        <ele>36.6675</ele>
        <time>2013-05-25T16:19:00Z</time>
      </trkpt>
      <trkpt lat="59.8938688" lon="17.6920424">
        <ele>36.6675</ele>
        <time>2013-05-25T16:19:01Z</time>
      </trkpt>
      <trkpt lat="59.8938576" lon="17.6921755">
        <ele>35.7061</ele>
        <time>2013-05-25T16:19:02Z</time>
      </trkpt>
      <trkpt lat="59.8938478" lon="17.6923313">
        <ele>34.7449</ele>
        <time>2013-05-25T16:19:03Z</time>
      </trkpt>
      <trkpt lat="59.8938394" lon="17.6924775">
        <ele>34.2642</ele>
        <time>2013-05-25T16:19:04Z</time>
      </trkpt>
      <trkpt lat="59.8938419" lon="17.6926389">
        <ele>33.7834</ele>
        <time>2013-05-25T16:19:05Z</time>
      </trkpt>
      <trkpt lat="59.8938461" lon="17.692809">
        <ele>33.7834</ele>
        <time>2013-05-25T16:19:06Z</time>
      </trkpt>
      <trkpt lat="59.8938408" lon="17.6929696">
        <ele>32.8223</ele>
        <time>2013-05-25T16:19:07Z</time>
      </trkpt>
      <trkpt lat="59.8938292" lon="17.6931235">
        <ele>31.8607</ele>
        <time>2013-05-25T16:19:08Z</time>
      </trkpt>
      <trkpt lat="59.8938093" lon="17.6932762">
        <ele>31.3801</ele>
        <time>2013-05-25T16:19:09Z</time>
      </trkpt>
      <trkpt lat="59.8937942" lon="17.6934259">
        <ele>30.4188</ele>
        <time>2013-05-25T16:19:10Z</time>
      </trkpt>
      <trkpt lat="59.8937862" lon="17.6935803">
        <ele>30.4188</ele>
        <time>2013-05-25T16:19:11Z</time>
      </trkpt>
      <trkpt lat="59.8937807" lon="17.6937446">
        <ele>29.9381</ele>
        <time>2013-05-25T16:19:12Z</time>
      </trkpt>
      <trkpt lat="59.8937742" lon="17.6939019">
        <ele>29.4575</ele>
        <time>2013-05-25T16:19:13Z</time>
      </trkpt>
      <trkpt lat="59.8937726" lon="17.6940616">
        <ele>29.4575</ele>
        <time>2013-05-25T16:19:14Z</time>
      </trkpt>
      <trkpt lat="59.8937709" lon="17.6942139">
        <ele>28.9769</ele>
        <time>2013-05-25T16:19:15Z</time>
      </trkpt>
      <trkpt lat="59.8937658" lon="17.6943608">
        <ele>28.4962</ele>
        <time>2013-05-25T16:19:16Z</time>
      </trkpt>
      <trkpt lat="59.8937592" lon="17.6945008">
        <ele>28.0155</ele>
        <time>2013-05-25T16:19:17Z</time>
      </trkpt>
      <trkpt lat="59.8937543" lon="17.6946478">
        <ele>27.5349</ele>
        <time>2013-05-25T16:19:18Z</time>
      </trkpt>
      <trkpt lat="59.8937452" lon="17.6947877">
        <ele>26.5736</ele>
        <time>2013-05-25T16:19:19Z</time>
      </trkpt>
      <trkpt lat="59.8937398" lon="17.6949302">
        <ele>26.5736</ele>
        <time>2013-05-25T16:19:20Z</time>
      </trkpt>
      <trkpt lat="59.8937291" lon="17.6950645">
        <ele>25.6123</ele>
        <time>2013-05-25T16:19:21Z</time>
      </trkpt>
      <trkpt lat="59.8937203" lon="17.6951997">
        <ele>25.1317</ele>
        <time>2013-05-25T16:19:22Z</time>
      </trkpt>
      <trkpt lat="59.8937115" lon="17.6953303">
        <ele>24.1703</ele>
        <time>2013-05-25T16:19:23Z</time>
      </trkpt>
      <trkpt lat="59.893707" lon="17.6954649">
        <ele>24.1703</ele>
        <time>2013-05-25T16:19:24Z</time>
      </trkpt>
      <trkpt lat="59.8937007" lon="17.6955924">
        <ele>24.1703</ele>
        <time>2013-05-25T16:19:25Z</time>
      </trkpt>
      <trkpt lat="59.8937012" lon="17.6957268">
        <ele>25.1317</ele>
        <time>2013-05-25T16:19:26Z</time>
      </trkpt>
      <trkpt lat="59.8937046" lon="17.6958632">
        <ele>26.5736</ele>
        <time>2013-05-25T16:19:27Z</time>
      </trkpt>
      <trkpt lat="59.8937042" lon="17.6959882">
        <ele>27.0543</ele>
        <time>2013-05-25T16:19:28Z</time>
      </trkpt>
      <trkpt lat="59.8937072" lon="17.6961169">
        <ele>28.4962</ele>
        <time>2013-05-25T16:19:29Z</time>
      </trkpt>
      <trkpt lat="59.8937094" lon="17.6962388">
        <ele>28.4962</ele>
        <time>2013-05-25T16:19:30Z</time>
      </trkpt>
      <trkpt lat="59.8937145" lon="17.6963604">
        <ele>28.9769</ele>
        <time>2013-05-25T16:19:31Z</time>
      </trkpt>
      <trkpt lat="59.8937192" lon="17.6964828">
        <ele>28.9769</ele>
        <time>2013-05-25T16:19:32Z</time>
      </trkpt>
      <trkpt lat="59.8937245" lon="17.6966185">
        <ele>29.4575</ele>
        <time>2013-05-25T16:19:33Z</time>
      </trkpt>
      <trkpt lat="59.8937232" lon="17.6967548">
        <ele>29.4575</ele>
        <time>2013-05-25T16:19:34Z</time>
      </trkpt>
      <trkpt lat="59.8937151" lon="17.6968919">
        <ele>28.9769</ele>
        <time>2013-05-25T16:19:35Z</time>
      </trkpt>
      <trkpt lat="59.8937006" lon="17.6970304">
        <ele>28.4962</ele>
        <time>2013-05-25T16:19:36Z</time>
      </trkpt>
      <trkpt lat="59.8936831" lon="17.6971726">
        <ele>28.0155</ele>
        <time>2013-05-25T16:19:37Z</time>
      </trkpt>
      <trkpt lat="59.8936591" lon="17.6973114">
        <ele>27.5349</ele>
        <time>2013-05-25T16:19:38Z</time>
      </trkpt>
      <trkpt lat="59.8936352" lon="17.697453">
        <ele>27.0543</ele>
        <time>2013-05-25T16:19:39Z</time>
      </trkpt>
      <trkpt lat="59.8936115" lon="17.6975976">
        <ele>27.0543</ele>
        <time>2013-05-25T16:19:40Z</time>
      </trkpt>
      <trkpt lat="59.8935826" lon="17.6977391">
        <ele>26.5736</ele>
        <time>2013-05-25T16:19:41Z</time>
      </trkpt>
      <trkpt lat="59.893552" lon="17.6978736">
        <ele>26.5736</ele>
        <time>2013-05-25T16:19:42Z</time>
      </trkpt>
      <trkpt lat="59.8935119" lon="17.6979954">
        <ele>26.0929</ele>
        <time>2013-05-25T16:19:43Z</time>
      </trkpt>
      <trkpt lat="59.8934684" lon="17.6981117">
        <ele>26.0929</ele>
        <time>2013-05-25T16:19:44Z</time>
      </trkpt>
      <trkpt lat="59.8934177" lon="17.6982231">
        <ele>25.6123</ele>
        <time>2013-05-25T16:19:45Z</time>
      </trkpt>
      <trkpt lat="59.8933619" lon="17.69833">
        <ele>25.1317</ele>
        <time>2013-05-25T16:19:46Z</time>
      </trkpt>
      <trkpt lat="59.8933011" lon="17.698432">
        <ele>24.651</ele>
        <time>2013-05-25T16:19:47Z</time>
      </trkpt>
      <trkpt lat="59.8932376" lon="17.6985279">
        <ele>24.1703</ele>
        <time>2013-05-25T16:19:48Z</time>
      </trkpt>
      <trkpt lat="59.8931726" lon="17.6986159">
        <ele>24.1703</ele>
        <time>2013-05-25T16:19:49Z</time>
      </trkpt>
      <trkpt lat="59.8931023" lon="17.698689">
        <ele>24.1703</ele>
        <time>2013-05-25T16:19:50Z</time>
      </trkpt>
      <trkpt lat="59.8930309" lon="17.6987563">
        <ele>23.6896</ele>
        <time>2013-05-25T16:19:51Z</time>
      </trkpt>
      <trkpt lat="59.8929568" lon="17.6988102">
        <ele>23.6896</ele>
        <time>2013-05-25T16:19:52Z</time>
      </trkpt>
      <trkpt lat="59.8928821" lon="17.6988523">
        <ele>23.209</ele>
        <time>2013-05-25T16:19:53Z</time>
      </trkpt>
      <trkpt lat="59.8928077" lon="17.6988823">
        <ele>23.209</ele>
        <time>2013-05-25T16:19:54Z</time>
      </trkpt>
      <trkpt lat="59.8927325" lon="17.6989034">
        <ele>23.209</ele>
        <time>2013-05-25T16:19:55Z</time>
      </trkpt>
      <trkpt lat="59.8926558" lon="17.6989151">
        <ele>23.209</ele>
        <time>2013-05-25T16:19:56Z</time>
      </trkpt>
      <trkpt lat="59.8925772" lon="17.698918">
        <ele>23.209</ele>
        <time>2013-05-25T16:19:57Z</time>
      </trkpt>
      <trkpt lat="59.8924976" lon="17.6989105">
        <ele>23.209</ele>
        <time>2013-05-25T16:19:58Z</time>
      </trkpt>
      <trkpt lat="59.8924173" lon="17.6988894">
        <ele>23.209</ele>
        <time>2013-05-25T16:19:59Z</time>
      </trkpt>
      <trkpt lat="59.8923367" lon="17.6988542">
        <ele>23.209</ele>
        <time>2013-05-25T16:20:00Z</time>
      </trkpt>
      <trkpt lat="59.8922569" lon="17.6988056">
        <ele>23.209</ele>
        <time>2013-05-25T16:20:01Z</time>
      </trkpt>
      <trkpt lat="59.8921787" lon="17.6987454">
        <ele>23.209</ele>
        <time>2013-05-25T16:20:02Z</time>
      </trkpt>
      <trkpt lat="59.8921035" lon="17.6986738">
        <ele>23.209</ele>
        <time>2013-05-25T16:20:03Z</time>
      </trkpt>
      <trkpt lat="59.8920307" lon="17.6985935">
        <ele>22.7283</ele>
        <time>2013-05-25T16:20:04Z</time>
      </trkpt>
      <trkpt lat="59.8919602" lon="17.6985059">
        <ele>22.7283</ele>
        <time>2013-05-25T16:20:05Z</time>
      </trkpt>
      <trkpt lat="59.8918901" lon="17.6984129">
        <ele>22.7283</ele>
        <time>2013-05-25T16:20:06Z</time>
      </trkpt>
      <trkpt lat="59.8918187" lon="17.6983206">
        <ele>22.2476</ele>
        <time>2013-05-25T16:20:07Z</time>
      </trkpt>
      <trkpt lat="59.8917461" lon="17.6982319">
        <ele>22.2476</ele>
        <time>2013-05-25T16:20:08Z</time>
      </trkpt>
      <trkpt lat="59.8916731" lon="17.6981461">
        <ele>22.2476</ele>
        <time>2013-05-25T16:20:09Z</time>
      </trkpt>
      <trkpt lat="59.8916012" lon="17.6980613">
        <ele>22.2476</ele>
        <time>2013-05-25T16:20:10Z</time>
      </trkpt>
      <trkpt lat="59.8915302" lon="17.6979783">
        <ele>21.767</ele>
        <time>2013-05-25T16:20:11Z</time>
      </trkpt>
      <trkpt lat="59.8914602" lon="17.697897">
        <ele>21.767</ele>
        <time>2013-05-25T16:20:12Z</time>
      </trkpt>
      <trkpt lat="59.8913902" lon="17.6978171">
        <ele>21.767</ele>
        <time>2013-05-25T16:20:13Z</time>
      </trkpt>
      <trkpt lat="59.8913244" lon="17.6977369">
        <ele>20.325</ele>
        <time>2013-05-25T16:20:14Z</time>
      </trkpt>
      <trkpt lat="59.8912561" lon="17.6976653">
        <ele>19.3638</ele>
        <time>2013-05-25T16:20:15Z</time>
      </trkpt>
      <trkpt lat="59.891183" lon="17.6975932">
        <ele>17.4412</ele>
        <time>2013-05-25T16:20:16Z</time>
      </trkpt>
      <trkpt lat="59.8911085" lon="17.6975483">
        <ele>17.4412</ele>
        <time>2013-05-25T16:20:17Z</time>
      </trkpt>
      <trkpt lat="59.891032" lon="17.6975281">
        <ele>17.4412</ele>
        <time>2013-05-25T16:20:18Z</time>
      </trkpt>
      <trkpt lat="59.8909536" lon="17.6975337">
        <ele>17.4412</ele>
        <time>2013-05-25T16:20:19Z</time>
      </trkpt>
      <trkpt lat="59.8908786" lon="17.6975686">
        <ele>17.4412</ele>
        <time>2013-05-25T16:20:20Z</time>
      </trkpt>
      <trkpt lat="59.8908082" lon="17.6976264">
        <ele>17.9218</ele>
        <time>2013-05-25T16:20:21Z</time>
      </trkpt>
      <trkpt lat="59.8907424" lon="17.697697">
        <ele>17.9218</ele>
        <time>2013-05-25T16:20:22Z</time>
      </trkpt>
      <trkpt lat="59.8906832" lon="17.6977789">
        <ele>18.4023</ele>
        <time>2013-05-25T16:20:23Z</time>
      </trkpt>
      <trkpt lat="59.8906309" lon="17.6978763">
        <ele>18.8831</ele>
        <time>2013-05-25T16:20:24Z</time>
      </trkpt>
      <trkpt lat="59.8905898" lon="17.6979892">
        <ele>19.8444</ele>
        <time>2013-05-25T16:20:25Z</time>
      </trkpt>
      <trkpt lat="59.8905479" lon="17.6980928">
        <ele>20.325</ele>
        <time>2013-05-25T16:20:26Z</time>
      </trkpt>
      <trkpt lat="59.8904982" lon="17.6981745">
        <ele>20.8057</ele>
        <time>2013-05-25T16:20:27Z</time>
      </trkpt>
      <trkpt lat="59.8904398" lon="17.6982269">
        <ele>20.8057</ele>
        <time>2013-05-25T16:20:28Z</time>
      </trkpt>
      <trkpt lat="59.8903753" lon="17.6982448">
        <ele>21.2864</ele>
        <time>2013-05-25T16:20:29Z</time>
      </trkpt>
      <trkpt lat="59.8903088" lon="17.698219">
        <ele>21.2864</ele>
        <time>2013-05-25T16:20:30Z</time>
      </trkpt>
      <trkpt lat="59.8902471" lon="17.69816">
        <ele>20.8057</ele>
        <time>2013-05-25T16:20:31Z</time>
      </trkpt>
      <trkpt lat="59.8901859" lon="17.6980891">
        <ele>20.8057</ele>
        <time>2013-05-25T16:20:32Z</time>
      </trkpt>
      <trkpt lat="59.8901217" lon="17.6980258">
        <ele>20.8057</ele>
        <time>2013-05-25T16:20:33Z</time>
      </trkpt>
      <trkpt lat="59.8900521" lon="17.6979806">
        <ele>20.8057</ele>
        <time>2013-05-25T16:20:34Z</time>
      </trkpt>
      <trkpt lat="59.8899793" lon="17.6979518">
        <ele>20.8057</ele>
        <time>2013-05-25T16:20:35Z</time>
      </trkpt>
      <trkpt lat="59.8899079" lon="17.697934">
        <ele>20.8057</ele>
        <time>2013-05-25T16:20:36Z</time>
      </trkpt>
      <trkpt lat="59.8898378" lon="17.6979238">
        <ele>20.325</ele>
        <time>2013-05-25T16:20:37Z</time>
      </trkpt>
      <trkpt lat="59.8897685" lon="17.6978941">
        <ele>20.325</ele>
        <time>2013-05-25T16:20:38Z</time>
      </trkpt>
      <trkpt lat="59.8897024" lon="17.697829">
        <ele>20.325</ele>
        <time>2013-05-25T16:20:39Z</time>
      </trkpt>
      <trkpt lat="59.8896399" lon="17.6977467">
        <ele>20.325</ele>
        <time>2013-05-25T16:20:40Z</time>
      </trkpt>
      <trkpt lat="59.8895778" lon="17.6976581">
        <ele>20.325</ele>
        <time>2013-05-25T16:20:41Z</time>
      </trkpt>
      <trkpt lat="59.8895141" lon="17.6975673">
        <ele>19.8444</ele>
        <time>2013-05-25T16:20:42Z</time>
      </trkpt>
      <trkpt lat="59.8894473" lon="17.6974756">
        <ele>19.8444</ele>
        <time>2013-05-25T16:20:43Z</time>
      </trkpt>
      <trkpt lat="59.8893797" lon="17.6973829">
        <ele>19.8444</ele>
        <time>2013-05-25T16:20:44Z</time>
      </trkpt>
      <trkpt lat="59.8893108" lon="17.6972847">
        <ele>19.3638</ele>
        <time>2013-05-25T16:20:45Z</time>
      </trkpt>
      <trkpt lat="59.8892398" lon="17.6971867">
        <ele>19.3638</ele>
        <time>2013-05-25T16:20:46Z</time>
      </trkpt>
      <trkpt lat="59.8891669" lon="17.6970888">
        <ele>18.8831</ele>
        <time>2013-05-25T16:20:47Z</time>
      </trkpt>
      <trkpt lat="59.8890943" lon="17.6969877">
        <ele>18.4023</ele>
        <time>2013-05-25T16:20:48Z</time>
      </trkpt>
      <trkpt lat="59.8890209" lon="17.6968817">
        <ele>18.4023</ele>
        <time>2013-05-25T16:20:49Z</time>
      </trkpt>
      <trkpt lat="59.8889456" lon="17.6967776">
        <ele>17.9218</ele>
        <time>2013-05-25T16:20:50Z</time>
      </trkpt>
      <trkpt lat="59.888868" lon="17.696676">
        <ele>17.4412</ele>
        <time>2013-05-25T16:20:51Z</time>
      </trkpt>
      <trkpt lat="59.8887877" lon="17.6965734">
        <ele>16.9604</ele>
        <time>2013-05-25T16:20:52Z</time>
      </trkpt>
      <trkpt lat="59.8887064" lon="17.6964702">
        <ele>16.9604</ele>
        <time>2013-05-25T16:20:53Z</time>
      </trkpt>
      <trkpt lat="59.8886258" lon="17.696364">
        <ele>16.4797</ele>
        <time>2013-05-25T16:20:54Z</time>
      </trkpt>
      <trkpt lat="59.888546" lon="17.6962546">
        <ele>15.999</ele>
        <time>2013-05-25T16:20:55Z</time>
      </trkpt>
      <trkpt lat="59.8884673" lon="17.6961444">
        <ele>15.999</ele>
        <time>2013-05-25T16:20:56Z</time>
      </trkpt>
      <trkpt lat="59.8883894" lon="17.6960348">
        <ele>15.5184</ele>
        <time>2013-05-25T16:20:57Z</time>
      </trkpt>
      <trkpt lat="59.8883113" lon="17.695931">
        <ele>15.5184</ele>
        <time>2013-05-25T16:20:58Z</time>
      </trkpt>
      <trkpt lat="59.8882336" lon="17.6958229">
        <ele>15.0377</ele>
        <time>2013-05-25T16:20:59Z</time>
      </trkpt>
      <trkpt lat="59.8881563" lon="17.695716">
        <ele>15.0377</ele>
        <time>2013-05-25T16:21:00Z</time>
      </trkpt>
      <trkpt lat="59.8880774" lon="17.6956177">
        <ele>15.0377</ele>
        <time>2013-05-25T16:21:01Z</time>
      </trkpt>
      <trkpt lat="59.8879982" lon="17.6955144">
        <ele>15.0377</ele>
        <time>2013-05-25T16:21:02Z</time>
      </trkpt>
      <trkpt lat="59.8879198" lon="17.6954049">
        <ele>15.0377</ele>
        <time>2013-05-25T16:21:03Z</time>
      </trkpt>
      <trkpt lat="59.887842" lon="17.6952958">
        <ele>14.557</ele>
        <time>2013-05-25T16:21:04Z</time>
      </trkpt>
      <trkpt lat="59.8877643" lon="17.6951917">
        <ele>14.557</ele>
        <time>2013-05-25T16:21:05Z</time>
      </trkpt>
      <trkpt lat="59.8876865" lon="17.6950939">
        <ele>14.0764</ele>
        <time>2013-05-25T16:21:06Z</time>
      </trkpt>
      <trkpt lat="59.8876078" lon="17.6950053">
        <ele>14.0764</ele>
        <time>2013-05-25T16:21:07Z</time>
      </trkpt>
      <trkpt lat="59.8875274" lon="17.6949294">
        <ele>14.0764</ele>
        <time>2013-05-25T16:21:08Z</time>
      </trkpt>
      <trkpt lat="59.887446" lon="17.6948627">
        <ele>14.0764</ele>
        <time>2013-05-25T16:21:09Z</time>
      </trkpt>
      <trkpt lat="59.8873654" lon="17.6948059">
        <ele>14.0764</ele>
        <time>2013-05-25T16:21:10Z</time>
      </trkpt>
      <trkpt lat="59.887284" lon="17.6947617">
        <ele>14.0764</ele>
        <time>2013-05-25T16:21:11Z</time>
      </trkpt>
      <trkpt lat="59.8872017" lon="17.6947283">
        <ele>14.557</ele>
        <time>2013-05-25T16:21:12Z</time>
      </trkpt>
      <trkpt lat="59.8871204" lon="17.6946981">
        <ele>14.557</ele>
        <time>2013-05-25T16:21:13Z</time>
      </trkpt>
      <trkpt lat="59.8870421" lon="17.694655">
        <ele>14.557</ele>
        <time>2013-05-25T16:21:14Z</time>
      </trkpt>
      <trkpt lat="59.8869701" lon="17.6945869">
        <ele>14.557</ele>
        <time>2013-05-25T16:21:15Z</time>
      </trkpt>
      <trkpt lat="59.8869106" lon="17.6944973">
        <ele>14.557</ele>
        <time>2013-05-25T16:21:16Z</time>
      </trkpt>
      <trkpt lat="59.8868648" lon="17.6943777">
        <ele>14.557</ele>
        <time>2013-05-25T16:21:17Z</time>
      </trkpt>
      <trkpt lat="59.886835" lon="17.6942375">
        <ele>14.557</ele>
        <time>2013-05-25T16:21:18Z</time>
      </trkpt>
      <trkpt lat="59.88682" lon="17.6940863">
        <ele>15.0377</ele>
        <time>2013-05-25T16:21:19Z</time>
      </trkpt>
      <trkpt lat="59.88681" lon="17.6939311">
        <ele>13.5958</ele>
        <time>2013-05-25T16:21:20Z</time>
      </trkpt>
      <trkpt lat="59.8867935" lon="17.6937882">
        <ele>13.5958</ele>
        <time>2013-05-25T16:21:21Z</time>
      </trkpt>
      <trkpt lat="59.8867629" lon="17.6936845">
        <ele>14.0764</ele>
        <time>2013-05-25T16:21:22Z</time>
      </trkpt>
      <trkpt lat="59.8866946" lon="17.6935848">
        <ele>14.0764</ele>
        <time>2013-05-25T16:21:23Z</time>
      </trkpt>
      <trkpt lat="59.886612" lon="17.6934953">
        <ele>14.0764</ele>
        <time>2013-05-25T16:21:24Z</time>
      </trkpt>
      <trkpt lat="59.8865356" lon="17.693403">
        <ele>13.5958</ele>
        <time>2013-05-25T16:21:25Z</time>
      </trkpt>
      <trkpt lat="59.8864624" lon="17.6933015">
        <ele>13.5958</ele>
        <time>2013-05-25T16:21:26Z</time>
      </trkpt>
      <trkpt lat="59.886387" lon="17.6932022">
        <ele>13.5958</ele>
        <time>2013-05-25T16:21:27Z</time>
      </trkpt>
      <trkpt lat="59.8863092" lon="17.6931034">
        <ele>13.5958</ele>
        <time>2013-05-25T16:21:28Z</time>
      </trkpt>
      <trkpt lat="59.8862342" lon="17.6929989">
        <ele>13.5958</ele>
        <time>2013-05-25T16:21:29Z</time>
      </trkpt>
      <trkpt lat="59.88616" lon="17.692893">
        <ele>13.5958</ele>
        <time>2013-05-25T16:21:30Z</time>
      </trkpt>
      <trkpt lat="59.8860826" lon="17.6927955">
        <ele>13.5958</ele>
        <time>2013-05-25T16:21:31Z</time>
      </trkpt>
      <trkpt lat="59.886006" lon="17.6926961">
        <ele>14.0764</ele>
        <time>2013-05-25T16:21:32Z</time>
      </trkpt>
      <trkpt lat="59.8859311" lon="17.6925898">
        <ele>14.0764</ele>
        <time>2013-05-25T16:21:33Z</time>
      </trkpt>
      <trkpt lat="59.885858" lon="17.692478">
        <ele>13.5958</ele>
        <time>2013-05-25T16:21:34Z</time>
      </trkpt>
      <trkpt lat="59.8857829" lon="17.692373">
        <ele>13.1151</ele>
        <time>2013-05-25T16:21:35Z</time>
      </trkpt>
      <trkpt lat="59.8857086" lon="17.6922699">
        <ele>13.1151</ele>
        <time>2013-05-25T16:21:36Z</time>
      </trkpt>
      <trkpt lat="59.8856346" lon="17.6921675">
        <ele>13.1151</ele>
        <time>2013-05-25T16:21:37Z</time>
      </trkpt>
      <trkpt lat="59.8855605" lon="17.6920665">
        <ele>13.1151</ele>
        <time>2013-05-25T16:21:38Z</time>
      </trkpt>
      <trkpt lat="59.885486" lon="17.6919691">
        <ele>13.1151</ele>
        <time>2013-05-25T16:21:39Z</time>
      </trkpt>
      <trkpt lat="59.885412" lon="17.6918759">
        <ele>12.6344</ele>
        <time>2013-05-25T16:21:40Z</time>
      </trkpt>
      <trkpt lat="59.885341" lon="17.6917847">
        <ele>13.1151</ele>
        <time>2013-05-25T16:21:41Z</time>
      </trkpt>
      <trkpt lat="59.8852745" lon="17.6916917">
        <ele>13.1151</ele>
        <time>2013-05-25T16:21:42Z</time>
      </trkpt>
      <trkpt lat="59.8852109" lon="17.6915967">
        <ele>13.5958</ele>
        <time>2013-05-25T16:21:43Z</time>
      </trkpt>
      <trkpt lat="59.885147" lon="17.691501">
        <ele>13.5958</ele>
        <time>2013-05-25T16:21:44Z</time>
      </trkpt>
      <trkpt lat="59.8850818" lon="17.6914071">
        <ele>13.1151</ele>
        <time>2013-05-25T16:21:45Z</time>
      </trkpt>
      <trkpt lat="59.8850148" lon="17.6913185">
        <ele>13.1151</ele>
        <time>2013-05-25T16:21:46Z</time>
      </trkpt>
      <trkpt lat="59.8849466" lon="17.6912302">
        <ele>12.6344</ele>
        <time>2013-05-25T16:21:47Z</time>
      </trkpt>
      <trkpt lat="59.8848789" lon="17.6911421">
        <ele>12.6344</ele>
        <time>2013-05-25T16:21:48Z</time>
      </trkpt>
      <trkpt lat="59.8848111" lon="17.6910541">
        <ele>12.6344</ele>
        <time>2013-05-25T16:21:49Z</time>
      </trkpt>
      <trkpt lat="59.8847444" lon="17.6909637">
        <ele>12.6344</ele>
        <time>2013-05-25T16:21:50Z</time>
      </trkpt>
      <trkpt lat="59.8846809" lon="17.6908746">
        <ele>12.6344</ele>
        <time>2013-05-25T16:21:51Z</time>
      </trkpt>
      <trkpt lat="59.8846163" lon="17.6907867">
        <ele>12.6344</ele>
        <time>2013-05-25T16:21:52Z</time>
      </trkpt>
      <trkpt lat="59.8845511" lon="17.6907005">
        <ele>13.1151</ele>
        <time>2013-05-25T16:21:53Z</time>
      </trkpt>
      <trkpt lat="59.8844858" lon="17.6906131">
        <ele>13.1151</ele>
        <time>2013-05-25T16:21:54Z</time>
      </trkpt>
      <trkpt lat="59.8844205" lon="17.690526">
        <ele>13.1151</ele>
        <time>2013-05-25T16:21:55Z</time>
      </trkpt>
      <trkpt lat="59.8843542" lon="17.6904392">
        <ele>13.1151</ele>
        <time>2013-05-25T16:21:56Z</time>
      </trkpt>
      <trkpt lat="59.8842878" lon="17.6903488">
        <ele>13.1151</ele>
        <time>2013-05-25T16:21:57Z</time>
      </trkpt>
      <trkpt lat="59.8842212" lon="17.6902547">
        <ele>13.5958</ele>
        <time>2013-05-25T16:21:58Z</time>
      </trkpt>
      <trkpt lat="59.8841523" lon="17.6901615">
        <ele>13.5958</ele>
        <time>2013-05-25T16:21:59Z</time>
      </trkpt>
      <trkpt lat="59.8840821" lon="17.6900708">
        <ele>13.5958</ele>
        <time>2013-05-25T16:22:00Z</time>
      </trkpt>
      <trkpt lat="59.8840114" lon="17.689978">
        <ele>13.5958</ele>
        <time>2013-05-25T16:22:01Z</time>
      </trkpt>
      <trkpt lat="59.8839398" lon="17.6898926">
        <ele>14.0764</ele>
        <time>2013-05-25T16:22:02Z</time>
      </trkpt>
      <trkpt lat="59.8838686" lon="17.6898096">
        <ele>15.0377</ele>
        <time>2013-05-25T16:22:03Z</time>
      </trkpt>
      <trkpt lat="59.8837984" lon="17.68972">
        <ele>15.5184</ele>
        <time>2013-05-25T16:22:04Z</time>
      </trkpt>
      <trkpt lat="59.8837269" lon="17.6896267">
        <ele>16.4797</ele>
        <time>2013-05-25T16:22:05Z</time>
      </trkpt>
      <trkpt lat="59.8836539" lon="17.689532">
        <ele>16.9604</ele>
        <time>2013-05-25T16:22:06Z</time>
      </trkpt>
      <trkpt lat="59.8835799" lon="17.6894378">
        <ele>16.9604</ele>
        <time>2013-05-25T16:22:07Z</time>
      </trkpt>
      <trkpt lat="59.8835088" lon="17.6893494">
        <ele>17.9218</ele>
        <time>2013-05-25T16:22:08Z</time>
      </trkpt>
      <trkpt lat="59.8834342" lon="17.6892568">
        <ele>18.4023</ele>
        <time>2013-05-25T16:22:09Z</time>
      </trkpt>
      <trkpt lat="59.8833586" lon="17.6891581">
        <ele>18.4023</ele>
        <time>2013-05-25T16:22:10Z</time>
      </trkpt>
      <trkpt lat="59.8832818" lon="17.6890628">
        <ele>18.4023</ele>
        <time>2013-05-25T16:22:11Z</time>
      </trkpt>
      <trkpt lat="59.8832068" lon="17.688964">
        <ele>18.4023</ele>
        <time>2013-05-25T16:22:12Z</time>
      </trkpt>
      <trkpt lat="59.8831316" lon="17.6888658">
        <ele>18.4023</ele>
        <time>2013-05-25T16:22:13Z</time>
      </trkpt>
      <trkpt lat="59.8830559" lon="17.6887665">
        <ele>18.4023</ele>
        <time>2013-05-25T16:22:14Z</time>
      </trkpt>
      <trkpt lat="59.8829804" lon="17.6886689">
        <ele>18.8831</ele>
        <time>2013-05-25T16:22:15Z</time>
      </trkpt>
      <trkpt lat="59.8829056" lon="17.6885705">
        <ele>19.3638</ele>
        <time>2013-05-25T16:22:16Z</time>
      </trkpt>
      <trkpt lat="59.8828312" lon="17.6884701">
        <ele>19.3638</ele>
        <time>2013-05-25T16:22:17Z</time>
      </trkpt>
      <trkpt lat="59.8827556" lon="17.6883697">
        <ele>20.325</ele>
        <time>2013-05-25T16:22:18Z</time>
      </trkpt>
      <trkpt lat="59.8826837" lon="17.6882697">
        <ele>20.8057</ele>
        <time>2013-05-25T16:22:19Z</time>
      </trkpt>
      <trkpt lat="59.8826131" lon="17.6881739">
        <ele>21.2864</ele>
        <time>2013-05-25T16:22:20Z</time>
      </trkpt>
      <trkpt lat="59.8825432" lon="17.6880799">
        <ele>21.767</ele>
        <time>2013-05-25T16:22:21Z</time>
      </trkpt>
      <trkpt lat="59.882475" lon="17.6879872">
        <ele>22.7283</ele>
        <time>2013-05-25T16:22:22Z</time>
      </trkpt>
      <trkpt lat="59.8824073" lon="17.6878973">
        <ele>23.209</ele>
        <time>2013-05-25T16:22:23Z</time>
      </trkpt>
      <trkpt lat="59.8823405" lon="17.6878049">
        <ele>23.6896</ele>
        <time>2013-05-25T16:22:24Z</time>
      </trkpt>
      <trkpt lat="59.8822742" lon="17.687715">
        <ele>24.1703</ele>
        <time>2013-05-25T16:22:25Z</time>
      </trkpt>
      <trkpt lat="59.8822091" lon="17.6876267">
        <ele>24.1703</ele>
        <time>2013-05-25T16:22:26Z</time>
      </trkpt>
      <trkpt lat="59.8821458" lon="17.6875414">
        <ele>24.651</ele>
        <time>2013-05-25T16:22:27Z</time>
      </trkpt>
      <trkpt lat="59.8820839" lon="17.6874578">
        <ele>24.651</ele>
        <time>2013-05-25T16:22:28Z</time>
      </trkpt>
      <trkpt lat="59.8820231" lon="17.6873729">
        <ele>24.651</ele>
        <time>2013-05-25T16:22:29Z</time>
      </trkpt>
      <trkpt lat="59.881961" lon="17.687291">
        <ele>24.651</ele>
        <time>2013-05-25T16:22:30Z</time>
      </trkpt>
      <trkpt lat="59.8819" lon="17.6872126">
        <ele>25.1317</ele>
        <time>2013-05-25T16:22:31Z</time>
      </trkpt>
      <trkpt lat="59.8818413" lon="17.6871279">
        <ele>25.1317</ele>
        <time>2013-05-25T16:22:32Z</time>
      </trkpt>
      <trkpt lat="59.8817813" lon="17.6870528">
        <ele>26.0929</ele>
        <time>2013-05-25T16:22:33Z</time>
      </trkpt>
      <trkpt lat="59.881722" lon="17.6869779">
        <ele>26.0929</ele>
        <time>2013-05-25T16:22:34Z</time>
      </trkpt>
      <trkpt lat="59.8816647" lon="17.6868966">
        <ele>26.0929</ele>
        <time>2013-05-25T16:22:35Z</time>
      </trkpt>
      <trkpt lat="59.881608" lon="17.6868152">
        <ele>26.0929</ele>
        <time>2013-05-25T16:22:36Z</time>
      </trkpt>
      <trkpt lat="59.881551" lon="17.6867354">
        <ele>26.0929</ele>
        <time>2013-05-25T16:22:37Z</time>
      </trkpt>
      <trkpt lat="59.8814931" lon="17.6866586">
        <ele>26.5736</ele>
        <time>2013-05-25T16:22:38Z</time>
      </trkpt>
      <trkpt lat="59.8814342" lon="17.686581">
        <ele>27.0543</ele>
        <time>2013-05-25T16:22:39Z</time>
      </trkpt>
      <trkpt lat="59.8813751" lon="17.6865005">
        <ele>27.0543</ele>
        <time>2013-05-25T16:22:40Z</time>
      </trkpt>
      <trkpt lat="59.8813161" lon="17.6864167">
        <ele>26.5736</ele>
        <time>2013-05-25T16:22:41Z</time>
      </trkpt>
      <trkpt lat="59.8812554" lon="17.6863345">
        <ele>26.5736</ele>
        <time>2013-05-25T16:22:42Z</time>
      </trkpt>
      <trkpt lat="59.8811937" lon="17.6862521">
        <ele>26.5736</ele>
        <time>2013-05-25T16:22:43Z</time>
      </trkpt>
      <trkpt lat="59.8811321" lon="17.6861716">
        <ele>26.5736</ele>
        <time>2013-05-25T16:22:44Z</time>
      </trkpt>
      <trkpt lat="59.8810669" lon="17.686089">
        <ele>26.5736</ele>
        <time>2013-05-25T16:22:45Z</time>
      </trkpt>
      <trkpt lat="59.8809991" lon="17.6860066">
        <ele>27.0543</ele>
        <time>2013-05-25T16:22:46Z</time>
      </trkpt>
      <trkpt lat="59.8809322" lon="17.6859164">
        <ele>26.5736</ele>
        <time>2013-05-25T16:22:47Z</time>
      </trkpt>
      <trkpt lat="59.8808636" lon="17.6858247">
        <ele>26.0929</ele>
        <time>2013-05-25T16:22:48Z</time>
      </trkpt>
      <trkpt lat="59.8807935" lon="17.6857299">
        <ele>26.0929</ele>
        <time>2013-05-25T16:22:49Z</time>
      </trkpt>
      <trkpt lat="59.880721" lon="17.6856411">
        <ele>26.0929</ele>
        <time>2013-05-25T16:22:50Z</time>
      </trkpt>
      <trkpt lat="59.8806494" lon="17.6855466">
        <ele>26.0929</ele>
        <time>2013-05-25T16:22:51Z</time>
      </trkpt>
      <trkpt lat="59.8805763" lon="17.6854507">
        <ele>26.5736</ele>
        <time>2013-05-25T16:22:52Z</time>
      </trkpt>
      <trkpt lat="59.8805016" lon="17.6853549">
        <ele>26.5736</ele>
        <time>2013-05-25T16:22:53Z</time>
      </trkpt>
      <trkpt lat="59.8804259" lon="17.6852574">
        <ele>26.5736</ele>
        <time>2013-05-25T16:22:54Z</time>
      </trkpt>
      <trkpt lat="59.8803504" lon="17.6851586">
        <ele>27.0543</ele>
        <time>2013-05-25T16:22:55Z</time>
      </trkpt>
      <trkpt lat="59.8802762" lon="17.6850613">
        <ele>27.5349</ele>
        <time>2013-05-25T16:22:56Z</time>
      </trkpt>
      <trkpt lat="59.8802028" lon="17.6849585">
        <ele>27.5349</ele>
        <time>2013-05-25T16:22:57Z</time>
      </trkpt>
      <trkpt lat="59.8801292" lon="17.6848565">
        <ele>27.5349</ele>
        <time>2013-05-25T16:22:58Z</time>
      </trkpt>
      <trkpt lat="59.880054" lon="17.6847572">
        <ele>27.5349</ele>
        <time>2013-05-25T16:22:59Z</time>
      </trkpt>
      <trkpt lat="59.8799791" lon="17.6846591">
        <ele>28.0155</ele>
        <time>2013-05-25T16:23:00Z</time>
      </trkpt>
      <trkpt lat="59.8799046" lon="17.6845613">
        <ele>28.0155</ele>
        <time>2013-05-25T16:23:01Z</time>
      </trkpt>
      <trkpt lat="59.8798328" lon="17.6844643">
        <ele>28.4962</ele>
        <time>2013-05-25T16:23:02Z</time>
      </trkpt>
      <trkpt lat="59.8797625" lon="17.6843676">
        <ele>28.9769</ele>
        <time>2013-05-25T16:23:03Z</time>
      </trkpt>
      <trkpt lat="59.8796926" lon="17.6842733">
        <ele>29.4575</ele>
        <time>2013-05-25T16:23:04Z</time>
      </trkpt>
      <trkpt lat="59.8796206" lon="17.6841764">
        <ele>29.4575</ele>
        <time>2013-05-25T16:23:05Z</time>
      </trkpt>
      <trkpt lat="59.879549" lon="17.6840806">
        <ele>29.9381</ele>
        <time>2013-05-25T16:23:06Z</time>
      </trkpt>
      <trkpt lat="59.8794761" lon="17.6839906">
        <ele>30.4188</ele>
        <time>2013-05-25T16:23:07Z</time>
      </trkpt>
      <trkpt lat="59.879402" lon="17.6839056">
        <ele>30.8995</ele>
        <time>2013-05-25T16:23:08Z</time>
      </trkpt>
      <trkpt lat="59.8793274" lon="17.6838226">
        <ele>31.3801</ele>
        <time>2013-05-25T16:23:09Z</time>
      </trkpt>
      <trkpt lat="59.8792526" lon="17.6837396">
        <ele>31.8607</ele>
        <time>2013-05-25T16:23:10Z</time>
      </trkpt>
      <trkpt lat="59.879178" lon="17.6836582">
        <ele>31.8607</ele>
        <time>2013-05-25T16:23:11Z</time>
      </trkpt>
      <trkpt lat="59.8791055" lon="17.6835739">
        <ele>31.8607</ele>
        <time>2013-05-25T16:23:12Z</time>
      </trkpt>
      <trkpt lat="59.8790379" lon="17.6834854">
        <ele>31.8607</ele>
        <time>2013-05-25T16:23:13Z</time>
      </trkpt>
      <trkpt lat="59.8789752" lon="17.6833983">
        <ele>31.8607</ele>
        <time>2013-05-25T16:23:14Z</time>
      </trkpt>
      <trkpt lat="59.8789146" lon="17.6833104">
        <ele>32.3416</ele>
        <time>2013-05-25T16:23:15Z</time>
      </trkpt>
      <trkpt lat="59.8788565" lon="17.6832231">
        <ele>32.3416</ele>
        <time>2013-05-25T16:23:16Z</time>
      </trkpt>
      <trkpt lat="59.8787996" lon="17.6831391">
        <ele>32.3416</ele>
        <time>2013-05-25T16:23:17Z</time>
      </trkpt>
      <trkpt lat="59.8787441" lon="17.6830612">
        <ele>32.3416</ele>
        <time>2013-05-25T16:23:18Z</time>
      </trkpt>
      <trkpt lat="59.8786903" lon="17.6829809">
        <ele>32.3416</ele>
        <time>2013-05-25T16:23:19Z</time>
      </trkpt>
      <trkpt lat="59.8786389" lon="17.6829026">
        <ele>32.3416</ele>
        <time>2013-05-25T16:23:20Z</time>
      </trkpt>
      <trkpt lat="59.8785886" lon="17.6828331">
        <ele>32.3416</ele>
        <time>2013-05-25T16:23:21Z</time>
      </trkpt>
      <trkpt lat="59.8785431" lon="17.6827546">
        <ele>31.8607</ele>
        <time>2013-05-25T16:23:22Z</time>
      </trkpt>
      <trkpt lat="59.8784994" lon="17.6826712">
        <ele>31.8607</ele>
        <time>2013-05-25T16:23:23Z</time>
      </trkpt>
      <trkpt lat="59.878451" lon="17.682583">
        <ele>31.3801</ele>
        <time>2013-05-25T16:23:24Z</time>
      </trkpt>
      <trkpt lat="59.8784017" lon="17.6824909">
        <ele>30.8995</ele>
        <time>2013-05-25T16:23:25Z</time>
      </trkpt>
      <trkpt lat="59.8783556" lon="17.6823969">
        <ele>30.8995</ele>
        <time>2013-05-25T16:23:26Z</time>
      </trkpt>
      <trkpt lat="59.8783148" lon="17.6822975">
        <ele>30.4188</ele>
        <time>2013-05-25T16:23:27Z</time>
      </trkpt>
      <trkpt lat="59.8782768" lon="17.6821961">
        <ele>29.9381</ele>
        <time>2013-05-25T16:23:28Z</time>
      </trkpt>
      <trkpt lat="59.878236" lon="17.6820992">
        <ele>29.4575</ele>
        <time>2013-05-25T16:23:29Z</time>
      </trkpt>
      <trkpt lat="59.8781928" lon="17.6820021">
        <ele>28.4962</ele>
        <time>2013-05-25T16:23:30Z</time>
      </trkpt>
      <trkpt lat="59.8781525" lon="17.6819059">
        <ele>28.0155</ele>
        <time>2013-05-25T16:23:31Z</time>
      </trkpt>
      <trkpt lat="59.8781153" lon="17.6818076">
        <ele>27.5349</ele>
        <time>2013-05-25T16:23:32Z</time>
      </trkpt>
      <trkpt lat="59.8780765" lon="17.6817091">
        <ele>27.0543</ele>
        <time>2013-05-25T16:23:33Z</time>
      </trkpt>
      <trkpt lat="59.8780365" lon="17.6816079">
        <ele>26.0929</ele>
        <time>2013-05-25T16:23:34Z</time>
      </trkpt>
      <trkpt lat="59.877997" lon="17.6815095">
        <ele>25.6123</ele>
        <time>2013-05-25T16:23:35Z</time>
      </trkpt>
      <trkpt lat="59.8779597" lon="17.6814087">
        <ele>24.1703</ele>
        <time>2013-05-25T16:23:36Z</time>
      </trkpt>
      <trkpt lat="59.8779184" lon="17.6813103">
        <ele>24.1703</ele>
        <time>2013-05-25T16:23:37Z</time>
      </trkpt>
      <trkpt lat="59.8778759" lon="17.6812111">
        <ele>23.209</ele>
        <time>2013-05-25T16:23:38Z</time>
      </trkpt>
      <trkpt lat="59.8778315" lon="17.6811102">
        <ele>22.7283</ele>
        <time>2013-05-25T16:23:39Z</time>
      </trkpt>
      <trkpt lat="59.8777864" lon="17.6810082">
        <ele>22.7283</ele>
        <time>2013-05-25T16:23:40Z</time>
      </trkpt>
      <trkpt lat="59.8777401" lon="17.6809051">
        <ele>22.7283</ele>
        <time>2013-05-25T16:23:41Z</time>
      </trkpt>
      <trkpt lat="59.8776941" lon="17.6808042">
        <ele>22.2476</ele>
        <time>2013-05-25T16:23:42Z</time>
      </trkpt>
      <trkpt lat="59.8776506" lon="17.6807064">
        <ele>22.7283</ele>
        <time>2013-05-25T16:23:43Z</time>
      </trkpt>
      <trkpt lat="59.8776096" lon="17.6806138">
        <ele>22.7283</ele>
        <time>2013-05-25T16:23:44Z</time>
      </trkpt>
      <trkpt lat="59.8775673" lon="17.6805204">
        <ele>22.7283</ele>
        <time>2013-05-25T16:23:45Z</time>
      </trkpt>
      <trkpt lat="59.8775235" lon="17.680424">
        <ele>22.7283</ele>
        <time>2013-05-25T16:23:46Z</time>
      </trkpt>
      <trkpt lat="59.8774786" lon="17.6803259">
        <ele>22.2476</ele>
        <time>2013-05-25T16:23:47Z</time>
      </trkpt>
      <trkpt lat="59.8774355" lon="17.68023">
        <ele>23.209</ele>
        <time>2013-05-25T16:23:48Z</time>
      </trkpt>
      <trkpt lat="59.8773921" lon="17.6801582">
        <ele>22.7283</ele>
        <time>2013-05-25T16:23:49Z</time>
      </trkpt>
      <trkpt lat="59.8773531" lon="17.6801622">
        <ele>22.7283</ele>
        <time>2013-05-25T16:23:50Z</time>
      </trkpt>
      <trkpt lat="59.8773098" lon="17.6801974">
        <ele>23.209</ele>
        <time>2013-05-25T16:23:51Z</time>
      </trkpt>
      <trkpt lat="59.8772637" lon="17.6802483">
        <ele>23.209</ele>
        <time>2013-05-25T16:23:52Z</time>
      </trkpt>
      <trkpt lat="59.8772119" lon="17.6803114">
        <ele>23.6896</ele>
        <time>2013-05-25T16:23:53Z</time>
      </trkpt>
      <trkpt lat="59.877158" lon="17.6803918">
        <ele>23.6896</ele>
        <time>2013-05-25T16:23:54Z</time>
      </trkpt>
      <trkpt lat="59.8771052" lon="17.6804865">
        <ele>23.209</ele>
        <time>2013-05-25T16:23:55Z</time>
      </trkpt>
      <trkpt lat="59.877055" lon="17.6805952">
        <ele>23.209</ele>
        <time>2013-05-25T16:23:56Z</time>
      </trkpt>
      <trkpt lat="59.8770036" lon="17.6807125">
        <ele>22.7283</ele>
        <time>2013-05-25T16:23:57Z</time>
      </trkpt>
      <trkpt lat="59.8769538" lon="17.6808445">
        <ele>23.6896</ele>
        <time>2013-05-25T16:23:58Z</time>
      </trkpt>
      <trkpt lat="59.8769017" lon="17.6809693">
        <ele>24.1703</ele>
        <time>2013-05-25T16:23:59Z</time>
      </trkpt>
      <trkpt lat="59.8768506" lon="17.6810891">
        <ele>24.1703</ele>
        <time>2013-05-25T16:24:00Z</time>
      </trkpt>
      <trkpt lat="59.8767998" lon="17.6812083">
        <ele>24.651</ele>
        <time>2013-05-25T16:24:01Z</time>
      </trkpt>
      <trkpt lat="59.8767487" lon="17.6813251">
        <ele>24.651</ele>
        <time>2013-05-25T16:24:02Z</time>
      </trkpt>
      <trkpt lat="59.8766964" lon="17.6814378">
        <ele>25.1317</ele>
        <time>2013-05-25T16:24:03Z</time>
      </trkpt>
      <trkpt lat="59.876644" lon="17.6815507">
        <ele>25.6123</ele>
        <time>2013-05-25T16:24:04Z</time>
      </trkpt>
      <trkpt lat="59.8765923" lon="17.6816641">
        <ele>25.6123</ele>
        <time>2013-05-25T16:24:05Z</time>
      </trkpt>
      <trkpt lat="59.8765405" lon="17.6817783">
        <ele>26.0929</ele>
        <time>2013-05-25T16:24:06Z</time>
      </trkpt>
      <trkpt lat="59.8764887" lon="17.681893">
        <ele>26.5736</ele>
        <time>2013-05-25T16:24:07Z</time>
      </trkpt>
      <trkpt lat="59.8764368" lon="17.6820074">
        <ele>26.5736</ele>
        <time>2013-05-25T16:24:08Z</time>
      </trkpt>
      <trkpt lat="59.8763836" lon="17.6821199">
        <ele>27.0543</ele>
        <time>2013-05-25T16:24:09Z</time>
      </trkpt>
      <trkpt lat="59.8763302" lon="17.6822327">
        <ele>27.0543</ele>
        <time>2013-05-25T16:24:10Z</time>
      </trkpt>
      <trkpt lat="59.8762774" lon="17.6823498">
        <ele>27.5349</ele>
        <time>2013-05-25T16:24:11Z</time>
      </trkpt>
      <trkpt lat="59.8762236" lon="17.6824727">
        <ele>27.5349</ele>
        <time>2013-05-25T16:24:12Z</time>
      </trkpt>
      <trkpt lat="59.8761695" lon="17.6825963">
        <ele>27.0543</ele>
        <time>2013-05-25T16:24:13Z</time>
      </trkpt>
      <trkpt lat="59.8761128" lon="17.6827202">
        <ele>27.0543</ele>
        <time>2013-05-25T16:24:14Z</time>
      </trkpt>
      <trkpt lat="59.8760547" lon="17.682843">
        <ele>27.0543</ele>
        <time>2013-05-25T16:24:15Z</time>
      </trkpt>
      <trkpt lat="59.8759971" lon="17.6829678">
        <ele>27.0543</ele>
        <time>2013-05-25T16:24:16Z</time>
      </trkpt>
      <trkpt lat="59.8759392" lon="17.6830949">
        <ele>27.0543</ele>
        <time>2013-05-25T16:24:17Z</time>
      </trkpt>
      <trkpt lat="59.8758795" lon="17.6832243">
        <ele>27.5349</ele>
        <time>2013-05-25T16:24:18Z</time>
      </trkpt>
      <trkpt lat="59.8758205" lon="17.6833517">
        <ele>27.5349</ele>
        <time>2013-05-25T16:24:19Z</time>
      </trkpt>
      <trkpt lat="59.8757628" lon="17.683478">
        <ele>27.5349</ele>
        <time>2013-05-25T16:24:20Z</time>
      </trkpt>
      <trkpt lat="59.8757046" lon="17.6836015">
        <ele>27.5349</ele>
        <time>2013-05-25T16:24:21Z</time>
      </trkpt>
      <trkpt lat="59.875647" lon="17.6837222">
        <ele>27.5349</ele>
        <time>2013-05-25T16:24:22Z</time>
      </trkpt>
      <trkpt lat="59.8755901" lon="17.6838478">
        <ele>27.5349</ele>
        <time>2013-05-25T16:24:23Z</time>
      </trkpt>
      <trkpt lat="59.8755344" lon="17.6839759">
        <ele>27.5349</ele>
        <time>2013-05-25T16:24:24Z</time>
      </trkpt>
      <trkpt lat="59.8754775" lon="17.6841026">
        <ele>27.5349</ele>
        <time>2013-05-25T16:24:25Z</time>
      </trkpt>
      <trkpt lat="59.8754193" lon="17.6842276">
        <ele>27.5349</ele>
        <time>2013-05-25T16:24:26Z</time>
      </trkpt>
      <trkpt lat="59.8753603" lon="17.6843521">
        <ele>27.5349</ele>
        <time>2013-05-25T16:24:27Z</time>
      </trkpt>
      <trkpt lat="59.8753005" lon="17.6844769">
        <ele>27.5349</ele>
        <time>2013-05-25T16:24:28Z</time>
      </trkpt>
      <trkpt lat="59.8752392" lon="17.6845991">
        <ele>27.0543</ele>
        <time>2013-05-25T16:24:29Z</time>
      </trkpt>
      <trkpt lat="59.8751779" lon="17.6847265">
        <ele>27.0543</ele>
        <time>2013-05-25T16:24:30Z</time>
      </trkpt>
      <trkpt lat="59.8751165" lon="17.6848567">
        <ele>26.5736</ele>
        <time>2013-05-25T16:24:31Z</time>
      </trkpt>
      <trkpt lat="59.8750563" lon="17.6849897">
        <ele>26.5736</ele>
        <time>2013-05-25T16:24:32Z</time>
      </trkpt>
      <trkpt lat="59.8749961" lon="17.6851232">
        <ele>26.5736</ele>
        <time>2013-05-25T16:24:33Z</time>
      </trkpt>
      <trkpt lat="59.874936" lon="17.6852527">
        <ele>26.5736</ele>
        <time>2013-05-25T16:24:34Z</time>
      </trkpt>
      <trkpt lat="59.8748755" lon="17.6853782">
        <ele>26.0929</ele>
        <time>2013-05-25T16:24:35Z</time>
      </trkpt>
      <trkpt lat="59.8748151" lon="17.6855051">
        <ele>26.0929</ele>
        <time>2013-05-25T16:24:36Z</time>
      </trkpt>
      <trkpt lat="59.8747552" lon="17.685635">
        <ele>26.0929</ele>
        <time>2013-05-25T16:24:37Z</time>
      </trkpt>
      <trkpt lat="59.8746943" lon="17.6857661">
        <ele>26.0929</ele>
        <time>2013-05-25T16:24:38Z</time>
      </trkpt>
      <trkpt lat="59.874633" lon="17.6858966">
        <ele>26.0929</ele>
        <time>2013-05-25T16:24:39Z</time>
      </trkpt>
      <trkpt lat="59.874571" lon="17.6860257">
        <ele>26.0929</ele>
        <time>2013-05-25T16:24:40Z</time>
      </trkpt>
      <trkpt lat="59.874509" lon="17.6861529">
        <ele>26.0929</ele>
        <time>2013-05-25T16:24:41Z</time>
      </trkpt>
      <trkpt lat="59.8744483" lon="17.6862785">
        <ele>26.0929</ele>
        <time>2013-05-25T16:24:42Z</time>
      </trkpt>
      <trkpt lat="59.8743892" lon="17.6864037">
        <ele>26.0929</ele>
        <time>2013-05-25T16:24:43Z</time>
      </trkpt>
      <trkpt lat="59.874332" lon="17.6865281">
        <ele>26.0929</ele>
        <time>2013-05-25T16:24:44Z</time>
      </trkpt>
      <trkpt lat="59.8742761" lon="17.686652">
        <ele>26.5736</ele>
        <time>2013-05-25T16:24:45Z</time>
      </trkpt>
      <trkpt lat="59.8742209" lon="17.6867745">
        <ele>26.5736</ele>
        <time>2013-05-25T16:24:46Z</time>
      </trkpt>
      <trkpt lat="59.8741668" lon="17.6868949">
        <ele>26.5736</ele>
        <time>2013-05-25T16:24:47Z</time>
      </trkpt>
      <trkpt lat="59.8741136" lon="17.6870126">
        <ele>26.5736</ele>
        <time>2013-05-25T16:24:48Z</time>
      </trkpt>
      <trkpt lat="59.8740622" lon="17.6871286">
        <ele>26.5736</ele>
        <time>2013-05-25T16:24:49Z</time>
      </trkpt>
      <trkpt lat="59.8740102" lon="17.6872368">
        <ele>26.0929</ele>
        <time>2013-05-25T16:24:50Z</time>
      </trkpt>
      <trkpt lat="59.8739511" lon="17.6873196">
        <ele>26.5736</ele>
        <time>2013-05-25T16:24:51Z</time>
      </trkpt>
      <trkpt lat="59.8738858" lon="17.6873666">
        <ele>26.5736</ele>
        <time>2013-05-25T16:24:52Z</time>
      </trkpt>
      <trkpt lat="59.8738189" lon="17.6873638">
        <ele>27.0543</ele>
        <time>2013-05-25T16:24:53Z</time>
      </trkpt>
      <trkpt lat="59.8737571" lon="17.6873155">
        <ele>26.0929</ele>
        <time>2013-05-25T16:24:54Z</time>
      </trkpt>
      <trkpt lat="59.873705" lon="17.6872273">
        <ele>25.1317</ele>
        <time>2013-05-25T16:24:55Z</time>
      </trkpt>
      <trkpt lat="59.8736707" lon="17.6871">
        <ele>23.6896</ele>
        <time>2013-05-25T16:24:56Z</time>
      </trkpt>
      <trkpt lat="59.8736522" lon="17.6869507">
        <ele>22.7283</ele>
        <time>2013-05-25T16:24:57Z</time>
      </trkpt>
      <trkpt lat="59.8736343" lon="17.6867949">
        <ele>21.2864</ele>
        <time>2013-05-25T16:24:58Z</time>
      </trkpt>
      <trkpt lat="59.873607" lon="17.6866447">
        <ele>20.8057</ele>
        <time>2013-05-25T16:24:59Z</time>
      </trkpt>
      <trkpt lat="59.873576" lon="17.6864954">
        <ele>20.325</ele>
        <time>2013-05-25T16:25:00Z</time>
      </trkpt>
      <trkpt lat="59.8735418" lon="17.6863469">
        <ele>19.3638</ele>
        <time>2013-05-25T16:25:01Z</time>
      </trkpt>
      <trkpt lat="59.8735095" lon="17.6861939">
        <ele>18.8831</ele>
        <time>2013-05-25T16:25:02Z</time>
      </trkpt>
      <trkpt lat="59.8734764" lon="17.6860401">
        <ele>18.4023</ele>
        <time>2013-05-25T16:25:03Z</time>
      </trkpt>
      <trkpt lat="59.8734445" lon="17.6858837">
        <ele>17.4412</ele>
        <time>2013-05-25T16:25:04Z</time>
      </trkpt>
      <trkpt lat="59.8734119" lon="17.6857271">
        <ele>16.9604</ele>
        <time>2013-05-25T16:25:05Z</time>
      </trkpt>
      <trkpt lat="59.8733759" lon="17.6855713">
        <ele>16.9604</ele>
        <time>2013-05-25T16:25:06Z</time>
      </trkpt>
      <trkpt lat="59.8733356" lon="17.6854166">
        <ele>17.4412</ele>
        <time>2013-05-25T16:25:07Z</time>
      </trkpt>
      <trkpt lat="59.8732955" lon="17.6852609">
        <ele>17.4412</ele>
        <time>2013-05-25T16:25:08Z</time>
      </trkpt>
      <trkpt lat="59.8732569" lon="17.6851012">
        <ele>16.9604</ele>
        <time>2013-05-25T16:25:09Z</time>
      </trkpt>
      <trkpt lat="59.873217" lon="17.6849427">
        <ele>16.9604</ele>
        <time>2013-05-25T16:25:10Z</time>
      </trkpt>
      <trkpt lat="59.8731776" lon="17.6847815">
        <ele>16.4797</ele>
        <time>2013-05-25T16:25:11Z</time>
      </trkpt>
      <trkpt lat="59.8731386" lon="17.6846198">
        <ele>15.999</ele>
        <time>2013-05-25T16:25:12Z</time>
      </trkpt>
      <trkpt lat="59.8730983" lon="17.6844561">
        <ele>15.5184</ele>
        <time>2013-05-25T16:25:13Z</time>
      </trkpt>
      <trkpt lat="59.8730574" lon="17.6842919">
        <ele>15.0377</ele>
        <time>2013-05-25T16:25:14Z</time>
      </trkpt>
      <trkpt lat="59.8730155" lon="17.6841277">
        <ele>14.557</ele>
        <time>2013-05-25T16:25:15Z</time>
      </trkpt>
      <trkpt lat="59.8729748" lon="17.6839614">
        <ele>14.557</ele>
        <time>2013-05-25T16:25:16Z</time>
      </trkpt>
      <trkpt lat="59.8729351" lon="17.683793">
        <ele>14.0764</ele>
        <time>2013-05-25T16:25:17Z</time>
      </trkpt>
      <trkpt lat="59.872894" lon="17.6836214">
        <ele>13.5958</ele>
        <time>2013-05-25T16:25:18Z</time>
      </trkpt>
      <trkpt lat="59.8728526" lon="17.6834463">
        <ele>13.5958</ele>
        <time>2013-05-25T16:25:19Z</time>
      </trkpt>
      <trkpt lat="59.872811" lon="17.6832668">
        <ele>13.5958</ele>
        <time>2013-05-25T16:25:20Z</time>
      </trkpt>
      <trkpt lat="59.8727715" lon="17.6830856">
        <ele>13.5958</ele>
        <time>2013-05-25T16:25:21Z</time>
      </trkpt>
      <trkpt lat="59.8727372" lon="17.682899">
        <ele>13.5958</ele>
        <time>2013-05-25T16:25:22Z</time>
      </trkpt>
      <trkpt lat="59.8727096" lon="17.6827078">
        <ele>13.1151</ele>
        <time>2013-05-25T16:25:23Z</time>
      </trkpt>
      <trkpt lat="59.8726854" lon="17.6825136">
        <ele>13.5958</ele>
        <time>2013-05-25T16:25:24Z</time>
      </trkpt>
      <trkpt lat="59.8726594" lon="17.6823186">
        <ele>13.5958</ele>
        <time>2013-05-25T16:25:25Z</time>
      </trkpt>
      <trkpt lat="59.8726383" lon="17.6821247">
        <ele>13.5958</ele>
        <time>2013-05-25T16:25:26Z</time>
      </trkpt>
      <trkpt lat="59.8726166" lon="17.6819339">
        <ele>14.0764</ele>
        <time>2013-05-25T16:25:27Z</time>
      </trkpt>
      <trkpt lat="59.8725973" lon="17.6817475">
        <ele>13.5958</ele>
        <time>2013-05-25T16:25:28Z</time>
      </trkpt>
      <trkpt lat="59.8725716" lon="17.6815652">
        <ele>13.5958</ele>
        <time>2013-05-25T16:25:29Z</time>
      </trkpt>
      <trkpt lat="59.8725492" lon="17.6813934">
        <ele>14.0764</ele>
        <time>2013-05-25T16:25:30Z</time>
      </trkpt>
      <trkpt lat="59.872531" lon="17.6812269">
        <ele>14.0764</ele>
        <time>2013-05-25T16:25:31Z</time>
      </trkpt>
      <trkpt lat="59.8725124" lon="17.6810663">
        <ele>14.0764</ele>
        <time>2013-05-25T16:25:32Z</time>
      </trkpt>
      <trkpt lat="59.8724917" lon="17.6809098">
        <ele>14.557</ele>
        <time>2013-05-25T16:25:33Z</time>
      </trkpt>
      <trkpt lat="59.872472" lon="17.6807559">
        <ele>14.557</ele>
        <time>2013-05-25T16:25:34Z</time>
      </trkpt>
      <trkpt lat="59.872455" lon="17.6806052">
        <ele>14.557</ele>
        <time>2013-05-25T16:25:35Z</time>
      </trkpt>
      <trkpt lat="59.8724395" lon="17.6804592">
        <ele>14.0764</ele>
        <time>2013-05-25T16:25:36Z</time>
      </trkpt>
      <trkpt lat="59.8724255" lon="17.6803168">
        <ele>14.0764</ele>
        <time>2013-05-25T16:25:37Z</time>
      </trkpt>
      <trkpt lat="59.8724129" lon="17.6801787">
        <ele>14.0764</ele>
        <time>2013-05-25T16:25:38Z</time>
      </trkpt>
      <trkpt lat="59.8724015" lon="17.6800448">
        <ele>13.5958</ele>
        <time>2013-05-25T16:25:39Z</time>
      </trkpt>
      <trkpt lat="59.8723897" lon="17.6799151">
        <ele>14.0764</ele>
        <time>2013-05-25T16:25:40Z</time>
      </trkpt>
      <trkpt lat="59.8723799" lon="17.6797874">
        <ele>13.5958</ele>
        <time>2013-05-25T16:25:41Z</time>
      </trkpt>
      <trkpt lat="59.8723689" lon="17.6796626">
        <ele>14.0764</ele>
        <time>2013-05-25T16:25:42Z</time>
      </trkpt>
      <trkpt lat="59.8723585" lon="17.6795426">
        <ele>13.5958</ele>
        <time>2013-05-25T16:25:43Z</time>
      </trkpt>
      <trkpt lat="59.8723462" lon="17.6794286">
        <ele>13.5958</ele>
        <time>2013-05-25T16:25:44Z</time>
      </trkpt>
      <trkpt lat="59.8723323" lon="17.6793201">
        <ele>13.5958</ele>
        <time>2013-05-25T16:25:45Z</time>
      </trkpt>
      <trkpt lat="59.872319" lon="17.6792159">
        <ele>13.5958</ele>
        <time>2013-05-25T16:25:46Z</time>
      </trkpt>
      <trkpt lat="59.8723078" lon="17.6791154">
        <ele>13.5958</ele>
        <time>2013-05-25T16:25:47Z</time>
      </trkpt>
      <trkpt lat="59.8722939" lon="17.67902">
        <ele>13.5958</ele>
        <time>2013-05-25T16:25:48Z</time>
      </trkpt>
      <trkpt lat="59.87227" lon="17.6789392">
        <ele>13.5958</ele>
        <time>2013-05-25T16:25:49Z</time>
      </trkpt>
      <trkpt lat="59.872237" lon="17.6788704">
        <ele>14.0764</ele>
        <time>2013-05-25T16:25:50Z</time>
      </trkpt>
      <trkpt lat="59.8721948" lon="17.6788197">
        <ele>14.0764</ele>
        <time>2013-05-25T16:25:51Z</time>
      </trkpt>
      <trkpt lat="59.872141" lon="17.6787853">
        <ele>14.557</ele>
        <time>2013-05-25T16:25:52Z</time>
      </trkpt>
      <trkpt lat="59.8720805" lon="17.6787684">
        <ele>15.0377</ele>
        <time>2013-05-25T16:25:53Z</time>
      </trkpt>
      <trkpt lat="59.8720153" lon="17.678769">
        <ele>15.5184</ele>
        <time>2013-05-25T16:25:54Z</time>
      </trkpt>
      <trkpt lat="59.8719482" lon="17.6787834">
        <ele>16.4797</ele>
        <time>2013-05-25T16:25:55Z</time>
      </trkpt>
      <trkpt lat="59.87188" lon="17.6788005">
        <ele>16.9604</ele>
        <time>2013-05-25T16:25:56Z</time>
      </trkpt>
      <trkpt lat="59.871808" lon="17.678821">
        <ele>16.9604</ele>
        <time>2013-05-25T16:25:57Z</time>
      </trkpt>
      <trkpt lat="59.8717334" lon="17.6788399">
        <ele>17.4412</ele>
        <time>2013-05-25T16:25:58Z</time>
      </trkpt>
      <trkpt lat="59.8716566" lon="17.6788588">
        <ele>17.9218</ele>
        <time>2013-05-25T16:25:59Z</time>
      </trkpt>
      <trkpt lat="59.8715781" lon="17.6788817">
        <ele>18.4023</ele>
        <time>2013-05-25T16:26:00Z</time>
      </trkpt>
      <trkpt lat="59.8714986" lon="17.6789056">
        <ele>18.8831</ele>
        <time>2013-05-25T16:26:01Z</time>
      </trkpt>
      <trkpt lat="59.8714152" lon="17.6789317">
        <ele>18.8831</ele>
        <time>2013-05-25T16:26:02Z</time>
      </trkpt>
      <trkpt lat="59.8713293" lon="17.6789564">
        <ele>19.3638</ele>
        <time>2013-05-25T16:26:03Z</time>
      </trkpt>
      <trkpt lat="59.8712421" lon="17.6789812">
        <ele>19.3638</ele>
        <time>2013-05-25T16:26:04Z</time>
      </trkpt>
      <trkpt lat="59.8711532" lon="17.6790071">
        <ele>19.3638</ele>
        <time>2013-05-25T16:26:05Z</time>
      </trkpt>
      <trkpt lat="59.8710642" lon="17.679036">
        <ele>19.8444</ele>
        <time>2013-05-25T16:26:06Z</time>
      </trkpt>
      <trkpt lat="59.8709749" lon="17.6790637">
        <ele>20.325</ele>
        <time>2013-05-25T16:26:07Z</time>
      </trkpt>
      <trkpt lat="59.8708847" lon="17.6790879">
        <ele>20.325</ele>
        <time>2013-05-25T16:26:08Z</time>
      </trkpt>
      <trkpt lat="59.8707938" lon="17.6791138">
        <ele>20.8057</ele>
        <time>2013-05-25T16:26:09Z</time>
      </trkpt>
      <trkpt lat="59.870702" lon="17.6791386">
        <ele>21.2864</ele>
        <time>2013-05-25T16:26:10Z</time>
      </trkpt>
      <trkpt lat="59.8706089" lon="17.6791652">
        <ele>21.767</ele>
        <time>2013-05-25T16:26:11Z</time>
      </trkpt>
      <trkpt lat="59.8705145" lon="17.6791967">
        <ele>21.767</ele>
        <time>2013-05-25T16:26:12Z</time>
      </trkpt>
      <trkpt lat="59.8704187" lon="17.6792282">
        <ele>22.2476</ele>
        <time>2013-05-25T16:26:13Z</time>
      </trkpt>
      <trkpt lat="59.8703219" lon="17.6792605">
        <ele>22.2476</ele>
        <time>2013-05-25T16:26:14Z</time>
      </trkpt>
      <trkpt lat="59.8702234" lon="17.6792962">
        <ele>22.7283</ele>
        <time>2013-05-25T16:26:15Z</time>
      </trkpt>
      <trkpt lat="59.8701228" lon="17.6793345">
        <ele>22.7283</ele>
        <time>2013-05-25T16:26:16Z</time>
      </trkpt>
      <trkpt lat="59.8700212" lon="17.6793782">
        <ele>22.7283</ele>
        <time>2013-05-25T16:26:17Z</time>
      </trkpt>
      <trkpt lat="59.8699181" lon="17.679425">
        <ele>22.7283</ele>
        <time>2013-05-25T16:26:18Z</time>
      </trkpt>
      <trkpt lat="59.8698131" lon="17.6794739">
        <ele>22.7283</ele>
        <time>2013-05-25T16:26:19Z</time>
      </trkpt>
      <trkpt lat="59.869707" lon="17.6795231">
        <ele>23.209</ele>
        <time>2013-05-25T16:26:20Z</time>
      </trkpt>
      <trkpt lat="59.8695988" lon="17.6795732">
        <ele>23.209</ele>
        <time>2013-05-25T16:26:21Z</time>
      </trkpt>
      <trkpt lat="59.8694892" lon="17.6796234">
        <ele>23.209</ele>
        <time>2013-05-25T16:26:22Z</time>
      </trkpt>
      <trkpt lat="59.8693785" lon="17.6796749">
        <ele>23.209</ele>
        <time>2013-05-25T16:26:23Z</time>
      </trkpt>
      <trkpt lat="59.8692666" lon="17.6797275">
        <ele>23.209</ele>
        <time>2013-05-25T16:26:24Z</time>
      </trkpt>
      <trkpt lat="59.8691542" lon="17.6797799">
        <ele>23.209</ele>
        <time>2013-05-25T16:26:25Z</time>
      </trkpt>
      <trkpt lat="59.8690413" lon="17.6798311">
        <ele>23.6896</ele>
        <time>2013-05-25T16:26:26Z</time>
      </trkpt>
      <trkpt lat="59.8689277" lon="17.6798857">
        <ele>23.6896</ele>
        <time>2013-05-25T16:26:27Z</time>
      </trkpt>
      <trkpt lat="59.8688126" lon="17.6799401">
        <ele>23.6896</ele>
        <time>2013-05-25T16:26:28Z</time>
      </trkpt>
      <trkpt lat="59.8686968" lon="17.6799969">
        <ele>23.6896</ele>
        <time>2013-05-25T16:26:29Z</time>
      </trkpt>
      <trkpt lat="59.8685806" lon="17.6800547">
        <ele>23.6896</ele>
        <time>2013-05-25T16:26:30Z</time>
      </trkpt>
      <trkpt lat="59.8684631" lon="17.680111">
        <ele>23.6896</ele>
        <time>2013-05-25T16:26:31Z</time>
      </trkpt>
      <trkpt lat="59.8683469" lon="17.680182">
        <ele>24.651</ele>
        <time>2013-05-25T16:26:32Z</time>
      </trkpt>
      <trkpt lat="59.8682284" lon="17.680238">
        <ele>25.1317</ele>
        <time>2013-05-25T16:26:33Z</time>
      </trkpt>
      <trkpt lat="59.868111" lon="17.680294">
        <ele>25.1317</ele>
        <time>2013-05-25T16:26:34Z</time>
      </trkpt>
      <trkpt lat="59.867994" lon="17.6803509">
        <ele>25.1317</ele>
        <time>2013-05-25T16:26:35Z</time>
      </trkpt>
      <trkpt lat="59.8678804" lon="17.680407">
        <ele>25.6123</ele>
        <time>2013-05-25T16:26:36Z</time>
      </trkpt>
      <trkpt lat="59.8677685" lon="17.6804584">
        <ele>26.0929</ele>
        <time>2013-05-25T16:26:37Z</time>
      </trkpt>
      <trkpt lat="59.8676583" lon="17.6805071">
        <ele>26.5736</ele>
        <time>2013-05-25T16:26:38Z</time>
      </trkpt>
      <trkpt lat="59.8675497" lon="17.680552">
        <ele>26.5736</ele>
        <time>2013-05-25T16:26:39Z</time>
      </trkpt>
      <trkpt lat="59.8674432" lon="17.6805975">
        <ele>27.0543</ele>
        <time>2013-05-25T16:26:40Z</time>
      </trkpt>
      <trkpt lat="59.8673374" lon="17.6806478">
        <ele>27.0543</ele>
        <time>2013-05-25T16:26:41Z</time>
      </trkpt>
      <trkpt lat="59.8672334" lon="17.680698">
        <ele>27.0543</ele>
        <time>2013-05-25T16:26:42Z</time>
      </trkpt>
      <trkpt lat="59.8671312" lon="17.6807506">
        <ele>27.0543</ele>
        <time>2013-05-25T16:26:43Z</time>
      </trkpt>
      <trkpt lat="59.86703" lon="17.6807917">
        <ele>27.0543</ele>
        <time>2013-05-25T16:26:44Z</time>
      </trkpt>
      <trkpt lat="59.8669294" lon="17.680828">
        <ele>26.0929</ele>
        <time>2013-05-25T16:26:45Z</time>
      </trkpt>
      <trkpt lat="59.8668299" lon="17.680876">
        <ele>26.0929</ele>
        <time>2013-05-25T16:26:46Z</time>
      </trkpt>
      <trkpt lat="59.8667313" lon="17.6809331">
        <ele>27.0543</ele>
        <time>2013-05-25T16:26:47Z</time>
      </trkpt>
      <trkpt lat="59.8666335" lon="17.6809911">
        <ele>28.0155</ele>
        <time>2013-05-25T16:26:48Z</time>
      </trkpt>
      <trkpt lat="59.8665367" lon="17.6810486">
        <ele>28.4962</ele>
        <time>2013-05-25T16:26:49Z</time>
      </trkpt>
      <trkpt lat="59.8664429" lon="17.6811072">
        <ele>28.9769</ele>
        <time>2013-05-25T16:26:50Z</time>
      </trkpt>
      <trkpt lat="59.8663518" lon="17.6811637">
        <ele>29.4575</ele>
        <time>2013-05-25T16:26:51Z</time>
      </trkpt>
      <trkpt lat="59.8662638" lon="17.6812182">
        <ele>29.9381</ele>
        <time>2013-05-25T16:26:52Z</time>
      </trkpt>
      <trkpt lat="59.8661811" lon="17.6812661">
        <ele>29.4575</ele>
        <time>2013-05-25T16:26:53Z</time>
      </trkpt>
      <trkpt lat="59.8661053" lon="17.6813091">
        <ele>29.4575</ele>
        <time>2013-05-25T16:26:54Z</time>
      </trkpt>
      <trkpt lat="59.8660373" lon="17.6813466">
        <ele>29.4575</ele>
        <time>2013-05-25T16:26:55Z</time>
      </trkpt>
      <trkpt lat="59.8659781" lon="17.6813798">
        <ele>28.9769</ele>
        <time>2013-05-25T16:26:56Z</time>
      </trkpt>
      <trkpt lat="59.8659311" lon="17.6814051">
        <ele>28.9769</ele>
        <time>2013-05-25T16:26:57Z</time>
      </trkpt>
      <trkpt lat="59.8658995" lon="17.6814232">
        <ele>28.9769</ele>
        <time>2013-05-25T16:26:58Z</time>
      </trkpt>
      <trkpt lat="59.8658791" lon="17.681437">
        <ele>28.4962</ele>
        <time>2013-05-25T16:26:59Z</time>
      </trkpt>
      <trkpt lat="59.8658704" lon="17.6814393">
        <ele>28.0155</ele>
        <time>2013-05-25T16:27:00Z</time>
      </trkpt>
      <trkpt lat="59.8658694" lon="17.6814444">
        <ele>27.0543</ele>
        <time>2013-05-25T16:27:01Z</time>
      </trkpt>
      <trkpt lat="59.86587" lon="17.6814486">
        <ele>26.5736</ele>
        <time>2013-05-25T16:27:02Z</time>
      </trkpt>
      <trkpt lat="59.8658513" lon="17.681422">
        <ele>14.557</ele>
        <time>2013-05-25T16:27:18Z</time>
      </trkpt>
      <trkpt lat="59.8658287" lon="17.6814262">
        <ele>15.0377</ele>
        <time>2013-05-25T16:27:19Z</time>
      </trkpt>
      <trkpt lat="59.8657996" lon="17.681433">
        <ele>14.557</ele>
        <time>2013-05-25T16:27:20Z</time>
      </trkpt>
      <trkpt lat="59.8657653" lon="17.6814574">
        <ele>15.0377</ele>
        <time>2013-05-25T16:27:21Z</time>
      </trkpt>
      <trkpt lat="59.865725" lon="17.6814863">
        <ele>15.0377</ele>
        <time>2013-05-25T16:27:22Z</time>
      </trkpt>
      <trkpt lat="59.8656804" lon="17.6815175">
        <ele>15.0377</ele>
        <time>2013-05-25T16:27:23Z</time>
      </trkpt>
      <trkpt lat="59.8656312" lon="17.681553">
        <ele>15.0377</ele>
        <time>2013-05-25T16:27:24Z</time>
      </trkpt>
      <trkpt lat="59.8655797" lon="17.6815956">
        <ele>15.5184</ele>
        <time>2013-05-25T16:27:25Z</time>
      </trkpt>
      <trkpt lat="59.8655239" lon="17.6816376">
        <ele>15.5184</ele>
        <time>2013-05-25T16:27:26Z</time>
      </trkpt>
      <trkpt lat="59.8654651" lon="17.6816822">
        <ele>15.999</ele>
        <time>2013-05-25T16:27:27Z</time>
      </trkpt>
      <trkpt lat="59.8654038" lon="17.6817288">
        <ele>15.5184</ele>
        <time>2013-05-25T16:27:28Z</time>
      </trkpt>
      <trkpt lat="59.8653428" lon="17.6817776">
        <ele>15.5184</ele>
        <time>2013-05-25T16:27:29Z</time>
      </trkpt>
      <trkpt lat="59.8652778" lon="17.6818246">
        <ele>15.5184</ele>
        <time>2013-05-25T16:27:30Z</time>
      </trkpt>
      <trkpt lat="59.8652083" lon="17.681868">
        <ele>15.0377</ele>
        <time>2013-05-25T16:27:31Z</time>
      </trkpt>
      <trkpt lat="59.8651386" lon="17.6819208">
        <ele>15.0377</ele>
        <time>2013-05-25T16:27:32Z</time>
      </trkpt>
      <trkpt lat="59.8650646" lon="17.6819713">
        <ele>15.0377</ele>
        <time>2013-05-25T16:27:33Z</time>
      </trkpt>
      <trkpt lat="59.8649888" lon="17.6820273">
        <ele>15.0377</ele>
        <time>2013-05-25T16:27:34Z</time>
      </trkpt>
      <trkpt lat="59.8649095" lon="17.6820783">
        <ele>15.0377</ele>
        <time>2013-05-25T16:27:35Z</time>
      </trkpt>
      <trkpt lat="59.8648283" lon="17.6821291">
        <ele>14.557</ele>
        <time>2013-05-25T16:27:36Z</time>
      </trkpt>
      <trkpt lat="59.8647465" lon="17.6821892">
        <ele>14.557</ele>
        <time>2013-05-25T16:27:37Z</time>
      </trkpt>
      <trkpt lat="59.8646639" lon="17.6822484">
        <ele>15.0377</ele>
        <time>2013-05-25T16:27:38Z</time>
      </trkpt>
      <trkpt lat="59.864581" lon="17.6823059">
        <ele>15.0377</ele>
        <time>2013-05-25T16:27:39Z</time>
      </trkpt>
      <trkpt lat="59.8644983" lon="17.6823635">
        <ele>15.5184</ele>
        <time>2013-05-25T16:27:40Z</time>
      </trkpt>
      <trkpt lat="59.8644151" lon="17.6824236">
        <ele>15.999</ele>
        <time>2013-05-25T16:27:41Z</time>
      </trkpt>
      <trkpt lat="59.8643311" lon="17.6824841">
        <ele>15.999</ele>
        <time>2013-05-25T16:27:42Z</time>
      </trkpt>
      <trkpt lat="59.8642461" lon="17.6825436">
        <ele>16.4797</ele>
        <time>2013-05-25T16:27:43Z</time>
      </trkpt>
      <trkpt lat="59.8641614" lon="17.6826041">
        <ele>16.9604</ele>
        <time>2013-05-25T16:27:44Z</time>
      </trkpt>
      <trkpt lat="59.8640767" lon="17.6826659">
        <ele>16.9604</ele>
        <time>2013-05-25T16:27:45Z</time>
      </trkpt>
      <trkpt lat="59.8639913" lon="17.682727">
        <ele>17.4412</ele>
        <time>2013-05-25T16:27:46Z</time>
      </trkpt>
      <trkpt lat="59.8639064" lon="17.6827855">
        <ele>17.4412</ele>
        <time>2013-05-25T16:27:47Z</time>
      </trkpt>
      <trkpt lat="59.8638228" lon="17.6828498">
        <ele>17.4412</ele>
        <time>2013-05-25T16:27:48Z</time>
      </trkpt>
      <trkpt lat="59.8637387" lon="17.6829128">
        <ele>17.9218</ele>
        <time>2013-05-25T16:27:49Z</time>
      </trkpt>
      <trkpt lat="59.8636559" lon="17.6829742">
        <ele>18.4023</ele>
        <time>2013-05-25T16:27:50Z</time>
      </trkpt>
      <trkpt lat="59.8635736" lon="17.6830342">
        <ele>18.4023</ele>
        <time>2013-05-25T16:27:51Z</time>
      </trkpt>
      <trkpt lat="59.8634918" lon="17.6830932">
        <ele>18.8831</ele>
        <time>2013-05-25T16:27:52Z</time>
      </trkpt>
      <trkpt lat="59.8634113" lon="17.6831513">
        <ele>18.8831</ele>
        <time>2013-05-25T16:27:53Z</time>
      </trkpt>
      <trkpt lat="59.8633331" lon="17.6832093">
        <ele>19.3638</ele>
        <time>2013-05-25T16:27:54Z</time>
      </trkpt>
      <trkpt lat="59.8632562" lon="17.6832668">
        <ele>19.3638</ele>
        <time>2013-05-25T16:27:55Z</time>
      </trkpt>
      <trkpt lat="59.8631784" lon="17.683323">
        <ele>19.8444</ele>
        <time>2013-05-25T16:27:56Z</time>
      </trkpt>
      <trkpt lat="59.8631005" lon="17.6833769">
        <ele>20.325</ele>
        <time>2013-05-25T16:27:57Z</time>
      </trkpt>
      <trkpt lat="59.8630237" lon="17.6834316">
        <ele>20.8057</ele>
        <time>2013-05-25T16:27:58Z</time>
      </trkpt>
      <trkpt lat="59.8629478" lon="17.6834916">
        <ele>20.8057</ele>
        <time>2013-05-25T16:27:59Z</time>
      </trkpt>
      <trkpt lat="59.8628702" lon="17.683551">
        <ele>20.8057</ele>
        <time>2013-05-25T16:28:00Z</time>
      </trkpt>
      <trkpt lat="59.8627916" lon="17.683608">
        <ele>21.2864</ele>
        <time>2013-05-25T16:28:01Z</time>
      </trkpt>
      <trkpt lat="59.8627128" lon="17.6836631">
        <ele>21.767</ele>
        <time>2013-05-25T16:28:02Z</time>
      </trkpt>
      <trkpt lat="59.8626355" lon="17.6837205">
        <ele>21.767</ele>
        <time>2013-05-25T16:28:03Z</time>
      </trkpt>
      <trkpt lat="59.8625588" lon="17.6837789">
        <ele>21.767</ele>
        <time>2013-05-25T16:28:04Z</time>
      </trkpt>
      <trkpt lat="59.8624828" lon="17.6838376">
        <ele>22.2476</ele>
        <time>2013-05-25T16:28:05Z</time>
      </trkpt>
      <trkpt lat="59.8624062" lon="17.6838932">
        <ele>22.2476</ele>
        <time>2013-05-25T16:28:06Z</time>
      </trkpt>
      <trkpt lat="59.8623306" lon="17.6839473">
        <ele>22.7283</ele>
        <time>2013-05-25T16:28:07Z</time>
      </trkpt>
      <trkpt lat="59.8622584" lon="17.684006">
        <ele>23.209</ele>
        <time>2013-05-25T16:28:08Z</time>
      </trkpt>
      <trkpt lat="59.8621854" lon="17.6840631">
        <ele>23.6896</ele>
        <time>2013-05-25T16:28:09Z</time>
      </trkpt>
      <trkpt lat="59.8621119" lon="17.6841168">
        <ele>23.6896</ele>
        <time>2013-05-25T16:28:10Z</time>
      </trkpt>
      <trkpt lat="59.8620386" lon="17.6841717">
        <ele>23.6896</ele>
        <time>2013-05-25T16:28:11Z</time>
      </trkpt>
      <trkpt lat="59.8619638" lon="17.6842209">
        <ele>23.209</ele>
        <time>2013-05-25T16:28:12Z</time>
      </trkpt>
      <trkpt lat="59.8618886" lon="17.6842684">
        <ele>22.7283</ele>
        <time>2013-05-25T16:28:13Z</time>
      </trkpt>
      <trkpt lat="59.8618155" lon="17.684323">
        <ele>23.209</ele>
        <time>2013-05-25T16:28:14Z</time>
      </trkpt>
      <trkpt lat="59.8617425" lon="17.6843782">
        <ele>23.209</ele>
        <time>2013-05-25T16:28:15Z</time>
      </trkpt>
      <trkpt lat="59.861669" lon="17.6844321">
        <ele>23.6896</ele>
        <time>2013-05-25T16:28:16Z</time>
      </trkpt>
      <trkpt lat="59.8615959" lon="17.6844889">
        <ele>23.6896</ele>
        <time>2013-05-25T16:28:17Z</time>
      </trkpt>
      <trkpt lat="59.8615244" lon="17.6845514">
        <ele>23.6896</ele>
        <time>2013-05-25T16:28:18Z</time>
      </trkpt>
      <trkpt lat="59.8614515" lon="17.6846116">
        <ele>23.6896</ele>
        <time>2013-05-25T16:28:19Z</time>
      </trkpt>
      <trkpt lat="59.8613788" lon="17.6846704">
        <ele>24.1703</ele>
        <time>2013-05-25T16:28:20Z</time>
      </trkpt>
      <trkpt lat="59.8613054" lon="17.6847325">
        <ele>24.1703</ele>
        <time>2013-05-25T16:28:21Z</time>
      </trkpt>
      <trkpt lat="59.8612322" lon="17.684798">
        <ele>24.651</ele>
        <time>2013-05-25T16:28:22Z</time>
      </trkpt>
      <trkpt lat="59.8611578" lon="17.6848598">
        <ele>24.1703</ele>
        <time>2013-05-25T16:28:23Z</time>
      </trkpt>
      <trkpt lat="59.8610834" lon="17.6849237">
        <ele>24.1703</ele>
        <time>2013-05-25T16:28:24Z</time>
      </trkpt>
      <trkpt lat="59.8610107" lon="17.6849919">
        <ele>24.1703</ele>
        <time>2013-05-25T16:28:25Z</time>
      </trkpt>
      <trkpt lat="59.8609392" lon="17.6850625">
        <ele>24.1703</ele>
        <time>2013-05-25T16:28:26Z</time>
      </trkpt>
      <trkpt lat="59.8608681" lon="17.6851353">
        <ele>24.1703</ele>
        <time>2013-05-25T16:28:27Z</time>
      </trkpt>
      <trkpt lat="59.8607985" lon="17.6852108">
        <ele>24.1703</ele>
        <time>2013-05-25T16:28:28Z</time>
      </trkpt>
      <trkpt lat="59.8607299" lon="17.6852889">
        <ele>23.6896</ele>
        <time>2013-05-25T16:28:29Z</time>
      </trkpt>
      <trkpt lat="59.860662" lon="17.6853678">
        <ele>23.6896</ele>
        <time>2013-05-25T16:28:30Z</time>
      </trkpt>
      <trkpt lat="59.8605951" lon="17.6854444">
        <ele>24.1703</ele>
        <time>2013-05-25T16:28:31Z</time>
      </trkpt>
      <trkpt lat="59.8605289" lon="17.6855187">
        <ele>24.1703</ele>
        <time>2013-05-25T16:28:32Z</time>
      </trkpt>
      <trkpt lat="59.8604634" lon="17.6855936">
        <ele>24.1703</ele>
        <time>2013-05-25T16:28:33Z</time>
      </trkpt>
      <trkpt lat="59.8603989" lon="17.685667">
        <ele>24.651</ele>
        <time>2013-05-25T16:28:34Z</time>
      </trkpt>
      <trkpt lat="59.860336" lon="17.6857433">
        <ele>24.1703</ele>
        <time>2013-05-25T16:28:35Z</time>
      </trkpt>
      <trkpt lat="59.8602729" lon="17.6858195">
        <ele>24.1703</ele>
        <time>2013-05-25T16:28:36Z</time>
      </trkpt>
      <trkpt lat="59.8602091" lon="17.6858966">
        <ele>24.651</ele>
        <time>2013-05-25T16:28:37Z</time>
      </trkpt>
      <trkpt lat="59.8601434" lon="17.6859776">
        <ele>24.651</ele>
        <time>2013-05-25T16:28:38Z</time>
      </trkpt>
      <trkpt lat="59.8600767" lon="17.686063">
        <ele>24.651</ele>
        <time>2013-05-25T16:28:39Z</time>
      </trkpt>
      <trkpt lat="59.8600081" lon="17.6861478">
        <ele>24.651</ele>
        <time>2013-05-25T16:28:40Z</time>
      </trkpt>
      <trkpt lat="59.8599388" lon="17.6862356">
        <ele>24.651</ele>
        <time>2013-05-25T16:28:41Z</time>
      </trkpt>
      <trkpt lat="59.8598702" lon="17.6863272">
        <ele>24.651</ele>
        <time>2013-05-25T16:28:42Z</time>
      </trkpt>
      <trkpt lat="59.8598005" lon="17.6864188">
        <ele>24.651</ele>
        <time>2013-05-25T16:28:43Z</time>
      </trkpt>
      <trkpt lat="59.8597295" lon="17.6865106">
        <ele>24.651</ele>
        <time>2013-05-25T16:28:44Z</time>
      </trkpt>
      <trkpt lat="59.8596576" lon="17.6866037">
        <ele>24.1703</ele>
        <time>2013-05-25T16:28:45Z</time>
      </trkpt>
      <trkpt lat="59.8595855" lon="17.686693">
        <ele>24.1703</ele>
        <time>2013-05-25T16:28:46Z</time>
      </trkpt>
      <trkpt lat="59.8595141" lon="17.6867844">
        <ele>24.1703</ele>
        <time>2013-05-25T16:28:47Z</time>
      </trkpt>
      <trkpt lat="59.8594436" lon="17.6868758">
        <ele>24.651</ele>
        <time>2013-05-25T16:28:48Z</time>
      </trkpt>
      <trkpt lat="59.8593741" lon="17.6869653">
        <ele>24.651</ele>
        <time>2013-05-25T16:28:49Z</time>
      </trkpt>
      <trkpt lat="59.8593052" lon="17.687053">
        <ele>24.651</ele>
        <time>2013-05-25T16:28:50Z</time>
      </trkpt>
      <trkpt lat="59.8592369" lon="17.6871397">
        <ele>25.1317</ele>
        <time>2013-05-25T16:28:51Z</time>
      </trkpt>
      <trkpt lat="59.8591694" lon="17.6872262">
        <ele>25.1317</ele>
        <time>2013-05-25T16:28:52Z</time>
      </trkpt>
      <trkpt lat="59.859101" lon="17.6873114">
        <ele>25.1317</ele>
        <time>2013-05-25T16:28:53Z</time>
      </trkpt>
      <trkpt lat="59.8590317" lon="17.6873957">
        <ele>24.651</ele>
        <time>2013-05-25T16:28:54Z</time>
      </trkpt>
      <trkpt lat="59.8589616" lon="17.6874806">
        <ele>24.1703</ele>
        <time>2013-05-25T16:28:55Z</time>
      </trkpt>
      <trkpt lat="59.8588897" lon="17.6875638">
        <ele>23.6896</ele>
        <time>2013-05-25T16:28:56Z</time>
      </trkpt>
      <trkpt lat="59.8588169" lon="17.6876485">
        <ele>23.6896</ele>
        <time>2013-05-25T16:28:57Z</time>
      </trkpt>
      <trkpt lat="59.8587434" lon="17.6877413">
        <ele>23.209</ele>
        <time>2013-05-25T16:28:58Z</time>
      </trkpt>
      <trkpt lat="59.8586743" lon="17.6878416">
        <ele>23.209</ele>
        <time>2013-05-25T16:28:59Z</time>
      </trkpt>
      <trkpt lat="59.8586069" lon="17.6879476">
        <ele>22.7283</ele>
        <time>2013-05-25T16:29:00Z</time>
      </trkpt>
      <trkpt lat="59.8585393" lon="17.6880549">
        <ele>22.7283</ele>
        <time>2013-05-25T16:29:01Z</time>
      </trkpt>
      <trkpt lat="59.8584666" lon="17.6881496">
        <ele>22.7283</ele>
        <time>2013-05-25T16:29:02Z</time>
      </trkpt>
      <trkpt lat="59.8583884" lon="17.6882304">
        <ele>22.2476</ele>
        <time>2013-05-25T16:29:03Z</time>
      </trkpt>
      <trkpt lat="59.8583075" lon="17.6882966">
        <ele>22.7283</ele>
        <time>2013-05-25T16:29:04Z</time>
      </trkpt>
      <trkpt lat="59.8582276" lon="17.6883645">
        <ele>22.7283</ele>
        <time>2013-05-25T16:29:05Z</time>
      </trkpt>
      <trkpt lat="59.8581512" lon="17.6884488">
        <ele>22.7283</ele>
        <time>2013-05-25T16:29:06Z</time>
      </trkpt>
      <trkpt lat="59.8580821" lon="17.6885394">
        <ele>22.7283</ele>
        <time>2013-05-25T16:29:07Z</time>
      </trkpt>
      <trkpt lat="59.8580164" lon="17.6886323">
        <ele>23.209</ele>
        <time>2013-05-25T16:29:08Z</time>
      </trkpt>
      <trkpt lat="59.8579487" lon="17.688724">
        <ele>23.209</ele>
        <time>2013-05-25T16:29:09Z</time>
      </trkpt>
      <trkpt lat="59.8578822" lon="17.6888126">
        <ele>23.6896</ele>
        <time>2013-05-25T16:29:10Z</time>
      </trkpt>
      <trkpt lat="59.8578151" lon="17.6888932">
        <ele>23.6896</ele>
        <time>2013-05-25T16:29:11Z</time>
      </trkpt>
      <trkpt lat="59.8577469" lon="17.6889719">
        <ele>24.1703</ele>
        <time>2013-05-25T16:29:12Z</time>
      </trkpt>
      <trkpt lat="59.8576782" lon="17.6890488">
        <ele>24.1703</ele>
        <time>2013-05-25T16:29:13Z</time>
      </trkpt>
      <trkpt lat="59.8576097" lon="17.6891234">
        <ele>24.1703</ele>
        <time>2013-05-25T16:29:14Z</time>
      </trkpt>
      <trkpt lat="59.8575405" lon="17.6891979">
        <ele>23.6896</ele>
        <time>2013-05-25T16:29:15Z</time>
      </trkpt>
      <trkpt lat="59.8574718" lon="17.6892732">
        <ele>23.6896</ele>
        <time>2013-05-25T16:29:16Z</time>
      </trkpt>
      <trkpt lat="59.8574025" lon="17.6893497">
        <ele>23.6896</ele>
        <time>2013-05-25T16:29:17Z</time>
      </trkpt>
      <trkpt lat="59.8573322" lon="17.6894264">
        <ele>23.6896</ele>
        <time>2013-05-25T16:29:18Z</time>
      </trkpt>
      <trkpt lat="59.8572607" lon="17.6895036">
        <ele>23.6896</ele>
        <time>2013-05-25T16:29:19Z</time>
      </trkpt>
      <trkpt lat="59.8571882" lon="17.6895807">
        <ele>23.6896</ele>
        <time>2013-05-25T16:29:20Z</time>
      </trkpt>
      <trkpt lat="59.8571156" lon="17.6896568">
        <ele>23.6896</ele>
        <time>2013-05-25T16:29:21Z</time>
      </trkpt>
      <trkpt lat="59.8570426" lon="17.6897327">
        <ele>23.209</ele>
        <time>2013-05-25T16:29:22Z</time>
      </trkpt>
      <trkpt lat="59.8569706" lon="17.6898102">
        <ele>23.209</ele>
        <time>2013-05-25T16:29:23Z</time>
      </trkpt>
      <trkpt lat="59.8569003" lon="17.6898867">
        <ele>22.7283</ele>
        <time>2013-05-25T16:29:24Z</time>
      </trkpt>
      <trkpt lat="59.8568313" lon="17.6899609">
        <ele>22.7283</ele>
        <time>2013-05-25T16:29:25Z</time>
      </trkpt>
      <trkpt lat="59.8567625" lon="17.6900328">
        <ele>22.2476</ele>
        <time>2013-05-25T16:29:26Z</time>
      </trkpt>
      <trkpt lat="59.8566951" lon="17.690101">
        <ele>21.767</ele>
        <time>2013-05-25T16:29:27Z</time>
      </trkpt>
      <trkpt lat="59.8566282" lon="17.6901675">
        <ele>21.2864</ele>
        <time>2013-05-25T16:29:28Z</time>
      </trkpt>
      <trkpt lat="59.8565615" lon="17.6902339">
        <ele>21.2864</ele>
        <time>2013-05-25T16:29:29Z</time>
      </trkpt>
      <trkpt lat="59.8564939" lon="17.6902991">
        <ele>20.8057</ele>
        <time>2013-05-25T16:29:30Z</time>
      </trkpt>
      <trkpt lat="59.8564271" lon="17.6903634">
        <ele>20.8057</ele>
        <time>2013-05-25T16:29:31Z</time>
      </trkpt>
      <trkpt lat="59.8563616" lon="17.6904253">
        <ele>20.325</ele>
        <time>2013-05-25T16:29:32Z</time>
      </trkpt>
      <trkpt lat="59.8562961" lon="17.690485">
        <ele>20.325</ele>
        <time>2013-05-25T16:29:33Z</time>
      </trkpt>
      <trkpt lat="59.8562325" lon="17.6905422">
        <ele>19.8444</ele>
        <time>2013-05-25T16:29:34Z</time>
      </trkpt>
      <trkpt lat="59.8561659" lon="17.6905827">
        <ele>19.3638</ele>
        <time>2013-05-25T16:29:35Z</time>
      </trkpt>
      <trkpt lat="59.8561012" lon="17.690619">
        <ele>19.8444</ele>
        <time>2013-05-25T16:29:36Z</time>
      </trkpt>
      <trkpt lat="59.8560351" lon="17.6906361">
        <ele>19.3638</ele>
        <time>2013-05-25T16:29:37Z</time>
      </trkpt>
      <trkpt lat="59.8559681" lon="17.6906417">
        <ele>18.8831</ele>
        <time>2013-05-25T16:29:38Z</time>
      </trkpt>
      <trkpt lat="59.8558998" lon="17.6906536">
        <ele>18.8831</ele>
        <time>2013-05-25T16:29:39Z</time>
      </trkpt>
      <trkpt lat="59.8558357" lon="17.6906977">
        <ele>18.4023</ele>
        <time>2013-05-25T16:29:40Z</time>
      </trkpt>
      <trkpt lat="59.8557857" lon="17.6908121">
        <ele>17.9218</ele>
        <time>2013-05-25T16:29:41Z</time>
      </trkpt>
      <trkpt lat="59.8557667" lon="17.6909427">
        <ele>16.9604</ele>
        <time>2013-05-25T16:29:42Z</time>
      </trkpt>
      <trkpt lat="59.8557802" lon="17.6910849">
        <ele>17.4412</ele>
        <time>2013-05-25T16:29:43Z</time>
      </trkpt>
      <trkpt lat="59.8558138" lon="17.6912111">
        <ele>17.4412</ele>
        <time>2013-05-25T16:29:44Z</time>
      </trkpt>
      <trkpt lat="59.8558575" lon="17.6913295">
        <ele>17.9218</ele>
        <time>2013-05-25T16:29:45Z</time>
      </trkpt>
      <trkpt lat="59.8559014" lon="17.6914379">
        <ele>18.4023</ele>
        <time>2013-05-25T16:29:46Z</time>
      </trkpt>
      <trkpt lat="59.8559419" lon="17.6915496">
        <ele>18.4023</ele>
        <time>2013-05-25T16:29:47Z</time>
      </trkpt>
      <trkpt lat="59.8559781" lon="17.6916657">
        <ele>19.3638</ele>
        <time>2013-05-25T16:29:48Z</time>
      </trkpt>
      <trkpt lat="59.8560113" lon="17.6917856">
        <ele>19.8444</ele>
        <time>2013-05-25T16:29:49Z</time>
      </trkpt>
      <trkpt lat="59.8560416" lon="17.6919075">
        <ele>20.325</ele>
        <time>2013-05-25T16:29:50Z</time>
      </trkpt>
      <trkpt lat="59.8560699" lon="17.6920319">
        <ele>20.8057</ele>
        <time>2013-05-25T16:29:51Z</time>
      </trkpt>
      <trkpt lat="59.8560953" lon="17.6921564">
        <ele>21.2864</ele>
        <time>2013-05-25T16:29:52Z</time>
      </trkpt>
      <trkpt lat="59.8561201" lon="17.6922822">
        <ele>21.2864</ele>
        <time>2013-05-25T16:29:53Z</time>
      </trkpt>
      <trkpt lat="59.8561444" lon="17.69241">
        <ele>21.767</ele>
        <time>2013-05-25T16:29:54Z</time>
      </trkpt>
      <trkpt lat="59.8561682" lon="17.6925391">
        <ele>21.767</ele>
        <time>2013-05-25T16:29:55Z</time>
      </trkpt>
      <trkpt lat="59.8561918" lon="17.6926687">
        <ele>22.2476</ele>
        <time>2013-05-25T16:29:56Z</time>
      </trkpt>
      <trkpt lat="59.8562164" lon="17.6927987">
        <ele>22.7283</ele>
        <time>2013-05-25T16:29:57Z</time>
      </trkpt>
      <trkpt lat="59.8562397" lon="17.6929266">
        <ele>21.767</ele>
        <time>2013-05-25T16:29:58Z</time>
      </trkpt>
      <trkpt lat="59.8562621" lon="17.6930541">
        <ele>21.767</ele>
        <time>2013-05-25T16:29:59Z</time>
      </trkpt>
      <trkpt lat="59.8562842" lon="17.6931787">
        <ele>21.2864</ele>
        <time>2013-05-25T16:30:00Z</time>
      </trkpt>
      <trkpt lat="59.8563076" lon="17.6933033">
        <ele>21.2864</ele>
        <time>2013-05-25T16:30:01Z</time>
      </trkpt>
      <trkpt lat="59.8563313" lon="17.6934277">
        <ele>21.2864</ele>
        <time>2013-05-25T16:30:02Z</time>
      </trkpt>
      <trkpt lat="59.856354" lon="17.6935537">
        <ele>21.2864</ele>
        <time>2013-05-25T16:30:03Z</time>
      </trkpt>
      <trkpt lat="59.8563769" lon="17.6936801">
        <ele>20.8057</ele>
        <time>2013-05-25T16:30:04Z</time>
      </trkpt>
      <trkpt lat="59.8564013" lon="17.6938058">
        <ele>20.8057</ele>
        <time>2013-05-25T16:30:05Z</time>
      </trkpt>
      <trkpt lat="59.8564263" lon="17.6939317">
        <ele>20.8057</ele>
        <time>2013-05-25T16:30:06Z</time>
      </trkpt>
      <trkpt lat="59.8564505" lon="17.6940584">
        <ele>20.325</ele>
        <time>2013-05-25T16:30:07Z</time>
      </trkpt>
      <trkpt lat="59.8564736" lon="17.6941859">
        <ele>20.325</ele>
        <time>2013-05-25T16:30:08Z</time>
      </trkpt>
      <trkpt lat="59.8564968" lon="17.6943122">
        <ele>20.325</ele>
        <time>2013-05-25T16:30:09Z</time>
      </trkpt>
      <trkpt lat="59.8565224" lon="17.6944366">
        <ele>19.8444</ele>
        <time>2013-05-25T16:30:10Z</time>
      </trkpt>
      <trkpt lat="59.8565477" lon="17.6945615">
        <ele>19.8444</ele>
        <time>2013-05-25T16:30:11Z</time>
      </trkpt>
      <trkpt lat="59.8565718" lon="17.6946858">
        <ele>19.8444</ele>
        <time>2013-05-25T16:30:12Z</time>
      </trkpt>
      <trkpt lat="59.8565951" lon="17.6948087">
        <ele>19.8444</ele>
        <time>2013-05-25T16:30:13Z</time>
      </trkpt>
      <trkpt lat="59.8566183" lon="17.6949301">
        <ele>19.8444</ele>
        <time>2013-05-25T16:30:14Z</time>
      </trkpt>
      <trkpt lat="59.8566415" lon="17.6950492">
        <ele>19.8444</ele>
        <time>2013-05-25T16:30:15Z</time>
      </trkpt>
      <trkpt lat="59.8566636" lon="17.6951675">
        <ele>19.3638</ele>
        <time>2013-05-25T16:30:16Z</time>
      </trkpt>
      <trkpt lat="59.8566853" lon="17.6952846">
        <ele>19.8444</ele>
        <time>2013-05-25T16:30:17Z</time>
      </trkpt>
      <trkpt lat="59.8567068" lon="17.6953992">
        <ele>19.8444</ele>
        <time>2013-05-25T16:30:18Z</time>
      </trkpt>
      <trkpt lat="59.8567287" lon="17.6955113">
        <ele>19.8444</ele>
        <time>2013-05-25T16:30:19Z</time>
      </trkpt>
      <trkpt lat="59.8567503" lon="17.6956217">
        <ele>19.8444</ele>
        <time>2013-05-25T16:30:20Z</time>
      </trkpt>
      <trkpt lat="59.8567721" lon="17.695732">
        <ele>19.8444</ele>
        <time>2013-05-25T16:30:21Z</time>
      </trkpt>
      <trkpt lat="59.856793" lon="17.6958425">
        <ele>19.8444</ele>
        <time>2013-05-25T16:30:22Z</time>
      </trkpt>
      <trkpt lat="59.8568126" lon="17.6959535">
        <ele>19.3638</ele>
        <time>2013-05-25T16:30:23Z</time>
      </trkpt>
      <trkpt lat="59.8568333" lon="17.6960645">
        <ele>18.8831</ele>
        <time>2013-05-25T16:30:24Z</time>
      </trkpt>
      <trkpt lat="59.8568542" lon="17.6961764">
        <ele>18.8831</ele>
        <time>2013-05-25T16:30:25Z</time>
      </trkpt>
      <trkpt lat="59.8568756" lon="17.6962883">
        <ele>18.8831</ele>
        <time>2013-05-25T16:30:26Z</time>
      </trkpt>
      <trkpt lat="59.8568971" lon="17.6963993">
        <ele>18.8831</ele>
        <time>2013-05-25T16:30:27Z</time>
      </trkpt>
      <trkpt lat="59.8569188" lon="17.69651">
        <ele>18.8831</ele>
        <time>2013-05-25T16:30:28Z</time>
      </trkpt>
      <trkpt lat="59.8569407" lon="17.6966211">
        <ele>18.8831</ele>
        <time>2013-05-25T16:30:29Z</time>
      </trkpt>
      <trkpt lat="59.8569628" lon="17.6967325">
        <ele>18.8831</ele>
        <time>2013-05-25T16:30:30Z</time>
      </trkpt>
      <trkpt lat="59.8569837" lon="17.6968464">
        <ele>18.8831</ele>
        <time>2013-05-25T16:30:31Z</time>
      </trkpt>
      <trkpt lat="59.8570038" lon="17.6969626">
        <ele>18.8831</ele>
        <time>2013-05-25T16:30:32Z</time>
      </trkpt>
      <trkpt lat="59.8570241" lon="17.6970806">
        <ele>19.3638</ele>
        <time>2013-05-25T16:30:33Z</time>
      </trkpt>
      <trkpt lat="59.8570456" lon="17.6971992">
        <ele>19.3638</ele>
        <time>2013-05-25T16:30:34Z</time>
      </trkpt>
      <trkpt lat="59.8570678" lon="17.6973177">
        <ele>19.8444</ele>
        <time>2013-05-25T16:30:35Z</time>
      </trkpt>
      <trkpt lat="59.8570904" lon="17.6974359">
        <ele>20.325</ele>
        <time>2013-05-25T16:30:36Z</time>
      </trkpt>
      <trkpt lat="59.8571131" lon="17.697554">
        <ele>20.8057</ele>
        <time>2013-05-25T16:30:37Z</time>
      </trkpt>
      <trkpt lat="59.8571374" lon="17.6976714">
        <ele>20.325</ele>
        <time>2013-05-25T16:30:38Z</time>
      </trkpt>
      <trkpt lat="59.8571611" lon="17.6977897">
        <ele>19.8444</ele>
        <time>2013-05-25T16:30:39Z</time>
      </trkpt>
      <trkpt lat="59.8571829" lon="17.6979083">
        <ele>20.325</ele>
        <time>2013-05-25T16:30:40Z</time>
      </trkpt>
      <trkpt lat="59.8572011" lon="17.6980264">
        <ele>19.8444</ele>
        <time>2013-05-25T16:30:41Z</time>
      </trkpt>
      <trkpt lat="59.8572186" lon="17.698143">
        <ele>19.8444</ele>
        <time>2013-05-25T16:30:42Z</time>
      </trkpt>
      <trkpt lat="59.8572382" lon="17.6982555">
        <ele>19.3638</ele>
        <time>2013-05-25T16:30:43Z</time>
      </trkpt>
      <trkpt lat="59.8572617" lon="17.6983642">
        <ele>18.8831</ele>
        <time>2013-05-25T16:30:44Z</time>
      </trkpt>
      <trkpt lat="59.8572855" lon="17.698472">
        <ele>18.4023</ele>
        <time>2013-05-25T16:30:45Z</time>
      </trkpt>
      <trkpt lat="59.8573084" lon="17.69858">
        <ele>16.9604</ele>
        <time>2013-05-25T16:30:46Z</time>
      </trkpt>
      <trkpt lat="59.8573296" lon="17.6986911">
        <ele>16.4797</ele>
        <time>2013-05-25T16:30:47Z</time>
      </trkpt>
      <trkpt lat="59.857352" lon="17.6988012">
        <ele>15.5184</ele>
        <time>2013-05-25T16:30:48Z</time>
      </trkpt>
      <trkpt lat="59.8573747" lon="17.698912">
        <ele>14.557</ele>
        <time>2013-05-25T16:30:49Z</time>
      </trkpt>
      <trkpt lat="59.8573974" lon="17.6990255">
        <ele>14.0764</ele>
        <time>2013-05-25T16:30:50Z</time>
      </trkpt>
      <trkpt lat="59.8574203" lon="17.6991395">
        <ele>13.5958</ele>
        <time>2013-05-25T16:30:51Z</time>
      </trkpt>
      <trkpt lat="59.8574441" lon="17.6992544">
        <ele>13.5958</ele>
        <time>2013-05-25T16:30:52Z</time>
      </trkpt>
      <trkpt lat="59.85747" lon="17.6993701">
        <ele>13.1151</ele>
        <time>2013-05-25T16:30:53Z</time>
      </trkpt>
      <trkpt lat="59.8574974" lon="17.6994852">
        <ele>12.1538</ele>
        <time>2013-05-25T16:30:54Z</time>
      </trkpt>
      <trkpt lat="59.8575231" lon="17.6996034">
        <ele>11.6732</ele>
        <time>2013-05-25T16:30:55Z</time>
      </trkpt>
      <trkpt lat="59.8575481" lon="17.6997198">
        <ele>11.1925</ele>
        <time>2013-05-25T16:30:56Z</time>
      </trkpt>
      <trkpt lat="59.8575709" lon="17.6998399">
        <ele>11.6732</ele>
        <time>2013-05-25T16:30:57Z</time>
      </trkpt>
      <trkpt lat="59.8575947" lon="17.6999751">
        <ele>13.1151</ele>
        <time>2013-05-25T16:30:58Z</time>
      </trkpt>
      <trkpt lat="59.8576202" lon="17.7000969">
        <ele>11.6732</ele>
        <time>2013-05-25T16:30:59Z</time>
      </trkpt>
      <trkpt lat="59.8576451" lon="17.7002148">
        <ele>11.1925</ele>
        <time>2013-05-25T16:31:00Z</time>
      </trkpt>
      <trkpt lat="59.8576679" lon="17.7003325">
        <ele>11.6732</ele>
        <time>2013-05-25T16:31:01Z</time>
      </trkpt>
      <trkpt lat="59.8576917" lon="17.7004491">
        <ele>11.6732</ele>
        <time>2013-05-25T16:31:02Z</time>
      </trkpt>
      <trkpt lat="59.8577163" lon="17.7005625">
        <ele>12.6344</ele>
        <time>2013-05-25T16:31:03Z</time>
      </trkpt>
      <trkpt lat="59.8577404" lon="17.7006757">
        <ele>13.1151</ele>
        <time>2013-05-25T16:31:04Z</time>
      </trkpt>
      <trkpt lat="59.8577658" lon="17.7007849">
        <ele>13.1151</ele>
        <time>2013-05-25T16:31:05Z</time>
      </trkpt>
      <trkpt lat="59.8577923" lon="17.7008905">
        <ele>13.1151</ele>
        <time>2013-05-25T16:31:06Z</time>
      </trkpt>
      <trkpt lat="59.8578171" lon="17.7009939">
        <ele>12.6344</ele>
        <time>2013-05-25T16:31:07Z</time>
      </trkpt>
      <trkpt lat="59.8578412" lon="17.7010968">
        <ele>13.1151</ele>
        <time>2013-05-25T16:31:08Z</time>
      </trkpt>
      <trkpt lat="59.8578621" lon="17.7012008">
        <ele>15.0377</ele>
        <time>2013-05-25T16:31:09Z</time>
      </trkpt>
      <trkpt lat="59.8578792" lon="17.7013104">
        <ele>15.999</ele>
        <time>2013-05-25T16:31:10Z</time>
      </trkpt>
      <trkpt lat="59.8578972" lon="17.7014189">
        <ele>16.9604</ele>
        <time>2013-05-25T16:31:11Z</time>
      </trkpt>
      <trkpt lat="59.8579181" lon="17.701524">
        <ele>17.4412</ele>
        <time>2013-05-25T16:31:12Z</time>
      </trkpt>
      <trkpt lat="59.8579415" lon="17.7016277">
        <ele>17.9218</ele>
        <time>2013-05-25T16:31:13Z</time>
      </trkpt>
      <trkpt lat="59.8579668" lon="17.701729">
        <ele>17.9218</ele>
        <time>2013-05-25T16:31:14Z</time>
      </trkpt>
      <trkpt lat="59.8579895" lon="17.7018292">
        <ele>17.9218</ele>
        <time>2013-05-25T16:31:15Z</time>
      </trkpt>
      <trkpt lat="59.8580126" lon="17.7019298">
        <ele>17.9218</ele>
        <time>2013-05-25T16:31:16Z</time>
      </trkpt>
      <trkpt lat="59.8580308" lon="17.7020338">
        <ele>17.4412</ele>
        <time>2013-05-25T16:31:17Z</time>
      </trkpt>
      <trkpt lat="59.8580518" lon="17.7021393">
        <ele>17.9218</ele>
        <time>2013-05-25T16:31:18Z</time>
      </trkpt>
      <trkpt lat="59.858074" lon="17.7022446">
        <ele>18.4023</ele>
        <time>2013-05-25T16:31:19Z</time>
      </trkpt>
      <trkpt lat="59.8581041" lon="17.7023491">
        <ele>19.3638</ele>
        <time>2013-05-25T16:31:20Z</time>
      </trkpt>
      <trkpt lat="59.8581313" lon="17.7024537">
        <ele>19.8444</ele>
        <time>2013-05-25T16:31:21Z</time>
      </trkpt>
      <trkpt lat="59.8581797" lon="17.7025481">
        <ele>21.2864</ele>
        <time>2013-05-25T16:31:22Z</time>
      </trkpt>
      <trkpt lat="59.8582133" lon="17.7026413">
        <ele>21.767</ele>
        <time>2013-05-25T16:31:23Z</time>
      </trkpt>
      <trkpt lat="59.8582226" lon="17.7027647">
        <ele>21.2864</ele>
        <time>2013-05-25T16:31:24Z</time>
      </trkpt>
      <trkpt lat="59.8582372" lon="17.7028787">
        <ele>19.3638</ele>
        <time>2013-05-25T16:31:25Z</time>
      </trkpt>
      <trkpt lat="59.8582585" lon="17.7029822">
        <ele>20.325</ele>
        <time>2013-05-25T16:31:26Z</time>
      </trkpt>
      <trkpt lat="59.8582872" lon="17.7030846">
        <ele>21.2864</ele>
        <time>2013-05-25T16:31:27Z</time>
      </trkpt>
      <trkpt lat="59.8583147" lon="17.7031924">
        <ele>23.209</ele>
        <time>2013-05-25T16:31:28Z</time>
      </trkpt>
      <trkpt lat="59.8583432" lon="17.7033022">
        <ele>23.6896</ele>
        <time>2013-05-25T16:31:29Z</time>
      </trkpt>
      <trkpt lat="59.8583636" lon="17.7034117">
        <ele>24.651</ele>
        <time>2013-05-25T16:31:30Z</time>
      </trkpt>
      <trkpt lat="59.8583832" lon="17.7035432">
        <ele>24.651</ele>
        <time>2013-05-25T16:31:31Z</time>
      </trkpt>
      <trkpt lat="59.8584117" lon="17.7036432">
        <ele>27.0543</ele>
        <time>2013-05-25T16:31:32Z</time>
      </trkpt>
      <trkpt lat="59.858435" lon="17.7037484">
        <ele>28.0155</ele>
        <time>2013-05-25T16:31:33Z</time>
      </trkpt>
      <trkpt lat="59.8584585" lon="17.7038565">
        <ele>28.9769</ele>
        <time>2013-05-25T16:31:34Z</time>
      </trkpt>
      <trkpt lat="59.8584806" lon="17.7039657">
        <ele>28.9769</ele>
        <time>2013-05-25T16:31:35Z</time>
      </trkpt>
      <trkpt lat="59.8585148" lon="17.7040768">
        <ele>30.4188</ele>
        <time>2013-05-25T16:31:36Z</time>
      </trkpt>
      <trkpt lat="59.8585485" lon="17.7041883">
        <ele>33.7834</ele>
        <time>2013-05-25T16:31:37Z</time>
      </trkpt>
      <trkpt lat="59.8585728" lon="17.7043007">
        <ele>33.3029</ele>
        <time>2013-05-25T16:31:38Z</time>
      </trkpt>
      <trkpt lat="59.8585931" lon="17.7044079">
        <ele>32.3416</ele>
        <time>2013-05-25T16:31:39Z</time>
      </trkpt>
      <trkpt lat="59.8586247" lon="17.70452">
        <ele>31.8607</ele>
        <time>2013-05-25T16:31:40Z</time>
      </trkpt>
      <trkpt lat="59.8586522" lon="17.704621">
        <ele>28.4962</ele>
        <time>2013-05-25T16:31:41Z</time>
      </trkpt>
      <trkpt lat="59.8586843" lon="17.7047124">
        <ele>28.0155</ele>
        <time>2013-05-25T16:31:42Z</time>
      </trkpt>
      <trkpt lat="59.8587115" lon="17.7047885">
        <ele>28.0155</ele>
        <time>2013-05-25T16:31:43Z</time>
      </trkpt>
      <trkpt lat="59.8587434" lon="17.7048807">
        <ele>27.5349</ele>
        <time>2013-05-25T16:31:44Z</time>
      </trkpt>
      <trkpt lat="59.8587759" lon="17.7049769">
        <ele>26.5736</ele>
        <time>2013-05-25T16:31:45Z</time>
      </trkpt>
      <trkpt lat="59.8588076" lon="17.7050729">
        <ele>27.0543</ele>
        <time>2013-05-25T16:31:46Z</time>
      </trkpt>
      <trkpt lat="59.8588329" lon="17.7051678">
        <ele>27.0543</ele>
        <time>2013-05-25T16:31:47Z</time>
      </trkpt>
      <trkpt lat="59.8588525" lon="17.7052704">
        <ele>26.5736</ele>
        <time>2013-05-25T16:31:48Z</time>
      </trkpt>
      <trkpt lat="59.8588568" lon="17.7053863">
        <ele>26.0929</ele>
        <time>2013-05-25T16:31:49Z</time>
      </trkpt>
      <trkpt lat="59.8588402" lon="17.7054887">
        <ele>24.651</ele>
        <time>2013-05-25T16:31:50Z</time>
      </trkpt>
      <trkpt lat="59.858807" lon="17.7055904">
        <ele>23.6896</ele>
        <time>2013-05-25T16:31:51Z</time>
      </trkpt>
      <trkpt lat="59.8587762" lon="17.7056917">
        <ele>23.209</ele>
        <time>2013-05-25T16:31:52Z</time>
      </trkpt>
      <trkpt lat="59.8587472" lon="17.7057889">
        <ele>22.2476</ele>
        <time>2013-05-25T16:31:53Z</time>
      </trkpt>
      <trkpt lat="59.8587059" lon="17.7058751">
        <ele>20.8057</ele>
        <time>2013-05-25T16:31:54Z</time>
      </trkpt>
      <trkpt lat="59.8586687" lon="17.7059753">
        <ele>20.325</ele>
        <time>2013-05-25T16:31:55Z</time>
      </trkpt>
      <trkpt lat="59.8586346" lon="17.7060794">
        <ele>19.8444</ele>
        <time>2013-05-25T16:31:56Z</time>
      </trkpt>
      <trkpt lat="59.8586079" lon="17.7061944">
        <ele>19.3638</ele>
        <time>2013-05-25T16:31:57Z</time>
      </trkpt>
      <trkpt lat="59.8585815" lon="17.7063095">
        <ele>19.3638</ele>
        <time>2013-05-25T16:31:58Z</time>
      </trkpt>
      <trkpt lat="59.8585547" lon="17.7064185">
        <ele>18.4023</ele>
        <time>2013-05-25T16:31:59Z</time>
      </trkpt>
      <trkpt lat="59.858532" lon="17.7065345">
        <ele>17.9218</ele>
        <time>2013-05-25T16:32:00Z</time>
      </trkpt>
      <trkpt lat="59.8585211" lon="17.7066648">
        <ele>17.9218</ele>
        <time>2013-05-25T16:32:01Z</time>
      </trkpt>
      <trkpt lat="59.8585051" lon="17.7067786">
        <ele>16.4797</ele>
        <time>2013-05-25T16:32:02Z</time>
      </trkpt>
      <trkpt lat="59.8584899" lon="17.7069081">
        <ele>16.4797</ele>
        <time>2013-05-25T16:32:03Z</time>
      </trkpt>
      <trkpt lat="59.8584755" lon="17.7070422">
        <ele>16.4797</ele>
        <time>2013-05-25T16:32:04Z</time>
      </trkpt>
      <trkpt lat="59.8584578" lon="17.7071693">
        <ele>15.999</ele>
        <time>2013-05-25T16:32:05Z</time>
      </trkpt>
      <trkpt lat="59.8584349" lon="17.7072903">
        <ele>15.0377</ele>
        <time>2013-05-25T16:32:06Z</time>
      </trkpt>
      <trkpt lat="59.8584133" lon="17.7074237">
        <ele>15.0377</ele>
        <time>2013-05-25T16:32:07Z</time>
      </trkpt>
      <trkpt lat="59.8584013" lon="17.7075628">
        <ele>15.5184</ele>
        <time>2013-05-25T16:32:08Z</time>
      </trkpt>
      <trkpt lat="59.858387" lon="17.7076959">
        <ele>15.999</ele>
        <time>2013-05-25T16:32:09Z</time>
      </trkpt>
      <trkpt lat="59.8583718" lon="17.707827">
        <ele>15.999</ele>
        <time>2013-05-25T16:32:10Z</time>
      </trkpt>
      <trkpt lat="59.8583578" lon="17.707954">
        <ele>16.4797</ele>
        <time>2013-05-25T16:32:11Z</time>
      </trkpt>
      <trkpt lat="59.8583407" lon="17.7080725">
        <ele>15.999</ele>
        <time>2013-05-25T16:32:12Z</time>
      </trkpt>
      <trkpt lat="59.8583277" lon="17.7081965">
        <ele>16.4797</ele>
        <time>2013-05-25T16:32:13Z</time>
      </trkpt>
      <trkpt lat="59.8583133" lon="17.7083144">
        <ele>16.4797</ele>
        <time>2013-05-25T16:32:14Z</time>
      </trkpt>
      <trkpt lat="59.8582996" lon="17.7084276">
        <ele>16.4797</ele>
        <time>2013-05-25T16:32:15Z</time>
      </trkpt>
      <trkpt lat="59.8582917" lon="17.7085513">
        <ele>17.4412</ele>
        <time>2013-05-25T16:32:16Z</time>
      </trkpt>
      <trkpt lat="59.8582867" lon="17.7086721">
        <ele>18.4023</ele>
        <time>2013-05-25T16:32:17Z</time>
      </trkpt>
      <trkpt lat="59.858279" lon="17.7087849">
        <ele>18.4023</ele>
        <time>2013-05-25T16:32:18Z</time>
      </trkpt>
      <trkpt lat="59.8582708" lon="17.708898">
        <ele>18.8831</ele>
        <time>2013-05-25T16:32:19Z</time>
      </trkpt>
      <trkpt lat="59.8582611" lon="17.7090047">
        <ele>18.4023</ele>
        <time>2013-05-25T16:32:20Z</time>
      </trkpt>
      <trkpt lat="59.8582543" lon="17.7091088">
        <ele>17.9218</ele>
        <time>2013-05-25T16:32:21Z</time>
      </trkpt>
      <trkpt lat="59.8582516" lon="17.7092106">
        <ele>17.4412</ele>
        <time>2013-05-25T16:32:22Z</time>
      </trkpt>
      <trkpt lat="59.8582511" lon="17.709317">
        <ele>16.9604</ele>
        <time>2013-05-25T16:32:23Z</time>
      </trkpt>
      <trkpt lat="59.8582481" lon="17.7094232">
        <ele>16.9604</ele>
        <time>2013-05-25T16:32:24Z</time>
      </trkpt>
      <trkpt lat="59.8582553" lon="17.7095323">
        <ele>17.4412</ele>
        <time>2013-05-25T16:32:25Z</time>
      </trkpt>
      <trkpt lat="59.8582636" lon="17.7096379">
        <ele>17.9218</ele>
        <time>2013-05-25T16:32:26Z</time>
      </trkpt>
      <trkpt lat="59.8582794" lon="17.7097375">
        <ele>17.9218</ele>
        <time>2013-05-25T16:32:27Z</time>
      </trkpt>
      <trkpt lat="59.8582957" lon="17.70985">
        <ele>18.4023</ele>
        <time>2013-05-25T16:32:28Z</time>
      </trkpt>
      <trkpt lat="59.8583155" lon="17.7099565">
        <ele>18.8831</ele>
        <time>2013-05-25T16:32:29Z</time>
      </trkpt>
      <trkpt lat="59.858333" lon="17.7100565">
        <ele>19.3638</ele>
        <time>2013-05-25T16:32:30Z</time>
      </trkpt>
      <trkpt lat="59.8583483" lon="17.7101525">
        <ele>19.3638</ele>
        <time>2013-05-25T16:32:31Z</time>
      </trkpt>
      <trkpt lat="59.8583637" lon="17.7102628">
        <ele>19.3638</ele>
        <time>2013-05-25T16:32:32Z</time>
      </trkpt>
      <trkpt lat="59.8583786" lon="17.7103792">
        <ele>19.8444</ele>
        <time>2013-05-25T16:32:33Z</time>
      </trkpt>
      <trkpt lat="59.85839" lon="17.7104947">
        <ele>20.325</ele>
        <time>2013-05-25T16:32:34Z</time>
      </trkpt>
      <trkpt lat="59.8583934" lon="17.7105903">
        <ele>18.4023</ele>
        <time>2013-05-25T16:32:35Z</time>
      </trkpt>
      <trkpt lat="59.8584045" lon="17.7107125">
        <ele>17.4412</ele>
        <time>2013-05-25T16:32:36Z</time>
      </trkpt>
      <trkpt lat="59.8584106" lon="17.7108328">
        <ele>15.5184</ele>
        <time>2013-05-25T16:32:37Z</time>
      </trkpt>
      <trkpt lat="59.8584216" lon="17.7109605">
        <ele>14.0764</ele>
        <time>2013-05-25T16:32:38Z</time>
      </trkpt>
      <trkpt lat="59.8584304" lon="17.7111036">
        <ele>15.0377</ele>
        <time>2013-05-25T16:32:39Z</time>
      </trkpt>
      <trkpt lat="59.8584324" lon="17.7112456">
        <ele>14.557</ele>
        <time>2013-05-25T16:32:40Z</time>
      </trkpt>
      <trkpt lat="59.8584227" lon="17.7113813">
        <ele>14.0764</ele>
        <time>2013-05-25T16:32:41Z</time>
      </trkpt>
      <trkpt lat="59.8584162" lon="17.7115199">
        <ele>13.5958</ele>
        <time>2013-05-25T16:32:42Z</time>
      </trkpt>
      <trkpt lat="59.8583991" lon="17.7116496">
        <ele>13.1151</ele>
        <time>2013-05-25T16:32:43Z</time>
      </trkpt>
      <trkpt lat="59.8583781" lon="17.7117782">
        <ele>13.1151</ele>
        <time>2013-05-25T16:32:44Z</time>
      </trkpt>
      <trkpt lat="59.8583547" lon="17.711905">
        <ele>12.6344</ele>
        <time>2013-05-25T16:32:45Z</time>
      </trkpt>
      <trkpt lat="59.8583277" lon="17.7120251">
        <ele>12.6344</ele>
        <time>2013-05-25T16:32:46Z</time>
      </trkpt>
      <trkpt lat="59.8583036" lon="17.7121472">
        <ele>12.6344</ele>
        <time>2013-05-25T16:32:47Z</time>
      </trkpt>
      <trkpt lat="59.8582834" lon="17.7122748">
        <ele>12.6344</ele>
        <time>2013-05-25T16:32:48Z</time>
      </trkpt>
      <trkpt lat="59.8582631" lon="17.7124049">
        <ele>12.6344</ele>
        <time>2013-05-25T16:32:49Z</time>
      </trkpt>
      <trkpt lat="59.8582443" lon="17.7125409">
        <ele>12.1538</ele>
        <time>2013-05-25T16:32:50Z</time>
      </trkpt>
      <trkpt lat="59.8582272" lon="17.7126836">
        <ele>12.1538</ele>
        <time>2013-05-25T16:32:51Z</time>
      </trkpt>
      <trkpt lat="59.8582128" lon="17.7128348">
        <ele>13.1151</ele>
        <time>2013-05-25T16:32:52Z</time>
      </trkpt>
      <trkpt lat="59.8581995" lon="17.7129856">
        <ele>13.5958</ele>
        <time>2013-05-25T16:32:53Z</time>
      </trkpt>
      <trkpt lat="59.8581864" lon="17.7131363">
        <ele>13.5958</ele>
        <time>2013-05-25T16:32:54Z</time>
      </trkpt>
      <trkpt lat="59.8581724" lon="17.7132865">
        <ele>13.5958</ele>
        <time>2013-05-25T16:32:55Z</time>
      </trkpt>
      <trkpt lat="59.8581546" lon="17.7134346">
        <ele>13.5958</ele>
        <time>2013-05-25T16:32:56Z</time>
      </trkpt>
      <trkpt lat="59.8581351" lon="17.7135802">
        <ele>13.5958</ele>
        <time>2013-05-25T16:32:57Z</time>
      </trkpt>
      <trkpt lat="59.8581123" lon="17.7137169">
        <ele>13.1151</ele>
        <time>2013-05-25T16:32:58Z</time>
      </trkpt>
      <trkpt lat="59.8580848" lon="17.7138499">
        <ele>13.5958</ele>
        <time>2013-05-25T16:32:59Z</time>
      </trkpt>
      <trkpt lat="59.8580513" lon="17.7139775">
        <ele>13.5958</ele>
        <time>2013-05-25T16:33:00Z</time>
      </trkpt>
      <trkpt lat="59.8580149" lon="17.7141087">
        <ele>14.0764</ele>
        <time>2013-05-25T16:33:01Z</time>
      </trkpt>
      <trkpt lat="59.8579752" lon="17.7142234">
        <ele>14.557</ele>
        <time>2013-05-25T16:33:02Z</time>
      </trkpt>
      <trkpt lat="59.8579316" lon="17.7143308">
        <ele>14.557</ele>
        <time>2013-05-25T16:33:03Z</time>
      </trkpt>
      <trkpt lat="59.8578906" lon="17.7144453">
        <ele>14.0764</ele>
        <time>2013-05-25T16:33:04Z</time>
      </trkpt>
      <trkpt lat="59.8578512" lon="17.7145649">
        <ele>14.0764</ele>
        <time>2013-05-25T16:33:05Z</time>
      </trkpt>
      <trkpt lat="59.8578143" lon="17.7146886">
        <ele>14.0764</ele>
        <time>2013-05-25T16:33:06Z</time>
      </trkpt>
      <trkpt lat="59.8577817" lon="17.7148197">
        <ele>14.557</ele>
        <time>2013-05-25T16:33:07Z</time>
      </trkpt>
      <trkpt lat="59.8577513" lon="17.7149535">
        <ele>14.557</ele>
        <time>2013-05-25T16:33:08Z</time>
      </trkpt>
      <trkpt lat="59.8577222" lon="17.7150907">
        <ele>14.557</ele>
        <time>2013-05-25T16:33:09Z</time>
      </trkpt>
      <trkpt lat="59.8576938" lon="17.7152296">
        <ele>15.0377</ele>
        <time>2013-05-25T16:33:10Z</time>
      </trkpt>
      <trkpt lat="59.8576668" lon="17.7153693">
        <ele>15.0377</ele>
        <time>2013-05-25T16:33:11Z</time>
      </trkpt>
      <trkpt lat="59.857643" lon="17.7155109">
        <ele>15.0377</ele>
        <time>2013-05-25T16:33:12Z</time>
      </trkpt>
      <trkpt lat="59.8576228" lon="17.7156569">
        <ele>15.0377</ele>
        <time>2013-05-25T16:33:13Z</time>
      </trkpt>
      <trkpt lat="59.8576067" lon="17.7158065">
        <ele>15.5184</ele>
        <time>2013-05-25T16:33:14Z</time>
      </trkpt>
      <trkpt lat="59.8575943" lon="17.7159575">
        <ele>15.5184</ele>
        <time>2013-05-25T16:33:15Z</time>
      </trkpt>
      <trkpt lat="59.8575864" lon="17.7161101">
        <ele>15.5184</ele>
        <time>2013-05-25T16:33:16Z</time>
      </trkpt>
      <trkpt lat="59.8575845" lon="17.7162641">
        <ele>15.5184</ele>
        <time>2013-05-25T16:33:17Z</time>
      </trkpt>
      <trkpt lat="59.8575891" lon="17.7164153">
        <ele>15.5184</ele>
        <time>2013-05-25T16:33:18Z</time>
      </trkpt>
      <trkpt lat="59.857599" lon="17.7165752">
        <ele>16.4797</ele>
        <time>2013-05-25T16:33:19Z</time>
      </trkpt>
      <trkpt lat="59.8576098" lon="17.7167352">
        <ele>16.9604</ele>
        <time>2013-05-25T16:33:20Z</time>
      </trkpt>
      <trkpt lat="59.8576212" lon="17.7168979">
        <ele>17.9218</ele>
        <time>2013-05-25T16:33:21Z</time>
      </trkpt>
      <trkpt lat="59.8576301" lon="17.7170561">
        <ele>18.4023</ele>
        <time>2013-05-25T16:33:22Z</time>
      </trkpt>
      <trkpt lat="59.8576389" lon="17.7172142">
        <ele>19.3638</ele>
        <time>2013-05-25T16:33:23Z</time>
      </trkpt>
      <trkpt lat="59.8576447" lon="17.7173689">
        <ele>19.8444</ele>
        <time>2013-05-25T16:33:24Z</time>
      </trkpt>
      <trkpt lat="59.8576465" lon="17.7175207">
        <ele>19.8444</ele>
        <time>2013-05-25T16:33:25Z</time>
      </trkpt>
      <trkpt lat="59.8576483" lon="17.7176749">
        <ele>20.8057</ele>
        <time>2013-05-25T16:33:26Z</time>
      </trkpt>
      <trkpt lat="59.8576485" lon="17.7178256">
        <ele>21.2864</ele>
        <time>2013-05-25T16:33:27Z</time>
      </trkpt>
      <trkpt lat="59.8576456" lon="17.7179725">
        <ele>21.2864</ele>
        <time>2013-05-25T16:33:28Z</time>
      </trkpt>
      <trkpt lat="59.8576431" lon="17.7181221">
        <ele>20.325</ele>
        <time>2013-05-25T16:33:29Z</time>
      </trkpt>
      <trkpt lat="59.8576387" lon="17.7182672">
        <ele>20.325</ele>
        <time>2013-05-25T16:33:30Z</time>
      </trkpt>
      <trkpt lat="59.8576332" lon="17.718402">
        <ele>20.325</ele>
        <time>2013-05-25T16:33:31Z</time>
      </trkpt>
      <trkpt lat="59.8576254" lon="17.7185406">
        <ele>20.325</ele>
        <time>2013-05-25T16:33:32Z</time>
      </trkpt>
      <trkpt lat="59.8576216" lon="17.7186832">
        <ele>20.325</ele>
        <time>2013-05-25T16:33:33Z</time>
      </trkpt>
      <trkpt lat="59.8576223" lon="17.7188301">
        <ele>20.8057</ele>
        <time>2013-05-25T16:33:34Z</time>
      </trkpt>
      <trkpt lat="59.8576245" lon="17.7189742">
        <ele>20.8057</ele>
        <time>2013-05-25T16:33:35Z</time>
      </trkpt>
      <trkpt lat="59.8576299" lon="17.7191228">
        <ele>21.2864</ele>
        <time>2013-05-25T16:33:36Z</time>
      </trkpt>
      <trkpt lat="59.8576322" lon="17.7192652">
        <ele>21.2864</ele>
        <time>2013-05-25T16:33:37Z</time>
      </trkpt>
      <trkpt lat="59.8576402" lon="17.7194176">
        <ele>22.2476</ele>
        <time>2013-05-25T16:33:38Z</time>
      </trkpt>
      <trkpt lat="59.8576503" lon="17.7195739">
        <ele>22.7283</ele>
        <time>2013-05-25T16:33:39Z</time>
      </trkpt>
      <trkpt lat="59.8576595" lon="17.7197253">
        <ele>23.6896</ele>
        <time>2013-05-25T16:33:40Z</time>
      </trkpt>
      <trkpt lat="59.8576646" lon="17.7198683">
        <ele>23.209</ele>
        <time>2013-05-25T16:33:41Z</time>
      </trkpt>
      <trkpt lat="59.8576693" lon="17.7200113">
        <ele>23.6896</ele>
        <time>2013-05-25T16:33:42Z</time>
      </trkpt>
      <trkpt lat="59.8576725" lon="17.7201532">
        <ele>23.6896</ele>
        <time>2013-05-25T16:33:43Z</time>
      </trkpt>
      <trkpt lat="59.8576763" lon="17.7202921">
        <ele>23.209</ele>
        <time>2013-05-25T16:33:44Z</time>
      </trkpt>
      <trkpt lat="59.8576808" lon="17.7204313">
        <ele>22.7283</ele>
        <time>2013-05-25T16:33:45Z</time>
      </trkpt>
      <trkpt lat="59.8576786" lon="17.7205664">
        <ele>22.2476</ele>
        <time>2013-05-25T16:33:46Z</time>
      </trkpt>
      <trkpt lat="59.8576731" lon="17.7206987">
        <ele>21.767</ele>
        <time>2013-05-25T16:33:47Z</time>
      </trkpt>
      <trkpt lat="59.857671" lon="17.7208313">
        <ele>21.767</ele>
        <time>2013-05-25T16:33:48Z</time>
      </trkpt>
      <trkpt lat="59.8576693" lon="17.7209593">
        <ele>21.2864</ele>
        <time>2013-05-25T16:33:49Z</time>
      </trkpt>
      <trkpt lat="59.8576705" lon="17.7210785">
        <ele>20.8057</ele>
        <time>2013-05-25T16:33:50Z</time>
      </trkpt>
      <trkpt lat="59.8576737" lon="17.7212018">
        <ele>20.8057</ele>
        <time>2013-05-25T16:33:51Z</time>
      </trkpt>
      <trkpt lat="59.8576698" lon="17.7213254">
        <ele>20.8057</ele>
        <time>2013-05-25T16:33:52Z</time>
      </trkpt>
      <trkpt lat="59.8576609" lon="17.7214499">
        <ele>20.325</ele>
        <time>2013-05-25T16:33:53Z</time>
      </trkpt>
      <trkpt lat="59.8576517" lon="17.7215814">
        <ele>20.325</ele>
        <time>2013-05-25T16:33:54Z</time>
      </trkpt>
      <trkpt lat="59.8576387" lon="17.721714">
        <ele>21.2864</ele>
        <time>2013-05-25T16:33:55Z</time>
      </trkpt>
      <trkpt lat="59.8576167" lon="17.7218312">
        <ele>20.8057</ele>
        <time>2013-05-25T16:33:56Z</time>
      </trkpt>
      <trkpt lat="59.8575897" lon="17.7219424">
        <ele>19.3638</ele>
        <time>2013-05-25T16:33:57Z</time>
      </trkpt>
      <trkpt lat="59.8575606" lon="17.7220517">
        <ele>18.8831</ele>
        <time>2013-05-25T16:33:58Z</time>
      </trkpt>
      <trkpt lat="59.8575263" lon="17.7221513">
        <ele>19.3638</ele>
        <time>2013-05-25T16:33:59Z</time>
      </trkpt>
      <trkpt lat="59.8574867" lon="17.7222428">
        <ele>19.3638</ele>
        <time>2013-05-25T16:34:00Z</time>
      </trkpt>
      <trkpt lat="59.8574428" lon="17.7223304">
        <ele>19.8444</ele>
        <time>2013-05-25T16:34:01Z</time>
      </trkpt>
      <trkpt lat="59.8573959" lon="17.7224181">
        <ele>20.325</ele>
        <time>2013-05-25T16:34:02Z</time>
      </trkpt>
      <trkpt lat="59.8573461" lon="17.7225091">
        <ele>20.325</ele>
        <time>2013-05-25T16:34:03Z</time>
      </trkpt>
      <trkpt lat="59.857295" lon="17.7225925">
        <ele>20.325</ele>
        <time>2013-05-25T16:34:04Z</time>
      </trkpt>
      <trkpt lat="59.8572421" lon="17.7226744">
        <ele>20.325</ele>
        <time>2013-05-25T16:34:05Z</time>
      </trkpt>
      <trkpt lat="59.8571898" lon="17.7227576">
        <ele>20.325</ele>
        <time>2013-05-25T16:34:06Z</time>
      </trkpt>
      <trkpt lat="59.8571382" lon="17.7228465">
        <ele>20.325</ele>
        <time>2013-05-25T16:34:07Z</time>
      </trkpt>
      <trkpt lat="59.8570861" lon="17.7229397">
        <ele>20.325</ele>
        <time>2013-05-25T16:34:08Z</time>
      </trkpt>
      <trkpt lat="59.8570343" lon="17.7230374">
        <ele>20.325</ele>
        <time>2013-05-25T16:34:09Z</time>
      </trkpt>
      <trkpt lat="59.8569774" lon="17.7231437">
        <ele>20.8057</ele>
        <time>2013-05-25T16:34:10Z</time>
      </trkpt>
      <trkpt lat="59.8569217" lon="17.7232565">
        <ele>20.325</ele>
        <time>2013-05-25T16:34:11Z</time>
      </trkpt>
      <trkpt lat="59.856866" lon="17.7233731">
        <ele>20.325</ele>
        <time>2013-05-25T16:34:12Z</time>
      </trkpt>
      <trkpt lat="59.8568093" lon="17.7234963">
        <ele>19.8444</ele>
        <time>2013-05-25T16:34:13Z</time>
      </trkpt>
      <trkpt lat="59.85675" lon="17.7236167">
        <ele>19.3638</ele>
        <time>2013-05-25T16:34:14Z</time>
      </trkpt>
      <trkpt lat="59.8566878" lon="17.7237383">
        <ele>18.8831</ele>
        <time>2013-05-25T16:34:15Z</time>
      </trkpt>
      <trkpt lat="59.8566251" lon="17.7238638">
        <ele>18.8831</ele>
        <time>2013-05-25T16:34:16Z</time>
      </trkpt>
      <trkpt lat="59.8565635" lon="17.7239931">
        <ele>18.8831</ele>
        <time>2013-05-25T16:34:17Z</time>
      </trkpt>
      <trkpt lat="59.8565021" lon="17.7241251">
        <ele>18.8831</ele>
        <time>2013-05-25T16:34:18Z</time>
      </trkpt>
      <trkpt lat="59.8564422" lon="17.724263">
        <ele>18.4023</ele>
        <time>2013-05-25T16:34:19Z</time>
      </trkpt>
      <trkpt lat="59.8563832" lon="17.7244046">
        <ele>18.4023</ele>
        <time>2013-05-25T16:34:20Z</time>
      </trkpt>
      <trkpt lat="59.8563266" lon="17.7245516">
        <ele>18.4023</ele>
        <time>2013-05-25T16:34:21Z</time>
      </trkpt>
      <trkpt lat="59.8562691" lon="17.7247014">
        <ele>17.9218</ele>
        <time>2013-05-25T16:34:22Z</time>
      </trkpt>
      <trkpt lat="59.8562102" lon="17.7248521">
        <ele>17.9218</ele>
        <time>2013-05-25T16:34:23Z</time>
      </trkpt>
      <trkpt lat="59.8561496" lon="17.7250033">
        <ele>17.9218</ele>
        <time>2013-05-25T16:34:24Z</time>
      </trkpt>
      <trkpt lat="59.8560864" lon="17.7251493">
        <ele>17.4412</ele>
        <time>2013-05-25T16:34:25Z</time>
      </trkpt>
      <trkpt lat="59.8560233" lon="17.7252972">
        <ele>16.9604</ele>
        <time>2013-05-25T16:34:26Z</time>
      </trkpt>
      <trkpt lat="59.855961" lon="17.7254479">
        <ele>16.9604</ele>
        <time>2013-05-25T16:34:27Z</time>
      </trkpt>
      <trkpt lat="59.8559004" lon="17.7256012">
        <ele>16.4797</ele>
        <time>2013-05-25T16:34:28Z</time>
      </trkpt>
      <trkpt lat="59.8558417" lon="17.7257556">
        <ele>16.4797</ele>
        <time>2013-05-25T16:34:29Z</time>
      </trkpt>
      <trkpt lat="59.8557843" lon="17.7259107">
        <ele>15.999</ele>
        <time>2013-05-25T16:34:30Z</time>
      </trkpt>
      <trkpt lat="59.855728" lon="17.7260663">
        <ele>15.999</ele>
        <time>2013-05-25T16:34:31Z</time>
      </trkpt>
      <trkpt lat="59.8556744" lon="17.7262222">
        <ele>15.999</ele>
        <time>2013-05-25T16:34:32Z</time>
      </trkpt>
      <trkpt lat="59.8556226" lon="17.7263787">
        <ele>15.999</ele>
        <time>2013-05-25T16:34:33Z</time>
      </trkpt>
      <trkpt lat="59.8555719" lon="17.7265308">
        <ele>15.999</ele>
        <time>2013-05-25T16:34:34Z</time>
      </trkpt>
      <trkpt lat="59.8555215" lon="17.726679">
        <ele>16.4797</ele>
        <time>2013-05-25T16:34:35Z</time>
      </trkpt>
      <trkpt lat="59.8554725" lon="17.7268261">
        <ele>16.4797</ele>
        <time>2013-05-25T16:34:36Z</time>
      </trkpt>
      <trkpt lat="59.8554247" lon="17.7269724">
        <ele>16.4797</ele>
        <time>2013-05-25T16:34:37Z</time>
      </trkpt>
      <trkpt lat="59.8553758" lon="17.7271132">
        <ele>16.4797</ele>
        <time>2013-05-25T16:34:38Z</time>
      </trkpt>
      <trkpt lat="59.8553275" lon="17.7272498">
        <ele>16.9604</ele>
        <time>2013-05-25T16:34:39Z</time>
      </trkpt>
      <trkpt lat="59.8552798" lon="17.7273842">
        <ele>16.9604</ele>
        <time>2013-05-25T16:34:40Z</time>
      </trkpt>
      <trkpt lat="59.8552312" lon="17.7275161">
        <ele>17.4412</ele>
        <time>2013-05-25T16:34:41Z</time>
      </trkpt>
      <trkpt lat="59.8551819" lon="17.7276476">
        <ele>17.4412</ele>
        <time>2013-05-25T16:34:42Z</time>
      </trkpt>
      <trkpt lat="59.8551322" lon="17.7277785">
        <ele>17.9218</ele>
        <time>2013-05-25T16:34:43Z</time>
      </trkpt>
      <trkpt lat="59.8550831" lon="17.7279102">
        <ele>17.9218</ele>
        <time>2013-05-25T16:34:44Z</time>
      </trkpt>
      <trkpt lat="59.8550346" lon="17.7280423">
        <ele>17.9218</ele>
        <time>2013-05-25T16:34:45Z</time>
      </trkpt>
      <trkpt lat="59.854985" lon="17.728172">
        <ele>18.4023</ele>
        <time>2013-05-25T16:34:46Z</time>
      </trkpt>
      <trkpt lat="59.8549346" lon="17.7282991">
        <ele>18.4023</ele>
        <time>2013-05-25T16:34:47Z</time>
      </trkpt>
      <trkpt lat="59.8548851" lon="17.7284267">
        <ele>18.4023</ele>
        <time>2013-05-25T16:34:48Z</time>
      </trkpt>
      <trkpt lat="59.8548364" lon="17.7285533">
        <ele>18.8831</ele>
        <time>2013-05-25T16:34:49Z</time>
      </trkpt>
      <trkpt lat="59.8547877" lon="17.7286792">
        <ele>18.8831</ele>
        <time>2013-05-25T16:34:50Z</time>
      </trkpt>
      <trkpt lat="59.8547391" lon="17.7288054">
        <ele>18.8831</ele>
        <time>2013-05-25T16:34:51Z</time>
      </trkpt>
      <trkpt lat="59.8546903" lon="17.7289313">
        <ele>18.8831</ele>
        <time>2013-05-25T16:34:52Z</time>
      </trkpt>
      <trkpt lat="59.8546418" lon="17.7290578">
        <ele>19.3638</ele>
        <time>2013-05-25T16:34:53Z</time>
      </trkpt>
      <trkpt lat="59.8545935" lon="17.7291843">
        <ele>19.3638</ele>
        <time>2013-05-25T16:34:54Z</time>
      </trkpt>
      <trkpt lat="59.8545452" lon="17.729311">
        <ele>19.3638</ele>
        <time>2013-05-25T16:34:55Z</time>
      </trkpt>
      <trkpt lat="59.8544967" lon="17.729439">
        <ele>19.8444</ele>
        <time>2013-05-25T16:34:56Z</time>
      </trkpt>
      <trkpt lat="59.854448" lon="17.7295681">
        <ele>19.8444</ele>
        <time>2013-05-25T16:34:57Z</time>
      </trkpt>
      <trkpt lat="59.8543993" lon="17.7296996">
        <ele>19.8444</ele>
        <time>2013-05-25T16:34:58Z</time>
      </trkpt>
      <trkpt lat="59.8543495" lon="17.7298316">
        <ele>19.3638</ele>
        <time>2013-05-25T16:34:59Z</time>
      </trkpt>
      <trkpt lat="59.8542991" lon="17.729966">
        <ele>19.3638</ele>
        <time>2013-05-25T16:35:00Z</time>
      </trkpt>
      <trkpt lat="59.8542491" lon="17.7301027">
        <ele>18.8831</ele>
        <time>2013-05-25T16:35:01Z</time>
      </trkpt>
      <trkpt lat="59.8542011" lon="17.7302434">
        <ele>18.8831</ele>
        <time>2013-05-25T16:35:02Z</time>
      </trkpt>
      <trkpt lat="59.8541559" lon="17.7303915">
        <ele>18.4023</ele>
        <time>2013-05-25T16:35:03Z</time>
      </trkpt>
      <trkpt lat="59.8541143" lon="17.7305497">
        <ele>17.9218</ele>
        <time>2013-05-25T16:35:04Z</time>
      </trkpt>
      <trkpt lat="59.8540761" lon="17.7307155">
        <ele>17.4412</ele>
        <time>2013-05-25T16:35:05Z</time>
      </trkpt>
      <trkpt lat="59.8540407" lon="17.7308888">
        <ele>17.4412</ele>
        <time>2013-05-25T16:35:06Z</time>
      </trkpt>
      <trkpt lat="59.8540086" lon="17.7310703">
        <ele>16.9604</ele>
        <time>2013-05-25T16:35:07Z</time>
      </trkpt>
      <trkpt lat="59.8539797" lon="17.7312605">
        <ele>16.4797</ele>
        <time>2013-05-25T16:35:08Z</time>
      </trkpt>
      <trkpt lat="59.8539546" lon="17.731455">
        <ele>15.999</ele>
        <time>2013-05-25T16:35:09Z</time>
      </trkpt>
      <trkpt lat="59.8539323" lon="17.7316546">
        <ele>15.999</ele>
        <time>2013-05-25T16:35:10Z</time>
      </trkpt>
      <trkpt lat="59.8539119" lon="17.7318546">
        <ele>15.5184</ele>
        <time>2013-05-25T16:35:11Z</time>
      </trkpt>
      <trkpt lat="59.8538916" lon="17.7320556">
        <ele>15.5184</ele>
        <time>2013-05-25T16:35:12Z</time>
      </trkpt>
      <trkpt lat="59.8538713" lon="17.7322534">
        <ele>15.5184</ele>
        <time>2013-05-25T16:35:13Z</time>
      </trkpt>
      <trkpt lat="59.8538439" lon="17.7324694">
        <ele>15.0377</ele>
        <time>2013-05-25T16:35:14Z</time>
      </trkpt>
      <trkpt lat="59.8538258" lon="17.732643">
        <ele>14.557</ele>
        <time>2013-05-25T16:35:15Z</time>
      </trkpt>
      <trkpt lat="59.8537963" lon="17.7328177">
        <ele>14.557</ele>
        <time>2013-05-25T16:35:16Z</time>
      </trkpt>
      <trkpt lat="59.8537818" lon="17.7329982">
        <ele>14.0764</ele>
        <time>2013-05-25T16:35:17Z</time>
      </trkpt>
      <trkpt lat="59.8537552" lon="17.7331517">
        <ele>14.0764</ele>
        <time>2013-05-25T16:35:18Z</time>
      </trkpt>
      <trkpt lat="59.8537269" lon="17.7333003">
        <ele>14.0764</ele>
        <time>2013-05-25T16:35:19Z</time>
      </trkpt>
      <trkpt lat="59.8536942" lon="17.7334446">
        <ele>14.0764</ele>
        <time>2013-05-25T16:35:20Z</time>
      </trkpt>
      <trkpt lat="59.8536579" lon="17.7335728">
        <ele>14.0764</ele>
        <time>2013-05-25T16:35:21Z</time>
      </trkpt>
      <trkpt lat="59.8536201" lon="17.7337044">
        <ele>15.0377</ele>
        <time>2013-05-25T16:35:22Z</time>
      </trkpt>
      <trkpt lat="59.8535802" lon="17.733822">
        <ele>15.5184</ele>
        <time>2013-05-25T16:35:23Z</time>
      </trkpt>
      <trkpt lat="59.8535382" lon="17.7339307">
        <ele>15.999</ele>
        <time>2013-05-25T16:35:24Z</time>
      </trkpt>
      <trkpt lat="59.8534935" lon="17.7340363">
        <ele>16.4797</ele>
        <time>2013-05-25T16:35:25Z</time>
      </trkpt>
      <trkpt lat="59.853446" lon="17.7341374">
        <ele>16.9604</ele>
        <time>2013-05-25T16:35:26Z</time>
      </trkpt>
      <trkpt lat="59.8533952" lon="17.7342343">
        <ele>17.4412</ele>
        <time>2013-05-25T16:35:27Z</time>
      </trkpt>
      <trkpt lat="59.8533412" lon="17.734325">
        <ele>18.4023</ele>
        <time>2013-05-25T16:35:28Z</time>
      </trkpt>
      <trkpt lat="59.8532845" lon="17.7344111">
        <ele>18.8831</ele>
        <time>2013-05-25T16:35:29Z</time>
      </trkpt>
      <trkpt lat="59.8532259" lon="17.7344959">
        <ele>19.3638</ele>
        <time>2013-05-25T16:35:30Z</time>
      </trkpt>
      <trkpt lat="59.8531653" lon="17.7345757">
        <ele>20.325</ele>
        <time>2013-05-25T16:35:31Z</time>
      </trkpt>
      <trkpt lat="59.8531027" lon="17.7346549">
        <ele>21.2864</ele>
        <time>2013-05-25T16:35:32Z</time>
      </trkpt>
      <trkpt lat="59.8530379" lon="17.7347355">
        <ele>21.767</ele>
        <time>2013-05-25T16:35:33Z</time>
      </trkpt>
      <trkpt lat="59.8529716" lon="17.7348034">
        <ele>21.767</ele>
        <time>2013-05-25T16:35:34Z</time>
      </trkpt>
      <trkpt lat="59.852909" lon="17.7348804">
        <ele>22.2476</ele>
        <time>2013-05-25T16:35:35Z</time>
      </trkpt>
      <trkpt lat="59.8528465" lon="17.7349517">
        <ele>22.2476</ele>
        <time>2013-05-25T16:35:36Z</time>
      </trkpt>
      <trkpt lat="59.8527836" lon="17.735023">
        <ele>22.2476</ele>
        <time>2013-05-25T16:35:37Z</time>
      </trkpt>
      <trkpt lat="59.8527209" lon="17.7350962">
        <ele>22.2476</ele>
        <time>2013-05-25T16:35:38Z</time>
      </trkpt>
      <trkpt lat="59.8526573" lon="17.7351689">
        <ele>22.2476</ele>
        <time>2013-05-25T16:35:39Z</time>
      </trkpt>
      <trkpt lat="59.8525928" lon="17.7352408">
        <ele>21.767</ele>
        <time>2013-05-25T16:35:40Z</time>
      </trkpt>
      <trkpt lat="59.852527" lon="17.7353128">
        <ele>21.767</ele>
        <time>2013-05-25T16:35:41Z</time>
      </trkpt>
      <trkpt lat="59.8524608" lon="17.7353859">
        <ele>21.2864</ele>
        <time>2013-05-25T16:35:42Z</time>
      </trkpt>
      <trkpt lat="59.8523955" lon="17.7354618">
        <ele>21.2864</ele>
        <time>2013-05-25T16:35:43Z</time>
      </trkpt>
      <trkpt lat="59.8523298" lon="17.7355377">
        <ele>21.2864</ele>
        <time>2013-05-25T16:35:44Z</time>
      </trkpt>
      <trkpt lat="59.852264" lon="17.7356132">
        <ele>21.2864</ele>
        <time>2013-05-25T16:35:45Z</time>
      </trkpt>
      <trkpt lat="59.8521983" lon="17.7356892">
        <ele>21.2864</ele>
        <time>2013-05-25T16:35:46Z</time>
      </trkpt>
      <trkpt lat="59.8521328" lon="17.7357666">
        <ele>21.2864</ele>
        <time>2013-05-25T16:35:47Z</time>
      </trkpt>
      <trkpt lat="59.8520677" lon="17.735847">
        <ele>20.8057</ele>
        <time>2013-05-25T16:35:48Z</time>
      </trkpt>
      <trkpt lat="59.8520033" lon="17.7359316">
        <ele>20.8057</ele>
        <time>2013-05-25T16:35:49Z</time>
      </trkpt>
      <trkpt lat="59.8519395" lon="17.7360212">
        <ele>20.8057</ele>
        <time>2013-05-25T16:35:50Z</time>
      </trkpt>
      <trkpt lat="59.8518773" lon="17.7361153">
        <ele>20.325</ele>
        <time>2013-05-25T16:35:51Z</time>
      </trkpt>
      <trkpt lat="59.8518175" lon="17.7362136">
        <ele>20.325</ele>
        <time>2013-05-25T16:35:52Z</time>
      </trkpt>
      <trkpt lat="59.8517578" lon="17.7363134">
        <ele>19.8444</ele>
        <time>2013-05-25T16:35:53Z</time>
      </trkpt>
      <trkpt lat="59.8516973" lon="17.7364135">
        <ele>19.8444</ele>
        <time>2013-05-25T16:35:54Z</time>
      </trkpt>
      <trkpt lat="59.8516355" lon="17.7365111">
        <ele>19.8444</ele>
        <time>2013-05-25T16:35:55Z</time>
      </trkpt>
      <trkpt lat="59.8515727" lon="17.7366019">
        <ele>19.8444</ele>
        <time>2013-05-25T16:35:56Z</time>
      </trkpt>
      <trkpt lat="59.8515077" lon="17.7366892">
        <ele>19.8444</ele>
        <time>2013-05-25T16:35:57Z</time>
      </trkpt>
      <trkpt lat="59.8514419" lon="17.7367746">
        <ele>19.8444</ele>
        <time>2013-05-25T16:35:58Z</time>
      </trkpt>
      <trkpt lat="59.8513735" lon="17.7368547">
        <ele>19.8444</ele>
        <time>2013-05-25T16:35:59Z</time>
      </trkpt>
      <trkpt lat="59.8513031" lon="17.7369298">
        <ele>19.8444</ele>
        <time>2013-05-25T16:36:00Z</time>
      </trkpt>
      <trkpt lat="59.8512312" lon="17.737001">
        <ele>19.8444</ele>
        <time>2013-05-25T16:36:01Z</time>
      </trkpt>
      <trkpt lat="59.8511581" lon="17.7370687">
        <ele>19.8444</ele>
        <time>2013-05-25T16:36:02Z</time>
      </trkpt>
      <trkpt lat="59.8510843" lon="17.7371331">
        <ele>19.8444</ele>
        <time>2013-05-25T16:36:03Z</time>
      </trkpt>
      <trkpt lat="59.8510095" lon="17.7371952">
        <ele>19.8444</ele>
        <time>2013-05-25T16:36:04Z</time>
      </trkpt>
      <trkpt lat="59.8509342" lon="17.7372567">
        <ele>19.8444</ele>
        <time>2013-05-25T16:36:05Z</time>
      </trkpt>
      <trkpt lat="59.8508576" lon="17.7373181">
        <ele>19.8444</ele>
        <time>2013-05-25T16:36:06Z</time>
      </trkpt>
      <trkpt lat="59.8507807" lon="17.73738">
        <ele>19.3638</ele>
        <time>2013-05-25T16:36:07Z</time>
      </trkpt>
      <trkpt lat="59.8507013" lon="17.7374392">
        <ele>19.3638</ele>
        <time>2013-05-25T16:36:08Z</time>
      </trkpt>
      <trkpt lat="59.8506232" lon="17.7374991">
        <ele>19.3638</ele>
        <time>2013-05-25T16:36:09Z</time>
      </trkpt>
      <trkpt lat="59.8505442" lon="17.7375558">
        <ele>19.3638</ele>
        <time>2013-05-25T16:36:10Z</time>
      </trkpt>
      <trkpt lat="59.8504652" lon="17.7376105">
        <ele>19.3638</ele>
        <time>2013-05-25T16:36:11Z</time>
      </trkpt>
      <trkpt lat="59.8503858" lon="17.7376618">
        <ele>19.3638</ele>
        <time>2013-05-25T16:36:12Z</time>
      </trkpt>
      <trkpt lat="59.850306" lon="17.7377099">
        <ele>19.3638</ele>
        <time>2013-05-25T16:36:13Z</time>
      </trkpt>
      <trkpt lat="59.8502272" lon="17.7377578">
        <ele>19.3638</ele>
        <time>2013-05-25T16:36:14Z</time>
      </trkpt>
      <trkpt lat="59.8501485" lon="17.7378044">
        <ele>19.3638</ele>
        <time>2013-05-25T16:36:15Z</time>
      </trkpt>
      <trkpt lat="59.85007" lon="17.7378479">
        <ele>19.8444</ele>
        <time>2013-05-25T16:36:16Z</time>
      </trkpt>
      <trkpt lat="59.8499925" lon="17.7378877">
        <ele>19.8444</ele>
        <time>2013-05-25T16:36:17Z</time>
      </trkpt>
      <trkpt lat="59.8499159" lon="17.7379244">
        <ele>19.8444</ele>
        <time>2013-05-25T16:36:18Z</time>
      </trkpt>
      <trkpt lat="59.8498413" lon="17.7379636">
        <ele>20.325</ele>
        <time>2013-05-25T16:36:19Z</time>
      </trkpt>
      <trkpt lat="59.849766" lon="17.7379943">
        <ele>20.325</ele>
        <time>2013-05-25T16:36:20Z</time>
      </trkpt>
      <trkpt lat="59.8496894" lon="17.7380215">
        <ele>20.325</ele>
        <time>2013-05-25T16:36:21Z</time>
      </trkpt>
      <trkpt lat="59.8496126" lon="17.73805">
        <ele>20.325</ele>
        <time>2013-05-25T16:36:22Z</time>
      </trkpt>
      <trkpt lat="59.8495365" lon="17.7380791">
        <ele>20.325</ele>
        <time>2013-05-25T16:36:23Z</time>
      </trkpt>
      <trkpt lat="59.8494595" lon="17.7381093">
        <ele>20.325</ele>
        <time>2013-05-25T16:36:24Z</time>
      </trkpt>
      <trkpt lat="59.8493823" lon="17.7381451">
        <ele>20.325</ele>
        <time>2013-05-25T16:36:25Z</time>
      </trkpt>
      <trkpt lat="59.8493052" lon="17.7381824">
        <ele>20.325</ele>
        <time>2013-05-25T16:36:26Z</time>
      </trkpt>
      <trkpt lat="59.8492278" lon="17.7382208">
        <ele>20.325</ele>
        <time>2013-05-25T16:36:27Z</time>
      </trkpt>
      <trkpt lat="59.8491503" lon="17.7382613">
        <ele>20.325</ele>
        <time>2013-05-25T16:36:28Z</time>
      </trkpt>
      <trkpt lat="59.849073" lon="17.7383023">
        <ele>20.8057</ele>
        <time>2013-05-25T16:36:29Z</time>
      </trkpt>
      <trkpt lat="59.8489946" lon="17.7383427">
        <ele>20.325</ele>
        <time>2013-05-25T16:36:30Z</time>
      </trkpt>
      <trkpt lat="59.8489155" lon="17.7383832">
        <ele>20.325</ele>
        <time>2013-05-25T16:36:31Z</time>
      </trkpt>
      <trkpt lat="59.8488362" lon="17.7384244">
        <ele>20.325</ele>
        <time>2013-05-25T16:36:32Z</time>
      </trkpt>
      <trkpt lat="59.8487539" lon="17.7384595">
        <ele>19.8444</ele>
        <time>2013-05-25T16:36:33Z</time>
      </trkpt>
      <trkpt lat="59.8486747" lon="17.7384986">
        <ele>19.8444</ele>
        <time>2013-05-25T16:36:34Z</time>
      </trkpt>
      <trkpt lat="59.848596" lon="17.7385398">
        <ele>19.8444</ele>
        <time>2013-05-25T16:36:35Z</time>
      </trkpt>
      <trkpt lat="59.8485191" lon="17.7385861">
        <ele>19.3638</ele>
        <time>2013-05-25T16:36:36Z</time>
      </trkpt>
      <trkpt lat="59.8484442" lon="17.7386343">
        <ele>19.3638</ele>
        <time>2013-05-25T16:36:37Z</time>
      </trkpt>
      <trkpt lat="59.8483689" lon="17.7386758">
        <ele>18.8831</ele>
        <time>2013-05-25T16:36:38Z</time>
      </trkpt>
      <trkpt lat="59.8482946" lon="17.7387131">
        <ele>18.4023</ele>
        <time>2013-05-25T16:36:39Z</time>
      </trkpt>
      <trkpt lat="59.8482234" lon="17.7387513">
        <ele>18.4023</ele>
        <time>2013-05-25T16:36:40Z</time>
      </trkpt>
      <trkpt lat="59.8481541" lon="17.7387903">
        <ele>18.8831</ele>
        <time>2013-05-25T16:36:41Z</time>
      </trkpt>
      <trkpt lat="59.8480829" lon="17.7388204">
        <ele>18.4023</ele>
        <time>2013-05-25T16:36:42Z</time>
      </trkpt>
      <trkpt lat="59.8480138" lon="17.7388513">
        <ele>18.8831</ele>
        <time>2013-05-25T16:36:43Z</time>
      </trkpt>
      <trkpt lat="59.8479467" lon="17.7388849">
        <ele>18.4023</ele>
        <time>2013-05-25T16:36:44Z</time>
      </trkpt>
      <trkpt lat="59.847889" lon="17.7389426">
        <ele>18.8831</ele>
        <time>2013-05-25T16:36:45Z</time>
      </trkpt>
      <trkpt lat="59.8478464" lon="17.7390341">
        <ele>18.8831</ele>
        <time>2013-05-25T16:36:46Z</time>
      </trkpt>
      <trkpt lat="59.8478174" lon="17.7391435">
        <ele>19.3638</ele>
        <time>2013-05-25T16:36:47Z</time>
      </trkpt>
      <trkpt lat="59.8477998" lon="17.7392637">
        <ele>19.3638</ele>
        <time>2013-05-25T16:36:48Z</time>
      </trkpt>
      <trkpt lat="59.8477909" lon="17.7393899">
        <ele>19.8444</ele>
        <time>2013-05-25T16:36:49Z</time>
      </trkpt>
      <trkpt lat="59.8477854" lon="17.739517">
        <ele>19.8444</ele>
        <time>2013-05-25T16:36:50Z</time>
      </trkpt>
      <trkpt lat="59.8477818" lon="17.7396455">
        <ele>20.325</ele>
        <time>2013-05-25T16:36:51Z</time>
      </trkpt>
      <trkpt lat="59.8477805" lon="17.739775">
        <ele>20.8057</ele>
        <time>2013-05-25T16:36:52Z</time>
      </trkpt>
      <trkpt lat="59.8477796" lon="17.7399028">
        <ele>20.8057</ele>
        <time>2013-05-25T16:36:53Z</time>
      </trkpt>
      <trkpt lat="59.847778" lon="17.7400304">
        <ele>20.8057</ele>
        <time>2013-05-25T16:36:54Z</time>
      </trkpt>
      <trkpt lat="59.8477759" lon="17.7401618">
        <ele>20.8057</ele>
        <time>2013-05-25T16:36:55Z</time>
      </trkpt>
      <trkpt lat="59.847775" lon="17.740294">
        <ele>20.8057</ele>
        <time>2013-05-25T16:36:56Z</time>
      </trkpt>
      <trkpt lat="59.8477765" lon="17.7404296">
        <ele>20.8057</ele>
        <time>2013-05-25T16:36:57Z</time>
      </trkpt>
      <trkpt lat="59.8477755" lon="17.7405648">
        <ele>20.8057</ele>
        <time>2013-05-25T16:36:58Z</time>
      </trkpt>
      <trkpt lat="59.8477728" lon="17.740701">
        <ele>20.8057</ele>
        <time>2013-05-25T16:36:59Z</time>
      </trkpt>
      <trkpt lat="59.8477692" lon="17.7408392">
        <ele>20.8057</ele>
        <time>2013-05-25T16:37:00Z</time>
      </trkpt>
      <trkpt lat="59.8477665" lon="17.7409776">
        <ele>21.2864</ele>
        <time>2013-05-25T16:37:01Z</time>
      </trkpt>
      <trkpt lat="59.8477644" lon="17.741116">
        <ele>21.2864</ele>
        <time>2013-05-25T16:37:02Z</time>
      </trkpt>
      <trkpt lat="59.8477608" lon="17.7412528">
        <ele>21.2864</ele>
        <time>2013-05-25T16:37:03Z</time>
      </trkpt>
      <trkpt lat="59.8477558" lon="17.7413886">
        <ele>21.2864</ele>
        <time>2013-05-25T16:37:04Z</time>
      </trkpt>
      <trkpt lat="59.8477525" lon="17.7415248">
        <ele>20.8057</ele>
        <time>2013-05-25T16:37:05Z</time>
      </trkpt>
      <trkpt lat="59.8477506" lon="17.7416611">
        <ele>20.8057</ele>
        <time>2013-05-25T16:37:06Z</time>
      </trkpt>
      <trkpt lat="59.8477484" lon="17.7417967">
        <ele>20.8057</ele>
        <time>2013-05-25T16:37:07Z</time>
      </trkpt>
      <trkpt lat="59.8477469" lon="17.741935">
        <ele>20.8057</ele>
        <time>2013-05-25T16:37:08Z</time>
      </trkpt>
      <trkpt lat="59.8477458" lon="17.7420733">
        <ele>20.8057</ele>
        <time>2013-05-25T16:37:09Z</time>
      </trkpt>
      <trkpt lat="59.8477436" lon="17.7422094">
        <ele>20.8057</ele>
        <time>2013-05-25T16:37:10Z</time>
      </trkpt>
      <trkpt lat="59.8477432" lon="17.7423501">
        <ele>21.2864</ele>
        <time>2013-05-25T16:37:11Z</time>
      </trkpt>
      <trkpt lat="59.8477413" lon="17.7424905">
        <ele>20.8057</ele>
        <time>2013-05-25T16:37:12Z</time>
      </trkpt>
      <trkpt lat="59.8477388" lon="17.7426319">
        <ele>20.8057</ele>
        <time>2013-05-25T16:37:13Z</time>
      </trkpt>
      <trkpt lat="59.8477358" lon="17.7427722">
        <ele>20.8057</ele>
        <time>2013-05-25T16:37:14Z</time>
      </trkpt>
      <trkpt lat="59.8477335" lon="17.7429137">
        <ele>21.2864</ele>
        <time>2013-05-25T16:37:15Z</time>
      </trkpt>
      <trkpt lat="59.8477319" lon="17.743056">
        <ele>21.2864</ele>
        <time>2013-05-25T16:37:16Z</time>
      </trkpt>
      <trkpt lat="59.8477303" lon="17.7431979">
        <ele>21.2864</ele>
        <time>2013-05-25T16:37:17Z</time>
      </trkpt>
      <trkpt lat="59.8477278" lon="17.7433398">
        <ele>21.2864</ele>
        <time>2013-05-25T16:37:18Z</time>
      </trkpt>
      <trkpt lat="59.8477241" lon="17.7434797">
        <ele>21.2864</ele>
        <time>2013-05-25T16:37:19Z</time>
      </trkpt>
      <trkpt lat="59.8477222" lon="17.743619">
        <ele>21.2864</ele>
        <time>2013-05-25T16:37:20Z</time>
      </trkpt>
      <trkpt lat="59.8477211" lon="17.743756">
        <ele>21.2864</ele>
        <time>2013-05-25T16:37:21Z</time>
      </trkpt>
      <trkpt lat="59.8477191" lon="17.7438916">
        <ele>21.2864</ele>
        <time>2013-05-25T16:37:22Z</time>
      </trkpt>
      <trkpt lat="59.8477174" lon="17.7440269">
        <ele>21.2864</ele>
        <time>2013-05-25T16:37:23Z</time>
      </trkpt>
      <trkpt lat="59.8477153" lon="17.7441621">
        <ele>21.767</ele>
        <time>2013-05-25T16:37:24Z</time>
      </trkpt>
      <trkpt lat="59.847712" lon="17.7442982">
        <ele>21.767</ele>
        <time>2013-05-25T16:37:25Z</time>
      </trkpt>
      <trkpt lat="59.8477086" lon="17.7444334">
        <ele>21.767</ele>
        <time>2013-05-25T16:37:26Z</time>
      </trkpt>
      <trkpt lat="59.8477054" lon="17.744564">
        <ele>21.767</ele>
        <time>2013-05-25T16:37:27Z</time>
      </trkpt>
      <trkpt lat="59.8477038" lon="17.7446955">
        <ele>21.767</ele>
        <time>2013-05-25T16:37:28Z</time>
      </trkpt>
      <trkpt lat="59.8477015" lon="17.7448246">
        <ele>22.2476</ele>
        <time>2013-05-25T16:37:29Z</time>
      </trkpt>
      <trkpt lat="59.8476977" lon="17.7449514">
        <ele>21.767</ele>
        <time>2013-05-25T16:37:30Z</time>
      </trkpt>
      <trkpt lat="59.8476958" lon="17.7450795">
        <ele>22.2476</ele>
        <time>2013-05-25T16:37:31Z</time>
      </trkpt>
      <trkpt lat="59.8476963" lon="17.7452081">
        <ele>22.2476</ele>
        <time>2013-05-25T16:37:32Z</time>
      </trkpt>
      <trkpt lat="59.8476946" lon="17.7453354">
        <ele>22.2476</ele>
        <time>2013-05-25T16:37:33Z</time>
      </trkpt>
      <trkpt lat="59.8476904" lon="17.7454628">
        <ele>22.7283</ele>
        <time>2013-05-25T16:37:34Z</time>
      </trkpt>
      <trkpt lat="59.8476864" lon="17.7455894">
        <ele>22.7283</ele>
        <time>2013-05-25T16:37:35Z</time>
      </trkpt>
      <trkpt lat="59.8476828" lon="17.7457179">
        <ele>21.767</ele>
        <time>2013-05-25T16:37:36Z</time>
      </trkpt>
      <trkpt lat="59.8476794" lon="17.7458451">
        <ele>20.8057</ele>
        <time>2013-05-25T16:37:37Z</time>
      </trkpt>
      <trkpt lat="59.8476739" lon="17.7459652">
        <ele>20.325</ele>
        <time>2013-05-25T16:37:38Z</time>
      </trkpt>
      <trkpt lat="59.8476698" lon="17.7460856">
        <ele>19.8444</ele>
        <time>2013-05-25T16:37:39Z</time>
      </trkpt>
      <trkpt lat="59.8476661" lon="17.7462067">
        <ele>19.3638</ele>
        <time>2013-05-25T16:37:40Z</time>
      </trkpt>
      <trkpt lat="59.8476621" lon="17.7463283">
        <ele>19.3638</ele>
        <time>2013-05-25T16:37:41Z</time>
      </trkpt>
      <trkpt lat="59.8476579" lon="17.7464474">
        <ele>18.8831</ele>
        <time>2013-05-25T16:37:42Z</time>
      </trkpt>
      <trkpt lat="59.8476579" lon="17.7465752">
        <ele>19.3638</ele>
        <time>2013-05-25T16:37:43Z</time>
      </trkpt>
      <trkpt lat="59.8476573" lon="17.7467011">
        <ele>19.8444</ele>
        <time>2013-05-25T16:37:44Z</time>
      </trkpt>
      <trkpt lat="59.8476571" lon="17.7468272">
        <ele>20.8057</ele>
        <time>2013-05-25T16:37:45Z</time>
      </trkpt>
      <trkpt lat="59.8476547" lon="17.746943">
        <ele>20.8057</ele>
        <time>2013-05-25T16:37:46Z</time>
      </trkpt>
      <trkpt lat="59.8476504" lon="17.7470521">
        <ele>20.325</ele>
        <time>2013-05-25T16:37:47Z</time>
      </trkpt>
      <trkpt lat="59.8476458" lon="17.7471592">
        <ele>19.8444</ele>
        <time>2013-05-25T16:37:48Z</time>
      </trkpt>
      <trkpt lat="59.8476428" lon="17.7472683">
        <ele>19.8444</ele>
        <time>2013-05-25T16:37:49Z</time>
      </trkpt>
      <trkpt lat="59.8476396" lon="17.7473781">
        <ele>19.8444</ele>
        <time>2013-05-25T16:37:50Z</time>
      </trkpt>
      <trkpt lat="59.8476387" lon="17.7474884">
        <ele>19.3638</ele>
        <time>2013-05-25T16:37:51Z</time>
      </trkpt>
      <trkpt lat="59.8476402" lon="17.7476021">
        <ele>19.3638</ele>
        <time>2013-05-25T16:37:52Z</time>
      </trkpt>
      <trkpt lat="59.8476396" lon="17.7477114">
        <ele>18.8831</ele>
        <time>2013-05-25T16:37:53Z</time>
      </trkpt>
      <trkpt lat="59.8476377" lon="17.7478165">
        <ele>18.4023</ele>
        <time>2013-05-25T16:37:54Z</time>
      </trkpt>
      <trkpt lat="59.8476386" lon="17.7479298">
        <ele>18.4023</ele>
        <time>2013-05-25T16:37:55Z</time>
      </trkpt>
      <trkpt lat="59.8476413" lon="17.7480474">
        <ele>17.9218</ele>
        <time>2013-05-25T16:37:56Z</time>
      </trkpt>
      <trkpt lat="59.8476445" lon="17.7481641">
        <ele>17.9218</ele>
        <time>2013-05-25T16:37:57Z</time>
      </trkpt>
      <trkpt lat="59.8476473" lon="17.7482805">
        <ele>17.9218</ele>
        <time>2013-05-25T16:37:58Z</time>
      </trkpt>
      <trkpt lat="59.8476496" lon="17.7483986">
        <ele>17.4412</ele>
        <time>2013-05-25T16:37:59Z</time>
      </trkpt>
      <trkpt lat="59.8476542" lon="17.7485174">
        <ele>17.4412</ele>
        <time>2013-05-25T16:38:00Z</time>
      </trkpt>
      <trkpt lat="59.8476597" lon="17.7486453">
        <ele>17.9218</ele>
        <time>2013-05-25T16:38:01Z</time>
      </trkpt>
      <trkpt lat="59.8476646" lon="17.7487717">
        <ele>18.4023</ele>
        <time>2013-05-25T16:38:02Z</time>
      </trkpt>
      <trkpt lat="59.8476692" lon="17.7488938">
        <ele>18.8831</ele>
        <time>2013-05-25T16:38:03Z</time>
      </trkpt>
      <trkpt lat="59.8476749" lon="17.7490156">
        <ele>19.3638</ele>
        <time>2013-05-25T16:38:04Z</time>
      </trkpt>
      <trkpt lat="59.8476817" lon="17.7491359">
        <ele>20.325</ele>
        <time>2013-05-25T16:38:05Z</time>
      </trkpt>
      <trkpt lat="59.8476914" lon="17.7492575">
        <ele>20.8057</ele>
        <time>2013-05-25T16:38:06Z</time>
      </trkpt>
      <trkpt lat="59.8477034" lon="17.7493774">
        <ele>20.8057</ele>
        <time>2013-05-25T16:38:07Z</time>
      </trkpt>
      <trkpt lat="59.8477129" lon="17.749499">
        <ele>21.767</ele>
        <time>2013-05-25T16:38:08Z</time>
      </trkpt>
      <trkpt lat="59.8477184" lon="17.7496092">
        <ele>21.2864</ele>
        <time>2013-05-25T16:38:09Z</time>
      </trkpt>
      <trkpt lat="59.8477297" lon="17.7497314">
        <ele>21.2864</ele>
        <time>2013-05-25T16:38:10Z</time>
      </trkpt>
      <trkpt lat="59.8477418" lon="17.7498565">
        <ele>21.767</ele>
        <time>2013-05-25T16:38:11Z</time>
      </trkpt>
      <trkpt lat="59.8477542" lon="17.7499808">
        <ele>21.767</ele>
        <time>2013-05-25T16:38:12Z</time>
      </trkpt>
      <trkpt lat="59.8477676" lon="17.7501103">
        <ele>22.2476</ele>
        <time>2013-05-25T16:38:13Z</time>
      </trkpt>
      <trkpt lat="59.8477785" lon="17.7502372">
        <ele>22.7283</ele>
        <time>2013-05-25T16:38:14Z</time>
      </trkpt>
      <trkpt lat="59.8477882" lon="17.7503646">
        <ele>22.7283</ele>
        <time>2013-05-25T16:38:15Z</time>
      </trkpt>
      <trkpt lat="59.8477952" lon="17.7504905">
        <ele>22.7283</ele>
        <time>2013-05-25T16:38:16Z</time>
      </trkpt>
      <trkpt lat="59.8478065" lon="17.7506141">
        <ele>22.2476</ele>
        <time>2013-05-25T16:38:17Z</time>
      </trkpt>
      <trkpt lat="59.8478215" lon="17.750747">
        <ele>23.209</ele>
        <time>2013-05-25T16:38:18Z</time>
      </trkpt>
      <trkpt lat="59.847836" lon="17.7508881">
        <ele>24.1703</ele>
        <time>2013-05-25T16:38:19Z</time>
      </trkpt>
      <trkpt lat="59.8478495" lon="17.7510275">
        <ele>24.1703</ele>
        <time>2013-05-25T16:38:20Z</time>
      </trkpt>
      <trkpt lat="59.8478609" lon="17.7511628">
        <ele>24.1703</ele>
        <time>2013-05-25T16:38:21Z</time>
      </trkpt>
      <trkpt lat="59.8478753" lon="17.7513022">
        <ele>23.6896</ele>
        <time>2013-05-25T16:38:22Z</time>
      </trkpt>
      <trkpt lat="59.8478946" lon="17.7514478">
        <ele>24.1703</ele>
        <time>2013-05-25T16:38:23Z</time>
      </trkpt>
      <trkpt lat="59.8479128" lon="17.7516005">
        <ele>25.1317</ele>
        <time>2013-05-25T16:38:24Z</time>
      </trkpt>
      <trkpt lat="59.8479307" lon="17.751755">
        <ele>25.6123</ele>
        <time>2013-05-25T16:38:25Z</time>
      </trkpt>
      <trkpt lat="59.8479515" lon="17.7519113">
        <ele>26.0929</ele>
        <time>2013-05-25T16:38:26Z</time>
      </trkpt>
      <trkpt lat="59.8479783" lon="17.7520712">
        <ele>26.5736</ele>
        <time>2013-05-25T16:38:27Z</time>
      </trkpt>
      <trkpt lat="59.8480085" lon="17.752235">
        <ele>27.0543</ele>
        <time>2013-05-25T16:38:28Z</time>
      </trkpt>
      <trkpt lat="59.8480369" lon="17.7523998">
        <ele>27.5349</ele>
        <time>2013-05-25T16:38:29Z</time>
      </trkpt>
      <trkpt lat="59.8480638" lon="17.7525673">
        <ele>28.0155</ele>
        <time>2013-05-25T16:38:30Z</time>
      </trkpt>
      <trkpt lat="59.8480899" lon="17.7527348">
        <ele>28.0155</ele>
        <time>2013-05-25T16:38:31Z</time>
      </trkpt>
      <trkpt lat="59.8481151" lon="17.7529033">
        <ele>28.0155</ele>
        <time>2013-05-25T16:38:32Z</time>
      </trkpt>
      <trkpt lat="59.8481379" lon="17.7530738">
        <ele>28.4962</ele>
        <time>2013-05-25T16:38:33Z</time>
      </trkpt>
      <trkpt lat="59.8481591" lon="17.7532458">
        <ele>28.4962</ele>
        <time>2013-05-25T16:38:34Z</time>
      </trkpt>
      <trkpt lat="59.8481801" lon="17.7534173">
        <ele>28.4962</ele>
        <time>2013-05-25T16:38:35Z</time>
      </trkpt>
      <trkpt lat="59.8482017" lon="17.7535862">
        <ele>28.4962</ele>
        <time>2013-05-25T16:38:36Z</time>
      </trkpt>
      <trkpt lat="59.8482236" lon="17.753754">
        <ele>28.4962</ele>
        <time>2013-05-25T16:38:37Z</time>
      </trkpt>
      <trkpt lat="59.8482459" lon="17.7539212">
        <ele>28.4962</ele>
        <time>2013-05-25T16:38:38Z</time>
      </trkpt>
      <trkpt lat="59.8482676" lon="17.7540875">
        <ele>28.9769</ele>
        <time>2013-05-25T16:38:39Z</time>
      </trkpt>
      <trkpt lat="59.8482886" lon="17.7542534">
        <ele>28.9769</ele>
        <time>2013-05-25T16:38:40Z</time>
      </trkpt>
      <trkpt lat="59.8483065" lon="17.7544147">
        <ele>29.4575</ele>
        <time>2013-05-25T16:38:41Z</time>
      </trkpt>
      <trkpt lat="59.8483283" lon="17.7545795">
        <ele>29.9381</ele>
        <time>2013-05-25T16:38:42Z</time>
      </trkpt>
      <trkpt lat="59.8483494" lon="17.7547408">
        <ele>29.9381</ele>
        <time>2013-05-25T16:38:43Z</time>
      </trkpt>
      <trkpt lat="59.8483679" lon="17.7548983">
        <ele>30.4188</ele>
        <time>2013-05-25T16:38:44Z</time>
      </trkpt>
      <trkpt lat="59.8483824" lon="17.7550475">
        <ele>28.9769</ele>
        <time>2013-05-25T16:38:45Z</time>
      </trkpt>
      <trkpt lat="59.8483986" lon="17.7552032">
        <ele>29.4575</ele>
        <time>2013-05-25T16:38:46Z</time>
      </trkpt>
      <trkpt lat="59.8484121" lon="17.7553489">
        <ele>28.4962</ele>
        <time>2013-05-25T16:38:47Z</time>
      </trkpt>
      <trkpt lat="59.8484245" lon="17.7554964">
        <ele>27.5349</ele>
        <time>2013-05-25T16:38:48Z</time>
      </trkpt>
      <trkpt lat="59.8484359" lon="17.7556414">
        <ele>27.0543</ele>
        <time>2013-05-25T16:38:49Z</time>
      </trkpt>
      <trkpt lat="59.8484469" lon="17.7557833">
        <ele>26.0929</ele>
        <time>2013-05-25T16:38:50Z</time>
      </trkpt>
      <trkpt lat="59.8484572" lon="17.755925">
        <ele>25.1317</ele>
        <time>2013-05-25T16:38:51Z</time>
      </trkpt>
      <trkpt lat="59.8484659" lon="17.7560687">
        <ele>24.651</ele>
        <time>2013-05-25T16:38:52Z</time>
      </trkpt>
      <trkpt lat="59.8484725" lon="17.7562125">
        <ele>24.1703</ele>
        <time>2013-05-25T16:38:53Z</time>
      </trkpt>
      <trkpt lat="59.8484784" lon="17.7563563">
        <ele>23.6896</ele>
        <time>2013-05-25T16:38:54Z</time>
      </trkpt>
      <trkpt lat="59.8484841" lon="17.756499">
        <ele>23.209</ele>
        <time>2013-05-25T16:38:55Z</time>
      </trkpt>
      <trkpt lat="59.8484891" lon="17.7566398">
        <ele>22.7283</ele>
        <time>2013-05-25T16:38:56Z</time>
      </trkpt>
      <trkpt lat="59.8484942" lon="17.7567807">
        <ele>22.2476</ele>
        <time>2013-05-25T16:38:57Z</time>
      </trkpt>
      <trkpt lat="59.8484986" lon="17.7569211">
        <ele>21.767</ele>
        <time>2013-05-25T16:38:58Z</time>
      </trkpt>
      <trkpt lat="59.8485005" lon="17.7570604">
        <ele>21.2864</ele>
        <time>2013-05-25T16:38:59Z</time>
      </trkpt>
      <trkpt lat="59.8485012" lon="17.7571992">
        <ele>21.2864</ele>
        <time>2013-05-25T16:39:00Z</time>
      </trkpt>
      <trkpt lat="59.8485006" lon="17.7573375">
        <ele>20.8057</ele>
        <time>2013-05-25T16:39:01Z</time>
      </trkpt>
      <trkpt lat="59.8484989" lon="17.7574772">
        <ele>20.325</ele>
        <time>2013-05-25T16:39:02Z</time>
      </trkpt>
      <trkpt lat="59.8484934" lon="17.7576136">
        <ele>19.8444</ele>
        <time>2013-05-25T16:39:03Z</time>
      </trkpt>
      <trkpt lat="59.8484904" lon="17.757754">
        <ele>19.8444</ele>
        <time>2013-05-25T16:39:04Z</time>
      </trkpt>
      <trkpt lat="59.8484872" lon="17.7578933">
        <ele>19.3638</ele>
        <time>2013-05-25T16:39:05Z</time>
      </trkpt>
      <trkpt lat="59.8484792" lon="17.758025">
        <ele>18.8831</ele>
        <time>2013-05-25T16:39:06Z</time>
      </trkpt>
      <trkpt lat="59.8484711" lon="17.7581566">
        <ele>18.4023</ele>
        <time>2013-05-25T16:39:07Z</time>
      </trkpt>
      <trkpt lat="59.8484644" lon="17.7582902">
        <ele>17.9218</ele>
        <time>2013-05-25T16:39:08Z</time>
      </trkpt>
      <trkpt lat="59.8484576" lon="17.7584222">
        <ele>16.9604</ele>
        <time>2013-05-25T16:39:09Z</time>
      </trkpt>
      <trkpt lat="59.8484513" lon="17.7585544">
        <ele>16.4797</ele>
        <time>2013-05-25T16:39:10Z</time>
      </trkpt>
      <trkpt lat="59.8484452" lon="17.7586886">
        <ele>15.999</ele>
        <time>2013-05-25T16:39:11Z</time>
      </trkpt>
      <trkpt lat="59.8484395" lon="17.7588252">
        <ele>15.999</ele>
        <time>2013-05-25T16:39:12Z</time>
      </trkpt>
      <trkpt lat="59.8484329" lon="17.7589634">
        <ele>15.5184</ele>
        <time>2013-05-25T16:39:13Z</time>
      </trkpt>
      <trkpt lat="59.8484262" lon="17.7591028">
        <ele>15.0377</ele>
        <time>2013-05-25T16:39:14Z</time>
      </trkpt>
      <trkpt lat="59.8484205" lon="17.7592438">
        <ele>15.0377</ele>
        <time>2013-05-25T16:39:15Z</time>
      </trkpt>
      <trkpt lat="59.8484157" lon="17.7593858">
        <ele>14.557</ele>
        <time>2013-05-25T16:39:16Z</time>
      </trkpt>
      <trkpt lat="59.8484117" lon="17.7595264">
        <ele>14.0764</ele>
        <time>2013-05-25T16:39:17Z</time>
      </trkpt>
      <trkpt lat="59.8484079" lon="17.7596655">
        <ele>14.0764</ele>
        <time>2013-05-25T16:39:18Z</time>
      </trkpt>
      <trkpt lat="59.8484034" lon="17.7598054">
        <ele>13.5958</ele>
        <time>2013-05-25T16:39:19Z</time>
      </trkpt>
      <trkpt lat="59.848399" lon="17.7599463">
        <ele>13.5958</ele>
        <time>2013-05-25T16:39:20Z</time>
      </trkpt>
      <trkpt lat="59.8483938" lon="17.7600881">
        <ele>13.5958</ele>
        <time>2013-05-25T16:39:21Z</time>
      </trkpt>
      <trkpt lat="59.8483898" lon="17.7602316">
        <ele>13.1151</ele>
        <time>2013-05-25T16:39:22Z</time>
      </trkpt>
      <trkpt lat="59.8483876" lon="17.7603755">
        <ele>13.1151</ele>
        <time>2013-05-25T16:39:23Z</time>
      </trkpt>
      <trkpt lat="59.8483846" lon="17.76052">
        <ele>13.1151</ele>
        <time>2013-05-25T16:39:24Z</time>
      </trkpt>
      <trkpt lat="59.8483816" lon="17.7606668">
        <ele>13.5958</ele>
        <time>2013-05-25T16:39:25Z</time>
      </trkpt>
      <trkpt lat="59.8483782" lon="17.7608097">
        <ele>13.5958</ele>
        <time>2013-05-25T16:39:26Z</time>
      </trkpt>
      <trkpt lat="59.8483747" lon="17.7609528">
        <ele>13.5958</ele>
        <time>2013-05-25T16:39:27Z</time>
      </trkpt>
      <trkpt lat="59.8483717" lon="17.7610963">
        <ele>13.5958</ele>
        <time>2013-05-25T16:39:28Z</time>
      </trkpt>
      <trkpt lat="59.8483683" lon="17.7612416">
        <ele>13.5958</ele>
        <time>2013-05-25T16:39:29Z</time>
      </trkpt>
      <trkpt lat="59.8483644" lon="17.7613889">
        <ele>13.5958</ele>
        <time>2013-05-25T16:39:30Z</time>
      </trkpt>
      <trkpt lat="59.8483603" lon="17.7615343">
        <ele>14.0764</ele>
        <time>2013-05-25T16:39:31Z</time>
      </trkpt>
      <trkpt lat="59.8483577" lon="17.7616793">
        <ele>14.0764</ele>
        <time>2013-05-25T16:39:32Z</time>
      </trkpt>
      <trkpt lat="59.8483545" lon="17.761824">
        <ele>14.0764</ele>
        <time>2013-05-25T16:39:33Z</time>
      </trkpt>
      <trkpt lat="59.8483502" lon="17.7619681">
        <ele>14.0764</ele>
        <time>2013-05-25T16:39:34Z</time>
      </trkpt>
      <trkpt lat="59.8483466" lon="17.762112">
        <ele>14.0764</ele>
        <time>2013-05-25T16:39:35Z</time>
      </trkpt>
      <trkpt lat="59.848344" lon="17.7622553">
        <ele>14.557</ele>
        <time>2013-05-25T16:39:36Z</time>
      </trkpt>
      <trkpt lat="59.848342" lon="17.762398">
        <ele>14.557</ele>
        <time>2013-05-25T16:39:37Z</time>
      </trkpt>
      <trkpt lat="59.8483395" lon="17.7625384">
        <ele>14.557</ele>
        <time>2013-05-25T16:39:38Z</time>
      </trkpt>
      <trkpt lat="59.8483349" lon="17.7626768">
        <ele>14.557</ele>
        <time>2013-05-25T16:39:39Z</time>
      </trkpt>
      <trkpt lat="59.8483255" lon="17.7628134">
        <ele>14.557</ele>
        <time>2013-05-25T16:39:40Z</time>
      </trkpt>
      <trkpt lat="59.8483043" lon="17.762945">
        <ele>14.557</ele>
        <time>2013-05-25T16:39:41Z</time>
      </trkpt>
      <trkpt lat="59.8482687" lon="17.7630671">
        <ele>14.557</ele>
        <time>2013-05-25T16:39:42Z</time>
      </trkpt>
      <trkpt lat="59.8482231" lon="17.7631764">
        <ele>14.557</ele>
        <time>2013-05-25T16:39:43Z</time>
      </trkpt>
      <trkpt lat="59.8481738" lon="17.7632786">
        <ele>15.0377</ele>
        <time>2013-05-25T16:39:44Z</time>
      </trkpt>
      <trkpt lat="59.8481241" lon="17.7633812">
        <ele>15.0377</ele>
        <time>2013-05-25T16:39:45Z</time>
      </trkpt>
      <trkpt lat="59.8480732" lon="17.7634846">
        <ele>15.0377</ele>
        <time>2013-05-25T16:39:46Z</time>
      </trkpt>
      <trkpt lat="59.8480225" lon="17.7635893">
        <ele>15.0377</ele>
        <time>2013-05-25T16:39:47Z</time>
      </trkpt>
      <trkpt lat="59.8479731" lon="17.7636935">
        <ele>15.0377</ele>
        <time>2013-05-25T16:39:48Z</time>
      </trkpt>
      <trkpt lat="59.8479236" lon="17.7637964">
        <ele>15.0377</ele>
        <time>2013-05-25T16:39:49Z</time>
      </trkpt>
      <trkpt lat="59.8478739" lon="17.7638996">
        <ele>15.0377</ele>
        <time>2013-05-25T16:39:50Z</time>
      </trkpt>
      <trkpt lat="59.8478244" lon="17.7640055">
        <ele>15.0377</ele>
        <time>2013-05-25T16:39:51Z</time>
      </trkpt>
      <trkpt lat="59.8477749" lon="17.7641152">
        <ele>15.0377</ele>
        <time>2013-05-25T16:39:52Z</time>
      </trkpt>
      <trkpt lat="59.8477245" lon="17.7642255">
        <ele>15.0377</ele>
        <time>2013-05-25T16:39:53Z</time>
      </trkpt>
      <trkpt lat="59.8476737" lon="17.7643353">
        <ele>15.5184</ele>
        <time>2013-05-25T16:39:54Z</time>
      </trkpt>
      <trkpt lat="59.8476222" lon="17.7644437">
        <ele>15.5184</ele>
        <time>2013-05-25T16:39:55Z</time>
      </trkpt>
      <trkpt lat="59.8475701" lon="17.7645523">
        <ele>15.5184</ele>
        <time>2013-05-25T16:39:56Z</time>
      </trkpt>
      <trkpt lat="59.8475175" lon="17.7646615">
        <ele>15.5184</ele>
        <time>2013-05-25T16:39:57Z</time>
      </trkpt>
      <trkpt lat="59.8474649" lon="17.7647705">
        <ele>15.5184</ele>
        <time>2013-05-25T16:39:58Z</time>
      </trkpt>
      <trkpt lat="59.8474118" lon="17.7648787">
        <ele>15.5184</ele>
        <time>2013-05-25T16:39:59Z</time>
      </trkpt>
      <trkpt lat="59.84736" lon="17.7649884">
        <ele>15.5184</ele>
        <time>2013-05-25T16:40:00Z</time>
      </trkpt>
      <trkpt lat="59.847309" lon="17.7650974">
        <ele>15.5184</ele>
        <time>2013-05-25T16:40:01Z</time>
      </trkpt>
      <trkpt lat="59.8472604" lon="17.7652067">
        <ele>15.5184</ele>
        <time>2013-05-25T16:40:02Z</time>
      </trkpt>
      <trkpt lat="59.8472207" lon="17.7653252">
        <ele>15.5184</ele>
        <time>2013-05-25T16:40:03Z</time>
      </trkpt>
      <trkpt lat="59.8471984" lon="17.7654578">
        <ele>15.999</ele>
        <time>2013-05-25T16:40:04Z</time>
      </trkpt>
      <trkpt lat="59.8471967" lon="17.7655944">
        <ele>15.999</ele>
        <time>2013-05-25T16:40:05Z</time>
      </trkpt>
      <trkpt lat="59.8472091" lon="17.7657271">
        <ele>15.999</ele>
        <time>2013-05-25T16:40:06Z</time>
      </trkpt>
      <trkpt lat="59.8472275" lon="17.7658545">
        <ele>16.4797</ele>
        <time>2013-05-25T16:40:07Z</time>
      </trkpt>
      <trkpt lat="59.8472476" lon="17.7659755">
        <ele>16.4797</ele>
        <time>2013-05-25T16:40:08Z</time>
      </trkpt>
      <trkpt lat="59.8472673" lon="17.7660925">
        <ele>16.4797</ele>
        <time>2013-05-25T16:40:09Z</time>
      </trkpt>
      <trkpt lat="59.8472859" lon="17.7662033">
        <ele>16.4797</ele>
        <time>2013-05-25T16:40:10Z</time>
      </trkpt>
      <trkpt lat="59.8473045" lon="17.7663069">
        <ele>16.4797</ele>
        <time>2013-05-25T16:40:11Z</time>
      </trkpt>
      <trkpt lat="59.8473221" lon="17.7664084">
        <ele>16.9604</ele>
        <time>2013-05-25T16:40:12Z</time>
      </trkpt>
      <trkpt lat="59.8473387" lon="17.7665111">
        <ele>16.9604</ele>
        <time>2013-05-25T16:40:13Z</time>
      </trkpt>
      <trkpt lat="59.8473553" lon="17.7666151">
        <ele>16.9604</ele>
        <time>2013-05-25T16:40:14Z</time>
      </trkpt>
      <trkpt lat="59.847372" lon="17.7667219">
        <ele>16.9604</ele>
        <time>2013-05-25T16:40:15Z</time>
      </trkpt>
      <trkpt lat="59.8473894" lon="17.7668312">
        <ele>16.9604</ele>
        <time>2013-05-25T16:40:16Z</time>
      </trkpt>
      <trkpt lat="59.8474067" lon="17.7669423">
        <ele>16.9604</ele>
        <time>2013-05-25T16:40:17Z</time>
      </trkpt>
      <trkpt lat="59.8474247" lon="17.7670544">
        <ele>16.9604</ele>
        <time>2013-05-25T16:40:18Z</time>
      </trkpt>
      <trkpt lat="59.8474444" lon="17.7671673">
        <ele>16.9604</ele>
        <time>2013-05-25T16:40:19Z</time>
      </trkpt>
      <trkpt lat="59.8474652" lon="17.7672826">
        <ele>16.9604</ele>
        <time>2013-05-25T16:40:20Z</time>
      </trkpt>
      <trkpt lat="59.8474851" lon="17.7673998">
        <ele>16.9604</ele>
        <time>2013-05-25T16:40:21Z</time>
      </trkpt>
      <trkpt lat="59.8475045" lon="17.7675195">
        <ele>16.9604</ele>
        <time>2013-05-25T16:40:22Z</time>
      </trkpt>
      <trkpt lat="59.847525" lon="17.7676412">
        <ele>16.9604</ele>
        <time>2013-05-25T16:40:23Z</time>
      </trkpt>
      <trkpt lat="59.8475457" lon="17.7677646">
        <ele>16.9604</ele>
        <time>2013-05-25T16:40:24Z</time>
      </trkpt>
      <trkpt lat="59.847567" lon="17.7678889">
        <ele>16.9604</ele>
        <time>2013-05-25T16:40:25Z</time>
      </trkpt>
      <trkpt lat="59.8475894" lon="17.7680133">
        <ele>17.4412</ele>
        <time>2013-05-25T16:40:26Z</time>
      </trkpt>
      <trkpt lat="59.8476107" lon="17.7681373">
        <ele>17.4412</ele>
        <time>2013-05-25T16:40:27Z</time>
      </trkpt>
      <trkpt lat="59.8476309" lon="17.7682602">
        <ele>17.4412</ele>
        <time>2013-05-25T16:40:28Z</time>
      </trkpt>
      <trkpt lat="59.847651" lon="17.7683827">
        <ele>17.4412</ele>
        <time>2013-05-25T16:40:29Z</time>
      </trkpt>
      <trkpt lat="59.8476704" lon="17.7685054">
        <ele>17.4412</ele>
        <time>2013-05-25T16:40:30Z</time>
      </trkpt>
      <trkpt lat="59.8476903" lon="17.7686266">
        <ele>17.4412</ele>
        <time>2013-05-25T16:40:31Z</time>
      </trkpt>
      <trkpt lat="59.8477112" lon="17.7687461">
        <ele>17.4412</ele>
        <time>2013-05-25T16:40:32Z</time>
      </trkpt>
      <trkpt lat="59.847731" lon="17.7688665">
        <ele>17.4412</ele>
        <time>2013-05-25T16:40:33Z</time>
      </trkpt>
      <trkpt lat="59.84775" lon="17.7689886">
        <ele>17.9218</ele>
        <time>2013-05-25T16:40:34Z</time>
      </trkpt>
      <trkpt lat="59.8477682" lon="17.7691105">
        <ele>17.9218</ele>
        <time>2013-05-25T16:40:35Z</time>
      </trkpt>
      <trkpt lat="59.8477853" lon="17.7692326">
        <ele>17.9218</ele>
        <time>2013-05-25T16:40:36Z</time>
      </trkpt>
      <trkpt lat="59.8478022" lon="17.769355">
        <ele>17.9218</ele>
        <time>2013-05-25T16:40:37Z</time>
      </trkpt>
      <trkpt lat="59.8478201" lon="17.7694776">
        <ele>17.9218</ele>
        <time>2013-05-25T16:40:38Z</time>
      </trkpt>
      <trkpt lat="59.8478401" lon="17.7695968">
        <ele>17.9218</ele>
        <time>2013-05-25T16:40:39Z</time>
      </trkpt>
      <trkpt lat="59.8478631" lon="17.769709">
        <ele>17.9218</ele>
        <time>2013-05-25T16:40:40Z</time>
      </trkpt>
      <trkpt lat="59.8478908" lon="17.7698181">
        <ele>17.9218</ele>
        <time>2013-05-25T16:40:41Z</time>
      </trkpt>
      <trkpt lat="59.8479227" lon="17.7699324">
        <ele>17.9218</ele>
        <time>2013-05-25T16:40:42Z</time>
      </trkpt>
      <trkpt lat="59.8479558" lon="17.7700389">
        <ele>16.9604</ele>
        <time>2013-05-25T16:40:43Z</time>
      </trkpt>
      <trkpt lat="59.8479897" lon="17.7701448">
        <ele>15.999</ele>
        <time>2013-05-25T16:40:44Z</time>
      </trkpt>
      <trkpt lat="59.8480234" lon="17.7702548">
        <ele>15.999</ele>
        <time>2013-05-25T16:40:45Z</time>
      </trkpt>
      <trkpt lat="59.8480516" lon="17.7703712">
        <ele>15.999</ele>
        <time>2013-05-25T16:40:46Z</time>
      </trkpt>
      <trkpt lat="59.8480718" lon="17.7704966">
        <ele>15.5184</ele>
        <time>2013-05-25T16:40:47Z</time>
      </trkpt>
      <trkpt lat="59.8480847" lon="17.7706286">
        <ele>15.5184</ele>
        <time>2013-05-25T16:40:48Z</time>
      </trkpt>
      <trkpt lat="59.8480945" lon="17.7707632">
        <ele>15.0377</ele>
        <time>2013-05-25T16:40:49Z</time>
      </trkpt>
      <trkpt lat="59.8481042" lon="17.7708976">
        <ele>15.0377</ele>
        <time>2013-05-25T16:40:50Z</time>
      </trkpt>
      <trkpt lat="59.8481152" lon="17.7710317">
        <ele>15.0377</ele>
        <time>2013-05-25T16:40:51Z</time>
      </trkpt>
      <trkpt lat="59.8481304" lon="17.7711641">
        <ele>15.5184</ele>
        <time>2013-05-25T16:40:52Z</time>
      </trkpt>
      <trkpt lat="59.84815" lon="17.771293">
        <ele>15.5184</ele>
        <time>2013-05-25T16:40:53Z</time>
      </trkpt>
      <trkpt lat="59.8481722" lon="17.77142">
        <ele>15.5184</ele>
        <time>2013-05-25T16:40:54Z</time>
      </trkpt>
      <trkpt lat="59.8481938" lon="17.7715459">
        <ele>15.999</ele>
        <time>2013-05-25T16:40:55Z</time>
      </trkpt>
      <trkpt lat="59.8482148" lon="17.77167">
        <ele>15.999</ele>
        <time>2013-05-25T16:40:56Z</time>
      </trkpt>
      <trkpt lat="59.8482366" lon="17.7717931">
        <ele>15.999</ele>
        <time>2013-05-25T16:40:57Z</time>
      </trkpt>
      <trkpt lat="59.8482594" lon="17.7719139">
        <ele>16.4797</ele>
        <time>2013-05-25T16:40:58Z</time>
      </trkpt>
      <trkpt lat="59.848283" lon="17.7720328">
        <ele>16.4797</ele>
        <time>2013-05-25T16:40:59Z</time>
      </trkpt>
      <trkpt lat="59.8483054" lon="17.7721519">
        <ele>16.9604</ele>
        <time>2013-05-25T16:41:00Z</time>
      </trkpt>
      <trkpt lat="59.8483261" lon="17.7722702">
        <ele>16.9604</ele>
        <time>2013-05-25T16:41:01Z</time>
      </trkpt>
      <trkpt lat="59.8483467" lon="17.772384">
        <ele>17.4412</ele>
        <time>2013-05-25T16:41:02Z</time>
      </trkpt>
      <trkpt lat="59.848366" lon="17.7724974">
        <ele>17.9218</ele>
        <time>2013-05-25T16:41:03Z</time>
      </trkpt>
      <trkpt lat="59.8483857" lon="17.7726121">
        <ele>18.4023</ele>
        <time>2013-05-25T16:41:04Z</time>
      </trkpt>
      <trkpt lat="59.8484044" lon="17.7727246">
        <ele>19.3638</ele>
        <time>2013-05-25T16:41:05Z</time>
      </trkpt>
      <trkpt lat="59.8484224" lon="17.7728343">
        <ele>19.8444</ele>
        <time>2013-05-25T16:41:06Z</time>
      </trkpt>
      <trkpt lat="59.8484399" lon="17.7729377">
        <ele>20.8057</ele>
        <time>2013-05-25T16:41:07Z</time>
      </trkpt>
      <trkpt lat="59.848454" lon="17.7730384">
        <ele>21.2864</ele>
        <time>2013-05-25T16:41:08Z</time>
      </trkpt>
      <trkpt lat="59.8484633" lon="17.7731387">
        <ele>21.767</ele>
        <time>2013-05-25T16:41:09Z</time>
      </trkpt>
      <trkpt lat="59.848471" lon="17.7732364">
        <ele>22.2476</ele>
        <time>2013-05-25T16:41:10Z</time>
      </trkpt>
      <trkpt lat="59.8484789" lon="17.7733336">
        <ele>22.7283</ele>
        <time>2013-05-25T16:41:11Z</time>
      </trkpt>
      <trkpt lat="59.8484881" lon="17.7734299">
        <ele>23.209</ele>
        <time>2013-05-25T16:41:12Z</time>
      </trkpt>
      <trkpt lat="59.8484981" lon="17.7735263">
        <ele>23.6896</ele>
        <time>2013-05-25T16:41:13Z</time>
      </trkpt>
      <trkpt lat="59.8485085" lon="17.773622">
        <ele>23.6896</ele>
        <time>2013-05-25T16:41:14Z</time>
      </trkpt>
      <trkpt lat="59.8485201" lon="17.773716">
        <ele>24.1703</ele>
        <time>2013-05-25T16:41:15Z</time>
      </trkpt>
      <trkpt lat="59.8485323" lon="17.7738104">
        <ele>24.651</ele>
        <time>2013-05-25T16:41:16Z</time>
      </trkpt>
      <trkpt lat="59.8485431" lon="17.7739034">
        <ele>24.651</ele>
        <time>2013-05-25T16:41:17Z</time>
      </trkpt>
      <trkpt lat="59.8485535" lon="17.7739956">
        <ele>25.1317</ele>
        <time>2013-05-25T16:41:18Z</time>
      </trkpt>
      <trkpt lat="59.8485649" lon="17.774086">
        <ele>25.1317</ele>
        <time>2013-05-25T16:41:19Z</time>
      </trkpt>
      <trkpt lat="59.8485774" lon="17.7741751">
        <ele>25.6123</ele>
        <time>2013-05-25T16:41:20Z</time>
      </trkpt>
      <trkpt lat="59.8485903" lon="17.774264">
        <ele>25.6123</ele>
        <time>2013-05-25T16:41:21Z</time>
      </trkpt>
      <trkpt lat="59.8486022" lon="17.7743551">
        <ele>26.0929</ele>
        <time>2013-05-25T16:41:22Z</time>
      </trkpt>
      <trkpt lat="59.8486136" lon="17.7744464">
        <ele>26.0929</ele>
        <time>2013-05-25T16:41:23Z</time>
      </trkpt>
      <trkpt lat="59.848624" lon="17.7745356">
        <ele>26.0929</ele>
        <time>2013-05-25T16:41:24Z</time>
      </trkpt>
      <trkpt lat="59.8486343" lon="17.7746237">
        <ele>26.5736</ele>
        <time>2013-05-25T16:41:25Z</time>
      </trkpt>
      <trkpt lat="59.8486432" lon="17.7747121">
        <ele>26.5736</ele>
        <time>2013-05-25T16:41:26Z</time>
      </trkpt>
      <trkpt lat="59.8486509" lon="17.7748002">
        <ele>27.0543</ele>
        <time>2013-05-25T16:41:27Z</time>
      </trkpt>
      <trkpt lat="59.8486597" lon="17.7748877">
        <ele>27.0543</ele>
        <time>2013-05-25T16:41:28Z</time>
      </trkpt>
      <trkpt lat="59.8486698" lon="17.774972">
        <ele>27.5349</ele>
        <time>2013-05-25T16:41:29Z</time>
      </trkpt>
      <trkpt lat="59.8486794" lon="17.7750526">
        <ele>27.5349</ele>
        <time>2013-05-25T16:41:30Z</time>
      </trkpt>
      <trkpt lat="59.8486881" lon="17.7751359">
        <ele>27.5349</ele>
        <time>2013-05-25T16:41:31Z</time>
      </trkpt>
      <trkpt lat="59.848697" lon="17.775222">
        <ele>28.0155</ele>
        <time>2013-05-25T16:41:32Z</time>
      </trkpt>
      <trkpt lat="59.8487056" lon="17.7753118">
        <ele>28.4962</ele>
        <time>2013-05-25T16:41:33Z</time>
      </trkpt>
      <trkpt lat="59.8487129" lon="17.7753974">
        <ele>28.4962</ele>
        <time>2013-05-25T16:41:34Z</time>
      </trkpt>
      <trkpt lat="59.8487207" lon="17.7754835">
        <ele>28.9769</ele>
        <time>2013-05-25T16:41:35Z</time>
      </trkpt>
      <trkpt lat="59.8487271" lon="17.7755734">
        <ele>28.4962</ele>
        <time>2013-05-25T16:41:36Z</time>
      </trkpt>
      <trkpt lat="59.8487317" lon="17.775655">
        <ele>28.0155</ele>
        <time>2013-05-25T16:41:37Z</time>
      </trkpt>
      <trkpt lat="59.8487369" lon="17.7757306">
        <ele>27.5349</ele>
        <time>2013-05-25T16:41:38Z</time>
      </trkpt>
      <trkpt lat="59.8487436" lon="17.7758057">
        <ele>27.5349</ele>
        <time>2013-05-25T16:41:39Z</time>
      </trkpt>
      <trkpt lat="59.8487481" lon="17.7758745">
        <ele>27.5349</ele>
        <time>2013-05-25T16:41:40Z</time>
      </trkpt>
      <trkpt lat="59.8487507" lon="17.7759419">
        <ele>27.5349</ele>
        <time>2013-05-25T16:41:41Z</time>
      </trkpt>
      <trkpt lat="59.8487528" lon="17.7760087">
        <ele>27.0543</ele>
        <time>2013-05-25T16:41:42Z</time>
      </trkpt>
      <trkpt lat="59.8487555" lon="17.776075">
        <ele>27.0543</ele>
        <time>2013-05-25T16:41:43Z</time>
      </trkpt>
      <trkpt lat="59.8487586" lon="17.7761413">
        <ele>27.0543</ele>
        <time>2013-05-25T16:41:44Z</time>
      </trkpt>
      <trkpt lat="59.8487629" lon="17.7762085">
        <ele>27.0543</ele>
        <time>2013-05-25T16:41:45Z</time>
      </trkpt>
      <trkpt lat="59.8487674" lon="17.7762756">
        <ele>26.5736</ele>
        <time>2013-05-25T16:41:46Z</time>
      </trkpt>
      <trkpt lat="59.8487721" lon="17.7763442">
        <ele>26.5736</ele>
        <time>2013-05-25T16:41:47Z</time>
      </trkpt>
      <trkpt lat="59.8487766" lon="17.7764138">
        <ele>26.5736</ele>
        <time>2013-05-25T16:41:48Z</time>
      </trkpt>
      <trkpt lat="59.848781" lon="17.7764851">
        <ele>26.5736</ele>
        <time>2013-05-25T16:41:49Z</time>
      </trkpt>
      <trkpt lat="59.8487859" lon="17.7765573">
        <ele>26.5736</ele>
        <time>2013-05-25T16:41:50Z</time>
      </trkpt>
      <trkpt lat="59.8487902" lon="17.7766304">
        <ele>26.5736</ele>
        <time>2013-05-25T16:41:51Z</time>
      </trkpt>
      <trkpt lat="59.8487944" lon="17.7767024">
        <ele>26.5736</ele>
        <time>2013-05-25T16:41:52Z</time>
      </trkpt>
      <trkpt lat="59.8487985" lon="17.7767779">
        <ele>26.5736</ele>
        <time>2013-05-25T16:41:53Z</time>
      </trkpt>
      <trkpt lat="59.8488026" lon="17.7768547">
        <ele>26.5736</ele>
        <time>2013-05-25T16:41:54Z</time>
      </trkpt>
      <trkpt lat="59.8488063" lon="17.7769349">
        <ele>26.5736</ele>
        <time>2013-05-25T16:41:55Z</time>
      </trkpt>
      <trkpt lat="59.848811" lon="17.7770223">
        <ele>27.0543</ele>
        <time>2013-05-25T16:41:56Z</time>
      </trkpt>
      <trkpt lat="59.8488164" lon="17.7771049">
        <ele>27.5349</ele>
        <time>2013-05-25T16:41:57Z</time>
      </trkpt>
      <trkpt lat="59.8488213" lon="17.7771865">
        <ele>27.0543</ele>
        <time>2013-05-25T16:41:58Z</time>
      </trkpt>
      <trkpt lat="59.8488265" lon="17.7772721">
        <ele>27.0543</ele>
        <time>2013-05-25T16:41:59Z</time>
      </trkpt>
      <trkpt lat="59.8488311" lon="17.7773554">
        <ele>26.5736</ele>
        <time>2013-05-25T16:42:00Z</time>
      </trkpt>
      <trkpt lat="59.8488348" lon="17.7774369">
        <ele>25.6123</ele>
        <time>2013-05-25T16:42:01Z</time>
      </trkpt>
      <trkpt lat="59.8488406" lon="17.7775197">
        <ele>25.1317</ele>
        <time>2013-05-25T16:42:02Z</time>
      </trkpt>
      <trkpt lat="59.848847" lon="17.7776052">
        <ele>24.651</ele>
        <time>2013-05-25T16:42:03Z</time>
      </trkpt>
      <trkpt lat="59.8488524" lon="17.7776951">
        <ele>24.1703</ele>
        <time>2013-05-25T16:42:04Z</time>
      </trkpt>
      <trkpt lat="59.848857" lon="17.77779">
        <ele>23.6896</ele>
        <time>2013-05-25T16:42:05Z</time>
      </trkpt>
      <trkpt lat="59.8488592" lon="17.7778853">
        <ele>23.209</ele>
        <time>2013-05-25T16:42:06Z</time>
      </trkpt>
      <trkpt lat="59.8488612" lon="17.7779822">
        <ele>22.7283</ele>
        <time>2013-05-25T16:42:07Z</time>
      </trkpt>
      <trkpt lat="59.8488617" lon="17.7780827">
        <ele>22.7283</ele>
        <time>2013-05-25T16:42:08Z</time>
      </trkpt>
      <trkpt lat="59.8488607" lon="17.7781833">
        <ele>22.2476</ele>
        <time>2013-05-25T16:42:09Z</time>
      </trkpt>
      <trkpt lat="59.8488627" lon="17.7782848">
        <ele>22.2476</ele>
        <time>2013-05-25T16:42:10Z</time>
      </trkpt>
      <trkpt lat="59.8488641" lon="17.778383">
        <ele>22.2476</ele>
        <time>2013-05-25T16:42:11Z</time>
      </trkpt>
      <trkpt lat="59.8488658" lon="17.7784848">
        <ele>21.767</ele>
        <time>2013-05-25T16:42:12Z</time>
      </trkpt>
      <trkpt lat="59.8488678" lon="17.7785859">
        <ele>21.767</ele>
        <time>2013-05-25T16:42:13Z</time>
      </trkpt>
      <trkpt lat="59.8488729" lon="17.7786894">
        <ele>21.2864</ele>
        <time>2013-05-25T16:42:14Z</time>
      </trkpt>
      <trkpt lat="59.8488797" lon="17.7787978">
        <ele>20.8057</ele>
        <time>2013-05-25T16:42:15Z</time>
      </trkpt>
      <trkpt lat="59.8488844" lon="17.7789016">
        <ele>20.325</ele>
        <time>2013-05-25T16:42:16Z</time>
      </trkpt>
      <trkpt lat="59.8488871" lon="17.7790081">
        <ele>19.8444</ele>
        <time>2013-05-25T16:42:17Z</time>
      </trkpt>
      <trkpt lat="59.8488943" lon="17.7791218">
        <ele>19.8444</ele>
        <time>2013-05-25T16:42:18Z</time>
      </trkpt>
      <trkpt lat="59.8489031" lon="17.7792358">
        <ele>19.8444</ele>
        <time>2013-05-25T16:42:19Z</time>
      </trkpt>
      <trkpt lat="59.8489143" lon="17.7793509">
        <ele>20.325</ele>
        <time>2013-05-25T16:42:20Z</time>
      </trkpt>
      <trkpt lat="59.8489257" lon="17.7794659">
        <ele>20.325</ele>
        <time>2013-05-25T16:42:21Z</time>
      </trkpt>
      <trkpt lat="59.8489368" lon="17.7795784">
        <ele>20.8057</ele>
        <time>2013-05-25T16:42:22Z</time>
      </trkpt>
      <trkpt lat="59.8489498" lon="17.7796862">
        <ele>21.2864</ele>
        <time>2013-05-25T16:42:23Z</time>
      </trkpt>
      <trkpt lat="59.8489706" lon="17.7797922">
        <ele>21.2864</ele>
        <time>2013-05-25T16:42:24Z</time>
      </trkpt>
      <trkpt lat="59.8489942" lon="17.779897">
        <ele>21.2864</ele>
        <time>2013-05-25T16:42:25Z</time>
      </trkpt>
      <trkpt lat="59.8490159" lon="17.7800062">
        <ele>21.2864</ele>
        <time>2013-05-25T16:42:26Z</time>
      </trkpt>
      <trkpt lat="59.8490363" lon="17.7801212">
        <ele>21.2864</ele>
        <time>2013-05-25T16:42:27Z</time>
      </trkpt>
      <trkpt lat="59.8490575" lon="17.7802406">
        <ele>21.767</ele>
        <time>2013-05-25T16:42:28Z</time>
      </trkpt>
      <trkpt lat="59.849076" lon="17.7803622">
        <ele>21.2864</ele>
        <time>2013-05-25T16:42:29Z</time>
      </trkpt>
      <trkpt lat="59.8490892" lon="17.7804869">
        <ele>21.2864</ele>
        <time>2013-05-25T16:42:30Z</time>
      </trkpt>
      <trkpt lat="59.849101" lon="17.7806105">
        <ele>20.8057</ele>
        <time>2013-05-25T16:42:31Z</time>
      </trkpt>
      <trkpt lat="59.8491186" lon="17.7807392">
        <ele>20.8057</ele>
        <time>2013-05-25T16:42:32Z</time>
      </trkpt>
      <trkpt lat="59.8491419" lon="17.7808635">
        <ele>20.325</ele>
        <time>2013-05-25T16:42:33Z</time>
      </trkpt>
      <trkpt lat="59.8491672" lon="17.7809855">
        <ele>19.8444</ele>
        <time>2013-05-25T16:42:34Z</time>
      </trkpt>
      <trkpt lat="59.8491913" lon="17.7811063">
        <ele>19.8444</ele>
        <time>2013-05-25T16:42:35Z</time>
      </trkpt>
      <trkpt lat="59.8492148" lon="17.781227">
        <ele>19.8444</ele>
        <time>2013-05-25T16:42:36Z</time>
      </trkpt>
      <trkpt lat="59.849237" lon="17.7813495">
        <ele>19.3638</ele>
        <time>2013-05-25T16:42:37Z</time>
      </trkpt>
      <trkpt lat="59.8492595" lon="17.7814756">
        <ele>19.3638</ele>
        <time>2013-05-25T16:42:38Z</time>
      </trkpt>
      <trkpt lat="59.8492832" lon="17.7816016">
        <ele>19.3638</ele>
        <time>2013-05-25T16:42:39Z</time>
      </trkpt>
      <trkpt lat="59.8493083" lon="17.7817271">
        <ele>19.3638</ele>
        <time>2013-05-25T16:42:40Z</time>
      </trkpt>
      <trkpt lat="59.8493349" lon="17.7818537">
        <ele>19.3638</ele>
        <time>2013-05-25T16:42:41Z</time>
      </trkpt>
      <trkpt lat="59.8493619" lon="17.7819788">
        <ele>19.3638</ele>
        <time>2013-05-25T16:42:42Z</time>
      </trkpt>
      <trkpt lat="59.849389" lon="17.7821035">
        <ele>19.3638</ele>
        <time>2013-05-25T16:42:43Z</time>
      </trkpt>
      <trkpt lat="59.8494161" lon="17.7822252">
        <ele>19.3638</ele>
        <time>2013-05-25T16:42:44Z</time>
      </trkpt>
      <trkpt lat="59.8494419" lon="17.782344">
        <ele>19.3638</ele>
        <time>2013-05-25T16:42:45Z</time>
      </trkpt>
      <trkpt lat="59.849464" lon="17.7824614">
        <ele>19.3638</ele>
        <time>2013-05-25T16:42:46Z</time>
      </trkpt>
      <trkpt lat="59.8494837" lon="17.7825771">
        <ele>19.3638</ele>
        <time>2013-05-25T16:42:47Z</time>
      </trkpt>
      <trkpt lat="59.8495031" lon="17.7826905">
        <ele>18.8831</ele>
        <time>2013-05-25T16:42:48Z</time>
      </trkpt>
      <trkpt lat="59.8495253" lon="17.7828034">
        <ele>18.8831</ele>
        <time>2013-05-25T16:42:49Z</time>
      </trkpt>
      <trkpt lat="59.8495496" lon="17.7829149">
        <ele>18.8831</ele>
        <time>2013-05-25T16:42:50Z</time>
      </trkpt>
      <trkpt lat="59.8495729" lon="17.7830275">
        <ele>19.3638</ele>
        <time>2013-05-25T16:42:51Z</time>
      </trkpt>
      <trkpt lat="59.849596" lon="17.7831402">
        <ele>19.8444</ele>
        <time>2013-05-25T16:42:52Z</time>
      </trkpt>
      <trkpt lat="59.8496197" lon="17.7832541">
        <ele>20.325</ele>
        <time>2013-05-25T16:42:53Z</time>
      </trkpt>
      <trkpt lat="59.8496444" lon="17.783371">
        <ele>21.767</ele>
        <time>2013-05-25T16:42:54Z</time>
      </trkpt>
      <trkpt lat="59.8496708" lon="17.7834867">
        <ele>22.2476</ele>
        <time>2013-05-25T16:42:55Z</time>
      </trkpt>
      <trkpt lat="59.8496978" lon="17.7836046">
        <ele>22.2476</ele>
        <time>2013-05-25T16:42:56Z</time>
      </trkpt>
      <trkpt lat="59.8497245" lon="17.7837214">
        <ele>22.2476</ele>
        <time>2013-05-25T16:42:57Z</time>
      </trkpt>
      <trkpt lat="59.8497491" lon="17.7838385">
        <ele>21.767</ele>
        <time>2013-05-25T16:42:58Z</time>
      </trkpt>
      <trkpt lat="59.8497719" lon="17.7839569">
        <ele>22.2476</ele>
        <time>2013-05-25T16:42:59Z</time>
      </trkpt>
      <trkpt lat="59.8497916" lon="17.7840767">
        <ele>22.2476</ele>
        <time>2013-05-25T16:43:00Z</time>
      </trkpt>
      <trkpt lat="59.8498121" lon="17.7841956">
        <ele>23.209</ele>
        <time>2013-05-25T16:43:01Z</time>
      </trkpt>
      <trkpt lat="59.849835" lon="17.7843072">
        <ele>23.6896</ele>
        <time>2013-05-25T16:43:02Z</time>
      </trkpt>
      <trkpt lat="59.8498638" lon="17.7844139">
        <ele>23.209</ele>
        <time>2013-05-25T16:43:03Z</time>
      </trkpt>
      <trkpt lat="59.8498941" lon="17.7845202">
        <ele>23.6896</ele>
        <time>2013-05-25T16:43:04Z</time>
      </trkpt>
      <trkpt lat="59.8499211" lon="17.7846192">
        <ele>22.7283</ele>
        <time>2013-05-25T16:43:05Z</time>
      </trkpt>
      <trkpt lat="59.84995" lon="17.7847206">
        <ele>22.7283</ele>
        <time>2013-05-25T16:43:06Z</time>
      </trkpt>
      <trkpt lat="59.8499794" lon="17.7848205">
        <ele>22.7283</ele>
        <time>2013-05-25T16:43:07Z</time>
      </trkpt>
      <trkpt lat="59.8500089" lon="17.7849201">
        <ele>22.7283</ele>
        <time>2013-05-25T16:43:08Z</time>
      </trkpt>
      <trkpt lat="59.8500364" lon="17.7850172">
        <ele>22.2476</ele>
        <time>2013-05-25T16:43:09Z</time>
      </trkpt>
      <trkpt lat="59.850063" lon="17.7851117">
        <ele>21.2864</ele>
        <time>2013-05-25T16:43:10Z</time>
      </trkpt>
      <trkpt lat="59.8500928" lon="17.785206">
        <ele>20.8057</ele>
        <time>2013-05-25T16:43:11Z</time>
      </trkpt>
      <trkpt lat="59.8501225" lon="17.7852985">
        <ele>20.8057</ele>
        <time>2013-05-25T16:43:12Z</time>
      </trkpt>
      <trkpt lat="59.8501519" lon="17.7853887">
        <ele>20.325</ele>
        <time>2013-05-25T16:43:13Z</time>
      </trkpt>
      <trkpt lat="59.8501821" lon="17.7854799">
        <ele>19.8444</ele>
        <time>2013-05-25T16:43:14Z</time>
      </trkpt>
      <trkpt lat="59.8502137" lon="17.7855682">
        <ele>20.325</ele>
        <time>2013-05-25T16:43:15Z</time>
      </trkpt>
      <trkpt lat="59.8502468" lon="17.7856534">
        <ele>20.325</ele>
        <time>2013-05-25T16:43:16Z</time>
      </trkpt>
      <trkpt lat="59.8502767" lon="17.7857317">
        <ele>20.8057</ele>
        <time>2013-05-25T16:43:17Z</time>
      </trkpt>
      <trkpt lat="59.8503045" lon="17.7858064">
        <ele>19.8444</ele>
        <time>2013-05-25T16:43:18Z</time>
      </trkpt>
      <trkpt lat="59.8503306" lon="17.7858779">
        <ele>18.4023</ele>
        <time>2013-05-25T16:43:19Z</time>
      </trkpt>
      <trkpt lat="59.8503547" lon="17.7859501">
        <ele>16.9604</ele>
        <time>2013-05-25T16:43:20Z</time>
      </trkpt>
      <trkpt lat="59.8503796" lon="17.786026">
        <ele>16.9604</ele>
        <time>2013-05-25T16:43:21Z</time>
      </trkpt>
      <trkpt lat="59.8504047" lon="17.786103">
        <ele>17.9218</ele>
        <time>2013-05-25T16:43:22Z</time>
      </trkpt>
      <trkpt lat="59.8504349" lon="17.7861768">
        <ele>18.8831</ele>
        <time>2013-05-25T16:43:23Z</time>
      </trkpt>
      <trkpt lat="59.8504675" lon="17.7862485">
        <ele>18.8831</ele>
        <time>2013-05-25T16:43:24Z</time>
      </trkpt>
      <trkpt lat="59.8504991" lon="17.7863229">
        <ele>18.8831</ele>
        <time>2013-05-25T16:43:25Z</time>
      </trkpt>
      <trkpt lat="59.8505288" lon="17.7864003">
        <ele>18.8831</ele>
        <time>2013-05-25T16:43:26Z</time>
      </trkpt>
      <trkpt lat="59.8505587" lon="17.7864772">
        <ele>18.4023</ele>
        <time>2013-05-25T16:43:27Z</time>
      </trkpt>
      <trkpt lat="59.8505897" lon="17.7865572">
        <ele>19.3638</ele>
        <time>2013-05-25T16:43:28Z</time>
      </trkpt>
      <trkpt lat="59.8506222" lon="17.7866383">
        <ele>20.325</ele>
        <time>2013-05-25T16:43:29Z</time>
      </trkpt>
      <trkpt lat="59.8506512" lon="17.7867179">
        <ele>20.8057</ele>
        <time>2013-05-25T16:43:30Z</time>
      </trkpt>
      <trkpt lat="59.8506784" lon="17.7867942">
        <ele>21.767</ele>
        <time>2013-05-25T16:43:31Z</time>
      </trkpt>
      <trkpt lat="59.8507047" lon="17.7868683">
        <ele>22.7283</ele>
        <time>2013-05-25T16:43:32Z</time>
      </trkpt>
      <trkpt lat="59.8507349" lon="17.7869392">
        <ele>23.6896</ele>
        <time>2013-05-25T16:43:33Z</time>
      </trkpt>
      <trkpt lat="59.8507655" lon="17.7870092">
        <ele>24.651</ele>
        <time>2013-05-25T16:43:34Z</time>
      </trkpt>
      <trkpt lat="59.8507952" lon="17.78708">
        <ele>25.6123</ele>
        <time>2013-05-25T16:43:35Z</time>
      </trkpt>
      <trkpt lat="59.8508216" lon="17.7871526">
        <ele>25.6123</ele>
        <time>2013-05-25T16:43:36Z</time>
      </trkpt>
      <trkpt lat="59.8508506" lon="17.7872273">
        <ele>26.5736</ele>
        <time>2013-05-25T16:43:37Z</time>
      </trkpt>
      <trkpt lat="59.8508798" lon="17.7873027">
        <ele>27.0543</ele>
        <time>2013-05-25T16:43:38Z</time>
      </trkpt>
      <trkpt lat="59.8509103" lon="17.7873752">
        <ele>27.0543</ele>
        <time>2013-05-25T16:43:39Z</time>
      </trkpt>
      <trkpt lat="59.850942" lon="17.7874477">
        <ele>27.5349</ele>
        <time>2013-05-25T16:43:40Z</time>
      </trkpt>
      <trkpt lat="59.8509731" lon="17.7875229">
        <ele>28.0155</ele>
        <time>2013-05-25T16:43:41Z</time>
      </trkpt>
      <trkpt lat="59.8510057" lon="17.7875951">
        <ele>27.5349</ele>
        <time>2013-05-25T16:43:42Z</time>
      </trkpt>
      <trkpt lat="59.851038" lon="17.7876692">
        <ele>28.0155</ele>
        <time>2013-05-25T16:43:43Z</time>
      </trkpt>
      <trkpt lat="59.8510709" lon="17.7877442">
        <ele>28.4962</ele>
        <time>2013-05-25T16:43:44Z</time>
      </trkpt>
      <trkpt lat="59.8511024" lon="17.7878193">
        <ele>28.9769</ele>
        <time>2013-05-25T16:43:45Z</time>
      </trkpt>
      <trkpt lat="59.8511332" lon="17.7878964">
        <ele>28.9769</ele>
        <time>2013-05-25T16:43:46Z</time>
      </trkpt>
      <trkpt lat="59.8511653" lon="17.7879747">
        <ele>29.9381</ele>
        <time>2013-05-25T16:43:47Z</time>
      </trkpt>
      <trkpt lat="59.8511979" lon="17.7880517">
        <ele>30.4188</ele>
        <time>2013-05-25T16:43:48Z</time>
      </trkpt>
      <trkpt lat="59.8512337" lon="17.7881256">
        <ele>31.3801</ele>
        <time>2013-05-25T16:43:49Z</time>
      </trkpt>
      <trkpt lat="59.8512702" lon="17.7882002">
        <ele>32.8223</ele>
        <time>2013-05-25T16:43:50Z</time>
      </trkpt>
      <trkpt lat="59.8513036" lon="17.7882793">
        <ele>33.7834</ele>
        <time>2013-05-25T16:43:51Z</time>
      </trkpt>
      <trkpt lat="59.8513334" lon="17.7883615">
        <ele>34.2642</ele>
        <time>2013-05-25T16:43:52Z</time>
      </trkpt>
      <trkpt lat="59.8513663" lon="17.7884459">
        <ele>36.1868</ele>
        <time>2013-05-25T16:43:53Z</time>
      </trkpt>
      <trkpt lat="59.8513989" lon="17.7885257">
        <ele>37.1481</ele>
        <time>2013-05-25T16:43:54Z</time>
      </trkpt>
      <trkpt lat="59.8514309" lon="17.7886046">
        <ele>37.6287</ele>
        <time>2013-05-25T16:43:55Z</time>
      </trkpt>
      <trkpt lat="59.8514652" lon="17.7886854">
        <ele>38.5901</ele>
        <time>2013-05-25T16:43:56Z</time>
      </trkpt>
      <trkpt lat="59.8515" lon="17.7887699">
        <ele>40.0321</ele>
        <time>2013-05-25T16:43:57Z</time>
      </trkpt>
      <trkpt lat="59.8515336" lon="17.7888537">
        <ele>40.9934</ele>
        <time>2013-05-25T16:43:58Z</time>
      </trkpt>
      <trkpt lat="59.8515668" lon="17.7889388">
        <ele>41.474</ele>
        <time>2013-05-25T16:43:59Z</time>
      </trkpt>
      <trkpt lat="59.8516019" lon="17.7890252">
        <ele>41.9547</ele>
        <time>2013-05-25T16:44:00Z</time>
      </trkpt>
      <trkpt lat="59.8516387" lon="17.7891105">
        <ele>42.4354</ele>
        <time>2013-05-25T16:44:01Z</time>
      </trkpt>
      <trkpt lat="59.851675" lon="17.7891977">
        <ele>42.916</ele>
        <time>2013-05-25T16:44:02Z</time>
      </trkpt>
      <trkpt lat="59.8517152" lon="17.7892853">
        <ele>43.8773</ele>
        <time>2013-05-25T16:44:03Z</time>
      </trkpt>
      <trkpt lat="59.8517532" lon="17.7893721">
        <ele>43.3966</ele>
        <time>2013-05-25T16:44:04Z</time>
      </trkpt>
      <trkpt lat="59.8517935" lon="17.789464">
        <ele>43.3966</ele>
        <time>2013-05-25T16:44:05Z</time>
      </trkpt>
      <trkpt lat="59.8518294" lon="17.7895522">
        <ele>40.5128</ele>
        <time>2013-05-25T16:44:06Z</time>
      </trkpt>
      <trkpt lat="59.8518681" lon="17.7896495">
        <ele>39.5513</ele>
        <time>2013-05-25T16:44:07Z</time>
      </trkpt>
      <trkpt lat="59.8519074" lon="17.7897508">
        <ele>39.0707</ele>
        <time>2013-05-25T16:44:08Z</time>
      </trkpt>
      <trkpt lat="59.8519479" lon="17.7898555">
        <ele>39.0707</ele>
        <time>2013-05-25T16:44:09Z</time>
      </trkpt>
      <trkpt lat="59.8519885" lon="17.7899582">
        <ele>37.6287</ele>
        <time>2013-05-25T16:44:10Z</time>
      </trkpt>
      <trkpt lat="59.8520307" lon="17.7900591">
        <ele>36.6675</ele>
        <time>2013-05-25T16:44:11Z</time>
      </trkpt>
      <trkpt lat="59.8520721" lon="17.7901618">
        <ele>36.1868</ele>
        <time>2013-05-25T16:44:12Z</time>
      </trkpt>
      <trkpt lat="59.8521138" lon="17.7902626">
        <ele>35.7061</ele>
        <time>2013-05-25T16:44:13Z</time>
      </trkpt>
      <trkpt lat="59.8521581" lon="17.7903603">
        <ele>35.2255</ele>
        <time>2013-05-25T16:44:14Z</time>
      </trkpt>
      <trkpt lat="59.8521998" lon="17.790462">
        <ele>34.7449</ele>
        <time>2013-05-25T16:44:15Z</time>
      </trkpt>
      <trkpt lat="59.8522412" lon="17.7905654">
        <ele>34.7449</ele>
        <time>2013-05-25T16:44:16Z</time>
      </trkpt>
      <trkpt lat="59.8522825" lon="17.7906682">
        <ele>33.7834</ele>
        <time>2013-05-25T16:44:17Z</time>
      </trkpt>
      <trkpt lat="59.8523267" lon="17.7907711">
        <ele>33.7834</ele>
        <time>2013-05-25T16:44:18Z</time>
      </trkpt>
      <trkpt lat="59.8523695" lon="17.7908735">
        <ele>32.8223</ele>
        <time>2013-05-25T16:44:19Z</time>
      </trkpt>
      <trkpt lat="59.8524131" lon="17.7909782">
        <ele>32.8223</ele>
        <time>2013-05-25T16:44:20Z</time>
      </trkpt>
      <trkpt lat="59.8524546" lon="17.7910829">
        <ele>31.3801</ele>
        <time>2013-05-25T16:44:21Z</time>
      </trkpt>
      <trkpt lat="59.8524958" lon="17.7911927">
        <ele>30.8995</ele>
        <time>2013-05-25T16:44:22Z</time>
      </trkpt>
      <trkpt lat="59.8525379" lon="17.7913058">
        <ele>31.3801</ele>
        <time>2013-05-25T16:44:23Z</time>
      </trkpt>
      <trkpt lat="59.8525795" lon="17.7914174">
        <ele>30.4188</ele>
        <time>2013-05-25T16:44:24Z</time>
      </trkpt>
      <trkpt lat="59.8526212" lon="17.7915281">
        <ele>28.9769</ele>
        <time>2013-05-25T16:44:25Z</time>
      </trkpt>
      <trkpt lat="59.8526635" lon="17.7916412">
        <ele>28.4962</ele>
        <time>2013-05-25T16:44:26Z</time>
      </trkpt>
      <trkpt lat="59.8527049" lon="17.7917552">
        <ele>27.5349</ele>
        <time>2013-05-25T16:44:27Z</time>
      </trkpt>
      <trkpt lat="59.8527466" lon="17.7918691">
        <ele>26.5736</ele>
        <time>2013-05-25T16:44:28Z</time>
      </trkpt>
      <trkpt lat="59.852788" lon="17.7919821">
        <ele>26.0929</ele>
        <time>2013-05-25T16:44:29Z</time>
      </trkpt>
      <trkpt lat="59.8528301" lon="17.7920949">
        <ele>25.6123</ele>
        <time>2013-05-25T16:44:30Z</time>
      </trkpt>
      <trkpt lat="59.8528721" lon="17.7922087">
        <ele>25.6123</ele>
        <time>2013-05-25T16:44:31Z</time>
      </trkpt>
      <trkpt lat="59.8529128" lon="17.7923189">
        <ele>24.651</ele>
        <time>2013-05-25T16:44:32Z</time>
      </trkpt>
      <trkpt lat="59.8529566" lon="17.7924332">
        <ele>25.1317</ele>
        <time>2013-05-25T16:44:33Z</time>
      </trkpt>
      <trkpt lat="59.852997" lon="17.7925458">
        <ele>25.1317</ele>
        <time>2013-05-25T16:44:34Z</time>
      </trkpt>
      <trkpt lat="59.8530323" lon="17.7926596">
        <ele>23.6896</ele>
        <time>2013-05-25T16:44:35Z</time>
      </trkpt>
      <trkpt lat="59.8530696" lon="17.7927772">
        <ele>23.6896</ele>
        <time>2013-05-25T16:44:36Z</time>
      </trkpt>
      <trkpt lat="59.8531095" lon="17.792892">
        <ele>23.6896</ele>
        <time>2013-05-25T16:44:37Z</time>
      </trkpt>
      <trkpt lat="59.8531507" lon="17.793002">
        <ele>23.6896</ele>
        <time>2013-05-25T16:44:38Z</time>
      </trkpt>
      <trkpt lat="59.8531885" lon="17.7931108">
        <ele>23.209</ele>
        <time>2013-05-25T16:44:39Z</time>
      </trkpt>
      <trkpt lat="59.8532252" lon="17.7932201">
        <ele>22.2476</ele>
        <time>2013-05-25T16:44:40Z</time>
      </trkpt>
      <trkpt lat="59.8532639" lon="17.7933251">
        <ele>21.2864</ele>
        <time>2013-05-25T16:44:41Z</time>
      </trkpt>
      <trkpt lat="59.8533" lon="17.7934356">
        <ele>21.2864</ele>
        <time>2013-05-25T16:44:42Z</time>
      </trkpt>
      <trkpt lat="59.8533352" lon="17.7935484">
        <ele>21.2864</ele>
        <time>2013-05-25T16:44:43Z</time>
      </trkpt>
      <trkpt lat="59.8533699" lon="17.7936586">
        <ele>20.325</ele>
        <time>2013-05-25T16:44:44Z</time>
      </trkpt>
      <trkpt lat="59.8534022" lon="17.7937692">
        <ele>18.8831</ele>
        <time>2013-05-25T16:44:45Z</time>
      </trkpt>
      <trkpt lat="59.8534409" lon="17.7938776">
        <ele>18.8831</ele>
        <time>2013-05-25T16:44:46Z</time>
      </trkpt>
      <trkpt lat="59.8534782" lon="17.7939909">
        <ele>19.8444</ele>
        <time>2013-05-25T16:44:47Z</time>
      </trkpt>
      <trkpt lat="59.8535176" lon="17.7941033">
        <ele>20.8057</ele>
        <time>2013-05-25T16:44:48Z</time>
      </trkpt>
      <trkpt lat="59.8535558" lon="17.7942141">
        <ele>21.767</ele>
        <time>2013-05-25T16:44:49Z</time>
      </trkpt>
      <trkpt lat="59.853592" lon="17.7943174">
        <ele>20.8057</ele>
        <time>2013-05-25T16:44:50Z</time>
      </trkpt>
      <trkpt lat="59.8536274" lon="17.7944265">
        <ele>21.2864</ele>
        <time>2013-05-25T16:44:51Z</time>
      </trkpt>
      <trkpt lat="59.8536631" lon="17.7945353">
        <ele>22.2476</ele>
        <time>2013-05-25T16:44:52Z</time>
      </trkpt>
      <trkpt lat="59.8536941" lon="17.7946416">
        <ele>21.767</ele>
        <time>2013-05-25T16:44:53Z</time>
      </trkpt>
      <trkpt lat="59.8537289" lon="17.7947507">
        <ele>22.2476</ele>
        <time>2013-05-25T16:44:54Z</time>
      </trkpt>
      <trkpt lat="59.8537631" lon="17.7948599">
        <ele>22.2476</ele>
        <time>2013-05-25T16:44:55Z</time>
      </trkpt>
      <trkpt lat="59.8537982" lon="17.7949683">
        <ele>21.767</ele>
        <time>2013-05-25T16:44:56Z</time>
      </trkpt>
      <trkpt lat="59.8538337" lon="17.7950808">
        <ele>22.2476</ele>
        <time>2013-05-25T16:44:57Z</time>
      </trkpt>
      <trkpt lat="59.8538697" lon="17.7951948">
        <ele>23.6896</ele>
        <time>2013-05-25T16:44:58Z</time>
      </trkpt>
      <trkpt lat="59.8539057" lon="17.795309">
        <ele>24.651</ele>
        <time>2013-05-25T16:44:59Z</time>
      </trkpt>
      <trkpt lat="59.8539371" lon="17.7954189">
        <ele>24.651</ele>
        <time>2013-05-25T16:45:00Z</time>
      </trkpt>
      <trkpt lat="59.8539728" lon="17.7955282">
        <ele>24.651</ele>
        <time>2013-05-25T16:45:01Z</time>
      </trkpt>
      <trkpt lat="59.8540081" lon="17.7956404">
        <ele>24.651</ele>
        <time>2013-05-25T16:45:02Z</time>
      </trkpt>
      <trkpt lat="59.8540419" lon="17.7957506">
        <ele>25.6123</ele>
        <time>2013-05-25T16:45:03Z</time>
      </trkpt>
      <trkpt lat="59.8540729" lon="17.7958625">
        <ele>25.6123</ele>
        <time>2013-05-25T16:45:04Z</time>
      </trkpt>
      <trkpt lat="59.8541039" lon="17.7959738">
        <ele>26.0929</ele>
        <time>2013-05-25T16:45:05Z</time>
      </trkpt>
      <trkpt lat="59.8541392" lon="17.7960907">
        <ele>27.5349</ele>
        <time>2013-05-25T16:45:06Z</time>
      </trkpt>
      <trkpt lat="59.854174" lon="17.7962088">
        <ele>28.4962</ele>
        <time>2013-05-25T16:45:07Z</time>
      </trkpt>
      <trkpt lat="59.8542018" lon="17.7963333">
        <ele>28.9769</ele>
        <time>2013-05-25T16:45:08Z</time>
      </trkpt>
      <trkpt lat="59.8542349" lon="17.7964583">
        <ele>30.4188</ele>
        <time>2013-05-25T16:45:09Z</time>
      </trkpt>
      <trkpt lat="59.8542671" lon="17.7965852">
        <ele>31.8607</ele>
        <time>2013-05-25T16:45:10Z</time>
      </trkpt>
      <trkpt lat="59.8542977" lon="17.7967056">
        <ele>31.8607</ele>
        <time>2013-05-25T16:45:11Z</time>
      </trkpt>
      <trkpt lat="59.8543313" lon="17.7968249">
        <ele>31.3801</ele>
        <time>2013-05-25T16:45:12Z</time>
      </trkpt>
      <trkpt lat="59.8543731" lon="17.7969446">
        <ele>31.8607</ele>
        <time>2013-05-25T16:45:13Z</time>
      </trkpt>
      <trkpt lat="59.8544131" lon="17.7970611">
        <ele>30.8995</ele>
        <time>2013-05-25T16:45:14Z</time>
      </trkpt>
      <trkpt lat="59.8544515" lon="17.7971838">
        <ele>30.8995</ele>
        <time>2013-05-25T16:45:15Z</time>
      </trkpt>
      <trkpt lat="59.8544836" lon="17.7973091">
        <ele>29.9381</ele>
        <time>2013-05-25T16:45:16Z</time>
      </trkpt>
      <trkpt lat="59.8545111" lon="17.797437">
        <ele>28.4962</ele>
        <time>2013-05-25T16:45:17Z</time>
      </trkpt>
      <trkpt lat="59.8545371" lon="17.7975661">
        <ele>28.4962</ele>
        <time>2013-05-25T16:45:18Z</time>
      </trkpt>
      <trkpt lat="59.8545674" lon="17.7976983">
        <ele>28.4962</ele>
        <time>2013-05-25T16:45:19Z</time>
      </trkpt>
      <trkpt lat="59.8546002" lon="17.797834">
        <ele>28.4962</ele>
        <time>2013-05-25T16:45:20Z</time>
      </trkpt>
      <trkpt lat="59.8546327" lon="17.7979706">
        <ele>28.0155</ele>
        <time>2013-05-25T16:45:21Z</time>
      </trkpt>
      <trkpt lat="59.8546673" lon="17.7981125">
        <ele>29.9381</ele>
        <time>2013-05-25T16:45:22Z</time>
      </trkpt>
      <trkpt lat="59.854699" lon="17.7982472">
        <ele>30.4188</ele>
        <time>2013-05-25T16:45:23Z</time>
      </trkpt>
      <trkpt lat="59.8547276" lon="17.7983816">
        <ele>30.4188</ele>
        <time>2013-05-25T16:45:24Z</time>
      </trkpt>
      <trkpt lat="59.8547666" lon="17.79851">
        <ele>29.4575</ele>
        <time>2013-05-25T16:45:25Z</time>
      </trkpt>
      <trkpt lat="59.8547994" lon="17.7986378">
        <ele>28.4962</ele>
        <time>2013-05-25T16:45:26Z</time>
      </trkpt>
      <trkpt lat="59.8548271" lon="17.798765">
        <ele>26.5736</ele>
        <time>2013-05-25T16:45:27Z</time>
      </trkpt>
      <trkpt lat="59.8548613" lon="17.7988954">
        <ele>26.0929</ele>
        <time>2013-05-25T16:45:28Z</time>
      </trkpt>
      <trkpt lat="59.8548955" lon="17.7990214">
        <ele>25.1317</ele>
        <time>2013-05-25T16:45:29Z</time>
      </trkpt>
      <trkpt lat="59.8549338" lon="17.7991447">
        <ele>24.651</ele>
        <time>2013-05-25T16:45:30Z</time>
      </trkpt>
      <trkpt lat="59.8549725" lon="17.7992673">
        <ele>24.1703</ele>
        <time>2013-05-25T16:45:31Z</time>
      </trkpt>
      <trkpt lat="59.8550082" lon="17.7993909">
        <ele>23.6896</ele>
        <time>2013-05-25T16:45:32Z</time>
      </trkpt>
      <trkpt lat="59.8550384" lon="17.7995129">
        <ele>22.7283</ele>
        <time>2013-05-25T16:45:33Z</time>
      </trkpt>
      <trkpt lat="59.8550711" lon="17.7996382">
        <ele>22.7283</ele>
        <time>2013-05-25T16:45:34Z</time>
      </trkpt>
      <trkpt lat="59.8551049" lon="17.7997615">
        <ele>22.7283</ele>
        <time>2013-05-25T16:45:35Z</time>
      </trkpt>
      <trkpt lat="59.8551441" lon="17.7998848">
        <ele>23.209</ele>
        <time>2013-05-25T16:45:36Z</time>
      </trkpt>
      <trkpt lat="59.8551849" lon="17.8000137">
        <ele>25.1317</ele>
        <time>2013-05-25T16:45:37Z</time>
      </trkpt>
      <trkpt lat="59.855225" lon="17.8001419">
        <ele>26.0929</ele>
        <time>2013-05-25T16:45:38Z</time>
      </trkpt>
      <trkpt lat="59.8552591" lon="17.8002683">
        <ele>26.5736</ele>
        <time>2013-05-25T16:45:39Z</time>
      </trkpt>
      <trkpt lat="59.8552916" lon="17.8003874">
        <ele>25.6123</ele>
        <time>2013-05-25T16:45:40Z</time>
      </trkpt>
      <trkpt lat="59.8553248" lon="17.8005069">
        <ele>25.6123</ele>
        <time>2013-05-25T16:45:41Z</time>
      </trkpt>
      <trkpt lat="59.8553573" lon="17.800627">
        <ele>25.6123</ele>
        <time>2013-05-25T16:45:42Z</time>
      </trkpt>
      <trkpt lat="59.8553903" lon="17.8007514">
        <ele>26.0929</ele>
        <time>2013-05-25T16:45:43Z</time>
      </trkpt>
      <trkpt lat="59.8554232" lon="17.8008716">
        <ele>26.0929</ele>
        <time>2013-05-25T16:45:44Z</time>
      </trkpt>
      <trkpt lat="59.8554584" lon="17.8009935">
        <ele>26.5736</ele>
        <time>2013-05-25T16:45:45Z</time>
      </trkpt>
      <trkpt lat="59.8554943" lon="17.8011165">
        <ele>25.6123</ele>
        <time>2013-05-25T16:45:46Z</time>
      </trkpt>
      <trkpt lat="59.8555294" lon="17.801247">
        <ele>26.0929</ele>
        <time>2013-05-25T16:45:47Z</time>
      </trkpt>
      <trkpt lat="59.8555623" lon="17.8013807">
        <ele>25.1317</ele>
        <time>2013-05-25T16:45:48Z</time>
      </trkpt>
      <trkpt lat="59.8555938" lon="17.8015151">
        <ele>24.1703</ele>
        <time>2013-05-25T16:45:49Z</time>
      </trkpt>
      <trkpt lat="59.8556329" lon="17.8016541">
        <ele>23.6896</ele>
        <time>2013-05-25T16:45:50Z</time>
      </trkpt>
      <trkpt lat="59.8556739" lon="17.8017964">
        <ele>23.6896</ele>
        <time>2013-05-25T16:45:51Z</time>
      </trkpt>
      <trkpt lat="59.8557037" lon="17.8019437">
        <ele>23.209</ele>
        <time>2013-05-25T16:45:52Z</time>
      </trkpt>
      <trkpt lat="59.85573" lon="17.8021066">
        <ele>22.7283</ele>
        <time>2013-05-25T16:45:53Z</time>
      </trkpt>
      <trkpt lat="59.8557611" lon="17.8022711">
        <ele>22.7283</ele>
        <time>2013-05-25T16:45:54Z</time>
      </trkpt>
      <trkpt lat="59.8557978" lon="17.8024332">
        <ele>23.209</ele>
        <time>2013-05-25T16:45:55Z</time>
      </trkpt>
      <trkpt lat="59.8558352" lon="17.8025884">
        <ele>23.209</ele>
        <time>2013-05-25T16:45:56Z</time>
      </trkpt>
      <trkpt lat="59.8558787" lon="17.8027449">
        <ele>23.6896</ele>
        <time>2013-05-25T16:45:57Z</time>
      </trkpt>
      <trkpt lat="59.855919" lon="17.8028924">
        <ele>22.7283</ele>
        <time>2013-05-25T16:45:58Z</time>
      </trkpt>
      <trkpt lat="59.8559657" lon="17.8030351">
        <ele>22.2476</ele>
        <time>2013-05-25T16:45:59Z</time>
      </trkpt>
      <trkpt lat="59.8560206" lon="17.8031745">
        <ele>22.2476</ele>
        <time>2013-05-25T16:46:00Z</time>
      </trkpt>
      <trkpt lat="59.8560786" lon="17.803304">
        <ele>21.767</ele>
        <time>2013-05-25T16:46:01Z</time>
      </trkpt>
      <trkpt lat="59.8561356" lon="17.8034373">
        <ele>22.2476</ele>
        <time>2013-05-25T16:46:02Z</time>
      </trkpt>
      <trkpt lat="59.8561837" lon="17.803573">
        <ele>22.7283</ele>
        <time>2013-05-25T16:46:03Z</time>
      </trkpt>
      <trkpt lat="59.8562303" lon="17.8037098">
        <ele>22.7283</ele>
        <time>2013-05-25T16:46:04Z</time>
      </trkpt>
      <trkpt lat="59.8562738" lon="17.8038458">
        <ele>22.2476</ele>
        <time>2013-05-25T16:46:05Z</time>
      </trkpt>
      <trkpt lat="59.8563172" lon="17.8039802">
        <ele>22.2476</ele>
        <time>2013-05-25T16:46:06Z</time>
      </trkpt>
      <trkpt lat="59.8563605" lon="17.8041114">
        <ele>21.767</ele>
        <time>2013-05-25T16:46:07Z</time>
      </trkpt>
      <trkpt lat="59.8564029" lon="17.8042445">
        <ele>21.2864</ele>
        <time>2013-05-25T16:46:08Z</time>
      </trkpt>
      <trkpt lat="59.8564443" lon="17.8043813">
        <ele>21.2864</ele>
        <time>2013-05-25T16:46:09Z</time>
      </trkpt>
      <trkpt lat="59.8564851" lon="17.8045177">
        <ele>20.8057</ele>
        <time>2013-05-25T16:46:10Z</time>
      </trkpt>
      <trkpt lat="59.8565262" lon="17.8046534">
        <ele>20.325</ele>
        <time>2013-05-25T16:46:11Z</time>
      </trkpt>
      <trkpt lat="59.8565697" lon="17.8047904">
        <ele>19.8444</ele>
        <time>2013-05-25T16:46:12Z</time>
      </trkpt>
      <trkpt lat="59.8566163" lon="17.8049252">
        <ele>19.3638</ele>
        <time>2013-05-25T16:46:13Z</time>
      </trkpt>
      <trkpt lat="59.8566701" lon="17.8050479">
        <ele>19.3638</ele>
        <time>2013-05-25T16:46:14Z</time>
      </trkpt>
      <trkpt lat="59.8567301" lon="17.8051479">
        <ele>18.8831</ele>
        <time>2013-05-25T16:46:15Z</time>
      </trkpt>
      <trkpt lat="59.8567884" lon="17.8052354">
        <ele>18.8831</ele>
        <time>2013-05-25T16:46:16Z</time>
      </trkpt>
      <trkpt lat="59.856834" lon="17.8053296">
        <ele>18.4023</ele>
        <time>2013-05-25T16:46:17Z</time>
      </trkpt>
      <trkpt lat="59.8568567" lon="17.8054368">
        <ele>17.9218</ele>
        <time>2013-05-25T16:46:18Z</time>
      </trkpt>
      <trkpt lat="59.8568541" lon="17.8055491">
        <ele>17.4412</ele>
        <time>2013-05-25T16:46:19Z</time>
      </trkpt>
      <trkpt lat="59.8568327" lon="17.8056565">
        <ele>16.9604</ele>
        <time>2013-05-25T16:46:20Z</time>
      </trkpt>
      <trkpt lat="59.8568011" lon="17.8057419">
        <ele>16.4797</ele>
        <time>2013-05-25T16:46:21Z</time>
      </trkpt>
      <trkpt lat="59.8567795" lon="17.8058424">
        <ele>15.5184</ele>
        <time>2013-05-25T16:46:22Z</time>
      </trkpt>
      <trkpt lat="59.8566908" lon="17.8059423">
        <ele>15.0377</ele>
        <time>2013-05-25T16:46:23Z</time>
      </trkpt>
      <trkpt lat="59.8566443" lon="17.8059967">
        <ele>15.5184</ele>
        <time>2013-05-25T16:46:24Z</time>
      </trkpt>
      <trkpt lat="59.8566085" lon="17.8060807">
        <ele>15.5184</ele>
        <time>2013-05-25T16:46:25Z</time>
      </trkpt>
      <trkpt lat="59.8565856" lon="17.806189">
        <ele>15.5184</ele>
        <time>2013-05-25T16:46:26Z</time>
      </trkpt>
      <trkpt lat="59.8565833" lon="17.8062987">
        <ele>15.5184</ele>
        <time>2013-05-25T16:46:27Z</time>
      </trkpt>
      <trkpt lat="59.8566038" lon="17.8064007">
        <ele>15.5184</ele>
        <time>2013-05-25T16:46:28Z</time>
      </trkpt>
      <trkpt lat="59.8566287" lon="17.8065096">
        <ele>15.999</ele>
        <time>2013-05-25T16:46:29Z</time>
      </trkpt>
      <trkpt lat="59.8566527" lon="17.8066189">
        <ele>16.9604</ele>
        <time>2013-05-25T16:46:30Z</time>
      </trkpt>
      <trkpt lat="59.8566726" lon="17.8067215">
        <ele>16.9604</ele>
        <time>2013-05-25T16:46:31Z</time>
      </trkpt>
      <trkpt lat="59.8566837" lon="17.8068257">
        <ele>16.9604</ele>
        <time>2013-05-25T16:46:32Z</time>
      </trkpt>
      <trkpt lat="59.8566831" lon="17.8069328">
        <ele>17.4412</ele>
        <time>2013-05-25T16:46:33Z</time>
      </trkpt>
      <trkpt lat="59.8566791" lon="17.8070399">
        <ele>16.9604</ele>
        <time>2013-05-25T16:46:34Z</time>
      </trkpt>
      <trkpt lat="59.856664" lon="17.807145">
        <ele>16.4797</ele>
        <time>2013-05-25T16:46:35Z</time>
      </trkpt>
      <trkpt lat="59.8566453" lon="17.8072525">
        <ele>16.4797</ele>
        <time>2013-05-25T16:46:36Z</time>
      </trkpt>
      <trkpt lat="59.8566255" lon="17.8073621">
        <ele>16.9604</ele>
        <time>2013-05-25T16:46:37Z</time>
      </trkpt>
      <trkpt lat="59.8566049" lon="17.8074737">
        <ele>16.9604</ele>
        <time>2013-05-25T16:46:38Z</time>
      </trkpt>
      <trkpt lat="59.8565851" lon="17.807586">
        <ele>16.9604</ele>
        <time>2013-05-25T16:46:39Z</time>
      </trkpt>
      <trkpt lat="59.8565636" lon="17.8076955">
        <ele>16.9604</ele>
        <time>2013-05-25T16:46:40Z</time>
      </trkpt>
      <trkpt lat="59.8565408" lon="17.8078055">
        <ele>17.4412</ele>
        <time>2013-05-25T16:46:41Z</time>
      </trkpt>
      <trkpt lat="59.8565149" lon="17.8079122">
        <ele>17.4412</ele>
        <time>2013-05-25T16:46:42Z</time>
      </trkpt>
      <trkpt lat="59.8564892" lon="17.8080186">
        <ele>17.9218</ele>
        <time>2013-05-25T16:46:43Z</time>
      </trkpt>
      <trkpt lat="59.8564654" lon="17.8081291">
        <ele>17.9218</ele>
        <time>2013-05-25T16:46:44Z</time>
      </trkpt>
      <trkpt lat="59.8564437" lon="17.8082346">
        <ele>17.9218</ele>
        <time>2013-05-25T16:46:45Z</time>
      </trkpt>
      <trkpt lat="59.8564236" lon="17.8083365">
        <ele>17.9218</ele>
        <time>2013-05-25T16:46:46Z</time>
      </trkpt>
      <trkpt lat="59.8564029" lon="17.8084364">
        <ele>17.9218</ele>
        <time>2013-05-25T16:46:47Z</time>
      </trkpt>
      <trkpt lat="59.8563831" lon="17.8085331">
        <ele>17.9218</ele>
        <time>2013-05-25T16:46:48Z</time>
      </trkpt>
      <trkpt lat="59.8563651" lon="17.8086248">
        <ele>17.9218</ele>
        <time>2013-05-25T16:46:49Z</time>
      </trkpt>
      <trkpt lat="59.8563526" lon="17.8087184">
        <ele>18.4023</ele>
        <time>2013-05-25T16:46:50Z</time>
      </trkpt>
      <trkpt lat="59.85635" lon="17.8088226">
        <ele>18.8831</ele>
        <time>2013-05-25T16:46:51Z</time>
      </trkpt>
      <trkpt lat="59.8563614" lon="17.8089303">
        <ele>18.8831</ele>
        <time>2013-05-25T16:46:52Z</time>
      </trkpt>
      <trkpt lat="59.8563837" lon="17.809028">
        <ele>18.8831</ele>
        <time>2013-05-25T16:46:53Z</time>
      </trkpt>
      <trkpt lat="59.8564149" lon="17.8091168">
        <ele>18.4023</ele>
        <time>2013-05-25T16:46:54Z</time>
      </trkpt>
      <trkpt lat="59.8564511" lon="17.8092063">
        <ele>18.8831</ele>
        <time>2013-05-25T16:46:55Z</time>
      </trkpt>
      <trkpt lat="59.8564911" lon="17.8092965">
        <ele>19.3638</ele>
        <time>2013-05-25T16:46:56Z</time>
      </trkpt>
      <trkpt lat="59.8565333" lon="17.8093885">
        <ele>19.3638</ele>
        <time>2013-05-25T16:46:57Z</time>
      </trkpt>
      <trkpt lat="59.8565786" lon="17.8094738">
        <ele>19.8444</ele>
        <time>2013-05-25T16:46:58Z</time>
      </trkpt>
      <trkpt lat="59.8566257" lon="17.8095569">
        <ele>20.325</ele>
        <time>2013-05-25T16:46:59Z</time>
      </trkpt>
      <trkpt lat="59.8566738" lon="17.8096421">
        <ele>20.325</ele>
        <time>2013-05-25T16:47:00Z</time>
      </trkpt>
      <trkpt lat="59.8567187" lon="17.8097294">
        <ele>20.8057</ele>
        <time>2013-05-25T16:47:01Z</time>
      </trkpt>
      <trkpt lat="59.8567606" lon="17.8098228">
        <ele>20.8057</ele>
        <time>2013-05-25T16:47:02Z</time>
      </trkpt>
      <trkpt lat="59.8567987" lon="17.8099242">
        <ele>21.2864</ele>
        <time>2013-05-25T16:47:03Z</time>
      </trkpt>
      <trkpt lat="59.8568375" lon="17.8100244">
        <ele>21.767</ele>
        <time>2013-05-25T16:47:04Z</time>
      </trkpt>
      <trkpt lat="59.8568725" lon="17.8101316">
        <ele>21.767</ele>
        <time>2013-05-25T16:47:05Z</time>
      </trkpt>
      <trkpt lat="59.8569018" lon="17.8102441">
        <ele>21.2864</ele>
        <time>2013-05-25T16:47:06Z</time>
      </trkpt>
      <trkpt lat="59.8569241" lon="17.810366">
        <ele>21.767</ele>
        <time>2013-05-25T16:47:07Z</time>
      </trkpt>
      <trkpt lat="59.856938" lon="17.8104901">
        <ele>21.767</ele>
        <time>2013-05-25T16:47:08Z</time>
      </trkpt>
      <trkpt lat="59.8569456" lon="17.8106138">
        <ele>22.2476</ele>
        <time>2013-05-25T16:47:09Z</time>
      </trkpt>
      <trkpt lat="59.8569521" lon="17.810735">
        <ele>23.209</ele>
        <time>2013-05-25T16:47:10Z</time>
      </trkpt>
      <trkpt lat="59.856956" lon="17.8108489">
        <ele>23.6896</ele>
        <time>2013-05-25T16:47:11Z</time>
      </trkpt>
      <trkpt lat="59.856955" lon="17.8109572">
        <ele>24.1703</ele>
        <time>2013-05-25T16:47:12Z</time>
      </trkpt>
      <trkpt lat="59.8569483" lon="17.8110557">
        <ele>23.6896</ele>
        <time>2013-05-25T16:47:13Z</time>
      </trkpt>
      <trkpt lat="59.8569406" lon="17.8111562">
        <ele>23.209</ele>
        <time>2013-05-25T16:47:14Z</time>
      </trkpt>
      <trkpt lat="59.8569375" lon="17.8112645">
        <ele>23.209</ele>
        <time>2013-05-25T16:47:15Z</time>
      </trkpt>
      <trkpt lat="59.8569362" lon="17.811378">
        <ele>23.209</ele>
        <time>2013-05-25T16:47:16Z</time>
      </trkpt>
      <trkpt lat="59.856939" lon="17.8114934">
        <ele>22.7283</ele>
        <time>2013-05-25T16:47:17Z</time>
      </trkpt>
      <trkpt lat="59.8569463" lon="17.8116087">
        <ele>22.2476</ele>
        <time>2013-05-25T16:47:18Z</time>
      </trkpt>
      <trkpt lat="59.8569576" lon="17.8117281">
        <ele>21.767</ele>
        <time>2013-05-25T16:47:19Z</time>
      </trkpt>
      <trkpt lat="59.8569723" lon="17.8118508">
        <ele>21.2864</ele>
        <time>2013-05-25T16:47:20Z</time>
      </trkpt>
      <trkpt lat="59.8569934" lon="17.8119767">
        <ele>21.767</ele>
        <time>2013-05-25T16:47:21Z</time>
      </trkpt>
      <trkpt lat="59.8570199" lon="17.8121006">
        <ele>21.767</ele>
        <time>2013-05-25T16:47:22Z</time>
      </trkpt>
      <trkpt lat="59.8570484" lon="17.8122259">
        <ele>22.2476</ele>
        <time>2013-05-25T16:47:23Z</time>
      </trkpt>
      <trkpt lat="59.8570758" lon="17.8123519">
        <ele>22.7283</ele>
        <time>2013-05-25T16:47:24Z</time>
      </trkpt>
      <trkpt lat="59.8571027" lon="17.8124762">
        <ele>23.209</ele>
        <time>2013-05-25T16:47:25Z</time>
      </trkpt>
      <trkpt lat="59.8571287" lon="17.8125925">
        <ele>23.209</ele>
        <time>2013-05-25T16:47:26Z</time>
      </trkpt>
      <trkpt lat="59.8571534" lon="17.8127005">
        <ele>23.6896</ele>
        <time>2013-05-25T16:47:27Z</time>
      </trkpt>
      <trkpt lat="59.8571771" lon="17.8128004">
        <ele>23.6896</ele>
        <time>2013-05-25T16:47:28Z</time>
      </trkpt>
      <trkpt lat="59.8572048" lon="17.8128899">
        <ele>23.6896</ele>
        <time>2013-05-25T16:47:29Z</time>
      </trkpt>
      <trkpt lat="59.8572363" lon="17.8129785">
        <ele>24.1703</ele>
        <time>2013-05-25T16:47:30Z</time>
      </trkpt>
      <trkpt lat="59.8572696" lon="17.8130581">
        <ele>23.6896</ele>
        <time>2013-05-25T16:47:31Z</time>
      </trkpt>
      <trkpt lat="59.8573058" lon="17.8131308">
        <ele>22.7283</ele>
        <time>2013-05-25T16:47:32Z</time>
      </trkpt>
      <trkpt lat="59.8573445" lon="17.8132112">
        <ele>22.2476</ele>
        <time>2013-05-25T16:47:33Z</time>
      </trkpt>
      <trkpt lat="59.8573859" lon="17.8133033">
        <ele>22.2476</ele>
        <time>2013-05-25T16:47:34Z</time>
      </trkpt>
      <trkpt lat="59.8574261" lon="17.8134018">
        <ele>22.2476</ele>
        <time>2013-05-25T16:47:35Z</time>
      </trkpt>
      <trkpt lat="59.8574648" lon="17.8135049">
        <ele>22.2476</ele>
        <time>2013-05-25T16:47:36Z</time>
      </trkpt>
      <trkpt lat="59.8575006" lon="17.8136089">
        <ele>21.767</ele>
        <time>2013-05-25T16:47:37Z</time>
      </trkpt>
      <trkpt lat="59.8575297" lon="17.8137188">
        <ele>22.2476</ele>
        <time>2013-05-25T16:47:38Z</time>
      </trkpt>
      <trkpt lat="59.8575446" lon="17.8138338">
        <ele>22.7283</ele>
        <time>2013-05-25T16:47:39Z</time>
      </trkpt>
      <trkpt lat="59.8575444" lon="17.813955">
        <ele>22.7283</ele>
        <time>2013-05-25T16:47:40Z</time>
      </trkpt>
      <trkpt lat="59.8575347" lon="17.814075">
        <ele>22.7283</ele>
        <time>2013-05-25T16:47:41Z</time>
      </trkpt>
      <trkpt lat="59.8575253" lon="17.8141936">
        <ele>22.2476</ele>
        <time>2013-05-25T16:47:42Z</time>
      </trkpt>
      <trkpt lat="59.8575187" lon="17.8143123">
        <ele>22.2476</ele>
        <time>2013-05-25T16:47:43Z</time>
      </trkpt>
      <trkpt lat="59.8575151" lon="17.81443">
        <ele>22.2476</ele>
        <time>2013-05-25T16:47:44Z</time>
      </trkpt>
      <trkpt lat="59.8575212" lon="17.8145419">
        <ele>22.2476</ele>
        <time>2013-05-25T16:47:45Z</time>
      </trkpt>
      <trkpt lat="59.8575384" lon="17.8146399">
        <ele>22.2476</ele>
        <time>2013-05-25T16:47:46Z</time>
      </trkpt>
      <trkpt lat="59.8575617" lon="17.8147119">
        <ele>22.2476</ele>
        <time>2013-05-25T16:47:47Z</time>
      </trkpt>
      <trkpt lat="59.8575814" lon="17.8147583">
        <ele>22.2476</ele>
        <time>2013-05-25T16:47:48Z</time>
      </trkpt>
      <trkpt lat="59.8575897" lon="17.8147912">
        <ele>22.7283</ele>
        <time>2013-05-25T16:47:49Z</time>
      </trkpt>
      <trkpt lat="59.857592" lon="17.814816">
        <ele>22.7283</ele>
        <time>2013-05-25T16:47:50Z</time>
      </trkpt>
      <trkpt lat="59.8575941" lon="17.8148302">
        <ele>22.7283</ele>
        <time>2013-05-25T16:47:51Z</time>
      </trkpt>
      <trkpt lat="59.8575964" lon="17.8148361">
        <ele>22.7283</ele>
        <time>2013-05-25T16:47:52Z</time>
      </trkpt>
      <trkpt lat="59.8575962" lon="17.8148359">
        <ele>22.2476</ele>
        <time>2013-05-25T16:47:53Z</time>
      </trkpt>
      <trkpt lat="59.8576316" lon="17.8148715">
        <ele>23.6896</ele>
        <time>2013-05-25T16:48:02Z</time>
      </trkpt>
      <trkpt lat="59.8576467" lon="17.8148996">
        <ele>23.6896</ele>
        <time>2013-05-25T16:48:03Z</time>
      </trkpt>
      <trkpt lat="59.8576671" lon="17.8149217">
        <ele>24.1703</ele>
        <time>2013-05-25T16:48:04Z</time>
      </trkpt>
      <trkpt lat="59.8576988" lon="17.8149346">
        <ele>24.1703</ele>
        <time>2013-05-25T16:48:05Z</time>
      </trkpt>
      <trkpt lat="59.8577407" lon="17.8149454">
        <ele>24.1703</ele>
        <time>2013-05-25T16:48:06Z</time>
      </trkpt>
      <trkpt lat="59.857788" lon="17.8149636">
        <ele>24.1703</ele>
        <time>2013-05-25T16:48:07Z</time>
      </trkpt>
      <trkpt lat="59.8578402" lon="17.814992">
        <ele>24.651</ele>
        <time>2013-05-25T16:48:08Z</time>
      </trkpt>
      <trkpt lat="59.8578933" lon="17.815018">
        <ele>24.651</ele>
        <time>2013-05-25T16:48:09Z</time>
      </trkpt>
      <trkpt lat="59.857948" lon="17.8150431">
        <ele>25.6123</ele>
        <time>2013-05-25T16:48:10Z</time>
      </trkpt>
      <trkpt lat="59.8579969" lon="17.815065">
        <ele>23.209</ele>
        <time>2013-05-25T16:48:11Z</time>
      </trkpt>
      <trkpt lat="59.8580506" lon="17.8150926">
        <ele>23.209</ele>
        <time>2013-05-25T16:48:12Z</time>
      </trkpt>
      <trkpt lat="59.8581054" lon="17.8151227">
        <ele>23.209</ele>
        <time>2013-05-25T16:48:13Z</time>
      </trkpt>
      <trkpt lat="59.8581658" lon="17.8151548">
        <ele>24.651</ele>
        <time>2013-05-25T16:48:14Z</time>
      </trkpt>
      <trkpt lat="59.8582256" lon="17.8151937">
        <ele>25.6123</ele>
        <time>2013-05-25T16:48:15Z</time>
      </trkpt>
      <trkpt lat="59.8582829" lon="17.8152384">
        <ele>26.0929</ele>
        <time>2013-05-25T16:48:16Z</time>
      </trkpt>
      <trkpt lat="59.8583424" lon="17.8152806">
        <ele>27.0543</ele>
        <time>2013-05-25T16:48:17Z</time>
      </trkpt>
      <trkpt lat="59.8583998" lon="17.8153302">
        <ele>26.5736</ele>
        <time>2013-05-25T16:48:18Z</time>
      </trkpt>
      <trkpt lat="59.8584579" lon="17.8153857">
        <ele>25.6123</ele>
        <time>2013-05-25T16:48:19Z</time>
      </trkpt>
      <trkpt lat="59.858517" lon="17.8154402">
        <ele>23.6896</ele>
        <time>2013-05-25T16:48:20Z</time>
      </trkpt>
      <trkpt lat="59.8585811" lon="17.8154964">
        <ele>22.7283</ele>
        <time>2013-05-25T16:48:21Z</time>
      </trkpt>
      <trkpt lat="59.8586485" lon="17.8155516">
        <ele>21.767</ele>
        <time>2013-05-25T16:48:22Z</time>
      </trkpt>
      <trkpt lat="59.8587174" lon="17.8156112">
        <ele>21.767</ele>
        <time>2013-05-25T16:48:23Z</time>
      </trkpt>
      <trkpt lat="59.8587815" lon="17.8156655">
        <ele>20.325</ele>
        <time>2013-05-25T16:48:24Z</time>
      </trkpt>
      <trkpt lat="59.8588463" lon="17.8157197">
        <ele>19.3638</ele>
        <time>2013-05-25T16:48:25Z</time>
      </trkpt>
      <trkpt lat="59.8589116" lon="17.8157726">
        <ele>17.9218</ele>
        <time>2013-05-25T16:48:26Z</time>
      </trkpt>
      <trkpt lat="59.858977" lon="17.8158265">
        <ele>16.9604</ele>
        <time>2013-05-25T16:48:27Z</time>
      </trkpt>
      <trkpt lat="59.8590416" lon="17.8158806">
        <ele>15.999</ele>
        <time>2013-05-25T16:48:28Z</time>
      </trkpt>
      <trkpt lat="59.8591074" lon="17.8159377">
        <ele>15.999</ele>
        <time>2013-05-25T16:48:29Z</time>
      </trkpt>
      <trkpt lat="59.8591701" lon="17.8159939">
        <ele>15.0377</ele>
        <time>2013-05-25T16:48:30Z</time>
      </trkpt>
      <trkpt lat="59.8592332" lon="17.8160491">
        <ele>14.557</ele>
        <time>2013-05-25T16:48:31Z</time>
      </trkpt>
      <trkpt lat="59.8592961" lon="17.8161033">
        <ele>14.0764</ele>
        <time>2013-05-25T16:48:32Z</time>
      </trkpt>
      <trkpt lat="59.859359" lon="17.8161564">
        <ele>13.5958</ele>
        <time>2013-05-25T16:48:33Z</time>
      </trkpt>
      <trkpt lat="59.8594255" lon="17.81621">
        <ele>14.0764</ele>
        <time>2013-05-25T16:48:34Z</time>
      </trkpt>
      <trkpt lat="59.8594911" lon="17.8162625">
        <ele>14.557</ele>
        <time>2013-05-25T16:48:35Z</time>
      </trkpt>
      <trkpt lat="59.8595546" lon="17.8163141">
        <ele>15.0377</ele>
        <time>2013-05-25T16:48:36Z</time>
      </trkpt>
      <trkpt lat="59.8596161" lon="17.8163644">
        <ele>15.5184</ele>
        <time>2013-05-25T16:48:37Z</time>
      </trkpt>
      <trkpt lat="59.859677" lon="17.8164107">
        <ele>15.999</ele>
        <time>2013-05-25T16:48:38Z</time>
      </trkpt>
      <trkpt lat="59.8597351" lon="17.816455">
        <ele>16.4797</ele>
        <time>2013-05-25T16:48:39Z</time>
      </trkpt>
      <trkpt lat="59.8597886" lon="17.8165047">
        <ele>15.999</ele>
        <time>2013-05-25T16:48:40Z</time>
      </trkpt>
      <trkpt lat="59.8598403" lon="17.8165604">
        <ele>15.999</ele>
        <time>2013-05-25T16:48:41Z</time>
      </trkpt>
      <trkpt lat="59.8598936" lon="17.8166155">
        <ele>15.999</ele>
        <time>2013-05-25T16:48:42Z</time>
      </trkpt>
      <trkpt lat="59.859949" lon="17.8166695">
        <ele>16.4797</ele>
        <time>2013-05-25T16:48:43Z</time>
      </trkpt>
      <trkpt lat="59.860002" lon="17.8167238">
        <ele>16.4797</ele>
        <time>2013-05-25T16:48:44Z</time>
      </trkpt>
      <trkpt lat="59.8600532" lon="17.8167796">
        <ele>16.4797</ele>
        <time>2013-05-25T16:48:45Z</time>
      </trkpt>
      <trkpt lat="59.860103" lon="17.8168368">
        <ele>16.4797</ele>
        <time>2013-05-25T16:48:46Z</time>
      </trkpt>
      <trkpt lat="59.8601522" lon="17.8168971">
        <ele>16.4797</ele>
        <time>2013-05-25T16:48:47Z</time>
      </trkpt>
      <trkpt lat="59.860201" lon="17.8169615">
        <ele>15.999</ele>
        <time>2013-05-25T16:48:48Z</time>
      </trkpt>
      <trkpt lat="59.8602516" lon="17.8170282">
        <ele>15.999</ele>
        <time>2013-05-25T16:48:49Z</time>
      </trkpt>
      <trkpt lat="59.860303" lon="17.8170971">
        <ele>15.999</ele>
        <time>2013-05-25T16:48:50Z</time>
      </trkpt>
      <trkpt lat="59.8603548" lon="17.817167">
        <ele>15.999</ele>
        <time>2013-05-25T16:48:51Z</time>
      </trkpt>
      <trkpt lat="59.8604061" lon="17.817236">
        <ele>15.999</ele>
        <time>2013-05-25T16:48:52Z</time>
      </trkpt>
      <trkpt lat="59.8604559" lon="17.8173039">
        <ele>16.4797</ele>
        <time>2013-05-25T16:48:53Z</time>
      </trkpt>
      <trkpt lat="59.8605055" lon="17.8173701">
        <ele>16.4797</ele>
        <time>2013-05-25T16:48:54Z</time>
      </trkpt>
      <trkpt lat="59.8605537" lon="17.8174371">
        <ele>17.4412</ele>
        <time>2013-05-25T16:48:55Z</time>
      </trkpt>
      <trkpt lat="59.8606002" lon="17.8175014">
        <ele>17.9218</ele>
        <time>2013-05-25T16:48:56Z</time>
      </trkpt>
      <trkpt lat="59.8606469" lon="17.8175631">
        <ele>18.4023</ele>
        <time>2013-05-25T16:48:57Z</time>
      </trkpt>
      <trkpt lat="59.8606913" lon="17.8176206">
        <ele>18.8831</ele>
        <time>2013-05-25T16:48:58Z</time>
      </trkpt>
      <trkpt lat="59.8607355" lon="17.8176816">
        <ele>19.3638</ele>
        <time>2013-05-25T16:48:59Z</time>
      </trkpt>
      <trkpt lat="59.8607763" lon="17.817735">
        <ele>20.325</ele>
        <time>2013-05-25T16:49:00Z</time>
      </trkpt>
      <trkpt lat="59.8608148" lon="17.8177933">
        <ele>20.325</ele>
        <time>2013-05-25T16:49:01Z</time>
      </trkpt>
      <trkpt lat="59.8608525" lon="17.8178513">
        <ele>20.8057</ele>
        <time>2013-05-25T16:49:02Z</time>
      </trkpt>
      <trkpt lat="59.8608909" lon="17.8179089">
        <ele>20.8057</ele>
        <time>2013-05-25T16:49:03Z</time>
      </trkpt>
      <trkpt lat="59.8609233" lon="17.8179691">
        <ele>20.8057</ele>
        <time>2013-05-25T16:49:04Z</time>
      </trkpt>
      <trkpt lat="59.8609568" lon="17.818026">
        <ele>21.2864</ele>
        <time>2013-05-25T16:49:05Z</time>
      </trkpt>
      <trkpt lat="59.8610003" lon="17.818075">
        <ele>22.2476</ele>
        <time>2013-05-25T16:49:06Z</time>
      </trkpt>
      <trkpt lat="59.8610458" lon="17.8181208">
        <ele>20.325</ele>
        <time>2013-05-25T16:49:07Z</time>
      </trkpt>
      <trkpt lat="59.8610992" lon="17.8181709">
        <ele>21.2864</ele>
        <time>2013-05-25T16:49:08Z</time>
      </trkpt>
      <trkpt lat="59.8611544" lon="17.8182239">
        <ele>21.767</ele>
        <time>2013-05-25T16:49:09Z</time>
      </trkpt>
      <trkpt lat="59.861211" lon="17.818273">
        <ele>22.7283</ele>
        <time>2013-05-25T16:49:10Z</time>
      </trkpt>
      <trkpt lat="59.8612681" lon="17.8183178">
        <ele>23.6896</ele>
        <time>2013-05-25T16:49:11Z</time>
      </trkpt>
      <trkpt lat="59.8613245" lon="17.8183584">
        <ele>24.651</ele>
        <time>2013-05-25T16:49:12Z</time>
      </trkpt>
      <trkpt lat="59.861379" lon="17.8184016">
        <ele>25.1317</ele>
        <time>2013-05-25T16:49:13Z</time>
      </trkpt>
      <trkpt lat="59.8614333" lon="17.8184399">
        <ele>26.0929</ele>
        <time>2013-05-25T16:49:14Z</time>
      </trkpt>
      <trkpt lat="59.8614826" lon="17.8184731">
        <ele>25.1317</ele>
        <time>2013-05-25T16:49:15Z</time>
      </trkpt>
      <trkpt lat="59.8615296" lon="17.8185017">
        <ele>24.1703</ele>
        <time>2013-05-25T16:49:16Z</time>
      </trkpt>
      <trkpt lat="59.861571" lon="17.8185265">
        <ele>23.209</ele>
        <time>2013-05-25T16:49:17Z</time>
      </trkpt>
      <trkpt lat="59.8616141" lon="17.8185503">
        <ele>23.209</ele>
        <time>2013-05-25T16:49:18Z</time>
      </trkpt>
      <trkpt lat="59.8616559" lon="17.8185706">
        <ele>22.2476</ele>
        <time>2013-05-25T16:49:19Z</time>
      </trkpt>
      <trkpt lat="59.8617009" lon="17.818602">
        <ele>21.767</ele>
        <time>2013-05-25T16:49:20Z</time>
      </trkpt>
      <trkpt lat="59.8617519" lon="17.8186392">
        <ele>21.2864</ele>
        <time>2013-05-25T16:49:21Z</time>
      </trkpt>
      <trkpt lat="59.8618048" lon="17.8186828">
        <ele>21.2864</ele>
        <time>2013-05-25T16:49:22Z</time>
      </trkpt>
      <trkpt lat="59.861867" lon="17.8187325">
        <ele>22.2476</ele>
        <time>2013-05-25T16:49:23Z</time>
      </trkpt>
      <trkpt lat="59.861931" lon="17.8187672">
        <ele>22.7283</ele>
        <time>2013-05-25T16:49:24Z</time>
      </trkpt>
      <trkpt lat="59.8619977" lon="17.8187999">
        <ele>23.6896</ele>
        <time>2013-05-25T16:49:25Z</time>
      </trkpt>
      <trkpt lat="59.8620625" lon="17.8188448">
        <ele>23.209</ele>
        <time>2013-05-25T16:49:26Z</time>
      </trkpt>
      <trkpt lat="59.8621217" lon="17.8188874">
        <ele>22.2476</ele>
        <time>2013-05-25T16:49:27Z</time>
      </trkpt>
      <trkpt lat="59.8621798" lon="17.8189428">
        <ele>21.2864</ele>
        <time>2013-05-25T16:49:28Z</time>
      </trkpt>
      <trkpt lat="59.8622382" lon="17.8190143">
        <ele>21.2864</ele>
        <time>2013-05-25T16:49:29Z</time>
      </trkpt>
      <trkpt lat="59.862288" lon="17.8190898">
        <ele>20.325</ele>
        <time>2013-05-25T16:49:30Z</time>
      </trkpt>
      <trkpt lat="59.862335" lon="17.8191699">
        <ele>19.3638</ele>
        <time>2013-05-25T16:49:31Z</time>
      </trkpt>
      <trkpt lat="59.8623805" lon="17.8192671">
        <ele>19.3638</ele>
        <time>2013-05-25T16:49:32Z</time>
      </trkpt>
      <trkpt lat="59.8624171" lon="17.8193769">
        <ele>19.8444</ele>
        <time>2013-05-25T16:49:33Z</time>
      </trkpt>
      <trkpt lat="59.8624434" lon="17.8194859">
        <ele>19.3638</ele>
        <time>2013-05-25T16:49:34Z</time>
      </trkpt>
      <trkpt lat="59.8624675" lon="17.8195947">
        <ele>19.8444</ele>
        <time>2013-05-25T16:49:35Z</time>
      </trkpt>
      <trkpt lat="59.8624919" lon="17.819698">
        <ele>19.8444</ele>
        <time>2013-05-25T16:49:36Z</time>
      </trkpt>
      <trkpt lat="59.8625113" lon="17.8197997">
        <ele>19.3638</ele>
        <time>2013-05-25T16:49:37Z</time>
      </trkpt>
      <trkpt lat="59.8625321" lon="17.8199095">
        <ele>18.8831</ele>
        <time>2013-05-25T16:49:38Z</time>
      </trkpt>
      <trkpt lat="59.8625528" lon="17.820014">
        <ele>18.8831</ele>
        <time>2013-05-25T16:49:39Z</time>
      </trkpt>
      <trkpt lat="59.8625723" lon="17.8201202">
        <ele>18.4023</ele>
        <time>2013-05-25T16:49:40Z</time>
      </trkpt>
      <trkpt lat="59.8625971" lon="17.82023">
        <ele>18.8831</ele>
        <time>2013-05-25T16:49:41Z</time>
      </trkpt>
      <trkpt lat="59.86262" lon="17.8203411">
        <ele>18.4023</ele>
        <time>2013-05-25T16:49:42Z</time>
      </trkpt>
      <trkpt lat="59.8626449" lon="17.8204559">
        <ele>17.9218</ele>
        <time>2013-05-25T16:49:43Z</time>
      </trkpt>
      <trkpt lat="59.8626732" lon="17.8205731">
        <ele>17.9218</ele>
        <time>2013-05-25T16:49:44Z</time>
      </trkpt>
      <trkpt lat="59.8627041" lon="17.8206964">
        <ele>17.9218</ele>
        <time>2013-05-25T16:49:45Z</time>
      </trkpt>
      <trkpt lat="59.862739" lon="17.820826">
        <ele>16.9604</ele>
        <time>2013-05-25T16:49:46Z</time>
      </trkpt>
      <trkpt lat="59.8627765" lon="17.8209616">
        <ele>15.999</ele>
        <time>2013-05-25T16:49:47Z</time>
      </trkpt>
      <trkpt lat="59.8628165" lon="17.8211041">
        <ele>15.0377</ele>
        <time>2013-05-25T16:49:48Z</time>
      </trkpt>
      <trkpt lat="59.8628584" lon="17.8212558">
        <ele>15.0377</ele>
        <time>2013-05-25T16:49:49Z</time>
      </trkpt>
      <trkpt lat="59.8629009" lon="17.821405">
        <ele>14.557</ele>
        <time>2013-05-25T16:49:50Z</time>
      </trkpt>
      <trkpt lat="59.8629436" lon="17.8215552">
        <ele>14.0764</ele>
        <time>2013-05-25T16:49:51Z</time>
      </trkpt>
      <trkpt lat="59.8629863" lon="17.821705">
        <ele>13.5958</ele>
        <time>2013-05-25T16:49:52Z</time>
      </trkpt>
      <trkpt lat="59.8630307" lon="17.8218529">
        <ele>13.5958</ele>
        <time>2013-05-25T16:49:53Z</time>
      </trkpt>
      <trkpt lat="59.8630764" lon="17.821998">
        <ele>13.1151</ele>
        <time>2013-05-25T16:49:54Z</time>
      </trkpt>
      <trkpt lat="59.863123" lon="17.8221401">
        <ele>13.1151</ele>
        <time>2013-05-25T16:49:55Z</time>
      </trkpt>
      <trkpt lat="59.8631706" lon="17.8222801">
        <ele>12.6344</ele>
        <time>2013-05-25T16:49:56Z</time>
      </trkpt>
      <trkpt lat="59.8632179" lon="17.8224186">
        <ele>12.1538</ele>
        <time>2013-05-25T16:49:57Z</time>
      </trkpt>
      <trkpt lat="59.8632655" lon="17.8225555">
        <ele>12.1538</ele>
        <time>2013-05-25T16:49:58Z</time>
      </trkpt>
      <trkpt lat="59.863314" lon="17.8226905">
        <ele>11.6732</ele>
        <time>2013-05-25T16:49:59Z</time>
      </trkpt>
      <trkpt lat="59.8633634" lon="17.8228218">
        <ele>11.6732</ele>
        <time>2013-05-25T16:50:00Z</time>
      </trkpt>
      <trkpt lat="59.863414" lon="17.8229485">
        <ele>11.6732</ele>
        <time>2013-05-25T16:50:01Z</time>
      </trkpt>
      <trkpt lat="59.8634648" lon="17.8230709">
        <ele>11.1925</ele>
        <time>2013-05-25T16:50:02Z</time>
      </trkpt>
      <trkpt lat="59.8635157" lon="17.8231915">
        <ele>11.1925</ele>
        <time>2013-05-25T16:50:03Z</time>
      </trkpt>
      <trkpt lat="59.8635664" lon="17.8233093">
        <ele>11.1925</ele>
        <time>2013-05-25T16:50:04Z</time>
      </trkpt>
      <trkpt lat="59.8636165" lon="17.8234256">
        <ele>10.7118</ele>
        <time>2013-05-25T16:50:05Z</time>
      </trkpt>
      <trkpt lat="59.8636655" lon="17.8235396">
        <ele>10.7118</ele>
        <time>2013-05-25T16:50:06Z</time>
      </trkpt>
      <trkpt lat="59.8637145" lon="17.8236497">
        <ele>10.7118</ele>
        <time>2013-05-25T16:50:07Z</time>
      </trkpt>
      <trkpt lat="59.8637633" lon="17.8237605">
        <ele>11.1925</ele>
        <time>2013-05-25T16:50:08Z</time>
      </trkpt>
      <trkpt lat="59.8638119" lon="17.8238687">
        <ele>11.1925</ele>
        <time>2013-05-25T16:50:09Z</time>
      </trkpt>
      <trkpt lat="59.8638596" lon="17.8239765">
        <ele>11.1925</ele>
        <time>2013-05-25T16:50:10Z</time>
      </trkpt>
      <trkpt lat="59.8639068" lon="17.8240807">
        <ele>11.1925</ele>
        <time>2013-05-25T16:50:11Z</time>
      </trkpt>
      <trkpt lat="59.8639543" lon="17.8241822">
        <ele>11.6732</ele>
        <time>2013-05-25T16:50:12Z</time>
      </trkpt>
      <trkpt lat="59.8640011" lon="17.8242829">
        <ele>11.6732</ele>
        <time>2013-05-25T16:50:13Z</time>
      </trkpt>
      <trkpt lat="59.864049" lon="17.8243834">
        <ele>12.1538</ele>
        <time>2013-05-25T16:50:14Z</time>
      </trkpt>
      <trkpt lat="59.8640962" lon="17.8244842">
        <ele>12.6344</ele>
        <time>2013-05-25T16:50:15Z</time>
      </trkpt>
      <trkpt lat="59.8641426" lon="17.8245839">
        <ele>12.6344</ele>
        <time>2013-05-25T16:50:16Z</time>
      </trkpt>
      <trkpt lat="59.8641889" lon="17.8246845">
        <ele>13.1151</ele>
        <time>2013-05-25T16:50:17Z</time>
      </trkpt>
      <trkpt lat="59.8642352" lon="17.8247836">
        <ele>13.1151</ele>
        <time>2013-05-25T16:50:18Z</time>
      </trkpt>
      <trkpt lat="59.8642818" lon="17.8248813">
        <ele>13.5958</ele>
        <time>2013-05-25T16:50:19Z</time>
      </trkpt>
      <trkpt lat="59.8643279" lon="17.8249799">
        <ele>13.5958</ele>
        <time>2013-05-25T16:50:20Z</time>
      </trkpt>
      <trkpt lat="59.8643735" lon="17.8250751">
        <ele>14.0764</ele>
        <time>2013-05-25T16:50:21Z</time>
      </trkpt>
      <trkpt lat="59.8644182" lon="17.8251673">
        <ele>14.557</ele>
        <time>2013-05-25T16:50:22Z</time>
      </trkpt>
      <trkpt lat="59.8644631" lon="17.8252562">
        <ele>15.0377</ele>
        <time>2013-05-25T16:50:23Z</time>
      </trkpt>
      <trkpt lat="59.8645062" lon="17.8253429">
        <ele>15.5184</ele>
        <time>2013-05-25T16:50:24Z</time>
      </trkpt>
      <trkpt lat="59.864548" lon="17.8254263">
        <ele>15.999</ele>
        <time>2013-05-25T16:50:25Z</time>
      </trkpt>
      <trkpt lat="59.8645869" lon="17.8255076">
        <ele>16.4797</ele>
        <time>2013-05-25T16:50:26Z</time>
      </trkpt>
      <trkpt lat="59.8646231" lon="17.8255894">
        <ele>16.9604</ele>
        <time>2013-05-25T16:50:27Z</time>
      </trkpt>
      <trkpt lat="59.8646577" lon="17.8256667">
        <ele>17.4412</ele>
        <time>2013-05-25T16:50:28Z</time>
      </trkpt>
      <trkpt lat="59.8646926" lon="17.8257416">
        <ele>17.4412</ele>
        <time>2013-05-25T16:50:29Z</time>
      </trkpt>
      <trkpt lat="59.8647269" lon="17.8258134">
        <ele>17.9218</ele>
        <time>2013-05-25T16:50:30Z</time>
      </trkpt>
      <trkpt lat="59.8647621" lon="17.8258843">
        <ele>18.8831</ele>
        <time>2013-05-25T16:50:31Z</time>
      </trkpt>
      <trkpt lat="59.8647951" lon="17.8259548">
        <ele>19.3638</ele>
        <time>2013-05-25T16:50:32Z</time>
      </trkpt>
      <trkpt lat="59.8648278" lon="17.8260229">
        <ele>20.325</ele>
        <time>2013-05-25T16:50:33Z</time>
      </trkpt>
      <trkpt lat="59.8648599" lon="17.8260867">
        <ele>20.8057</ele>
        <time>2013-05-25T16:50:34Z</time>
      </trkpt>
      <trkpt lat="59.8648899" lon="17.8261506">
        <ele>21.2864</ele>
        <time>2013-05-25T16:50:35Z</time>
      </trkpt>
      <trkpt lat="59.8649217" lon="17.8262136">
        <ele>22.2476</ele>
        <time>2013-05-25T16:50:36Z</time>
      </trkpt>
      <trkpt lat="59.864954" lon="17.8262748">
        <ele>22.7283</ele>
        <time>2013-05-25T16:50:37Z</time>
      </trkpt>
      <trkpt lat="59.8649842" lon="17.8263323">
        <ele>23.209</ele>
        <time>2013-05-25T16:50:38Z</time>
      </trkpt>
      <trkpt lat="59.8650169" lon="17.8263819">
        <ele>24.1703</ele>
        <time>2013-05-25T16:50:39Z</time>
      </trkpt>
      <trkpt lat="59.8650515" lon="17.8264298">
        <ele>24.651</ele>
        <time>2013-05-25T16:50:40Z</time>
      </trkpt>
      <trkpt lat="59.8650873" lon="17.8264772">
        <ele>24.1703</ele>
        <time>2013-05-25T16:50:41Z</time>
      </trkpt>
      <trkpt lat="59.8651198" lon="17.826522">
        <ele>21.2864</ele>
        <time>2013-05-25T16:50:42Z</time>
      </trkpt>
      <trkpt lat="59.8651581" lon="17.826568">
        <ele>21.2864</ele>
        <time>2013-05-25T16:50:43Z</time>
      </trkpt>
      <trkpt lat="59.8651982" lon="17.8266054">
        <ele>21.2864</ele>
        <time>2013-05-25T16:50:44Z</time>
      </trkpt>
      <trkpt lat="59.8652382" lon="17.8266305">
        <ele>19.8444</ele>
        <time>2013-05-25T16:50:45Z</time>
      </trkpt>
      <trkpt lat="59.8652847" lon="17.8266555">
        <ele>18.8831</ele>
        <time>2013-05-25T16:50:46Z</time>
      </trkpt>
      <trkpt lat="59.8653344" lon="17.8266743">
        <ele>18.8831</ele>
        <time>2013-05-25T16:50:47Z</time>
      </trkpt>
      <trkpt lat="59.8653855" lon="17.826686">
        <ele>18.4023</ele>
        <time>2013-05-25T16:50:48Z</time>
      </trkpt>
      <trkpt lat="59.8654383" lon="17.8266984">
        <ele>17.9218</ele>
        <time>2013-05-25T16:50:49Z</time>
      </trkpt>
      <trkpt lat="59.8654937" lon="17.8267114">
        <ele>17.4412</ele>
        <time>2013-05-25T16:50:50Z</time>
      </trkpt>
      <trkpt lat="59.8655505" lon="17.8267208">
        <ele>16.9604</ele>
        <time>2013-05-25T16:50:51Z</time>
      </trkpt>
      <trkpt lat="59.865609" lon="17.8267281">
        <ele>16.4797</ele>
        <time>2013-05-25T16:50:52Z</time>
      </trkpt>
      <trkpt lat="59.8656681" lon="17.8267349">
        <ele>16.4797</ele>
        <time>2013-05-25T16:50:53Z</time>
      </trkpt>
      <trkpt lat="59.8657281" lon="17.8267434">
        <ele>15.999</ele>
        <time>2013-05-25T16:50:54Z</time>
      </trkpt>
      <trkpt lat="59.8657883" lon="17.8267559">
        <ele>16.4797</ele>
        <time>2013-05-25T16:50:55Z</time>
      </trkpt>
      <trkpt lat="59.8658484" lon="17.8267669">
        <ele>16.4797</ele>
        <time>2013-05-25T16:50:56Z</time>
      </trkpt>
      <trkpt lat="59.8659078" lon="17.8267752">
        <ele>16.4797</ele>
        <time>2013-05-25T16:50:57Z</time>
      </trkpt>
      <trkpt lat="59.8659665" lon="17.8267792">
        <ele>15.999</ele>
        <time>2013-05-25T16:50:58Z</time>
      </trkpt>
      <trkpt lat="59.8660248" lon="17.8267802">
        <ele>15.5184</ele>
        <time>2013-05-25T16:50:59Z</time>
      </trkpt>
      <trkpt lat="59.8660839" lon="17.826786">
        <ele>15.999</ele>
        <time>2013-05-25T16:51:00Z</time>
      </trkpt>
      <trkpt lat="59.8661414" lon="17.8267918">
        <ele>15.5184</ele>
        <time>2013-05-25T16:51:01Z</time>
      </trkpt>
      <trkpt lat="59.8661999" lon="17.8267919">
        <ele>15.5184</ele>
        <time>2013-05-25T16:51:02Z</time>
      </trkpt>
      <trkpt lat="59.8662549" lon="17.8267943">
        <ele>15.0377</ele>
        <time>2013-05-25T16:51:03Z</time>
      </trkpt>
      <trkpt lat="59.8663119" lon="17.8267944">
        <ele>15.0377</ele>
        <time>2013-05-25T16:51:04Z</time>
      </trkpt>
      <trkpt lat="59.8663677" lon="17.8267838">
        <ele>14.557</ele>
        <time>2013-05-25T16:51:05Z</time>
      </trkpt>
      <trkpt lat="59.8664251" lon="17.8267704">
        <ele>14.557</ele>
        <time>2013-05-25T16:51:06Z</time>
      </trkpt>
      <trkpt lat="59.8664802" lon="17.8267486">
        <ele>13.5958</ele>
        <time>2013-05-25T16:51:07Z</time>
      </trkpt>
      <trkpt lat="59.8665403" lon="17.8267282">
        <ele>13.5958</ele>
        <time>2013-05-25T16:51:08Z</time>
      </trkpt>
      <trkpt lat="59.8665989" lon="17.8267046">
        <ele>12.6344</ele>
        <time>2013-05-25T16:51:09Z</time>
      </trkpt>
      <trkpt lat="59.8666554" lon="17.8266804">
        <ele>12.1538</ele>
        <time>2013-05-25T16:51:10Z</time>
      </trkpt>
      <trkpt lat="59.8667161" lon="17.826654">
        <ele>12.1538</ele>
        <time>2013-05-25T16:51:11Z</time>
      </trkpt>
      <trkpt lat="59.8667724" lon="17.8266203">
        <ele>12.1538</ele>
        <time>2013-05-25T16:51:12Z</time>
      </trkpt>
      <trkpt lat="59.8668338" lon="17.8265877">
        <ele>13.1151</ele>
        <time>2013-05-25T16:51:13Z</time>
      </trkpt>
      <trkpt lat="59.8668934" lon="17.8265569">
        <ele>14.0764</ele>
        <time>2013-05-25T16:51:14Z</time>
      </trkpt>
      <trkpt lat="59.8669471" lon="17.8265178">
        <ele>13.5958</ele>
        <time>2013-05-25T16:51:15Z</time>
      </trkpt>
      <trkpt lat="59.8670004" lon="17.8264798">
        <ele>13.5958</ele>
        <time>2013-05-25T16:51:16Z</time>
      </trkpt>
      <trkpt lat="59.8670533" lon="17.8264427">
        <ele>13.1151</ele>
        <time>2013-05-25T16:51:17Z</time>
      </trkpt>
      <trkpt lat="59.8671059" lon="17.8264074">
        <ele>13.1151</ele>
        <time>2013-05-25T16:51:18Z</time>
      </trkpt>
      <trkpt lat="59.8671582" lon="17.8263712">
        <ele>13.1151</ele>
        <time>2013-05-25T16:51:19Z</time>
      </trkpt>
      <trkpt lat="59.8672096" lon="17.8263343">
        <ele>13.1151</ele>
        <time>2013-05-25T16:51:20Z</time>
      </trkpt>
      <trkpt lat="59.8672614" lon="17.8262975">
        <ele>13.1151</ele>
        <time>2013-05-25T16:51:21Z</time>
      </trkpt>
      <trkpt lat="59.8673127" lon="17.8262612">
        <ele>13.1151</ele>
        <time>2013-05-25T16:51:22Z</time>
      </trkpt>
      <trkpt lat="59.867363" lon="17.8262234">
        <ele>13.1151</ele>
        <time>2013-05-25T16:51:23Z</time>
      </trkpt>
      <trkpt lat="59.8674133" lon="17.8261848">
        <ele>13.1151</ele>
        <time>2013-05-25T16:51:24Z</time>
      </trkpt>
      <trkpt lat="59.867463" lon="17.8261475">
        <ele>13.5958</ele>
        <time>2013-05-25T16:51:25Z</time>
      </trkpt>
      <trkpt lat="59.8675107" lon="17.8261096">
        <ele>13.1151</ele>
        <time>2013-05-25T16:51:26Z</time>
      </trkpt>
      <trkpt lat="59.8675573" lon="17.8260701">
        <ele>13.1151</ele>
        <time>2013-05-25T16:51:27Z</time>
      </trkpt>
      <trkpt lat="59.8676047" lon="17.8260322">
        <ele>13.5958</ele>
        <time>2013-05-25T16:51:28Z</time>
      </trkpt>
      <trkpt lat="59.8676551" lon="17.8260019">
        <ele>14.0764</ele>
        <time>2013-05-25T16:51:29Z</time>
      </trkpt>
      <trkpt lat="59.8677002" lon="17.8259686">
        <ele>14.557</ele>
        <time>2013-05-25T16:51:30Z</time>
      </trkpt>
      <trkpt lat="59.8677435" lon="17.8259334">
        <ele>13.5958</ele>
        <time>2013-05-25T16:51:31Z</time>
      </trkpt>
      <trkpt lat="59.8677891" lon="17.825897">
        <ele>13.1151</ele>
        <time>2013-05-25T16:51:32Z</time>
      </trkpt>
      <trkpt lat="59.8678358" lon="17.8258609">
        <ele>13.1151</ele>
        <time>2013-05-25T16:51:33Z</time>
      </trkpt>
      <trkpt lat="59.867882" lon="17.8258195">
        <ele>12.6344</ele>
        <time>2013-05-25T16:51:34Z</time>
      </trkpt>
      <trkpt lat="59.8679294" lon="17.825779">
        <ele>12.6344</ele>
        <time>2013-05-25T16:51:35Z</time>
      </trkpt>
      <trkpt lat="59.8679764" lon="17.8257428">
        <ele>12.6344</ele>
        <time>2013-05-25T16:51:36Z</time>
      </trkpt>
      <trkpt lat="59.8680255" lon="17.8257097">
        <ele>12.6344</ele>
        <time>2013-05-25T16:51:37Z</time>
      </trkpt>
      <trkpt lat="59.8680736" lon="17.8256772">
        <ele>11.6732</ele>
        <time>2013-05-25T16:51:38Z</time>
      </trkpt>
      <trkpt lat="59.8681235" lon="17.8256475">
        <ele>11.1925</ele>
        <time>2013-05-25T16:51:39Z</time>
      </trkpt>
      <trkpt lat="59.868175" lon="17.8256264">
        <ele>11.1925</ele>
        <time>2013-05-25T16:51:40Z</time>
      </trkpt>
      <trkpt lat="59.8682304" lon="17.8256164">
        <ele>11.6732</ele>
        <time>2013-05-25T16:51:41Z</time>
      </trkpt>
      <trkpt lat="59.8682889" lon="17.8256186">
        <ele>12.6344</ele>
        <time>2013-05-25T16:51:42Z</time>
      </trkpt>
      <trkpt lat="59.8683442" lon="17.8256299">
        <ele>13.1151</ele>
        <time>2013-05-25T16:51:43Z</time>
      </trkpt>
      <trkpt lat="59.8683956" lon="17.8256531">
        <ele>13.5958</ele>
        <time>2013-05-25T16:51:44Z</time>
      </trkpt>
      <trkpt lat="59.8684433" lon="17.8256869">
        <ele>13.1151</ele>
        <time>2013-05-25T16:51:45Z</time>
      </trkpt>
      <trkpt lat="59.8684891" lon="17.8257258">
        <ele>13.5958</ele>
        <time>2013-05-25T16:51:46Z</time>
      </trkpt>
      <trkpt lat="59.8685338" lon="17.8257706">
        <ele>13.5958</ele>
        <time>2013-05-25T16:51:47Z</time>
      </trkpt>
      <trkpt lat="59.8685756" lon="17.8258189">
        <ele>13.5958</ele>
        <time>2013-05-25T16:51:48Z</time>
      </trkpt>
      <trkpt lat="59.868615" lon="17.8258712">
        <ele>13.5958</ele>
        <time>2013-05-25T16:51:49Z</time>
      </trkpt>
      <trkpt lat="59.8686533" lon="17.8259258">
        <ele>14.0764</ele>
        <time>2013-05-25T16:51:50Z</time>
      </trkpt>
      <trkpt lat="59.8686917" lon="17.8259852">
        <ele>14.0764</ele>
        <time>2013-05-25T16:51:51Z</time>
      </trkpt>
      <trkpt lat="59.86873" lon="17.8260506">
        <ele>14.0764</ele>
        <time>2013-05-25T16:51:52Z</time>
      </trkpt>
      <trkpt lat="59.8687687" lon="17.8261203">
        <ele>13.5958</ele>
        <time>2013-05-25T16:51:53Z</time>
      </trkpt>
      <trkpt lat="59.8688086" lon="17.8261926">
        <ele>13.5958</ele>
        <time>2013-05-25T16:51:54Z</time>
      </trkpt>
      <trkpt lat="59.8688492" lon="17.8262679">
        <ele>13.5958</ele>
        <time>2013-05-25T16:51:55Z</time>
      </trkpt>
      <trkpt lat="59.8688909" lon="17.8263454">
        <ele>13.5958</ele>
        <time>2013-05-25T16:51:56Z</time>
      </trkpt>
      <trkpt lat="59.868933" lon="17.826424">
        <ele>13.5958</ele>
        <time>2013-05-25T16:51:57Z</time>
      </trkpt>
      <trkpt lat="59.8689759" lon="17.8265062">
        <ele>13.5958</ele>
        <time>2013-05-25T16:51:58Z</time>
      </trkpt>
      <trkpt lat="59.8690171" lon="17.8265858">
        <ele>14.0764</ele>
        <time>2013-05-25T16:51:59Z</time>
      </trkpt>
      <trkpt lat="59.8690577" lon="17.8266627">
        <ele>14.0764</ele>
        <time>2013-05-25T16:52:00Z</time>
      </trkpt>
      <trkpt lat="59.8690991" lon="17.8267355">
        <ele>14.0764</ele>
        <time>2013-05-25T16:52:01Z</time>
      </trkpt>
      <trkpt lat="59.8691412" lon="17.8268057">
        <ele>14.0764</ele>
        <time>2013-05-25T16:52:02Z</time>
      </trkpt>
      <trkpt lat="59.8691832" lon="17.8268748">
        <ele>14.557</ele>
        <time>2013-05-25T16:52:03Z</time>
      </trkpt>
      <trkpt lat="59.8692267" lon="17.8269426">
        <ele>14.557</ele>
        <time>2013-05-25T16:52:04Z</time>
      </trkpt>
      <trkpt lat="59.8692713" lon="17.8270104">
        <ele>15.0377</ele>
        <time>2013-05-25T16:52:05Z</time>
      </trkpt>
      <trkpt lat="59.8693142" lon="17.8270788">
        <ele>15.0377</ele>
        <time>2013-05-25T16:52:06Z</time>
      </trkpt>
      <trkpt lat="59.869356" lon="17.8271488">
        <ele>15.0377</ele>
        <time>2013-05-25T16:52:07Z</time>
      </trkpt>
      <trkpt lat="59.8693982" lon="17.8272215">
        <ele>15.5184</ele>
        <time>2013-05-25T16:52:08Z</time>
      </trkpt>
      <trkpt lat="59.8694394" lon="17.8272958">
        <ele>15.999</ele>
        <time>2013-05-25T16:52:09Z</time>
      </trkpt>
      <trkpt lat="59.8694795" lon="17.8273679">
        <ele>15.999</ele>
        <time>2013-05-25T16:52:10Z</time>
      </trkpt>
      <trkpt lat="59.8695205" lon="17.8274414">
        <ele>16.4797</ele>
        <time>2013-05-25T16:52:11Z</time>
      </trkpt>
      <trkpt lat="59.8695623" lon="17.8275139">
        <ele>16.9604</ele>
        <time>2013-05-25T16:52:12Z</time>
      </trkpt>
      <trkpt lat="59.8696048" lon="17.8275875">
        <ele>16.9604</ele>
        <time>2013-05-25T16:52:13Z</time>
      </trkpt>
      <trkpt lat="59.8696484" lon="17.827667">
        <ele>16.9604</ele>
        <time>2013-05-25T16:52:14Z</time>
      </trkpt>
      <trkpt lat="59.8696946" lon="17.8277421">
        <ele>16.9604</ele>
        <time>2013-05-25T16:52:15Z</time>
      </trkpt>
      <trkpt lat="59.8697442" lon="17.8278162">
        <ele>16.9604</ele>
        <time>2013-05-25T16:52:16Z</time>
      </trkpt>
      <trkpt lat="59.8697961" lon="17.827892">
        <ele>16.9604</ele>
        <time>2013-05-25T16:52:17Z</time>
      </trkpt>
      <trkpt lat="59.8698504" lon="17.8279682">
        <ele>16.9604</ele>
        <time>2013-05-25T16:52:18Z</time>
      </trkpt>
      <trkpt lat="59.8699072" lon="17.8280414">
        <ele>17.4412</ele>
        <time>2013-05-25T16:52:19Z</time>
      </trkpt>
      <trkpt lat="59.8699657" lon="17.8281101">
        <ele>17.4412</ele>
        <time>2013-05-25T16:52:20Z</time>
      </trkpt>
      <trkpt lat="59.8700245" lon="17.828177">
        <ele>17.4412</ele>
        <time>2013-05-25T16:52:21Z</time>
      </trkpt>
      <trkpt lat="59.8700828" lon="17.8282407">
        <ele>17.4412</ele>
        <time>2013-05-25T16:52:22Z</time>
      </trkpt>
      <trkpt lat="59.8701409" lon="17.8283023">
        <ele>17.4412</ele>
        <time>2013-05-25T16:52:23Z</time>
      </trkpt>
      <trkpt lat="59.870199" lon="17.8283617">
        <ele>16.9604</ele>
        <time>2013-05-25T16:52:24Z</time>
      </trkpt>
      <trkpt lat="59.8702587" lon="17.8284209">
        <ele>16.9604</ele>
        <time>2013-05-25T16:52:25Z</time>
      </trkpt>
      <trkpt lat="59.8703192" lon="17.828482">
        <ele>16.9604</ele>
        <time>2013-05-25T16:52:26Z</time>
      </trkpt>
      <trkpt lat="59.870381" lon="17.8285422">
        <ele>17.4412</ele>
        <time>2013-05-25T16:52:27Z</time>
      </trkpt>
      <trkpt lat="59.8704433" lon="17.8286001">
        <ele>17.4412</ele>
        <time>2013-05-25T16:52:28Z</time>
      </trkpt>
      <trkpt lat="59.8705052" lon="17.8286578">
        <ele>17.4412</ele>
        <time>2013-05-25T16:52:29Z</time>
      </trkpt>
      <trkpt lat="59.8705673" lon="17.8287155">
        <ele>17.4412</ele>
        <time>2013-05-25T16:52:30Z</time>
      </trkpt>
      <trkpt lat="59.8706291" lon="17.828773">
        <ele>17.4412</ele>
        <time>2013-05-25T16:52:31Z</time>
      </trkpt>
      <trkpt lat="59.8706897" lon="17.8288333">
        <ele>17.9218</ele>
        <time>2013-05-25T16:52:32Z</time>
      </trkpt>
      <trkpt lat="59.8707492" lon="17.8288934">
        <ele>17.9218</ele>
        <time>2013-05-25T16:52:33Z</time>
      </trkpt>
      <trkpt lat="59.8708081" lon="17.828951">
        <ele>17.9218</ele>
        <time>2013-05-25T16:52:34Z</time>
      </trkpt>
      <trkpt lat="59.8708666" lon="17.8290053">
        <ele>18.4023</ele>
        <time>2013-05-25T16:52:35Z</time>
      </trkpt>
      <trkpt lat="59.8709235" lon="17.8290587">
        <ele>17.9218</ele>
        <time>2013-05-25T16:52:36Z</time>
      </trkpt>
      <trkpt lat="59.8709797" lon="17.8291149">
        <ele>17.4412</ele>
        <time>2013-05-25T16:52:37Z</time>
      </trkpt>
      <trkpt lat="59.8710351" lon="17.8291708">
        <ele>16.9604</ele>
        <time>2013-05-25T16:52:38Z</time>
      </trkpt>
      <trkpt lat="59.8710909" lon="17.8292228">
        <ele>17.4412</ele>
        <time>2013-05-25T16:52:39Z</time>
      </trkpt>
      <trkpt lat="59.8711463" lon="17.8292731">
        <ele>17.4412</ele>
        <time>2013-05-25T16:52:40Z</time>
      </trkpt>
      <trkpt lat="59.8712014" lon="17.8293239">
        <ele>17.4412</ele>
        <time>2013-05-25T16:52:41Z</time>
      </trkpt>
      <trkpt lat="59.8712561" lon="17.829376">
        <ele>17.9218</ele>
        <time>2013-05-25T16:52:42Z</time>
      </trkpt>
      <trkpt lat="59.8713097" lon="17.829428">
        <ele>17.9218</ele>
        <time>2013-05-25T16:52:43Z</time>
      </trkpt>
      <trkpt lat="59.871364" lon="17.8294777">
        <ele>17.9218</ele>
        <time>2013-05-25T16:52:44Z</time>
      </trkpt>
      <trkpt lat="59.8714183" lon="17.8295253">
        <ele>18.4023</ele>
        <time>2013-05-25T16:52:45Z</time>
      </trkpt>
      <trkpt lat="59.8714721" lon="17.8295734">
        <ele>18.4023</ele>
        <time>2013-05-25T16:52:46Z</time>
      </trkpt>
      <trkpt lat="59.8715258" lon="17.8296227">
        <ele>18.4023</ele>
        <time>2013-05-25T16:52:47Z</time>
      </trkpt>
      <trkpt lat="59.8715795" lon="17.8296735">
        <ele>18.8831</ele>
        <time>2013-05-25T16:52:48Z</time>
      </trkpt>
      <trkpt lat="59.8716324" lon="17.8297221">
        <ele>18.8831</ele>
        <time>2013-05-25T16:52:49Z</time>
      </trkpt>
      <trkpt lat="59.8716847" lon="17.8297688">
        <ele>19.3638</ele>
        <time>2013-05-25T16:52:50Z</time>
      </trkpt>
      <trkpt lat="59.871736" lon="17.8298152">
        <ele>19.3638</ele>
        <time>2013-05-25T16:52:51Z</time>
      </trkpt>
      <trkpt lat="59.8717867" lon="17.8298615">
        <ele>19.8444</ele>
        <time>2013-05-25T16:52:52Z</time>
      </trkpt>
      <trkpt lat="59.8718354" lon="17.8299069">
        <ele>20.325</ele>
        <time>2013-05-25T16:52:53Z</time>
      </trkpt>
      <trkpt lat="59.8718816" lon="17.8299504">
        <ele>20.325</ele>
        <time>2013-05-25T16:52:54Z</time>
      </trkpt>
      <trkpt lat="59.8719269" lon="17.8299936">
        <ele>20.8057</ele>
        <time>2013-05-25T16:52:55Z</time>
      </trkpt>
      <trkpt lat="59.8719717" lon="17.8300366">
        <ele>21.2864</ele>
        <time>2013-05-25T16:52:56Z</time>
      </trkpt>
      <trkpt lat="59.8720151" lon="17.8300818">
        <ele>21.767</ele>
        <time>2013-05-25T16:52:57Z</time>
      </trkpt>
      <trkpt lat="59.8720566" lon="17.8301273">
        <ele>22.2476</ele>
        <time>2013-05-25T16:52:58Z</time>
      </trkpt>
      <trkpt lat="59.8720992" lon="17.8301673">
        <ele>22.7283</ele>
        <time>2013-05-25T16:52:59Z</time>
      </trkpt>
      <trkpt lat="59.8721424" lon="17.8302032">
        <ele>23.209</ele>
        <time>2013-05-25T16:53:00Z</time>
      </trkpt>
      <trkpt lat="59.8721852" lon="17.8302391">
        <ele>23.209</ele>
        <time>2013-05-25T16:53:01Z</time>
      </trkpt>
      <trkpt lat="59.8722265" lon="17.830277">
        <ele>24.1703</ele>
        <time>2013-05-25T16:53:02Z</time>
      </trkpt>
      <trkpt lat="59.8722675" lon="17.8303178">
        <ele>24.1703</ele>
        <time>2013-05-25T16:53:03Z</time>
      </trkpt>
      <trkpt lat="59.8723084" lon="17.8303583">
        <ele>25.1317</ele>
        <time>2013-05-25T16:53:04Z</time>
      </trkpt>
      <trkpt lat="59.8723477" lon="17.8303981">
        <ele>25.1317</ele>
        <time>2013-05-25T16:53:05Z</time>
      </trkpt>
      <trkpt lat="59.872387" lon="17.8304319">
        <ele>25.1317</ele>
        <time>2013-05-25T16:53:06Z</time>
      </trkpt>
      <trkpt lat="59.8724259" lon="17.8304627">
        <ele>25.6123</ele>
        <time>2013-05-25T16:53:07Z</time>
      </trkpt>
      <trkpt lat="59.8724641" lon="17.8304928">
        <ele>26.0929</ele>
        <time>2013-05-25T16:53:08Z</time>
      </trkpt>
      <trkpt lat="59.8724996" lon="17.8305209">
        <ele>26.0929</ele>
        <time>2013-05-25T16:53:09Z</time>
      </trkpt>
      <trkpt lat="59.8725357" lon="17.8305484">
        <ele>26.0929</ele>
        <time>2013-05-25T16:53:10Z</time>
      </trkpt>
      <trkpt lat="59.8725711" lon="17.8305743">
        <ele>26.0929</ele>
        <time>2013-05-25T16:53:11Z</time>
      </trkpt>
      <trkpt lat="59.8726032" lon="17.8306001">
        <ele>25.6123</ele>
        <time>2013-05-25T16:53:12Z</time>
      </trkpt>
      <trkpt lat="59.8726353" lon="17.8306199">
        <ele>25.6123</ele>
        <time>2013-05-25T16:53:13Z</time>
      </trkpt>
      <trkpt lat="59.8726674" lon="17.8306386">
        <ele>25.6123</ele>
        <time>2013-05-25T16:53:14Z</time>
      </trkpt>
      <trkpt lat="59.8726988" lon="17.8306585">
        <ele>26.0929</ele>
        <time>2013-05-25T16:53:15Z</time>
      </trkpt>
      <trkpt lat="59.872728" lon="17.8306743">
        <ele>26.0929</ele>
        <time>2013-05-25T16:53:16Z</time>
      </trkpt>
      <trkpt lat="59.8727569" lon="17.8306872">
        <ele>26.0929</ele>
        <time>2013-05-25T16:53:17Z</time>
      </trkpt>
      <trkpt lat="59.8727838" lon="17.8306972">
        <ele>26.0929</ele>
        <time>2013-05-25T16:53:18Z</time>
      </trkpt>
      <trkpt lat="59.8728119" lon="17.8307063">
        <ele>26.0929</ele>
        <time>2013-05-25T16:53:19Z</time>
      </trkpt>
      <trkpt lat="59.872843" lon="17.830714">
        <ele>26.5736</ele>
        <time>2013-05-25T16:53:20Z</time>
      </trkpt>
      <trkpt lat="59.872876" lon="17.8307246">
        <ele>26.5736</ele>
        <time>2013-05-25T16:53:21Z</time>
      </trkpt>
      <trkpt lat="59.8729113" lon="17.8307423">
        <ele>26.5736</ele>
        <time>2013-05-25T16:53:22Z</time>
      </trkpt>
      <trkpt lat="59.8729476" lon="17.8307603">
        <ele>26.5736</ele>
        <time>2013-05-25T16:53:23Z</time>
      </trkpt>
      <trkpt lat="59.8729849" lon="17.8307805">
        <ele>26.5736</ele>
        <time>2013-05-25T16:53:24Z</time>
      </trkpt>
      <trkpt lat="59.8730235" lon="17.8308043">
        <ele>27.0543</ele>
        <time>2013-05-25T16:53:25Z</time>
      </trkpt>
      <trkpt lat="59.8730624" lon="17.8308269">
        <ele>27.0543</ele>
        <time>2013-05-25T16:53:26Z</time>
      </trkpt>
      <trkpt lat="59.8730989" lon="17.8308447">
        <ele>26.0929</ele>
        <time>2013-05-25T16:53:27Z</time>
      </trkpt>
      <trkpt lat="59.8731337" lon="17.8308618">
        <ele>25.1317</ele>
        <time>2013-05-25T16:53:28Z</time>
      </trkpt>
      <trkpt lat="59.8731672" lon="17.8308852">
        <ele>25.6123</ele>
        <time>2013-05-25T16:53:29Z</time>
      </trkpt>
      <trkpt lat="59.8731983" lon="17.8309137">
        <ele>25.6123</ele>
        <time>2013-05-25T16:53:30Z</time>
      </trkpt>
      <trkpt lat="59.8732258" lon="17.8309374">
        <ele>24.651</ele>
        <time>2013-05-25T16:53:31Z</time>
      </trkpt>
      <trkpt lat="59.8732575" lon="17.8309633">
        <ele>24.651</ele>
        <time>2013-05-25T16:53:32Z</time>
      </trkpt>
      <trkpt lat="59.8732889" lon="17.8309899">
        <ele>24.651</ele>
        <time>2013-05-25T16:53:33Z</time>
      </trkpt>
      <trkpt lat="59.8733201" lon="17.8310162">
        <ele>24.651</ele>
        <time>2013-05-25T16:53:34Z</time>
      </trkpt>
      <trkpt lat="59.8733512" lon="17.831038">
        <ele>24.651</ele>
        <time>2013-05-25T16:53:35Z</time>
      </trkpt>
      <trkpt lat="59.8733782" lon="17.831055">
        <ele>23.209</ele>
        <time>2013-05-25T16:53:36Z</time>
      </trkpt>
      <trkpt lat="59.8734055" lon="17.8310747">
        <ele>22.2476</ele>
        <time>2013-05-25T16:53:37Z</time>
      </trkpt>
      <trkpt lat="59.8734325" lon="17.831098">
        <ele>21.2864</ele>
        <time>2013-05-25T16:53:38Z</time>
      </trkpt>
      <trkpt lat="59.8734594" lon="17.831125">
        <ele>19.8444</ele>
        <time>2013-05-25T16:53:39Z</time>
      </trkpt>
      <trkpt lat="59.8734874" lon="17.8311519">
        <ele>19.3638</ele>
        <time>2013-05-25T16:53:40Z</time>
      </trkpt>
      <trkpt lat="59.873519" lon="17.8311788">
        <ele>19.3638</ele>
        <time>2013-05-25T16:53:41Z</time>
      </trkpt>
      <trkpt lat="59.8735506" lon="17.8312066">
        <ele>19.3638</ele>
        <time>2013-05-25T16:53:42Z</time>
      </trkpt>
      <trkpt lat="59.8735809" lon="17.8312358">
        <ele>19.8444</ele>
        <time>2013-05-25T16:53:43Z</time>
      </trkpt>
      <trkpt lat="59.873607" lon="17.8312663">
        <ele>19.3638</ele>
        <time>2013-05-25T16:53:44Z</time>
      </trkpt>
      <trkpt lat="59.8736351" lon="17.8312962">
        <ele>18.8831</ele>
        <time>2013-05-25T16:53:45Z</time>
      </trkpt>
      <trkpt lat="59.8736636" lon="17.8313284">
        <ele>18.8831</ele>
        <time>2013-05-25T16:53:46Z</time>
      </trkpt>
      <trkpt lat="59.8736915" lon="17.8313653">
        <ele>18.8831</ele>
        <time>2013-05-25T16:53:47Z</time>
      </trkpt>
      <trkpt lat="59.8737146" lon="17.8314047">
        <ele>18.4023</ele>
        <time>2013-05-25T16:53:48Z</time>
      </trkpt>
      <trkpt lat="59.8737443" lon="17.831443">
        <ele>18.8831</ele>
        <time>2013-05-25T16:53:49Z</time>
      </trkpt>
      <trkpt lat="59.8737738" lon="17.8314771">
        <ele>19.3638</ele>
        <time>2013-05-25T16:53:50Z</time>
      </trkpt>
      <trkpt lat="59.8738039" lon="17.8315104">
        <ele>19.8444</ele>
        <time>2013-05-25T16:53:51Z</time>
      </trkpt>
      <trkpt lat="59.8738344" lon="17.8315455">
        <ele>20.325</ele>
        <time>2013-05-25T16:53:52Z</time>
      </trkpt>
      <trkpt lat="59.8738644" lon="17.8315851">
        <ele>20.8057</ele>
        <time>2013-05-25T16:53:53Z</time>
      </trkpt>
      <trkpt lat="59.8738941" lon="17.8316265">
        <ele>21.2864</ele>
        <time>2013-05-25T16:53:54Z</time>
      </trkpt>
      <trkpt lat="59.8739221" lon="17.8316699">
        <ele>21.767</ele>
        <time>2013-05-25T16:53:55Z</time>
      </trkpt>
      <trkpt lat="59.8739526" lon="17.831714">
        <ele>22.2476</ele>
        <time>2013-05-25T16:53:56Z</time>
      </trkpt>
      <trkpt lat="59.8739851" lon="17.8317537">
        <ele>22.7283</ele>
        <time>2013-05-25T16:53:57Z</time>
      </trkpt>
      <trkpt lat="59.8740173" lon="17.8317922">
        <ele>23.209</ele>
        <time>2013-05-25T16:53:58Z</time>
      </trkpt>
      <trkpt lat="59.8740506" lon="17.8318329">
        <ele>23.209</ele>
        <time>2013-05-25T16:53:59Z</time>
      </trkpt>
      <trkpt lat="59.8740856" lon="17.831877">
        <ele>23.6896</ele>
        <time>2013-05-25T16:54:00Z</time>
      </trkpt>
      <trkpt lat="59.8741213" lon="17.8319244">
        <ele>24.1703</ele>
        <time>2013-05-25T16:54:01Z</time>
      </trkpt>
      <trkpt lat="59.8741566" lon="17.8319731">
        <ele>24.651</ele>
        <time>2013-05-25T16:54:02Z</time>
      </trkpt>
      <trkpt lat="59.8741945" lon="17.8320196">
        <ele>24.651</ele>
        <time>2013-05-25T16:54:03Z</time>
      </trkpt>
      <trkpt lat="59.8742328" lon="17.832064">
        <ele>25.1317</ele>
        <time>2013-05-25T16:54:04Z</time>
      </trkpt>
      <trkpt lat="59.8742762" lon="17.8321026">
        <ele>25.1317</ele>
        <time>2013-05-25T16:54:05Z</time>
      </trkpt>
      <trkpt lat="59.8743229" lon="17.832138">
        <ele>25.6123</ele>
        <time>2013-05-25T16:54:06Z</time>
      </trkpt>
      <trkpt lat="59.8743668" lon="17.8321799">
        <ele>26.0929</ele>
        <time>2013-05-25T16:54:07Z</time>
      </trkpt>
      <trkpt lat="59.8744128" lon="17.8322237">
        <ele>26.0929</ele>
        <time>2013-05-25T16:54:08Z</time>
      </trkpt>
      <trkpt lat="59.8744652" lon="17.8322598">
        <ele>26.0929</ele>
        <time>2013-05-25T16:54:09Z</time>
      </trkpt>
      <trkpt lat="59.8745193" lon="17.8322915">
        <ele>26.5736</ele>
        <time>2013-05-25T16:54:10Z</time>
      </trkpt>
      <trkpt lat="59.8745722" lon="17.8323221">
        <ele>26.0929</ele>
        <time>2013-05-25T16:54:11Z</time>
      </trkpt>
      <trkpt lat="59.8746358" lon="17.8323417">
        <ele>26.5736</ele>
        <time>2013-05-25T16:54:12Z</time>
      </trkpt>
      <trkpt lat="59.8747021" lon="17.8323593">
        <ele>26.5736</ele>
        <time>2013-05-25T16:54:13Z</time>
      </trkpt>
      <trkpt lat="59.8747658" lon="17.8323802">
        <ele>26.5736</ele>
        <time>2013-05-25T16:54:14Z</time>
      </trkpt>
      <trkpt lat="59.8748311" lon="17.832405">
        <ele>27.0543</ele>
        <time>2013-05-25T16:54:15Z</time>
      </trkpt>
      <trkpt lat="59.8748951" lon="17.8324305">
        <ele>28.0155</ele>
        <time>2013-05-25T16:54:16Z</time>
      </trkpt>
      <trkpt lat="59.8749621" lon="17.8324498">
        <ele>28.4962</ele>
        <time>2013-05-25T16:54:17Z</time>
      </trkpt>
      <trkpt lat="59.875028" lon="17.8324678">
        <ele>28.9769</ele>
        <time>2013-05-25T16:54:18Z</time>
      </trkpt>
      <trkpt lat="59.8750909" lon="17.8324847">
        <ele>29.9381</ele>
        <time>2013-05-25T16:54:19Z</time>
      </trkpt>
      <trkpt lat="59.8751536" lon="17.8325044">
        <ele>30.4188</ele>
        <time>2013-05-25T16:54:20Z</time>
      </trkpt>
      <trkpt lat="59.8752152" lon="17.8325246">
        <ele>30.8995</ele>
        <time>2013-05-25T16:54:21Z</time>
      </trkpt>
      <trkpt lat="59.8752765" lon="17.8325477">
        <ele>31.3801</ele>
        <time>2013-05-25T16:54:22Z</time>
      </trkpt>
      <trkpt lat="59.8753377" lon="17.8325738">
        <ele>31.8607</ele>
        <time>2013-05-25T16:54:23Z</time>
      </trkpt>
      <trkpt lat="59.8753971" lon="17.8326018">
        <ele>32.3416</ele>
        <time>2013-05-25T16:54:24Z</time>
      </trkpt>
      <trkpt lat="59.8754537" lon="17.8326358">
        <ele>32.8223</ele>
        <time>2013-05-25T16:54:25Z</time>
      </trkpt>
      <trkpt lat="59.8755081" lon="17.8326774">
        <ele>33.3029</ele>
        <time>2013-05-25T16:54:26Z</time>
      </trkpt>
      <trkpt lat="59.8755609" lon="17.8327221">
        <ele>33.3029</ele>
        <time>2013-05-25T16:54:27Z</time>
      </trkpt>
      <trkpt lat="59.8756127" lon="17.8327747">
        <ele>34.2642</ele>
        <time>2013-05-25T16:54:28Z</time>
      </trkpt>
      <trkpt lat="59.8756638" lon="17.8328266">
        <ele>34.2642</ele>
        <time>2013-05-25T16:54:29Z</time>
      </trkpt>
      <trkpt lat="59.8757133" lon="17.8328834">
        <ele>34.2642</ele>
        <time>2013-05-25T16:54:30Z</time>
      </trkpt>
      <trkpt lat="59.8757643" lon="17.8329399">
        <ele>34.2642</ele>
        <time>2013-05-25T16:54:31Z</time>
      </trkpt>
      <trkpt lat="59.8758157" lon="17.8329966">
        <ele>34.2642</ele>
        <time>2013-05-25T16:54:32Z</time>
      </trkpt>
      <trkpt lat="59.8758681" lon="17.8330498">
        <ele>34.2642</ele>
        <time>2013-05-25T16:54:33Z</time>
      </trkpt>
      <trkpt lat="59.8759262" lon="17.8331018">
        <ele>34.2642</ele>
        <time>2013-05-25T16:54:34Z</time>
      </trkpt>
      <trkpt lat="59.8759843" lon="17.833155">
        <ele>34.2642</ele>
        <time>2013-05-25T16:54:35Z</time>
      </trkpt>
      <trkpt lat="59.8760441" lon="17.8332053">
        <ele>34.2642</ele>
        <time>2013-05-25T16:54:36Z</time>
      </trkpt>
      <trkpt lat="59.8761023" lon="17.8332487">
        <ele>33.7834</ele>
        <time>2013-05-25T16:54:37Z</time>
      </trkpt>
      <trkpt lat="59.8761593" lon="17.8332897">
        <ele>33.7834</ele>
        <time>2013-05-25T16:54:38Z</time>
      </trkpt>
      <trkpt lat="59.8762191" lon="17.8333353">
        <ele>34.2642</ele>
        <time>2013-05-25T16:54:39Z</time>
      </trkpt>
      <trkpt lat="59.876279" lon="17.8333752">
        <ele>34.7449</ele>
        <time>2013-05-25T16:54:40Z</time>
      </trkpt>
      <trkpt lat="59.8763332" lon="17.8334078">
        <ele>35.2255</ele>
        <time>2013-05-25T16:54:41Z</time>
      </trkpt>
      <trkpt lat="59.8763849" lon="17.8334357">
        <ele>35.2255</ele>
        <time>2013-05-25T16:54:42Z</time>
      </trkpt>
      <trkpt lat="59.8764342" lon="17.8334667">
        <ele>35.7061</ele>
        <time>2013-05-25T16:54:43Z</time>
      </trkpt>
      <trkpt lat="59.876483" lon="17.8335005">
        <ele>36.1868</ele>
        <time>2013-05-25T16:54:44Z</time>
      </trkpt>
      <trkpt lat="59.8765306" lon="17.8335377">
        <ele>36.6675</ele>
        <time>2013-05-25T16:54:45Z</time>
      </trkpt>
      <trkpt lat="59.8765776" lon="17.8335659">
        <ele>36.6675</ele>
        <time>2013-05-25T16:54:46Z</time>
      </trkpt>
      <trkpt lat="59.876626" lon="17.8335865">
        <ele>36.1868</ele>
        <time>2013-05-25T16:54:47Z</time>
      </trkpt>
      <trkpt lat="59.8766737" lon="17.8336046">
        <ele>35.7061</ele>
        <time>2013-05-25T16:54:48Z</time>
      </trkpt>
      <trkpt lat="59.8767259" lon="17.8336275">
        <ele>35.2255</ele>
        <time>2013-05-25T16:54:49Z</time>
      </trkpt>
      <trkpt lat="59.8767831" lon="17.8336614">
        <ele>34.2642</ele>
        <time>2013-05-25T16:54:50Z</time>
      </trkpt>
      <trkpt lat="59.8768478" lon="17.8337046">
        <ele>33.7834</ele>
        <time>2013-05-25T16:54:51Z</time>
      </trkpt>
      <trkpt lat="59.8769145" lon="17.8337531">
        <ele>33.3029</ele>
        <time>2013-05-25T16:54:52Z</time>
      </trkpt>
      <trkpt lat="59.8769798" lon="17.8338124">
        <ele>33.3029</ele>
        <time>2013-05-25T16:54:53Z</time>
      </trkpt>
      <trkpt lat="59.8770426" lon="17.8338771">
        <ele>33.3029</ele>
        <time>2013-05-25T16:54:54Z</time>
      </trkpt>
      <trkpt lat="59.8771052" lon="17.8339445">
        <ele>33.3029</ele>
        <time>2013-05-25T16:54:55Z</time>
      </trkpt>
      <trkpt lat="59.877169" lon="17.8340159">
        <ele>33.3029</ele>
        <time>2013-05-25T16:54:56Z</time>
      </trkpt>
      <trkpt lat="59.877235" lon="17.8340916">
        <ele>33.7834</ele>
        <time>2013-05-25T16:54:57Z</time>
      </trkpt>
      <trkpt lat="59.8772978" lon="17.8341753">
        <ele>34.2642</ele>
        <time>2013-05-25T16:54:58Z</time>
      </trkpt>
      <trkpt lat="59.8773569" lon="17.8342601">
        <ele>34.2642</ele>
        <time>2013-05-25T16:54:59Z</time>
      </trkpt>
      <trkpt lat="59.8774154" lon="17.8343403">
        <ele>34.2642</ele>
        <time>2013-05-25T16:55:00Z</time>
      </trkpt>
      <trkpt lat="59.8774754" lon="17.8344172">
        <ele>34.2642</ele>
        <time>2013-05-25T16:55:01Z</time>
      </trkpt>
      <trkpt lat="59.8775349" lon="17.8344918">
        <ele>34.2642</ele>
        <time>2013-05-25T16:55:02Z</time>
      </trkpt>
      <trkpt lat="59.8775924" lon="17.8345671">
        <ele>34.2642</ele>
        <time>2013-05-25T16:55:03Z</time>
      </trkpt>
      <trkpt lat="59.8776476" lon="17.8346454">
        <ele>34.2642</ele>
        <time>2013-05-25T16:55:04Z</time>
      </trkpt>
      <trkpt lat="59.8777007" lon="17.8347137">
        <ele>34.2642</ele>
        <time>2013-05-25T16:55:05Z</time>
      </trkpt>
      <trkpt lat="59.8777558" lon="17.8347807">
        <ele>34.2642</ele>
        <time>2013-05-25T16:55:06Z</time>
      </trkpt>
      <trkpt lat="59.8778105" lon="17.8348412">
        <ele>33.7834</ele>
        <time>2013-05-25T16:55:07Z</time>
      </trkpt>
      <trkpt lat="59.8778656" lon="17.8349044">
        <ele>33.7834</ele>
        <time>2013-05-25T16:55:08Z</time>
      </trkpt>
      <trkpt lat="59.8779242" lon="17.8349669">
        <ele>33.7834</ele>
        <time>2013-05-25T16:55:09Z</time>
      </trkpt>
      <trkpt lat="59.8779817" lon="17.8350265">
        <ele>33.3029</ele>
        <time>2013-05-25T16:55:10Z</time>
      </trkpt>
      <trkpt lat="59.878047" lon="17.8350835">
        <ele>33.3029</ele>
        <time>2013-05-25T16:55:11Z</time>
      </trkpt>
      <trkpt lat="59.8781132" lon="17.8351404">
        <ele>33.3029</ele>
        <time>2013-05-25T16:55:12Z</time>
      </trkpt>
      <trkpt lat="59.8781777" lon="17.8352059">
        <ele>33.7834</ele>
        <time>2013-05-25T16:55:13Z</time>
      </trkpt>
      <trkpt lat="59.8782428" lon="17.835267">
        <ele>33.3029</ele>
        <time>2013-05-25T16:55:14Z</time>
      </trkpt>
      <trkpt lat="59.878311" lon="17.8353274">
        <ele>33.7834</ele>
        <time>2013-05-25T16:55:15Z</time>
      </trkpt>
      <trkpt lat="59.8783784" lon="17.8353823">
        <ele>33.7834</ele>
        <time>2013-05-25T16:55:16Z</time>
      </trkpt>
      <trkpt lat="59.8784499" lon="17.8354302">
        <ele>34.2642</ele>
        <time>2013-05-25T16:55:17Z</time>
      </trkpt>
      <trkpt lat="59.8785188" lon="17.8354762">
        <ele>33.7834</ele>
        <time>2013-05-25T16:55:18Z</time>
      </trkpt>
      <trkpt lat="59.8785842" lon="17.8355265">
        <ele>33.3029</ele>
        <time>2013-05-25T16:55:19Z</time>
      </trkpt>
      <trkpt lat="59.8786425" lon="17.8355747">
        <ele>32.3416</ele>
        <time>2013-05-25T16:55:20Z</time>
      </trkpt>
      <trkpt lat="59.8786995" lon="17.835614">
        <ele>30.8995</ele>
        <time>2013-05-25T16:55:21Z</time>
      </trkpt>
      <trkpt lat="59.878755" lon="17.8356594">
        <ele>29.9381</ele>
        <time>2013-05-25T16:55:22Z</time>
      </trkpt>
      <trkpt lat="59.878811" lon="17.8356903">
        <ele>28.4962</ele>
        <time>2013-05-25T16:55:23Z</time>
      </trkpt>
      <trkpt lat="59.8788708" lon="17.8357302">
        <ele>28.0155</ele>
        <time>2013-05-25T16:55:24Z</time>
      </trkpt>
      <trkpt lat="59.878933" lon="17.8357739">
        <ele>28.0155</ele>
        <time>2013-05-25T16:55:25Z</time>
      </trkpt>
      <trkpt lat="59.8789936" lon="17.8358096">
        <ele>28.0155</ele>
        <time>2013-05-25T16:55:26Z</time>
      </trkpt>
      <trkpt lat="59.879057" lon="17.8358321">
        <ele>28.4962</ele>
        <time>2013-05-25T16:55:27Z</time>
      </trkpt>
      <trkpt lat="59.8791212" lon="17.8358366">
        <ele>28.4962</ele>
        <time>2013-05-25T16:55:28Z</time>
      </trkpt>
      <trkpt lat="59.8791926" lon="17.8358383">
        <ele>29.4575</ele>
        <time>2013-05-25T16:55:29Z</time>
      </trkpt>
      <trkpt lat="59.8792621" lon="17.8358522">
        <ele>30.4188</ele>
        <time>2013-05-25T16:55:30Z</time>
      </trkpt>
      <trkpt lat="59.8793331" lon="17.8358657">
        <ele>30.8995</ele>
        <time>2013-05-25T16:55:31Z</time>
      </trkpt>
      <trkpt lat="59.879407" lon="17.8358792">
        <ele>31.3801</ele>
        <time>2013-05-25T16:55:32Z</time>
      </trkpt>
      <trkpt lat="59.8794759" lon="17.8358839">
        <ele>31.8607</ele>
        <time>2013-05-25T16:55:33Z</time>
      </trkpt>
      <trkpt lat="59.8795427" lon="17.8358875">
        <ele>32.3416</ele>
        <time>2013-05-25T16:55:34Z</time>
      </trkpt>
      <trkpt lat="59.8796041" lon="17.8358891">
        <ele>32.8223</ele>
        <time>2013-05-25T16:55:35Z</time>
      </trkpt>
      <trkpt lat="59.8796624" lon="17.8358979">
        <ele>33.7834</ele>
        <time>2013-05-25T16:55:36Z</time>
      </trkpt>
      <trkpt lat="59.8797169" lon="17.8359154">
        <ele>34.7449</ele>
        <time>2013-05-25T16:55:37Z</time>
      </trkpt>
      <trkpt lat="59.8797724" lon="17.8359277">
        <ele>35.2255</ele>
        <time>2013-05-25T16:55:38Z</time>
      </trkpt>
      <trkpt lat="59.8798268" lon="17.8359419">
        <ele>35.2255</ele>
        <time>2013-05-25T16:55:39Z</time>
      </trkpt>
      <trkpt lat="59.8798823" lon="17.8359662">
        <ele>35.7061</ele>
        <time>2013-05-25T16:55:40Z</time>
      </trkpt>
      <trkpt lat="59.8799398" lon="17.8359916">
        <ele>36.1868</ele>
        <time>2013-05-25T16:55:41Z</time>
      </trkpt>
      <trkpt lat="59.8799997" lon="17.8360267">
        <ele>36.6675</ele>
        <time>2013-05-25T16:55:42Z</time>
      </trkpt>
      <trkpt lat="59.8800605" lon="17.8360782">
        <ele>37.1481</ele>
        <time>2013-05-25T16:55:43Z</time>
      </trkpt>
      <trkpt lat="59.8801221" lon="17.8361404">
        <ele>37.6287</ele>
        <time>2013-05-25T16:55:44Z</time>
      </trkpt>
      <trkpt lat="59.8801859" lon="17.8362026">
        <ele>37.6287</ele>
        <time>2013-05-25T16:55:45Z</time>
      </trkpt>
      <trkpt lat="59.8802526" lon="17.8362707">
        <ele>37.6287</ele>
        <time>2013-05-25T16:55:46Z</time>
      </trkpt>
      <trkpt lat="59.8803235" lon="17.8363403">
        <ele>38.5901</ele>
        <time>2013-05-25T16:55:47Z</time>
      </trkpt>
      <trkpt lat="59.8803902" lon="17.8364122">
        <ele>38.5901</ele>
        <time>2013-05-25T16:55:48Z</time>
      </trkpt>
      <trkpt lat="59.880453" lon="17.8364887">
        <ele>38.5901</ele>
        <time>2013-05-25T16:55:49Z</time>
      </trkpt>
      <trkpt lat="59.8805121" lon="17.8365694">
        <ele>38.5901</ele>
        <time>2013-05-25T16:55:50Z</time>
      </trkpt>
      <trkpt lat="59.8805637" lon="17.836648">
        <ele>38.5901</ele>
        <time>2013-05-25T16:55:51Z</time>
      </trkpt>
      <trkpt lat="59.8806183" lon="17.8367319">
        <ele>39.0707</ele>
        <time>2013-05-25T16:55:52Z</time>
      </trkpt>
      <trkpt lat="59.8806717" lon="17.8368147">
        <ele>39.0707</ele>
        <time>2013-05-25T16:55:53Z</time>
      </trkpt>
      <trkpt lat="59.8807198" lon="17.8368919">
        <ele>39.0707</ele>
        <time>2013-05-25T16:55:54Z</time>
      </trkpt>
      <trkpt lat="59.880766" lon="17.8369758">
        <ele>39.0707</ele>
        <time>2013-05-25T16:55:55Z</time>
      </trkpt>
      <trkpt lat="59.8808115" lon="17.8370615">
        <ele>38.5901</ele>
        <time>2013-05-25T16:55:56Z</time>
      </trkpt>
      <trkpt lat="59.8808607" lon="17.8371406">
        <ele>38.1094</ele>
        <time>2013-05-25T16:55:57Z</time>
      </trkpt>
      <trkpt lat="59.8809147" lon="17.8372178">
        <ele>38.5901</ele>
        <time>2013-05-25T16:55:58Z</time>
      </trkpt>
      <trkpt lat="59.8809711" lon="17.8372974">
        <ele>38.5901</ele>
        <time>2013-05-25T16:55:59Z</time>
      </trkpt>
      <trkpt lat="59.8810292" lon="17.8373784">
        <ele>38.1094</ele>
        <time>2013-05-25T16:56:00Z</time>
      </trkpt>
      <trkpt lat="59.8810877" lon="17.8374654">
        <ele>38.1094</ele>
        <time>2013-05-25T16:56:01Z</time>
      </trkpt>
      <trkpt lat="59.8811442" lon="17.8375529">
        <ele>37.6287</ele>
        <time>2013-05-25T16:56:02Z</time>
      </trkpt>
      <trkpt lat="59.8812015" lon="17.83764">
        <ele>37.1481</ele>
        <time>2013-05-25T16:56:03Z</time>
      </trkpt>
      <trkpt lat="59.8812586" lon="17.8377265">
        <ele>36.6675</ele>
        <time>2013-05-25T16:56:04Z</time>
      </trkpt>
      <trkpt lat="59.8813161" lon="17.8378088">
        <ele>36.6675</ele>
        <time>2013-05-25T16:56:05Z</time>
      </trkpt>
      <trkpt lat="59.8813751" lon="17.8378864">
        <ele>36.1868</ele>
        <time>2013-05-25T16:56:06Z</time>
      </trkpt>
      <trkpt lat="59.8814335" lon="17.8379649">
        <ele>35.7061</ele>
        <time>2013-05-25T16:56:07Z</time>
      </trkpt>
      <trkpt lat="59.8814927" lon="17.8380466">
        <ele>35.7061</ele>
        <time>2013-05-25T16:56:08Z</time>
      </trkpt>
      <trkpt lat="59.881546" lon="17.8381339">
        <ele>35.7061</ele>
        <time>2013-05-25T16:56:09Z</time>
      </trkpt>
      <trkpt lat="59.8816004" lon="17.838221">
        <ele>35.7061</ele>
        <time>2013-05-25T16:56:10Z</time>
      </trkpt>
      <trkpt lat="59.8816542" lon="17.8383041">
        <ele>35.2255</ele>
        <time>2013-05-25T16:56:11Z</time>
      </trkpt>
      <trkpt lat="59.8817113" lon="17.8383807">
        <ele>35.2255</ele>
        <time>2013-05-25T16:56:12Z</time>
      </trkpt>
      <trkpt lat="59.8817642" lon="17.8384605">
        <ele>35.2255</ele>
        <time>2013-05-25T16:56:13Z</time>
      </trkpt>
      <trkpt lat="59.8818181" lon="17.8385339">
        <ele>35.7061</ele>
        <time>2013-05-25T16:56:14Z</time>
      </trkpt>
      <trkpt lat="59.8818735" lon="17.8386113">
        <ele>35.7061</ele>
        <time>2013-05-25T16:56:15Z</time>
      </trkpt>
      <trkpt lat="59.8819242" lon="17.8386895">
        <ele>35.7061</ele>
        <time>2013-05-25T16:56:16Z</time>
      </trkpt>
      <trkpt lat="59.8819769" lon="17.8387639">
        <ele>35.7061</ele>
        <time>2013-05-25T16:56:17Z</time>
      </trkpt>
      <trkpt lat="59.8820344" lon="17.8388348">
        <ele>35.7061</ele>
        <time>2013-05-25T16:56:18Z</time>
      </trkpt>
      <trkpt lat="59.8820931" lon="17.8388949">
        <ele>36.1868</ele>
        <time>2013-05-25T16:56:19Z</time>
      </trkpt>
      <trkpt lat="59.8821511" lon="17.8389426">
        <ele>36.6675</ele>
        <time>2013-05-25T16:56:20Z</time>
      </trkpt>
      <trkpt lat="59.8822081" lon="17.838977">
        <ele>36.6675</ele>
        <time>2013-05-25T16:56:21Z</time>
      </trkpt>
      <trkpt lat="59.882263" lon="17.8390071">
        <ele>36.6675</ele>
        <time>2013-05-25T16:56:22Z</time>
      </trkpt>
      <trkpt lat="59.8823157" lon="17.8390241">
        <ele>36.1868</ele>
        <time>2013-05-25T16:56:23Z</time>
      </trkpt>
      <trkpt lat="59.882365" lon="17.8390431">
        <ele>36.1868</ele>
        <time>2013-05-25T16:56:24Z</time>
      </trkpt>
      <trkpt lat="59.882414" lon="17.8390598">
        <ele>36.6675</ele>
        <time>2013-05-25T16:56:25Z</time>
      </trkpt>
      <trkpt lat="59.8824617" lon="17.8390737">
        <ele>38.1094</ele>
        <time>2013-05-25T16:56:26Z</time>
      </trkpt>
      <trkpt lat="59.8825034" lon="17.8390861">
        <ele>39.0707</ele>
        <time>2013-05-25T16:56:27Z</time>
      </trkpt>
      <trkpt lat="59.8825451" lon="17.8391018">
        <ele>40.0321</ele>
        <time>2013-05-25T16:56:28Z</time>
      </trkpt>
      <trkpt lat="59.8825817" lon="17.8391158">
        <ele>40.5128</ele>
        <time>2013-05-25T16:56:29Z</time>
      </trkpt>
      <trkpt lat="59.8826162" lon="17.8391298">
        <ele>40.9934</ele>
        <time>2013-05-25T16:56:30Z</time>
      </trkpt>
      <trkpt lat="59.8826484" lon="17.8391458">
        <ele>40.9934</ele>
        <time>2013-05-25T16:56:31Z</time>
      </trkpt>
      <trkpt lat="59.882681" lon="17.8391644">
        <ele>41.474</ele>
        <time>2013-05-25T16:56:32Z</time>
      </trkpt>
      <trkpt lat="59.882714" lon="17.8391759">
        <ele>40.9934</ele>
        <time>2013-05-25T16:56:33Z</time>
      </trkpt>
      <trkpt lat="59.8827468" lon="17.8391961">
        <ele>40.9934</ele>
        <time>2013-05-25T16:56:34Z</time>
      </trkpt>
      <trkpt lat="59.8827772" lon="17.8392151">
        <ele>40.0321</ele>
        <time>2013-05-25T16:56:35Z</time>
      </trkpt>
      <trkpt lat="59.8828064" lon="17.839237">
        <ele>39.5513</ele>
        <time>2013-05-25T16:56:36Z</time>
      </trkpt>
      <trkpt lat="59.8828369" lon="17.8392611">
        <ele>38.5901</ele>
        <time>2013-05-25T16:56:37Z</time>
      </trkpt>
      <trkpt lat="59.8828692" lon="17.8392969">
        <ele>37.6287</ele>
        <time>2013-05-25T16:56:38Z</time>
      </trkpt>
      <trkpt lat="59.8829047" lon="17.8393458">
        <ele>37.6287</ele>
        <time>2013-05-25T16:56:39Z</time>
      </trkpt>
      <trkpt lat="59.8829448" lon="17.8393966">
        <ele>37.6287</ele>
        <time>2013-05-25T16:56:40Z</time>
      </trkpt>
      <trkpt lat="59.8829907" lon="17.8394483">
        <ele>37.1481</ele>
        <time>2013-05-25T16:56:41Z</time>
      </trkpt>
      <trkpt lat="59.8830368" lon="17.8395036">
        <ele>35.7061</ele>
        <time>2013-05-25T16:56:42Z</time>
      </trkpt>
      <trkpt lat="59.8830908" lon="17.8395732">
        <ele>35.7061</ele>
        <time>2013-05-25T16:56:43Z</time>
      </trkpt>
      <trkpt lat="59.8831508" lon="17.8396504">
        <ele>35.7061</ele>
        <time>2013-05-25T16:56:44Z</time>
      </trkpt>
      <trkpt lat="59.8832161" lon="17.8397327">
        <ele>35.7061</ele>
        <time>2013-05-25T16:56:45Z</time>
      </trkpt>
      <trkpt lat="59.8832803" lon="17.8398187">
        <ele>35.7061</ele>
        <time>2013-05-25T16:56:46Z</time>
      </trkpt>
      <trkpt lat="59.8833446" lon="17.839899">
        <ele>34.7449</ele>
        <time>2013-05-25T16:56:47Z</time>
      </trkpt>
      <trkpt lat="59.8834078" lon="17.8399855">
        <ele>34.7449</ele>
        <time>2013-05-25T16:56:48Z</time>
      </trkpt>
      <trkpt lat="59.8834713" lon="17.8400741">
        <ele>35.2255</ele>
        <time>2013-05-25T16:56:49Z</time>
      </trkpt>
      <trkpt lat="59.8835336" lon="17.8401588">
        <ele>35.2255</ele>
        <time>2013-05-25T16:56:50Z</time>
      </trkpt>
      <trkpt lat="59.8835951" lon="17.8402399">
        <ele>34.7449</ele>
        <time>2013-05-25T16:56:51Z</time>
      </trkpt>
      <trkpt lat="59.8836568" lon="17.8403216">
        <ele>34.7449</ele>
        <time>2013-05-25T16:56:52Z</time>
      </trkpt>
      <trkpt lat="59.8837165" lon="17.8404003">
        <ele>34.2642</ele>
        <time>2013-05-25T16:56:53Z</time>
      </trkpt>
      <trkpt lat="59.8837761" lon="17.8404795">
        <ele>33.7834</ele>
        <time>2013-05-25T16:56:54Z</time>
      </trkpt>
      <trkpt lat="59.8838352" lon="17.8405578">
        <ele>33.3029</ele>
        <time>2013-05-25T16:56:55Z</time>
      </trkpt>
      <trkpt lat="59.8838933" lon="17.8406356">
        <ele>32.8223</ele>
        <time>2013-05-25T16:56:56Z</time>
      </trkpt>
      <trkpt lat="59.8839504" lon="17.8407121">
        <ele>32.8223</ele>
        <time>2013-05-25T16:56:57Z</time>
      </trkpt>
      <trkpt lat="59.8840076" lon="17.8407889">
        <ele>32.8223</ele>
        <time>2013-05-25T16:56:58Z</time>
      </trkpt>
      <trkpt lat="59.8840655" lon="17.8408625">
        <ele>32.8223</ele>
        <time>2013-05-25T16:56:59Z</time>
      </trkpt>
      <trkpt lat="59.8841232" lon="17.840938">
        <ele>32.8223</ele>
        <time>2013-05-25T16:57:00Z</time>
      </trkpt>
      <trkpt lat="59.8841795" lon="17.8410099">
        <ele>32.8223</ele>
        <time>2013-05-25T16:57:01Z</time>
      </trkpt>
      <trkpt lat="59.8842356" lon="17.8410796">
        <ele>32.3416</ele>
        <time>2013-05-25T16:57:02Z</time>
      </trkpt>
      <trkpt lat="59.884292" lon="17.8411463">
        <ele>32.3416</ele>
        <time>2013-05-25T16:57:03Z</time>
      </trkpt>
      <trkpt lat="59.8843495" lon="17.8412091">
        <ele>32.3416</ele>
        <time>2013-05-25T16:57:04Z</time>
      </trkpt>
      <trkpt lat="59.8844094" lon="17.8412667">
        <ele>32.3416</ele>
        <time>2013-05-25T16:57:05Z</time>
      </trkpt>
      <trkpt lat="59.8844703" lon="17.8413197">
        <ele>32.3416</ele>
        <time>2013-05-25T16:57:06Z</time>
      </trkpt>
      <trkpt lat="59.8845309" lon="17.841371">
        <ele>32.3416</ele>
        <time>2013-05-25T16:57:07Z</time>
      </trkpt>
      <trkpt lat="59.884593" lon="17.8414193">
        <ele>31.8607</ele>
        <time>2013-05-25T16:57:08Z</time>
      </trkpt>
      <trkpt lat="59.8846582" lon="17.8414623">
        <ele>31.8607</ele>
        <time>2013-05-25T16:57:09Z</time>
      </trkpt>
      <trkpt lat="59.8847257" lon="17.8414972">
        <ele>31.8607</ele>
        <time>2013-05-25T16:57:10Z</time>
      </trkpt>
      <trkpt lat="59.8847949" lon="17.8415248">
        <ele>31.8607</ele>
        <time>2013-05-25T16:57:11Z</time>
      </trkpt>
      <trkpt lat="59.8848648" lon="17.8415468">
        <ele>31.8607</ele>
        <time>2013-05-25T16:57:12Z</time>
      </trkpt>
      <trkpt lat="59.884935" lon="17.8415606">
        <ele>31.8607</ele>
        <time>2013-05-25T16:57:13Z</time>
      </trkpt>
      <trkpt lat="59.8850051" lon="17.8415676">
        <ele>31.8607</ele>
        <time>2013-05-25T16:57:14Z</time>
      </trkpt>
      <trkpt lat="59.8850728" lon="17.8415623">
        <ele>30.8995</ele>
        <time>2013-05-25T16:57:15Z</time>
      </trkpt>
      <trkpt lat="59.885136" lon="17.8415523">
        <ele>30.4188</ele>
        <time>2013-05-25T16:57:16Z</time>
      </trkpt>
      <trkpt lat="59.8851985" lon="17.8415493">
        <ele>30.4188</ele>
        <time>2013-05-25T16:57:17Z</time>
      </trkpt>
      <trkpt lat="59.8852612" lon="17.8415473">
        <ele>30.8995</ele>
        <time>2013-05-25T16:57:18Z</time>
      </trkpt>
      <trkpt lat="59.8853216" lon="17.8415436">
        <ele>31.3801</ele>
        <time>2013-05-25T16:57:19Z</time>
      </trkpt>
      <trkpt lat="59.8853794" lon="17.8415401">
        <ele>31.3801</ele>
        <time>2013-05-25T16:57:20Z</time>
      </trkpt>
      <trkpt lat="59.8854373" lon="17.8415339">
        <ele>32.3416</ele>
        <time>2013-05-25T16:57:21Z</time>
      </trkpt>
      <trkpt lat="59.8854964" lon="17.8415334">
        <ele>32.8223</ele>
        <time>2013-05-25T16:57:22Z</time>
      </trkpt>
      <trkpt lat="59.885553" lon="17.841526">
        <ele>33.3029</ele>
        <time>2013-05-25T16:57:23Z</time>
      </trkpt>
      <trkpt lat="59.8856097" lon="17.8415212">
        <ele>34.2642</ele>
        <time>2013-05-25T16:57:24Z</time>
      </trkpt>
      <trkpt lat="59.8856661" lon="17.8415142">
        <ele>34.2642</ele>
        <time>2013-05-25T16:57:25Z</time>
      </trkpt>
      <trkpt lat="59.8857222" lon="17.841511">
        <ele>33.7834</ele>
        <time>2013-05-25T16:57:26Z</time>
      </trkpt>
      <trkpt lat="59.8857829" lon="17.8415017">
        <ele>34.2642</ele>
        <time>2013-05-25T16:57:27Z</time>
      </trkpt>
      <trkpt lat="59.885847" lon="17.8414892">
        <ele>34.7449</ele>
        <time>2013-05-25T16:57:28Z</time>
      </trkpt>
      <trkpt lat="59.8859122" lon="17.8414663">
        <ele>35.2255</ele>
        <time>2013-05-25T16:57:29Z</time>
      </trkpt>
      <trkpt lat="59.8859714" lon="17.8414459">
        <ele>34.2642</ele>
        <time>2013-05-25T16:57:30Z</time>
      </trkpt>
      <trkpt lat="59.8860303" lon="17.8414278">
        <ele>33.3029</ele>
        <time>2013-05-25T16:57:31Z</time>
      </trkpt>
      <trkpt lat="59.8860921" lon="17.8414105">
        <ele>33.3029</ele>
        <time>2013-05-25T16:57:32Z</time>
      </trkpt>
      <trkpt lat="59.8861543" lon="17.8413898">
        <ele>33.7834</ele>
        <time>2013-05-25T16:57:33Z</time>
      </trkpt>
      <trkpt lat="59.8862247" lon="17.8413618">
        <ele>34.7449</ele>
        <time>2013-05-25T16:57:34Z</time>
      </trkpt>
      <trkpt lat="59.8862854" lon="17.8413369">
        <ele>35.2255</ele>
        <time>2013-05-25T16:57:35Z</time>
      </trkpt>
      <trkpt lat="59.8863495" lon="17.8413036">
        <ele>36.1868</ele>
        <time>2013-05-25T16:57:36Z</time>
      </trkpt>
      <trkpt lat="59.8864121" lon="17.8412723">
        <ele>36.1868</ele>
        <time>2013-05-25T16:57:37Z</time>
      </trkpt>
      <trkpt lat="59.8864807" lon="17.8412437">
        <ele>36.6675</ele>
        <time>2013-05-25T16:57:38Z</time>
      </trkpt>
      <trkpt lat="59.8865446" lon="17.8412184">
        <ele>37.1481</ele>
        <time>2013-05-25T16:57:39Z</time>
      </trkpt>
      <trkpt lat="59.8866096" lon="17.8411916">
        <ele>37.6287</ele>
        <time>2013-05-25T16:57:40Z</time>
      </trkpt>
      <trkpt lat="59.8866739" lon="17.8411582">
        <ele>38.1094</ele>
        <time>2013-05-25T16:57:41Z</time>
      </trkpt>
      <trkpt lat="59.8867432" lon="17.8411413">
        <ele>38.5901</ele>
        <time>2013-05-25T16:57:42Z</time>
      </trkpt>
      <trkpt lat="59.8868123" lon="17.8411343">
        <ele>39.0707</ele>
        <time>2013-05-25T16:57:43Z</time>
      </trkpt>
      <trkpt lat="59.8868803" lon="17.8411413">
        <ele>39.0707</ele>
        <time>2013-05-25T16:57:44Z</time>
      </trkpt>
      <trkpt lat="59.886941" lon="17.8411666">
        <ele>38.5901</ele>
        <time>2013-05-25T16:57:45Z</time>
      </trkpt>
      <trkpt lat="59.8870028" lon="17.8412092">
        <ele>38.5901</ele>
        <time>2013-05-25T16:57:46Z</time>
      </trkpt>
      <trkpt lat="59.8870626" lon="17.8412576">
        <ele>38.5901</ele>
        <time>2013-05-25T16:57:47Z</time>
      </trkpt>
      <trkpt lat="59.8871196" lon="17.8413147">
        <ele>38.1094</ele>
        <time>2013-05-25T16:57:48Z</time>
      </trkpt>
      <trkpt lat="59.8871768" lon="17.8413799">
        <ele>38.5901</ele>
        <time>2013-05-25T16:57:49Z</time>
      </trkpt>
      <trkpt lat="59.8872259" lon="17.8414499">
        <ele>38.5901</ele>
        <time>2013-05-25T16:57:50Z</time>
      </trkpt>
      <trkpt lat="59.8872688" lon="17.8415287">
        <ele>38.1094</ele>
        <time>2013-05-25T16:57:51Z</time>
      </trkpt>
      <trkpt lat="59.8873066" lon="17.8416141">
        <ele>38.1094</ele>
        <time>2013-05-25T16:57:52Z</time>
      </trkpt>
      <trkpt lat="59.8873405" lon="17.8417008">
        <ele>38.5901</ele>
        <time>2013-05-25T16:57:53Z</time>
      </trkpt>
      <trkpt lat="59.8873585" lon="17.8417906">
        <ele>36.6675</ele>
        <time>2013-05-25T16:57:54Z</time>
      </trkpt>
      <trkpt lat="59.8873861" lon="17.8418733">
        <ele>36.1868</ele>
        <time>2013-05-25T16:57:55Z</time>
      </trkpt>
      <trkpt lat="59.8874181" lon="17.8419567">
        <ele>35.7061</ele>
        <time>2013-05-25T16:57:56Z</time>
      </trkpt>
      <trkpt lat="59.8874566" lon="17.8420361">
        <ele>35.7061</ele>
        <time>2013-05-25T16:57:57Z</time>
      </trkpt>
      <trkpt lat="59.8874988" lon="17.8421144">
        <ele>35.7061</ele>
        <time>2013-05-25T16:57:58Z</time>
      </trkpt>
      <trkpt lat="59.887543" lon="17.8421924">
        <ele>35.7061</ele>
        <time>2013-05-25T16:57:59Z</time>
      </trkpt>
      <trkpt lat="59.8875886" lon="17.8422704">
        <ele>35.2255</ele>
        <time>2013-05-25T16:58:00Z</time>
      </trkpt>
      <trkpt lat="59.8876363" lon="17.8423461">
        <ele>35.2255</ele>
        <time>2013-05-25T16:58:01Z</time>
      </trkpt>
      <trkpt lat="59.8876865" lon="17.8424165">
        <ele>35.2255</ele>
        <time>2013-05-25T16:58:02Z</time>
      </trkpt>
      <trkpt lat="59.8877376" lon="17.8424817">
        <ele>34.7449</ele>
        <time>2013-05-25T16:58:03Z</time>
      </trkpt>
      <trkpt lat="59.887789" lon="17.8425456">
        <ele>34.7449</ele>
        <time>2013-05-25T16:58:04Z</time>
      </trkpt>
      <trkpt lat="59.8878399" lon="17.8426067">
        <ele>34.7449</ele>
        <time>2013-05-25T16:58:05Z</time>
      </trkpt>
      <trkpt lat="59.8878905" lon="17.8426636">
        <ele>34.2642</ele>
        <time>2013-05-25T16:58:06Z</time>
      </trkpt>
      <trkpt lat="59.8879394" lon="17.842717">
        <ele>34.2642</ele>
        <time>2013-05-25T16:58:07Z</time>
      </trkpt>
      <trkpt lat="59.8879859" lon="17.8427678">
        <ele>33.7834</ele>
        <time>2013-05-25T16:58:08Z</time>
      </trkpt>
      <trkpt lat="59.8880326" lon="17.8428154">
        <ele>33.3029</ele>
        <time>2013-05-25T16:58:09Z</time>
      </trkpt>
      <trkpt lat="59.8880811" lon="17.8428579">
        <ele>32.8223</ele>
        <time>2013-05-25T16:58:10Z</time>
      </trkpt>
      <trkpt lat="59.8881305" lon="17.8428976">
        <ele>32.3416</ele>
        <time>2013-05-25T16:58:11Z</time>
      </trkpt>
      <trkpt lat="59.8881802" lon="17.8429371">
        <ele>32.3416</ele>
        <time>2013-05-25T16:58:12Z</time>
      </trkpt>
      <trkpt lat="59.888231" lon="17.8429755">
        <ele>32.3416</ele>
        <time>2013-05-25T16:58:13Z</time>
      </trkpt>
      <trkpt lat="59.8882793" lon="17.8430153">
        <ele>32.8223</ele>
        <time>2013-05-25T16:58:14Z</time>
      </trkpt>
      <trkpt lat="59.8883277" lon="17.8430551">
        <ele>32.8223</ele>
        <time>2013-05-25T16:58:15Z</time>
      </trkpt>
      <trkpt lat="59.8883718" lon="17.8430863">
        <ele>32.8223</ele>
        <time>2013-05-25T16:58:16Z</time>
      </trkpt>
      <trkpt lat="59.888418" lon="17.8431051">
        <ele>32.8223</ele>
        <time>2013-05-25T16:58:17Z</time>
      </trkpt>
      <trkpt lat="59.8884665" lon="17.8431198">
        <ele>33.3029</ele>
        <time>2013-05-25T16:58:18Z</time>
      </trkpt>
      <trkpt lat="59.8885199" lon="17.8431304">
        <ele>34.2642</ele>
        <time>2013-05-25T16:58:19Z</time>
      </trkpt>
      <trkpt lat="59.8885718" lon="17.8431422">
        <ele>34.7449</ele>
        <time>2013-05-25T16:58:20Z</time>
      </trkpt>
      <trkpt lat="59.8886229" lon="17.8431578">
        <ele>34.7449</ele>
        <time>2013-05-25T16:58:21Z</time>
      </trkpt>
      <trkpt lat="59.888681" lon="17.8431729">
        <ele>35.2255</ele>
        <time>2013-05-25T16:58:22Z</time>
      </trkpt>
      <trkpt lat="59.8887421" lon="17.8431852">
        <ele>35.7061</ele>
        <time>2013-05-25T16:58:23Z</time>
      </trkpt>
      <trkpt lat="59.8887999" lon="17.8431987">
        <ele>35.7061</ele>
        <time>2013-05-25T16:58:24Z</time>
      </trkpt>
      <trkpt lat="59.8888531" lon="17.8432168">
        <ele>35.7061</ele>
        <time>2013-05-25T16:58:25Z</time>
      </trkpt>
      <trkpt lat="59.8889049" lon="17.8432376">
        <ele>35.7061</ele>
        <time>2013-05-25T16:58:26Z</time>
      </trkpt>
      <trkpt lat="59.8889523" lon="17.8432702">
        <ele>36.1868</ele>
        <time>2013-05-25T16:58:27Z</time>
      </trkpt>
      <trkpt lat="59.8890045" lon="17.8432998">
        <ele>36.6675</ele>
        <time>2013-05-25T16:58:28Z</time>
      </trkpt>
      <trkpt lat="59.8890567" lon="17.8433334">
        <ele>37.1481</ele>
        <time>2013-05-25T16:58:29Z</time>
      </trkpt>
      <trkpt lat="59.8891079" lon="17.8433703">
        <ele>37.1481</ele>
        <time>2013-05-25T16:58:30Z</time>
      </trkpt>
      <trkpt lat="59.8891537" lon="17.8434096">
        <ele>37.1481</ele>
        <time>2013-05-25T16:58:31Z</time>
      </trkpt>
      <trkpt lat="59.8892015" lon="17.8434394">
        <ele>37.1481</ele>
        <time>2013-05-25T16:58:32Z</time>
      </trkpt>
      <trkpt lat="59.8892504" lon="17.8434588">
        <ele>38.1094</ele>
        <time>2013-05-25T16:58:33Z</time>
      </trkpt>
      <trkpt lat="59.8893087" lon="17.8434723">
        <ele>38.5901</ele>
        <time>2013-05-25T16:58:34Z</time>
      </trkpt>
      <trkpt lat="59.8893529" lon="17.8434826">
        <ele>37.1481</ele>
        <time>2013-05-25T16:58:35Z</time>
      </trkpt>
      <trkpt lat="59.8894011" lon="17.8434639">
        <ele>36.1868</ele>
        <time>2013-05-25T16:58:36Z</time>
      </trkpt>
      <trkpt lat="59.8894479" lon="17.8434436">
        <ele>35.2255</ele>
        <time>2013-05-25T16:58:37Z</time>
      </trkpt>
      <trkpt lat="59.8894911" lon="17.8434076">
        <ele>33.3029</ele>
        <time>2013-05-25T16:58:38Z</time>
      </trkpt>
      <trkpt lat="59.8895362" lon="17.8433556">
        <ele>32.3416</ele>
        <time>2013-05-25T16:58:39Z</time>
      </trkpt>
      <trkpt lat="59.8895783" lon="17.8432949">
        <ele>31.8607</ele>
        <time>2013-05-25T16:58:40Z</time>
      </trkpt>
      <trkpt lat="59.8896195" lon="17.8432258">
        <ele>30.8995</ele>
        <time>2013-05-25T16:58:41Z</time>
      </trkpt>
      <trkpt lat="59.8896535" lon="17.843148">
        <ele>29.9381</ele>
        <time>2013-05-25T16:58:42Z</time>
      </trkpt>
      <trkpt lat="59.8896803" lon="17.8430595">
        <ele>29.4575</ele>
        <time>2013-05-25T16:58:43Z</time>
      </trkpt>
      <trkpt lat="59.8897" lon="17.8429656">
        <ele>28.4962</ele>
        <time>2013-05-25T16:58:44Z</time>
      </trkpt>
      <trkpt lat="59.889713" lon="17.8428667">
        <ele>28.4962</ele>
        <time>2013-05-25T16:58:45Z</time>
      </trkpt>
      <trkpt lat="59.8897193" lon="17.842763">
        <ele>28.0155</ele>
        <time>2013-05-25T16:58:46Z</time>
      </trkpt>
      <trkpt lat="59.8897254" lon="17.8426643">
        <ele>28.0155</ele>
        <time>2013-05-25T16:58:47Z</time>
      </trkpt>
      <trkpt lat="59.8897322" lon="17.8425694">
        <ele>29.4575</ele>
        <time>2013-05-25T16:58:48Z</time>
      </trkpt>
      <trkpt lat="59.8897462" lon="17.8424859">
        <ele>30.8995</ele>
        <time>2013-05-25T16:58:49Z</time>
      </trkpt>
      <trkpt lat="59.8897551" lon="17.8423995">
        <ele>31.3801</ele>
        <time>2013-05-25T16:58:50Z</time>
      </trkpt>
      <trkpt lat="59.8897663" lon="17.8423138">
        <ele>31.3801</ele>
        <time>2013-05-25T16:58:51Z</time>
      </trkpt>
      <trkpt lat="59.8897767" lon="17.8422249">
        <ele>31.3801</ele>
        <time>2013-05-25T16:58:52Z</time>
      </trkpt>
      <trkpt lat="59.8897829" lon="17.8421297">
        <ele>30.8995</ele>
        <time>2013-05-25T16:58:53Z</time>
      </trkpt>
      <trkpt lat="59.8897932" lon="17.8420388">
        <ele>30.8995</ele>
        <time>2013-05-25T16:58:54Z</time>
      </trkpt>
      <trkpt lat="59.8898004" lon="17.8419378">
        <ele>30.4188</ele>
        <time>2013-05-25T16:58:55Z</time>
      </trkpt>
      <trkpt lat="59.8898114" lon="17.8418436">
        <ele>30.8995</ele>
        <time>2013-05-25T16:58:56Z</time>
      </trkpt>
      <trkpt lat="59.8898177" lon="17.8417415">
        <ele>30.4188</ele>
        <time>2013-05-25T16:58:57Z</time>
      </trkpt>
      <trkpt lat="59.8898279" lon="17.8416426">
        <ele>30.8995</ele>
        <time>2013-05-25T16:58:58Z</time>
      </trkpt>
      <trkpt lat="59.8898457" lon="17.8415528">
        <ele>32.3416</ele>
        <time>2013-05-25T16:58:59Z</time>
      </trkpt>
      <trkpt lat="59.8898643" lon="17.8414577">
        <ele>32.8223</ele>
        <time>2013-05-25T16:59:00Z</time>
      </trkpt>
      <trkpt lat="59.8898855" lon="17.8413612">
        <ele>33.7834</ele>
        <time>2013-05-25T16:59:01Z</time>
      </trkpt>
      <trkpt lat="59.889905" lon="17.8412608">
        <ele>34.2642</ele>
        <time>2013-05-25T16:59:02Z</time>
      </trkpt>
      <trkpt lat="59.8899263" lon="17.8411599">
        <ele>35.2255</ele>
        <time>2013-05-25T16:59:03Z</time>
      </trkpt>
      <trkpt lat="59.8899543" lon="17.8410648">
        <ele>36.6675</ele>
        <time>2013-05-25T16:59:04Z</time>
      </trkpt>
      <trkpt lat="59.8899828" lon="17.8409687">
        <ele>36.6675</ele>
        <time>2013-05-25T16:59:05Z</time>
      </trkpt>
      <trkpt lat="59.8900191" lon="17.8408944">
        <ele>37.6287</ele>
        <time>2013-05-25T16:59:06Z</time>
      </trkpt>
      <trkpt lat="59.8900715" lon="17.840862">
        <ele>39.5513</ele>
        <time>2013-05-25T16:59:07Z</time>
      </trkpt>
      <trkpt lat="59.8901358" lon="17.8408538">
        <ele>39.5513</ele>
        <time>2013-05-25T16:59:08Z</time>
      </trkpt>
      <trkpt lat="59.8902008" lon="17.8408848">
        <ele>40.9934</ele>
        <time>2013-05-25T16:59:09Z</time>
      </trkpt>
      <trkpt lat="59.8902608" lon="17.8409248">
        <ele>40.0321</ele>
        <time>2013-05-25T16:59:10Z</time>
      </trkpt>
      <trkpt lat="59.8903194" lon="17.8409843">
        <ele>39.5513</ele>
        <time>2013-05-25T16:59:11Z</time>
      </trkpt>
      <trkpt lat="59.890373" lon="17.841063">
        <ele>40.0321</ele>
        <time>2013-05-25T16:59:12Z</time>
      </trkpt>
      <trkpt lat="59.8904263" lon="17.8411475">
        <ele>40.9934</ele>
        <time>2013-05-25T16:59:13Z</time>
      </trkpt>
      <trkpt lat="59.8904774" lon="17.8412213">
        <ele>39.5513</ele>
        <time>2013-05-25T16:59:14Z</time>
      </trkpt>
      <trkpt lat="59.8905304" lon="17.8413055">
        <ele>39.0707</ele>
        <time>2013-05-25T16:59:15Z</time>
      </trkpt>
      <trkpt lat="59.8905786" lon="17.8413817">
        <ele>36.6675</ele>
        <time>2013-05-25T16:59:16Z</time>
      </trkpt>
      <trkpt lat="59.8906339" lon="17.8414686">
        <ele>37.6287</ele>
        <time>2013-05-25T16:59:17Z</time>
      </trkpt>
      <trkpt lat="59.8906911" lon="17.8415489">
        <ele>38.1094</ele>
        <time>2013-05-25T16:59:18Z</time>
      </trkpt>
      <trkpt lat="59.8907511" lon="17.841626">
        <ele>38.5901</ele>
        <time>2013-05-25T16:59:19Z</time>
      </trkpt>
      <trkpt lat="59.8908034" lon="17.8416903">
        <ele>37.6287</ele>
        <time>2013-05-25T16:59:20Z</time>
      </trkpt>
      <trkpt lat="59.8908524" lon="17.8417469">
        <ele>37.1481</ele>
        <time>2013-05-25T16:59:21Z</time>
      </trkpt>
      <trkpt lat="59.8909029" lon="17.841807">
        <ele>37.1481</ele>
        <time>2013-05-25T16:59:22Z</time>
      </trkpt>
      <trkpt lat="59.8909526" lon="17.8418611">
        <ele>36.6675</ele>
        <time>2013-05-25T16:59:23Z</time>
      </trkpt>
      <trkpt lat="59.8910004" lon="17.8419058">
        <ele>36.1868</ele>
        <time>2013-05-25T16:59:24Z</time>
      </trkpt>
      <trkpt lat="59.8910477" lon="17.841947">
        <ele>34.2642</ele>
        <time>2013-05-25T16:59:25Z</time>
      </trkpt>
      <trkpt lat="59.8910936" lon="17.8419773">
        <ele>30.8995</ele>
        <time>2013-05-25T16:59:26Z</time>
      </trkpt>
      <trkpt lat="59.8911355" lon="17.8420071">
        <ele>27.5349</ele>
        <time>2013-05-25T16:59:27Z</time>
      </trkpt>
      <trkpt lat="59.8911815" lon="17.8420492">
        <ele>26.5736</ele>
        <time>2013-05-25T16:59:28Z</time>
      </trkpt>
      <trkpt lat="59.8912318" lon="17.8420815">
        <ele>27.0543</ele>
        <time>2013-05-25T16:59:29Z</time>
      </trkpt>
      <trkpt lat="59.8912846" lon="17.8421083">
        <ele>27.5349</ele>
        <time>2013-05-25T16:59:30Z</time>
      </trkpt>
      <trkpt lat="59.8913328" lon="17.8421362">
        <ele>28.0155</ele>
        <time>2013-05-25T16:59:31Z</time>
      </trkpt>
      <trkpt lat="59.8913751" lon="17.8421496">
        <ele>28.0155</ele>
        <time>2013-05-25T16:59:32Z</time>
      </trkpt>
      <trkpt lat="59.8914134" lon="17.8421516">
        <ele>27.5349</ele>
        <time>2013-05-25T16:59:33Z</time>
      </trkpt>
      <trkpt lat="59.8914546" lon="17.8421517">
        <ele>26.0929</ele>
        <time>2013-05-25T16:59:34Z</time>
      </trkpt>
      <trkpt lat="59.8915012" lon="17.8421704">
        <ele>25.6123</ele>
        <time>2013-05-25T16:59:35Z</time>
      </trkpt>
      <trkpt lat="59.8915551" lon="17.8421854">
        <ele>26.5736</ele>
        <time>2013-05-25T16:59:36Z</time>
      </trkpt>
      <trkpt lat="59.8916119" lon="17.8421955">
        <ele>27.5349</ele>
        <time>2013-05-25T16:59:37Z</time>
      </trkpt>
      <trkpt lat="59.8916584" lon="17.8422079">
        <ele>28.4962</ele>
        <time>2013-05-25T16:59:38Z</time>
      </trkpt>
      <trkpt lat="59.8917121" lon="17.8422228">
        <ele>28.9769</ele>
        <time>2013-05-25T16:59:39Z</time>
      </trkpt>
      <trkpt lat="59.891772" lon="17.8422466">
        <ele>29.9381</ele>
        <time>2013-05-25T16:59:40Z</time>
      </trkpt>
      <trkpt lat="59.8918379" lon="17.8422758">
        <ele>30.4188</ele>
        <time>2013-05-25T16:59:41Z</time>
      </trkpt>
      <trkpt lat="59.8919041" lon="17.8423072">
        <ele>31.8607</ele>
        <time>2013-05-25T16:59:42Z</time>
      </trkpt>
      <trkpt lat="59.8919763" lon="17.8423381">
        <ele>33.3029</ele>
        <time>2013-05-25T16:59:43Z</time>
      </trkpt>
      <trkpt lat="59.8920498" lon="17.8423719">
        <ele>34.2642</ele>
        <time>2013-05-25T16:59:44Z</time>
      </trkpt>
      <trkpt lat="59.8921219" lon="17.8424088">
        <ele>35.2255</ele>
        <time>2013-05-25T16:59:45Z</time>
      </trkpt>
      <trkpt lat="59.892193" lon="17.842449">
        <ele>36.1868</ele>
        <time>2013-05-25T16:59:46Z</time>
      </trkpt>
      <trkpt lat="59.8922678" lon="17.8424842">
        <ele>37.1481</ele>
        <time>2013-05-25T16:59:47Z</time>
      </trkpt>
      <trkpt lat="59.8923449" lon="17.842513">
        <ele>36.6675</ele>
        <time>2013-05-25T16:59:48Z</time>
      </trkpt>
      <trkpt lat="59.8924186" lon="17.8425436">
        <ele>36.1868</ele>
        <time>2013-05-25T16:59:49Z</time>
      </trkpt>
      <trkpt lat="59.8924978" lon="17.8425818">
        <ele>37.1481</ele>
        <time>2013-05-25T16:59:50Z</time>
      </trkpt>
      <trkpt lat="59.8925734" lon="17.8426221">
        <ele>37.1481</ele>
        <time>2013-05-25T16:59:51Z</time>
      </trkpt>
      <trkpt lat="59.8926499" lon="17.8426532">
        <ele>36.6675</ele>
        <time>2013-05-25T16:59:52Z</time>
      </trkpt>
      <trkpt lat="59.8927287" lon="17.8426855">
        <ele>37.1481</ele>
        <time>2013-05-25T16:59:53Z</time>
      </trkpt>
      <trkpt lat="59.8928077" lon="17.8427304">
        <ele>37.6287</ele>
        <time>2013-05-25T16:59:54Z</time>
      </trkpt>
      <trkpt lat="59.8928831" lon="17.8427719">
        <ele>37.1481</ele>
        <time>2013-05-25T16:59:55Z</time>
      </trkpt>
      <trkpt lat="59.8929609" lon="17.8428137">
        <ele>37.1481</ele>
        <time>2013-05-25T16:59:56Z</time>
      </trkpt>
      <trkpt lat="59.8930371" lon="17.8428512">
        <ele>37.6287</ele>
        <time>2013-05-25T16:59:57Z</time>
      </trkpt>
      <trkpt lat="59.8931049" lon="17.8428864">
        <ele>35.2255</ele>
        <time>2013-05-25T16:59:58Z</time>
      </trkpt>
      <trkpt lat="59.893169" lon="17.8429128">
        <ele>33.3029</ele>
        <time>2013-05-25T16:59:59Z</time>
      </trkpt>
      <trkpt lat="59.8932348" lon="17.8429388">
        <ele>32.3416</ele>
        <time>2013-05-25T17:00:00Z</time>
      </trkpt>
      <trkpt lat="59.8933111" lon="17.8429636">
        <ele>30.8995</ele>
        <time>2013-05-25T17:00:01Z</time>
      </trkpt>
      <trkpt lat="59.8933962" lon="17.8429813">
        <ele>31.3801</ele>
        <time>2013-05-25T17:00:02Z</time>
      </trkpt>
      <trkpt lat="59.8934764" lon="17.8430009">
        <ele>30.8995</ele>
        <time>2013-05-25T17:00:03Z</time>
      </trkpt>
      <trkpt lat="59.8935513" lon="17.8430117">
        <ele>28.9769</ele>
        <time>2013-05-25T17:00:04Z</time>
      </trkpt>
      <trkpt lat="59.8936251" lon="17.8430255">
        <ele>27.5349</ele>
        <time>2013-05-25T17:00:05Z</time>
      </trkpt>
      <trkpt lat="59.8937002" lon="17.8430297">
        <ele>25.6123</ele>
        <time>2013-05-25T17:00:06Z</time>
      </trkpt>
      <trkpt lat="59.8937721" lon="17.8430313">
        <ele>22.7283</ele>
        <time>2013-05-25T17:00:07Z</time>
      </trkpt>
      <trkpt lat="59.8938444" lon="17.8430379">
        <ele>21.767</ele>
        <time>2013-05-25T17:00:08Z</time>
      </trkpt>
      <trkpt lat="59.8939099" lon="17.8430365">
        <ele>19.3638</ele>
        <time>2013-05-25T17:00:09Z</time>
      </trkpt>
      <trkpt lat="59.89398" lon="17.8430359">
        <ele>18.8831</ele>
        <time>2013-05-25T17:00:10Z</time>
      </trkpt>
      <trkpt lat="59.8940414" lon="17.8430256">
        <ele>16.9604</ele>
        <time>2013-05-25T17:00:11Z</time>
      </trkpt>
      <trkpt lat="59.8941036" lon="17.8430278">
        <ele>14.557</ele>
        <time>2013-05-25T17:00:12Z</time>
      </trkpt>
      <trkpt lat="59.8941667" lon="17.8430397">
        <ele>15.0377</ele>
        <time>2013-05-25T17:00:13Z</time>
      </trkpt>
      <trkpt lat="59.8942425" lon="17.8430533">
        <ele>16.4797</ele>
        <time>2013-05-25T17:00:14Z</time>
      </trkpt>
      <trkpt lat="59.8943153" lon="17.8430775">
        <ele>17.9218</ele>
        <time>2013-05-25T17:00:15Z</time>
      </trkpt>
      <trkpt lat="59.8943752" lon="17.8431072">
        <ele>17.4412</ele>
        <time>2013-05-25T17:00:16Z</time>
      </trkpt>
      <trkpt lat="59.8944326" lon="17.843125">
        <ele>16.4797</ele>
        <time>2013-05-25T17:00:17Z</time>
      </trkpt>
      <trkpt lat="59.8944878" lon="17.8431422">
        <ele>15.5184</ele>
        <time>2013-05-25T17:00:18Z</time>
      </trkpt>
      <trkpt lat="59.8945505" lon="17.8431608">
        <ele>15.999</ele>
        <time>2013-05-25T17:00:19Z</time>
      </trkpt>
      <trkpt lat="59.8946411" lon="17.8431769">
        <ele>19.3638</ele>
        <time>2013-05-25T17:00:20Z</time>
      </trkpt>
      <trkpt lat="59.8947382" lon="17.8431894">
        <ele>22.2476</ele>
        <time>2013-05-25T17:00:21Z</time>
      </trkpt>
      <trkpt lat="59.8948148" lon="17.8431911">
        <ele>21.767</ele>
        <time>2013-05-25T17:00:22Z</time>
      </trkpt>
      <trkpt lat="59.8949273" lon="17.8431916">
        <ele>25.6123</ele>
        <time>2013-05-25T17:00:23Z</time>
      </trkpt>
      <trkpt lat="59.8950265" lon="17.8431701">
        <ele>27.5349</ele>
        <time>2013-05-25T17:00:24Z</time>
      </trkpt>
      <trkpt lat="59.8951096" lon="17.8431401">
        <ele>27.5349</ele>
        <time>2013-05-25T17:00:25Z</time>
      </trkpt>
      <trkpt lat="59.8951892" lon="17.8431186">
        <ele>28.9769</ele>
        <time>2013-05-25T17:00:26Z</time>
      </trkpt>
      <trkpt lat="59.8952602" lon="17.8431033">
        <ele>29.9381</ele>
        <time>2013-05-25T17:00:27Z</time>
      </trkpt>
      <trkpt lat="59.8953407" lon="17.8430905">
        <ele>32.3416</ele>
        <time>2013-05-25T17:00:28Z</time>
      </trkpt>
      <trkpt lat="59.8954052" lon="17.8430588">
        <ele>31.8607</ele>
        <time>2013-05-25T17:00:29Z</time>
      </trkpt>
      <trkpt lat="59.8954684" lon="17.8430189">
        <ele>31.8607</ele>
        <time>2013-05-25T17:00:30Z</time>
      </trkpt>
      <trkpt lat="59.8955171" lon="17.8429806">
        <ele>30.8995</ele>
        <time>2013-05-25T17:00:31Z</time>
      </trkpt>
      <trkpt lat="59.8955663" lon="17.8429511">
        <ele>31.3801</ele>
        <time>2013-05-25T17:00:32Z</time>
      </trkpt>
      <trkpt lat="59.8956126" lon="17.8429273">
        <ele>30.8995</ele>
        <time>2013-05-25T17:00:33Z</time>
      </trkpt>
      <trkpt lat="59.8956633" lon="17.842902">
        <ele>30.8995</ele>
        <time>2013-05-25T17:00:34Z</time>
      </trkpt>
      <trkpt lat="59.8957165" lon="17.8428777">
        <ele>31.8607</ele>
        <time>2013-05-25T17:00:35Z</time>
      </trkpt>
      <trkpt lat="59.8957675" lon="17.8428629">
        <ele>33.3029</ele>
        <time>2013-05-25T17:00:36Z</time>
      </trkpt>
      <trkpt lat="59.8958182" lon="17.8428427">
        <ele>32.8223</ele>
        <time>2013-05-25T17:00:37Z</time>
      </trkpt>
      <trkpt lat="59.8958721" lon="17.842832">
        <ele>32.8223</ele>
        <time>2013-05-25T17:00:38Z</time>
      </trkpt>
      <trkpt lat="59.8959296" lon="17.8428337">
        <ele>32.8223</ele>
        <time>2013-05-25T17:00:39Z</time>
      </trkpt>
      <trkpt lat="59.895982" lon="17.8428413">
        <ele>31.8607</ele>
        <time>2013-05-25T17:00:40Z</time>
      </trkpt>
      <trkpt lat="59.8960396" lon="17.842853">
        <ele>31.8607</ele>
        <time>2013-05-25T17:00:41Z</time>
      </trkpt>
      <trkpt lat="59.8961017" lon="17.8428613">
        <ele>31.3801</ele>
        <time>2013-05-25T17:00:42Z</time>
      </trkpt>
      <trkpt lat="59.8961731" lon="17.8428769">
        <ele>32.3416</ele>
        <time>2013-05-25T17:00:43Z</time>
      </trkpt>
      <trkpt lat="59.896243" lon="17.8428981">
        <ele>32.8223</ele>
        <time>2013-05-25T17:00:44Z</time>
      </trkpt>
      <trkpt lat="59.8963094" lon="17.8429253">
        <ele>33.7834</ele>
        <time>2013-05-25T17:00:45Z</time>
      </trkpt>
      <trkpt lat="59.8963725" lon="17.8429428">
        <ele>35.2255</ele>
        <time>2013-05-25T17:00:46Z</time>
      </trkpt>
      <trkpt lat="59.8964253" lon="17.8429593">
        <ele>33.7834</ele>
        <time>2013-05-25T17:00:47Z</time>
      </trkpt>
      <trkpt lat="59.8964809" lon="17.8429739">
        <ele>34.2642</ele>
        <time>2013-05-25T17:00:48Z</time>
      </trkpt>
      <trkpt lat="59.8965331" lon="17.8429885">
        <ele>35.2255</ele>
        <time>2013-05-25T17:00:49Z</time>
      </trkpt>
      <trkpt lat="59.896577" lon="17.8429813">
        <ele>35.7061</ele>
        <time>2013-05-25T17:00:50Z</time>
      </trkpt>
      <trkpt lat="59.8966113" lon="17.8429646">
        <ele>36.6675</ele>
        <time>2013-05-25T17:00:51Z</time>
      </trkpt>
      <trkpt lat="59.8966409" lon="17.8429428">
        <ele>35.2255</ele>
        <time>2013-05-25T17:00:52Z</time>
      </trkpt>
      <trkpt lat="59.8966694" lon="17.8429269">
        <ele>34.7449</ele>
        <time>2013-05-25T17:00:53Z</time>
      </trkpt>
      <trkpt lat="59.8966998" lon="17.8429176">
        <ele>35.2255</ele>
        <time>2013-05-25T17:00:54Z</time>
      </trkpt>
      <trkpt lat="59.8967262" lon="17.842903">
        <ele>36.1868</ele>
        <time>2013-05-25T17:00:55Z</time>
      </trkpt>
      <trkpt lat="59.8967474" lon="17.8428977">
        <ele>35.7061</ele>
        <time>2013-05-25T17:00:56Z</time>
      </trkpt>
      <trkpt lat="59.8967653" lon="17.8428869">
        <ele>34.7449</ele>
        <time>2013-05-25T17:00:57Z</time>
      </trkpt>
      <trkpt lat="59.896774" lon="17.8428682">
        <ele>33.3029</ele>
        <time>2013-05-25T17:00:58Z</time>
      </trkpt>
      <trkpt lat="59.8967968" lon="17.8428373">
        <ele>34.7449</ele>
        <time>2013-05-25T17:00:59Z</time>
      </trkpt>
      <trkpt lat="59.8968252" lon="17.8428227">
        <ele>36.1868</ele>
        <time>2013-05-25T17:01:00Z</time>
      </trkpt>
      <trkpt lat="59.8968424" lon="17.8428106">
        <ele>35.7061</ele>
        <time>2013-05-25T17:01:01Z</time>
      </trkpt>
      <trkpt lat="59.8968734" lon="17.8427943">
        <ele>35.7061</ele>
        <time>2013-05-25T17:01:02Z</time>
      </trkpt>
      <trkpt lat="59.8969082" lon="17.8427817">
        <ele>36.1868</ele>
        <time>2013-05-25T17:01:03Z</time>
      </trkpt>
      <trkpt lat="59.8969419" lon="17.8427662">
        <ele>35.7061</ele>
        <time>2013-05-25T17:01:04Z</time>
      </trkpt>
      <trkpt lat="59.8969691" lon="17.8427355">
        <ele>34.2642</ele>
        <time>2013-05-25T17:01:05Z</time>
      </trkpt>
      <trkpt lat="59.8970066" lon="17.8426989">
        <ele>34.7449</ele>
        <time>2013-05-25T17:01:06Z</time>
      </trkpt>
      <trkpt lat="59.8970401" lon="17.842672">
        <ele>33.3029</ele>
        <time>2013-05-25T17:01:07Z</time>
      </trkpt>
      <trkpt lat="59.8970672" lon="17.8426358">
        <ele>34.2642</ele>
        <time>2013-05-25T17:01:08Z</time>
      </trkpt>
      <trkpt lat="59.8970936" lon="17.8426096">
        <ele>33.3029</ele>
        <time>2013-05-25T17:01:09Z</time>
      </trkpt>
      <trkpt lat="59.8971144" lon="17.8425798">
        <ele>32.3416</ele>
        <time>2013-05-25T17:01:10Z</time>
      </trkpt>
      <trkpt lat="59.8971361" lon="17.8425331">
        <ele>31.8607</ele>
        <time>2013-05-25T17:01:11Z</time>
      </trkpt>
      <trkpt lat="59.8971687" lon="17.8425081">
        <ele>30.8995</ele>
        <time>2013-05-25T17:01:12Z</time>
      </trkpt>
      <trkpt lat="59.8972113" lon="17.8424979">
        <ele>30.4188</ele>
        <time>2013-05-25T17:01:13Z</time>
      </trkpt>
      <trkpt lat="59.8972547" lon="17.8424896">
        <ele>32.3416</ele>
        <time>2013-05-25T17:01:14Z</time>
      </trkpt>
      <trkpt lat="59.897297" lon="17.8424751">
        <ele>34.7449</ele>
        <time>2013-05-25T17:01:15Z</time>
      </trkpt>
      <trkpt lat="59.8973366" lon="17.8424615">
        <ele>36.6675</ele>
        <time>2013-05-25T17:01:16Z</time>
      </trkpt>
      <trkpt lat="59.8973801" lon="17.8424476">
        <ele>38.1094</ele>
        <time>2013-05-25T17:01:17Z</time>
      </trkpt>
      <trkpt lat="59.897422" lon="17.8424322">
        <ele>39.5513</ele>
        <time>2013-05-25T17:01:18Z</time>
      </trkpt>
      <trkpt lat="59.8974631" lon="17.8424108">
        <ele>39.5513</ele>
        <time>2013-05-25T17:01:19Z</time>
      </trkpt>
      <trkpt lat="59.8975106" lon="17.842392">
        <ele>40.5128</ele>
        <time>2013-05-25T17:01:20Z</time>
      </trkpt>
      <trkpt lat="59.897567" lon="17.8423804">
        <ele>43.3966</ele>
        <time>2013-05-25T17:01:21Z</time>
      </trkpt>
      <trkpt lat="59.8976235" lon="17.8423573">
        <ele>45.7999</ele>
        <time>2013-05-25T17:01:22Z</time>
      </trkpt>
      <trkpt lat="59.8976774" lon="17.8423445">
        <ele>48.2034</ele>
        <time>2013-05-25T17:01:23Z</time>
      </trkpt>
      <trkpt lat="59.8977281" lon="17.8423317">
        <ele>49.6453</ele>
        <time>2013-05-25T17:01:24Z</time>
      </trkpt>
      <trkpt lat="59.8977798" lon="17.842319">
        <ele>51.0872</ele>
        <time>2013-05-25T17:01:25Z</time>
      </trkpt>
      <trkpt lat="59.8978385" lon="17.842314">
        <ele>53.4905</ele>
        <time>2013-05-25T17:01:26Z</time>
      </trkpt>
      <trkpt lat="59.8978913" lon="17.842311">
        <ele>54.4518</ele>
        <time>2013-05-25T17:01:27Z</time>
      </trkpt>
      <trkpt lat="59.8979484" lon="17.8423174">
        <ele>54.4518</ele>
        <time>2013-05-25T17:01:28Z</time>
      </trkpt>
      <trkpt lat="59.8980041" lon="17.8423143">
        <ele>53.9712</ele>
        <time>2013-05-25T17:01:29Z</time>
      </trkpt>
      <trkpt lat="59.8980649" lon="17.8423149">
        <ele>54.4518</ele>
        <time>2013-05-25T17:01:30Z</time>
      </trkpt>
      <trkpt lat="59.8981235" lon="17.8423175">
        <ele>54.4518</ele>
        <time>2013-05-25T17:01:31Z</time>
      </trkpt>
      <trkpt lat="59.8981794" lon="17.842312">
        <ele>53.9712</ele>
        <time>2013-05-25T17:01:32Z</time>
      </trkpt>
      <trkpt lat="59.8982357" lon="17.8423037">
        <ele>53.0098</ele>
        <time>2013-05-25T17:01:33Z</time>
      </trkpt>
      <trkpt lat="59.8982962" lon="17.8423057">
        <ele>52.0486</ele>
        <time>2013-05-25T17:01:34Z</time>
      </trkpt>
      <trkpt lat="59.898348" lon="17.8423041">
        <ele>51.0872</ele>
        <time>2013-05-25T17:01:35Z</time>
      </trkpt>
      <trkpt lat="59.8983941" lon="17.8422895">
        <ele>50.126</ele>
        <time>2013-05-25T17:01:36Z</time>
      </trkpt>
      <trkpt lat="59.8984414" lon="17.8422677">
        <ele>49.6453</ele>
        <time>2013-05-25T17:01:37Z</time>
      </trkpt>
      <trkpt lat="59.8984918" lon="17.842247">
        <ele>48.684</ele>
        <time>2013-05-25T17:01:38Z</time>
      </trkpt>
      <trkpt lat="59.8985419" lon="17.8422268">
        <ele>48.684</ele>
        <time>2013-05-25T17:01:39Z</time>
      </trkpt>
      <trkpt lat="59.898583" lon="17.8422042">
        <ele>48.2034</ele>
        <time>2013-05-25T17:01:40Z</time>
      </trkpt>
      <trkpt lat="59.8986322" lon="17.8421784">
        <ele>47.7225</ele>
        <time>2013-05-25T17:01:41Z</time>
      </trkpt>
      <trkpt lat="59.8986823" lon="17.8421482">
        <ele>47.2418</ele>
        <time>2013-05-25T17:01:42Z</time>
      </trkpt>
      <trkpt lat="59.8987372" lon="17.8421123">
        <ele>47.7225</ele>
        <time>2013-05-25T17:01:43Z</time>
      </trkpt>
      <trkpt lat="59.8987911" lon="17.842071">
        <ele>47.7225</ele>
        <time>2013-05-25T17:01:44Z</time>
      </trkpt>
      <trkpt lat="59.8988446" lon="17.842038">
        <ele>48.2034</ele>
        <time>2013-05-25T17:01:45Z</time>
      </trkpt>
      <trkpt lat="59.898887" lon="17.8420156">
        <ele>47.2418</ele>
        <time>2013-05-25T17:01:46Z</time>
      </trkpt>
      <trkpt lat="59.8989289" lon="17.8419984">
        <ele>46.2806</ele>
        <time>2013-05-25T17:01:47Z</time>
      </trkpt>
      <trkpt lat="59.898975" lon="17.8419717">
        <ele>45.7999</ele>
        <time>2013-05-25T17:01:48Z</time>
      </trkpt>
      <trkpt lat="59.8990235" lon="17.8419348">
        <ele>44.358</ele>
        <time>2013-05-25T17:01:49Z</time>
      </trkpt>
      <trkpt lat="59.8990708" lon="17.8418988">
        <ele>43.3966</ele>
        <time>2013-05-25T17:01:50Z</time>
      </trkpt>
      <trkpt lat="59.8991219" lon="17.8418554">
        <ele>42.916</ele>
        <time>2013-05-25T17:01:51Z</time>
      </trkpt>
      <trkpt lat="59.8991707" lon="17.8418037">
        <ele>41.474</ele>
        <time>2013-05-25T17:01:52Z</time>
      </trkpt>
      <trkpt lat="59.8992209" lon="17.8417502">
        <ele>40.9934</ele>
        <time>2013-05-25T17:01:53Z</time>
      </trkpt>
      <trkpt lat="59.899273" lon="17.8417004">
        <ele>40.5128</ele>
        <time>2013-05-25T17:01:54Z</time>
      </trkpt>
      <trkpt lat="59.8993293" lon="17.8416539">
        <ele>40.9934</ele>
        <time>2013-05-25T17:01:55Z</time>
      </trkpt>
      <trkpt lat="59.8993868" lon="17.8416096">
        <ele>41.474</ele>
        <time>2013-05-25T17:01:56Z</time>
      </trkpt>
      <trkpt lat="59.8994423" lon="17.8415681">
        <ele>40.9934</ele>
        <time>2013-05-25T17:01:57Z</time>
      </trkpt>
      <trkpt lat="59.8995063" lon="17.8415386">
        <ele>40.9934</ele>
        <time>2013-05-25T17:01:58Z</time>
      </trkpt>
      <trkpt lat="59.8995754" lon="17.8415172">
        <ele>40.9934</ele>
        <time>2013-05-25T17:01:59Z</time>
      </trkpt>
      <trkpt lat="59.8996494" lon="17.8415088">
        <ele>40.0321</ele>
        <time>2013-05-25T17:02:00Z</time>
      </trkpt>
      <trkpt lat="59.8997287" lon="17.841496">
        <ele>40.0321</ele>
        <time>2013-05-25T17:02:01Z</time>
      </trkpt>
      <trkpt lat="59.8998184" lon="17.8415158">
        <ele>40.5128</ele>
        <time>2013-05-25T17:02:02Z</time>
      </trkpt>
      <trkpt lat="59.8999057" lon="17.8414831">
        <ele>40.0321</ele>
        <time>2013-05-25T17:02:03Z</time>
      </trkpt>
      <trkpt lat="59.8999979" lon="17.841465">
        <ele>40.9934</ele>
        <time>2013-05-25T17:02:04Z</time>
      </trkpt>
      <trkpt lat="59.9000963" lon="17.8414806">
        <ele>42.4354</ele>
        <time>2013-05-25T17:02:05Z</time>
      </trkpt>
      <trkpt lat="59.9001932" lon="17.8414829">
        <ele>42.916</ele>
        <time>2013-05-25T17:02:06Z</time>
      </trkpt>
      <trkpt lat="59.9002845" lon="17.8414818">
        <ele>42.4354</ele>
        <time>2013-05-25T17:02:07Z</time>
      </trkpt>
      <trkpt lat="59.9003778" lon="17.8414995">
        <ele>42.916</ele>
        <time>2013-05-25T17:02:08Z</time>
      </trkpt>
      <trkpt lat="59.9004736" lon="17.8415088">
        <ele>43.8773</ele>
        <time>2013-05-25T17:02:09Z</time>
      </trkpt>
      <trkpt lat="59.9005607" lon="17.841511">
        <ele>43.3966</ele>
        <time>2013-05-25T17:02:10Z</time>
      </trkpt>
      <trkpt lat="59.9006522" lon="17.8415156">
        <ele>43.3966</ele>
        <time>2013-05-25T17:02:11Z</time>
      </trkpt>
      <trkpt lat="59.9007433" lon="17.8415307">
        <ele>42.916</ele>
        <time>2013-05-25T17:02:12Z</time>
      </trkpt>
      <trkpt lat="59.9008389" lon="17.8415427">
        <ele>43.3966</ele>
        <time>2013-05-25T17:02:13Z</time>
      </trkpt>
      <trkpt lat="59.9009274" lon="17.8415547">
        <ele>43.3966</ele>
        <time>2013-05-25T17:02:14Z</time>
      </trkpt>
      <trkpt lat="59.9010138" lon="17.8415647">
        <ele>42.916</ele>
        <time>2013-05-25T17:02:15Z</time>
      </trkpt>
      <trkpt lat="59.9011016" lon="17.8415681">
        <ele>42.916</ele>
        <time>2013-05-25T17:02:16Z</time>
      </trkpt>
      <trkpt lat="59.9011801" lon="17.8415775">
        <ele>42.4354</ele>
        <time>2013-05-25T17:02:17Z</time>
      </trkpt>
      <trkpt lat="59.9012583" lon="17.8415898">
        <ele>41.9547</ele>
        <time>2013-05-25T17:02:18Z</time>
      </trkpt>
      <trkpt lat="59.9013351" lon="17.841596">
        <ele>41.474</ele>
        <time>2013-05-25T17:02:19Z</time>
      </trkpt>
      <trkpt lat="59.9014124" lon="17.8416114">
        <ele>41.9547</ele>
        <time>2013-05-25T17:02:20Z</time>
      </trkpt>
      <trkpt lat="59.9014909" lon="17.841624">
        <ele>42.4354</ele>
        <time>2013-05-25T17:02:21Z</time>
      </trkpt>
      <trkpt lat="59.9015646" lon="17.8416313">
        <ele>41.9547</ele>
        <time>2013-05-25T17:02:22Z</time>
      </trkpt>
      <trkpt lat="59.9016338" lon="17.841639">
        <ele>41.474</ele>
        <time>2013-05-25T17:02:23Z</time>
      </trkpt>
      <trkpt lat="59.9017039" lon="17.8416425">
        <ele>41.474</ele>
        <time>2013-05-25T17:02:24Z</time>
      </trkpt>
      <trkpt lat="59.9017759" lon="17.8416513">
        <ele>41.474</ele>
        <time>2013-05-25T17:02:25Z</time>
      </trkpt>
      <trkpt lat="59.9018469" lon="17.8416547">
        <ele>41.9547</ele>
        <time>2013-05-25T17:02:26Z</time>
      </trkpt>
      <trkpt lat="59.9019095" lon="17.8416566">
        <ele>41.474</ele>
        <time>2013-05-25T17:02:27Z</time>
      </trkpt>
      <trkpt lat="59.9019742" lon="17.8416626">
        <ele>40.5128</ele>
        <time>2013-05-25T17:02:28Z</time>
      </trkpt>
      <trkpt lat="59.9020366" lon="17.8416659">
        <ele>39.5513</ele>
        <time>2013-05-25T17:02:29Z</time>
      </trkpt>
      <trkpt lat="59.9020972" lon="17.8416665">
        <ele>38.1094</ele>
        <time>2013-05-25T17:02:30Z</time>
      </trkpt>
      <trkpt lat="59.9021621" lon="17.8416524">
        <ele>38.1094</ele>
        <time>2013-05-25T17:02:31Z</time>
      </trkpt>
      <trkpt lat="59.9022337" lon="17.8416336">
        <ele>38.1094</ele>
        <time>2013-05-25T17:02:32Z</time>
      </trkpt>
      <trkpt lat="59.9023103" lon="17.8416199">
        <ele>37.6287</ele>
        <time>2013-05-25T17:02:33Z</time>
      </trkpt>
      <trkpt lat="59.9024204" lon="17.841581">
        <ele>37.1481</ele>
        <time>2013-05-25T17:02:34Z</time>
      </trkpt>
      <trkpt lat="59.9025235" lon="17.8415438">
        <ele>39.0707</ele>
        <time>2013-05-25T17:02:35Z</time>
      </trkpt>
      <trkpt lat="59.9025933" lon="17.8415245">
        <ele>39.0707</ele>
        <time>2013-05-25T17:02:36Z</time>
      </trkpt>
      <trkpt lat="59.9027037" lon="17.8415036">
        <ele>39.0707</ele>
        <time>2013-05-25T17:02:37Z</time>
      </trkpt>
      <trkpt lat="59.902784" lon="17.8414581">
        <ele>39.5513</ele>
        <time>2013-05-25T17:02:38Z</time>
      </trkpt>
      <trkpt lat="59.902855" lon="17.8414329">
        <ele>39.5513</ele>
        <time>2013-05-25T17:02:39Z</time>
      </trkpt>
      <trkpt lat="59.9029265" lon="17.8414042">
        <ele>39.5513</ele>
        <time>2013-05-25T17:02:40Z</time>
      </trkpt>
      <trkpt lat="59.902989" lon="17.8413774">
        <ele>38.1094</ele>
        <time>2013-05-25T17:02:41Z</time>
      </trkpt>
      <trkpt lat="59.903056" lon="17.8413503">
        <ele>38.1094</ele>
        <time>2013-05-25T17:02:42Z</time>
      </trkpt>
      <trkpt lat="59.9031241" lon="17.8413417">
        <ele>38.1094</ele>
        <time>2013-05-25T17:02:43Z</time>
      </trkpt>
      <trkpt lat="59.9031792" lon="17.8413272">
        <ele>37.6287</ele>
        <time>2013-05-25T17:02:44Z</time>
      </trkpt>
      <trkpt lat="59.9032394" lon="17.8413385">
        <ele>37.6287</ele>
        <time>2013-05-25T17:02:45Z</time>
      </trkpt>
      <trkpt lat="59.9032896" lon="17.841365">
        <ele>38.1094</ele>
        <time>2013-05-25T17:02:46Z</time>
      </trkpt>
      <trkpt lat="59.9033417" lon="17.8414013">
        <ele>38.1094</ele>
        <time>2013-05-25T17:02:47Z</time>
      </trkpt>
      <trkpt lat="59.9033957" lon="17.8414484">
        <ele>38.5901</ele>
        <time>2013-05-25T17:02:48Z</time>
      </trkpt>
      <trkpt lat="59.9034454" lon="17.8415083">
        <ele>38.5901</ele>
        <time>2013-05-25T17:02:49Z</time>
      </trkpt>
      <trkpt lat="59.9034926" lon="17.8415746">
        <ele>38.1094</ele>
        <time>2013-05-25T17:02:50Z</time>
      </trkpt>
      <trkpt lat="59.9035395" lon="17.8416535">
        <ele>37.6287</ele>
        <time>2013-05-25T17:02:51Z</time>
      </trkpt>
      <trkpt lat="59.9035893" lon="17.8417316">
        <ele>36.6675</ele>
        <time>2013-05-25T17:02:52Z</time>
      </trkpt>
      <trkpt lat="59.903647" lon="17.8418123">
        <ele>36.1868</ele>
        <time>2013-05-25T17:02:53Z</time>
      </trkpt>
      <trkpt lat="59.9036978" lon="17.8418788">
        <ele>35.7061</ele>
        <time>2013-05-25T17:02:54Z</time>
      </trkpt>
      <trkpt lat="59.9037515" lon="17.8419363">
        <ele>33.7834</ele>
        <time>2013-05-25T17:02:55Z</time>
      </trkpt>
      <trkpt lat="59.9037987" lon="17.8419783">
        <ele>30.8995</ele>
        <time>2013-05-25T17:02:56Z</time>
      </trkpt>
      <trkpt lat="59.9038615" lon="17.84201">
        <ele>29.4575</ele>
        <time>2013-05-25T17:02:57Z</time>
      </trkpt>
      <trkpt lat="59.9039365" lon="17.8420363">
        <ele>28.9769</ele>
        <time>2013-05-25T17:02:58Z</time>
      </trkpt>
      <trkpt lat="59.904013" lon="17.8420481">
        <ele>28.0155</ele>
        <time>2013-05-25T17:02:59Z</time>
      </trkpt>
      <trkpt lat="59.9040964" lon="17.8420431">
        <ele>28.9769</ele>
        <time>2013-05-25T17:03:00Z</time>
      </trkpt>
      <trkpt lat="59.9041731" lon="17.8420187">
        <ele>29.4575</ele>
        <time>2013-05-25T17:03:01Z</time>
      </trkpt>
      <trkpt lat="59.9042454" lon="17.8419825">
        <ele>29.4575</ele>
        <time>2013-05-25T17:03:02Z</time>
      </trkpt>
      <trkpt lat="59.9043171" lon="17.8419509">
        <ele>29.4575</ele>
        <time>2013-05-25T17:03:03Z</time>
      </trkpt>
      <trkpt lat="59.9043918" lon="17.8419165">
        <ele>30.4188</ele>
        <time>2013-05-25T17:03:04Z</time>
      </trkpt>
      <trkpt lat="59.9044686" lon="17.8418675">
        <ele>30.8995</ele>
        <time>2013-05-25T17:03:05Z</time>
      </trkpt>
      <trkpt lat="59.9045337" lon="17.8417938">
        <ele>28.9769</ele>
        <time>2013-05-25T17:03:06Z</time>
      </trkpt>
      <trkpt lat="59.9046037" lon="17.8417194">
        <ele>29.4575</ele>
        <time>2013-05-25T17:03:07Z</time>
      </trkpt>
      <trkpt lat="59.9046679" lon="17.8416462">
        <ele>28.0155</ele>
        <time>2013-05-25T17:03:08Z</time>
      </trkpt>
      <trkpt lat="59.904741" lon="17.8415986">
        <ele>28.9769</ele>
        <time>2013-05-25T17:03:09Z</time>
      </trkpt>
      <trkpt lat="59.9048229" lon="17.8415606">
        <ele>29.9381</ele>
        <time>2013-05-25T17:03:10Z</time>
      </trkpt>
      <trkpt lat="59.9048975" lon="17.841522">
        <ele>29.4575</ele>
        <time>2013-05-25T17:03:11Z</time>
      </trkpt>
      <trkpt lat="59.9049741" lon="17.8414777">
        <ele>28.4962</ele>
        <time>2013-05-25T17:03:12Z</time>
      </trkpt>
      <trkpt lat="59.9050538" lon="17.8414309">
        <ele>27.0543</ele>
        <time>2013-05-25T17:03:13Z</time>
      </trkpt>
      <trkpt lat="59.9051391" lon="17.8414034">
        <ele>26.5736</ele>
        <time>2013-05-25T17:03:14Z</time>
      </trkpt>
      <trkpt lat="59.905233" lon="17.84137">
        <ele>27.0543</ele>
        <time>2013-05-25T17:03:15Z</time>
      </trkpt>
      <trkpt lat="59.9053273" lon="17.8413479">
        <ele>27.5349</ele>
        <time>2013-05-25T17:03:16Z</time>
      </trkpt>
      <trkpt lat="59.9054173" lon="17.8413211">
        <ele>27.0543</ele>
        <time>2013-05-25T17:03:17Z</time>
      </trkpt>
      <trkpt lat="59.9055116" lon="17.8412895">
        <ele>27.0543</ele>
        <time>2013-05-25T17:03:18Z</time>
      </trkpt>
      <trkpt lat="59.9056082" lon="17.8412597">
        <ele>28.0155</ele>
        <time>2013-05-25T17:03:19Z</time>
      </trkpt>
      <trkpt lat="59.9056981" lon="17.8412289">
        <ele>27.0543</ele>
        <time>2013-05-25T17:03:20Z</time>
      </trkpt>
      <trkpt lat="59.9057848" lon="17.8411885">
        <ele>27.0543</ele>
        <time>2013-05-25T17:03:21Z</time>
      </trkpt>
      <trkpt lat="59.9058609" lon="17.8411273">
        <ele>25.6123</ele>
        <time>2013-05-25T17:03:22Z</time>
      </trkpt>
      <trkpt lat="59.9059235" lon="17.8410429">
        <ele>22.2476</ele>
        <time>2013-05-25T17:03:23Z</time>
      </trkpt>
      <trkpt lat="59.9059889" lon="17.8409548">
        <ele>20.325</ele>
        <time>2013-05-25T17:03:24Z</time>
      </trkpt>
      <trkpt lat="59.9060488" lon="17.8408595">
        <ele>18.4023</ele>
        <time>2013-05-25T17:03:25Z</time>
      </trkpt>
      <trkpt lat="59.9061085" lon="17.8407537">
        <ele>17.4412</ele>
        <time>2013-05-25T17:03:26Z</time>
      </trkpt>
      <trkpt lat="59.9061701" lon="17.8406577">
        <ele>16.9604</ele>
        <time>2013-05-25T17:03:27Z</time>
      </trkpt>
      <trkpt lat="59.906228" lon="17.8405583">
        <ele>16.4797</ele>
        <time>2013-05-25T17:03:28Z</time>
      </trkpt>
      <trkpt lat="59.9062867" lon="17.8404585">
        <ele>15.999</ele>
        <time>2013-05-25T17:03:29Z</time>
      </trkpt>
      <trkpt lat="59.9063489" lon="17.8403783">
        <ele>16.4797</ele>
        <time>2013-05-25T17:03:30Z</time>
      </trkpt>
      <trkpt lat="59.9064109" lon="17.8403041">
        <ele>15.0377</ele>
        <time>2013-05-25T17:03:31Z</time>
      </trkpt>
      <trkpt lat="59.9064753" lon="17.8402562">
        <ele>14.557</ele>
        <time>2013-05-25T17:03:32Z</time>
      </trkpt>
      <trkpt lat="59.9065388" lon="17.8402021">
        <ele>14.557</ele>
        <time>2013-05-25T17:03:33Z</time>
      </trkpt>
      <trkpt lat="59.906597" lon="17.8401362">
        <ele>14.557</ele>
        <time>2013-05-25T17:03:34Z</time>
      </trkpt>
      <trkpt lat="59.906654" lon="17.8400864">
        <ele>13.1151</ele>
        <time>2013-05-25T17:03:35Z</time>
      </trkpt>
      <trkpt lat="59.9067203" lon="17.8400424">
        <ele>13.1151</ele>
        <time>2013-05-25T17:03:36Z</time>
      </trkpt>
      <trkpt lat="59.9067921" lon="17.839998">
        <ele>14.557</ele>
        <time>2013-05-25T17:03:37Z</time>
      </trkpt>
      <trkpt lat="59.9068644" lon="17.8399549">
        <ele>16.9604</ele>
        <time>2013-05-25T17:03:38Z</time>
      </trkpt>
      <trkpt lat="59.9069134" lon="17.8398952">
        <ele>15.999</ele>
        <time>2013-05-25T17:03:39Z</time>
      </trkpt>
      <trkpt lat="59.9069653" lon="17.8398494">
        <ele>15.999</ele>
        <time>2013-05-25T17:03:40Z</time>
      </trkpt>
      <trkpt lat="59.9070148" lon="17.8398089">
        <ele>15.5184</ele>
        <time>2013-05-25T17:03:41Z</time>
      </trkpt>
      <trkpt lat="59.9070604" lon="17.8397715">
        <ele>16.4797</ele>
        <time>2013-05-25T17:03:42Z</time>
      </trkpt>
      <trkpt lat="59.9071046" lon="17.8397291">
        <ele>15.5184</ele>
        <time>2013-05-25T17:03:43Z</time>
      </trkpt>
      <trkpt lat="59.9071672" lon="17.8396965">
        <ele>15.999</ele>
        <time>2013-05-25T17:03:44Z</time>
      </trkpt>
      <trkpt lat="59.9072304" lon="17.8396528">
        <ele>17.4412</ele>
        <time>2013-05-25T17:03:45Z</time>
      </trkpt>
      <trkpt lat="59.9072829" lon="17.8396041">
        <ele>17.9218</ele>
        <time>2013-05-25T17:03:46Z</time>
      </trkpt>
      <trkpt lat="59.9073321" lon="17.839557">
        <ele>16.4797</ele>
        <time>2013-05-25T17:03:47Z</time>
      </trkpt>
      <trkpt lat="59.9073814" lon="17.8395236">
        <ele>17.9218</ele>
        <time>2013-05-25T17:03:48Z</time>
      </trkpt>
      <trkpt lat="59.9074279" lon="17.8394928">
        <ele>18.8831</ele>
        <time>2013-05-25T17:03:49Z</time>
      </trkpt>
      <trkpt lat="59.9074645" lon="17.839454">
        <ele>17.9218</ele>
        <time>2013-05-25T17:03:50Z</time>
      </trkpt>
      <trkpt lat="59.9075061" lon="17.8394197">
        <ele>18.8831</ele>
        <time>2013-05-25T17:03:51Z</time>
      </trkpt>
      <trkpt lat="59.907547" lon="17.8393872">
        <ele>19.8444</ele>
        <time>2013-05-25T17:03:52Z</time>
      </trkpt>
      <trkpt lat="59.9075828" lon="17.8393472">
        <ele>19.8444</ele>
        <time>2013-05-25T17:03:53Z</time>
      </trkpt>
      <trkpt lat="59.9076196" lon="17.8393012">
        <ele>19.8444</ele>
        <time>2013-05-25T17:03:54Z</time>
      </trkpt>
      <trkpt lat="59.9076596" lon="17.8392499">
        <ele>19.3638</ele>
        <time>2013-05-25T17:03:55Z</time>
      </trkpt>
      <trkpt lat="59.907705" lon="17.8391917">
        <ele>19.8444</ele>
        <time>2013-05-25T17:03:56Z</time>
      </trkpt>
      <trkpt lat="59.9077541" lon="17.8391324">
        <ele>20.325</ele>
        <time>2013-05-25T17:03:57Z</time>
      </trkpt>
      <trkpt lat="59.907804" lon="17.8390667">
        <ele>20.325</ele>
        <time>2013-05-25T17:03:58Z</time>
      </trkpt>
      <trkpt lat="59.9078604" lon="17.8390112">
        <ele>20.8057</ele>
        <time>2013-05-25T17:03:59Z</time>
      </trkpt>
      <trkpt lat="59.9079214" lon="17.8389557">
        <ele>22.2476</ele>
        <time>2013-05-25T17:04:00Z</time>
      </trkpt>
      <trkpt lat="59.9079837" lon="17.8388998">
        <ele>23.209</ele>
        <time>2013-05-25T17:04:01Z</time>
      </trkpt>
      <trkpt lat="59.9080484" lon="17.8388521">
        <ele>24.1703</ele>
        <time>2013-05-25T17:04:02Z</time>
      </trkpt>
      <trkpt lat="59.9081158" lon="17.8388148">
        <ele>24.1703</ele>
        <time>2013-05-25T17:04:03Z</time>
      </trkpt>
      <trkpt lat="59.9081802" lon="17.8387916">
        <ele>23.209</ele>
        <time>2013-05-25T17:04:04Z</time>
      </trkpt>
      <trkpt lat="59.9082488" lon="17.8387752">
        <ele>23.6896</ele>
        <time>2013-05-25T17:04:05Z</time>
      </trkpt>
      <trkpt lat="59.9083157" lon="17.8387752">
        <ele>24.1703</ele>
        <time>2013-05-25T17:04:06Z</time>
      </trkpt>
      <trkpt lat="59.9083882" lon="17.8387811">
        <ele>25.1317</ele>
        <time>2013-05-25T17:04:07Z</time>
      </trkpt>
      <trkpt lat="59.9084601" lon="17.8387944">
        <ele>26.0929</ele>
        <time>2013-05-25T17:04:08Z</time>
      </trkpt>
      <trkpt lat="59.9085345" lon="17.8388221">
        <ele>26.5736</ele>
        <time>2013-05-25T17:04:09Z</time>
      </trkpt>
      <trkpt lat="59.9086064" lon="17.8388671">
        <ele>27.0543</ele>
        <time>2013-05-25T17:04:10Z</time>
      </trkpt>
      <trkpt lat="59.9086659" lon="17.83892">
        <ele>24.651</ele>
        <time>2013-05-25T17:04:11Z</time>
      </trkpt>
      <trkpt lat="59.9087234" lon="17.8389858">
        <ele>21.767</ele>
        <time>2013-05-25T17:04:12Z</time>
      </trkpt>
      <trkpt lat="59.9087826" lon="17.8390661">
        <ele>19.3638</ele>
        <time>2013-05-25T17:04:13Z</time>
      </trkpt>
      <trkpt lat="59.9088503" lon="17.8391686">
        <ele>19.3638</ele>
        <time>2013-05-25T17:04:14Z</time>
      </trkpt>
      <trkpt lat="59.9089108" lon="17.8392853">
        <ele>19.8444</ele>
        <time>2013-05-25T17:04:15Z</time>
      </trkpt>
      <trkpt lat="59.9089643" lon="17.8394101">
        <ele>19.8444</ele>
        <time>2013-05-25T17:04:16Z</time>
      </trkpt>
      <trkpt lat="59.9090161" lon="17.8395407">
        <ele>18.8831</ele>
        <time>2013-05-25T17:04:17Z</time>
      </trkpt>
      <trkpt lat="59.9090633" lon="17.8396764">
        <ele>17.9218</ele>
        <time>2013-05-25T17:04:18Z</time>
      </trkpt>
      <trkpt lat="59.9091109" lon="17.8398172">
        <ele>17.4412</ele>
        <time>2013-05-25T17:04:19Z</time>
      </trkpt>
      <trkpt lat="59.9091601" lon="17.8399573">
        <ele>16.4797</ele>
        <time>2013-05-25T17:04:20Z</time>
      </trkpt>
      <trkpt lat="59.909212" lon="17.8400969">
        <ele>15.999</ele>
        <time>2013-05-25T17:04:21Z</time>
      </trkpt>
      <trkpt lat="59.9092636" lon="17.8402373">
        <ele>15.5184</ele>
        <time>2013-05-25T17:04:22Z</time>
      </trkpt>
      <trkpt lat="59.9093146" lon="17.8403765">
        <ele>15.0377</ele>
        <time>2013-05-25T17:04:23Z</time>
      </trkpt>
      <trkpt lat="59.9093645" lon="17.8405121">
        <ele>14.557</ele>
        <time>2013-05-25T17:04:24Z</time>
      </trkpt>
      <trkpt lat="59.9094135" lon="17.8406445">
        <ele>14.557</ele>
        <time>2013-05-25T17:04:25Z</time>
      </trkpt>
      <trkpt lat="59.9094588" lon="17.8407776">
        <ele>14.0764</ele>
        <time>2013-05-25T17:04:26Z</time>
      </trkpt>
      <trkpt lat="59.9094989" lon="17.8409129">
        <ele>13.5958</ele>
        <time>2013-05-25T17:04:27Z</time>
      </trkpt>
      <trkpt lat="59.9095356" lon="17.8410531">
        <ele>12.6344</ele>
        <time>2013-05-25T17:04:28Z</time>
      </trkpt>
      <trkpt lat="59.9095614" lon="17.8412044">
        <ele>12.1538</ele>
        <time>2013-05-25T17:04:29Z</time>
      </trkpt>
      <trkpt lat="59.9095845" lon="17.8413633">
        <ele>12.6344</ele>
        <time>2013-05-25T17:04:30Z</time>
      </trkpt>
      <trkpt lat="59.9096024" lon="17.8415307">
        <ele>12.1538</ele>
        <time>2013-05-25T17:04:31Z</time>
      </trkpt>
      <trkpt lat="59.9096117" lon="17.841699">
        <ele>12.1538</ele>
        <time>2013-05-25T17:04:32Z</time>
      </trkpt>
      <trkpt lat="59.909614" lon="17.8418647">
        <ele>12.1538</ele>
        <time>2013-05-25T17:04:33Z</time>
      </trkpt>
      <trkpt lat="59.9096108" lon="17.8420253">
        <ele>13.1151</ele>
        <time>2013-05-25T17:04:34Z</time>
      </trkpt>
      <trkpt lat="59.9096021" lon="17.8421819">
        <ele>13.5958</ele>
        <time>2013-05-25T17:04:35Z</time>
      </trkpt>
      <trkpt lat="59.9095928" lon="17.8423332">
        <ele>14.0764</ele>
        <time>2013-05-25T17:04:36Z</time>
      </trkpt>
      <trkpt lat="59.9095854" lon="17.8424808">
        <ele>14.557</ele>
        <time>2013-05-25T17:04:37Z</time>
      </trkpt>
      <trkpt lat="59.9095807" lon="17.8426269">
        <ele>15.0377</ele>
        <time>2013-05-25T17:04:38Z</time>
      </trkpt>
      <trkpt lat="59.9095843" lon="17.8427746">
        <ele>15.5184</ele>
        <time>2013-05-25T17:04:39Z</time>
      </trkpt>
      <trkpt lat="59.9095989" lon="17.8429215">
        <ele>15.5184</ele>
        <time>2013-05-25T17:04:40Z</time>
      </trkpt>
      <trkpt lat="59.9096311" lon="17.8430537">
        <ele>15.999</ele>
        <time>2013-05-25T17:04:41Z</time>
      </trkpt>
      <trkpt lat="59.9096805" lon="17.8431524">
        <ele>16.4797</ele>
        <time>2013-05-25T17:04:42Z</time>
      </trkpt>
      <trkpt lat="59.9097408" lon="17.8432309">
        <ele>16.9604</ele>
        <time>2013-05-25T17:04:43Z</time>
      </trkpt>
      <trkpt lat="59.9098087" lon="17.8432909">
        <ele>17.9218</ele>
        <time>2013-05-25T17:04:44Z</time>
      </trkpt>
      <trkpt lat="59.909873" lon="17.8433486">
        <ele>18.4023</ele>
        <time>2013-05-25T17:04:45Z</time>
      </trkpt>
      <trkpt lat="59.9099483" lon="17.8434179">
        <ele>19.3638</ele>
        <time>2013-05-25T17:04:46Z</time>
      </trkpt>
      <trkpt lat="59.910011" lon="17.8434838">
        <ele>19.8444</ele>
        <time>2013-05-25T17:04:47Z</time>
      </trkpt>
      <trkpt lat="59.9100874" lon="17.8435546">
        <ele>20.325</ele>
        <time>2013-05-25T17:04:48Z</time>
      </trkpt>
      <trkpt lat="59.9101629" lon="17.8436183">
        <ele>20.8057</ele>
        <time>2013-05-25T17:04:49Z</time>
      </trkpt>
      <trkpt lat="59.9102327" lon="17.843682">
        <ele>21.767</ele>
        <time>2013-05-25T17:04:50Z</time>
      </trkpt>
      <trkpt lat="59.9103048" lon="17.8437419">
        <ele>22.7283</ele>
        <time>2013-05-25T17:04:51Z</time>
      </trkpt>
      <trkpt lat="59.9103775" lon="17.8438056">
        <ele>23.209</ele>
        <time>2013-05-25T17:04:52Z</time>
      </trkpt>
      <trkpt lat="59.9104598" lon="17.8438637">
        <ele>24.651</ele>
        <time>2013-05-25T17:04:53Z</time>
      </trkpt>
      <trkpt lat="59.9105406" lon="17.8439177">
        <ele>26.0929</ele>
        <time>2013-05-25T17:04:54Z</time>
      </trkpt>
      <trkpt lat="59.9106018" lon="17.8439638">
        <ele>26.5736</ele>
        <time>2013-05-25T17:04:55Z</time>
      </trkpt>
      <trkpt lat="59.9106765" lon="17.8440245">
        <ele>27.5349</ele>
        <time>2013-05-25T17:04:56Z</time>
      </trkpt>
      <trkpt lat="59.9107497" lon="17.8440844">
        <ele>28.4962</ele>
        <time>2013-05-25T17:04:57Z</time>
      </trkpt>
      <trkpt lat="59.9108203" lon="17.8441487">
        <ele>28.4962</ele>
        <time>2013-05-25T17:04:58Z</time>
      </trkpt>
      <trkpt lat="59.9108944" lon="17.8442227">
        <ele>29.9381</ele>
        <time>2013-05-25T17:04:59Z</time>
      </trkpt>
      <trkpt lat="59.9109717" lon="17.8442859">
        <ele>30.8995</ele>
        <time>2013-05-25T17:05:00Z</time>
      </trkpt>
      <trkpt lat="59.9110468" lon="17.8443382">
        <ele>30.8995</ele>
        <time>2013-05-25T17:05:01Z</time>
      </trkpt>
      <trkpt lat="59.9111234" lon="17.8443678">
        <ele>30.4188</ele>
        <time>2013-05-25T17:05:02Z</time>
      </trkpt>
      <trkpt lat="59.9112105" lon="17.8443928">
        <ele>31.8607</ele>
        <time>2013-05-25T17:05:03Z</time>
      </trkpt>
      <trkpt lat="59.9112829" lon="17.8443989">
        <ele>31.3801</ele>
        <time>2013-05-25T17:05:04Z</time>
      </trkpt>
      <trkpt lat="59.9113571" lon="17.8444098">
        <ele>31.8607</ele>
        <time>2013-05-25T17:05:05Z</time>
      </trkpt>
      <trkpt lat="59.9114319" lon="17.8444203">
        <ele>32.8223</ele>
        <time>2013-05-25T17:05:06Z</time>
      </trkpt>
      <trkpt lat="59.911492" lon="17.8444192">
        <ele>32.8223</ele>
        <time>2013-05-25T17:05:07Z</time>
      </trkpt>
      <trkpt lat="59.9115422" lon="17.8444115">
        <ele>31.8607</ele>
        <time>2013-05-25T17:05:08Z</time>
      </trkpt>
      <trkpt lat="59.9115943" lon="17.8443964">
        <ele>31.3801</ele>
        <time>2013-05-25T17:05:09Z</time>
      </trkpt>
      <trkpt lat="59.9116423" lon="17.8443824">
        <ele>29.4575</ele>
        <time>2013-05-25T17:05:10Z</time>
      </trkpt>
      <trkpt lat="59.9116933" lon="17.8443723">
        <ele>28.0155</ele>
        <time>2013-05-25T17:05:11Z</time>
      </trkpt>
      <trkpt lat="59.9117424" lon="17.844361">
        <ele>27.5349</ele>
        <time>2013-05-25T17:05:12Z</time>
      </trkpt>
      <trkpt lat="59.9117906" lon="17.8443399">
        <ele>26.0929</ele>
        <time>2013-05-25T17:05:13Z</time>
      </trkpt>
      <trkpt lat="59.9118391" lon="17.8443212">
        <ele>24.651</ele>
        <time>2013-05-25T17:05:14Z</time>
      </trkpt>
      <trkpt lat="59.9118869" lon="17.8442998">
        <ele>23.209</ele>
        <time>2013-05-25T17:05:15Z</time>
      </trkpt>
      <trkpt lat="59.9119347" lon="17.8442664">
        <ele>21.767</ele>
        <time>2013-05-25T17:05:16Z</time>
      </trkpt>
      <trkpt lat="59.9119872" lon="17.84423">
        <ele>20.8057</ele>
        <time>2013-05-25T17:05:17Z</time>
      </trkpt>
      <trkpt lat="59.9120411" lon="17.8441864">
        <ele>20.325</ele>
        <time>2013-05-25T17:05:18Z</time>
      </trkpt>
      <trkpt lat="59.9120919" lon="17.844153">
        <ele>19.3638</ele>
        <time>2013-05-25T17:05:19Z</time>
      </trkpt>
      <trkpt lat="59.9121428" lon="17.8441072">
        <ele>18.4023</ele>
        <time>2013-05-25T17:05:20Z</time>
      </trkpt>
      <trkpt lat="59.9121926" lon="17.8440503">
        <ele>17.4412</ele>
        <time>2013-05-25T17:05:21Z</time>
      </trkpt>
      <trkpt lat="59.9122407" lon="17.8439926">
        <ele>16.9604</ele>
        <time>2013-05-25T17:05:22Z</time>
      </trkpt>
      <trkpt lat="59.9122852" lon="17.843932">
        <ele>15.5184</ele>
        <time>2013-05-25T17:05:23Z</time>
      </trkpt>
      <trkpt lat="59.9123299" lon="17.8438738">
        <ele>14.0764</ele>
        <time>2013-05-25T17:05:24Z</time>
      </trkpt>
      <trkpt lat="59.9123754" lon="17.843812">
        <ele>12.1538</ele>
        <time>2013-05-25T17:05:25Z</time>
      </trkpt>
      <trkpt lat="59.9124267" lon="17.8437585">
        <ele>12.6344</ele>
        <time>2013-05-25T17:05:26Z</time>
      </trkpt>
      <trkpt lat="59.9124811" lon="17.8437046">
        <ele>14.0764</ele>
        <time>2013-05-25T17:05:27Z</time>
      </trkpt>
      <trkpt lat="59.9125306" lon="17.8436378">
        <ele>12.6344</ele>
        <time>2013-05-25T17:05:28Z</time>
      </trkpt>
      <trkpt lat="59.9125861" lon="17.8435887">
        <ele>13.1151</ele>
        <time>2013-05-25T17:05:29Z</time>
      </trkpt>
      <trkpt lat="59.912641" lon="17.8435444">
        <ele>13.5958</ele>
        <time>2013-05-25T17:05:30Z</time>
      </trkpt>
      <trkpt lat="59.912694" lon="17.8435038">
        <ele>12.6344</ele>
        <time>2013-05-25T17:05:31Z</time>
      </trkpt>
      <trkpt lat="59.91275" lon="17.8434717">
        <ele>12.1538</ele>
        <time>2013-05-25T17:05:32Z</time>
      </trkpt>
      <trkpt lat="59.9128039" lon="17.8434415">
        <ele>10.7118</ele>
        <time>2013-05-25T17:05:33Z</time>
      </trkpt>
      <trkpt lat="59.9128599" lon="17.8434122">
        <ele>10.2312</ele>
        <time>2013-05-25T17:05:34Z</time>
      </trkpt>
      <trkpt lat="59.9129179" lon="17.843389">
        <ele>10.2312</ele>
        <time>2013-05-25T17:05:35Z</time>
      </trkpt>
      <trkpt lat="59.9129748" lon="17.8433682">
        <ele>9.75061</ele>
        <time>2013-05-25T17:05:36Z</time>
      </trkpt>
      <trkpt lat="59.9130349" lon="17.8433539">
        <ele>9.75061</ele>
        <time>2013-05-25T17:05:37Z</time>
      </trkpt>
      <trkpt lat="59.9130963" lon="17.8433426">
        <ele>9.2699</ele>
        <time>2013-05-25T17:05:38Z</time>
      </trkpt>
      <trkpt lat="59.913158" lon="17.8433298">
        <ele>8.78918</ele>
        <time>2013-05-25T17:05:39Z</time>
      </trkpt>
      <trkpt lat="59.9132206" lon="17.8433158">
        <ele>8.78918</ele>
        <time>2013-05-25T17:05:40Z</time>
      </trkpt>
      <trkpt lat="59.9132829" lon="17.8433001">
        <ele>8.78918</ele>
        <time>2013-05-25T17:05:41Z</time>
      </trkpt>
      <trkpt lat="59.9133466" lon="17.8432843">
        <ele>9.2699</ele>
        <time>2013-05-25T17:05:42Z</time>
      </trkpt>
      <trkpt lat="59.9134068" lon="17.8432648">
        <ele>9.2699</ele>
        <time>2013-05-25T17:05:43Z</time>
      </trkpt>
      <trkpt lat="59.9134638" lon="17.8432402">
        <ele>9.2699</ele>
        <time>2013-05-25T17:05:44Z</time>
      </trkpt>
      <trkpt lat="59.9135166" lon="17.843206">
        <ele>9.2699</ele>
        <time>2013-05-25T17:05:45Z</time>
      </trkpt>
      <trkpt lat="59.91357" lon="17.8431788">
        <ele>8.78918</ele>
        <time>2013-05-25T17:05:46Z</time>
      </trkpt>
      <trkpt lat="59.9136233" lon="17.8431402">
        <ele>8.78918</ele>
        <time>2013-05-25T17:05:47Z</time>
      </trkpt>
      <trkpt lat="59.913676" lon="17.843097">
        <ele>8.30859</ele>
        <time>2013-05-25T17:05:48Z</time>
      </trkpt>
      <trkpt lat="59.9137305" lon="17.8430536">
        <ele>8.30859</ele>
        <time>2013-05-25T17:05:49Z</time>
      </trkpt>
      <trkpt lat="59.9137852" lon="17.8430018">
        <ele>8.30859</ele>
        <time>2013-05-25T17:05:50Z</time>
      </trkpt>
      <trkpt lat="59.9138427" lon="17.8429501">
        <ele>8.78918</ele>
        <time>2013-05-25T17:05:51Z</time>
      </trkpt>
      <trkpt lat="59.9139" lon="17.8428976">
        <ele>9.2699</ele>
        <time>2013-05-25T17:05:52Z</time>
      </trkpt>
      <trkpt lat="59.9139593" lon="17.842847">
        <ele>9.75061</ele>
        <time>2013-05-25T17:05:53Z</time>
      </trkpt>
      <trkpt lat="59.9140194" lon="17.8427915">
        <ele>10.2312</ele>
        <time>2013-05-25T17:05:54Z</time>
      </trkpt>
      <trkpt lat="59.9140815" lon="17.8427297">
        <ele>10.2312</ele>
        <time>2013-05-25T17:05:55Z</time>
      </trkpt>
      <trkpt lat="59.9141448" lon="17.8426629">
        <ele>10.7118</ele>
        <time>2013-05-25T17:05:56Z</time>
      </trkpt>
      <trkpt lat="59.914207" lon="17.8425977">
        <ele>11.6732</ele>
        <time>2013-05-25T17:05:57Z</time>
      </trkpt>
      <trkpt lat="59.9142672" lon="17.842531">
        <ele>11.6732</ele>
        <time>2013-05-25T17:05:58Z</time>
      </trkpt>
      <trkpt lat="59.9143257" lon="17.8424598">
        <ele>11.1925</ele>
        <time>2013-05-25T17:05:59Z</time>
      </trkpt>
      <trkpt lat="59.9143841" lon="17.8423834">
        <ele>11.6732</ele>
        <time>2013-05-25T17:06:00Z</time>
      </trkpt>
      <trkpt lat="59.9144412" lon="17.8423051">
        <ele>11.1925</ele>
        <time>2013-05-25T17:06:01Z</time>
      </trkpt>
      <trkpt lat="59.914503" lon="17.8422324">
        <ele>11.1925</ele>
        <time>2013-05-25T17:06:02Z</time>
      </trkpt>
      <trkpt lat="59.914565" lon="17.8421641">
        <ele>11.1925</ele>
        <time>2013-05-25T17:06:03Z</time>
      </trkpt>
      <trkpt lat="59.9146282" lon="17.8421">
        <ele>11.1925</ele>
        <time>2013-05-25T17:06:04Z</time>
      </trkpt>
      <trkpt lat="59.9146882" lon="17.8420392">
        <ele>11.1925</ele>
        <time>2013-05-25T17:06:05Z</time>
      </trkpt>
      <trkpt lat="59.9147485" lon="17.8419845">
        <ele>11.6732</ele>
        <time>2013-05-25T17:06:06Z</time>
      </trkpt>
      <trkpt lat="59.9148067" lon="17.841942">
        <ele>11.1925</ele>
        <time>2013-05-25T17:06:07Z</time>
      </trkpt>
      <trkpt lat="59.9148651" lon="17.8418986">
        <ele>10.7118</ele>
        <time>2013-05-25T17:06:08Z</time>
      </trkpt>
      <trkpt lat="59.9149287" lon="17.8418629">
        <ele>11.1925</ele>
        <time>2013-05-25T17:06:09Z</time>
      </trkpt>
      <trkpt lat="59.9149889" lon="17.8418329">
        <ele>10.7118</ele>
        <time>2013-05-25T17:06:10Z</time>
      </trkpt>
      <trkpt lat="59.9150525" lon="17.8418115">
        <ele>11.1925</ele>
        <time>2013-05-25T17:06:11Z</time>
      </trkpt>
      <trkpt lat="59.9151111" lon="17.8417944">
        <ele>10.2312</ele>
        <time>2013-05-25T17:06:12Z</time>
      </trkpt>
      <trkpt lat="59.9151738" lon="17.8417834">
        <ele>10.2312</ele>
        <time>2013-05-25T17:06:13Z</time>
      </trkpt>
      <trkpt lat="59.9152355" lon="17.8417732">
        <ele>10.2312</ele>
        <time>2013-05-25T17:06:14Z</time>
      </trkpt>
      <trkpt lat="59.9152978" lon="17.8417679">
        <ele>10.7118</ele>
        <time>2013-05-25T17:06:15Z</time>
      </trkpt>
      <trkpt lat="59.9153532" lon="17.841769">
        <ele>9.2699</ele>
        <time>2013-05-25T17:06:16Z</time>
      </trkpt>
      <trkpt lat="59.9154095" lon="17.8417815">
        <ele>9.2699</ele>
        <time>2013-05-25T17:06:17Z</time>
      </trkpt>
      <trkpt lat="59.9154679" lon="17.8417974">
        <ele>9.75061</ele>
        <time>2013-05-25T17:06:18Z</time>
      </trkpt>
      <trkpt lat="59.9155249" lon="17.8418108">
        <ele>9.75061</ele>
        <time>2013-05-25T17:06:19Z</time>
      </trkpt>
      <trkpt lat="59.9155786" lon="17.8418294">
        <ele>8.30859</ele>
        <time>2013-05-25T17:06:20Z</time>
      </trkpt>
      <trkpt lat="59.9156354" lon="17.8418343">
        <ele>8.30859</ele>
        <time>2013-05-25T17:06:21Z</time>
      </trkpt>
      <trkpt lat="59.9156938" lon="17.8418377">
        <ele>8.30859</ele>
        <time>2013-05-25T17:06:22Z</time>
      </trkpt>
      <trkpt lat="59.9157496" lon="17.8418436">
        <ele>8.30859</ele>
        <time>2013-05-25T17:06:23Z</time>
      </trkpt>
      <trkpt lat="59.9158027" lon="17.8418436">
        <ele>8.30859</ele>
        <time>2013-05-25T17:06:24Z</time>
      </trkpt>
      <trkpt lat="59.915855" lon="17.8418488">
        <ele>8.30859</ele>
        <time>2013-05-25T17:06:25Z</time>
      </trkpt>
      <trkpt lat="59.9159045" lon="17.8418575">
        <ele>7.34717</ele>
        <time>2013-05-25T17:06:26Z</time>
      </trkpt>
      <trkpt lat="59.9159528" lon="17.8418732">
        <ele>6.86646</ele>
        <time>2013-05-25T17:06:27Z</time>
      </trkpt>
      <trkpt lat="59.9159995" lon="17.8418939">
        <ele>6.86646</ele>
        <time>2013-05-25T17:06:28Z</time>
      </trkpt>
      <trkpt lat="59.9160467" lon="17.8419259">
        <ele>7.34717</ele>
        <time>2013-05-25T17:06:29Z</time>
      </trkpt>
      <trkpt lat="59.9160895" lon="17.8419695">
        <ele>7.82788</ele>
        <time>2013-05-25T17:06:30Z</time>
      </trkpt>
      <trkpt lat="59.9161263" lon="17.8420144">
        <ele>7.82788</ele>
        <time>2013-05-25T17:06:31Z</time>
      </trkpt>
      <trkpt lat="59.9161593" lon="17.8420576">
        <ele>7.34717</ele>
        <time>2013-05-25T17:06:32Z</time>
      </trkpt>
      <trkpt lat="59.9161943" lon="17.8421053">
        <ele>7.82788</ele>
        <time>2013-05-25T17:06:33Z</time>
      </trkpt>
      <trkpt lat="59.9162278" lon="17.8421573">
        <ele>8.78918</ele>
        <time>2013-05-25T17:06:34Z</time>
      </trkpt>
      <trkpt lat="59.916257" lon="17.8422112">
        <ele>9.2699</ele>
        <time>2013-05-25T17:06:35Z</time>
      </trkpt>
      <trkpt lat="59.9162846" lon="17.8422623">
        <ele>9.75061</ele>
        <time>2013-05-25T17:06:36Z</time>
      </trkpt>
      <trkpt lat="59.9163128" lon="17.8423123">
        <ele>9.75061</ele>
        <time>2013-05-25T17:06:37Z</time>
      </trkpt>
      <trkpt lat="59.9163429" lon="17.8423647">
        <ele>10.7118</ele>
        <time>2013-05-25T17:06:38Z</time>
      </trkpt>
      <trkpt lat="59.9163728" lon="17.8424181">
        <ele>11.1925</ele>
        <time>2013-05-25T17:06:39Z</time>
      </trkpt>
      <trkpt lat="59.9164049" lon="17.842471">
        <ele>11.6732</ele>
        <time>2013-05-25T17:06:40Z</time>
      </trkpt>
      <trkpt lat="59.916439" lon="17.8425252">
        <ele>12.1538</ele>
        <time>2013-05-25T17:06:41Z</time>
      </trkpt>
      <trkpt lat="59.9164742" lon="17.8425754">
        <ele>12.6344</ele>
        <time>2013-05-25T17:06:42Z</time>
      </trkpt>
      <trkpt lat="59.9165122" lon="17.8426238">
        <ele>14.0764</ele>
        <time>2013-05-25T17:06:43Z</time>
      </trkpt>
      <trkpt lat="59.9165429" lon="17.842674">
        <ele>14.0764</ele>
        <time>2013-05-25T17:06:44Z</time>
      </trkpt>
      <trkpt lat="59.9165745" lon="17.8427248">
        <ele>14.0764</ele>
        <time>2013-05-25T17:06:45Z</time>
      </trkpt>
      <trkpt lat="59.9166079" lon="17.8427775">
        <ele>14.557</ele>
        <time>2013-05-25T17:06:46Z</time>
      </trkpt>
      <trkpt lat="59.9166431" lon="17.8428246">
        <ele>15.0377</ele>
        <time>2013-05-25T17:06:47Z</time>
      </trkpt>
      <trkpt lat="59.9166784" lon="17.8428677">
        <ele>15.5184</ele>
        <time>2013-05-25T17:06:48Z</time>
      </trkpt>
      <trkpt lat="59.9167136" lon="17.8429086">
        <ele>15.999</ele>
        <time>2013-05-25T17:06:49Z</time>
      </trkpt>
      <trkpt lat="59.9167495" lon="17.8429497">
        <ele>16.4797</ele>
        <time>2013-05-25T17:06:50Z</time>
      </trkpt>
      <trkpt lat="59.9167856" lon="17.8429895">
        <ele>16.9604</ele>
        <time>2013-05-25T17:06:51Z</time>
      </trkpt>
      <trkpt lat="59.9168224" lon="17.8430209">
        <ele>17.4412</ele>
        <time>2013-05-25T17:06:52Z</time>
      </trkpt>
      <trkpt lat="59.9168619" lon="17.8430422">
        <ele>17.4412</ele>
        <time>2013-05-25T17:06:53Z</time>
      </trkpt>
      <trkpt lat="59.9169039" lon="17.8430573">
        <ele>18.4023</ele>
        <time>2013-05-25T17:06:54Z</time>
      </trkpt>
      <trkpt lat="59.9169435" lon="17.8430621">
        <ele>18.4023</ele>
        <time>2013-05-25T17:06:55Z</time>
      </trkpt>
      <trkpt lat="59.9169839" lon="17.843048">
        <ele>17.9218</ele>
        <time>2013-05-25T17:06:56Z</time>
      </trkpt>
      <trkpt lat="59.9170286" lon="17.8430214">
        <ele>17.9218</ele>
        <time>2013-05-25T17:06:57Z</time>
      </trkpt>
      <trkpt lat="59.9170705" lon="17.8429989">
        <ele>17.9218</ele>
        <time>2013-05-25T17:06:58Z</time>
      </trkpt>
      <trkpt lat="59.9171153" lon="17.8429724">
        <ele>17.4412</ele>
        <time>2013-05-25T17:06:59Z</time>
      </trkpt>
      <trkpt lat="59.9171622" lon="17.8429449">
        <ele>17.4412</ele>
        <time>2013-05-25T17:07:00Z</time>
      </trkpt>
      <trkpt lat="59.9172086" lon="17.842905">
        <ele>17.4412</ele>
        <time>2013-05-25T17:07:01Z</time>
      </trkpt>
      <trkpt lat="59.917256" lon="17.84286">
        <ele>17.9218</ele>
        <time>2013-05-25T17:07:02Z</time>
      </trkpt>
      <trkpt lat="59.9173038" lon="17.8428119">
        <ele>18.4023</ele>
        <time>2013-05-25T17:07:03Z</time>
      </trkpt>
      <trkpt lat="59.9173477" lon="17.8427636">
        <ele>17.4412</ele>
        <time>2013-05-25T17:07:04Z</time>
      </trkpt>
      <trkpt lat="59.9173923" lon="17.8427253">
        <ele>17.4412</ele>
        <time>2013-05-25T17:07:05Z</time>
      </trkpt>
      <trkpt lat="59.9174374" lon="17.8426837">
        <ele>17.4412</ele>
        <time>2013-05-25T17:07:06Z</time>
      </trkpt>
      <trkpt lat="59.9174826" lon="17.8426429">
        <ele>18.4023</ele>
        <time>2013-05-25T17:07:07Z</time>
      </trkpt>
      <trkpt lat="59.9175273" lon="17.8426041">
        <ele>18.4023</ele>
        <time>2013-05-25T17:07:08Z</time>
      </trkpt>
      <trkpt lat="59.9175686" lon="17.8425635">
        <ele>18.4023</ele>
        <time>2013-05-25T17:07:09Z</time>
      </trkpt>
      <trkpt lat="59.9176094" lon="17.8425205">
        <ele>17.4412</ele>
        <time>2013-05-25T17:07:10Z</time>
      </trkpt>
      <trkpt lat="59.9176565" lon="17.8424797">
        <ele>17.9218</ele>
        <time>2013-05-25T17:07:11Z</time>
      </trkpt>
      <trkpt lat="59.917701" lon="17.8424327">
        <ele>17.9218</ele>
        <time>2013-05-25T17:07:12Z</time>
      </trkpt>
      <trkpt lat="59.9177496" lon="17.8423808">
        <ele>18.4023</ele>
        <time>2013-05-25T17:07:13Z</time>
      </trkpt>
      <trkpt lat="59.9177968" lon="17.8423274">
        <ele>17.9218</ele>
        <time>2013-05-25T17:07:14Z</time>
      </trkpt>
      <trkpt lat="59.9178502" lon="17.8422736">
        <ele>17.9218</ele>
        <time>2013-05-25T17:07:15Z</time>
      </trkpt>
      <trkpt lat="59.9179047" lon="17.8422183">
        <ele>18.4023</ele>
        <time>2013-05-25T17:07:16Z</time>
      </trkpt>
      <trkpt lat="59.9179607" lon="17.8421641">
        <ele>18.8831</ele>
        <time>2013-05-25T17:07:17Z</time>
      </trkpt>
      <trkpt lat="59.9180158" lon="17.8421097">
        <ele>19.3638</ele>
        <time>2013-05-25T17:07:18Z</time>
      </trkpt>
      <trkpt lat="59.9180647" lon="17.8420539">
        <ele>17.4412</ele>
        <time>2013-05-25T17:07:19Z</time>
      </trkpt>
      <trkpt lat="59.9181138" lon="17.8420007">
        <ele>15.5184</ele>
        <time>2013-05-25T17:07:20Z</time>
      </trkpt>
      <trkpt lat="59.9181642" lon="17.8419475">
        <ele>13.5958</ele>
        <time>2013-05-25T17:07:21Z</time>
      </trkpt>
      <trkpt lat="59.9182185" lon="17.8418928">
        <ele>13.1151</ele>
        <time>2013-05-25T17:07:22Z</time>
      </trkpt>
      <trkpt lat="59.9182772" lon="17.8418427">
        <ele>13.1151</ele>
        <time>2013-05-25T17:07:23Z</time>
      </trkpt>
      <trkpt lat="59.9183337" lon="17.8417904">
        <ele>12.6344</ele>
        <time>2013-05-25T17:07:24Z</time>
      </trkpt>
      <trkpt lat="59.91839" lon="17.8417353">
        <ele>12.1538</ele>
        <time>2013-05-25T17:07:25Z</time>
      </trkpt>
      <trkpt lat="59.9184507" lon="17.8416797">
        <ele>12.6344</ele>
        <time>2013-05-25T17:07:26Z</time>
      </trkpt>
      <trkpt lat="59.9185128" lon="17.8416355">
        <ele>13.1151</ele>
        <time>2013-05-25T17:07:27Z</time>
      </trkpt>
      <trkpt lat="59.9185729" lon="17.8415935">
        <ele>13.5958</ele>
        <time>2013-05-25T17:07:28Z</time>
      </trkpt>
      <trkpt lat="59.9186317" lon="17.8415546">
        <ele>13.5958</ele>
        <time>2013-05-25T17:07:29Z</time>
      </trkpt>
      <trkpt lat="59.9186897" lon="17.8415194">
        <ele>13.1151</ele>
        <time>2013-05-25T17:07:30Z</time>
      </trkpt>
      <trkpt lat="59.9187403" lon="17.8414772">
        <ele>12.1538</ele>
        <time>2013-05-25T17:07:31Z</time>
      </trkpt>
      <trkpt lat="59.918797" lon="17.8414405">
        <ele>12.1538</ele>
        <time>2013-05-25T17:07:32Z</time>
      </trkpt>
      <trkpt lat="59.9188496" lon="17.8414012">
        <ele>12.1538</ele>
        <time>2013-05-25T17:07:33Z</time>
      </trkpt>
      <trkpt lat="59.9189065" lon="17.8413648">
        <ele>12.6344</ele>
        <time>2013-05-25T17:07:34Z</time>
      </trkpt>
      <trkpt lat="59.9189614" lon="17.8413288">
        <ele>13.1151</ele>
        <time>2013-05-25T17:07:35Z</time>
      </trkpt>
      <trkpt lat="59.9190136" lon="17.8412905">
        <ele>13.1151</ele>
        <time>2013-05-25T17:07:36Z</time>
      </trkpt>
      <trkpt lat="59.9190679" lon="17.8412536">
        <ele>13.5958</ele>
        <time>2013-05-25T17:07:37Z</time>
      </trkpt>
      <trkpt lat="59.9191235" lon="17.8412214">
        <ele>13.5958</ele>
        <time>2013-05-25T17:07:38Z</time>
      </trkpt>
      <trkpt lat="59.9191773" lon="17.8411868">
        <ele>13.5958</ele>
        <time>2013-05-25T17:07:39Z</time>
      </trkpt>
      <trkpt lat="59.9192304" lon="17.8411526">
        <ele>13.5958</ele>
        <time>2013-05-25T17:07:40Z</time>
      </trkpt>
      <trkpt lat="59.9192846" lon="17.8411153">
        <ele>13.5958</ele>
        <time>2013-05-25T17:07:41Z</time>
      </trkpt>
      <trkpt lat="59.9193385" lon="17.8410768">
        <ele>13.5958</ele>
        <time>2013-05-25T17:07:42Z</time>
      </trkpt>
      <trkpt lat="59.9193935" lon="17.8410417">
        <ele>13.5958</ele>
        <time>2013-05-25T17:07:43Z</time>
      </trkpt>
      <trkpt lat="59.9194503" lon="17.841007">
        <ele>14.0764</ele>
        <time>2013-05-25T17:07:44Z</time>
      </trkpt>
      <trkpt lat="59.9195077" lon="17.8409672">
        <ele>14.0764</ele>
        <time>2013-05-25T17:07:45Z</time>
      </trkpt>
      <trkpt lat="59.9195653" lon="17.840934">
        <ele>14.0764</ele>
        <time>2013-05-25T17:07:46Z</time>
      </trkpt>
      <trkpt lat="59.9196237" lon="17.840904">
        <ele>14.0764</ele>
        <time>2013-05-25T17:07:47Z</time>
      </trkpt>
      <trkpt lat="59.9196808" lon="17.840877">
        <ele>13.5958</ele>
        <time>2013-05-25T17:07:48Z</time>
      </trkpt>
      <trkpt lat="59.9197399" lon="17.8408537">
        <ele>13.5958</ele>
        <time>2013-05-25T17:07:49Z</time>
      </trkpt>
      <trkpt lat="59.9197964" lon="17.8408328">
        <ele>13.5958</ele>
        <time>2013-05-25T17:07:50Z</time>
      </trkpt>
      <trkpt lat="59.9198524" lon="17.8408162">
        <ele>13.1151</ele>
        <time>2013-05-25T17:07:51Z</time>
      </trkpt>
      <trkpt lat="59.9199074" lon="17.8408035">
        <ele>12.6344</ele>
        <time>2013-05-25T17:07:52Z</time>
      </trkpt>
      <trkpt lat="59.9199643" lon="17.8407963">
        <ele>13.1151</ele>
        <time>2013-05-25T17:07:53Z</time>
      </trkpt>
      <trkpt lat="59.9200202" lon="17.840791">
        <ele>12.6344</ele>
        <time>2013-05-25T17:07:54Z</time>
      </trkpt>
      <trkpt lat="59.9200757" lon="17.8407898">
        <ele>12.6344</ele>
        <time>2013-05-25T17:07:55Z</time>
      </trkpt>
      <trkpt lat="59.9201316" lon="17.840788">
        <ele>12.6344</ele>
        <time>2013-05-25T17:07:56Z</time>
      </trkpt>
      <trkpt lat="59.9201868" lon="17.8407827">
        <ele>12.6344</ele>
        <time>2013-05-25T17:07:57Z</time>
      </trkpt>
      <trkpt lat="59.9202429" lon="17.8407834">
        <ele>12.6344</ele>
        <time>2013-05-25T17:07:58Z</time>
      </trkpt>
      <trkpt lat="59.9202962" lon="17.8407843">
        <ele>12.6344</ele>
        <time>2013-05-25T17:07:59Z</time>
      </trkpt>
      <trkpt lat="59.9203533" lon="17.8407827">
        <ele>12.6344</ele>
        <time>2013-05-25T17:08:00Z</time>
      </trkpt>
      <trkpt lat="59.9204103" lon="17.8407791">
        <ele>12.1538</ele>
        <time>2013-05-25T17:08:01Z</time>
      </trkpt>
      <trkpt lat="59.9204683" lon="17.8407739">
        <ele>11.6732</ele>
        <time>2013-05-25T17:08:02Z</time>
      </trkpt>
      <trkpt lat="59.9205288" lon="17.8407678">
        <ele>12.1538</ele>
        <time>2013-05-25T17:08:03Z</time>
      </trkpt>
      <trkpt lat="59.9205894" lon="17.8407593">
        <ele>11.6732</ele>
        <time>2013-05-25T17:08:04Z</time>
      </trkpt>
      <trkpt lat="59.9206527" lon="17.8407583">
        <ele>11.6732</ele>
        <time>2013-05-25T17:08:05Z</time>
      </trkpt>
      <trkpt lat="59.9207169" lon="17.8407579">
        <ele>11.6732</ele>
        <time>2013-05-25T17:08:06Z</time>
      </trkpt>
      <trkpt lat="59.920782" lon="17.8407618">
        <ele>11.1925</ele>
        <time>2013-05-25T17:08:07Z</time>
      </trkpt>
      <trkpt lat="59.920847" lon="17.840762">
        <ele>10.7118</ele>
        <time>2013-05-25T17:08:08Z</time>
      </trkpt>
      <trkpt lat="59.9209132" lon="17.8407646">
        <ele>10.7118</ele>
        <time>2013-05-25T17:08:09Z</time>
      </trkpt>
      <trkpt lat="59.9209806" lon="17.8407667">
        <ele>10.7118</ele>
        <time>2013-05-25T17:08:10Z</time>
      </trkpt>
      <trkpt lat="59.9210474" lon="17.8407682">
        <ele>10.7118</ele>
        <time>2013-05-25T17:08:11Z</time>
      </trkpt>
      <trkpt lat="59.9211137" lon="17.8407685">
        <ele>10.7118</ele>
        <time>2013-05-25T17:08:12Z</time>
      </trkpt>
      <trkpt lat="59.9211795" lon="17.8407668">
        <ele>11.1925</ele>
        <time>2013-05-25T17:08:13Z</time>
      </trkpt>
      <trkpt lat="59.9212447" lon="17.8407651">
        <ele>11.1925</ele>
        <time>2013-05-25T17:08:14Z</time>
      </trkpt>
      <trkpt lat="59.9213088" lon="17.8407614">
        <ele>11.6732</ele>
        <time>2013-05-25T17:08:15Z</time>
      </trkpt>
      <trkpt lat="59.9213703" lon="17.8407554">
        <ele>11.6732</ele>
        <time>2013-05-25T17:08:16Z</time>
      </trkpt>
      <trkpt lat="59.9214298" lon="17.8407474">
        <ele>11.6732</ele>
        <time>2013-05-25T17:08:17Z</time>
      </trkpt>
      <trkpt lat="59.9214878" lon="17.8407372">
        <ele>12.1538</ele>
        <time>2013-05-25T17:08:18Z</time>
      </trkpt>
      <trkpt lat="59.9215445" lon="17.8407272">
        <ele>12.1538</ele>
        <time>2013-05-25T17:08:19Z</time>
      </trkpt>
      <trkpt lat="59.9216011" lon="17.840717">
        <ele>12.1538</ele>
        <time>2013-05-25T17:08:20Z</time>
      </trkpt>
      <trkpt lat="59.9216576" lon="17.8407051">
        <ele>12.6344</ele>
        <time>2013-05-25T17:08:21Z</time>
      </trkpt>
      <trkpt lat="59.9217132" lon="17.8406921">
        <ele>12.6344</ele>
        <time>2013-05-25T17:08:22Z</time>
      </trkpt>
      <trkpt lat="59.921768" lon="17.8406779">
        <ele>13.1151</ele>
        <time>2013-05-25T17:08:23Z</time>
      </trkpt>
      <trkpt lat="59.9218223" lon="17.8406641">
        <ele>13.1151</ele>
        <time>2013-05-25T17:08:24Z</time>
      </trkpt>
      <trkpt lat="59.9218753" lon="17.8406497">
        <ele>13.1151</ele>
        <time>2013-05-25T17:08:25Z</time>
      </trkpt>
      <trkpt lat="59.921928" lon="17.8406354">
        <ele>13.5958</ele>
        <time>2013-05-25T17:08:26Z</time>
      </trkpt>
      <trkpt lat="59.9219807" lon="17.8406222">
        <ele>13.5958</ele>
        <time>2013-05-25T17:08:27Z</time>
      </trkpt>
      <trkpt lat="59.9220328" lon="17.8406091">
        <ele>13.5958</ele>
        <time>2013-05-25T17:08:28Z</time>
      </trkpt>
      <trkpt lat="59.9220851" lon="17.8405953">
        <ele>14.0764</ele>
        <time>2013-05-25T17:08:29Z</time>
      </trkpt>
      <trkpt lat="59.9221384" lon="17.8405807">
        <ele>14.0764</ele>
        <time>2013-05-25T17:08:30Z</time>
      </trkpt>
      <trkpt lat="59.9221925" lon="17.8405642">
        <ele>14.0764</ele>
        <time>2013-05-25T17:08:31Z</time>
      </trkpt>
      <trkpt lat="59.9222475" lon="17.8405446">
        <ele>14.557</ele>
        <time>2013-05-25T17:08:32Z</time>
      </trkpt>
      <trkpt lat="59.9223035" lon="17.840524">
        <ele>14.557</ele>
        <time>2013-05-25T17:08:33Z</time>
      </trkpt>
      <trkpt lat="59.9223601" lon="17.8405044">
        <ele>14.557</ele>
        <time>2013-05-25T17:08:34Z</time>
      </trkpt>
      <trkpt lat="59.922417" lon="17.8404814">
        <ele>14.557</ele>
        <time>2013-05-25T17:08:35Z</time>
      </trkpt>
      <trkpt lat="59.9224736" lon="17.840458">
        <ele>14.557</ele>
        <time>2013-05-25T17:08:36Z</time>
      </trkpt>
      <trkpt lat="59.9225296" lon="17.84043">
        <ele>15.0377</ele>
        <time>2013-05-25T17:08:37Z</time>
      </trkpt>
      <trkpt lat="59.922585" lon="17.8403989">
        <ele>15.0377</ele>
        <time>2013-05-25T17:08:38Z</time>
      </trkpt>
      <trkpt lat="59.9226404" lon="17.8403671">
        <ele>15.0377</ele>
        <time>2013-05-25T17:08:39Z</time>
      </trkpt>
      <trkpt lat="59.922696" lon="17.8403367">
        <ele>15.0377</ele>
        <time>2013-05-25T17:08:40Z</time>
      </trkpt>
      <trkpt lat="59.9227516" lon="17.8403077">
        <ele>15.5184</ele>
        <time>2013-05-25T17:08:41Z</time>
      </trkpt>
      <trkpt lat="59.9228076" lon="17.8402785">
        <ele>15.5184</ele>
        <time>2013-05-25T17:08:42Z</time>
      </trkpt>
      <trkpt lat="59.9228641" lon="17.8402493">
        <ele>15.5184</ele>
        <time>2013-05-25T17:08:43Z</time>
      </trkpt>
      <trkpt lat="59.9229206" lon="17.84022">
        <ele>15.5184</ele>
        <time>2013-05-25T17:08:44Z</time>
      </trkpt>
      <trkpt lat="59.9229774" lon="17.8401887">
        <ele>15.5184</ele>
        <time>2013-05-25T17:08:45Z</time>
      </trkpt>
      <trkpt lat="59.9230343" lon="17.8401566">
        <ele>15.5184</ele>
        <time>2013-05-25T17:08:46Z</time>
      </trkpt>
      <trkpt lat="59.923091" lon="17.8401243">
        <ele>15.5184</ele>
        <time>2013-05-25T17:08:47Z</time>
      </trkpt>
      <trkpt lat="59.9231478" lon="17.8400902">
        <ele>15.5184</ele>
        <time>2013-05-25T17:08:48Z</time>
      </trkpt>
      <trkpt lat="59.9232049" lon="17.8400587">
        <ele>15.5184</ele>
        <time>2013-05-25T17:08:49Z</time>
      </trkpt>
      <trkpt lat="59.9232624" lon="17.8400311">
        <ele>15.5184</ele>
        <time>2013-05-25T17:08:50Z</time>
      </trkpt>
      <trkpt lat="59.9233204" lon="17.84">
        <ele>15.999</ele>
        <time>2013-05-25T17:08:51Z</time>
      </trkpt>
      <trkpt lat="59.9233786" lon="17.8399652">
        <ele>15.999</ele>
        <time>2013-05-25T17:08:52Z</time>
      </trkpt>
      <trkpt lat="59.9234376" lon="17.8399311">
        <ele>15.999</ele>
        <time>2013-05-25T17:08:53Z</time>
      </trkpt>
      <trkpt lat="59.923497" lon="17.8399035">
        <ele>15.999</ele>
        <time>2013-05-25T17:08:54Z</time>
      </trkpt>
      <trkpt lat="59.9235559" lon="17.8398747">
        <ele>15.999</ele>
        <time>2013-05-25T17:08:55Z</time>
      </trkpt>
      <trkpt lat="59.9236141" lon="17.8398446">
        <ele>16.4797</ele>
        <time>2013-05-25T17:08:56Z</time>
      </trkpt>
      <trkpt lat="59.9236716" lon="17.839815">
        <ele>16.4797</ele>
        <time>2013-05-25T17:08:57Z</time>
      </trkpt>
      <trkpt lat="59.9237292" lon="17.8397914">
        <ele>16.4797</ele>
        <time>2013-05-25T17:08:58Z</time>
      </trkpt>
      <trkpt lat="59.9237868" lon="17.8397675">
        <ele>16.4797</ele>
        <time>2013-05-25T17:08:59Z</time>
      </trkpt>
      <trkpt lat="59.9238447" lon="17.8397408">
        <ele>16.4797</ele>
        <time>2013-05-25T17:09:00Z</time>
      </trkpt>
      <trkpt lat="59.923903" lon="17.8397156">
        <ele>16.4797</ele>
        <time>2013-05-25T17:09:01Z</time>
      </trkpt>
      <trkpt lat="59.9239623" lon="17.8396921">
        <ele>16.4797</ele>
        <time>2013-05-25T17:09:02Z</time>
      </trkpt>
      <trkpt lat="59.9240218" lon="17.8396695">
        <ele>16.4797</ele>
        <time>2013-05-25T17:09:03Z</time>
      </trkpt>
      <trkpt lat="59.9240813" lon="17.8396489">
        <ele>16.4797</ele>
        <time>2013-05-25T17:09:04Z</time>
      </trkpt>
      <trkpt lat="59.9241401" lon="17.8396296">
        <ele>16.4797</ele>
        <time>2013-05-25T17:09:05Z</time>
      </trkpt>
      <trkpt lat="59.924198" lon="17.8396105">
        <ele>16.4797</ele>
        <time>2013-05-25T17:09:06Z</time>
      </trkpt>
      <trkpt lat="59.9242554" lon="17.8395927">
        <ele>16.4797</ele>
        <time>2013-05-25T17:09:07Z</time>
      </trkpt>
      <trkpt lat="59.924313" lon="17.8395747">
        <ele>16.9604</ele>
        <time>2013-05-25T17:09:08Z</time>
      </trkpt>
      <trkpt lat="59.9243711" lon="17.8395575">
        <ele>16.9604</ele>
        <time>2013-05-25T17:09:09Z</time>
      </trkpt>
      <trkpt lat="59.9244291" lon="17.8395411">
        <ele>16.9604</ele>
        <time>2013-05-25T17:09:10Z</time>
      </trkpt>
      <trkpt lat="59.9244876" lon="17.839528">
        <ele>17.4412</ele>
        <time>2013-05-25T17:09:11Z</time>
      </trkpt>
      <trkpt lat="59.924546" lon="17.8395173">
        <ele>17.4412</ele>
        <time>2013-05-25T17:09:12Z</time>
      </trkpt>
      <trkpt lat="59.9246042" lon="17.8395073">
        <ele>17.4412</ele>
        <time>2013-05-25T17:09:13Z</time>
      </trkpt>
      <trkpt lat="59.9246626" lon="17.8394976">
        <ele>17.4412</ele>
        <time>2013-05-25T17:09:14Z</time>
      </trkpt>
      <trkpt lat="59.9247206" lon="17.8394888">
        <ele>17.9218</ele>
        <time>2013-05-25T17:09:15Z</time>
      </trkpt>
      <trkpt lat="59.9247776" lon="17.839481">
        <ele>17.9218</ele>
        <time>2013-05-25T17:09:16Z</time>
      </trkpt>
      <trkpt lat="59.9248336" lon="17.8394763">
        <ele>18.4023</ele>
        <time>2013-05-25T17:09:17Z</time>
      </trkpt>
      <trkpt lat="59.9248891" lon="17.8394742">
        <ele>18.4023</ele>
        <time>2013-05-25T17:09:18Z</time>
      </trkpt>
      <trkpt lat="59.9249443" lon="17.8394705">
        <ele>18.8831</ele>
        <time>2013-05-25T17:09:19Z</time>
      </trkpt>
      <trkpt lat="59.9249991" lon="17.839466">
        <ele>18.8831</ele>
        <time>2013-05-25T17:09:20Z</time>
      </trkpt>
      <trkpt lat="59.9250542" lon="17.839464">
        <ele>19.3638</ele>
        <time>2013-05-25T17:09:21Z</time>
      </trkpt>
      <trkpt lat="59.92511" lon="17.8394637">
        <ele>19.3638</ele>
        <time>2013-05-25T17:09:22Z</time>
      </trkpt>
      <trkpt lat="59.9251662" lon="17.8394642">
        <ele>19.3638</ele>
        <time>2013-05-25T17:09:23Z</time>
      </trkpt>
      <trkpt lat="59.9252232" lon="17.8394623">
        <ele>19.3638</ele>
        <time>2013-05-25T17:09:24Z</time>
      </trkpt>
      <trkpt lat="59.9252804" lon="17.8394617">
        <ele>19.3638</ele>
        <time>2013-05-25T17:09:25Z</time>
      </trkpt>
      <trkpt lat="59.9253374" lon="17.8394642">
        <ele>19.3638</ele>
        <time>2013-05-25T17:09:26Z</time>
      </trkpt>
      <trkpt lat="59.9253946" lon="17.8394697">
        <ele>19.3638</ele>
        <time>2013-05-25T17:09:27Z</time>
      </trkpt>
      <trkpt lat="59.9254526" lon="17.8394774">
        <ele>19.3638</ele>
        <time>2013-05-25T17:09:28Z</time>
      </trkpt>
      <trkpt lat="59.9255111" lon="17.8394852">
        <ele>19.3638</ele>
        <time>2013-05-25T17:09:29Z</time>
      </trkpt>
      <trkpt lat="59.9255702" lon="17.8394899">
        <ele>19.3638</ele>
        <time>2013-05-25T17:09:30Z</time>
      </trkpt>
      <trkpt lat="59.9256292" lon="17.8394886">
        <ele>19.3638</ele>
        <time>2013-05-25T17:09:31Z</time>
      </trkpt>
      <trkpt lat="59.9256872" lon="17.8394753">
        <ele>19.3638</ele>
        <time>2013-05-25T17:09:32Z</time>
      </trkpt>
      <trkpt lat="59.9257435" lon="17.8394513">
        <ele>18.8831</ele>
        <time>2013-05-25T17:09:33Z</time>
      </trkpt>
      <trkpt lat="59.9257975" lon="17.8394105">
        <ele>18.8831</ele>
        <time>2013-05-25T17:09:34Z</time>
      </trkpt>
      <trkpt lat="59.9258497" lon="17.8393562">
        <ele>19.3638</ele>
        <time>2013-05-25T17:09:35Z</time>
      </trkpt>
      <trkpt lat="59.9258991" lon="17.839293">
        <ele>19.3638</ele>
        <time>2013-05-25T17:09:36Z</time>
      </trkpt>
      <trkpt lat="59.9259447" lon="17.8392214">
        <ele>19.3638</ele>
        <time>2013-05-25T17:09:37Z</time>
      </trkpt>
      <trkpt lat="59.9259856" lon="17.8391422">
        <ele>19.3638</ele>
        <time>2013-05-25T17:09:38Z</time>
      </trkpt>
      <trkpt lat="59.926025" lon="17.8390619">
        <ele>19.3638</ele>
        <time>2013-05-25T17:09:39Z</time>
      </trkpt>
      <trkpt lat="59.9260643" lon="17.8389837">
        <ele>19.3638</ele>
        <time>2013-05-25T17:09:40Z</time>
      </trkpt>
      <trkpt lat="59.9261025" lon="17.838905">
        <ele>19.8444</ele>
        <time>2013-05-25T17:09:41Z</time>
      </trkpt>
      <trkpt lat="59.9261384" lon="17.8388241">
        <ele>19.8444</ele>
        <time>2013-05-25T17:09:42Z</time>
      </trkpt>
      <trkpt lat="59.9261736" lon="17.8387433">
        <ele>19.8444</ele>
        <time>2013-05-25T17:09:43Z</time>
      </trkpt>
      <trkpt lat="59.9262099" lon="17.8386656">
        <ele>20.325</ele>
        <time>2013-05-25T17:09:44Z</time>
      </trkpt>
      <trkpt lat="59.9262475" lon="17.8385863">
        <ele>20.325</ele>
        <time>2013-05-25T17:09:45Z</time>
      </trkpt>
      <trkpt lat="59.9262853" lon="17.838505">
        <ele>20.8057</ele>
        <time>2013-05-25T17:09:46Z</time>
      </trkpt>
      <trkpt lat="59.9263233" lon="17.8384262">
        <ele>20.8057</ele>
        <time>2013-05-25T17:09:47Z</time>
      </trkpt>
      <trkpt lat="59.9263612" lon="17.8383484">
        <ele>20.8057</ele>
        <time>2013-05-25T17:09:48Z</time>
      </trkpt>
      <trkpt lat="59.9263991" lon="17.8382709">
        <ele>21.2864</ele>
        <time>2013-05-25T17:09:49Z</time>
      </trkpt>
      <trkpt lat="59.9264372" lon="17.8381994">
        <ele>21.767</ele>
        <time>2013-05-25T17:09:50Z</time>
      </trkpt>
      <trkpt lat="59.9264767" lon="17.8381324">
        <ele>22.7283</ele>
        <time>2013-05-25T17:09:51Z</time>
      </trkpt>
      <trkpt lat="59.9265196" lon="17.8380669">
        <ele>23.6896</ele>
        <time>2013-05-25T17:09:52Z</time>
      </trkpt>
      <trkpt lat="59.9265646" lon="17.8380096">
        <ele>24.1703</ele>
        <time>2013-05-25T17:09:53Z</time>
      </trkpt>
      <trkpt lat="59.9266102" lon="17.8379618">
        <ele>24.651</ele>
        <time>2013-05-25T17:09:54Z</time>
      </trkpt>
      <trkpt lat="59.9266544" lon="17.8379233">
        <ele>25.1317</ele>
        <time>2013-05-25T17:09:55Z</time>
      </trkpt>
      <trkpt lat="59.9266937" lon="17.8378824">
        <ele>25.6123</ele>
        <time>2013-05-25T17:09:56Z</time>
      </trkpt>
      <trkpt lat="59.9267348" lon="17.8378456">
        <ele>26.5736</ele>
        <time>2013-05-25T17:09:57Z</time>
      </trkpt>
      <trkpt lat="59.9267776" lon="17.8378088">
        <ele>27.5349</ele>
        <time>2013-05-25T17:09:58Z</time>
      </trkpt>
      <trkpt lat="59.9268185" lon="17.8377854">
        <ele>28.0155</ele>
        <time>2013-05-25T17:09:59Z</time>
      </trkpt>
      <trkpt lat="59.9268593" lon="17.8377722">
        <ele>28.4962</ele>
        <time>2013-05-25T17:10:00Z</time>
      </trkpt>
      <trkpt lat="59.9269013" lon="17.8377454">
        <ele>28.9769</ele>
        <time>2013-05-25T17:10:01Z</time>
      </trkpt>
      <trkpt lat="59.9269484" lon="17.8376305">
        <ele>28.9769</ele>
        <time>2013-05-25T17:10:02Z</time>
      </trkpt>
      <trkpt lat="59.9269969" lon="17.8375913">
        <ele>29.9381</ele>
        <time>2013-05-25T17:10:03Z</time>
      </trkpt>
      <trkpt lat="59.9270444" lon="17.8375456">
        <ele>29.9381</ele>
        <time>2013-05-25T17:10:04Z</time>
      </trkpt>
      <trkpt lat="59.9270848" lon="17.8374866">
        <ele>30.4188</ele>
        <time>2013-05-25T17:10:05Z</time>
      </trkpt>
      <trkpt lat="59.9271232" lon="17.8374334">
        <ele>30.8995</ele>
        <time>2013-05-25T17:10:06Z</time>
      </trkpt>
      <trkpt lat="59.9271682" lon="17.8373752">
        <ele>31.3801</ele>
        <time>2013-05-25T17:10:07Z</time>
      </trkpt>
      <trkpt lat="59.9272159" lon="17.8373122">
        <ele>31.3801</ele>
        <time>2013-05-25T17:10:08Z</time>
      </trkpt>
      <trkpt lat="59.9272656" lon="17.8372586">
        <ele>31.8607</ele>
        <time>2013-05-25T17:10:09Z</time>
      </trkpt>
      <trkpt lat="59.9273149" lon="17.8372038">
        <ele>31.8607</ele>
        <time>2013-05-25T17:10:10Z</time>
      </trkpt>
      <trkpt lat="59.9273589" lon="17.837149">
        <ele>31.3801</ele>
        <time>2013-05-25T17:10:11Z</time>
      </trkpt>
      <trkpt lat="59.9274019" lon="17.8370972">
        <ele>30.8995</ele>
        <time>2013-05-25T17:10:12Z</time>
      </trkpt>
      <trkpt lat="59.9274453" lon="17.8370426">
        <ele>30.4188</ele>
        <time>2013-05-25T17:10:13Z</time>
      </trkpt>
      <trkpt lat="59.9274869" lon="17.8369873">
        <ele>29.9381</ele>
        <time>2013-05-25T17:10:14Z</time>
      </trkpt>
      <trkpt lat="59.9275266" lon="17.8369316">
        <ele>29.4575</ele>
        <time>2013-05-25T17:10:15Z</time>
      </trkpt>
      <trkpt lat="59.9275662" lon="17.8368733">
        <ele>29.4575</ele>
        <time>2013-05-25T17:10:16Z</time>
      </trkpt>
      <trkpt lat="59.9276091" lon="17.8368144">
        <ele>28.9769</ele>
        <time>2013-05-25T17:10:17Z</time>
      </trkpt>
      <trkpt lat="59.9276526" lon="17.8367495">
        <ele>28.9769</ele>
        <time>2013-05-25T17:10:18Z</time>
      </trkpt>
      <trkpt lat="59.9276951" lon="17.8366846">
        <ele>28.9769</ele>
        <time>2013-05-25T17:10:19Z</time>
      </trkpt>
      <trkpt lat="59.9277425" lon="17.8366144">
        <ele>28.4962</ele>
        <time>2013-05-25T17:10:20Z</time>
      </trkpt>
      <trkpt lat="59.9277893" lon="17.8365388">
        <ele>28.4962</ele>
        <time>2013-05-25T17:10:21Z</time>
      </trkpt>
      <trkpt lat="59.927836" lon="17.8364625">
        <ele>28.4962</ele>
        <time>2013-05-25T17:10:22Z</time>
      </trkpt>
      <trkpt lat="59.9278844" lon="17.8363795">
        <ele>28.0155</ele>
        <time>2013-05-25T17:10:23Z</time>
      </trkpt>
      <trkpt lat="59.9279328" lon="17.8362916">
        <ele>27.5349</ele>
        <time>2013-05-25T17:10:24Z</time>
      </trkpt>
      <trkpt lat="59.9279825" lon="17.8362054">
        <ele>27.0543</ele>
        <time>2013-05-25T17:10:25Z</time>
      </trkpt>
      <trkpt lat="59.9280337" lon="17.8361241">
        <ele>27.0543</ele>
        <time>2013-05-25T17:10:26Z</time>
      </trkpt>
      <trkpt lat="59.9280857" lon="17.836047">
        <ele>27.0543</ele>
        <time>2013-05-25T17:10:27Z</time>
      </trkpt>
      <trkpt lat="59.9281374" lon="17.8359707">
        <ele>27.0543</ele>
        <time>2013-05-25T17:10:28Z</time>
      </trkpt>
      <trkpt lat="59.9281885" lon="17.8358952">
        <ele>26.5736</ele>
        <time>2013-05-25T17:10:29Z</time>
      </trkpt>
      <trkpt lat="59.9282396" lon="17.8358221">
        <ele>26.5736</ele>
        <time>2013-05-25T17:10:30Z</time>
      </trkpt>
      <trkpt lat="59.9282912" lon="17.8357491">
        <ele>26.0929</ele>
        <time>2013-05-25T17:10:31Z</time>
      </trkpt>
      <trkpt lat="59.928342" lon="17.8356737">
        <ele>26.0929</ele>
        <time>2013-05-25T17:10:32Z</time>
      </trkpt>
      <trkpt lat="59.9283933" lon="17.8355979">
        <ele>26.0929</ele>
        <time>2013-05-25T17:10:33Z</time>
      </trkpt>
      <trkpt lat="59.9284457" lon="17.8355223">
        <ele>25.6123</ele>
        <time>2013-05-25T17:10:34Z</time>
      </trkpt>
      <trkpt lat="59.9284976" lon="17.8354435">
        <ele>25.6123</ele>
        <time>2013-05-25T17:10:35Z</time>
      </trkpt>
      <trkpt lat="59.9285499" lon="17.8353644">
        <ele>25.6123</ele>
        <time>2013-05-25T17:10:36Z</time>
      </trkpt>
      <trkpt lat="59.9286029" lon="17.8352881">
        <ele>25.1317</ele>
        <time>2013-05-25T17:10:37Z</time>
      </trkpt>
      <trkpt lat="59.9286544" lon="17.8352098">
        <ele>25.1317</ele>
        <time>2013-05-25T17:10:38Z</time>
      </trkpt>
      <trkpt lat="59.9287056" lon="17.8351314">
        <ele>25.1317</ele>
        <time>2013-05-25T17:10:39Z</time>
      </trkpt>
      <trkpt lat="59.9287584" lon="17.835058">
        <ele>25.1317</ele>
        <time>2013-05-25T17:10:40Z</time>
      </trkpt>
      <trkpt lat="59.9288119" lon="17.8349867">
        <ele>25.1317</ele>
        <time>2013-05-25T17:10:41Z</time>
      </trkpt>
      <trkpt lat="59.9288652" lon="17.8349163">
        <ele>24.651</ele>
        <time>2013-05-25T17:10:42Z</time>
      </trkpt>
      <trkpt lat="59.9289189" lon="17.8348488">
        <ele>24.651</ele>
        <time>2013-05-25T17:10:43Z</time>
      </trkpt>
      <trkpt lat="59.9289725" lon="17.8347825">
        <ele>24.651</ele>
        <time>2013-05-25T17:10:44Z</time>
      </trkpt>
      <trkpt lat="59.9290266" lon="17.8347179">
        <ele>24.651</ele>
        <time>2013-05-25T17:10:45Z</time>
      </trkpt>
      <trkpt lat="59.9290806" lon="17.8346536">
        <ele>24.651</ele>
        <time>2013-05-25T17:10:46Z</time>
      </trkpt>
      <trkpt lat="59.9291336" lon="17.8345868">
        <ele>24.651</ele>
        <time>2013-05-25T17:10:47Z</time>
      </trkpt>
      <trkpt lat="59.9291851" lon="17.8345173">
        <ele>24.651</ele>
        <time>2013-05-25T17:10:48Z</time>
      </trkpt>
      <trkpt lat="59.929236" lon="17.8344485">
        <ele>24.651</ele>
        <time>2013-05-25T17:10:49Z</time>
      </trkpt>
      <trkpt lat="59.9292862" lon="17.8343817">
        <ele>24.651</ele>
        <time>2013-05-25T17:10:50Z</time>
      </trkpt>
      <trkpt lat="59.9293354" lon="17.8343144">
        <ele>24.651</ele>
        <time>2013-05-25T17:10:51Z</time>
      </trkpt>
      <trkpt lat="59.9293837" lon="17.8342464">
        <ele>24.651</ele>
        <time>2013-05-25T17:10:52Z</time>
      </trkpt>
      <trkpt lat="59.9294314" lon="17.834177">
        <ele>25.1317</ele>
        <time>2013-05-25T17:10:53Z</time>
      </trkpt>
      <trkpt lat="59.9294786" lon="17.834106">
        <ele>24.651</ele>
        <time>2013-05-25T17:10:54Z</time>
      </trkpt>
      <trkpt lat="59.929525" lon="17.834032">
        <ele>24.651</ele>
        <time>2013-05-25T17:10:55Z</time>
      </trkpt>
      <trkpt lat="59.9295712" lon="17.8339554">
        <ele>24.651</ele>
        <time>2013-05-25T17:10:56Z</time>
      </trkpt>
      <trkpt lat="59.9296182" lon="17.8338766">
        <ele>24.651</ele>
        <time>2013-05-25T17:10:57Z</time>
      </trkpt>
      <trkpt lat="59.9296671" lon="17.8337961">
        <ele>24.651</ele>
        <time>2013-05-25T17:10:58Z</time>
      </trkpt>
      <trkpt lat="59.9297184" lon="17.8337145">
        <ele>24.651</ele>
        <time>2013-05-25T17:10:59Z</time>
      </trkpt>
      <trkpt lat="59.9297691" lon="17.8336296">
        <ele>24.1703</ele>
        <time>2013-05-25T17:11:00Z</time>
      </trkpt>
      <trkpt lat="59.9298205" lon="17.8335421">
        <ele>24.1703</ele>
        <time>2013-05-25T17:11:01Z</time>
      </trkpt>
      <trkpt lat="59.9298734" lon="17.8334539">
        <ele>24.1703</ele>
        <time>2013-05-25T17:11:02Z</time>
      </trkpt>
      <trkpt lat="59.9299266" lon="17.8333654">
        <ele>24.1703</ele>
        <time>2013-05-25T17:11:03Z</time>
      </trkpt>
      <trkpt lat="59.9299793" lon="17.8332799">
        <ele>24.1703</ele>
        <time>2013-05-25T17:11:04Z</time>
      </trkpt>
      <trkpt lat="59.9300321" lon="17.8331965">
        <ele>24.1703</ele>
        <time>2013-05-25T17:11:05Z</time>
      </trkpt>
      <trkpt lat="59.9300841" lon="17.8331151">
        <ele>23.6896</ele>
        <time>2013-05-25T17:11:06Z</time>
      </trkpt>
      <trkpt lat="59.930136" lon="17.8330349">
        <ele>23.6896</ele>
        <time>2013-05-25T17:11:07Z</time>
      </trkpt>
      <trkpt lat="59.9301887" lon="17.8329572">
        <ele>23.6896</ele>
        <time>2013-05-25T17:11:08Z</time>
      </trkpt>
      <trkpt lat="59.9302417" lon="17.8328767">
        <ele>24.1703</ele>
        <time>2013-05-25T17:11:09Z</time>
      </trkpt>
      <trkpt lat="59.9302939" lon="17.8327967">
        <ele>24.1703</ele>
        <time>2013-05-25T17:11:10Z</time>
      </trkpt>
      <trkpt lat="59.9303436" lon="17.832718">
        <ele>24.651</ele>
        <time>2013-05-25T17:11:11Z</time>
      </trkpt>
      <trkpt lat="59.9303924" lon="17.832636">
        <ele>25.1317</ele>
        <time>2013-05-25T17:11:12Z</time>
      </trkpt>
      <trkpt lat="59.930441" lon="17.8325597">
        <ele>25.6123</ele>
        <time>2013-05-25T17:11:13Z</time>
      </trkpt>
      <trkpt lat="59.930489" lon="17.8324878">
        <ele>25.6123</ele>
        <time>2013-05-25T17:11:14Z</time>
      </trkpt>
      <trkpt lat="59.9305377" lon="17.8324188">
        <ele>25.6123</ele>
        <time>2013-05-25T17:11:15Z</time>
      </trkpt>
      <trkpt lat="59.9305877" lon="17.8323462">
        <ele>26.0929</ele>
        <time>2013-05-25T17:11:16Z</time>
      </trkpt>
      <trkpt lat="59.9306383" lon="17.8322733">
        <ele>26.0929</ele>
        <time>2013-05-25T17:11:17Z</time>
      </trkpt>
      <trkpt lat="59.9306885" lon="17.8321967">
        <ele>25.6123</ele>
        <time>2013-05-25T17:11:18Z</time>
      </trkpt>
      <trkpt lat="59.9307413" lon="17.8321145">
        <ele>26.0929</ele>
        <time>2013-05-25T17:11:19Z</time>
      </trkpt>
      <trkpt lat="59.9307951" lon="17.8320346">
        <ele>26.0929</ele>
        <time>2013-05-25T17:11:20Z</time>
      </trkpt>
      <trkpt lat="59.9308497" lon="17.831951">
        <ele>25.6123</ele>
        <time>2013-05-25T17:11:21Z</time>
      </trkpt>
      <trkpt lat="59.9309026" lon="17.8318665">
        <ele>25.6123</ele>
        <time>2013-05-25T17:11:22Z</time>
      </trkpt>
      <trkpt lat="59.9309544" lon="17.8317829">
        <ele>25.6123</ele>
        <time>2013-05-25T17:11:23Z</time>
      </trkpt>
      <trkpt lat="59.9310051" lon="17.831698">
        <ele>26.0929</ele>
        <time>2013-05-25T17:11:24Z</time>
      </trkpt>
      <trkpt lat="59.9310543" lon="17.8316153">
        <ele>25.1317</ele>
        <time>2013-05-25T17:11:25Z</time>
      </trkpt>
      <trkpt lat="59.9311051" lon="17.8315298">
        <ele>25.1317</ele>
        <time>2013-05-25T17:11:26Z</time>
      </trkpt>
      <trkpt lat="59.9311559" lon="17.831443">
        <ele>24.651</ele>
        <time>2013-05-25T17:11:27Z</time>
      </trkpt>
      <trkpt lat="59.9312044" lon="17.8313565">
        <ele>24.651</ele>
        <time>2013-05-25T17:11:28Z</time>
      </trkpt>
      <trkpt lat="59.9312492" lon="17.8312668">
        <ele>24.1703</ele>
        <time>2013-05-25T17:11:29Z</time>
      </trkpt>
      <trkpt lat="59.9312925" lon="17.8311757">
        <ele>24.1703</ele>
        <time>2013-05-25T17:11:30Z</time>
      </trkpt>
      <trkpt lat="59.9313344" lon="17.8310838">
        <ele>23.6896</ele>
        <time>2013-05-25T17:11:31Z</time>
      </trkpt>
      <trkpt lat="59.931374" lon="17.8309898">
        <ele>23.6896</ele>
        <time>2013-05-25T17:11:32Z</time>
      </trkpt>
      <trkpt lat="59.9314119" lon="17.8308951">
        <ele>23.6896</ele>
        <time>2013-05-25T17:11:33Z</time>
      </trkpt>
      <trkpt lat="59.931449" lon="17.8308026">
        <ele>23.6896</ele>
        <time>2013-05-25T17:11:34Z</time>
      </trkpt>
      <trkpt lat="59.9314847" lon="17.8307111">
        <ele>23.6896</ele>
        <time>2013-05-25T17:11:35Z</time>
      </trkpt>
      <trkpt lat="59.931519" lon="17.8306187">
        <ele>23.6896</ele>
        <time>2013-05-25T17:11:36Z</time>
      </trkpt>
      <trkpt lat="59.9315525" lon="17.8305255">
        <ele>23.6896</ele>
        <time>2013-05-25T17:11:37Z</time>
      </trkpt>
      <trkpt lat="59.9315849" lon="17.830433">
        <ele>23.209</ele>
        <time>2013-05-25T17:11:38Z</time>
      </trkpt>
      <trkpt lat="59.9316164" lon="17.8303382">
        <ele>23.209</ele>
        <time>2013-05-25T17:11:39Z</time>
      </trkpt>
      <trkpt lat="59.9316458" lon="17.8302371">
        <ele>23.209</ele>
        <time>2013-05-25T17:11:40Z</time>
      </trkpt>
      <trkpt lat="59.9316758" lon="17.8301308">
        <ele>22.7283</ele>
        <time>2013-05-25T17:11:41Z</time>
      </trkpt>
      <trkpt lat="59.9317064" lon="17.8300191">
        <ele>22.7283</ele>
        <time>2013-05-25T17:11:42Z</time>
      </trkpt>
      <trkpt lat="59.931737" lon="17.8299002">
        <ele>22.2476</ele>
        <time>2013-05-25T17:11:43Z</time>
      </trkpt>
      <trkpt lat="59.9317676" lon="17.8297775">
        <ele>21.767</ele>
        <time>2013-05-25T17:11:44Z</time>
      </trkpt>
      <trkpt lat="59.9318002" lon="17.8296574">
        <ele>21.2864</ele>
        <time>2013-05-25T17:11:45Z</time>
      </trkpt>
      <trkpt lat="59.931835" lon="17.8295412">
        <ele>21.2864</ele>
        <time>2013-05-25T17:11:46Z</time>
      </trkpt>
      <trkpt lat="59.9318685" lon="17.8294213">
        <ele>21.2864</ele>
        <time>2013-05-25T17:11:47Z</time>
      </trkpt>
      <trkpt lat="59.9318997" lon="17.8292965">
        <ele>21.2864</ele>
        <time>2013-05-25T17:11:48Z</time>
      </trkpt>
      <trkpt lat="59.9319286" lon="17.8291659">
        <ele>20.325</ele>
        <time>2013-05-25T17:11:49Z</time>
      </trkpt>
      <trkpt lat="59.9319583" lon="17.8290306">
        <ele>20.325</ele>
        <time>2013-05-25T17:11:50Z</time>
      </trkpt>
      <trkpt lat="59.9319893" lon="17.8288965">
        <ele>20.325</ele>
        <time>2013-05-25T17:11:51Z</time>
      </trkpt>
      <trkpt lat="59.9320252" lon="17.8287696">
        <ele>19.8444</ele>
        <time>2013-05-25T17:11:52Z</time>
      </trkpt>
      <trkpt lat="59.9320663" lon="17.8286504">
        <ele>19.3638</ele>
        <time>2013-05-25T17:11:53Z</time>
      </trkpt>
      <trkpt lat="59.9321069" lon="17.8285335">
        <ele>18.8831</ele>
        <time>2013-05-25T17:11:54Z</time>
      </trkpt>
      <trkpt lat="59.9321473" lon="17.82842">
        <ele>18.4023</ele>
        <time>2013-05-25T17:11:55Z</time>
      </trkpt>
      <trkpt lat="59.932191" lon="17.8283137">
        <ele>18.8831</ele>
        <time>2013-05-25T17:11:56Z</time>
      </trkpt>
      <trkpt lat="59.9322349" lon="17.8282152">
        <ele>18.4023</ele>
        <time>2013-05-25T17:11:57Z</time>
      </trkpt>
      <trkpt lat="59.9322775" lon="17.8281209">
        <ele>18.4023</ele>
        <time>2013-05-25T17:11:58Z</time>
      </trkpt>
      <trkpt lat="59.9323192" lon="17.8280315">
        <ele>18.4023</ele>
        <time>2013-05-25T17:11:59Z</time>
      </trkpt>
      <trkpt lat="59.9323616" lon="17.827953">
        <ele>17.9218</ele>
        <time>2013-05-25T17:12:00Z</time>
      </trkpt>
      <trkpt lat="59.9324047" lon="17.8278749">
        <ele>17.4412</ele>
        <time>2013-05-25T17:12:01Z</time>
      </trkpt>
      <trkpt lat="59.9324484" lon="17.8277965">
        <ele>17.4412</ele>
        <time>2013-05-25T17:12:02Z</time>
      </trkpt>
      <trkpt lat="59.9324939" lon="17.8277204">
        <ele>17.4412</ele>
        <time>2013-05-25T17:12:03Z</time>
      </trkpt>
      <trkpt lat="59.9325406" lon="17.8276442">
        <ele>17.4412</ele>
        <time>2013-05-25T17:12:04Z</time>
      </trkpt>
      <trkpt lat="59.9325872" lon="17.8275655">
        <ele>17.9218</ele>
        <time>2013-05-25T17:12:05Z</time>
      </trkpt>
      <trkpt lat="59.9326336" lon="17.8274844">
        <ele>18.4023</ele>
        <time>2013-05-25T17:12:06Z</time>
      </trkpt>
      <trkpt lat="59.9326814" lon="17.827403">
        <ele>18.4023</ele>
        <time>2013-05-25T17:12:07Z</time>
      </trkpt>
      <trkpt lat="59.9327304" lon="17.8273217">
        <ele>18.8831</ele>
        <time>2013-05-25T17:12:08Z</time>
      </trkpt>
      <trkpt lat="59.9327801" lon="17.8272373">
        <ele>19.3638</ele>
        <time>2013-05-25T17:12:09Z</time>
      </trkpt>
      <trkpt lat="59.9328309" lon="17.8271471">
        <ele>19.8444</ele>
        <time>2013-05-25T17:12:10Z</time>
      </trkpt>
      <trkpt lat="59.9328824" lon="17.827057">
        <ele>20.325</ele>
        <time>2013-05-25T17:12:11Z</time>
      </trkpt>
      <trkpt lat="59.9329351" lon="17.8269689">
        <ele>21.2864</ele>
        <time>2013-05-25T17:12:12Z</time>
      </trkpt>
      <trkpt lat="59.9329866" lon="17.8268857">
        <ele>21.2864</ele>
        <time>2013-05-25T17:12:13Z</time>
      </trkpt>
      <trkpt lat="59.9330384" lon="17.8268063">
        <ele>21.2864</ele>
        <time>2013-05-25T17:12:14Z</time>
      </trkpt>
      <trkpt lat="59.9330918" lon="17.8267307">
        <ele>21.2864</ele>
        <time>2013-05-25T17:12:15Z</time>
      </trkpt>
      <trkpt lat="59.9331451" lon="17.8266582">
        <ele>21.2864</ele>
        <time>2013-05-25T17:12:16Z</time>
      </trkpt>
      <trkpt lat="59.9331979" lon="17.8265868">
        <ele>21.767</ele>
        <time>2013-05-25T17:12:17Z</time>
      </trkpt>
      <trkpt lat="59.9332507" lon="17.8265193">
        <ele>22.2476</ele>
        <time>2013-05-25T17:12:18Z</time>
      </trkpt>
      <trkpt lat="59.9333044" lon="17.8264568">
        <ele>22.2476</ele>
        <time>2013-05-25T17:12:19Z</time>
      </trkpt>
      <trkpt lat="59.9333579" lon="17.8264003">
        <ele>22.7283</ele>
        <time>2013-05-25T17:12:20Z</time>
      </trkpt>
      <trkpt lat="59.9334108" lon="17.8263494">
        <ele>23.209</ele>
        <time>2013-05-25T17:12:21Z</time>
      </trkpt>
      <trkpt lat="59.9334641" lon="17.8263022">
        <ele>23.209</ele>
        <time>2013-05-25T17:12:22Z</time>
      </trkpt>
      <trkpt lat="59.9335169" lon="17.8262573">
        <ele>23.209</ele>
        <time>2013-05-25T17:12:23Z</time>
      </trkpt>
      <trkpt lat="59.9335697" lon="17.8262156">
        <ele>23.6896</ele>
        <time>2013-05-25T17:12:24Z</time>
      </trkpt>
      <trkpt lat="59.9336224" lon="17.8261767">
        <ele>23.6896</ele>
        <time>2013-05-25T17:12:25Z</time>
      </trkpt>
      <trkpt lat="59.933675" lon="17.8261433">
        <ele>24.1703</ele>
        <time>2013-05-25T17:12:26Z</time>
      </trkpt>
      <trkpt lat="59.9337287" lon="17.8261091">
        <ele>24.1703</ele>
        <time>2013-05-25T17:12:27Z</time>
      </trkpt>
      <trkpt lat="59.933783" lon="17.8260757">
        <ele>24.1703</ele>
        <time>2013-05-25T17:12:28Z</time>
      </trkpt>
      <trkpt lat="59.9338379" lon="17.8260413">
        <ele>24.1703</ele>
        <time>2013-05-25T17:12:29Z</time>
      </trkpt>
      <trkpt lat="59.9338933" lon="17.8260082">
        <ele>24.1703</ele>
        <time>2013-05-25T17:12:30Z</time>
      </trkpt>
      <trkpt lat="59.93395" lon="17.8259781">
        <ele>23.6896</ele>
        <time>2013-05-25T17:12:31Z</time>
      </trkpt>
      <trkpt lat="59.9340066" lon="17.8259511">
        <ele>23.6896</ele>
        <time>2013-05-25T17:12:32Z</time>
      </trkpt>
      <trkpt lat="59.9340605" lon="17.8259257">
        <ele>23.209</ele>
        <time>2013-05-25T17:12:33Z</time>
      </trkpt>
      <trkpt lat="59.934114" lon="17.8259025">
        <ele>23.209</ele>
        <time>2013-05-25T17:12:34Z</time>
      </trkpt>
      <trkpt lat="59.9341671" lon="17.8258797">
        <ele>23.209</ele>
        <time>2013-05-25T17:12:35Z</time>
      </trkpt>
      <trkpt lat="59.9342197" lon="17.8258569">
        <ele>23.209</ele>
        <time>2013-05-25T17:12:36Z</time>
      </trkpt>
      <trkpt lat="59.9342716" lon="17.825832">
        <ele>23.209</ele>
        <time>2013-05-25T17:12:37Z</time>
      </trkpt>
      <trkpt lat="59.934323" lon="17.8258072">
        <ele>23.209</ele>
        <time>2013-05-25T17:12:38Z</time>
      </trkpt>
      <trkpt lat="59.9343743" lon="17.8257832">
        <ele>23.209</ele>
        <time>2013-05-25T17:12:39Z</time>
      </trkpt>
      <trkpt lat="59.934425" lon="17.825759">
        <ele>23.209</ele>
        <time>2013-05-25T17:12:40Z</time>
      </trkpt>
      <trkpt lat="59.9344743" lon="17.8257345">
        <ele>22.7283</ele>
        <time>2013-05-25T17:12:41Z</time>
      </trkpt>
      <trkpt lat="59.9345224" lon="17.8257131">
        <ele>22.7283</ele>
        <time>2013-05-25T17:12:42Z</time>
      </trkpt>
      <trkpt lat="59.934571" lon="17.8256926">
        <ele>22.2476</ele>
        <time>2013-05-25T17:12:43Z</time>
      </trkpt>
      <trkpt lat="59.9346199" lon="17.8256699">
        <ele>21.767</ele>
        <time>2013-05-25T17:12:44Z</time>
      </trkpt>
      <trkpt lat="59.9346698" lon="17.8256459">
        <ele>21.767</ele>
        <time>2013-05-25T17:12:45Z</time>
      </trkpt>
      <trkpt lat="59.9347211" lon="17.8256202">
        <ele>21.2864</ele>
        <time>2013-05-25T17:12:46Z</time>
      </trkpt>
      <trkpt lat="59.9347735" lon="17.8255958">
        <ele>20.8057</ele>
        <time>2013-05-25T17:12:47Z</time>
      </trkpt>
      <trkpt lat="59.9348254" lon="17.8255705">
        <ele>20.8057</ele>
        <time>2013-05-25T17:12:48Z</time>
      </trkpt>
      <trkpt lat="59.9348765" lon="17.8255456">
        <ele>20.325</ele>
        <time>2013-05-25T17:12:49Z</time>
      </trkpt>
      <trkpt lat="59.934928" lon="17.8255218">
        <ele>20.325</ele>
        <time>2013-05-25T17:12:50Z</time>
      </trkpt>
      <trkpt lat="59.9349794" lon="17.8254973">
        <ele>20.325</ele>
        <time>2013-05-25T17:12:51Z</time>
      </trkpt>
      <trkpt lat="59.9350311" lon="17.8254719">
        <ele>19.8444</ele>
        <time>2013-05-25T17:12:52Z</time>
      </trkpt>
      <trkpt lat="59.9350834" lon="17.8254469">
        <ele>19.8444</ele>
        <time>2013-05-25T17:12:53Z</time>
      </trkpt>
      <trkpt lat="59.9351368" lon="17.8254238">
        <ele>19.8444</ele>
        <time>2013-05-25T17:12:54Z</time>
      </trkpt>
      <trkpt lat="59.935191" lon="17.825402">
        <ele>19.3638</ele>
        <time>2013-05-25T17:12:55Z</time>
      </trkpt>
      <trkpt lat="59.9352461" lon="17.8253782">
        <ele>19.3638</ele>
        <time>2013-05-25T17:12:56Z</time>
      </trkpt>
      <trkpt lat="59.935302" lon="17.825355">
        <ele>19.3638</ele>
        <time>2013-05-25T17:12:57Z</time>
      </trkpt>
      <trkpt lat="59.9353579" lon="17.8253334">
        <ele>19.3638</ele>
        <time>2013-05-25T17:12:58Z</time>
      </trkpt>
      <trkpt lat="59.9354135" lon="17.825308">
        <ele>19.3638</ele>
        <time>2013-05-25T17:12:59Z</time>
      </trkpt>
      <trkpt lat="59.9354691" lon="17.8252803">
        <ele>19.3638</ele>
        <time>2013-05-25T17:13:00Z</time>
      </trkpt>
      <trkpt lat="59.9355249" lon="17.8252541">
        <ele>19.3638</ele>
        <time>2013-05-25T17:13:01Z</time>
      </trkpt>
      <trkpt lat="59.9355807" lon="17.8252345">
        <ele>18.8831</ele>
        <time>2013-05-25T17:13:02Z</time>
      </trkpt>
      <trkpt lat="59.935636" lon="17.8252134">
        <ele>18.8831</ele>
        <time>2013-05-25T17:13:03Z</time>
      </trkpt>
      <trkpt lat="59.935691" lon="17.8251936">
        <ele>18.8831</ele>
        <time>2013-05-25T17:13:04Z</time>
      </trkpt>
      <trkpt lat="59.935746" lon="17.825173">
        <ele>18.4023</ele>
        <time>2013-05-25T17:13:05Z</time>
      </trkpt>
      <trkpt lat="59.9358014" lon="17.8251516">
        <ele>18.4023</ele>
        <time>2013-05-25T17:13:06Z</time>
      </trkpt>
      <trkpt lat="59.9358573" lon="17.8251306">
        <ele>18.4023</ele>
        <time>2013-05-25T17:13:07Z</time>
      </trkpt>
      <trkpt lat="59.9359134" lon="17.8251097">
        <ele>18.4023</ele>
        <time>2013-05-25T17:13:08Z</time>
      </trkpt>
      <trkpt lat="59.9359704" lon="17.8250865">
        <ele>18.4023</ele>
        <time>2013-05-25T17:13:09Z</time>
      </trkpt>
      <trkpt lat="59.9360278" lon="17.8250637">
        <ele>18.4023</ele>
        <time>2013-05-25T17:13:10Z</time>
      </trkpt>
      <trkpt lat="59.9360842" lon="17.8250408">
        <ele>18.4023</ele>
        <time>2013-05-25T17:13:11Z</time>
      </trkpt>
      <trkpt lat="59.9361397" lon="17.8250179">
        <ele>18.4023</ele>
        <time>2013-05-25T17:13:12Z</time>
      </trkpt>
      <trkpt lat="59.9361944" lon="17.8249969">
        <ele>18.4023</ele>
        <time>2013-05-25T17:13:13Z</time>
      </trkpt>
      <trkpt lat="59.9362472" lon="17.8249775">
        <ele>18.4023</ele>
        <time>2013-05-25T17:13:14Z</time>
      </trkpt>
      <trkpt lat="59.9362986" lon="17.8249564">
        <ele>18.4023</ele>
        <time>2013-05-25T17:13:15Z</time>
      </trkpt>
      <trkpt lat="59.9363495" lon="17.8249376">
        <ele>18.8831</ele>
        <time>2013-05-25T17:13:16Z</time>
      </trkpt>
      <trkpt lat="59.9363996" lon="17.8249187">
        <ele>18.8831</ele>
        <time>2013-05-25T17:13:17Z</time>
      </trkpt>
      <trkpt lat="59.9364485" lon="17.8248933">
        <ele>18.8831</ele>
        <time>2013-05-25T17:13:18Z</time>
      </trkpt>
      <trkpt lat="59.9364954" lon="17.8248616">
        <ele>18.8831</ele>
        <time>2013-05-25T17:13:19Z</time>
      </trkpt>
      <trkpt lat="59.936544" lon="17.8248238">
        <ele>19.3638</ele>
        <time>2013-05-25T17:13:20Z</time>
      </trkpt>
      <trkpt lat="59.9365901" lon="17.8247834">
        <ele>19.8444</ele>
        <time>2013-05-25T17:13:21Z</time>
      </trkpt>
      <trkpt lat="59.9366336" lon="17.8247382">
        <ele>19.8444</ele>
        <time>2013-05-25T17:13:22Z</time>
      </trkpt>
      <trkpt lat="59.9366776" lon="17.8246864">
        <ele>19.8444</ele>
        <time>2013-05-25T17:13:23Z</time>
      </trkpt>
      <trkpt lat="59.9367224" lon="17.8246292">
        <ele>19.8444</ele>
        <time>2013-05-25T17:13:24Z</time>
      </trkpt>
      <trkpt lat="59.9367658" lon="17.824567">
        <ele>20.325</ele>
        <time>2013-05-25T17:13:25Z</time>
      </trkpt>
      <trkpt lat="59.9368078" lon="17.8245005">
        <ele>20.325</ele>
        <time>2013-05-25T17:13:26Z</time>
      </trkpt>
      <trkpt lat="59.9368487" lon="17.8244332">
        <ele>20.8057</ele>
        <time>2013-05-25T17:13:27Z</time>
      </trkpt>
      <trkpt lat="59.9368871" lon="17.8243645">
        <ele>20.8057</ele>
        <time>2013-05-25T17:13:28Z</time>
      </trkpt>
      <trkpt lat="59.9369239" lon="17.824295">
        <ele>21.2864</ele>
        <time>2013-05-25T17:13:29Z</time>
      </trkpt>
      <trkpt lat="59.9369566" lon="17.8242235">
        <ele>21.2864</ele>
        <time>2013-05-25T17:13:30Z</time>
      </trkpt>
      <trkpt lat="59.9369875" lon="17.8241515">
        <ele>21.767</ele>
        <time>2013-05-25T17:13:31Z</time>
      </trkpt>
      <trkpt lat="59.9370161" lon="17.8240793">
        <ele>21.767</ele>
        <time>2013-05-25T17:13:32Z</time>
      </trkpt>
      <trkpt lat="59.9370436" lon="17.8240075">
        <ele>21.767</ele>
        <time>2013-05-25T17:13:33Z</time>
      </trkpt>
      <trkpt lat="59.9370719" lon="17.8239355">
        <ele>21.2864</ele>
        <time>2013-05-25T17:13:34Z</time>
      </trkpt>
      <trkpt lat="59.9370993" lon="17.8238591">
        <ele>21.2864</ele>
        <time>2013-05-25T17:13:35Z</time>
      </trkpt>
      <trkpt lat="59.9371268" lon="17.8237789">
        <ele>20.8057</ele>
        <time>2013-05-25T17:13:36Z</time>
      </trkpt>
      <trkpt lat="59.9371554" lon="17.8236982">
        <ele>20.8057</ele>
        <time>2013-05-25T17:13:37Z</time>
      </trkpt>
      <trkpt lat="59.9371845" lon="17.8236175">
        <ele>20.8057</ele>
        <time>2013-05-25T17:13:38Z</time>
      </trkpt>
      <trkpt lat="59.9372125" lon="17.8235375">
        <ele>20.8057</ele>
        <time>2013-05-25T17:13:39Z</time>
      </trkpt>
      <trkpt lat="59.9372399" lon="17.8234596">
        <ele>20.325</ele>
        <time>2013-05-25T17:13:40Z</time>
      </trkpt>
      <trkpt lat="59.9372674" lon="17.8233839">
        <ele>20.325</ele>
        <time>2013-05-25T17:13:41Z</time>
      </trkpt>
      <trkpt lat="59.9372953" lon="17.8233081">
        <ele>20.325</ele>
        <time>2013-05-25T17:13:42Z</time>
      </trkpt>
      <trkpt lat="59.9373253" lon="17.8232318">
        <ele>20.325</ele>
        <time>2013-05-25T17:13:43Z</time>
      </trkpt>
      <trkpt lat="59.9373548" lon="17.8231544">
        <ele>20.325</ele>
        <time>2013-05-25T17:13:44Z</time>
      </trkpt>
      <trkpt lat="59.9373838" lon="17.8230754">
        <ele>20.325</ele>
        <time>2013-05-25T17:13:45Z</time>
      </trkpt>
      <trkpt lat="59.937413" lon="17.8229948">
        <ele>20.8057</ele>
        <time>2013-05-25T17:13:46Z</time>
      </trkpt>
      <trkpt lat="59.937443" lon="17.8229134">
        <ele>20.8057</ele>
        <time>2013-05-25T17:13:47Z</time>
      </trkpt>
      <trkpt lat="59.9374735" lon="17.8228309">
        <ele>20.8057</ele>
        <time>2013-05-25T17:13:48Z</time>
      </trkpt>
      <trkpt lat="59.9375036" lon="17.8227462">
        <ele>20.8057</ele>
        <time>2013-05-25T17:13:49Z</time>
      </trkpt>
      <trkpt lat="59.9375351" lon="17.8226608">
        <ele>20.8057</ele>
        <time>2013-05-25T17:13:50Z</time>
      </trkpt>
      <trkpt lat="59.9375642" lon="17.8225716">
        <ele>20.325</ele>
        <time>2013-05-25T17:13:51Z</time>
      </trkpt>
      <trkpt lat="59.9375933" lon="17.8224799">
        <ele>20.325</ele>
        <time>2013-05-25T17:13:52Z</time>
      </trkpt>
      <trkpt lat="59.9376268" lon="17.8223902">
        <ele>19.8444</ele>
        <time>2013-05-25T17:13:53Z</time>
      </trkpt>
      <trkpt lat="59.9376629" lon="17.8223012">
        <ele>19.8444</ele>
        <time>2013-05-25T17:13:54Z</time>
      </trkpt>
      <trkpt lat="59.9376994" lon="17.8222119">
        <ele>19.8444</ele>
        <time>2013-05-25T17:13:55Z</time>
      </trkpt>
      <trkpt lat="59.9377352" lon="17.8221208">
        <ele>19.3638</ele>
        <time>2013-05-25T17:13:56Z</time>
      </trkpt>
      <trkpt lat="59.9377691" lon="17.8220292">
        <ele>19.3638</ele>
        <time>2013-05-25T17:13:57Z</time>
      </trkpt>
      <trkpt lat="59.937802" lon="17.8219373">
        <ele>19.3638</ele>
        <time>2013-05-25T17:13:58Z</time>
      </trkpt>
      <trkpt lat="59.9378355" lon="17.8218441">
        <ele>19.3638</ele>
        <time>2013-05-25T17:13:59Z</time>
      </trkpt>
      <trkpt lat="59.9378683" lon="17.821751">
        <ele>19.3638</ele>
        <time>2013-05-25T17:14:00Z</time>
      </trkpt>
      <trkpt lat="59.9379004" lon="17.8216629">
        <ele>18.8831</ele>
        <time>2013-05-25T17:14:01Z</time>
      </trkpt>
      <trkpt lat="59.9379325" lon="17.8215744">
        <ele>18.4023</ele>
        <time>2013-05-25T17:14:02Z</time>
      </trkpt>
      <trkpt lat="59.9379651" lon="17.821488">
        <ele>18.4023</ele>
        <time>2013-05-25T17:14:03Z</time>
      </trkpt>
      <trkpt lat="59.9379987" lon="17.821406">
        <ele>18.4023</ele>
        <time>2013-05-25T17:14:04Z</time>
      </trkpt>
      <trkpt lat="59.9380326" lon="17.8213285">
        <ele>18.8831</ele>
        <time>2013-05-25T17:14:05Z</time>
      </trkpt>
      <trkpt lat="59.9380672" lon="17.8212558">
        <ele>18.8831</ele>
        <time>2013-05-25T17:14:06Z</time>
      </trkpt>
      <trkpt lat="59.9381007" lon="17.8211848">
        <ele>18.4023</ele>
        <time>2013-05-25T17:14:07Z</time>
      </trkpt>
      <trkpt lat="59.9381328" lon="17.8211121">
        <ele>18.8831</ele>
        <time>2013-05-25T17:14:08Z</time>
      </trkpt>
      <trkpt lat="59.9381643" lon="17.8210378">
        <ele>18.8831</ele>
        <time>2013-05-25T17:14:09Z</time>
      </trkpt>
      <trkpt lat="59.9381968" lon="17.8209647">
        <ele>18.8831</ele>
        <time>2013-05-25T17:14:10Z</time>
      </trkpt>
      <trkpt lat="59.9382303" lon="17.8208911">
        <ele>18.8831</ele>
        <time>2013-05-25T17:14:11Z</time>
      </trkpt>
      <trkpt lat="59.938263" lon="17.8208146">
        <ele>18.8831</ele>
        <time>2013-05-25T17:14:12Z</time>
      </trkpt>
      <trkpt lat="59.9382969" lon="17.8207384">
        <ele>18.8831</ele>
        <time>2013-05-25T17:14:13Z</time>
      </trkpt>
      <trkpt lat="59.9383319" lon="17.8206639">
        <ele>18.8831</ele>
        <time>2013-05-25T17:14:14Z</time>
      </trkpt>
      <trkpt lat="59.9383661" lon="17.8205896">
        <ele>19.3638</ele>
        <time>2013-05-25T17:14:15Z</time>
      </trkpt>
      <trkpt lat="59.9384009" lon="17.8205155">
        <ele>19.3638</ele>
        <time>2013-05-25T17:14:16Z</time>
      </trkpt>
      <trkpt lat="59.9384365" lon="17.8204415">
        <ele>19.3638</ele>
        <time>2013-05-25T17:14:17Z</time>
      </trkpt>
      <trkpt lat="59.9384707" lon="17.8203669">
        <ele>19.3638</ele>
        <time>2013-05-25T17:14:18Z</time>
      </trkpt>
      <trkpt lat="59.9385038" lon="17.8202913">
        <ele>19.3638</ele>
        <time>2013-05-25T17:14:19Z</time>
      </trkpt>
      <trkpt lat="59.938537" lon="17.8202172">
        <ele>19.3638</ele>
        <time>2013-05-25T17:14:20Z</time>
      </trkpt>
      <trkpt lat="59.9385712" lon="17.8201456">
        <ele>19.8444</ele>
        <time>2013-05-25T17:14:21Z</time>
      </trkpt>
      <trkpt lat="59.9386048" lon="17.8200744">
        <ele>19.8444</ele>
        <time>2013-05-25T17:14:22Z</time>
      </trkpt>
      <trkpt lat="59.9386375" lon="17.8200037">
        <ele>19.8444</ele>
        <time>2013-05-25T17:14:23Z</time>
      </trkpt>
      <trkpt lat="59.9386694" lon="17.8199334">
        <ele>19.8444</ele>
        <time>2013-05-25T17:14:24Z</time>
      </trkpt>
      <trkpt lat="59.9387011" lon="17.8198645">
        <ele>20.325</ele>
        <time>2013-05-25T17:14:25Z</time>
      </trkpt>
      <trkpt lat="59.9387333" lon="17.8197961">
        <ele>20.325</ele>
        <time>2013-05-25T17:14:26Z</time>
      </trkpt>
      <trkpt lat="59.9387661" lon="17.8197257">
        <ele>20.325</ele>
        <time>2013-05-25T17:14:27Z</time>
      </trkpt>
      <trkpt lat="59.9388" lon="17.819653">
        <ele>20.325</ele>
        <time>2013-05-25T17:14:28Z</time>
      </trkpt>
      <trkpt lat="59.9388355" lon="17.819579">
        <ele>20.325</ele>
        <time>2013-05-25T17:14:29Z</time>
      </trkpt>
      <trkpt lat="59.938872" lon="17.8195023">
        <ele>20.325</ele>
        <time>2013-05-25T17:14:30Z</time>
      </trkpt>
      <trkpt lat="59.9389084" lon="17.8194217">
        <ele>20.325</ele>
        <time>2013-05-25T17:14:31Z</time>
      </trkpt>
      <trkpt lat="59.9389455" lon="17.8193418">
        <ele>20.325</ele>
        <time>2013-05-25T17:14:32Z</time>
      </trkpt>
      <trkpt lat="59.9389838" lon="17.8192645">
        <ele>20.325</ele>
        <time>2013-05-25T17:14:33Z</time>
      </trkpt>
      <trkpt lat="59.939022" lon="17.8191869">
        <ele>20.325</ele>
        <time>2013-05-25T17:14:34Z</time>
      </trkpt>
      <trkpt lat="59.9390608" lon="17.8191109">
        <ele>20.325</ele>
        <time>2013-05-25T17:14:35Z</time>
      </trkpt>
      <trkpt lat="59.9391015" lon="17.8190389">
        <ele>20.325</ele>
        <time>2013-05-25T17:14:36Z</time>
      </trkpt>
      <trkpt lat="59.9391435" lon="17.8189704">
        <ele>20.325</ele>
        <time>2013-05-25T17:14:37Z</time>
      </trkpt>
      <trkpt lat="59.9391871" lon="17.8189066">
        <ele>20.325</ele>
        <time>2013-05-25T17:14:38Z</time>
      </trkpt>
      <trkpt lat="59.9392331" lon="17.8188492">
        <ele>20.325</ele>
        <time>2013-05-25T17:14:39Z</time>
      </trkpt>
      <trkpt lat="59.9392802" lon="17.8187977">
        <ele>20.325</ele>
        <time>2013-05-25T17:14:40Z</time>
      </trkpt>
      <trkpt lat="59.9393278" lon="17.818751">
        <ele>20.325</ele>
        <time>2013-05-25T17:14:41Z</time>
      </trkpt>
      <trkpt lat="59.9393755" lon="17.8187093">
        <ele>20.325</ele>
        <time>2013-05-25T17:14:42Z</time>
      </trkpt>
      <trkpt lat="59.9394234" lon="17.8186734">
        <ele>20.325</ele>
        <time>2013-05-25T17:14:43Z</time>
      </trkpt>
      <trkpt lat="59.939472" lon="17.8186434">
        <ele>20.325</ele>
        <time>2013-05-25T17:14:44Z</time>
      </trkpt>
      <trkpt lat="59.9395212" lon="17.818619">
        <ele>20.325</ele>
        <time>2013-05-25T17:14:45Z</time>
      </trkpt>
      <trkpt lat="59.9395705" lon="17.8185975">
        <ele>20.8057</ele>
        <time>2013-05-25T17:14:46Z</time>
      </trkpt>
      <trkpt lat="59.9396197" lon="17.8185807">
        <ele>20.8057</ele>
        <time>2013-05-25T17:14:47Z</time>
      </trkpt>
      <trkpt lat="59.9396687" lon="17.8185688">
        <ele>20.8057</ele>
        <time>2013-05-25T17:14:48Z</time>
      </trkpt>
      <trkpt lat="59.9397165" lon="17.8185641">
        <ele>20.8057</ele>
        <time>2013-05-25T17:14:49Z</time>
      </trkpt>
      <trkpt lat="59.9397626" lon="17.8185654">
        <ele>21.2864</ele>
        <time>2013-05-25T17:14:50Z</time>
      </trkpt>
      <trkpt lat="59.9398051" lon="17.8185757">
        <ele>20.8057</ele>
        <time>2013-05-25T17:14:51Z</time>
      </trkpt>
      <trkpt lat="59.9398459" lon="17.818592">
        <ele>20.8057</ele>
        <time>2013-05-25T17:14:52Z</time>
      </trkpt>
      <trkpt lat="59.9398858" lon="17.8186093">
        <ele>20.8057</ele>
        <time>2013-05-25T17:14:53Z</time>
      </trkpt>
      <trkpt lat="59.9399242" lon="17.8186294">
        <ele>20.8057</ele>
        <time>2013-05-25T17:14:54Z</time>
      </trkpt>
      <trkpt lat="59.9399615" lon="17.8186553">
        <ele>20.8057</ele>
        <time>2013-05-25T17:14:55Z</time>
      </trkpt>
      <trkpt lat="59.9399968" lon="17.8186865">
        <ele>20.8057</ele>
        <time>2013-05-25T17:14:56Z</time>
      </trkpt>
      <trkpt lat="59.9400299" lon="17.8187213">
        <ele>20.8057</ele>
        <time>2013-05-25T17:14:57Z</time>
      </trkpt>
      <trkpt lat="59.9400636" lon="17.8187559">
        <ele>20.8057</ele>
        <time>2013-05-25T17:14:58Z</time>
      </trkpt>
      <trkpt lat="59.9400977" lon="17.8187901">
        <ele>20.8057</ele>
        <time>2013-05-25T17:14:59Z</time>
      </trkpt>
      <trkpt lat="59.9401319" lon="17.8188234">
        <ele>20.8057</ele>
        <time>2013-05-25T17:15:00Z</time>
      </trkpt>
      <trkpt lat="59.9401662" lon="17.8188575">
        <ele>20.8057</ele>
        <time>2013-05-25T17:15:01Z</time>
      </trkpt>
      <trkpt lat="59.9402029" lon="17.8188951">
        <ele>20.8057</ele>
        <time>2013-05-25T17:15:02Z</time>
      </trkpt>
      <trkpt lat="59.9402426" lon="17.8189375">
        <ele>20.8057</ele>
        <time>2013-05-25T17:15:03Z</time>
      </trkpt>
      <trkpt lat="59.9402832" lon="17.8189864">
        <ele>20.325</ele>
        <time>2013-05-25T17:15:04Z</time>
      </trkpt>
      <trkpt lat="59.9403257" lon="17.8190411">
        <ele>19.8444</ele>
        <time>2013-05-25T17:15:05Z</time>
      </trkpt>
      <trkpt lat="59.9403709" lon="17.8190989">
        <ele>19.8444</ele>
        <time>2013-05-25T17:15:06Z</time>
      </trkpt>
      <trkpt lat="59.9404172" lon="17.8191592">
        <ele>19.8444</ele>
        <time>2013-05-25T17:15:07Z</time>
      </trkpt>
      <trkpt lat="59.9404645" lon="17.8192205">
        <ele>19.3638</ele>
        <time>2013-05-25T17:15:08Z</time>
      </trkpt>
      <trkpt lat="59.9405131" lon="17.8192818">
        <ele>19.3638</ele>
        <time>2013-05-25T17:15:09Z</time>
      </trkpt>
      <trkpt lat="59.9405634" lon="17.8193439">
        <ele>18.8831</ele>
        <time>2013-05-25T17:15:10Z</time>
      </trkpt>
      <trkpt lat="59.9406153" lon="17.8194068">
        <ele>18.8831</ele>
        <time>2013-05-25T17:15:11Z</time>
      </trkpt>
      <trkpt lat="59.9406682" lon="17.8194718">
        <ele>18.4023</ele>
        <time>2013-05-25T17:15:12Z</time>
      </trkpt>
      <trkpt lat="59.9407224" lon="17.8195374">
        <ele>18.4023</ele>
        <time>2013-05-25T17:15:13Z</time>
      </trkpt>
      <trkpt lat="59.9407773" lon="17.8196033">
        <ele>17.9218</ele>
        <time>2013-05-25T17:15:14Z</time>
      </trkpt>
      <trkpt lat="59.9408323" lon="17.8196702">
        <ele>17.4412</ele>
        <time>2013-05-25T17:15:15Z</time>
      </trkpt>
      <trkpt lat="59.9408878" lon="17.8197387">
        <ele>17.4412</ele>
        <time>2013-05-25T17:15:16Z</time>
      </trkpt>
      <trkpt lat="59.940944" lon="17.8198089">
        <ele>16.9604</ele>
        <time>2013-05-25T17:15:17Z</time>
      </trkpt>
      <trkpt lat="59.9410006" lon="17.81988">
        <ele>16.9604</ele>
        <time>2013-05-25T17:15:18Z</time>
      </trkpt>
      <trkpt lat="59.9410579" lon="17.819952">
        <ele>16.4797</ele>
        <time>2013-05-25T17:15:19Z</time>
      </trkpt>
      <trkpt lat="59.9411165" lon="17.8200245">
        <ele>16.4797</ele>
        <time>2013-05-25T17:15:20Z</time>
      </trkpt>
      <trkpt lat="59.941176" lon="17.8200974">
        <ele>15.999</ele>
        <time>2013-05-25T17:15:21Z</time>
      </trkpt>
      <trkpt lat="59.9412358" lon="17.8201717">
        <ele>15.5184</ele>
        <time>2013-05-25T17:15:22Z</time>
      </trkpt>
      <trkpt lat="59.9412959" lon="17.8202457">
        <ele>15.5184</ele>
        <time>2013-05-25T17:15:23Z</time>
      </trkpt>
      <trkpt lat="59.9413555" lon="17.8203188">
        <ele>15.0377</ele>
        <time>2013-05-25T17:15:24Z</time>
      </trkpt>
      <trkpt lat="59.9414144" lon="17.8203909">
        <ele>15.0377</ele>
        <time>2013-05-25T17:15:25Z</time>
      </trkpt>
      <trkpt lat="59.9414725" lon="17.8204634">
        <ele>14.557</ele>
        <time>2013-05-25T17:15:26Z</time>
      </trkpt>
      <trkpt lat="59.9415301" lon="17.8205366">
        <ele>14.557</ele>
        <time>2013-05-25T17:15:27Z</time>
      </trkpt>
      <trkpt lat="59.9415869" lon="17.8206084">
        <ele>14.0764</ele>
        <time>2013-05-25T17:15:28Z</time>
      </trkpt>
      <trkpt lat="59.9416426" lon="17.8206778">
        <ele>14.0764</ele>
        <time>2013-05-25T17:15:29Z</time>
      </trkpt>
      <trkpt lat="59.9416982" lon="17.8207465">
        <ele>14.0764</ele>
        <time>2013-05-25T17:15:30Z</time>
      </trkpt>
      <trkpt lat="59.9417528" lon="17.8208162">
        <ele>14.0764</ele>
        <time>2013-05-25T17:15:31Z</time>
      </trkpt>
      <trkpt lat="59.9418052" lon="17.8208834">
        <ele>14.0764</ele>
        <time>2013-05-25T17:15:32Z</time>
      </trkpt>
      <trkpt lat="59.9418569" lon="17.820947">
        <ele>14.0764</ele>
        <time>2013-05-25T17:15:33Z</time>
      </trkpt>
      <trkpt lat="59.9419078" lon="17.8210093">
        <ele>14.0764</ele>
        <time>2013-05-25T17:15:34Z</time>
      </trkpt>
      <trkpt lat="59.941959" lon="17.8210726">
        <ele>14.0764</ele>
        <time>2013-05-25T17:15:35Z</time>
      </trkpt>
      <trkpt lat="59.9420107" lon="17.8211376">
        <ele>14.0764</ele>
        <time>2013-05-25T17:15:36Z</time>
      </trkpt>
      <trkpt lat="59.9420627" lon="17.8212015">
        <ele>14.0764</ele>
        <time>2013-05-25T17:15:37Z</time>
      </trkpt>
      <trkpt lat="59.9421143" lon="17.8212647">
        <ele>14.557</ele>
        <time>2013-05-25T17:15:38Z</time>
      </trkpt>
      <trkpt lat="59.9421657" lon="17.8213273">
        <ele>14.557</ele>
        <time>2013-05-25T17:15:39Z</time>
      </trkpt>
      <trkpt lat="59.9422162" lon="17.8213889">
        <ele>14.557</ele>
        <time>2013-05-25T17:15:40Z</time>
      </trkpt>
      <trkpt lat="59.9422656" lon="17.8214502">
        <ele>15.0377</ele>
        <time>2013-05-25T17:15:41Z</time>
      </trkpt>
      <trkpt lat="59.9423147" lon="17.8215108">
        <ele>15.0377</ele>
        <time>2013-05-25T17:15:42Z</time>
      </trkpt>
      <trkpt lat="59.9423638" lon="17.8215716">
        <ele>15.0377</ele>
        <time>2013-05-25T17:15:43Z</time>
      </trkpt>
      <trkpt lat="59.9424127" lon="17.821634">
        <ele>15.0377</ele>
        <time>2013-05-25T17:15:44Z</time>
      </trkpt>
      <trkpt lat="59.942462" lon="17.8216963">
        <ele>15.5184</ele>
        <time>2013-05-25T17:15:45Z</time>
      </trkpt>
      <trkpt lat="59.9425112" lon="17.8217568">
        <ele>15.5184</ele>
        <time>2013-05-25T17:15:46Z</time>
      </trkpt>
      <trkpt lat="59.9425598" lon="17.8218175">
        <ele>15.999</ele>
        <time>2013-05-25T17:15:47Z</time>
      </trkpt>
      <trkpt lat="59.942608" lon="17.8218781">
        <ele>15.999</ele>
        <time>2013-05-25T17:15:48Z</time>
      </trkpt>
      <trkpt lat="59.9426555" lon="17.8219374">
        <ele>15.999</ele>
        <time>2013-05-25T17:15:49Z</time>
      </trkpt>
      <trkpt lat="59.9427022" lon="17.8219961">
        <ele>15.999</ele>
        <time>2013-05-25T17:15:50Z</time>
      </trkpt>
      <trkpt lat="59.9427484" lon="17.8220544">
        <ele>16.4797</ele>
        <time>2013-05-25T17:15:51Z</time>
      </trkpt>
      <trkpt lat="59.9427945" lon="17.822113">
        <ele>16.4797</ele>
        <time>2013-05-25T17:15:52Z</time>
      </trkpt>
      <trkpt lat="59.9428405" lon="17.8221701">
        <ele>16.4797</ele>
        <time>2013-05-25T17:15:53Z</time>
      </trkpt>
      <trkpt lat="59.9428858" lon="17.8222264">
        <ele>16.4797</ele>
        <time>2013-05-25T17:15:54Z</time>
      </trkpt>
      <trkpt lat="59.9429308" lon="17.822282">
        <ele>16.4797</ele>
        <time>2013-05-25T17:15:55Z</time>
      </trkpt>
      <trkpt lat="59.9429752" lon="17.8223364">
        <ele>16.9604</ele>
        <time>2013-05-25T17:15:56Z</time>
      </trkpt>
      <trkpt lat="59.9430189" lon="17.8223913">
        <ele>16.9604</ele>
        <time>2013-05-25T17:15:57Z</time>
      </trkpt>
      <trkpt lat="59.9430628" lon="17.8224472">
        <ele>16.9604</ele>
        <time>2013-05-25T17:15:58Z</time>
      </trkpt>
      <trkpt lat="59.943107" lon="17.8225027">
        <ele>17.4412</ele>
        <time>2013-05-25T17:15:59Z</time>
      </trkpt>
      <trkpt lat="59.9431556" lon="17.8225544">
        <ele>18.4023</ele>
        <time>2013-05-25T17:16:00Z</time>
      </trkpt>
      <trkpt lat="59.9432023" lon="17.8226079">
        <ele>18.8831</ele>
        <time>2013-05-25T17:16:01Z</time>
      </trkpt>
      <trkpt lat="59.9432483" lon="17.8226616">
        <ele>19.3638</ele>
        <time>2013-05-25T17:16:02Z</time>
      </trkpt>
      <trkpt lat="59.9432944" lon="17.8227128">
        <ele>19.8444</ele>
        <time>2013-05-25T17:16:03Z</time>
      </trkpt>
      <trkpt lat="59.9433398" lon="17.8227631">
        <ele>20.325</ele>
        <time>2013-05-25T17:16:04Z</time>
      </trkpt>
      <trkpt lat="59.943385" lon="17.8228149">
        <ele>20.325</ele>
        <time>2013-05-25T17:16:05Z</time>
      </trkpt>
      <trkpt lat="59.9434306" lon="17.8228683">
        <ele>20.8057</ele>
        <time>2013-05-25T17:16:06Z</time>
      </trkpt>
      <trkpt lat="59.9434762" lon="17.8229228">
        <ele>21.2864</ele>
        <time>2013-05-25T17:16:07Z</time>
      </trkpt>
      <trkpt lat="59.9435208" lon="17.8229771">
        <ele>21.2864</ele>
        <time>2013-05-25T17:16:08Z</time>
      </trkpt>
      <trkpt lat="59.9435643" lon="17.8230308">
        <ele>21.767</ele>
        <time>2013-05-25T17:16:09Z</time>
      </trkpt>
      <trkpt lat="59.9436083" lon="17.823085">
        <ele>21.767</ele>
        <time>2013-05-25T17:16:10Z</time>
      </trkpt>
      <trkpt lat="59.9436525" lon="17.8231396">
        <ele>21.767</ele>
        <time>2013-05-25T17:16:11Z</time>
      </trkpt>
      <trkpt lat="59.943697" lon="17.8231931">
        <ele>21.767</ele>
        <time>2013-05-25T17:16:12Z</time>
      </trkpt>
      <trkpt lat="59.9437421" lon="17.8232481">
        <ele>22.2476</ele>
        <time>2013-05-25T17:16:13Z</time>
      </trkpt>
      <trkpt lat="59.943787" lon="17.8233045">
        <ele>22.2476</ele>
        <time>2013-05-25T17:16:14Z</time>
      </trkpt>
      <trkpt lat="59.9438314" lon="17.82336">
        <ele>22.2476</ele>
        <time>2013-05-25T17:16:15Z</time>
      </trkpt>
      <trkpt lat="59.9438759" lon="17.8234164">
        <ele>22.2476</ele>
        <time>2013-05-25T17:16:16Z</time>
      </trkpt>
      <trkpt lat="59.9439194" lon="17.8234699">
        <ele>22.2476</ele>
        <time>2013-05-25T17:16:17Z</time>
      </trkpt>
      <trkpt lat="59.9439681" lon="17.8235227">
        <ele>22.7283</ele>
        <time>2013-05-25T17:16:18Z</time>
      </trkpt>
      <trkpt lat="59.9440065" lon="17.8235704">
        <ele>22.7283</ele>
        <time>2013-05-25T17:16:19Z</time>
      </trkpt>
      <trkpt lat="59.9440448" lon="17.8236231">
        <ele>22.7283</ele>
        <time>2013-05-25T17:16:20Z</time>
      </trkpt>
      <trkpt lat="59.9440803" lon="17.8236744">
        <ele>22.7283</ele>
        <time>2013-05-25T17:16:21Z</time>
      </trkpt>
      <trkpt lat="59.944116" lon="17.8237242">
        <ele>22.7283</ele>
        <time>2013-05-25T17:16:22Z</time>
      </trkpt>
      <trkpt lat="59.9441522" lon="17.823778">
        <ele>22.7283</ele>
        <time>2013-05-25T17:16:23Z</time>
      </trkpt>
      <trkpt lat="59.9441828" lon="17.8238315">
        <ele>22.2476</ele>
        <time>2013-05-25T17:16:24Z</time>
      </trkpt>
      <trkpt lat="59.9442201" lon="17.8238778">
        <ele>22.2476</ele>
        <time>2013-05-25T17:16:25Z</time>
      </trkpt>
      <trkpt lat="59.9442575" lon="17.8239204">
        <ele>21.767</ele>
        <time>2013-05-25T17:16:26Z</time>
      </trkpt>
      <trkpt lat="59.9442898" lon="17.8239618">
        <ele>21.2864</ele>
        <time>2013-05-25T17:16:27Z</time>
      </trkpt>
      <trkpt lat="59.9443233" lon="17.8240074">
        <ele>21.2864</ele>
        <time>2013-05-25T17:16:28Z</time>
      </trkpt>
      <trkpt lat="59.9443647" lon="17.8240565">
        <ele>20.8057</ele>
        <time>2013-05-25T17:16:29Z</time>
      </trkpt>
      <trkpt lat="59.9444058" lon="17.8240987">
        <ele>20.8057</ele>
        <time>2013-05-25T17:16:30Z</time>
      </trkpt>
      <trkpt lat="59.944447" lon="17.8241426">
        <ele>20.325</ele>
        <time>2013-05-25T17:16:31Z</time>
      </trkpt>
      <trkpt lat="59.9444884" lon="17.8241904">
        <ele>19.8444</ele>
        <time>2013-05-25T17:16:32Z</time>
      </trkpt>
      <trkpt lat="59.944531" lon="17.8242396">
        <ele>19.8444</ele>
        <time>2013-05-25T17:16:33Z</time>
      </trkpt>
      <trkpt lat="59.944575" lon="17.8242894">
        <ele>19.3638</ele>
        <time>2013-05-25T17:16:34Z</time>
      </trkpt>
      <trkpt lat="59.9446204" lon="17.8243385">
        <ele>19.3638</ele>
        <time>2013-05-25T17:16:35Z</time>
      </trkpt>
      <trkpt lat="59.9446666" lon="17.8243878">
        <ele>18.8831</ele>
        <time>2013-05-25T17:16:36Z</time>
      </trkpt>
      <trkpt lat="59.9447136" lon="17.8244369">
        <ele>18.8831</ele>
        <time>2013-05-25T17:16:37Z</time>
      </trkpt>
      <trkpt lat="59.9447607" lon="17.8244859">
        <ele>18.4023</ele>
        <time>2013-05-25T17:16:38Z</time>
      </trkpt>
      <trkpt lat="59.9448092" lon="17.8245358">
        <ele>18.4023</ele>
        <time>2013-05-25T17:16:39Z</time>
      </trkpt>
      <trkpt lat="59.9448591" lon="17.8245867">
        <ele>17.9218</ele>
        <time>2013-05-25T17:16:40Z</time>
      </trkpt>
      <trkpt lat="59.9449097" lon="17.824639">
        <ele>17.9218</ele>
        <time>2013-05-25T17:16:41Z</time>
      </trkpt>
      <trkpt lat="59.9449608" lon="17.8246933">
        <ele>17.9218</ele>
        <time>2013-05-25T17:16:42Z</time>
      </trkpt>
      <trkpt lat="59.9450121" lon="17.8247477">
        <ele>17.4412</ele>
        <time>2013-05-25T17:16:43Z</time>
      </trkpt>
      <trkpt lat="59.9450634" lon="17.824799">
        <ele>17.4412</ele>
        <time>2013-05-25T17:16:44Z</time>
      </trkpt>
      <trkpt lat="59.9451156" lon="17.8248498">
        <ele>16.9604</ele>
        <time>2013-05-25T17:16:45Z</time>
      </trkpt>
      <trkpt lat="59.9451685" lon="17.8249004">
        <ele>16.4797</ele>
        <time>2013-05-25T17:16:46Z</time>
      </trkpt>
      <trkpt lat="59.945221" lon="17.8249529">
        <ele>16.4797</ele>
        <time>2013-05-25T17:16:47Z</time>
      </trkpt>
      <trkpt lat="59.9452735" lon="17.8250055">
        <ele>15.999</ele>
        <time>2013-05-25T17:16:48Z</time>
      </trkpt>
      <trkpt lat="59.9453255" lon="17.8250585">
        <ele>15.5184</ele>
        <time>2013-05-25T17:16:49Z</time>
      </trkpt>
      <trkpt lat="59.9453773" lon="17.8251119">
        <ele>15.5184</ele>
        <time>2013-05-25T17:16:50Z</time>
      </trkpt>
      <trkpt lat="59.9454297" lon="17.8251648">
        <ele>15.0377</ele>
        <time>2013-05-25T17:16:51Z</time>
      </trkpt>
      <trkpt lat="59.9454829" lon="17.8252181">
        <ele>14.557</ele>
        <time>2013-05-25T17:16:52Z</time>
      </trkpt>
      <trkpt lat="59.9455367" lon="17.825272">
        <ele>14.557</ele>
        <time>2013-05-25T17:16:53Z</time>
      </trkpt>
      <trkpt lat="59.9455911" lon="17.8253267">
        <ele>14.0764</ele>
        <time>2013-05-25T17:16:54Z</time>
      </trkpt>
      <trkpt lat="59.945647" lon="17.8253811">
        <ele>14.0764</ele>
        <time>2013-05-25T17:16:55Z</time>
      </trkpt>
      <trkpt lat="59.9457037" lon="17.8254382">
        <ele>13.5958</ele>
        <time>2013-05-25T17:16:56Z</time>
      </trkpt>
      <trkpt lat="59.9457612" lon="17.8254961">
        <ele>13.5958</ele>
        <time>2013-05-25T17:16:57Z</time>
      </trkpt>
      <trkpt lat="59.9458185" lon="17.8255537">
        <ele>13.1151</ele>
        <time>2013-05-25T17:16:58Z</time>
      </trkpt>
      <trkpt lat="59.9458762" lon="17.825614">
        <ele>13.1151</ele>
        <time>2013-05-25T17:16:59Z</time>
      </trkpt>
      <trkpt lat="59.9459347" lon="17.8256758">
        <ele>13.1151</ele>
        <time>2013-05-25T17:17:00Z</time>
      </trkpt>
      <trkpt lat="59.9459943" lon="17.8257388">
        <ele>13.1151</ele>
        <time>2013-05-25T17:17:01Z</time>
      </trkpt>
      <trkpt lat="59.9460553" lon="17.8258027">
        <ele>12.6344</ele>
        <time>2013-05-25T17:17:02Z</time>
      </trkpt>
      <trkpt lat="59.9461173" lon="17.8258673">
        <ele>12.6344</ele>
        <time>2013-05-25T17:17:03Z</time>
      </trkpt>
      <trkpt lat="59.9461795" lon="17.8259333">
        <ele>12.6344</ele>
        <time>2013-05-25T17:17:04Z</time>
      </trkpt>
      <trkpt lat="59.9462423" lon="17.825999">
        <ele>12.6344</ele>
        <time>2013-05-25T17:17:05Z</time>
      </trkpt>
      <trkpt lat="59.9463056" lon="17.8260654">
        <ele>12.6344</ele>
        <time>2013-05-25T17:17:06Z</time>
      </trkpt>
      <trkpt lat="59.9463689" lon="17.8261314">
        <ele>12.1538</ele>
        <time>2013-05-25T17:17:07Z</time>
      </trkpt>
      <trkpt lat="59.9464321" lon="17.8261967">
        <ele>12.1538</ele>
        <time>2013-05-25T17:17:08Z</time>
      </trkpt>
      <trkpt lat="59.9464947" lon="17.8262617">
        <ele>12.1538</ele>
        <time>2013-05-25T17:17:09Z</time>
      </trkpt>
      <trkpt lat="59.9465574" lon="17.8263242">
        <ele>12.1538</ele>
        <time>2013-05-25T17:17:10Z</time>
      </trkpt>
      <trkpt lat="59.9466201" lon="17.8263877">
        <ele>12.1538</ele>
        <time>2013-05-25T17:17:11Z</time>
      </trkpt>
      <trkpt lat="59.9466822" lon="17.826451">
        <ele>12.1538</ele>
        <time>2013-05-25T17:17:12Z</time>
      </trkpt>
      <trkpt lat="59.9467443" lon="17.8265179">
        <ele>12.1538</ele>
        <time>2013-05-25T17:17:13Z</time>
      </trkpt>
      <trkpt lat="59.9468043" lon="17.8265831">
        <ele>12.1538</ele>
        <time>2013-05-25T17:17:14Z</time>
      </trkpt>
      <trkpt lat="59.9468639" lon="17.8266464">
        <ele>12.1538</ele>
        <time>2013-05-25T17:17:15Z</time>
      </trkpt>
      <trkpt lat="59.9469223" lon="17.8267046">
        <ele>11.6732</ele>
        <time>2013-05-25T17:17:16Z</time>
      </trkpt>
      <trkpt lat="59.946981" lon="17.8267633">
        <ele>11.6732</ele>
        <time>2013-05-25T17:17:17Z</time>
      </trkpt>
      <trkpt lat="59.9470391" lon="17.826823">
        <ele>11.6732</ele>
        <time>2013-05-25T17:17:18Z</time>
      </trkpt>
      <trkpt lat="59.9470956" lon="17.8268824">
        <ele>11.6732</ele>
        <time>2013-05-25T17:17:19Z</time>
      </trkpt>
      <trkpt lat="59.9471526" lon="17.8269405">
        <ele>11.6732</ele>
        <time>2013-05-25T17:17:20Z</time>
      </trkpt>
      <trkpt lat="59.94721" lon="17.8269978">
        <ele>11.6732</ele>
        <time>2013-05-25T17:17:21Z</time>
      </trkpt>
      <trkpt lat="59.9472655" lon="17.827055">
        <ele>11.6732</ele>
        <time>2013-05-25T17:17:22Z</time>
      </trkpt>
      <trkpt lat="59.9473205" lon="17.8271122">
        <ele>11.6732</ele>
        <time>2013-05-25T17:17:23Z</time>
      </trkpt>
      <trkpt lat="59.9473748" lon="17.8271683">
        <ele>11.1925</ele>
        <time>2013-05-25T17:17:24Z</time>
      </trkpt>
      <trkpt lat="59.9474287" lon="17.8272238">
        <ele>11.6732</ele>
        <time>2013-05-25T17:17:25Z</time>
      </trkpt>
      <trkpt lat="59.9474829" lon="17.8272782">
        <ele>11.6732</ele>
        <time>2013-05-25T17:17:26Z</time>
      </trkpt>
      <trkpt lat="59.9475364" lon="17.8273322">
        <ele>11.6732</ele>
        <time>2013-05-25T17:17:27Z</time>
      </trkpt>
      <trkpt lat="59.9475893" lon="17.8273869">
        <ele>11.6732</ele>
        <time>2013-05-25T17:17:28Z</time>
      </trkpt>
      <trkpt lat="59.9476413" lon="17.8274404">
        <ele>11.6732</ele>
        <time>2013-05-25T17:17:29Z</time>
      </trkpt>
      <trkpt lat="59.9476913" lon="17.8274917">
        <ele>12.1538</ele>
        <time>2013-05-25T17:17:30Z</time>
      </trkpt>
      <trkpt lat="59.9477413" lon="17.8275469">
        <ele>12.1538</ele>
        <time>2013-05-25T17:17:31Z</time>
      </trkpt>
      <trkpt lat="59.9477926" lon="17.8276021">
        <ele>12.6344</ele>
        <time>2013-05-25T17:17:32Z</time>
      </trkpt>
      <trkpt lat="59.947843" lon="17.8276572">
        <ele>13.1151</ele>
        <time>2013-05-25T17:17:33Z</time>
      </trkpt>
      <trkpt lat="59.9478922" lon="17.8277175">
        <ele>13.1151</ele>
        <time>2013-05-25T17:17:34Z</time>
      </trkpt>
      <trkpt lat="59.9479409" lon="17.8277797">
        <ele>13.5958</ele>
        <time>2013-05-25T17:17:35Z</time>
      </trkpt>
      <trkpt lat="59.9479907" lon="17.8278355">
        <ele>13.5958</ele>
        <time>2013-05-25T17:17:36Z</time>
      </trkpt>
      <trkpt lat="59.9480421" lon="17.8278905">
        <ele>13.5958</ele>
        <time>2013-05-25T17:17:37Z</time>
      </trkpt>
      <trkpt lat="59.9480942" lon="17.8279455">
        <ele>13.5958</ele>
        <time>2013-05-25T17:17:38Z</time>
      </trkpt>
      <trkpt lat="59.9481455" lon="17.8279937">
        <ele>14.0764</ele>
        <time>2013-05-25T17:17:39Z</time>
      </trkpt>
      <trkpt lat="59.9481948" lon="17.8280364">
        <ele>14.0764</ele>
        <time>2013-05-25T17:17:40Z</time>
      </trkpt>
      <trkpt lat="59.9482422" lon="17.828078">
        <ele>14.557</ele>
        <time>2013-05-25T17:17:41Z</time>
      </trkpt>
      <trkpt lat="59.9482876" lon="17.8281266">
        <ele>14.557</ele>
        <time>2013-05-25T17:17:42Z</time>
      </trkpt>
      <trkpt lat="59.9483298" lon="17.8281729">
        <ele>15.0377</ele>
        <time>2013-05-25T17:17:43Z</time>
      </trkpt>
      <trkpt lat="59.9483704" lon="17.8282136">
        <ele>15.0377</ele>
        <time>2013-05-25T17:17:44Z</time>
      </trkpt>
      <trkpt lat="59.9484121" lon="17.8282536">
        <ele>15.0377</ele>
        <time>2013-05-25T17:17:45Z</time>
      </trkpt>
      <trkpt lat="59.9484551" lon="17.8282976">
        <ele>15.0377</ele>
        <time>2013-05-25T17:17:46Z</time>
      </trkpt>
      <trkpt lat="59.9484998" lon="17.8283441">
        <ele>15.0377</ele>
        <time>2013-05-25T17:17:47Z</time>
      </trkpt>
      <trkpt lat="59.948547" lon="17.8283905">
        <ele>15.0377</ele>
        <time>2013-05-25T17:17:48Z</time>
      </trkpt>
      <trkpt lat="59.9485953" lon="17.8284396">
        <ele>15.0377</ele>
        <time>2013-05-25T17:17:49Z</time>
      </trkpt>
      <trkpt lat="59.9486448" lon="17.8284903">
        <ele>15.0377</ele>
        <time>2013-05-25T17:17:50Z</time>
      </trkpt>
      <trkpt lat="59.9486957" lon="17.8285427">
        <ele>14.557</ele>
        <time>2013-05-25T17:17:51Z</time>
      </trkpt>
      <trkpt lat="59.9487474" lon="17.8285971">
        <ele>14.557</ele>
        <time>2013-05-25T17:17:52Z</time>
      </trkpt>
      <trkpt lat="59.9488009" lon="17.8286525">
        <ele>14.557</ele>
        <time>2013-05-25T17:17:53Z</time>
      </trkpt>
      <trkpt lat="59.9488552" lon="17.8287105">
        <ele>14.557</ele>
        <time>2013-05-25T17:17:54Z</time>
      </trkpt>
      <trkpt lat="59.9489081" lon="17.8287676">
        <ele>15.0377</ele>
        <time>2013-05-25T17:17:55Z</time>
      </trkpt>
      <trkpt lat="59.9489591" lon="17.8288235">
        <ele>15.0377</ele>
        <time>2013-05-25T17:17:56Z</time>
      </trkpt>
      <trkpt lat="59.9490075" lon="17.8288783">
        <ele>15.0377</ele>
        <time>2013-05-25T17:17:57Z</time>
      </trkpt>
      <trkpt lat="59.9490536" lon="17.8289302">
        <ele>15.0377</ele>
        <time>2013-05-25T17:17:58Z</time>
      </trkpt>
      <trkpt lat="59.9490967" lon="17.8289774">
        <ele>15.0377</ele>
        <time>2013-05-25T17:17:59Z</time>
      </trkpt>
      <trkpt lat="59.9491401" lon="17.829011">
        <ele>15.5184</ele>
        <time>2013-05-25T17:18:00Z</time>
      </trkpt>
      <trkpt lat="59.9491852" lon="17.829028">
        <ele>15.5184</ele>
        <time>2013-05-25T17:18:01Z</time>
      </trkpt>
      <trkpt lat="59.9492313" lon="17.82904">
        <ele>15.5184</ele>
        <time>2013-05-25T17:18:02Z</time>
      </trkpt>
      <trkpt lat="59.949278" lon="17.8290606">
        <ele>15.5184</ele>
        <time>2013-05-25T17:18:03Z</time>
      </trkpt>
      <trkpt lat="59.9493256" lon="17.8290913">
        <ele>15.5184</ele>
        <time>2013-05-25T17:18:04Z</time>
      </trkpt>
      <trkpt lat="59.9493727" lon="17.8291311">
        <ele>15.5184</ele>
        <time>2013-05-25T17:18:05Z</time>
      </trkpt>
      <trkpt lat="59.9494173" lon="17.8291814">
        <ele>15.5184</ele>
        <time>2013-05-25T17:18:06Z</time>
      </trkpt>
      <trkpt lat="59.9494591" lon="17.8292411">
        <ele>15.5184</ele>
        <time>2013-05-25T17:18:07Z</time>
      </trkpt>
      <trkpt lat="59.9495007" lon="17.8293067">
        <ele>15.5184</ele>
        <time>2013-05-25T17:18:08Z</time>
      </trkpt>
      <trkpt lat="59.9495433" lon="17.8293736">
        <ele>15.5184</ele>
        <time>2013-05-25T17:18:09Z</time>
      </trkpt>
      <trkpt lat="59.9495861" lon="17.8294399">
        <ele>15.5184</ele>
        <time>2013-05-25T17:18:10Z</time>
      </trkpt>
      <trkpt lat="59.9496284" lon="17.829508">
        <ele>15.5184</ele>
        <time>2013-05-25T17:18:11Z</time>
      </trkpt>
      <trkpt lat="59.94967" lon="17.8295778">
        <ele>15.5184</ele>
        <time>2013-05-25T17:18:12Z</time>
      </trkpt>
      <trkpt lat="59.9497146" lon="17.8296498">
        <ele>15.5184</ele>
        <time>2013-05-25T17:18:13Z</time>
      </trkpt>
      <trkpt lat="59.949757" lon="17.8297201">
        <ele>15.5184</ele>
        <time>2013-05-25T17:18:14Z</time>
      </trkpt>
      <trkpt lat="59.949801" lon="17.829771">
        <ele>15.5184</ele>
        <time>2013-05-25T17:18:15Z</time>
      </trkpt>
      <trkpt lat="59.9498518" lon="17.8297924">
        <ele>15.5184</ele>
        <time>2013-05-25T17:18:16Z</time>
      </trkpt>
      <trkpt lat="59.9499035" lon="17.8297823">
        <ele>15.999</ele>
        <time>2013-05-25T17:18:17Z</time>
      </trkpt>
      <trkpt lat="59.9499492" lon="17.8297365">
        <ele>15.999</ele>
        <time>2013-05-25T17:18:18Z</time>
      </trkpt>
      <trkpt lat="59.9499824" lon="17.8296544">
        <ele>15.5184</ele>
        <time>2013-05-25T17:18:19Z</time>
      </trkpt>
      <trkpt lat="59.9500051" lon="17.8295532">
        <ele>15.5184</ele>
        <time>2013-05-25T17:18:20Z</time>
      </trkpt>
      <trkpt lat="59.9500213" lon="17.829442">
        <ele>15.5184</ele>
        <time>2013-05-25T17:18:21Z</time>
      </trkpt>
      <trkpt lat="59.9500328" lon="17.8293248">
        <ele>15.5184</ele>
        <time>2013-05-25T17:18:22Z</time>
      </trkpt>
      <trkpt lat="59.9500416" lon="17.8292038">
        <ele>15.0377</ele>
        <time>2013-05-25T17:18:23Z</time>
      </trkpt>
      <trkpt lat="59.950046" lon="17.8290815">
        <ele>15.0377</ele>
        <time>2013-05-25T17:18:24Z</time>
      </trkpt>
      <trkpt lat="59.9500456" lon="17.8289586">
        <ele>15.0377</ele>
        <time>2013-05-25T17:18:25Z</time>
      </trkpt>
      <trkpt lat="59.950045" lon="17.8288308">
        <ele>15.0377</ele>
        <time>2013-05-25T17:18:26Z</time>
      </trkpt>
      <trkpt lat="59.950043" lon="17.8287005">
        <ele>15.5184</ele>
        <time>2013-05-25T17:18:27Z</time>
      </trkpt>
      <trkpt lat="59.9500403" lon="17.8285677">
        <ele>15.5184</ele>
        <time>2013-05-25T17:18:28Z</time>
      </trkpt>
      <trkpt lat="59.9500383" lon="17.8284334">
        <ele>15.999</ele>
        <time>2013-05-25T17:18:29Z</time>
      </trkpt>
      <trkpt lat="59.9500369" lon="17.8282981">
        <ele>15.999</ele>
        <time>2013-05-25T17:18:30Z</time>
      </trkpt>
      <trkpt lat="59.9500362" lon="17.8281625">
        <ele>16.4797</ele>
        <time>2013-05-25T17:18:31Z</time>
      </trkpt>
      <trkpt lat="59.9500347" lon="17.8280255">
        <ele>16.4797</ele>
        <time>2013-05-25T17:18:32Z</time>
      </trkpt>
      <trkpt lat="59.950033" lon="17.8278857">
        <ele>16.9604</ele>
        <time>2013-05-25T17:18:33Z</time>
      </trkpt>
      <trkpt lat="59.9500314" lon="17.8277449">
        <ele>16.9604</ele>
        <time>2013-05-25T17:18:34Z</time>
      </trkpt>
      <trkpt lat="59.9500312" lon="17.8276036">
        <ele>17.4412</ele>
        <time>2013-05-25T17:18:35Z</time>
      </trkpt>
      <trkpt lat="59.9500315" lon="17.8274624">
        <ele>17.4412</ele>
        <time>2013-05-25T17:18:36Z</time>
      </trkpt>
      <trkpt lat="59.9500327" lon="17.8273217">
        <ele>17.9218</ele>
        <time>2013-05-25T17:18:37Z</time>
      </trkpt>
      <trkpt lat="59.9500347" lon="17.8271827">
        <ele>17.9218</ele>
        <time>2013-05-25T17:18:38Z</time>
      </trkpt>
      <trkpt lat="59.9500383" lon="17.8270451">
        <ele>17.9218</ele>
        <time>2013-05-25T17:18:39Z</time>
      </trkpt>
      <trkpt lat="59.9500441" lon="17.8269078">
        <ele>18.4023</ele>
        <time>2013-05-25T17:18:40Z</time>
      </trkpt>
      <trkpt lat="59.9500518" lon="17.8267711">
        <ele>18.4023</ele>
        <time>2013-05-25T17:18:41Z</time>
      </trkpt>
      <trkpt lat="59.9500621" lon="17.8266369">
        <ele>18.4023</ele>
        <time>2013-05-25T17:18:42Z</time>
      </trkpt>
      <trkpt lat="59.9500742" lon="17.8265064">
        <ele>18.4023</ele>
        <time>2013-05-25T17:18:43Z</time>
      </trkpt>
      <trkpt lat="59.9500886" lon="17.826379">
        <ele>18.4023</ele>
        <time>2013-05-25T17:18:44Z</time>
      </trkpt>
      <trkpt lat="59.9501061" lon="17.8262568">
        <ele>18.8831</ele>
        <time>2013-05-25T17:18:45Z</time>
      </trkpt>
      <trkpt lat="59.9501257" lon="17.8261384">
        <ele>18.8831</ele>
        <time>2013-05-25T17:18:46Z</time>
      </trkpt>
      <trkpt lat="59.9501486" lon="17.8260247">
        <ele>18.8831</ele>
        <time>2013-05-25T17:18:47Z</time>
      </trkpt>
      <trkpt lat="59.9501741" lon="17.8259153">
        <ele>18.8831</ele>
        <time>2013-05-25T17:18:48Z</time>
      </trkpt>
      <trkpt lat="59.9501994" lon="17.8258071">
        <ele>18.8831</ele>
        <time>2013-05-25T17:18:49Z</time>
      </trkpt>
      <trkpt lat="59.9502252" lon="17.8257005">
        <ele>19.3638</ele>
        <time>2013-05-25T17:18:50Z</time>
      </trkpt>
      <trkpt lat="59.9502497" lon="17.8255941">
        <ele>19.3638</ele>
        <time>2013-05-25T17:18:51Z</time>
      </trkpt>
      <trkpt lat="59.950273" lon="17.825487">
        <ele>19.3638</ele>
        <time>2013-05-25T17:18:52Z</time>
      </trkpt>
      <trkpt lat="59.9502967" lon="17.82538">
        <ele>19.3638</ele>
        <time>2013-05-25T17:18:53Z</time>
      </trkpt>
      <trkpt lat="59.9503207" lon="17.825272">
        <ele>19.3638</ele>
        <time>2013-05-25T17:18:54Z</time>
      </trkpt>
      <trkpt lat="59.9503453" lon="17.8251637">
        <ele>19.3638</ele>
        <time>2013-05-25T17:18:55Z</time>
      </trkpt>
      <trkpt lat="59.9503697" lon="17.8250549">
        <ele>19.3638</ele>
        <time>2013-05-25T17:18:56Z</time>
      </trkpt>
      <trkpt lat="59.9503932" lon="17.8249451">
        <ele>19.3638</ele>
        <time>2013-05-25T17:18:57Z</time>
      </trkpt>
      <trkpt lat="59.9504169" lon="17.8248335">
        <ele>19.3638</ele>
        <time>2013-05-25T17:18:58Z</time>
      </trkpt>
      <trkpt lat="59.9504413" lon="17.8247225">
        <ele>19.3638</ele>
        <time>2013-05-25T17:18:59Z</time>
      </trkpt>
      <trkpt lat="59.9504657" lon="17.8246114">
        <ele>19.3638</ele>
        <time>2013-05-25T17:19:00Z</time>
      </trkpt>
      <trkpt lat="59.9504904" lon="17.8244989">
        <ele>19.3638</ele>
        <time>2013-05-25T17:19:01Z</time>
      </trkpt>
      <trkpt lat="59.9505143" lon="17.8243854">
        <ele>19.3638</ele>
        <time>2013-05-25T17:19:02Z</time>
      </trkpt>
      <trkpt lat="59.9505384" lon="17.8242748">
        <ele>19.3638</ele>
        <time>2013-05-25T17:19:03Z</time>
      </trkpt>
      <trkpt lat="59.9505616" lon="17.8241665">
        <ele>19.3638</ele>
        <time>2013-05-25T17:19:04Z</time>
      </trkpt>
      <trkpt lat="59.9505833" lon="17.8240572">
        <ele>19.8444</ele>
        <time>2013-05-25T17:19:05Z</time>
      </trkpt>
      <trkpt lat="59.9506015" lon="17.8239428">
        <ele>19.8444</ele>
        <time>2013-05-25T17:19:06Z</time>
      </trkpt>
      <trkpt lat="59.9506196" lon="17.8238297">
        <ele>19.8444</ele>
        <time>2013-05-25T17:19:07Z</time>
      </trkpt>
      <trkpt lat="59.9506385" lon="17.8237153">
        <ele>19.3638</ele>
        <time>2013-05-25T17:19:08Z</time>
      </trkpt>
      <trkpt lat="59.9506574" lon="17.8236051">
        <ele>19.3638</ele>
        <time>2013-05-25T17:19:09Z</time>
      </trkpt>
      <trkpt lat="59.9506717" lon="17.8234917">
        <ele>18.4023</ele>
        <time>2013-05-25T17:19:10Z</time>
      </trkpt>
      <trkpt lat="59.9506841" lon="17.8233759">
        <ele>17.9218</ele>
        <time>2013-05-25T17:19:11Z</time>
      </trkpt>
      <trkpt lat="59.9506977" lon="17.8232586">
        <ele>17.4412</ele>
        <time>2013-05-25T17:19:12Z</time>
      </trkpt>
      <trkpt lat="59.9507098" lon="17.8231399">
        <ele>17.4412</ele>
        <time>2013-05-25T17:19:13Z</time>
      </trkpt>
      <trkpt lat="59.950723" lon="17.8230227">
        <ele>16.9604</ele>
        <time>2013-05-25T17:19:14Z</time>
      </trkpt>
      <trkpt lat="59.9507346" lon="17.8229008">
        <ele>16.9604</ele>
        <time>2013-05-25T17:19:15Z</time>
      </trkpt>
      <trkpt lat="59.9507464" lon="17.8227731">
        <ele>16.4797</ele>
        <time>2013-05-25T17:19:16Z</time>
      </trkpt>
      <trkpt lat="59.9507616" lon="17.8226486">
        <ele>16.4797</ele>
        <time>2013-05-25T17:19:17Z</time>
      </trkpt>
      <trkpt lat="59.9507769" lon="17.8225239">
        <ele>15.999</ele>
        <time>2013-05-25T17:19:18Z</time>
      </trkpt>
      <trkpt lat="59.9507916" lon="17.8224001">
        <ele>15.999</ele>
        <time>2013-05-25T17:19:19Z</time>
      </trkpt>
      <trkpt lat="59.9508055" lon="17.8222772">
        <ele>15.999</ele>
        <time>2013-05-25T17:19:20Z</time>
      </trkpt>
      <trkpt lat="59.9508178" lon="17.8221515">
        <ele>15.999</ele>
        <time>2013-05-25T17:19:21Z</time>
      </trkpt>
      <trkpt lat="59.9508298" lon="17.8220252">
        <ele>15.999</ele>
        <time>2013-05-25T17:19:22Z</time>
      </trkpt>
      <trkpt lat="59.9508413" lon="17.8218996">
        <ele>15.5184</ele>
        <time>2013-05-25T17:19:23Z</time>
      </trkpt>
      <trkpt lat="59.9508538" lon="17.8217752">
        <ele>15.5184</ele>
        <time>2013-05-25T17:19:24Z</time>
      </trkpt>
      <trkpt lat="59.9508677" lon="17.8216509">
        <ele>15.5184</ele>
        <time>2013-05-25T17:19:25Z</time>
      </trkpt>
      <trkpt lat="59.9508812" lon="17.8215247">
        <ele>15.5184</ele>
        <time>2013-05-25T17:19:26Z</time>
      </trkpt>
      <trkpt lat="59.9508936" lon="17.8213993">
        <ele>15.5184</ele>
        <time>2013-05-25T17:19:27Z</time>
      </trkpt>
      <trkpt lat="59.9509053" lon="17.8212741">
        <ele>15.5184</ele>
        <time>2013-05-25T17:19:28Z</time>
      </trkpt>
      <trkpt lat="59.9509174" lon="17.8211487">
        <ele>15.5184</ele>
        <time>2013-05-25T17:19:29Z</time>
      </trkpt>
      <trkpt lat="59.9509287" lon="17.821022">
        <ele>15.5184</ele>
        <time>2013-05-25T17:19:30Z</time>
      </trkpt>
      <trkpt lat="59.950938" lon="17.8208927">
        <ele>15.999</ele>
        <time>2013-05-25T17:19:31Z</time>
      </trkpt>
      <trkpt lat="59.950947" lon="17.8207596">
        <ele>16.4797</ele>
        <time>2013-05-25T17:19:32Z</time>
      </trkpt>
      <trkpt lat="59.9509558" lon="17.8206265">
        <ele>16.4797</ele>
        <time>2013-05-25T17:19:33Z</time>
      </trkpt>
      <trkpt lat="59.9509645" lon="17.8204985">
        <ele>16.4797</ele>
        <time>2013-05-25T17:19:34Z</time>
      </trkpt>
      <trkpt lat="59.9509722" lon="17.8203726">
        <ele>16.9604</ele>
        <time>2013-05-25T17:19:35Z</time>
      </trkpt>
      <trkpt lat="59.9509799" lon="17.8202477">
        <ele>16.9604</ele>
        <time>2013-05-25T17:19:36Z</time>
      </trkpt>
      <trkpt lat="59.9509868" lon="17.8201236">
        <ele>16.9604</ele>
        <time>2013-05-25T17:19:37Z</time>
      </trkpt>
      <trkpt lat="59.9509919" lon="17.8199979">
        <ele>17.4412</ele>
        <time>2013-05-25T17:19:38Z</time>
      </trkpt>
      <trkpt lat="59.9509962" lon="17.8198721">
        <ele>17.9218</ele>
        <time>2013-05-25T17:19:39Z</time>
      </trkpt>
      <trkpt lat="59.9509989" lon="17.8197477">
        <ele>17.4412</ele>
        <time>2013-05-25T17:19:40Z</time>
      </trkpt>
      <trkpt lat="59.9509998" lon="17.8196209">
        <ele>17.4412</ele>
        <time>2013-05-25T17:19:41Z</time>
      </trkpt>
      <trkpt lat="59.9510001" lon="17.8194925">
        <ele>17.9218</ele>
        <time>2013-05-25T17:19:42Z</time>
      </trkpt>
      <trkpt lat="59.9509999" lon="17.8193662">
        <ele>17.9218</ele>
        <time>2013-05-25T17:19:43Z</time>
      </trkpt>
      <trkpt lat="59.9510007" lon="17.8192422">
        <ele>18.4023</ele>
        <time>2013-05-25T17:19:44Z</time>
      </trkpt>
      <trkpt lat="59.9510032" lon="17.8191185">
        <ele>18.8831</ele>
        <time>2013-05-25T17:19:45Z</time>
      </trkpt>
      <trkpt lat="59.9510085" lon="17.8189956">
        <ele>18.8831</ele>
        <time>2013-05-25T17:19:46Z</time>
      </trkpt>
      <trkpt lat="59.9510165" lon="17.8188735">
        <ele>19.3638</ele>
        <time>2013-05-25T17:19:47Z</time>
      </trkpt>
      <trkpt lat="59.9510267" lon="17.8187534">
        <ele>19.3638</ele>
        <time>2013-05-25T17:19:48Z</time>
      </trkpt>
      <trkpt lat="59.9510374" lon="17.8186324">
        <ele>19.3638</ele>
        <time>2013-05-25T17:19:49Z</time>
      </trkpt>
      <trkpt lat="59.951049" lon="17.8185109">
        <ele>19.3638</ele>
        <time>2013-05-25T17:19:50Z</time>
      </trkpt>
      <trkpt lat="59.9510624" lon="17.8183916">
        <ele>19.3638</ele>
        <time>2013-05-25T17:19:51Z</time>
      </trkpt>
      <trkpt lat="59.9510763" lon="17.8182703">
        <ele>19.3638</ele>
        <time>2013-05-25T17:19:52Z</time>
      </trkpt>
      <trkpt lat="59.9510904" lon="17.8181457">
        <ele>19.3638</ele>
        <time>2013-05-25T17:19:53Z</time>
      </trkpt>
      <trkpt lat="59.9511037" lon="17.8180172">
        <ele>19.3638</ele>
        <time>2013-05-25T17:19:54Z</time>
      </trkpt>
      <trkpt lat="59.9511167" lon="17.8178878">
        <ele>19.3638</ele>
        <time>2013-05-25T17:19:55Z</time>
      </trkpt>
      <trkpt lat="59.9511293" lon="17.8177578">
        <ele>19.3638</ele>
        <time>2013-05-25T17:19:56Z</time>
      </trkpt>
      <trkpt lat="59.9511428" lon="17.8176276">
        <ele>19.3638</ele>
        <time>2013-05-25T17:19:57Z</time>
      </trkpt>
      <trkpt lat="59.9511574" lon="17.817498">
        <ele>19.3638</ele>
        <time>2013-05-25T17:19:58Z</time>
      </trkpt>
      <trkpt lat="59.9511719" lon="17.8173687">
        <ele>19.3638</ele>
        <time>2013-05-25T17:19:59Z</time>
      </trkpt>
      <trkpt lat="59.9511854" lon="17.8172382">
        <ele>19.8444</ele>
        <time>2013-05-25T17:20:00Z</time>
      </trkpt>
      <trkpt lat="59.9511988" lon="17.8171075">
        <ele>19.8444</ele>
        <time>2013-05-25T17:20:01Z</time>
      </trkpt>
      <trkpt lat="59.9512125" lon="17.8169769">
        <ele>19.8444</ele>
        <time>2013-05-25T17:20:02Z</time>
      </trkpt>
      <trkpt lat="59.9512257" lon="17.8168458">
        <ele>19.8444</ele>
        <time>2013-05-25T17:20:03Z</time>
      </trkpt>
      <trkpt lat="59.9512396" lon="17.8167144">
        <ele>19.8444</ele>
        <time>2013-05-25T17:20:04Z</time>
      </trkpt>
      <trkpt lat="59.9512525" lon="17.8165812">
        <ele>19.8444</ele>
        <time>2013-05-25T17:20:05Z</time>
      </trkpt>
      <trkpt lat="59.9512638" lon="17.8164466">
        <ele>19.8444</ele>
        <time>2013-05-25T17:20:06Z</time>
      </trkpt>
      <trkpt lat="59.9512749" lon="17.8163129">
        <ele>19.8444</ele>
        <time>2013-05-25T17:20:07Z</time>
      </trkpt>
      <trkpt lat="59.951286" lon="17.8161814">
        <ele>19.8444</ele>
        <time>2013-05-25T17:20:08Z</time>
      </trkpt>
      <trkpt lat="59.9512957" lon="17.8160498">
        <ele>19.8444</ele>
        <time>2013-05-25T17:20:09Z</time>
      </trkpt>
      <trkpt lat="59.9513054" lon="17.8159173">
        <ele>20.325</ele>
        <time>2013-05-25T17:20:10Z</time>
      </trkpt>
      <trkpt lat="59.9513141" lon="17.8157845">
        <ele>20.325</ele>
        <time>2013-05-25T17:20:11Z</time>
      </trkpt>
      <trkpt lat="59.951321" lon="17.8156508">
        <ele>20.325</ele>
        <time>2013-05-25T17:20:12Z</time>
      </trkpt>
      <trkpt lat="59.9513272" lon="17.8155172">
        <ele>20.325</ele>
        <time>2013-05-25T17:20:13Z</time>
      </trkpt>
      <trkpt lat="59.9513332" lon="17.815384">
        <ele>20.325</ele>
        <time>2013-05-25T17:20:14Z</time>
      </trkpt>
      <trkpt lat="59.9513381" lon="17.8152511">
        <ele>20.8057</ele>
        <time>2013-05-25T17:20:15Z</time>
      </trkpt>
      <trkpt lat="59.951342" lon="17.8151182">
        <ele>20.8057</ele>
        <time>2013-05-25T17:20:16Z</time>
      </trkpt>
      <trkpt lat="59.9513448" lon="17.8149858">
        <ele>20.8057</ele>
        <time>2013-05-25T17:20:17Z</time>
      </trkpt>
      <trkpt lat="59.9513463" lon="17.8148522">
        <ele>20.8057</ele>
        <time>2013-05-25T17:20:18Z</time>
      </trkpt>
      <trkpt lat="59.9513473" lon="17.8147168">
        <ele>20.8057</ele>
        <time>2013-05-25T17:20:19Z</time>
      </trkpt>
      <trkpt lat="59.9513499" lon="17.8145804">
        <ele>20.8057</ele>
        <time>2013-05-25T17:20:20Z</time>
      </trkpt>
      <trkpt lat="59.9513526" lon="17.8144438">
        <ele>20.8057</ele>
        <time>2013-05-25T17:20:21Z</time>
      </trkpt>
      <trkpt lat="59.9513531" lon="17.8143037">
        <ele>20.8057</ele>
        <time>2013-05-25T17:20:22Z</time>
      </trkpt>
      <trkpt lat="59.9513542" lon="17.8141634">
        <ele>20.8057</ele>
        <time>2013-05-25T17:20:23Z</time>
      </trkpt>
      <trkpt lat="59.9513565" lon="17.8140239">
        <ele>21.2864</ele>
        <time>2013-05-25T17:20:24Z</time>
      </trkpt>
      <trkpt lat="59.9513565" lon="17.8138838">
        <ele>21.2864</ele>
        <time>2013-05-25T17:20:25Z</time>
      </trkpt>
      <trkpt lat="59.9513557" lon="17.8137438">
        <ele>21.2864</ele>
        <time>2013-05-25T17:20:26Z</time>
      </trkpt>
      <trkpt lat="59.9513563" lon="17.8136048">
        <ele>21.2864</ele>
        <time>2013-05-25T17:20:27Z</time>
      </trkpt>
      <trkpt lat="59.9513571" lon="17.8134656">
        <ele>21.2864</ele>
        <time>2013-05-25T17:20:28Z</time>
      </trkpt>
      <trkpt lat="59.9513584" lon="17.8133264">
        <ele>21.767</ele>
        <time>2013-05-25T17:20:29Z</time>
      </trkpt>
      <trkpt lat="59.9513599" lon="17.8131877">
        <ele>21.767</ele>
        <time>2013-05-25T17:20:30Z</time>
      </trkpt>
      <trkpt lat="59.9513609" lon="17.8130496">
        <ele>21.767</ele>
        <time>2013-05-25T17:20:31Z</time>
      </trkpt>
      <trkpt lat="59.9513612" lon="17.8129113">
        <ele>21.767</ele>
        <time>2013-05-25T17:20:32Z</time>
      </trkpt>
      <trkpt lat="59.9513614" lon="17.8127744">
        <ele>21.767</ele>
        <time>2013-05-25T17:20:33Z</time>
      </trkpt>
      <trkpt lat="59.9513619" lon="17.8126393">
        <ele>21.767</ele>
        <time>2013-05-25T17:20:34Z</time>
      </trkpt>
      <trkpt lat="59.9513637" lon="17.8125076">
        <ele>21.767</ele>
        <time>2013-05-25T17:20:35Z</time>
      </trkpt>
      <trkpt lat="59.9513656" lon="17.8123806">
        <ele>21.767</ele>
        <time>2013-05-25T17:20:36Z</time>
      </trkpt>
      <trkpt lat="59.9513676" lon="17.812254">
        <ele>21.767</ele>
        <time>2013-05-25T17:20:37Z</time>
      </trkpt>
      <trkpt lat="59.9513712" lon="17.8121249">
        <ele>22.2476</ele>
        <time>2013-05-25T17:20:38Z</time>
      </trkpt>
      <trkpt lat="59.9513769" lon="17.8119949">
        <ele>22.2476</ele>
        <time>2013-05-25T17:20:39Z</time>
      </trkpt>
      <trkpt lat="59.9513858" lon="17.8118643">
        <ele>22.2476</ele>
        <time>2013-05-25T17:20:40Z</time>
      </trkpt>
      <trkpt lat="59.9513971" lon="17.8117327">
        <ele>22.7283</ele>
        <time>2013-05-25T17:20:41Z</time>
      </trkpt>
      <trkpt lat="59.9514111" lon="17.8116006">
        <ele>22.7283</ele>
        <time>2013-05-25T17:20:42Z</time>
      </trkpt>
      <trkpt lat="59.951428" lon="17.811469">
        <ele>22.7283</ele>
        <time>2013-05-25T17:20:43Z</time>
      </trkpt>
      <trkpt lat="59.9514464" lon="17.8113354">
        <ele>22.7283</ele>
        <time>2013-05-25T17:20:44Z</time>
      </trkpt>
      <trkpt lat="59.951466" lon="17.8111997">
        <ele>22.7283</ele>
        <time>2013-05-25T17:20:45Z</time>
      </trkpt>
      <trkpt lat="59.9514866" lon="17.8110618">
        <ele>22.7283</ele>
        <time>2013-05-25T17:20:46Z</time>
      </trkpt>
      <trkpt lat="59.9515088" lon="17.8109258">
        <ele>22.7283</ele>
        <time>2013-05-25T17:20:47Z</time>
      </trkpt>
      <trkpt lat="59.9515333" lon="17.8107957">
        <ele>22.7283</ele>
        <time>2013-05-25T17:20:48Z</time>
      </trkpt>
      <trkpt lat="59.9515582" lon="17.810668">
        <ele>22.7283</ele>
        <time>2013-05-25T17:20:49Z</time>
      </trkpt>
      <trkpt lat="59.951583" lon="17.8105411">
        <ele>22.7283</ele>
        <time>2013-05-25T17:20:50Z</time>
      </trkpt>
      <trkpt lat="59.9516093" lon="17.8104164">
        <ele>22.7283</ele>
        <time>2013-05-25T17:20:51Z</time>
      </trkpt>
      <trkpt lat="59.9516379" lon="17.8102942">
        <ele>22.7283</ele>
        <time>2013-05-25T17:20:52Z</time>
      </trkpt>
      <trkpt lat="59.951668" lon="17.8101742">
        <ele>22.7283</ele>
        <time>2013-05-25T17:20:53Z</time>
      </trkpt>
      <trkpt lat="59.9516986" lon="17.8100559">
        <ele>22.7283</ele>
        <time>2013-05-25T17:20:54Z</time>
      </trkpt>
      <trkpt lat="59.9517284" lon="17.8099379">
        <ele>22.7283</ele>
        <time>2013-05-25T17:20:55Z</time>
      </trkpt>
      <trkpt lat="59.9517576" lon="17.8098206">
        <ele>22.7283</ele>
        <time>2013-05-25T17:20:56Z</time>
      </trkpt>
      <trkpt lat="59.9517875" lon="17.8097047">
        <ele>22.7283</ele>
        <time>2013-05-25T17:20:57Z</time>
      </trkpt>
      <trkpt lat="59.9518188" lon="17.8095908">
        <ele>22.7283</ele>
        <time>2013-05-25T17:20:58Z</time>
      </trkpt>
      <trkpt lat="59.9518498" lon="17.8094758">
        <ele>22.7283</ele>
        <time>2013-05-25T17:20:59Z</time>
      </trkpt>
      <trkpt lat="59.9518804" lon="17.8093595">
        <ele>22.7283</ele>
        <time>2013-05-25T17:21:00Z</time>
      </trkpt>
      <trkpt lat="59.951911" lon="17.8092419">
        <ele>22.7283</ele>
        <time>2013-05-25T17:21:01Z</time>
      </trkpt>
      <trkpt lat="59.9519421" lon="17.8091241">
        <ele>22.7283</ele>
        <time>2013-05-25T17:21:02Z</time>
      </trkpt>
      <trkpt lat="59.951974" lon="17.8090074">
        <ele>22.7283</ele>
        <time>2013-05-25T17:21:03Z</time>
      </trkpt>
      <trkpt lat="59.9520052" lon="17.80889">
        <ele>22.7283</ele>
        <time>2013-05-25T17:21:04Z</time>
      </trkpt>
      <trkpt lat="59.9520354" lon="17.8087732">
        <ele>22.7283</ele>
        <time>2013-05-25T17:21:05Z</time>
      </trkpt>
      <trkpt lat="59.9520653" lon="17.8086579">
        <ele>22.7283</ele>
        <time>2013-05-25T17:21:06Z</time>
      </trkpt>
      <trkpt lat="59.9520958" lon="17.8085445">
        <ele>22.7283</ele>
        <time>2013-05-25T17:21:07Z</time>
      </trkpt>
      <trkpt lat="59.9521263" lon="17.8084309">
        <ele>22.7283</ele>
        <time>2013-05-25T17:21:08Z</time>
      </trkpt>
      <trkpt lat="59.9521558" lon="17.8083173">
        <ele>22.7283</ele>
        <time>2013-05-25T17:21:09Z</time>
      </trkpt>
      <trkpt lat="59.952184" lon="17.8082073">
        <ele>22.7283</ele>
        <time>2013-05-25T17:21:10Z</time>
      </trkpt>
      <trkpt lat="59.952211" lon="17.8081023">
        <ele>22.7283</ele>
        <time>2013-05-25T17:21:11Z</time>
      </trkpt>
      <trkpt lat="59.9522381" lon="17.8079979">
        <ele>22.7283</ele>
        <time>2013-05-25T17:21:12Z</time>
      </trkpt>
      <trkpt lat="59.9522662" lon="17.8078923">
        <ele>22.7283</ele>
        <time>2013-05-25T17:21:13Z</time>
      </trkpt>
      <trkpt lat="59.9522948" lon="17.8077868">
        <ele>22.7283</ele>
        <time>2013-05-25T17:21:14Z</time>
      </trkpt>
      <trkpt lat="59.9523224" lon="17.8076798">
        <ele>23.209</ele>
        <time>2013-05-25T17:21:15Z</time>
      </trkpt>
      <trkpt lat="59.9523511" lon="17.807574">
        <ele>23.209</ele>
        <time>2013-05-25T17:21:16Z</time>
      </trkpt>
      <trkpt lat="59.9523806" lon="17.8074688">
        <ele>23.6896</ele>
        <time>2013-05-25T17:21:17Z</time>
      </trkpt>
      <trkpt lat="59.9524083" lon="17.8073647">
        <ele>23.6896</ele>
        <time>2013-05-25T17:21:18Z</time>
      </trkpt>
      <trkpt lat="59.9524357" lon="17.8072576">
        <ele>24.1703</ele>
        <time>2013-05-25T17:21:19Z</time>
      </trkpt>
      <trkpt lat="59.9524648" lon="17.8071473">
        <ele>24.1703</ele>
        <time>2013-05-25T17:21:20Z</time>
      </trkpt>
      <trkpt lat="59.9524931" lon="17.807038">
        <ele>24.651</ele>
        <time>2013-05-25T17:21:21Z</time>
      </trkpt>
      <trkpt lat="59.95252" lon="17.8069293">
        <ele>24.651</ele>
        <time>2013-05-25T17:21:22Z</time>
      </trkpt>
      <trkpt lat="59.9525448" lon="17.806818">
        <ele>25.1317</ele>
        <time>2013-05-25T17:21:23Z</time>
      </trkpt>
      <trkpt lat="59.9525681" lon="17.8067063">
        <ele>25.1317</ele>
        <time>2013-05-25T17:21:24Z</time>
      </trkpt>
      <trkpt lat="59.952591" lon="17.8065954">
        <ele>25.6123</ele>
        <time>2013-05-25T17:21:25Z</time>
      </trkpt>
      <trkpt lat="59.9526138" lon="17.8064837">
        <ele>25.6123</ele>
        <time>2013-05-25T17:21:26Z</time>
      </trkpt>
      <trkpt lat="59.9526367" lon="17.8063703">
        <ele>25.6123</ele>
        <time>2013-05-25T17:21:27Z</time>
      </trkpt>
      <trkpt lat="59.9526595" lon="17.8062558">
        <ele>25.6123</ele>
        <time>2013-05-25T17:21:28Z</time>
      </trkpt>
      <trkpt lat="59.9526816" lon="17.8061385">
        <ele>26.0929</ele>
        <time>2013-05-25T17:21:29Z</time>
      </trkpt>
      <trkpt lat="59.9527025" lon="17.806022">
        <ele>26.0929</ele>
        <time>2013-05-25T17:21:30Z</time>
      </trkpt>
      <trkpt lat="59.9527212" lon="17.8059089">
        <ele>26.0929</ele>
        <time>2013-05-25T17:21:31Z</time>
      </trkpt>
      <trkpt lat="59.9527366" lon="17.8057963">
        <ele>26.5736</ele>
        <time>2013-05-25T17:21:32Z</time>
      </trkpt>
      <trkpt lat="59.9527502" lon="17.8056832">
        <ele>26.5736</ele>
        <time>2013-05-25T17:21:33Z</time>
      </trkpt>
      <trkpt lat="59.9527637" lon="17.805569">
        <ele>26.5736</ele>
        <time>2013-05-25T17:21:34Z</time>
      </trkpt>
      <trkpt lat="59.9527779" lon="17.8054602">
        <ele>27.0543</ele>
        <time>2013-05-25T17:21:35Z</time>
      </trkpt>
      <trkpt lat="59.9527885" lon="17.8053482">
        <ele>26.5736</ele>
        <time>2013-05-25T17:21:36Z</time>
      </trkpt>
      <trkpt lat="59.9528014" lon="17.8052354">
        <ele>27.0543</ele>
        <time>2013-05-25T17:21:37Z</time>
      </trkpt>
      <trkpt lat="59.9528138" lon="17.8051245">
        <ele>26.5736</ele>
        <time>2013-05-25T17:21:38Z</time>
      </trkpt>
      <trkpt lat="59.9528247" lon="17.8050136">
        <ele>26.5736</ele>
        <time>2013-05-25T17:21:39Z</time>
      </trkpt>
      <trkpt lat="59.9528367" lon="17.8049062">
        <ele>26.5736</ele>
        <time>2013-05-25T17:21:40Z</time>
      </trkpt>
      <trkpt lat="59.9528495" lon="17.804799">
        <ele>26.5736</ele>
        <time>2013-05-25T17:21:41Z</time>
      </trkpt>
      <trkpt lat="59.9528618" lon="17.8046869">
        <ele>26.5736</ele>
        <time>2013-05-25T17:21:42Z</time>
      </trkpt>
      <trkpt lat="59.9528816" lon="17.8045841">
        <ele>27.0543</ele>
        <time>2013-05-25T17:21:43Z</time>
      </trkpt>
      <trkpt lat="59.9529076" lon="17.8044918">
        <ele>27.5349</ele>
        <time>2013-05-25T17:21:44Z</time>
      </trkpt>
      <trkpt lat="59.9529357" lon="17.8044028">
        <ele>27.5349</ele>
        <time>2013-05-25T17:21:45Z</time>
      </trkpt>
      <trkpt lat="59.952966" lon="17.8043195">
        <ele>27.5349</ele>
        <time>2013-05-25T17:21:46Z</time>
      </trkpt>
      <trkpt lat="59.9529978" lon="17.8042431">
        <ele>27.5349</ele>
        <time>2013-05-25T17:21:47Z</time>
      </trkpt>
      <trkpt lat="59.9530304" lon="17.8041735">
        <ele>28.0155</ele>
        <time>2013-05-25T17:21:48Z</time>
      </trkpt>
      <trkpt lat="59.9530635" lon="17.8041074">
        <ele>28.0155</ele>
        <time>2013-05-25T17:21:49Z</time>
      </trkpt>
      <trkpt lat="59.9530967" lon="17.8040423">
        <ele>28.0155</ele>
        <time>2013-05-25T17:21:50Z</time>
      </trkpt>
      <trkpt lat="59.9531313" lon="17.8039779">
        <ele>28.9769</ele>
        <time>2013-05-25T17:21:51Z</time>
      </trkpt>
      <trkpt lat="59.9531644" lon="17.8039138">
        <ele>29.4575</ele>
        <time>2013-05-25T17:21:52Z</time>
      </trkpt>
      <trkpt lat="59.953198" lon="17.803846">
        <ele>29.4575</ele>
        <time>2013-05-25T17:21:53Z</time>
      </trkpt>
      <trkpt lat="59.9532323" lon="17.8037802">
        <ele>29.4575</ele>
        <time>2013-05-25T17:21:54Z</time>
      </trkpt>
      <trkpt lat="59.9532651" lon="17.8037083">
        <ele>29.9381</ele>
        <time>2013-05-25T17:21:55Z</time>
      </trkpt>
      <trkpt lat="59.9532961" lon="17.803635">
        <ele>29.9381</ele>
        <time>2013-05-25T17:21:56Z</time>
      </trkpt>
      <trkpt lat="59.9533239" lon="17.8035547">
        <ele>30.4188</ele>
        <time>2013-05-25T17:21:57Z</time>
      </trkpt>
      <trkpt lat="59.9533542" lon="17.8034732">
        <ele>31.3801</ele>
        <time>2013-05-25T17:21:58Z</time>
      </trkpt>
      <trkpt lat="59.9533848" lon="17.8033928">
        <ele>31.3801</ele>
        <time>2013-05-25T17:21:59Z</time>
      </trkpt>
      <trkpt lat="59.9534148" lon="17.8033036">
        <ele>31.3801</ele>
        <time>2013-05-25T17:22:00Z</time>
      </trkpt>
      <trkpt lat="59.9534412" lon="17.8032137">
        <ele>31.3801</ele>
        <time>2013-05-25T17:22:01Z</time>
      </trkpt>
      <trkpt lat="59.9534667" lon="17.8031235">
        <ele>30.8995</ele>
        <time>2013-05-25T17:22:02Z</time>
      </trkpt>
      <trkpt lat="59.9534882" lon="17.8030233">
        <ele>30.4188</ele>
        <time>2013-05-25T17:22:03Z</time>
      </trkpt>
      <trkpt lat="59.953509" lon="17.8029134">
        <ele>30.8995</ele>
        <time>2013-05-25T17:22:04Z</time>
      </trkpt>
      <trkpt lat="59.9535313" lon="17.8028">
        <ele>30.8995</ele>
        <time>2013-05-25T17:22:05Z</time>
      </trkpt>
      <trkpt lat="59.9535526" lon="17.8026727">
        <ele>30.4188</ele>
        <time>2013-05-25T17:22:06Z</time>
      </trkpt>
      <trkpt lat="59.9535796" lon="17.8025532">
        <ele>30.8995</ele>
        <time>2013-05-25T17:22:07Z</time>
      </trkpt>
      <trkpt lat="59.9536111" lon="17.8024363">
        <ele>30.8995</ele>
        <time>2013-05-25T17:22:08Z</time>
      </trkpt>
      <trkpt lat="59.953644" lon="17.8023096">
        <ele>30.8995</ele>
        <time>2013-05-25T17:22:09Z</time>
      </trkpt>
      <trkpt lat="59.9536764" lon="17.8021838">
        <ele>31.3801</ele>
        <time>2013-05-25T17:22:10Z</time>
      </trkpt>
      <trkpt lat="59.9537094" lon="17.8020535">
        <ele>31.3801</ele>
        <time>2013-05-25T17:22:11Z</time>
      </trkpt>
      <trkpt lat="59.9537463" lon="17.8019246">
        <ele>30.8995</ele>
        <time>2013-05-25T17:22:12Z</time>
      </trkpt>
      <trkpt lat="59.9537856" lon="17.8017971">
        <ele>30.8995</ele>
        <time>2013-05-25T17:22:13Z</time>
      </trkpt>
      <trkpt lat="59.9538279" lon="17.8016752">
        <ele>28.4962</ele>
        <time>2013-05-25T17:22:14Z</time>
      </trkpt>
      <trkpt lat="59.9538784" lon="17.8015549">
        <ele>28.4962</ele>
        <time>2013-05-25T17:22:15Z</time>
      </trkpt>
      <trkpt lat="59.9539271" lon="17.8014312">
        <ele>28.4962</ele>
        <time>2013-05-25T17:22:16Z</time>
      </trkpt>
      <trkpt lat="59.9539772" lon="17.8012994">
        <ele>28.0155</ele>
        <time>2013-05-25T17:22:17Z</time>
      </trkpt>
      <trkpt lat="59.9540272" lon="17.8011613">
        <ele>27.5349</ele>
        <time>2013-05-25T17:22:18Z</time>
      </trkpt>
      <trkpt lat="59.954079" lon="17.8010242">
        <ele>27.5349</ele>
        <time>2013-05-25T17:22:19Z</time>
      </trkpt>
      <trkpt lat="59.9541322" lon="17.8008898">
        <ele>27.0543</ele>
        <time>2013-05-25T17:22:20Z</time>
      </trkpt>
      <trkpt lat="59.9541838" lon="17.8007607">
        <ele>26.5736</ele>
        <time>2013-05-25T17:22:21Z</time>
      </trkpt>
      <trkpt lat="59.9542327" lon="17.8006311">
        <ele>26.0929</ele>
        <time>2013-05-25T17:22:22Z</time>
      </trkpt>
      <trkpt lat="59.954285" lon="17.8005018">
        <ele>26.0929</ele>
        <time>2013-05-25T17:22:23Z</time>
      </trkpt>
      <trkpt lat="59.9543366" lon="17.8003677">
        <ele>26.0929</ele>
        <time>2013-05-25T17:22:24Z</time>
      </trkpt>
      <trkpt lat="59.9543874" lon="17.8002392">
        <ele>26.0929</ele>
        <time>2013-05-25T17:22:25Z</time>
      </trkpt>
      <trkpt lat="59.9544379" lon="17.8001037">
        <ele>27.5349</ele>
        <time>2013-05-25T17:22:26Z</time>
      </trkpt>
      <trkpt lat="59.9544886" lon="17.799972">
        <ele>28.4962</ele>
        <time>2013-05-25T17:22:27Z</time>
      </trkpt>
      <trkpt lat="59.9545409" lon="17.7998454">
        <ele>28.9769</ele>
        <time>2013-05-25T17:22:28Z</time>
      </trkpt>
      <trkpt lat="59.9545932" lon="17.7997223">
        <ele>29.4575</ele>
        <time>2013-05-25T17:22:29Z</time>
      </trkpt>
      <trkpt lat="59.9546415" lon="17.7995995">
        <ele>29.9381</ele>
        <time>2013-05-25T17:22:30Z</time>
      </trkpt>
      <trkpt lat="59.9546973" lon="17.799484">
        <ele>29.9381</ele>
        <time>2013-05-25T17:22:31Z</time>
      </trkpt>
      <trkpt lat="59.9547522" lon="17.7993726">
        <ele>28.4962</ele>
        <time>2013-05-25T17:22:32Z</time>
      </trkpt>
      <trkpt lat="59.9548085" lon="17.7992716">
        <ele>28.0155</ele>
        <time>2013-05-25T17:22:33Z</time>
      </trkpt>
      <trkpt lat="59.9548637" lon="17.7991747">
        <ele>27.5349</ele>
        <time>2013-05-25T17:22:34Z</time>
      </trkpt>
      <trkpt lat="59.9549191" lon="17.7990777">
        <ele>28.0155</ele>
        <time>2013-05-25T17:22:35Z</time>
      </trkpt>
      <trkpt lat="59.9549709" lon="17.7989753">
        <ele>27.5349</ele>
        <time>2013-05-25T17:22:36Z</time>
      </trkpt>
      <trkpt lat="59.9550217" lon="17.7988618">
        <ele>28.4962</ele>
        <time>2013-05-25T17:22:37Z</time>
      </trkpt>
      <trkpt lat="59.9550719" lon="17.7987566">
        <ele>28.4962</ele>
        <time>2013-05-25T17:22:38Z</time>
      </trkpt>
      <trkpt lat="59.9551221" lon="17.7986498">
        <ele>28.0155</ele>
        <time>2013-05-25T17:22:39Z</time>
      </trkpt>
      <trkpt lat="59.9551703" lon="17.7985378">
        <ele>28.0155</ele>
        <time>2013-05-25T17:22:40Z</time>
      </trkpt>
      <trkpt lat="59.9552148" lon="17.7984209">
        <ele>27.5349</ele>
        <time>2013-05-25T17:22:41Z</time>
      </trkpt>
      <trkpt lat="59.9552605" lon="17.7983036">
        <ele>27.5349</ele>
        <time>2013-05-25T17:22:42Z</time>
      </trkpt>
      <trkpt lat="59.9553028" lon="17.7981769">
        <ele>27.0543</ele>
        <time>2013-05-25T17:22:43Z</time>
      </trkpt>
      <trkpt lat="59.9553412" lon="17.7980403">
        <ele>26.5736</ele>
        <time>2013-05-25T17:22:44Z</time>
      </trkpt>
      <trkpt lat="59.9553781" lon="17.7979018">
        <ele>26.0929</ele>
        <time>2013-05-25T17:22:45Z</time>
      </trkpt>
      <trkpt lat="59.9554169" lon="17.7977634">
        <ele>25.6123</ele>
        <time>2013-05-25T17:22:46Z</time>
      </trkpt>
      <trkpt lat="59.9554573" lon="17.7976261">
        <ele>25.6123</ele>
        <time>2013-05-25T17:22:47Z</time>
      </trkpt>
      <trkpt lat="59.9554988" lon="17.797488">
        <ele>25.1317</ele>
        <time>2013-05-25T17:22:48Z</time>
      </trkpt>
      <trkpt lat="59.9555389" lon="17.7973486">
        <ele>24.651</ele>
        <time>2013-05-25T17:22:49Z</time>
      </trkpt>
      <trkpt lat="59.955578" lon="17.7972092">
        <ele>24.651</ele>
        <time>2013-05-25T17:22:50Z</time>
      </trkpt>
      <trkpt lat="59.9556148" lon="17.7970684">
        <ele>24.1703</ele>
        <time>2013-05-25T17:22:51Z</time>
      </trkpt>
      <trkpt lat="59.9556496" lon="17.7969254">
        <ele>23.6896</ele>
        <time>2013-05-25T17:22:52Z</time>
      </trkpt>
      <trkpt lat="59.9556834" lon="17.7967813">
        <ele>23.6896</ele>
        <time>2013-05-25T17:22:53Z</time>
      </trkpt>
      <trkpt lat="59.9557142" lon="17.7966343">
        <ele>23.6896</ele>
        <time>2013-05-25T17:22:54Z</time>
      </trkpt>
      <trkpt lat="59.955743" lon="17.7964861">
        <ele>23.209</ele>
        <time>2013-05-25T17:22:55Z</time>
      </trkpt>
      <trkpt lat="59.95577" lon="17.7963376">
        <ele>23.209</ele>
        <time>2013-05-25T17:22:56Z</time>
      </trkpt>
      <trkpt lat="59.955795" lon="17.7961902">
        <ele>23.209</ele>
        <time>2013-05-25T17:22:57Z</time>
      </trkpt>
      <trkpt lat="59.9558197" lon="17.7960438">
        <ele>24.1703</ele>
        <time>2013-05-25T17:22:58Z</time>
      </trkpt>
      <trkpt lat="59.9558443" lon="17.795897">
        <ele>24.1703</ele>
        <time>2013-05-25T17:22:59Z</time>
      </trkpt>
      <trkpt lat="59.9558691" lon="17.7957497">
        <ele>24.1703</ele>
        <time>2013-05-25T17:23:00Z</time>
      </trkpt>
      <trkpt lat="59.9558944" lon="17.7956035">
        <ele>23.6896</ele>
        <time>2013-05-25T17:23:01Z</time>
      </trkpt>
      <trkpt lat="59.9559199" lon="17.7954579">
        <ele>23.6896</ele>
        <time>2013-05-25T17:23:02Z</time>
      </trkpt>
      <trkpt lat="59.9559478" lon="17.795314">
        <ele>23.6896</ele>
        <time>2013-05-25T17:23:03Z</time>
      </trkpt>
      <trkpt lat="59.9559779" lon="17.7951725">
        <ele>23.6896</ele>
        <time>2013-05-25T17:23:04Z</time>
      </trkpt>
      <trkpt lat="59.9560099" lon="17.7950312">
        <ele>24.1703</ele>
        <time>2013-05-25T17:23:05Z</time>
      </trkpt>
      <trkpt lat="59.9560421" lon="17.7948901">
        <ele>24.651</ele>
        <time>2013-05-25T17:23:06Z</time>
      </trkpt>
      <trkpt lat="59.9560747" lon="17.7947539">
        <ele>24.1703</ele>
        <time>2013-05-25T17:23:07Z</time>
      </trkpt>
      <trkpt lat="59.9561069" lon="17.7946152">
        <ele>24.1703</ele>
        <time>2013-05-25T17:23:08Z</time>
      </trkpt>
      <trkpt lat="59.9561394" lon="17.7944758">
        <ele>24.1703</ele>
        <time>2013-05-25T17:23:09Z</time>
      </trkpt>
      <trkpt lat="59.9561695" lon="17.7943388">
        <ele>21.2864</ele>
        <time>2013-05-25T17:23:10Z</time>
      </trkpt>
      <trkpt lat="59.9561981" lon="17.7942013">
        <ele>19.8444</ele>
        <time>2013-05-25T17:23:11Z</time>
      </trkpt>
      <trkpt lat="59.9562286" lon="17.794066">
        <ele>19.8444</ele>
        <time>2013-05-25T17:23:12Z</time>
      </trkpt>
      <trkpt lat="59.9562593" lon="17.7939329">
        <ele>19.3638</ele>
        <time>2013-05-25T17:23:13Z</time>
      </trkpt>
      <trkpt lat="59.956289" lon="17.7938039">
        <ele>19.8444</ele>
        <time>2013-05-25T17:23:14Z</time>
      </trkpt>
      <trkpt lat="59.9563177" lon="17.7936667">
        <ele>20.325</ele>
        <time>2013-05-25T17:23:15Z</time>
      </trkpt>
      <trkpt lat="59.956346" lon="17.7935279">
        <ele>20.8057</ele>
        <time>2013-05-25T17:23:16Z</time>
      </trkpt>
      <trkpt lat="59.9563743" lon="17.7933889">
        <ele>21.2864</ele>
        <time>2013-05-25T17:23:17Z</time>
      </trkpt>
      <trkpt lat="59.9564014" lon="17.7932484">
        <ele>21.2864</ele>
        <time>2013-05-25T17:23:18Z</time>
      </trkpt>
      <trkpt lat="59.956428" lon="17.7931125">
        <ele>21.767</ele>
        <time>2013-05-25T17:23:19Z</time>
      </trkpt>
      <trkpt lat="59.956456" lon="17.7929775">
        <ele>22.2476</ele>
        <time>2013-05-25T17:23:20Z</time>
      </trkpt>
      <trkpt lat="59.956484" lon="17.7928376">
        <ele>22.7283</ele>
        <time>2013-05-25T17:23:21Z</time>
      </trkpt>
      <trkpt lat="59.9565103" lon="17.7926962">
        <ele>23.209</ele>
        <time>2013-05-25T17:23:22Z</time>
      </trkpt>
      <trkpt lat="59.9565383" lon="17.7925595">
        <ele>23.6896</ele>
        <time>2013-05-25T17:23:23Z</time>
      </trkpt>
      <trkpt lat="59.956568" lon="17.7924334">
        <ele>23.6896</ele>
        <time>2013-05-25T17:23:24Z</time>
      </trkpt>
      <trkpt lat="59.9565937" lon="17.7923052">
        <ele>23.6896</ele>
        <time>2013-05-25T17:23:25Z</time>
      </trkpt>
      <trkpt lat="59.9566192" lon="17.7921789">
        <ele>24.1703</ele>
        <time>2013-05-25T17:23:26Z</time>
      </trkpt>
      <trkpt lat="59.9566441" lon="17.7920541">
        <ele>24.1703</ele>
        <time>2013-05-25T17:23:27Z</time>
      </trkpt>
      <trkpt lat="59.9566689" lon="17.7919293">
        <ele>24.651</ele>
        <time>2013-05-25T17:23:28Z</time>
      </trkpt>
      <trkpt lat="59.9566939" lon="17.7918054">
        <ele>24.651</ele>
        <time>2013-05-25T17:23:29Z</time>
      </trkpt>
      <trkpt lat="59.9567175" lon="17.7916826">
        <ele>25.1317</ele>
        <time>2013-05-25T17:23:30Z</time>
      </trkpt>
      <trkpt lat="59.9567366" lon="17.79156">
        <ele>24.651</ele>
        <time>2013-05-25T17:23:31Z</time>
      </trkpt>
      <trkpt lat="59.9567501" lon="17.7914367">
        <ele>25.1317</ele>
        <time>2013-05-25T17:23:32Z</time>
      </trkpt>
      <trkpt lat="59.9567585" lon="17.7913143">
        <ele>25.1317</ele>
        <time>2013-05-25T17:23:33Z</time>
      </trkpt>
      <trkpt lat="59.9567647" lon="17.7911965">
        <ele>25.6123</ele>
        <time>2013-05-25T17:23:34Z</time>
      </trkpt>
      <trkpt lat="59.9567606" lon="17.7910849">
        <ele>25.1317</ele>
        <time>2013-05-25T17:23:35Z</time>
      </trkpt>
      <trkpt lat="59.9567425" lon="17.7909658">
        <ele>26.0929</ele>
        <time>2013-05-25T17:23:36Z</time>
      </trkpt>
      <trkpt lat="59.9567186" lon="17.7908532">
        <ele>27.0543</ele>
        <time>2013-05-25T17:23:37Z</time>
      </trkpt>
      <trkpt lat="59.9566947" lon="17.79074">
        <ele>28.4962</ele>
        <time>2013-05-25T17:23:38Z</time>
      </trkpt>
      <trkpt lat="59.9566601" lon="17.7905711">
        <ele>28.4962</ele>
        <time>2013-05-25T17:23:39Z</time>
      </trkpt>
      <trkpt lat="59.9566316" lon="17.7904338">
        <ele>27.5349</ele>
        <time>2013-05-25T17:23:40Z</time>
      </trkpt>
      <trkpt lat="59.9566079" lon="17.7903028">
        <ele>27.5349</ele>
        <time>2013-05-25T17:23:41Z</time>
      </trkpt>
      <trkpt lat="59.956599" lon="17.7901588">
        <ele>27.5349</ele>
        <time>2013-05-25T17:23:42Z</time>
      </trkpt>
      <trkpt lat="59.9565942" lon="17.7900054">
        <ele>27.0543</ele>
        <time>2013-05-25T17:23:43Z</time>
      </trkpt>
      <trkpt lat="59.9566061" lon="17.7898494">
        <ele>27.5349</ele>
        <time>2013-05-25T17:23:44Z</time>
      </trkpt>
      <trkpt lat="59.9566243" lon="17.7897081">
        <ele>27.5349</ele>
        <time>2013-05-25T17:23:45Z</time>
      </trkpt>
      <trkpt lat="59.9566518" lon="17.7895863">
        <ele>27.0543</ele>
        <time>2013-05-25T17:23:46Z</time>
      </trkpt>
      <trkpt lat="59.9566902" lon="17.7894778">
        <ele>26.0929</ele>
        <time>2013-05-25T17:23:47Z</time>
      </trkpt>
      <trkpt lat="59.9567387" lon="17.7894029">
        <ele>26.0929</ele>
        <time>2013-05-25T17:23:48Z</time>
      </trkpt>
      <trkpt lat="59.956791" lon="17.7893366">
        <ele>26.0929</ele>
        <time>2013-05-25T17:23:49Z</time>
      </trkpt>
      <trkpt lat="59.9568575" lon="17.7892677">
        <ele>26.5736</ele>
        <time>2013-05-25T17:23:50Z</time>
      </trkpt>
      <trkpt lat="59.95692" lon="17.7891926">
        <ele>27.5349</ele>
        <time>2013-05-25T17:23:51Z</time>
      </trkpt>
      <trkpt lat="59.9569828" lon="17.7891221">
        <ele>27.5349</ele>
        <time>2013-05-25T17:23:52Z</time>
      </trkpt>
      <trkpt lat="59.9570413" lon="17.7890434">
        <ele>28.9769</ele>
        <time>2013-05-25T17:23:53Z</time>
      </trkpt>
      <trkpt lat="59.9570947" lon="17.788948">
        <ele>28.0155</ele>
        <time>2013-05-25T17:23:54Z</time>
      </trkpt>
      <trkpt lat="59.9571449" lon="17.7888418">
        <ele>28.9769</ele>
        <time>2013-05-25T17:23:55Z</time>
      </trkpt>
      <trkpt lat="59.9571924" lon="17.7887341">
        <ele>29.4575</ele>
        <time>2013-05-25T17:23:56Z</time>
      </trkpt>
      <trkpt lat="59.9572407" lon="17.7886265">
        <ele>29.4575</ele>
        <time>2013-05-25T17:23:57Z</time>
      </trkpt>
      <trkpt lat="59.9572784" lon="17.7885254">
        <ele>29.4575</ele>
        <time>2013-05-25T17:23:58Z</time>
      </trkpt>
      <trkpt lat="59.9573163" lon="17.7884134">
        <ele>29.9381</ele>
        <time>2013-05-25T17:23:59Z</time>
      </trkpt>
      <trkpt lat="59.9573527" lon="17.7883006">
        <ele>29.4575</ele>
        <time>2013-05-25T17:24:00Z</time>
      </trkpt>
      <trkpt lat="59.9573869" lon="17.7881738">
        <ele>29.4575</ele>
        <time>2013-05-25T17:24:01Z</time>
      </trkpt>
      <trkpt lat="59.9574234" lon="17.7880531">
        <ele>29.4575</ele>
        <time>2013-05-25T17:24:02Z</time>
      </trkpt>
      <trkpt lat="59.9574599" lon="17.7879281">
        <ele>29.9381</ele>
        <time>2013-05-25T17:24:03Z</time>
      </trkpt>
      <trkpt lat="59.9574925" lon="17.7877908">
        <ele>28.0155</ele>
        <time>2013-05-25T17:24:04Z</time>
      </trkpt>
      <trkpt lat="59.9575287" lon="17.7876617">
        <ele>27.5349</ele>
        <time>2013-05-25T17:24:05Z</time>
      </trkpt>
      <trkpt lat="59.9575629" lon="17.7875286">
        <ele>28.0155</ele>
        <time>2013-05-25T17:24:06Z</time>
      </trkpt>
      <trkpt lat="59.9575895" lon="17.7873873">
        <ele>28.0155</ele>
        <time>2013-05-25T17:24:07Z</time>
      </trkpt>
      <trkpt lat="59.9576163" lon="17.7872582">
        <ele>28.0155</ele>
        <time>2013-05-25T17:24:08Z</time>
      </trkpt>
      <trkpt lat="59.9576436" lon="17.7871385">
        <ele>28.0155</ele>
        <time>2013-05-25T17:24:09Z</time>
      </trkpt>
      <trkpt lat="59.957668" lon="17.7870175">
        <ele>28.0155</ele>
        <time>2013-05-25T17:24:10Z</time>
      </trkpt>
      <trkpt lat="59.9576923" lon="17.7868981">
        <ele>28.0155</ele>
        <time>2013-05-25T17:24:11Z</time>
      </trkpt>
      <trkpt lat="59.9577225" lon="17.7867817">
        <ele>28.0155</ele>
        <time>2013-05-25T17:24:12Z</time>
      </trkpt>
      <trkpt lat="59.9577617" lon="17.7866736">
        <ele>28.4962</ele>
        <time>2013-05-25T17:24:13Z</time>
      </trkpt>
      <trkpt lat="59.957809" lon="17.786578">
        <ele>28.4962</ele>
        <time>2013-05-25T17:24:14Z</time>
      </trkpt>
      <trkpt lat="59.9578619" lon="17.7865013">
        <ele>28.0155</ele>
        <time>2013-05-25T17:24:15Z</time>
      </trkpt>
      <trkpt lat="59.9579187" lon="17.7864321">
        <ele>28.0155</ele>
        <time>2013-05-25T17:24:16Z</time>
      </trkpt>
      <trkpt lat="59.9579749" lon="17.7863625">
        <ele>28.0155</ele>
        <time>2013-05-25T17:24:17Z</time>
      </trkpt>
      <trkpt lat="59.9580297" lon="17.7862948">
        <ele>27.5349</ele>
        <time>2013-05-25T17:24:18Z</time>
      </trkpt>
      <trkpt lat="59.958085" lon="17.78623">
        <ele>27.5349</ele>
        <time>2013-05-25T17:24:19Z</time>
      </trkpt>
      <trkpt lat="59.9581399" lon="17.7861654">
        <ele>27.5349</ele>
        <time>2013-05-25T17:24:20Z</time>
      </trkpt>
      <trkpt lat="59.9581944" lon="17.7861016">
        <ele>27.5349</ele>
        <time>2013-05-25T17:24:21Z</time>
      </trkpt>
      <trkpt lat="59.9582482" lon="17.7860374">
        <ele>27.0543</ele>
        <time>2013-05-25T17:24:22Z</time>
      </trkpt>
      <trkpt lat="59.9583005" lon="17.7859704">
        <ele>27.0543</ele>
        <time>2013-05-25T17:24:23Z</time>
      </trkpt>
      <trkpt lat="59.9583519" lon="17.7859062">
        <ele>27.0543</ele>
        <time>2013-05-25T17:24:24Z</time>
      </trkpt>
      <trkpt lat="59.9584028" lon="17.7858498">
        <ele>27.0543</ele>
        <time>2013-05-25T17:24:25Z</time>
      </trkpt>
      <trkpt lat="59.9584519" lon="17.7857978">
        <ele>26.5736</ele>
        <time>2013-05-25T17:24:26Z</time>
      </trkpt>
      <trkpt lat="59.9584994" lon="17.7857457">
        <ele>26.5736</ele>
        <time>2013-05-25T17:24:27Z</time>
      </trkpt>
      <trkpt lat="59.9585462" lon="17.7856958">
        <ele>26.5736</ele>
        <time>2013-05-25T17:24:28Z</time>
      </trkpt>
      <trkpt lat="59.9585934" lon="17.7856515">
        <ele>25.6123</ele>
        <time>2013-05-25T17:24:29Z</time>
      </trkpt>
      <trkpt lat="59.9586395" lon="17.7856073">
        <ele>25.1317</ele>
        <time>2013-05-25T17:24:30Z</time>
      </trkpt>
      <trkpt lat="59.958686" lon="17.7855647">
        <ele>24.651</ele>
        <time>2013-05-25T17:24:31Z</time>
      </trkpt>
      <trkpt lat="59.9587338" lon="17.7855214">
        <ele>24.1703</ele>
        <time>2013-05-25T17:24:32Z</time>
      </trkpt>
      <trkpt lat="59.9587827" lon="17.7854788">
        <ele>23.6896</ele>
        <time>2013-05-25T17:24:33Z</time>
      </trkpt>
      <trkpt lat="59.9588342" lon="17.785437">
        <ele>23.6896</ele>
        <time>2013-05-25T17:24:34Z</time>
      </trkpt>
      <trkpt lat="59.9588881" lon="17.7853948">
        <ele>23.6896</ele>
        <time>2013-05-25T17:24:35Z</time>
      </trkpt>
      <trkpt lat="59.9589425" lon="17.7853581">
        <ele>23.209</ele>
        <time>2013-05-25T17:24:36Z</time>
      </trkpt>
      <trkpt lat="59.9589987" lon="17.7853192">
        <ele>22.7283</ele>
        <time>2013-05-25T17:24:37Z</time>
      </trkpt>
      <trkpt lat="59.9590549" lon="17.785278">
        <ele>22.7283</ele>
        <time>2013-05-25T17:24:38Z</time>
      </trkpt>
      <trkpt lat="59.9591096" lon="17.785236">
        <ele>22.7283</ele>
        <time>2013-05-25T17:24:39Z</time>
      </trkpt>
      <trkpt lat="59.9591625" lon="17.7851915">
        <ele>22.7283</ele>
        <time>2013-05-25T17:24:40Z</time>
      </trkpt>
      <trkpt lat="59.9592134" lon="17.7851432">
        <ele>22.7283</ele>
        <time>2013-05-25T17:24:41Z</time>
      </trkpt>
      <trkpt lat="59.9592625" lon="17.7850914">
        <ele>22.7283</ele>
        <time>2013-05-25T17:24:42Z</time>
      </trkpt>
      <trkpt lat="59.9593093" lon="17.7850374">
        <ele>22.7283</ele>
        <time>2013-05-25T17:24:43Z</time>
      </trkpt>
      <trkpt lat="59.9593546" lon="17.7849796">
        <ele>22.7283</ele>
        <time>2013-05-25T17:24:44Z</time>
      </trkpt>
      <trkpt lat="59.9593983" lon="17.7849194">
        <ele>22.7283</ele>
        <time>2013-05-25T17:24:45Z</time>
      </trkpt>
      <trkpt lat="59.95944" lon="17.7848553">
        <ele>22.7283</ele>
        <time>2013-05-25T17:24:46Z</time>
      </trkpt>
      <trkpt lat="59.9594823" lon="17.7847853">
        <ele>22.7283</ele>
        <time>2013-05-25T17:24:47Z</time>
      </trkpt>
      <trkpt lat="59.9595273" lon="17.7847131">
        <ele>22.7283</ele>
        <time>2013-05-25T17:24:48Z</time>
      </trkpt>
      <trkpt lat="59.9595743" lon="17.7846422">
        <ele>22.7283</ele>
        <time>2013-05-25T17:24:49Z</time>
      </trkpt>
      <trkpt lat="59.9596236" lon="17.7845673">
        <ele>22.2476</ele>
        <time>2013-05-25T17:24:50Z</time>
      </trkpt>
      <trkpt lat="59.959675" lon="17.7844772">
        <ele>23.209</ele>
        <time>2013-05-25T17:24:51Z</time>
      </trkpt>
      <trkpt lat="59.9597267" lon="17.7843912">
        <ele>23.209</ele>
        <time>2013-05-25T17:24:52Z</time>
      </trkpt>
      <trkpt lat="59.9597811" lon="17.7843041">
        <ele>23.209</ele>
        <time>2013-05-25T17:24:53Z</time>
      </trkpt>
      <trkpt lat="59.9598345" lon="17.7842138">
        <ele>23.209</ele>
        <time>2013-05-25T17:24:54Z</time>
      </trkpt>
      <trkpt lat="59.9598819" lon="17.7841143">
        <ele>23.209</ele>
        <time>2013-05-25T17:24:55Z</time>
      </trkpt>
      <trkpt lat="59.9599241" lon="17.7840095">
        <ele>23.6896</ele>
        <time>2013-05-25T17:24:56Z</time>
      </trkpt>
      <trkpt lat="59.9599645" lon="17.7839042">
        <ele>24.651</ele>
        <time>2013-05-25T17:24:57Z</time>
      </trkpt>
      <trkpt lat="59.9600033" lon="17.7838046">
        <ele>24.651</ele>
        <time>2013-05-25T17:24:58Z</time>
      </trkpt>
      <trkpt lat="59.96004" lon="17.7837046">
        <ele>25.1317</ele>
        <time>2013-05-25T17:24:59Z</time>
      </trkpt>
      <trkpt lat="59.9600747" lon="17.7836016">
        <ele>25.6123</ele>
        <time>2013-05-25T17:25:00Z</time>
      </trkpt>
      <trkpt lat="59.9601086" lon="17.7835026">
        <ele>25.6123</ele>
        <time>2013-05-25T17:25:01Z</time>
      </trkpt>
      <trkpt lat="59.960141" lon="17.7834064">
        <ele>26.5736</ele>
        <time>2013-05-25T17:25:02Z</time>
      </trkpt>
      <trkpt lat="59.9601735" lon="17.7833109">
        <ele>27.0543</ele>
        <time>2013-05-25T17:25:03Z</time>
      </trkpt>
      <trkpt lat="59.9602057" lon="17.7832176">
        <ele>27.5349</ele>
        <time>2013-05-25T17:25:04Z</time>
      </trkpt>
      <trkpt lat="59.9602362" lon="17.7831271">
        <ele>28.0155</ele>
        <time>2013-05-25T17:25:05Z</time>
      </trkpt>
      <trkpt lat="59.9602666" lon="17.7830429">
        <ele>28.0155</ele>
        <time>2013-05-25T17:25:06Z</time>
      </trkpt>
      <trkpt lat="59.960295" lon="17.7829568">
        <ele>28.0155</ele>
        <time>2013-05-25T17:25:07Z</time>
      </trkpt>
      <trkpt lat="59.9603219" lon="17.7828693">
        <ele>28.4962</ele>
        <time>2013-05-25T17:25:08Z</time>
      </trkpt>
      <trkpt lat="59.9603494" lon="17.7827813">
        <ele>28.4962</ele>
        <time>2013-05-25T17:25:09Z</time>
      </trkpt>
      <trkpt lat="59.9603789" lon="17.7826983">
        <ele>28.4962</ele>
        <time>2013-05-25T17:25:10Z</time>
      </trkpt>
      <trkpt lat="59.9604089" lon="17.7826102">
        <ele>28.0155</ele>
        <time>2013-05-25T17:25:11Z</time>
      </trkpt>
      <trkpt lat="59.960439" lon="17.7825191">
        <ele>28.0155</ele>
        <time>2013-05-25T17:25:12Z</time>
      </trkpt>
      <trkpt lat="59.9604688" lon="17.7824211">
        <ele>28.0155</ele>
        <time>2013-05-25T17:25:13Z</time>
      </trkpt>
      <trkpt lat="59.9604989" lon="17.7823228">
        <ele>28.0155</ele>
        <time>2013-05-25T17:25:14Z</time>
      </trkpt>
      <trkpt lat="59.9605306" lon="17.7822269">
        <ele>28.0155</ele>
        <time>2013-05-25T17:25:15Z</time>
      </trkpt>
      <trkpt lat="59.9605664" lon="17.7821211">
        <ele>28.9769</ele>
        <time>2013-05-25T17:25:16Z</time>
      </trkpt>
      <trkpt lat="59.9606071" lon="17.7820197">
        <ele>29.4575</ele>
        <time>2013-05-25T17:25:17Z</time>
      </trkpt>
      <trkpt lat="59.9606511" lon="17.7819195">
        <ele>30.4188</ele>
        <time>2013-05-25T17:25:18Z</time>
      </trkpt>
      <trkpt lat="59.9606984" lon="17.7818223">
        <ele>30.4188</ele>
        <time>2013-05-25T17:25:19Z</time>
      </trkpt>
      <trkpt lat="59.9607473" lon="17.7817247">
        <ele>30.8995</ele>
        <time>2013-05-25T17:25:20Z</time>
      </trkpt>
      <trkpt lat="59.9607975" lon="17.7816281">
        <ele>31.3801</ele>
        <time>2013-05-25T17:25:21Z</time>
      </trkpt>
      <trkpt lat="59.9608486" lon="17.7815341">
        <ele>31.3801</ele>
        <time>2013-05-25T17:25:22Z</time>
      </trkpt>
      <trkpt lat="59.9608996" lon="17.7814415">
        <ele>31.8607</ele>
        <time>2013-05-25T17:25:23Z</time>
      </trkpt>
      <trkpt lat="59.9609498" lon="17.7813513">
        <ele>31.8607</ele>
        <time>2013-05-25T17:25:24Z</time>
      </trkpt>
      <trkpt lat="59.9609995" lon="17.7812632">
        <ele>31.3801</ele>
        <time>2013-05-25T17:25:25Z</time>
      </trkpt>
      <trkpt lat="59.9610488" lon="17.7811758">
        <ele>31.3801</ele>
        <time>2013-05-25T17:25:26Z</time>
      </trkpt>
      <trkpt lat="59.9610967" lon="17.7810863">
        <ele>31.3801</ele>
        <time>2013-05-25T17:25:27Z</time>
      </trkpt>
      <trkpt lat="59.9611429" lon="17.7809959">
        <ele>31.3801</ele>
        <time>2013-05-25T17:25:28Z</time>
      </trkpt>
      <trkpt lat="59.9611901" lon="17.7809078">
        <ele>31.3801</ele>
        <time>2013-05-25T17:25:29Z</time>
      </trkpt>
      <trkpt lat="59.9612378" lon="17.7808219">
        <ele>31.3801</ele>
        <time>2013-05-25T17:25:30Z</time>
      </trkpt>
      <trkpt lat="59.9612849" lon="17.7807371">
        <ele>30.8995</ele>
        <time>2013-05-25T17:25:31Z</time>
      </trkpt>
      <trkpt lat="59.9613314" lon="17.7806533">
        <ele>30.8995</ele>
        <time>2013-05-25T17:25:32Z</time>
      </trkpt>
      <trkpt lat="59.9613771" lon="17.7805704">
        <ele>30.8995</ele>
        <time>2013-05-25T17:25:33Z</time>
      </trkpt>
      <trkpt lat="59.9614221" lon="17.7804875">
        <ele>30.8995</ele>
        <time>2013-05-25T17:25:34Z</time>
      </trkpt>
      <trkpt lat="59.9614668" lon="17.7804035">
        <ele>30.8995</ele>
        <time>2013-05-25T17:25:35Z</time>
      </trkpt>
      <trkpt lat="59.9615118" lon="17.7803185">
        <ele>30.8995</ele>
        <time>2013-05-25T17:25:36Z</time>
      </trkpt>
      <trkpt lat="59.9615562" lon="17.7802315">
        <ele>30.8995</ele>
        <time>2013-05-25T17:25:37Z</time>
      </trkpt>
      <trkpt lat="59.9615993" lon="17.7801414">
        <ele>30.8995</ele>
        <time>2013-05-25T17:25:38Z</time>
      </trkpt>
      <trkpt lat="59.9616418" lon="17.7800496">
        <ele>30.8995</ele>
        <time>2013-05-25T17:25:39Z</time>
      </trkpt>
      <trkpt lat="59.9616836" lon="17.7799558">
        <ele>30.4188</ele>
        <time>2013-05-25T17:25:40Z</time>
      </trkpt>
      <trkpt lat="59.961724" lon="17.7798601">
        <ele>30.4188</ele>
        <time>2013-05-25T17:25:41Z</time>
      </trkpt>
      <trkpt lat="59.961765" lon="17.7797663">
        <ele>30.4188</ele>
        <time>2013-05-25T17:25:42Z</time>
      </trkpt>
      <trkpt lat="59.9618063" lon="17.7796726">
        <ele>30.4188</ele>
        <time>2013-05-25T17:25:43Z</time>
      </trkpt>
      <trkpt lat="59.9618479" lon="17.7795757">
        <ele>30.4188</ele>
        <time>2013-05-25T17:25:44Z</time>
      </trkpt>
      <trkpt lat="59.9618908" lon="17.7794783">
        <ele>29.9381</ele>
        <time>2013-05-25T17:25:45Z</time>
      </trkpt>
      <trkpt lat="59.9619351" lon="17.7793816">
        <ele>29.9381</ele>
        <time>2013-05-25T17:25:46Z</time>
      </trkpt>
      <trkpt lat="59.96198" lon="17.7792829">
        <ele>29.9381</ele>
        <time>2013-05-25T17:25:47Z</time>
      </trkpt>
      <trkpt lat="59.9620246" lon="17.7791819">
        <ele>29.9381</ele>
        <time>2013-05-25T17:25:48Z</time>
      </trkpt>
      <trkpt lat="59.9620692" lon="17.7790788">
        <ele>29.9381</ele>
        <time>2013-05-25T17:25:49Z</time>
      </trkpt>
      <trkpt lat="59.9621146" lon="17.778976">
        <ele>29.9381</ele>
        <time>2013-05-25T17:25:50Z</time>
      </trkpt>
      <trkpt lat="59.9621615" lon="17.7788731">
        <ele>29.4575</ele>
        <time>2013-05-25T17:25:51Z</time>
      </trkpt>
      <trkpt lat="59.9622076" lon="17.7787676">
        <ele>29.4575</ele>
        <time>2013-05-25T17:25:52Z</time>
      </trkpt>
      <trkpt lat="59.9622523" lon="17.7786604">
        <ele>29.4575</ele>
        <time>2013-05-25T17:25:53Z</time>
      </trkpt>
      <trkpt lat="59.9622965" lon="17.7785558">
        <ele>29.4575</ele>
        <time>2013-05-25T17:25:54Z</time>
      </trkpt>
      <trkpt lat="59.9623399" lon="17.7784547">
        <ele>29.4575</ele>
        <time>2013-05-25T17:25:55Z</time>
      </trkpt>
      <trkpt lat="59.9623836" lon="17.7783563">
        <ele>28.9769</ele>
        <time>2013-05-25T17:25:56Z</time>
      </trkpt>
      <trkpt lat="59.9624279" lon="17.7782618">
        <ele>28.9769</ele>
        <time>2013-05-25T17:25:57Z</time>
      </trkpt>
      <trkpt lat="59.9624722" lon="17.7781686">
        <ele>28.4962</ele>
        <time>2013-05-25T17:25:58Z</time>
      </trkpt>
      <trkpt lat="59.9625161" lon="17.7780749">
        <ele>28.0155</ele>
        <time>2013-05-25T17:25:59Z</time>
      </trkpt>
      <trkpt lat="59.9625588" lon="17.7779813">
        <ele>27.5349</ele>
        <time>2013-05-25T17:26:00Z</time>
      </trkpt>
      <trkpt lat="59.9626016" lon="17.7778896">
        <ele>27.5349</ele>
        <time>2013-05-25T17:26:01Z</time>
      </trkpt>
      <trkpt lat="59.9626448" lon="17.7778021">
        <ele>27.0543</ele>
        <time>2013-05-25T17:26:02Z</time>
      </trkpt>
      <trkpt lat="59.9626875" lon="17.7777195">
        <ele>27.0543</ele>
        <time>2013-05-25T17:26:03Z</time>
      </trkpt>
      <trkpt lat="59.9627286" lon="17.7776388">
        <ele>26.5736</ele>
        <time>2013-05-25T17:26:04Z</time>
      </trkpt>
      <trkpt lat="59.9627681" lon="17.7775611">
        <ele>26.0929</ele>
        <time>2013-05-25T17:26:05Z</time>
      </trkpt>
      <trkpt lat="59.9628068" lon="17.7774845">
        <ele>25.6123</ele>
        <time>2013-05-25T17:26:06Z</time>
      </trkpt>
      <trkpt lat="59.9628446" lon="17.7774085">
        <ele>25.6123</ele>
        <time>2013-05-25T17:26:07Z</time>
      </trkpt>
      <trkpt lat="59.9628813" lon="17.7773316">
        <ele>25.6123</ele>
        <time>2013-05-25T17:26:08Z</time>
      </trkpt>
      <trkpt lat="59.9629154" lon="17.7772513">
        <ele>25.6123</ele>
        <time>2013-05-25T17:26:09Z</time>
      </trkpt>
      <trkpt lat="59.962949" lon="17.777168">
        <ele>25.6123</ele>
        <time>2013-05-25T17:26:10Z</time>
      </trkpt>
      <trkpt lat="59.962982" lon="17.7770834">
        <ele>25.6123</ele>
        <time>2013-05-25T17:26:11Z</time>
      </trkpt>
      <trkpt lat="59.9630135" lon="17.7769965">
        <ele>25.6123</ele>
        <time>2013-05-25T17:26:12Z</time>
      </trkpt>
      <trkpt lat="59.963043" lon="17.77691">
        <ele>26.0929</ele>
        <time>2013-05-25T17:26:13Z</time>
      </trkpt>
      <trkpt lat="59.9630708" lon="17.7768198">
        <ele>26.0929</ele>
        <time>2013-05-25T17:26:14Z</time>
      </trkpt>
      <trkpt lat="59.9630979" lon="17.7767307">
        <ele>26.0929</ele>
        <time>2013-05-25T17:26:15Z</time>
      </trkpt>
      <trkpt lat="59.9631246" lon="17.7766432">
        <ele>26.0929</ele>
        <time>2013-05-25T17:26:16Z</time>
      </trkpt>
      <trkpt lat="59.9631503" lon="17.7765547">
        <ele>26.5736</ele>
        <time>2013-05-25T17:26:17Z</time>
      </trkpt>
      <trkpt lat="59.9631761" lon="17.7764641">
        <ele>26.5736</ele>
        <time>2013-05-25T17:26:18Z</time>
      </trkpt>
      <trkpt lat="59.9632021" lon="17.7763714">
        <ele>26.5736</ele>
        <time>2013-05-25T17:26:19Z</time>
      </trkpt>
      <trkpt lat="59.963229" lon="17.7762744">
        <ele>26.5736</ele>
        <time>2013-05-25T17:26:20Z</time>
      </trkpt>
      <trkpt lat="59.9632571" lon="17.7761764">
        <ele>26.5736</ele>
        <time>2013-05-25T17:26:21Z</time>
      </trkpt>
      <trkpt lat="59.9632874" lon="17.7760771">
        <ele>26.5736</ele>
        <time>2013-05-25T17:26:22Z</time>
      </trkpt>
      <trkpt lat="59.9633189" lon="17.7759788">
        <ele>26.0929</ele>
        <time>2013-05-25T17:26:23Z</time>
      </trkpt>
      <trkpt lat="59.9633511" lon="17.7758777">
        <ele>25.6123</ele>
        <time>2013-05-25T17:26:24Z</time>
      </trkpt>
      <trkpt lat="59.9633827" lon="17.7757735">
        <ele>25.6123</ele>
        <time>2013-05-25T17:26:25Z</time>
      </trkpt>
      <trkpt lat="59.9634149" lon="17.7756658">
        <ele>25.6123</ele>
        <time>2013-05-25T17:26:26Z</time>
      </trkpt>
      <trkpt lat="59.9634486" lon="17.7755583">
        <ele>25.6123</ele>
        <time>2013-05-25T17:26:27Z</time>
      </trkpt>
      <trkpt lat="59.9634829" lon="17.7754501">
        <ele>25.6123</ele>
        <time>2013-05-25T17:26:28Z</time>
      </trkpt>
      <trkpt lat="59.9635165" lon="17.7753385">
        <ele>25.6123</ele>
        <time>2013-05-25T17:26:29Z</time>
      </trkpt>
      <trkpt lat="59.963548" lon="17.7752235">
        <ele>25.1317</ele>
        <time>2013-05-25T17:26:30Z</time>
      </trkpt>
      <trkpt lat="59.9635764" lon="17.7751057">
        <ele>25.1317</ele>
        <time>2013-05-25T17:26:31Z</time>
      </trkpt>
      <trkpt lat="59.9636023" lon="17.7749875">
        <ele>25.1317</ele>
        <time>2013-05-25T17:26:32Z</time>
      </trkpt>
      <trkpt lat="59.9636253" lon="17.7748696">
        <ele>25.1317</ele>
        <time>2013-05-25T17:26:33Z</time>
      </trkpt>
      <trkpt lat="59.9636461" lon="17.7747541">
        <ele>24.651</ele>
        <time>2013-05-25T17:26:34Z</time>
      </trkpt>
      <trkpt lat="59.9636651" lon="17.7746379">
        <ele>24.651</ele>
        <time>2013-05-25T17:26:35Z</time>
      </trkpt>
      <trkpt lat="59.9636843" lon="17.7745221">
        <ele>24.651</ele>
        <time>2013-05-25T17:26:36Z</time>
      </trkpt>
      <trkpt lat="59.9637046" lon="17.7744049">
        <ele>24.651</ele>
        <time>2013-05-25T17:26:37Z</time>
      </trkpt>
      <trkpt lat="59.9637246" lon="17.7742846">
        <ele>25.1317</ele>
        <time>2013-05-25T17:26:38Z</time>
      </trkpt>
      <trkpt lat="59.9637443" lon="17.774161">
        <ele>25.1317</ele>
        <time>2013-05-25T17:26:39Z</time>
      </trkpt>
      <trkpt lat="59.9637651" lon="17.7740298">
        <ele>25.1317</ele>
        <time>2013-05-25T17:26:40Z</time>
      </trkpt>
      <trkpt lat="59.9637883" lon="17.7739">
        <ele>25.1317</ele>
        <time>2013-05-25T17:26:41Z</time>
      </trkpt>
      <trkpt lat="59.9638131" lon="17.7737743">
        <ele>25.1317</ele>
        <time>2013-05-25T17:26:42Z</time>
      </trkpt>
      <trkpt lat="59.9638349" lon="17.7736496">
        <ele>25.6123</ele>
        <time>2013-05-25T17:26:43Z</time>
      </trkpt>
      <trkpt lat="59.9638538" lon="17.7735238">
        <ele>25.6123</ele>
        <time>2013-05-25T17:26:44Z</time>
      </trkpt>
      <trkpt lat="59.9638706" lon="17.7733958">
        <ele>25.6123</ele>
        <time>2013-05-25T17:26:45Z</time>
      </trkpt>
      <trkpt lat="59.9638857" lon="17.7732689">
        <ele>26.0929</ele>
        <time>2013-05-25T17:26:46Z</time>
      </trkpt>
      <trkpt lat="59.9638976" lon="17.7731431">
        <ele>26.0929</ele>
        <time>2013-05-25T17:26:47Z</time>
      </trkpt>
      <trkpt lat="59.963904" lon="17.7730177">
        <ele>26.5736</ele>
        <time>2013-05-25T17:26:48Z</time>
      </trkpt>
      <trkpt lat="59.9639043" lon="17.7728896">
        <ele>26.5736</ele>
        <time>2013-05-25T17:26:49Z</time>
      </trkpt>
      <trkpt lat="59.9638973" lon="17.7727618">
        <ele>25.6123</ele>
        <time>2013-05-25T17:26:50Z</time>
      </trkpt>
      <trkpt lat="59.9638848" lon="17.7726317">
        <ele>25.1317</ele>
        <time>2013-05-25T17:26:51Z</time>
      </trkpt>
      <trkpt lat="59.9638692" lon="17.7724992">
        <ele>24.651</ele>
        <time>2013-05-25T17:26:52Z</time>
      </trkpt>
      <trkpt lat="59.9638505" lon="17.7723691">
        <ele>24.1703</ele>
        <time>2013-05-25T17:26:53Z</time>
      </trkpt>
      <trkpt lat="59.9638273" lon="17.7722421">
        <ele>23.6896</ele>
        <time>2013-05-25T17:26:54Z</time>
      </trkpt>
      <trkpt lat="59.9638024" lon="17.7721184">
        <ele>23.6896</ele>
        <time>2013-05-25T17:26:55Z</time>
      </trkpt>
      <trkpt lat="59.9637738" lon="17.7719994">
        <ele>23.209</ele>
        <time>2013-05-25T17:26:56Z</time>
      </trkpt>
      <trkpt lat="59.9637485" lon="17.7718794">
        <ele>22.7283</ele>
        <time>2013-05-25T17:26:57Z</time>
      </trkpt>
      <trkpt lat="59.9637245" lon="17.7717512">
        <ele>21.767</ele>
        <time>2013-05-25T17:26:58Z</time>
      </trkpt>
      <trkpt lat="59.9636962" lon="17.7716268">
        <ele>21.2864</ele>
        <time>2013-05-25T17:26:59Z</time>
      </trkpt>
      <trkpt lat="59.9636662" lon="17.7715056">
        <ele>20.8057</ele>
        <time>2013-05-25T17:27:00Z</time>
      </trkpt>
      <trkpt lat="59.9636366" lon="17.7713792">
        <ele>20.325</ele>
        <time>2013-05-25T17:27:01Z</time>
      </trkpt>
      <trkpt lat="59.963609" lon="17.7712487">
        <ele>20.8057</ele>
        <time>2013-05-25T17:27:02Z</time>
      </trkpt>
      <trkpt lat="59.9635797" lon="17.7711174">
        <ele>20.8057</ele>
        <time>2013-05-25T17:27:03Z</time>
      </trkpt>
      <trkpt lat="59.9635511" lon="17.7709848">
        <ele>20.325</ele>
        <time>2013-05-25T17:27:04Z</time>
      </trkpt>
      <trkpt lat="59.9635251" lon="17.7708501">
        <ele>20.325</ele>
        <time>2013-05-25T17:27:05Z</time>
      </trkpt>
      <trkpt lat="59.9635056" lon="17.7707122">
        <ele>21.2864</ele>
        <time>2013-05-25T17:27:06Z</time>
      </trkpt>
      <trkpt lat="59.963491" lon="17.7705815">
        <ele>21.2864</ele>
        <time>2013-05-25T17:27:07Z</time>
      </trkpt>
      <trkpt lat="59.9634761" lon="17.7704495">
        <ele>20.8057</ele>
        <time>2013-05-25T17:27:08Z</time>
      </trkpt>
      <trkpt lat="59.9634693" lon="17.770321">
        <ele>21.2864</ele>
        <time>2013-05-25T17:27:09Z</time>
      </trkpt>
      <trkpt lat="59.9634684" lon="17.7701908">
        <ele>21.767</ele>
        <time>2013-05-25T17:27:10Z</time>
      </trkpt>
      <trkpt lat="59.9634668" lon="17.7700552">
        <ele>22.2476</ele>
        <time>2013-05-25T17:27:11Z</time>
      </trkpt>
      <trkpt lat="59.9634674" lon="17.7699122">
        <ele>22.7283</ele>
        <time>2013-05-25T17:27:12Z</time>
      </trkpt>
      <trkpt lat="59.9634756" lon="17.769777">
        <ele>24.1703</ele>
        <time>2013-05-25T17:27:13Z</time>
      </trkpt>
      <trkpt lat="59.963488" lon="17.7696396">
        <ele>24.651</ele>
        <time>2013-05-25T17:27:14Z</time>
      </trkpt>
      <trkpt lat="59.9635093" lon="17.7695056">
        <ele>25.6123</ele>
        <time>2013-05-25T17:27:15Z</time>
      </trkpt>
      <trkpt lat="59.9635368" lon="17.7693756">
        <ele>25.6123</ele>
        <time>2013-05-25T17:27:16Z</time>
      </trkpt>
      <trkpt lat="59.9635715" lon="17.7692501">
        <ele>26.0929</ele>
        <time>2013-05-25T17:27:17Z</time>
      </trkpt>
      <trkpt lat="59.963607" lon="17.7691243">
        <ele>26.0929</ele>
        <time>2013-05-25T17:27:18Z</time>
      </trkpt>
      <trkpt lat="59.9636448" lon="17.7690073">
        <ele>26.0929</ele>
        <time>2013-05-25T17:27:19Z</time>
      </trkpt>
      <trkpt lat="59.9636815" lon="17.7688854">
        <ele>26.5736</ele>
        <time>2013-05-25T17:27:20Z</time>
      </trkpt>
      <trkpt lat="59.9637185" lon="17.7687621">
        <ele>26.5736</ele>
        <time>2013-05-25T17:27:21Z</time>
      </trkpt>
      <trkpt lat="59.9637542" lon="17.7686385">
        <ele>27.0543</ele>
        <time>2013-05-25T17:27:22Z</time>
      </trkpt>
      <trkpt lat="59.9637895" lon="17.7685175">
        <ele>27.0543</ele>
        <time>2013-05-25T17:27:23Z</time>
      </trkpt>
      <trkpt lat="59.963823" lon="17.7683975">
        <ele>27.0543</ele>
        <time>2013-05-25T17:27:24Z</time>
      </trkpt>
      <trkpt lat="59.9638546" lon="17.7682816">
        <ele>28.0155</ele>
        <time>2013-05-25T17:27:25Z</time>
      </trkpt>
      <trkpt lat="59.9638832" lon="17.7681717">
        <ele>28.0155</ele>
        <time>2013-05-25T17:27:26Z</time>
      </trkpt>
      <trkpt lat="59.9639123" lon="17.7680692">
        <ele>28.4962</ele>
        <time>2013-05-25T17:27:27Z</time>
      </trkpt>
      <trkpt lat="59.9639372" lon="17.7679645">
        <ele>28.4962</ele>
        <time>2013-05-25T17:27:28Z</time>
      </trkpt>
      <trkpt lat="59.9639578" lon="17.767856">
        <ele>28.9769</ele>
        <time>2013-05-25T17:27:29Z</time>
      </trkpt>
      <trkpt lat="59.9639776" lon="17.7677499">
        <ele>28.9769</ele>
        <time>2013-05-25T17:27:30Z</time>
      </trkpt>
      <trkpt lat="59.9639976" lon="17.7676439">
        <ele>29.4575</ele>
        <time>2013-05-25T17:27:31Z</time>
      </trkpt>
      <trkpt lat="59.9640165" lon="17.767539">
        <ele>29.4575</ele>
        <time>2013-05-25T17:27:32Z</time>
      </trkpt>
      <trkpt lat="59.9640343" lon="17.7674315">
        <ele>29.9381</ele>
        <time>2013-05-25T17:27:33Z</time>
      </trkpt>
      <trkpt lat="59.964051" lon="17.7673206">
        <ele>29.9381</ele>
        <time>2013-05-25T17:27:34Z</time>
      </trkpt>
      <trkpt lat="59.9640654" lon="17.7672062">
        <ele>30.8995</ele>
        <time>2013-05-25T17:27:35Z</time>
      </trkpt>
      <trkpt lat="59.9640757" lon="17.7670861">
        <ele>30.8995</ele>
        <time>2013-05-25T17:27:36Z</time>
      </trkpt>
      <trkpt lat="59.9640815" lon="17.7669618">
        <ele>31.3801</ele>
        <time>2013-05-25T17:27:37Z</time>
      </trkpt>
      <trkpt lat="59.9640815" lon="17.7668376">
        <ele>30.4188</ele>
        <time>2013-05-25T17:27:38Z</time>
      </trkpt>
      <trkpt lat="59.9640842" lon="17.7667213">
        <ele>28.9769</ele>
        <time>2013-05-25T17:27:39Z</time>
      </trkpt>
      <trkpt lat="59.9640842" lon="17.7666023">
        <ele>27.5349</ele>
        <time>2013-05-25T17:27:40Z</time>
      </trkpt>
      <trkpt lat="59.9640804" lon="17.7664789">
        <ele>26.0929</ele>
        <time>2013-05-25T17:27:41Z</time>
      </trkpt>
      <trkpt lat="59.9640784" lon="17.7663591">
        <ele>25.6123</ele>
        <time>2013-05-25T17:27:42Z</time>
      </trkpt>
      <trkpt lat="59.9640763" lon="17.7662297">
        <ele>25.6123</ele>
        <time>2013-05-25T17:27:43Z</time>
      </trkpt>
      <trkpt lat="59.9640775" lon="17.7660997">
        <ele>24.651</ele>
        <time>2013-05-25T17:27:44Z</time>
      </trkpt>
      <trkpt lat="59.9640835" lon="17.7659578">
        <ele>23.6896</ele>
        <time>2013-05-25T17:27:45Z</time>
      </trkpt>
      <trkpt lat="59.9640916" lon="17.765809">
        <ele>22.2476</ele>
        <time>2013-05-25T17:27:46Z</time>
      </trkpt>
      <trkpt lat="59.9641008" lon="17.7656438">
        <ele>20.8057</ele>
        <time>2013-05-25T17:27:47Z</time>
      </trkpt>
      <trkpt lat="59.9641147" lon="17.7654756">
        <ele>19.8444</ele>
        <time>2013-05-25T17:27:48Z</time>
      </trkpt>
      <trkpt lat="59.9641263" lon="17.765295">
        <ele>18.8831</ele>
        <time>2013-05-25T17:27:49Z</time>
      </trkpt>
      <trkpt lat="59.9641458" lon="17.7651088">
        <ele>18.4023</ele>
        <time>2013-05-25T17:27:50Z</time>
      </trkpt>
      <trkpt lat="59.9641692" lon="17.764916">
        <ele>17.9218</ele>
        <time>2013-05-25T17:27:51Z</time>
      </trkpt>
      <trkpt lat="59.9642038" lon="17.7647309">
        <ele>16.4797</ele>
        <time>2013-05-25T17:27:52Z</time>
      </trkpt>
      <trkpt lat="59.9642432" lon="17.7645503">
        <ele>15.999</ele>
        <time>2013-05-25T17:27:53Z</time>
      </trkpt>
      <trkpt lat="59.9642778" lon="17.7643664">
        <ele>15.999</ele>
        <time>2013-05-25T17:27:54Z</time>
      </trkpt>
      <trkpt lat="59.9643273" lon="17.7642115">
        <ele>15.0377</ele>
        <time>2013-05-25T17:27:55Z</time>
      </trkpt>
      <trkpt lat="59.964373" lon="17.7640568">
        <ele>15.0377</ele>
        <time>2013-05-25T17:27:56Z</time>
      </trkpt>
      <trkpt lat="59.9644151" lon="17.7639028">
        <ele>14.557</ele>
        <time>2013-05-25T17:27:57Z</time>
      </trkpt>
      <trkpt lat="59.9644621" lon="17.7637624">
        <ele>14.557</ele>
        <time>2013-05-25T17:27:58Z</time>
      </trkpt>
      <trkpt lat="59.9644918" lon="17.7636029">
        <ele>15.5184</ele>
        <time>2013-05-25T17:27:59Z</time>
      </trkpt>
      <trkpt lat="59.964536" lon="17.763462">
        <ele>15.0377</ele>
        <time>2013-05-25T17:28:00Z</time>
      </trkpt>
      <trkpt lat="59.9645784" lon="17.7633206">
        <ele>14.0764</ele>
        <time>2013-05-25T17:28:01Z</time>
      </trkpt>
      <trkpt lat="59.9646202" lon="17.7631779">
        <ele>12.6344</ele>
        <time>2013-05-25T17:28:02Z</time>
      </trkpt>
      <trkpt lat="59.964656" lon="17.763042">
        <ele>13.1151</ele>
        <time>2013-05-25T17:28:03Z</time>
      </trkpt>
      <trkpt lat="59.9646923" lon="17.7629059">
        <ele>13.1151</ele>
        <time>2013-05-25T17:28:04Z</time>
      </trkpt>
      <trkpt lat="59.9647312" lon="17.7627745">
        <ele>13.5958</ele>
        <time>2013-05-25T17:28:05Z</time>
      </trkpt>
      <trkpt lat="59.9647735" lon="17.7626419">
        <ele>14.557</ele>
        <time>2013-05-25T17:28:06Z</time>
      </trkpt>
      <trkpt lat="59.9648167" lon="17.7625114">
        <ele>14.557</ele>
        <time>2013-05-25T17:28:07Z</time>
      </trkpt>
      <trkpt lat="59.96486" lon="17.7623778">
        <ele>14.557</ele>
        <time>2013-05-25T17:28:08Z</time>
      </trkpt>
      <trkpt lat="59.9649048" lon="17.7622505">
        <ele>15.5184</ele>
        <time>2013-05-25T17:28:09Z</time>
      </trkpt>
      <trkpt lat="59.9649518" lon="17.7621246">
        <ele>16.4797</ele>
        <time>2013-05-25T17:28:10Z</time>
      </trkpt>
      <trkpt lat="59.9649973" lon="17.7620018">
        <ele>17.4412</ele>
        <time>2013-05-25T17:28:11Z</time>
      </trkpt>
      <trkpt lat="59.9650418" lon="17.7618804">
        <ele>18.4023</ele>
        <time>2013-05-25T17:28:12Z</time>
      </trkpt>
      <trkpt lat="59.965086" lon="17.7617604">
        <ele>18.4023</ele>
        <time>2013-05-25T17:28:13Z</time>
      </trkpt>
      <trkpt lat="59.9651294" lon="17.7616417">
        <ele>18.4023</ele>
        <time>2013-05-25T17:28:14Z</time>
      </trkpt>
      <trkpt lat="59.9651731" lon="17.7615245">
        <ele>18.4023</ele>
        <time>2013-05-25T17:28:15Z</time>
      </trkpt>
      <trkpt lat="59.9652171" lon="17.761407">
        <ele>17.9218</ele>
        <time>2013-05-25T17:28:16Z</time>
      </trkpt>
      <trkpt lat="59.965263" lon="17.761291">
        <ele>17.4412</ele>
        <time>2013-05-25T17:28:17Z</time>
      </trkpt>
      <trkpt lat="59.9653098" lon="17.7611729">
        <ele>17.9218</ele>
        <time>2013-05-25T17:28:18Z</time>
      </trkpt>
      <trkpt lat="59.965358" lon="17.7610552">
        <ele>17.4412</ele>
        <time>2013-05-25T17:28:19Z</time>
      </trkpt>
      <trkpt lat="59.9654084" lon="17.7609497">
        <ele>17.4412</ele>
        <time>2013-05-25T17:28:20Z</time>
      </trkpt>
      <trkpt lat="59.9654612" lon="17.7608443">
        <ele>17.4412</ele>
        <time>2013-05-25T17:28:21Z</time>
      </trkpt>
      <trkpt lat="59.9655129" lon="17.7607529">
        <ele>17.4412</ele>
        <time>2013-05-25T17:28:22Z</time>
      </trkpt>
      <trkpt lat="59.9655691" lon="17.7606673">
        <ele>17.4412</ele>
        <time>2013-05-25T17:28:23Z</time>
      </trkpt>
      <trkpt lat="59.9656272" lon="17.7605886">
        <ele>17.4412</ele>
        <time>2013-05-25T17:28:24Z</time>
      </trkpt>
      <trkpt lat="59.9656834" lon="17.7605045">
        <ele>17.4412</ele>
        <time>2013-05-25T17:28:25Z</time>
      </trkpt>
      <trkpt lat="59.9657381" lon="17.7604072">
        <ele>16.9604</ele>
        <time>2013-05-25T17:28:26Z</time>
      </trkpt>
      <trkpt lat="59.9657932" lon="17.7603067">
        <ele>16.4797</ele>
        <time>2013-05-25T17:28:27Z</time>
      </trkpt>
      <trkpt lat="59.9658502" lon="17.7602105">
        <ele>16.4797</ele>
        <time>2013-05-25T17:28:28Z</time>
      </trkpt>
      <trkpt lat="59.9659079" lon="17.7601166">
        <ele>15.999</ele>
        <time>2013-05-25T17:28:29Z</time>
      </trkpt>
      <trkpt lat="59.9659655" lon="17.7600219">
        <ele>15.999</ele>
        <time>2013-05-25T17:28:30Z</time>
      </trkpt>
      <trkpt lat="59.9660214" lon="17.7599265">
        <ele>15.999</ele>
        <time>2013-05-25T17:28:31Z</time>
      </trkpt>
      <trkpt lat="59.9660761" lon="17.7598266">
        <ele>15.999</ele>
        <time>2013-05-25T17:28:32Z</time>
      </trkpt>
      <trkpt lat="59.9661289" lon="17.759714">
        <ele>17.4412</ele>
        <time>2013-05-25T17:28:33Z</time>
      </trkpt>
      <trkpt lat="59.9661821" lon="17.7596125">
        <ele>19.3638</ele>
        <time>2013-05-25T17:28:34Z</time>
      </trkpt>
      <trkpt lat="59.9662387" lon="17.7595228">
        <ele>20.8057</ele>
        <time>2013-05-25T17:28:35Z</time>
      </trkpt>
      <trkpt lat="59.9662946" lon="17.759435">
        <ele>21.767</ele>
        <time>2013-05-25T17:28:36Z</time>
      </trkpt>
      <trkpt lat="59.9663474" lon="17.7593479">
        <ele>22.2476</ele>
        <time>2013-05-25T17:28:37Z</time>
      </trkpt>
      <trkpt lat="59.9664013" lon="17.75927">
        <ele>22.2476</ele>
        <time>2013-05-25T17:28:38Z</time>
      </trkpt>
      <trkpt lat="59.9664526" lon="17.7591848">
        <ele>23.209</ele>
        <time>2013-05-25T17:28:39Z</time>
      </trkpt>
      <trkpt lat="59.9665075" lon="17.759111">
        <ele>23.6896</ele>
        <time>2013-05-25T17:28:40Z</time>
      </trkpt>
      <trkpt lat="59.9665634" lon="17.7590403">
        <ele>24.1703</ele>
        <time>2013-05-25T17:28:41Z</time>
      </trkpt>
      <trkpt lat="59.9666194" lon="17.7589708">
        <ele>24.651</ele>
        <time>2013-05-25T17:28:42Z</time>
      </trkpt>
      <trkpt lat="59.9666766" lon="17.7589025">
        <ele>25.1317</ele>
        <time>2013-05-25T17:28:43Z</time>
      </trkpt>
      <trkpt lat="59.9667337" lon="17.7588398">
        <ele>25.1317</ele>
        <time>2013-05-25T17:28:44Z</time>
      </trkpt>
      <trkpt lat="59.9667908" lon="17.7587854">
        <ele>25.1317</ele>
        <time>2013-05-25T17:28:45Z</time>
      </trkpt>
      <trkpt lat="59.9668482" lon="17.7587347">
        <ele>25.1317</ele>
        <time>2013-05-25T17:28:46Z</time>
      </trkpt>
      <trkpt lat="59.9669057" lon="17.7586812">
        <ele>25.1317</ele>
        <time>2013-05-25T17:28:47Z</time>
      </trkpt>
      <trkpt lat="59.9669629" lon="17.758636">
        <ele>25.6123</ele>
        <time>2013-05-25T17:28:48Z</time>
      </trkpt>
      <trkpt lat="59.9670185" lon="17.7585975">
        <ele>25.6123</ele>
        <time>2013-05-25T17:28:49Z</time>
      </trkpt>
      <trkpt lat="59.9670741" lon="17.7585593">
        <ele>25.6123</ele>
        <time>2013-05-25T17:28:50Z</time>
      </trkpt>
      <trkpt lat="59.9671274" lon="17.7585222">
        <ele>25.6123</ele>
        <time>2013-05-25T17:28:51Z</time>
      </trkpt>
      <trkpt lat="59.9671802" lon="17.7584937">
        <ele>25.1317</ele>
        <time>2013-05-25T17:28:52Z</time>
      </trkpt>
      <trkpt lat="59.9672332" lon="17.7584552">
        <ele>24.651</ele>
        <time>2013-05-25T17:28:53Z</time>
      </trkpt>
      <trkpt lat="59.9672881" lon="17.7584162">
        <ele>24.1703</ele>
        <time>2013-05-25T17:28:54Z</time>
      </trkpt>
      <trkpt lat="59.9673408" lon="17.7583763">
        <ele>23.6896</ele>
        <time>2013-05-25T17:28:55Z</time>
      </trkpt>
      <trkpt lat="59.9673923" lon="17.7583299">
        <ele>23.6896</ele>
        <time>2013-05-25T17:28:56Z</time>
      </trkpt>
      <trkpt lat="59.9674467" lon="17.7582713">
        <ele>24.1703</ele>
        <time>2013-05-25T17:28:57Z</time>
      </trkpt>
      <trkpt lat="59.9675026" lon="17.7582148">
        <ele>25.1317</ele>
        <time>2013-05-25T17:28:58Z</time>
      </trkpt>
      <trkpt lat="59.9675585" lon="17.7581591">
        <ele>25.1317</ele>
        <time>2013-05-25T17:28:59Z</time>
      </trkpt>
      <trkpt lat="59.9676145" lon="17.7581083">
        <ele>25.1317</ele>
        <time>2013-05-25T17:29:00Z</time>
      </trkpt>
      <trkpt lat="59.9676705" lon="17.7580591">
        <ele>24.651</ele>
        <time>2013-05-25T17:29:01Z</time>
      </trkpt>
      <trkpt lat="59.9677268" lon="17.7580056">
        <ele>25.1317</ele>
        <time>2013-05-25T17:29:02Z</time>
      </trkpt>
      <trkpt lat="59.9677824" lon="17.7579503">
        <ele>25.1317</ele>
        <time>2013-05-25T17:29:03Z</time>
      </trkpt>
      <trkpt lat="59.9678367" lon="17.7578921">
        <ele>25.1317</ele>
        <time>2013-05-25T17:29:04Z</time>
      </trkpt>
      <trkpt lat="59.9678881" lon="17.7578264">
        <ele>25.6123</ele>
        <time>2013-05-25T17:29:05Z</time>
      </trkpt>
      <trkpt lat="59.9679396" lon="17.7577681">
        <ele>25.6123</ele>
        <time>2013-05-25T17:29:06Z</time>
      </trkpt>
      <trkpt lat="59.9679872" lon="17.7577006">
        <ele>26.0929</ele>
        <time>2013-05-25T17:29:07Z</time>
      </trkpt>
      <trkpt lat="59.9680351" lon="17.7576337">
        <ele>26.5736</ele>
        <time>2013-05-25T17:29:08Z</time>
      </trkpt>
      <trkpt lat="59.9680818" lon="17.7575664">
        <ele>27.5349</ele>
        <time>2013-05-25T17:29:09Z</time>
      </trkpt>
      <trkpt lat="59.9681255" lon="17.757499">
        <ele>28.0155</ele>
        <time>2013-05-25T17:29:10Z</time>
      </trkpt>
      <trkpt lat="59.9681699" lon="17.7574394">
        <ele>28.4962</ele>
        <time>2013-05-25T17:29:11Z</time>
      </trkpt>
      <trkpt lat="59.968212" lon="17.7573826">
        <ele>28.9769</ele>
        <time>2013-05-25T17:29:12Z</time>
      </trkpt>
      <trkpt lat="59.9682529" lon="17.7573287">
        <ele>28.9769</ele>
        <time>2013-05-25T17:29:13Z</time>
      </trkpt>
      <trkpt lat="59.9682904" lon="17.7572596">
        <ele>28.9769</ele>
        <time>2013-05-25T17:29:14Z</time>
      </trkpt>
      <trkpt lat="59.9683301" lon="17.7571985">
        <ele>28.9769</ele>
        <time>2013-05-25T17:29:15Z</time>
      </trkpt>
      <trkpt lat="59.9683713" lon="17.7571262">
        <ele>29.4575</ele>
        <time>2013-05-25T17:29:16Z</time>
      </trkpt>
      <trkpt lat="59.9684163" lon="17.7570524">
        <ele>29.4575</ele>
        <time>2013-05-25T17:29:17Z</time>
      </trkpt>
      <trkpt lat="59.9684624" lon="17.7569708">
        <ele>29.9381</ele>
        <time>2013-05-25T17:29:18Z</time>
      </trkpt>
      <trkpt lat="59.9685091" lon="17.7568972">
        <ele>29.9381</ele>
        <time>2013-05-25T17:29:19Z</time>
      </trkpt>
      <trkpt lat="59.9685552" lon="17.7568266">
        <ele>30.4188</ele>
        <time>2013-05-25T17:29:20Z</time>
      </trkpt>
      <trkpt lat="59.9686001" lon="17.7567579">
        <ele>30.4188</ele>
        <time>2013-05-25T17:29:21Z</time>
      </trkpt>
      <trkpt lat="59.9686438" lon="17.7566898">
        <ele>30.4188</ele>
        <time>2013-05-25T17:29:22Z</time>
      </trkpt>
      <trkpt lat="59.9686862" lon="17.7566197">
        <ele>30.8995</ele>
        <time>2013-05-25T17:29:23Z</time>
      </trkpt>
      <trkpt lat="59.9687262" lon="17.7565517">
        <ele>30.8995</ele>
        <time>2013-05-25T17:29:24Z</time>
      </trkpt>
      <trkpt lat="59.968765" lon="17.7564823">
        <ele>30.8995</ele>
        <time>2013-05-25T17:29:25Z</time>
      </trkpt>
      <trkpt lat="59.9688033" lon="17.7564103">
        <ele>30.8995</ele>
        <time>2013-05-25T17:29:26Z</time>
      </trkpt>
      <trkpt lat="59.9688411" lon="17.7563355">
        <ele>30.8995</ele>
        <time>2013-05-25T17:29:27Z</time>
      </trkpt>
      <trkpt lat="59.9688794" lon="17.756255">
        <ele>30.4188</ele>
        <time>2013-05-25T17:29:28Z</time>
      </trkpt>
      <trkpt lat="59.9689177" lon="17.7561723">
        <ele>30.4188</ele>
        <time>2013-05-25T17:29:29Z</time>
      </trkpt>
      <trkpt lat="59.9689578" lon="17.7560907">
        <ele>29.9381</ele>
        <time>2013-05-25T17:29:30Z</time>
      </trkpt>
      <trkpt lat="59.9690001" lon="17.756009">
        <ele>29.4575</ele>
        <time>2013-05-25T17:29:31Z</time>
      </trkpt>
      <trkpt lat="59.9690425" lon="17.7559238">
        <ele>28.9769</ele>
        <time>2013-05-25T17:29:32Z</time>
      </trkpt>
      <trkpt lat="59.969084" lon="17.7558357">
        <ele>28.0155</ele>
        <time>2013-05-25T17:29:33Z</time>
      </trkpt>
      <trkpt lat="59.9691254" lon="17.7557478">
        <ele>28.0155</ele>
        <time>2013-05-25T17:29:34Z</time>
      </trkpt>
      <trkpt lat="59.9691667" lon="17.7556613">
        <ele>27.5349</ele>
        <time>2013-05-25T17:29:35Z</time>
      </trkpt>
      <trkpt lat="59.9692104" lon="17.755569">
        <ele>27.5349</ele>
        <time>2013-05-25T17:29:36Z</time>
      </trkpt>
      <trkpt lat="59.9692537" lon="17.7554759">
        <ele>27.5349</ele>
        <time>2013-05-25T17:29:37Z</time>
      </trkpt>
      <trkpt lat="59.9692963" lon="17.7553831">
        <ele>28.0155</ele>
        <time>2013-05-25T17:29:38Z</time>
      </trkpt>
      <trkpt lat="59.9693388" lon="17.7552876">
        <ele>28.0155</ele>
        <time>2013-05-25T17:29:39Z</time>
      </trkpt>
      <trkpt lat="59.9693836" lon="17.7551883">
        <ele>27.5349</ele>
        <time>2013-05-25T17:29:40Z</time>
      </trkpt>
      <trkpt lat="59.9694286" lon="17.7550915">
        <ele>28.0155</ele>
        <time>2013-05-25T17:29:41Z</time>
      </trkpt>
      <trkpt lat="59.9694744" lon="17.7549981">
        <ele>28.0155</ele>
        <time>2013-05-25T17:29:42Z</time>
      </trkpt>
      <trkpt lat="59.9695196" lon="17.7549039">
        <ele>28.4962</ele>
        <time>2013-05-25T17:29:43Z</time>
      </trkpt>
      <trkpt lat="59.969564" lon="17.7548113">
        <ele>28.4962</ele>
        <time>2013-05-25T17:29:44Z</time>
      </trkpt>
      <trkpt lat="59.9696089" lon="17.7547214">
        <ele>28.4962</ele>
        <time>2013-05-25T17:29:45Z</time>
      </trkpt>
      <trkpt lat="59.9696533" lon="17.7546304">
        <ele>28.9769</ele>
        <time>2013-05-25T17:29:46Z</time>
      </trkpt>
      <trkpt lat="59.9696942" lon="17.7545377">
        <ele>28.9769</ele>
        <time>2013-05-25T17:29:47Z</time>
      </trkpt>
      <trkpt lat="59.9697347" lon="17.7544507">
        <ele>28.4962</ele>
        <time>2013-05-25T17:29:48Z</time>
      </trkpt>
      <trkpt lat="59.9697764" lon="17.7543646">
        <ele>28.4962</ele>
        <time>2013-05-25T17:29:49Z</time>
      </trkpt>
      <trkpt lat="59.9698218" lon="17.7542749">
        <ele>28.4962</ele>
        <time>2013-05-25T17:29:50Z</time>
      </trkpt>
      <trkpt lat="59.9698667" lon="17.7541803">
        <ele>28.0155</ele>
        <time>2013-05-25T17:29:51Z</time>
      </trkpt>
      <trkpt lat="59.9699132" lon="17.7540824">
        <ele>28.9769</ele>
        <time>2013-05-25T17:29:52Z</time>
      </trkpt>
      <trkpt lat="59.9699584" lon="17.753984">
        <ele>28.4962</ele>
        <time>2013-05-25T17:29:53Z</time>
      </trkpt>
      <trkpt lat="59.9700041" lon="17.7538814">
        <ele>28.0155</ele>
        <time>2013-05-25T17:29:54Z</time>
      </trkpt>
      <trkpt lat="59.970049" lon="17.7537732">
        <ele>27.5349</ele>
        <time>2013-05-25T17:29:55Z</time>
      </trkpt>
      <trkpt lat="59.9700916" lon="17.7536608">
        <ele>27.0543</ele>
        <time>2013-05-25T17:29:56Z</time>
      </trkpt>
      <trkpt lat="59.9701356" lon="17.7535483">
        <ele>27.0543</ele>
        <time>2013-05-25T17:29:57Z</time>
      </trkpt>
      <trkpt lat="59.9701774" lon="17.7534393">
        <ele>27.0543</ele>
        <time>2013-05-25T17:29:58Z</time>
      </trkpt>
      <trkpt lat="59.9702172" lon="17.7533272">
        <ele>27.0543</ele>
        <time>2013-05-25T17:29:59Z</time>
      </trkpt>
      <trkpt lat="59.9702568" lon="17.7532116">
        <ele>26.0929</ele>
        <time>2013-05-25T17:30:00Z</time>
      </trkpt>
      <trkpt lat="59.9702963" lon="17.7531017">
        <ele>25.6123</ele>
        <time>2013-05-25T17:30:01Z</time>
      </trkpt>
      <trkpt lat="59.9703385" lon="17.7529928">
        <ele>25.6123</ele>
        <time>2013-05-25T17:30:02Z</time>
      </trkpt>
      <trkpt lat="59.9703827" lon="17.7528841">
        <ele>25.6123</ele>
        <time>2013-05-25T17:30:03Z</time>
      </trkpt>
      <trkpt lat="59.9704267" lon="17.7527713">
        <ele>26.0929</ele>
        <time>2013-05-25T17:30:04Z</time>
      </trkpt>
      <trkpt lat="59.9704726" lon="17.7526563">
        <ele>26.0929</ele>
        <time>2013-05-25T17:30:05Z</time>
      </trkpt>
      <trkpt lat="59.9705215" lon="17.7525573">
        <ele>26.5736</ele>
        <time>2013-05-25T17:30:06Z</time>
      </trkpt>
      <trkpt lat="59.970569" lon="17.7524558">
        <ele>25.6123</ele>
        <time>2013-05-25T17:30:07Z</time>
      </trkpt>
      <trkpt lat="59.9706189" lon="17.7523557">
        <ele>26.0929</ele>
        <time>2013-05-25T17:30:08Z</time>
      </trkpt>
      <trkpt lat="59.9706713" lon="17.7522546">
        <ele>27.0543</ele>
        <time>2013-05-25T17:30:09Z</time>
      </trkpt>
      <trkpt lat="59.9707256" lon="17.7521559">
        <ele>27.0543</ele>
        <time>2013-05-25T17:30:10Z</time>
      </trkpt>
      <trkpt lat="59.9707816" lon="17.752072">
        <ele>27.5349</ele>
        <time>2013-05-25T17:30:11Z</time>
      </trkpt>
      <trkpt lat="59.9708383" lon="17.7519847">
        <ele>27.5349</ele>
        <time>2013-05-25T17:30:12Z</time>
      </trkpt>
      <trkpt lat="59.9708975" lon="17.7518993">
        <ele>28.0155</ele>
        <time>2013-05-25T17:30:13Z</time>
      </trkpt>
      <trkpt lat="59.9709561" lon="17.7518068">
        <ele>27.5349</ele>
        <time>2013-05-25T17:30:14Z</time>
      </trkpt>
      <trkpt lat="59.9710172" lon="17.7517116">
        <ele>27.0543</ele>
        <time>2013-05-25T17:30:15Z</time>
      </trkpt>
      <trkpt lat="59.9710809" lon="17.7516322">
        <ele>27.0543</ele>
        <time>2013-05-25T17:30:16Z</time>
      </trkpt>
      <trkpt lat="59.9711451" lon="17.7515506">
        <ele>26.0929</ele>
        <time>2013-05-25T17:30:17Z</time>
      </trkpt>
      <trkpt lat="59.9712075" lon="17.7514852">
        <ele>25.6123</ele>
        <time>2013-05-25T17:30:18Z</time>
      </trkpt>
      <trkpt lat="59.9712685" lon="17.7514136">
        <ele>25.6123</ele>
        <time>2013-05-25T17:30:19Z</time>
      </trkpt>
      <trkpt lat="59.9713275" lon="17.7513535">
        <ele>24.651</ele>
        <time>2013-05-25T17:30:20Z</time>
      </trkpt>
      <trkpt lat="59.9713859" lon="17.7512914">
        <ele>24.651</ele>
        <time>2013-05-25T17:30:21Z</time>
      </trkpt>
      <trkpt lat="59.9714416" lon="17.7512286">
        <ele>24.651</ele>
        <time>2013-05-25T17:30:22Z</time>
      </trkpt>
      <trkpt lat="59.9714963" lon="17.7511685">
        <ele>24.651</ele>
        <time>2013-05-25T17:30:23Z</time>
      </trkpt>
      <trkpt lat="59.9715504" lon="17.7511199">
        <ele>24.651</ele>
        <time>2013-05-25T17:30:24Z</time>
      </trkpt>
      <trkpt lat="59.9716003" lon="17.7510587">
        <ele>24.1703</ele>
        <time>2013-05-25T17:30:25Z</time>
      </trkpt>
      <trkpt lat="59.9716457" lon="17.7509822">
        <ele>23.6896</ele>
        <time>2013-05-25T17:30:26Z</time>
      </trkpt>
      <trkpt lat="59.971691" lon="17.7509099">
        <ele>23.209</ele>
        <time>2013-05-25T17:30:27Z</time>
      </trkpt>
      <trkpt lat="59.9717306" lon="17.7508293">
        <ele>23.6896</ele>
        <time>2013-05-25T17:30:28Z</time>
      </trkpt>
      <trkpt lat="59.971771" lon="17.7507609">
        <ele>23.209</ele>
        <time>2013-05-25T17:30:29Z</time>
      </trkpt>
      <trkpt lat="59.971808" lon="17.7506916">
        <ele>23.209</ele>
        <time>2013-05-25T17:30:30Z</time>
      </trkpt>
      <trkpt lat="59.9718418" lon="17.7506214">
        <ele>22.7283</ele>
        <time>2013-05-25T17:30:31Z</time>
      </trkpt>
      <trkpt lat="59.971871" lon="17.7505414">
        <ele>23.6896</ele>
        <time>2013-05-25T17:30:32Z</time>
      </trkpt>
      <trkpt lat="59.9718995" lon="17.7504668">
        <ele>24.1703</ele>
        <time>2013-05-25T17:30:33Z</time>
      </trkpt>
      <trkpt lat="59.9719288" lon="17.7504038">
        <ele>24.651</ele>
        <time>2013-05-25T17:30:34Z</time>
      </trkpt>
      <trkpt lat="59.9719583" lon="17.7503428">
        <ele>24.1703</ele>
        <time>2013-05-25T17:30:35Z</time>
      </trkpt>
      <trkpt lat="59.9719863" lon="17.7502817">
        <ele>24.1703</ele>
        <time>2013-05-25T17:30:36Z</time>
      </trkpt>
      <trkpt lat="59.9720118" lon="17.7502173">
        <ele>25.1317</ele>
        <time>2013-05-25T17:30:37Z</time>
      </trkpt>
      <trkpt lat="59.9720377" lon="17.7501527">
        <ele>26.0929</ele>
        <time>2013-05-25T17:30:38Z</time>
      </trkpt>
      <trkpt lat="59.9720647" lon="17.7500884">
        <ele>26.5736</ele>
        <time>2013-05-25T17:30:39Z</time>
      </trkpt>
      <trkpt lat="59.9720932" lon="17.7500264">
        <ele>27.5349</ele>
        <time>2013-05-25T17:30:40Z</time>
      </trkpt>
      <trkpt lat="59.9721228" lon="17.7499636">
        <ele>27.0543</ele>
        <time>2013-05-25T17:30:41Z</time>
      </trkpt>
      <trkpt lat="59.9721538" lon="17.7498941">
        <ele>27.5349</ele>
        <time>2013-05-25T17:30:42Z</time>
      </trkpt>
      <trkpt lat="59.9721853" lon="17.7498229">
        <ele>27.5349</ele>
        <time>2013-05-25T17:30:43Z</time>
      </trkpt>
      <trkpt lat="59.9722212" lon="17.7497532">
        <ele>28.0155</ele>
        <time>2013-05-25T17:30:44Z</time>
      </trkpt>
      <trkpt lat="59.9722543" lon="17.7496767">
        <ele>28.0155</ele>
        <time>2013-05-25T17:30:45Z</time>
      </trkpt>
      <trkpt lat="59.9722875" lon="17.7495962">
        <ele>28.4962</ele>
        <time>2013-05-25T17:30:46Z</time>
      </trkpt>
      <trkpt lat="59.972322" lon="17.749515">
        <ele>28.0155</ele>
        <time>2013-05-25T17:30:47Z</time>
      </trkpt>
      <trkpt lat="59.9723561" lon="17.7494332">
        <ele>27.5349</ele>
        <time>2013-05-25T17:30:48Z</time>
      </trkpt>
      <trkpt lat="59.9723921" lon="17.7493525">
        <ele>27.5349</ele>
        <time>2013-05-25T17:30:49Z</time>
      </trkpt>
      <trkpt lat="59.972424" lon="17.7492788">
        <ele>27.0543</ele>
        <time>2013-05-25T17:30:50Z</time>
      </trkpt>
      <trkpt lat="59.9724598" lon="17.7492053">
        <ele>26.5736</ele>
        <time>2013-05-25T17:30:51Z</time>
      </trkpt>
      <trkpt lat="59.9724949" lon="17.7491266">
        <ele>26.0929</ele>
        <time>2013-05-25T17:30:52Z</time>
      </trkpt>
      <trkpt lat="59.9725299" lon="17.7490394">
        <ele>25.6123</ele>
        <time>2013-05-25T17:30:53Z</time>
      </trkpt>
      <trkpt lat="59.9725664" lon="17.748952">
        <ele>25.6123</ele>
        <time>2013-05-25T17:30:54Z</time>
      </trkpt>
      <trkpt lat="59.9726097" lon="17.7488588">
        <ele>25.1317</ele>
        <time>2013-05-25T17:30:55Z</time>
      </trkpt>
      <trkpt lat="59.9726526" lon="17.7487583">
        <ele>25.6123</ele>
        <time>2013-05-25T17:30:56Z</time>
      </trkpt>
      <trkpt lat="59.9726941" lon="17.7486567">
        <ele>25.6123</ele>
        <time>2013-05-25T17:30:57Z</time>
      </trkpt>
      <trkpt lat="59.9727376" lon="17.7485516">
        <ele>26.0929</ele>
        <time>2013-05-25T17:30:58Z</time>
      </trkpt>
      <trkpt lat="59.9727847" lon="17.7484438">
        <ele>25.6123</ele>
        <time>2013-05-25T17:30:59Z</time>
      </trkpt>
      <trkpt lat="59.9728344" lon="17.7483323">
        <ele>26.0929</ele>
        <time>2013-05-25T17:31:00Z</time>
      </trkpt>
      <trkpt lat="59.9728881" lon="17.7482236">
        <ele>26.5736</ele>
        <time>2013-05-25T17:31:01Z</time>
      </trkpt>
      <trkpt lat="59.9729438" lon="17.7481232">
        <ele>27.5349</ele>
        <time>2013-05-25T17:31:02Z</time>
      </trkpt>
      <trkpt lat="59.9730024" lon="17.7480378">
        <ele>28.0155</ele>
        <time>2013-05-25T17:31:03Z</time>
      </trkpt>
      <trkpt lat="59.9730614" lon="17.7479594">
        <ele>28.4962</ele>
        <time>2013-05-25T17:31:04Z</time>
      </trkpt>
      <trkpt lat="59.9731184" lon="17.7478874">
        <ele>28.9769</ele>
        <time>2013-05-25T17:31:05Z</time>
      </trkpt>
      <trkpt lat="59.9731749" lon="17.7478239">
        <ele>28.9769</ele>
        <time>2013-05-25T17:31:06Z</time>
      </trkpt>
      <trkpt lat="59.9732305" lon="17.7477612">
        <ele>29.4575</ele>
        <time>2013-05-25T17:31:07Z</time>
      </trkpt>
      <trkpt lat="59.9732872" lon="17.7476999">
        <ele>30.4188</ele>
        <time>2013-05-25T17:31:08Z</time>
      </trkpt>
      <trkpt lat="59.9733447" lon="17.7476377">
        <ele>31.3801</ele>
        <time>2013-05-25T17:31:09Z</time>
      </trkpt>
      <trkpt lat="59.9733981" lon="17.7475793">
        <ele>31.8607</ele>
        <time>2013-05-25T17:31:10Z</time>
      </trkpt>
      <trkpt lat="59.9734523" lon="17.7475259">
        <ele>32.3416</ele>
        <time>2013-05-25T17:31:11Z</time>
      </trkpt>
      <trkpt lat="59.9735077" lon="17.7474713">
        <ele>33.3029</ele>
        <time>2013-05-25T17:31:12Z</time>
      </trkpt>
      <trkpt lat="59.9735648" lon="17.747413">
        <ele>33.7834</ele>
        <time>2013-05-25T17:31:13Z</time>
      </trkpt>
      <trkpt lat="59.9736207" lon="17.7473597">
        <ele>34.7449</ele>
        <time>2013-05-25T17:31:14Z</time>
      </trkpt>
      <trkpt lat="59.9736755" lon="17.7473047">
        <ele>34.7449</ele>
        <time>2013-05-25T17:31:15Z</time>
      </trkpt>
      <trkpt lat="59.9737306" lon="17.7472529">
        <ele>34.7449</ele>
        <time>2013-05-25T17:31:16Z</time>
      </trkpt>
      <trkpt lat="59.9737849" lon="17.7472032">
        <ele>34.2642</ele>
        <time>2013-05-25T17:31:17Z</time>
      </trkpt>
      <trkpt lat="59.9738402" lon="17.7471494">
        <ele>33.7834</ele>
        <time>2013-05-25T17:31:18Z</time>
      </trkpt>
      <trkpt lat="59.9738953" lon="17.7470852">
        <ele>33.3029</ele>
        <time>2013-05-25T17:31:19Z</time>
      </trkpt>
      <trkpt lat="59.9739521" lon="17.7470072">
        <ele>33.3029</ele>
        <time>2013-05-25T17:31:20Z</time>
      </trkpt>
      <trkpt lat="59.9740093" lon="17.7469235">
        <ele>33.3029</ele>
        <time>2013-05-25T17:31:21Z</time>
      </trkpt>
      <trkpt lat="59.9740664" lon="17.7468417">
        <ele>33.3029</ele>
        <time>2013-05-25T17:31:22Z</time>
      </trkpt>
      <trkpt lat="59.9741208" lon="17.746762">
        <ele>33.3029</ele>
        <time>2013-05-25T17:31:23Z</time>
      </trkpt>
      <trkpt lat="59.9741733" lon="17.7466878">
        <ele>32.8223</ele>
        <time>2013-05-25T17:31:24Z</time>
      </trkpt>
      <trkpt lat="59.9742251" lon="17.746611">
        <ele>33.3029</ele>
        <time>2013-05-25T17:31:25Z</time>
      </trkpt>
      <trkpt lat="59.9742771" lon="17.7465391">
        <ele>33.3029</ele>
        <time>2013-05-25T17:31:26Z</time>
      </trkpt>
      <trkpt lat="59.9743285" lon="17.7464666">
        <ele>33.3029</ele>
        <time>2013-05-25T17:31:27Z</time>
      </trkpt>
      <trkpt lat="59.9743794" lon="17.746399">
        <ele>32.8223</ele>
        <time>2013-05-25T17:31:28Z</time>
      </trkpt>
      <trkpt lat="59.9744298" lon="17.7463293">
        <ele>32.8223</ele>
        <time>2013-05-25T17:31:29Z</time>
      </trkpt>
      <trkpt lat="59.9744807" lon="17.7462566">
        <ele>33.7834</ele>
        <time>2013-05-25T17:31:30Z</time>
      </trkpt>
      <trkpt lat="59.9745283" lon="17.7461823">
        <ele>33.7834</ele>
        <time>2013-05-25T17:31:31Z</time>
      </trkpt>
      <trkpt lat="59.9745749" lon="17.7461053">
        <ele>33.3029</ele>
        <time>2013-05-25T17:31:32Z</time>
      </trkpt>
      <trkpt lat="59.9746204" lon="17.7460232">
        <ele>32.8223</ele>
        <time>2013-05-25T17:31:33Z</time>
      </trkpt>
      <trkpt lat="59.9746672" lon="17.745937">
        <ele>31.8607</ele>
        <time>2013-05-25T17:31:34Z</time>
      </trkpt>
      <trkpt lat="59.9747112" lon="17.7458501">
        <ele>31.3801</ele>
        <time>2013-05-25T17:31:35Z</time>
      </trkpt>
      <trkpt lat="59.9747545" lon="17.7457611">
        <ele>31.3801</ele>
        <time>2013-05-25T17:31:36Z</time>
      </trkpt>
      <trkpt lat="59.9747965" lon="17.7456677">
        <ele>30.8995</ele>
        <time>2013-05-25T17:31:37Z</time>
      </trkpt>
      <trkpt lat="59.9748356" lon="17.7455685">
        <ele>30.4188</ele>
        <time>2013-05-25T17:31:38Z</time>
      </trkpt>
      <trkpt lat="59.9748733" lon="17.7454657">
        <ele>30.4188</ele>
        <time>2013-05-25T17:31:39Z</time>
      </trkpt>
      <trkpt lat="59.9749112" lon="17.7453667">
        <ele>30.4188</ele>
        <time>2013-05-25T17:31:40Z</time>
      </trkpt>
      <trkpt lat="59.9749505" lon="17.7452698">
        <ele>29.9381</ele>
        <time>2013-05-25T17:31:41Z</time>
      </trkpt>
      <trkpt lat="59.9749887" lon="17.7451712">
        <ele>29.9381</ele>
        <time>2013-05-25T17:31:42Z</time>
      </trkpt>
      <trkpt lat="59.9750239" lon="17.7450711">
        <ele>29.9381</ele>
        <time>2013-05-25T17:31:43Z</time>
      </trkpt>
      <trkpt lat="59.975055" lon="17.7449717">
        <ele>29.4575</ele>
        <time>2013-05-25T17:31:44Z</time>
      </trkpt>
      <trkpt lat="59.9750836" lon="17.744867">
        <ele>28.4962</ele>
        <time>2013-05-25T17:31:45Z</time>
      </trkpt>
      <trkpt lat="59.9751141" lon="17.7447551">
        <ele>28.0155</ele>
        <time>2013-05-25T17:31:46Z</time>
      </trkpt>
      <trkpt lat="59.9751485" lon="17.7446405">
        <ele>28.0155</ele>
        <time>2013-05-25T17:31:47Z</time>
      </trkpt>
      <trkpt lat="59.9751774" lon="17.7445173">
        <ele>28.0155</ele>
        <time>2013-05-25T17:31:48Z</time>
      </trkpt>
      <trkpt lat="59.9752043" lon="17.7443909">
        <ele>28.0155</ele>
        <time>2013-05-25T17:31:49Z</time>
      </trkpt>
      <trkpt lat="59.9752313" lon="17.7442622">
        <ele>28.4962</ele>
        <time>2013-05-25T17:31:50Z</time>
      </trkpt>
      <trkpt lat="59.9752572" lon="17.744126">
        <ele>28.0155</ele>
        <time>2013-05-25T17:31:51Z</time>
      </trkpt>
      <trkpt lat="59.9752829" lon="17.74399">
        <ele>28.0155</ele>
        <time>2013-05-25T17:31:52Z</time>
      </trkpt>
      <trkpt lat="59.975308" lon="17.7438484">
        <ele>28.0155</ele>
        <time>2013-05-25T17:31:53Z</time>
      </trkpt>
      <trkpt lat="59.9753336" lon="17.7437038">
        <ele>28.0155</ele>
        <time>2013-05-25T17:31:54Z</time>
      </trkpt>
      <trkpt lat="59.9753598" lon="17.743556">
        <ele>28.4962</ele>
        <time>2013-05-25T17:31:55Z</time>
      </trkpt>
      <trkpt lat="59.9753872" lon="17.7434083">
        <ele>28.9769</ele>
        <time>2013-05-25T17:31:56Z</time>
      </trkpt>
      <trkpt lat="59.9754188" lon="17.7432651">
        <ele>28.9769</ele>
        <time>2013-05-25T17:31:57Z</time>
      </trkpt>
      <trkpt lat="59.9754543" lon="17.743128">
        <ele>28.9769</ele>
        <time>2013-05-25T17:31:58Z</time>
      </trkpt>
      <trkpt lat="59.9754907" lon="17.7429983">
        <ele>28.9769</ele>
        <time>2013-05-25T17:31:59Z</time>
      </trkpt>
      <trkpt lat="59.975526" lon="17.7428722">
        <ele>28.9769</ele>
        <time>2013-05-25T17:32:00Z</time>
      </trkpt>
      <trkpt lat="59.9755605" lon="17.7427504">
        <ele>28.9769</ele>
        <time>2013-05-25T17:32:01Z</time>
      </trkpt>
      <trkpt lat="59.9755932" lon="17.7426314">
        <ele>29.4575</ele>
        <time>2013-05-25T17:32:02Z</time>
      </trkpt>
      <trkpt lat="59.9756243" lon="17.742514">
        <ele>29.4575</ele>
        <time>2013-05-25T17:32:03Z</time>
      </trkpt>
      <trkpt lat="59.9756536" lon="17.7423964">
        <ele>29.4575</ele>
        <time>2013-05-25T17:32:04Z</time>
      </trkpt>
      <trkpt lat="59.9756814" lon="17.7422804">
        <ele>29.4575</ele>
        <time>2013-05-25T17:32:05Z</time>
      </trkpt>
      <trkpt lat="59.9757078" lon="17.7421666">
        <ele>29.9381</ele>
        <time>2013-05-25T17:32:06Z</time>
      </trkpt>
      <trkpt lat="59.975737" lon="17.7420592">
        <ele>29.9381</ele>
        <time>2013-05-25T17:32:07Z</time>
      </trkpt>
      <trkpt lat="59.9757642" lon="17.7419522">
        <ele>29.4575</ele>
        <time>2013-05-25T17:32:08Z</time>
      </trkpt>
      <trkpt lat="59.9757885" lon="17.7418426">
        <ele>28.4962</ele>
        <time>2013-05-25T17:32:09Z</time>
      </trkpt>
      <trkpt lat="59.9758126" lon="17.7417237">
        <ele>28.4962</ele>
        <time>2013-05-25T17:32:10Z</time>
      </trkpt>
      <trkpt lat="59.9758379" lon="17.7416049">
        <ele>28.0155</ele>
        <time>2013-05-25T17:32:11Z</time>
      </trkpt>
      <trkpt lat="59.9758658" lon="17.7414831">
        <ele>27.5349</ele>
        <time>2013-05-25T17:32:12Z</time>
      </trkpt>
      <trkpt lat="59.975897" lon="17.7413673">
        <ele>27.5349</ele>
        <time>2013-05-25T17:32:13Z</time>
      </trkpt>
      <trkpt lat="59.975929" lon="17.7412459">
        <ele>27.0543</ele>
        <time>2013-05-25T17:32:14Z</time>
      </trkpt>
      <trkpt lat="59.9759612" lon="17.7411191">
        <ele>27.0543</ele>
        <time>2013-05-25T17:32:15Z</time>
      </trkpt>
      <trkpt lat="59.9759932" lon="17.7409949">
        <ele>26.5736</ele>
        <time>2013-05-25T17:32:16Z</time>
      </trkpt>
      <trkpt lat="59.9760259" lon="17.7408686">
        <ele>26.5736</ele>
        <time>2013-05-25T17:32:17Z</time>
      </trkpt>
      <trkpt lat="59.9760606" lon="17.7407421">
        <ele>26.5736</ele>
        <time>2013-05-25T17:32:18Z</time>
      </trkpt>
      <trkpt lat="59.9760975" lon="17.7406184">
        <ele>26.5736</ele>
        <time>2013-05-25T17:32:19Z</time>
      </trkpt>
      <trkpt lat="59.9761362" lon="17.7404954">
        <ele>26.5736</ele>
        <time>2013-05-25T17:32:20Z</time>
      </trkpt>
      <trkpt lat="59.9761751" lon="17.7403736">
        <ele>26.5736</ele>
        <time>2013-05-25T17:32:21Z</time>
      </trkpt>
      <trkpt lat="59.9762143" lon="17.7402552">
        <ele>26.0929</ele>
        <time>2013-05-25T17:32:22Z</time>
      </trkpt>
      <trkpt lat="59.9762548" lon="17.7401381">
        <ele>25.6123</ele>
        <time>2013-05-25T17:32:23Z</time>
      </trkpt>
      <trkpt lat="59.9762961" lon="17.7400184">
        <ele>25.6123</ele>
        <time>2013-05-25T17:32:24Z</time>
      </trkpt>
      <trkpt lat="59.9763401" lon="17.7399002">
        <ele>24.651</ele>
        <time>2013-05-25T17:32:25Z</time>
      </trkpt>
      <trkpt lat="59.97639" lon="17.7397861">
        <ele>24.651</ele>
        <time>2013-05-25T17:32:26Z</time>
      </trkpt>
      <trkpt lat="59.9764466" lon="17.7396847">
        <ele>25.1317</ele>
        <time>2013-05-25T17:32:27Z</time>
      </trkpt>
      <trkpt lat="59.9765061" lon="17.7395957">
        <ele>25.1317</ele>
        <time>2013-05-25T17:32:28Z</time>
      </trkpt>
      <trkpt lat="59.9765698" lon="17.7395236">
        <ele>25.1317</ele>
        <time>2013-05-25T17:32:29Z</time>
      </trkpt>
      <trkpt lat="59.9766393" lon="17.7394656">
        <ele>26.5736</ele>
        <time>2013-05-25T17:32:30Z</time>
      </trkpt>
      <trkpt lat="59.9767093" lon="17.7394248">
        <ele>27.0543</ele>
        <time>2013-05-25T17:32:31Z</time>
      </trkpt>
      <trkpt lat="59.9767791" lon="17.7393947">
        <ele>28.0155</ele>
        <time>2013-05-25T17:32:32Z</time>
      </trkpt>
      <trkpt lat="59.9768458" lon="17.7393715">
        <ele>28.4962</ele>
        <time>2013-05-25T17:32:33Z</time>
      </trkpt>
      <trkpt lat="59.9769105" lon="17.7393434">
        <ele>29.9381</ele>
        <time>2013-05-25T17:32:34Z</time>
      </trkpt>
      <trkpt lat="59.9769775" lon="17.7393175">
        <ele>30.8995</ele>
        <time>2013-05-25T17:32:35Z</time>
      </trkpt>
      <trkpt lat="59.9770452" lon="17.7392921">
        <ele>31.3801</ele>
        <time>2013-05-25T17:32:36Z</time>
      </trkpt>
      <trkpt lat="59.9771109" lon="17.7392673">
        <ele>32.3416</ele>
        <time>2013-05-25T17:32:37Z</time>
      </trkpt>
      <trkpt lat="59.9771749" lon="17.7392412">
        <ele>32.8223</ele>
        <time>2013-05-25T17:32:38Z</time>
      </trkpt>
      <trkpt lat="59.977238" lon="17.7392135">
        <ele>33.7834</ele>
        <time>2013-05-25T17:32:39Z</time>
      </trkpt>
      <trkpt lat="59.9773021" lon="17.7391858">
        <ele>33.7834</ele>
        <time>2013-05-25T17:32:40Z</time>
      </trkpt>
      <trkpt lat="59.9773644" lon="17.7391621">
        <ele>33.7834</ele>
        <time>2013-05-25T17:32:41Z</time>
      </trkpt>
      <trkpt lat="59.9774253" lon="17.7391414">
        <ele>34.2642</ele>
        <time>2013-05-25T17:32:42Z</time>
      </trkpt>
      <trkpt lat="59.9774856" lon="17.7391217">
        <ele>34.7449</ele>
        <time>2013-05-25T17:32:43Z</time>
      </trkpt>
      <trkpt lat="59.9775438" lon="17.7390993">
        <ele>35.2255</ele>
        <time>2013-05-25T17:32:44Z</time>
      </trkpt>
      <trkpt lat="59.9776006" lon="17.7390913">
        <ele>35.7061</ele>
        <time>2013-05-25T17:32:45Z</time>
      </trkpt>
      <trkpt lat="59.9776571" lon="17.7390797">
        <ele>36.1868</ele>
        <time>2013-05-25T17:32:46Z</time>
      </trkpt>
      <trkpt lat="59.9777114" lon="17.7390834">
        <ele>36.6675</ele>
        <time>2013-05-25T17:32:47Z</time>
      </trkpt>
      <trkpt lat="59.97776" lon="17.739089">
        <ele>37.6287</ele>
        <time>2013-05-25T17:32:48Z</time>
      </trkpt>
      <trkpt lat="59.9778098" lon="17.7391075">
        <ele>38.1094</ele>
        <time>2013-05-25T17:32:49Z</time>
      </trkpt>
      <trkpt lat="59.977859" lon="17.7391367">
        <ele>39.0707</ele>
        <time>2013-05-25T17:32:50Z</time>
      </trkpt>
      <trkpt lat="59.9779058" lon="17.7391602">
        <ele>39.0707</ele>
        <time>2013-05-25T17:32:51Z</time>
      </trkpt>
      <trkpt lat="59.9779537" lon="17.739186">
        <ele>39.0707</ele>
        <time>2013-05-25T17:32:52Z</time>
      </trkpt>
      <trkpt lat="59.9780011" lon="17.7392118">
        <ele>39.5513</ele>
        <time>2013-05-25T17:32:53Z</time>
      </trkpt>
      <trkpt lat="59.9780483" lon="17.7392293">
        <ele>40.5128</ele>
        <time>2013-05-25T17:32:54Z</time>
      </trkpt>
      <trkpt lat="59.9780975" lon="17.739244">
        <ele>40.9934</ele>
        <time>2013-05-25T17:32:55Z</time>
      </trkpt>
      <trkpt lat="59.9781446" lon="17.7392495">
        <ele>41.474</ele>
        <time>2013-05-25T17:32:56Z</time>
      </trkpt>
      <trkpt lat="59.9781899" lon="17.7392563">
        <ele>41.9547</ele>
        <time>2013-05-25T17:32:57Z</time>
      </trkpt>
      <trkpt lat="59.9782356" lon="17.7392637">
        <ele>41.9547</ele>
        <time>2013-05-25T17:32:58Z</time>
      </trkpt>
      <trkpt lat="59.9782811" lon="17.7392693">
        <ele>42.4354</ele>
        <time>2013-05-25T17:32:59Z</time>
      </trkpt>
      <trkpt lat="59.9783269" lon="17.7392725">
        <ele>42.4354</ele>
        <time>2013-05-25T17:33:00Z</time>
      </trkpt>
      <trkpt lat="59.9783751" lon="17.7392782">
        <ele>42.4354</ele>
        <time>2013-05-25T17:33:01Z</time>
      </trkpt>
      <trkpt lat="59.9784252" lon="17.7392869">
        <ele>42.4354</ele>
        <time>2013-05-25T17:33:02Z</time>
      </trkpt>
      <trkpt lat="59.9784767" lon="17.7392926">
        <ele>42.4354</ele>
        <time>2013-05-25T17:33:03Z</time>
      </trkpt>
      <trkpt lat="59.9785279" lon="17.7392954">
        <ele>42.916</ele>
        <time>2013-05-25T17:33:04Z</time>
      </trkpt>
      <trkpt lat="59.9785776" lon="17.7393033">
        <ele>42.916</ele>
        <time>2013-05-25T17:33:05Z</time>
      </trkpt>
      <trkpt lat="59.9786308" lon="17.7393107">
        <ele>43.3966</ele>
        <time>2013-05-25T17:33:06Z</time>
      </trkpt>
      <trkpt lat="59.9786821" lon="17.739319">
        <ele>43.3966</ele>
        <time>2013-05-25T17:33:07Z</time>
      </trkpt>
    </trkseg>
  </trk>
</gpx>